<?xml version="1.0" encoding="UTF-8" standalone="no" ?>
<gpx xmlns="http://www.topografix.com/GPX/1/1" xmlns:xsi="http://www.w3.org/2001/XMLSchema-instance" xsi:schemaLocation="http://www.topografix.com/GPX/1/1 http://www.topografix.com/GPX/1/1/gpx.xsd" version="1.1" creator="VisuGPX - https://www.visugpx.com">
  <metadata>
    <name>Lion-sur-Mer ---&gt; Port-en-Bessin</name>
  </metadata>
  <trk>
    <name><![CDATA[Lion-sur-Mer ---> Port-en-Bessin]]></name>
    <trkseg>
      <trkpt lat="49.2971" lon="-0.31658">
        <ele>11</ele>
        <time>2021-08-18T07:33:52Z</time>
      </trkpt>
      <trkpt lat="49.29736" lon="-0.31667">
        <ele>10.9</ele>
        <time>2021-08-18T07:33:54Z</time>
      </trkpt>
      <trkpt lat="49.29744" lon="-0.31673">
        <ele>10.8</ele>
        <time>2021-08-18T07:33:56Z</time>
      </trkpt>
      <trkpt lat="49.29751" lon="-0.31678">
        <ele>10.7</ele>
        <time>2021-08-18T07:33:57Z</time>
      </trkpt>
      <trkpt lat="49.29763" lon="-0.31687">
        <ele>10.5</ele>
        <time>2021-08-18T07:33:59Z</time>
      </trkpt>
      <trkpt lat="49.29772" lon="-0.31694">
        <ele>10.4</ele>
        <time>2021-08-18T07:34:01Z</time>
      </trkpt>
      <trkpt lat="49.29778" lon="-0.31697">
        <ele>10.3</ele>
        <time>2021-08-18T07:34:02Z</time>
      </trkpt>
      <trkpt lat="49.29782" lon="-0.31702">
        <ele>10.2</ele>
        <time>2021-08-18T07:34:03Z</time>
      </trkpt>
      <trkpt lat="49.2979" lon="-0.31711">
        <ele>10.1</ele>
        <time>2021-08-18T07:34:05Z</time>
      </trkpt>
      <trkpt lat="49.29799" lon="-0.31718">
        <ele>9.9</ele>
        <time>2021-08-18T07:34:07Z</time>
      </trkpt>
      <trkpt lat="49.29804" lon="-0.31724">
        <ele>9.8</ele>
        <time>2021-08-18T07:34:08Z</time>
      </trkpt>
      <trkpt lat="49.29809" lon="-0.31729">
        <ele>9.7</ele>
        <time>2021-08-18T07:34:09Z</time>
      </trkpt>
      <trkpt lat="49.29822" lon="-0.31735">
        <ele>9.4</ele>
        <time>2021-08-18T07:34:11Z</time>
      </trkpt>
      <trkpt lat="49.29835" lon="-0.31747">
        <ele>9</ele>
        <time>2021-08-18T07:34:13Z</time>
      </trkpt>
      <trkpt lat="49.2985" lon="-0.31759">
        <ele>8.7</ele>
        <time>2021-08-18T07:34:15Z</time>
      </trkpt>
      <trkpt lat="49.29864" lon="-0.31772">
        <ele>8.1</ele>
        <time>2021-08-18T07:34:17Z</time>
      </trkpt>
      <trkpt lat="49.2987" lon="-0.31778">
        <ele>7.8</ele>
        <time>2021-08-18T07:34:18Z</time>
      </trkpt>
      <trkpt lat="49.29881" lon="-0.3179">
        <ele>7.5</ele>
        <time>2021-08-18T07:34:20Z</time>
      </trkpt>
      <trkpt lat="49.29885" lon="-0.31793">
        <ele>7.4</ele>
        <time>2021-08-18T07:34:21Z</time>
      </trkpt>
      <trkpt lat="49.29888" lon="-0.31793">
        <ele>7.3</ele>
        <time>2021-08-18T07:34:22Z</time>
      </trkpt>
      <trkpt lat="49.2989" lon="-0.31792">
        <ele>7.2</ele>
        <time>2021-08-18T07:34:23Z</time>
      </trkpt>
      <trkpt lat="49.29895" lon="-0.31781">
        <ele>7.1</ele>
        <time>2021-08-18T07:34:25Z</time>
      </trkpt>
      <trkpt lat="49.29898" lon="-0.31773">
        <ele>7</ele>
        <time>2021-08-18T07:34:26Z</time>
      </trkpt>
      <trkpt lat="49.29908" lon="-0.31755">
        <ele>7</ele>
        <time>2021-08-18T07:34:28Z</time>
      </trkpt>
      <trkpt lat="49.29916" lon="-0.31736">
        <ele>7</ele>
        <time>2021-08-18T07:34:30Z</time>
      </trkpt>
      <trkpt lat="49.2992" lon="-0.31729">
        <ele>7</ele>
        <time>2021-08-18T07:34:31Z</time>
      </trkpt>
      <trkpt lat="49.2993" lon="-0.31712">
        <ele>7</ele>
        <time>2021-08-18T07:34:33Z</time>
      </trkpt>
      <trkpt lat="49.29941" lon="-0.31699">
        <ele>7</ele>
        <time>2021-08-18T07:34:35Z</time>
      </trkpt>
      <trkpt lat="49.29948" lon="-0.31693">
        <ele>6.9</ele>
        <time>2021-08-18T07:34:36Z</time>
      </trkpt>
      <trkpt lat="49.2996" lon="-0.31686">
        <ele>6.8</ele>
        <time>2021-08-18T07:34:38Z</time>
      </trkpt>
      <trkpt lat="49.29965" lon="-0.31683">
        <ele>6.7</ele>
        <time>2021-08-18T07:34:39Z</time>
      </trkpt>
      <trkpt lat="49.29981" lon="-0.31686">
        <ele>6.4</ele>
        <time>2021-08-18T07:34:41Z</time>
      </trkpt>
      <trkpt lat="49.29994" lon="-0.31696">
        <ele>6.2</ele>
        <time>2021-08-18T07:34:43Z</time>
      </trkpt>
      <trkpt lat="49.30007" lon="-0.31712">
        <ele>6.1</ele>
        <time>2021-08-18T07:34:45Z</time>
      </trkpt>
      <trkpt lat="49.30017" lon="-0.31729">
        <ele>6</ele>
        <time>2021-08-18T07:34:47Z</time>
      </trkpt>
      <trkpt lat="49.30027" lon="-0.31741">
        <ele>5.9</ele>
        <time>2021-08-18T07:34:49Z</time>
      </trkpt>
      <trkpt lat="49.30035" lon="-0.31741">
        <ele>5.9</ele>
        <time>2021-08-18T07:34:51Z</time>
      </trkpt>
      <trkpt lat="49.30043" lon="-0.31737">
        <ele>6</ele>
        <time>2021-08-18T07:34:53Z</time>
      </trkpt>
      <trkpt lat="49.30046" lon="-0.31732">
        <ele>6</ele>
        <time>2021-08-18T07:34:55Z</time>
      </trkpt>
      <trkpt lat="49.30047" lon="-0.31728">
        <ele>6.1</ele>
        <time>2021-08-18T07:34:56Z</time>
      </trkpt>
      <trkpt lat="49.3005" lon="-0.31723">
        <ele>6.1</ele>
        <time>2021-08-18T07:34:57Z</time>
      </trkpt>
      <trkpt lat="49.30053" lon="-0.31716">
        <ele>6.1</ele>
        <time>2021-08-18T07:34:58Z</time>
      </trkpt>
      <trkpt lat="49.30057" lon="-0.3171">
        <ele>6.1</ele>
        <time>2021-08-18T07:34:59Z</time>
      </trkpt>
      <trkpt lat="49.30059" lon="-0.31705">
        <ele>6.2</ele>
        <time>2021-08-18T07:35:01Z</time>
      </trkpt>
      <trkpt lat="49.3006" lon="-0.31704">
        <ele>6.2</ele>
        <time>2021-08-18T07:35:02Z</time>
      </trkpt>
      <trkpt lat="49.30061" lon="-0.31704">
        <ele>6.2</ele>
        <time>2021-08-18T07:35:03Z</time>
      </trkpt>
      <trkpt lat="49.30061" lon="-0.31703">
        <ele>6.2</ele>
        <time>2021-08-18T07:35:04Z</time>
      </trkpt>
      <trkpt lat="49.30061" lon="-0.31704">
        <ele>6.2</ele>
        <time>2021-08-18T07:35:05Z</time>
      </trkpt>
      <trkpt lat="49.30062" lon="-0.31703">
        <ele>6.2</ele>
        <time>2021-08-18T07:35:07Z</time>
      </trkpt>
      <trkpt lat="49.30067" lon="-0.31701">
        <ele>6.3</ele>
        <time>2021-08-18T07:35:09Z</time>
      </trkpt>
      <trkpt lat="49.30069" lon="-0.31704">
        <ele>6.3</ele>
        <time>2021-08-18T07:35:10Z</time>
      </trkpt>
      <trkpt lat="49.30073" lon="-0.31708">
        <ele>6.3</ele>
        <time>2021-08-18T07:35:11Z</time>
      </trkpt>
      <trkpt lat="49.30078" lon="-0.3171">
        <ele>6.4</ele>
        <time>2021-08-18T07:35:12Z</time>
      </trkpt>
      <trkpt lat="49.30093" lon="-0.31715">
        <ele>6.6</ele>
        <time>2021-08-18T07:35:14Z</time>
      </trkpt>
      <trkpt lat="49.30102" lon="-0.31726">
        <ele>6.7</ele>
        <time>2021-08-18T07:35:16Z</time>
      </trkpt>
      <trkpt lat="49.30106" lon="-0.31733">
        <ele>6.8</ele>
        <time>2021-08-18T07:35:17Z</time>
      </trkpt>
      <trkpt lat="49.30117" lon="-0.31745">
        <ele>6.9</ele>
        <time>2021-08-18T07:35:19Z</time>
      </trkpt>
      <trkpt lat="49.30122" lon="-0.31751">
        <ele>7</ele>
        <time>2021-08-18T07:35:20Z</time>
      </trkpt>
      <trkpt lat="49.30133" lon="-0.31765">
        <ele>7.1</ele>
        <time>2021-08-18T07:35:22Z</time>
      </trkpt>
      <trkpt lat="49.30138" lon="-0.31772">
        <ele>7.2</ele>
        <time>2021-08-18T07:35:23Z</time>
      </trkpt>
      <trkpt lat="49.30147" lon="-0.31788">
        <ele>7.4</ele>
        <time>2021-08-18T07:35:25Z</time>
      </trkpt>
      <trkpt lat="49.30157" lon="-0.31801">
        <ele>7.7</ele>
        <time>2021-08-18T07:35:27Z</time>
      </trkpt>
      <trkpt lat="49.30167" lon="-0.31812">
        <ele>7.9</ele>
        <time>2021-08-18T07:35:29Z</time>
      </trkpt>
      <trkpt lat="49.30172" lon="-0.31818">
        <ele>8</ele>
        <time>2021-08-18T07:35:30Z</time>
      </trkpt>
      <trkpt lat="49.30177" lon="-0.31824">
        <ele>8.1</ele>
        <time>2021-08-18T07:35:31Z</time>
      </trkpt>
      <trkpt lat="49.30189" lon="-0.31838">
        <ele>8.4</ele>
        <time>2021-08-18T07:35:33Z</time>
      </trkpt>
      <trkpt lat="49.30199" lon="-0.31852">
        <ele>8.6</ele>
        <time>2021-08-18T07:35:35Z</time>
      </trkpt>
      <trkpt lat="49.30209" lon="-0.31866">
        <ele>8.8</ele>
        <time>2021-08-18T07:35:37Z</time>
      </trkpt>
      <trkpt lat="49.30219" lon="-0.3188">
        <ele>9</ele>
        <time>2021-08-18T07:35:39Z</time>
      </trkpt>
      <trkpt lat="49.30224" lon="-0.31888">
        <ele>9.1</ele>
        <time>2021-08-18T07:35:40Z</time>
      </trkpt>
      <trkpt lat="49.30233" lon="-0.31904">
        <ele>9.2</ele>
        <time>2021-08-18T07:35:42Z</time>
      </trkpt>
      <trkpt lat="49.30239" lon="-0.31911">
        <ele>9.3</ele>
        <time>2021-08-18T07:35:43Z</time>
      </trkpt>
      <trkpt lat="49.30244" lon="-0.31918">
        <ele>9.4</ele>
        <time>2021-08-18T07:35:44Z</time>
      </trkpt>
      <trkpt lat="49.30255" lon="-0.31932">
        <ele>9.6</ele>
        <time>2021-08-18T07:35:46Z</time>
      </trkpt>
      <trkpt lat="49.3026" lon="-0.3194">
        <ele>9.6</ele>
        <time>2021-08-18T07:35:47Z</time>
      </trkpt>
      <trkpt lat="49.3027" lon="-0.31956">
        <ele>9.8</ele>
        <time>2021-08-18T07:35:49Z</time>
      </trkpt>
      <trkpt lat="49.30276" lon="-0.31963">
        <ele>9.8</ele>
        <time>2021-08-18T07:35:50Z</time>
      </trkpt>
      <trkpt lat="49.30281" lon="-0.3197">
        <ele>9.9</ele>
        <time>2021-08-18T07:35:51Z</time>
      </trkpt>
      <trkpt lat="49.30292" lon="-0.31986">
        <ele>10.1</ele>
        <time>2021-08-18T07:35:53Z</time>
      </trkpt>
      <trkpt lat="49.30302" lon="-0.32003">
        <ele>10.2</ele>
        <time>2021-08-18T07:35:55Z</time>
      </trkpt>
      <trkpt lat="49.30313" lon="-0.32018">
        <ele>10.2</ele>
        <time>2021-08-18T07:35:57Z</time>
      </trkpt>
      <trkpt lat="49.30319" lon="-0.32026">
        <ele>10.3</ele>
        <time>2021-08-18T07:35:58Z</time>
      </trkpt>
      <trkpt lat="49.3033" lon="-0.32041">
        <ele>10.3</ele>
        <time>2021-08-18T07:36:00Z</time>
      </trkpt>
      <trkpt lat="49.30336" lon="-0.32049">
        <ele>10.4</ele>
        <time>2021-08-18T07:36:01Z</time>
      </trkpt>
      <trkpt lat="49.30346" lon="-0.32065">
        <ele>10.4</ele>
        <time>2021-08-18T07:36:03Z</time>
      </trkpt>
      <trkpt lat="49.30351" lon="-0.32072">
        <ele>10.4</ele>
        <time>2021-08-18T07:36:04Z</time>
      </trkpt>
      <trkpt lat="49.30357" lon="-0.32079">
        <ele>10.4</ele>
        <time>2021-08-18T07:36:05Z</time>
      </trkpt>
      <trkpt lat="49.30369" lon="-0.32092">
        <ele>10.4</ele>
        <time>2021-08-18T07:36:07Z</time>
      </trkpt>
      <trkpt lat="49.30375" lon="-0.32099">
        <ele>10.4</ele>
        <time>2021-08-18T07:36:08Z</time>
      </trkpt>
      <trkpt lat="49.30385" lon="-0.32116">
        <ele>10.4</ele>
        <time>2021-08-18T07:36:10Z</time>
      </trkpt>
      <trkpt lat="49.30397" lon="-0.32131">
        <ele>10.3</ele>
        <time>2021-08-18T07:36:12Z</time>
      </trkpt>
      <trkpt lat="49.30403" lon="-0.32139">
        <ele>10.3</ele>
        <time>2021-08-18T07:36:13Z</time>
      </trkpt>
      <trkpt lat="49.30408" lon="-0.32147">
        <ele>10.3</ele>
        <time>2021-08-18T07:36:14Z</time>
      </trkpt>
      <trkpt lat="49.30414" lon="-0.32154">
        <ele>10.3</ele>
        <time>2021-08-18T07:36:15Z</time>
      </trkpt>
      <trkpt lat="49.30419" lon="-0.32162">
        <ele>10.2</ele>
        <time>2021-08-18T07:36:16Z</time>
      </trkpt>
      <trkpt lat="49.3043" lon="-0.32179">
        <ele>10.2</ele>
        <time>2021-08-18T07:36:18Z</time>
      </trkpt>
      <trkpt lat="49.30441" lon="-0.32194">
        <ele>10.1</ele>
        <time>2021-08-18T07:36:20Z</time>
      </trkpt>
      <trkpt lat="49.30447" lon="-0.32202">
        <ele>10.1</ele>
        <time>2021-08-18T07:36:21Z</time>
      </trkpt>
      <trkpt lat="49.30452" lon="-0.3221">
        <ele>10.1</ele>
        <time>2021-08-18T07:36:22Z</time>
      </trkpt>
      <trkpt lat="49.30463" lon="-0.32227">
        <ele>9.9</ele>
        <time>2021-08-18T07:36:24Z</time>
      </trkpt>
      <trkpt lat="49.30468" lon="-0.32235">
        <ele>9.9</ele>
        <time>2021-08-18T07:36:25Z</time>
      </trkpt>
      <trkpt lat="49.30479" lon="-0.32251">
        <ele>9.8</ele>
        <time>2021-08-18T07:36:27Z</time>
      </trkpt>
      <trkpt lat="49.30485" lon="-0.3226">
        <ele>9.7</ele>
        <time>2021-08-18T07:36:28Z</time>
      </trkpt>
      <trkpt lat="49.30491" lon="-0.32268">
        <ele>9.7</ele>
        <time>2021-08-18T07:36:29Z</time>
      </trkpt>
      <trkpt lat="49.30495" lon="-0.32277">
        <ele>9.6</ele>
        <time>2021-08-18T07:36:30Z</time>
      </trkpt>
      <trkpt lat="49.305" lon="-0.32284">
        <ele>9.6</ele>
        <time>2021-08-18T07:36:31Z</time>
      </trkpt>
      <trkpt lat="49.30512" lon="-0.32299">
        <ele>9.5</ele>
        <time>2021-08-18T07:36:33Z</time>
      </trkpt>
      <trkpt lat="49.30517" lon="-0.32307">
        <ele>9.4</ele>
        <time>2021-08-18T07:36:34Z</time>
      </trkpt>
      <trkpt lat="49.30523" lon="-0.32315">
        <ele>9.3</ele>
        <time>2021-08-18T07:36:35Z</time>
      </trkpt>
      <trkpt lat="49.30534" lon="-0.32332">
        <ele>9.2</ele>
        <time>2021-08-18T07:36:37Z</time>
      </trkpt>
      <trkpt lat="49.30544" lon="-0.32348">
        <ele>9</ele>
        <time>2021-08-18T07:36:39Z</time>
      </trkpt>
      <trkpt lat="49.30554" lon="-0.32363">
        <ele>8.9</ele>
        <time>2021-08-18T07:36:41Z</time>
      </trkpt>
      <trkpt lat="49.30559" lon="-0.32371">
        <ele>8.8</ele>
        <time>2021-08-18T07:36:42Z</time>
      </trkpt>
      <trkpt lat="49.30571" lon="-0.32382">
        <ele>8.7</ele>
        <time>2021-08-18T07:36:44Z</time>
      </trkpt>
      <trkpt lat="49.30583" lon="-0.32394">
        <ele>8.7</ele>
        <time>2021-08-18T07:36:46Z</time>
      </trkpt>
      <trkpt lat="49.3059" lon="-0.32415">
        <ele>8.6</ele>
        <time>2021-08-18T07:36:48Z</time>
      </trkpt>
      <trkpt lat="49.30593" lon="-0.32425">
        <ele>8.6</ele>
        <time>2021-08-18T07:36:49Z</time>
      </trkpt>
      <trkpt lat="49.30602" lon="-0.32444">
        <ele>8.6</ele>
        <time>2021-08-18T07:36:51Z</time>
      </trkpt>
      <trkpt lat="49.3061" lon="-0.32464">
        <ele>8.6</ele>
        <time>2021-08-18T07:36:53Z</time>
      </trkpt>
      <trkpt lat="49.30614" lon="-0.32473">
        <ele>8.7</ele>
        <time>2021-08-18T07:36:54Z</time>
      </trkpt>
      <trkpt lat="49.30623" lon="-0.32491">
        <ele>8.7</ele>
        <time>2021-08-18T07:36:56Z</time>
      </trkpt>
      <trkpt lat="49.30628" lon="-0.325">
        <ele>8.8</ele>
        <time>2021-08-18T07:36:57Z</time>
      </trkpt>
      <trkpt lat="49.30637" lon="-0.32517">
        <ele>8.9</ele>
        <time>2021-08-18T07:36:59Z</time>
      </trkpt>
      <trkpt lat="49.30646" lon="-0.32535">
        <ele>9</ele>
        <time>2021-08-18T07:37:01Z</time>
      </trkpt>
      <trkpt lat="49.30655" lon="-0.32553">
        <ele>9.2</ele>
        <time>2021-08-18T07:37:03Z</time>
      </trkpt>
      <trkpt lat="49.30664" lon="-0.32571">
        <ele>9.3</ele>
        <time>2021-08-18T07:37:05Z</time>
      </trkpt>
      <trkpt lat="49.30673" lon="-0.32589">
        <ele>9.4</ele>
        <time>2021-08-18T07:37:07Z</time>
      </trkpt>
      <trkpt lat="49.30682" lon="-0.32605">
        <ele>9.6</ele>
        <time>2021-08-18T07:37:09Z</time>
      </trkpt>
      <trkpt lat="49.30692" lon="-0.32621">
        <ele>9.7</ele>
        <time>2021-08-18T07:37:11Z</time>
      </trkpt>
      <trkpt lat="49.30701" lon="-0.32638">
        <ele>9.9</ele>
        <time>2021-08-18T07:37:13Z</time>
      </trkpt>
      <trkpt lat="49.30705" lon="-0.32647">
        <ele>9.9</ele>
        <time>2021-08-18T07:37:14Z</time>
      </trkpt>
      <trkpt lat="49.3071" lon="-0.32656">
        <ele>10</ele>
        <time>2021-08-18T07:37:15Z</time>
      </trkpt>
      <trkpt lat="49.30718" lon="-0.32674">
        <ele>10.1</ele>
        <time>2021-08-18T07:37:17Z</time>
      </trkpt>
      <trkpt lat="49.30726" lon="-0.32691">
        <ele>10.2</ele>
        <time>2021-08-18T07:37:19Z</time>
      </trkpt>
      <trkpt lat="49.30734" lon="-0.32709">
        <ele>10.3</ele>
        <time>2021-08-18T07:37:21Z</time>
      </trkpt>
      <trkpt lat="49.30739" lon="-0.32717">
        <ele>10.4</ele>
        <time>2021-08-18T07:37:22Z</time>
      </trkpt>
      <trkpt lat="49.30745" lon="-0.32734">
        <ele>10.4</ele>
        <time>2021-08-18T07:37:24Z</time>
      </trkpt>
      <trkpt lat="49.30753" lon="-0.32748">
        <ele>10.4</ele>
        <time>2021-08-18T07:37:26Z</time>
      </trkpt>
      <trkpt lat="49.30761" lon="-0.32763">
        <ele>10.2</ele>
        <time>2021-08-18T07:37:28Z</time>
      </trkpt>
      <trkpt lat="49.30765" lon="-0.32771">
        <ele>10.2</ele>
        <time>2021-08-18T07:37:29Z</time>
      </trkpt>
      <trkpt lat="49.30773" lon="-0.32787">
        <ele>10.2</ele>
        <time>2021-08-18T07:37:31Z</time>
      </trkpt>
      <trkpt lat="49.30781" lon="-0.32802">
        <ele>10.3</ele>
        <time>2021-08-18T07:37:33Z</time>
      </trkpt>
      <trkpt lat="49.30789" lon="-0.32817">
        <ele>10.3</ele>
        <time>2021-08-18T07:37:35Z</time>
      </trkpt>
      <trkpt lat="49.30792" lon="-0.32825">
        <ele>10.3</ele>
        <time>2021-08-18T07:37:36Z</time>
      </trkpt>
      <trkpt lat="49.30801" lon="-0.32841">
        <ele>10.4</ele>
        <time>2021-08-18T07:37:38Z</time>
      </trkpt>
      <trkpt lat="49.30805" lon="-0.32848">
        <ele>10.4</ele>
        <time>2021-08-18T07:37:39Z</time>
      </trkpt>
      <trkpt lat="49.30808" lon="-0.32856">
        <ele>10.4</ele>
        <time>2021-08-18T07:37:40Z</time>
      </trkpt>
      <trkpt lat="49.30816" lon="-0.32871">
        <ele>10.5</ele>
        <time>2021-08-18T07:37:42Z</time>
      </trkpt>
      <trkpt lat="49.30824" lon="-0.32886">
        <ele>10.6</ele>
        <time>2021-08-18T07:37:44Z</time>
      </trkpt>
      <trkpt lat="49.30828" lon="-0.32895">
        <ele>10.6</ele>
        <time>2021-08-18T07:37:45Z</time>
      </trkpt>
      <trkpt lat="49.30832" lon="-0.32903">
        <ele>10.7</ele>
        <time>2021-08-18T07:37:46Z</time>
      </trkpt>
      <trkpt lat="49.3084" lon="-0.32919">
        <ele>10.7</ele>
        <time>2021-08-18T07:37:48Z</time>
      </trkpt>
      <trkpt lat="49.30843" lon="-0.32927">
        <ele>10.7</ele>
        <time>2021-08-18T07:37:49Z</time>
      </trkpt>
      <trkpt lat="49.30847" lon="-0.32935">
        <ele>10.8</ele>
        <time>2021-08-18T07:37:50Z</time>
      </trkpt>
      <trkpt lat="49.30856" lon="-0.3295">
        <ele>10.9</ele>
        <time>2021-08-18T07:37:52Z</time>
      </trkpt>
      <trkpt lat="49.30864" lon="-0.32965">
        <ele>10.9</ele>
        <time>2021-08-18T07:37:54Z</time>
      </trkpt>
      <trkpt lat="49.30868" lon="-0.32973">
        <ele>11</ele>
        <time>2021-08-18T07:37:55Z</time>
      </trkpt>
      <trkpt lat="49.30876" lon="-0.32988">
        <ele>11</ele>
        <time>2021-08-18T07:37:57Z</time>
      </trkpt>
      <trkpt lat="49.30884" lon="-0.33004">
        <ele>11.1</ele>
        <time>2021-08-18T07:37:59Z</time>
      </trkpt>
      <trkpt lat="49.30892" lon="-0.3302">
        <ele>11.2</ele>
        <time>2021-08-18T07:38:01Z</time>
      </trkpt>
      <trkpt lat="49.30898" lon="-0.33036">
        <ele>11.3</ele>
        <time>2021-08-18T07:38:03Z</time>
      </trkpt>
      <trkpt lat="49.30902" lon="-0.33043">
        <ele>11.4</ele>
        <time>2021-08-18T07:38:04Z</time>
      </trkpt>
      <trkpt lat="49.30905" lon="-0.3305">
        <ele>11.4</ele>
        <time>2021-08-18T07:38:05Z</time>
      </trkpt>
      <trkpt lat="49.30911" lon="-0.33065">
        <ele>11.5</ele>
        <time>2021-08-18T07:38:07Z</time>
      </trkpt>
      <trkpt lat="49.30914" lon="-0.33073">
        <ele>11.5</ele>
        <time>2021-08-18T07:38:08Z</time>
      </trkpt>
      <trkpt lat="49.30919" lon="-0.3309">
        <ele>11.6</ele>
        <time>2021-08-18T07:38:10Z</time>
      </trkpt>
      <trkpt lat="49.30926" lon="-0.33108">
        <ele>11.6</ele>
        <time>2021-08-18T07:38:12Z</time>
      </trkpt>
      <trkpt lat="49.30934" lon="-0.33124">
        <ele>11.6</ele>
        <time>2021-08-18T07:38:14Z</time>
      </trkpt>
      <trkpt lat="49.30941" lon="-0.33142">
        <ele>11.6</ele>
        <time>2021-08-18T07:38:16Z</time>
      </trkpt>
      <trkpt lat="49.30945" lon="-0.3315">
        <ele>11.6</ele>
        <time>2021-08-18T07:38:17Z</time>
      </trkpt>
      <trkpt lat="49.30949" lon="-0.33158">
        <ele>11.6</ele>
        <time>2021-08-18T07:38:18Z</time>
      </trkpt>
      <trkpt lat="49.30953" lon="-0.33166">
        <ele>11.7</ele>
        <time>2021-08-18T07:38:19Z</time>
      </trkpt>
      <trkpt lat="49.3096" lon="-0.33182">
        <ele>11.7</ele>
        <time>2021-08-18T07:38:21Z</time>
      </trkpt>
      <trkpt lat="49.30967" lon="-0.33199">
        <ele>11.7</ele>
        <time>2021-08-18T07:38:23Z</time>
      </trkpt>
      <trkpt lat="49.30974" lon="-0.33216">
        <ele>11.7</ele>
        <time>2021-08-18T07:38:25Z</time>
      </trkpt>
      <trkpt lat="49.30978" lon="-0.33224">
        <ele>11.7</ele>
        <time>2021-08-18T07:38:26Z</time>
      </trkpt>
      <trkpt lat="49.30982" lon="-0.33233">
        <ele>11.8</ele>
        <time>2021-08-18T07:38:27Z</time>
      </trkpt>
      <trkpt lat="49.30989" lon="-0.3325">
        <ele>11.8</ele>
        <time>2021-08-18T07:38:29Z</time>
      </trkpt>
      <trkpt lat="49.30992" lon="-0.33259">
        <ele>11.8</ele>
        <time>2021-08-18T07:38:30Z</time>
      </trkpt>
      <trkpt lat="49.30996" lon="-0.33268">
        <ele>11.8</ele>
        <time>2021-08-18T07:38:31Z</time>
      </trkpt>
      <trkpt lat="49.31" lon="-0.33277">
        <ele>11.8</ele>
        <time>2021-08-18T07:38:32Z</time>
      </trkpt>
      <trkpt lat="49.31008" lon="-0.33294">
        <ele>11.8</ele>
        <time>2021-08-18T07:38:34Z</time>
      </trkpt>
      <trkpt lat="49.31015" lon="-0.33312">
        <ele>11.8</ele>
        <time>2021-08-18T07:38:36Z</time>
      </trkpt>
      <trkpt lat="49.31019" lon="-0.33321">
        <ele>11.8</ele>
        <time>2021-08-18T07:38:37Z</time>
      </trkpt>
      <trkpt lat="49.31026" lon="-0.3334">
        <ele>11.8</ele>
        <time>2021-08-18T07:38:39Z</time>
      </trkpt>
      <trkpt lat="49.3103" lon="-0.3335">
        <ele>11.8</ele>
        <time>2021-08-18T07:38:40Z</time>
      </trkpt>
      <trkpt lat="49.31033" lon="-0.33359">
        <ele>11.7</ele>
        <time>2021-08-18T07:38:41Z</time>
      </trkpt>
      <trkpt lat="49.31037" lon="-0.33368">
        <ele>11.7</ele>
        <time>2021-08-18T07:38:42Z</time>
      </trkpt>
      <trkpt lat="49.31044" lon="-0.33387">
        <ele>11.7</ele>
        <time>2021-08-18T07:38:44Z</time>
      </trkpt>
      <trkpt lat="49.31048" lon="-0.33396">
        <ele>11.7</ele>
        <time>2021-08-18T07:38:45Z</time>
      </trkpt>
      <trkpt lat="49.31056" lon="-0.33414">
        <ele>11.7</ele>
        <time>2021-08-18T07:38:47Z</time>
      </trkpt>
      <trkpt lat="49.31063" lon="-0.33432">
        <ele>11.7</ele>
        <time>2021-08-18T07:38:49Z</time>
      </trkpt>
      <trkpt lat="49.31067" lon="-0.33441">
        <ele>11.6</ele>
        <time>2021-08-18T07:38:50Z</time>
      </trkpt>
      <trkpt lat="49.31075" lon="-0.33459">
        <ele>11.6</ele>
        <time>2021-08-18T07:38:52Z</time>
      </trkpt>
      <trkpt lat="49.31082" lon="-0.33477">
        <ele>11.6</ele>
        <time>2021-08-18T07:38:54Z</time>
      </trkpt>
      <trkpt lat="49.31089" lon="-0.33495">
        <ele>11.6</ele>
        <time>2021-08-18T07:38:56Z</time>
      </trkpt>
      <trkpt lat="49.31092" lon="-0.33503">
        <ele>11.6</ele>
        <time>2021-08-18T07:38:57Z</time>
      </trkpt>
      <trkpt lat="49.311" lon="-0.33522">
        <ele>11.6</ele>
        <time>2021-08-18T07:38:59Z</time>
      </trkpt>
      <trkpt lat="49.31107" lon="-0.3354">
        <ele>11.6</ele>
        <time>2021-08-18T07:39:01Z</time>
      </trkpt>
      <trkpt lat="49.31115" lon="-0.33558">
        <ele>11.6</ele>
        <time>2021-08-18T07:39:03Z</time>
      </trkpt>
      <trkpt lat="49.31119" lon="-0.33568">
        <ele>11.5</ele>
        <time>2021-08-18T07:39:04Z</time>
      </trkpt>
      <trkpt lat="49.31126" lon="-0.33586">
        <ele>11.5</ele>
        <time>2021-08-18T07:39:06Z</time>
      </trkpt>
      <trkpt lat="49.3113" lon="-0.33595">
        <ele>11.5</ele>
        <time>2021-08-18T07:39:07Z</time>
      </trkpt>
      <trkpt lat="49.31133" lon="-0.33603">
        <ele>11.4</ele>
        <time>2021-08-18T07:39:08Z</time>
      </trkpt>
      <trkpt lat="49.31137" lon="-0.33612">
        <ele>11.4</ele>
        <time>2021-08-18T07:39:09Z</time>
      </trkpt>
      <trkpt lat="49.31143" lon="-0.33628">
        <ele>11.3</ele>
        <time>2021-08-18T07:39:11Z</time>
      </trkpt>
      <trkpt lat="49.3115" lon="-0.33644">
        <ele>11.3</ele>
        <time>2021-08-18T07:39:13Z</time>
      </trkpt>
      <trkpt lat="49.31153" lon="-0.33652">
        <ele>11.2</ele>
        <time>2021-08-18T07:39:14Z</time>
      </trkpt>
      <trkpt lat="49.31159" lon="-0.33667">
        <ele>11.2</ele>
        <time>2021-08-18T07:39:16Z</time>
      </trkpt>
      <trkpt lat="49.31162" lon="-0.33675">
        <ele>11.2</ele>
        <time>2021-08-18T07:39:17Z</time>
      </trkpt>
      <trkpt lat="49.3117" lon="-0.3369">
        <ele>11.1</ele>
        <time>2021-08-18T07:39:19Z</time>
      </trkpt>
      <trkpt lat="49.31173" lon="-0.33698">
        <ele>11.1</ele>
        <time>2021-08-18T07:39:20Z</time>
      </trkpt>
      <trkpt lat="49.3118" lon="-0.33715">
        <ele>11</ele>
        <time>2021-08-18T07:39:22Z</time>
      </trkpt>
      <trkpt lat="49.31183" lon="-0.33723">
        <ele>11</ele>
        <time>2021-08-18T07:39:23Z</time>
      </trkpt>
      <trkpt lat="49.3119" lon="-0.33741">
        <ele>10.8</ele>
        <time>2021-08-18T07:39:25Z</time>
      </trkpt>
      <trkpt lat="49.31198" lon="-0.33759">
        <ele>10.8</ele>
        <time>2021-08-18T07:39:27Z</time>
      </trkpt>
      <trkpt lat="49.31205" lon="-0.33777">
        <ele>10.7</ele>
        <time>2021-08-18T07:39:29Z</time>
      </trkpt>
      <trkpt lat="49.31209" lon="-0.33786">
        <ele>10.7</ele>
        <time>2021-08-18T07:39:30Z</time>
      </trkpt>
      <trkpt lat="49.31213" lon="-0.33795">
        <ele>10.6</ele>
        <time>2021-08-18T07:39:31Z</time>
      </trkpt>
      <trkpt lat="49.31216" lon="-0.33804">
        <ele>10.5</ele>
        <time>2021-08-18T07:39:32Z</time>
      </trkpt>
      <trkpt lat="49.31224" lon="-0.33822">
        <ele>10.4</ele>
        <time>2021-08-18T07:39:34Z</time>
      </trkpt>
      <trkpt lat="49.31228" lon="-0.33832">
        <ele>10.3</ele>
        <time>2021-08-18T07:39:35Z</time>
      </trkpt>
      <trkpt lat="49.31232" lon="-0.33841">
        <ele>10.3</ele>
        <time>2021-08-18T07:39:36Z</time>
      </trkpt>
      <trkpt lat="49.31239" lon="-0.33859">
        <ele>10.2</ele>
        <time>2021-08-18T07:39:38Z</time>
      </trkpt>
      <trkpt lat="49.31243" lon="-0.33869">
        <ele>10.1</ele>
        <time>2021-08-18T07:39:39Z</time>
      </trkpt>
      <trkpt lat="49.31247" lon="-0.33878">
        <ele>10</ele>
        <time>2021-08-18T07:39:40Z</time>
      </trkpt>
      <trkpt lat="49.31255" lon="-0.33897">
        <ele>9.8</ele>
        <time>2021-08-18T07:39:42Z</time>
      </trkpt>
      <trkpt lat="49.31262" lon="-0.33916">
        <ele>9.7</ele>
        <time>2021-08-18T07:39:44Z</time>
      </trkpt>
      <trkpt lat="49.31271" lon="-0.33934">
        <ele>9.6</ele>
        <time>2021-08-18T07:39:46Z</time>
      </trkpt>
      <trkpt lat="49.31275" lon="-0.33943">
        <ele>9.6</ele>
        <time>2021-08-18T07:39:47Z</time>
      </trkpt>
      <trkpt lat="49.31282" lon="-0.33962">
        <ele>9.4</ele>
        <time>2021-08-18T07:39:49Z</time>
      </trkpt>
      <trkpt lat="49.31286" lon="-0.33972">
        <ele>9.4</ele>
        <time>2021-08-18T07:39:50Z</time>
      </trkpt>
      <trkpt lat="49.31292" lon="-0.33992">
        <ele>9.2</ele>
        <time>2021-08-18T07:39:52Z</time>
      </trkpt>
      <trkpt lat="49.31296" lon="-0.34001">
        <ele>9.2</ele>
        <time>2021-08-18T07:39:53Z</time>
      </trkpt>
      <trkpt lat="49.31304" lon="-0.3402">
        <ele>9</ele>
        <time>2021-08-18T07:39:55Z</time>
      </trkpt>
      <trkpt lat="49.31311" lon="-0.34039">
        <ele>8.9</ele>
        <time>2021-08-18T07:39:57Z</time>
      </trkpt>
      <trkpt lat="49.31319" lon="-0.34058">
        <ele>8.8</ele>
        <time>2021-08-18T07:39:59Z</time>
      </trkpt>
      <trkpt lat="49.31323" lon="-0.34068">
        <ele>8.7</ele>
        <time>2021-08-18T07:40:00Z</time>
      </trkpt>
      <trkpt lat="49.31331" lon="-0.34087">
        <ele>8.5</ele>
        <time>2021-08-18T07:40:02Z</time>
      </trkpt>
      <trkpt lat="49.31339" lon="-0.34107">
        <ele>8.3</ele>
        <time>2021-08-18T07:40:04Z</time>
      </trkpt>
      <trkpt lat="49.31347" lon="-0.34129">
        <ele>8.1</ele>
        <time>2021-08-18T07:40:06Z</time>
      </trkpt>
      <trkpt lat="49.31355" lon="-0.3415">
        <ele>8.1</ele>
        <time>2021-08-18T07:40:08Z</time>
      </trkpt>
      <trkpt lat="49.3136" lon="-0.3416">
        <ele>8.1</ele>
        <time>2021-08-18T07:40:09Z</time>
      </trkpt>
      <trkpt lat="49.31364" lon="-0.3417">
        <ele>8.2</ele>
        <time>2021-08-18T07:40:10Z</time>
      </trkpt>
      <trkpt lat="49.31373" lon="-0.34189">
        <ele>8.3</ele>
        <time>2021-08-18T07:40:12Z</time>
      </trkpt>
      <trkpt lat="49.31377" lon="-0.34198">
        <ele>8.4</ele>
        <time>2021-08-18T07:40:13Z</time>
      </trkpt>
      <trkpt lat="49.31381" lon="-0.34208">
        <ele>8.5</ele>
        <time>2021-08-18T07:40:14Z</time>
      </trkpt>
      <trkpt lat="49.31388" lon="-0.34228">
        <ele>8.7</ele>
        <time>2021-08-18T07:40:16Z</time>
      </trkpt>
      <trkpt lat="49.31392" lon="-0.34238">
        <ele>8.8</ele>
        <time>2021-08-18T07:40:17Z</time>
      </trkpt>
      <trkpt lat="49.31399" lon="-0.34257">
        <ele>9</ele>
        <time>2021-08-18T07:40:19Z</time>
      </trkpt>
      <trkpt lat="49.31403" lon="-0.34266">
        <ele>9.1</ele>
        <time>2021-08-18T07:40:20Z</time>
      </trkpt>
      <trkpt lat="49.31406" lon="-0.34276">
        <ele>9.3</ele>
        <time>2021-08-18T07:40:21Z</time>
      </trkpt>
      <trkpt lat="49.31412" lon="-0.34295">
        <ele>9.5</ele>
        <time>2021-08-18T07:40:23Z</time>
      </trkpt>
      <trkpt lat="49.31418" lon="-0.34317">
        <ele>9.6</ele>
        <time>2021-08-18T07:40:25Z</time>
      </trkpt>
      <trkpt lat="49.31427" lon="-0.34336">
        <ele>9.7</ele>
        <time>2021-08-18T07:40:27Z</time>
      </trkpt>
      <trkpt lat="49.31431" lon="-0.34347">
        <ele>9.8</ele>
        <time>2021-08-18T07:40:28Z</time>
      </trkpt>
      <trkpt lat="49.3144" lon="-0.34369">
        <ele>10</ele>
        <time>2021-08-18T07:40:30Z</time>
      </trkpt>
      <trkpt lat="49.31449" lon="-0.34392">
        <ele>10.2</ele>
        <time>2021-08-18T07:40:32Z</time>
      </trkpt>
      <trkpt lat="49.31459" lon="-0.34415">
        <ele>10.3</ele>
        <time>2021-08-18T07:40:34Z</time>
      </trkpt>
      <trkpt lat="49.3147" lon="-0.34437">
        <ele>10.4</ele>
        <time>2021-08-18T07:40:36Z</time>
      </trkpt>
      <trkpt lat="49.31476" lon="-0.34448">
        <ele>10.5</ele>
        <time>2021-08-18T07:40:37Z</time>
      </trkpt>
      <trkpt lat="49.31482" lon="-0.34459">
        <ele>10.5</ele>
        <time>2021-08-18T07:40:38Z</time>
      </trkpt>
      <trkpt lat="49.31487" lon="-0.3447">
        <ele>10.5</ele>
        <time>2021-08-18T07:40:39Z</time>
      </trkpt>
      <trkpt lat="49.31495" lon="-0.34486">
        <ele>10.6</ele>
        <time>2021-08-18T07:40:41Z</time>
      </trkpt>
      <trkpt lat="49.31498" lon="-0.34493">
        <ele>10.7</ele>
        <time>2021-08-18T07:40:42Z</time>
      </trkpt>
      <trkpt lat="49.31501" lon="-0.34502">
        <ele>10.7</ele>
        <time>2021-08-18T07:40:44Z</time>
      </trkpt>
      <trkpt lat="49.31506" lon="-0.34512">
        <ele>10.8</ele>
        <time>2021-08-18T07:40:46Z</time>
      </trkpt>
      <trkpt lat="49.31509" lon="-0.34516">
        <ele>10.9</ele>
        <time>2021-08-18T07:40:47Z</time>
      </trkpt>
      <trkpt lat="49.31512" lon="-0.34521">
        <ele>10.9</ele>
        <time>2021-08-18T07:40:48Z</time>
      </trkpt>
      <trkpt lat="49.31514" lon="-0.34524">
        <ele>10.9</ele>
        <time>2021-08-18T07:40:49Z</time>
      </trkpt>
      <trkpt lat="49.31517" lon="-0.34533">
        <ele>10.9</ele>
        <time>2021-08-18T07:40:51Z</time>
      </trkpt>
      <trkpt lat="49.31523" lon="-0.34548">
        <ele>10.9</ele>
        <time>2021-08-18T07:40:53Z</time>
      </trkpt>
      <trkpt lat="49.31527" lon="-0.34557">
        <ele>11</ele>
        <time>2021-08-18T07:40:54Z</time>
      </trkpt>
      <trkpt lat="49.31531" lon="-0.34567">
        <ele>11</ele>
        <time>2021-08-18T07:40:55Z</time>
      </trkpt>
      <trkpt lat="49.31539" lon="-0.34588">
        <ele>11</ele>
        <time>2021-08-18T07:40:57Z</time>
      </trkpt>
      <trkpt lat="49.31544" lon="-0.34599">
        <ele>11</ele>
        <time>2021-08-18T07:40:58Z</time>
      </trkpt>
      <trkpt lat="49.31549" lon="-0.34611">
        <ele>11</ele>
        <time>2021-08-18T07:40:59Z</time>
      </trkpt>
      <trkpt lat="49.31559" lon="-0.34634">
        <ele>10.9</ele>
        <time>2021-08-18T07:41:01Z</time>
      </trkpt>
      <trkpt lat="49.31564" lon="-0.34646">
        <ele>10.9</ele>
        <time>2021-08-18T07:41:02Z</time>
      </trkpt>
      <trkpt lat="49.3157" lon="-0.34659">
        <ele>10.8</ele>
        <time>2021-08-18T07:41:03Z</time>
      </trkpt>
      <trkpt lat="49.31581" lon="-0.34683">
        <ele>10.7</ele>
        <time>2021-08-18T07:41:05Z</time>
      </trkpt>
      <trkpt lat="49.31587" lon="-0.34695">
        <ele>10.6</ele>
        <time>2021-08-18T07:41:06Z</time>
      </trkpt>
      <trkpt lat="49.31593" lon="-0.34706">
        <ele>10.6</ele>
        <time>2021-08-18T07:41:07Z</time>
      </trkpt>
      <trkpt lat="49.31599" lon="-0.34718">
        <ele>10.5</ele>
        <time>2021-08-18T07:41:08Z</time>
      </trkpt>
      <trkpt lat="49.31607" lon="-0.34741">
        <ele>10.4</ele>
        <time>2021-08-18T07:41:10Z</time>
      </trkpt>
      <trkpt lat="49.31616" lon="-0.34762">
        <ele>10.4</ele>
        <time>2021-08-18T07:41:12Z</time>
      </trkpt>
      <trkpt lat="49.3162" lon="-0.34772">
        <ele>10.3</ele>
        <time>2021-08-18T07:41:13Z</time>
      </trkpt>
      <trkpt lat="49.31629" lon="-0.34791">
        <ele>10.3</ele>
        <time>2021-08-18T07:41:15Z</time>
      </trkpt>
      <trkpt lat="49.31638" lon="-0.3481">
        <ele>10.2</ele>
        <time>2021-08-18T07:41:17Z</time>
      </trkpt>
      <trkpt lat="49.31651" lon="-0.34828">
        <ele>10.1</ele>
        <time>2021-08-18T07:41:19Z</time>
      </trkpt>
      <trkpt lat="49.31661" lon="-0.3485">
        <ele>10</ele>
        <time>2021-08-18T07:41:21Z</time>
      </trkpt>
      <trkpt lat="49.3167" lon="-0.34873">
        <ele>9.9</ele>
        <time>2021-08-18T07:41:23Z</time>
      </trkpt>
      <trkpt lat="49.31675" lon="-0.34883">
        <ele>9.9</ele>
        <time>2021-08-18T07:41:24Z</time>
      </trkpt>
      <trkpt lat="49.3168" lon="-0.34893">
        <ele>9.9</ele>
        <time>2021-08-18T07:41:25Z</time>
      </trkpt>
      <trkpt lat="49.31684" lon="-0.34903">
        <ele>9.9</ele>
        <time>2021-08-18T07:41:26Z</time>
      </trkpt>
      <trkpt lat="49.3169" lon="-0.34925">
        <ele>9.9</ele>
        <time>2021-08-18T07:41:28Z</time>
      </trkpt>
      <trkpt lat="49.31699" lon="-0.34942">
        <ele>9.7</ele>
        <time>2021-08-18T07:41:30Z</time>
      </trkpt>
      <trkpt lat="49.31705" lon="-0.34947">
        <ele>9.6</ele>
        <time>2021-08-18T07:41:31Z</time>
      </trkpt>
      <trkpt lat="49.31719" lon="-0.34952">
        <ele>9.4</ele>
        <time>2021-08-18T07:41:33Z</time>
      </trkpt>
      <trkpt lat="49.31733" lon="-0.34962">
        <ele>9.2</ele>
        <time>2021-08-18T07:41:35Z</time>
      </trkpt>
      <trkpt lat="49.3174" lon="-0.34969">
        <ele>9.2</ele>
        <time>2021-08-18T07:41:36Z</time>
      </trkpt>
      <trkpt lat="49.31746" lon="-0.34975">
        <ele>9.1</ele>
        <time>2021-08-18T07:41:37Z</time>
      </trkpt>
      <trkpt lat="49.31759" lon="-0.34988">
        <ele>9</ele>
        <time>2021-08-18T07:41:39Z</time>
      </trkpt>
      <trkpt lat="49.31766" lon="-0.34993">
        <ele>9</ele>
        <time>2021-08-18T07:41:40Z</time>
      </trkpt>
      <trkpt lat="49.31778" lon="-0.35005">
        <ele>8.9</ele>
        <time>2021-08-18T07:41:42Z</time>
      </trkpt>
      <trkpt lat="49.31785" lon="-0.35011">
        <ele>8.9</ele>
        <time>2021-08-18T07:41:43Z</time>
      </trkpt>
      <trkpt lat="49.31798" lon="-0.35022">
        <ele>8.8</ele>
        <time>2021-08-18T07:41:45Z</time>
      </trkpt>
      <trkpt lat="49.31805" lon="-0.35029">
        <ele>8.7</ele>
        <time>2021-08-18T07:41:46Z</time>
      </trkpt>
      <trkpt lat="49.31817" lon="-0.35043">
        <ele>8.7</ele>
        <time>2021-08-18T07:41:48Z</time>
      </trkpt>
      <trkpt lat="49.31823" lon="-0.35051">
        <ele>8.6</ele>
        <time>2021-08-18T07:41:49Z</time>
      </trkpt>
      <trkpt lat="49.31828" lon="-0.35059">
        <ele>8.6</ele>
        <time>2021-08-18T07:41:50Z</time>
      </trkpt>
      <trkpt lat="49.31836" lon="-0.35078">
        <ele>8.5</ele>
        <time>2021-08-18T07:41:52Z</time>
      </trkpt>
      <trkpt lat="49.3184" lon="-0.35088">
        <ele>8.5</ele>
        <time>2021-08-18T07:41:53Z</time>
      </trkpt>
      <trkpt lat="49.31848" lon="-0.35107">
        <ele>8.4</ele>
        <time>2021-08-18T07:41:55Z</time>
      </trkpt>
      <trkpt lat="49.31855" lon="-0.35126">
        <ele>8.4</ele>
        <time>2021-08-18T07:41:57Z</time>
      </trkpt>
      <trkpt lat="49.31864" lon="-0.35146">
        <ele>8.4</ele>
        <time>2021-08-18T07:41:59Z</time>
      </trkpt>
      <trkpt lat="49.31872" lon="-0.35164">
        <ele>8.3</ele>
        <time>2021-08-18T07:42:01Z</time>
      </trkpt>
      <trkpt lat="49.31876" lon="-0.35173">
        <ele>8.3</ele>
        <time>2021-08-18T07:42:02Z</time>
      </trkpt>
      <trkpt lat="49.31884" lon="-0.35193">
        <ele>8.3</ele>
        <time>2021-08-18T07:42:04Z</time>
      </trkpt>
      <trkpt lat="49.31892" lon="-0.3521">
        <ele>8.3</ele>
        <time>2021-08-18T07:42:06Z</time>
      </trkpt>
      <trkpt lat="49.31896" lon="-0.3522">
        <ele>8.3</ele>
        <time>2021-08-18T07:42:07Z</time>
      </trkpt>
      <trkpt lat="49.31905" lon="-0.35237">
        <ele>8.3</ele>
        <time>2021-08-18T07:42:09Z</time>
      </trkpt>
      <trkpt lat="49.3191" lon="-0.35246">
        <ele>8.3</ele>
        <time>2021-08-18T07:42:10Z</time>
      </trkpt>
      <trkpt lat="49.31919" lon="-0.35264">
        <ele>8.3</ele>
        <time>2021-08-18T07:42:12Z</time>
      </trkpt>
      <trkpt lat="49.31927" lon="-0.35284">
        <ele>8.4</ele>
        <time>2021-08-18T07:42:14Z</time>
      </trkpt>
      <trkpt lat="49.3193" lon="-0.35296">
        <ele>8.4</ele>
        <time>2021-08-18T07:42:15Z</time>
      </trkpt>
      <trkpt lat="49.31936" lon="-0.35318">
        <ele>8.4</ele>
        <time>2021-08-18T07:42:17Z</time>
      </trkpt>
      <trkpt lat="49.31941" lon="-0.35328">
        <ele>8.4</ele>
        <time>2021-08-18T07:42:18Z</time>
      </trkpt>
      <trkpt lat="49.31948" lon="-0.35348">
        <ele>8.3</ele>
        <time>2021-08-18T07:42:20Z</time>
      </trkpt>
      <trkpt lat="49.31955" lon="-0.35369">
        <ele>8.3</ele>
        <time>2021-08-18T07:42:22Z</time>
      </trkpt>
      <trkpt lat="49.3196" lon="-0.35379">
        <ele>8.3</ele>
        <time>2021-08-18T07:42:23Z</time>
      </trkpt>
      <trkpt lat="49.31968" lon="-0.35398">
        <ele>8.5</ele>
        <time>2021-08-18T07:42:25Z</time>
      </trkpt>
      <trkpt lat="49.31975" lon="-0.35417">
        <ele>8.6</ele>
        <time>2021-08-18T07:42:27Z</time>
      </trkpt>
      <trkpt lat="49.31983" lon="-0.35434">
        <ele>8.6</ele>
        <time>2021-08-18T07:42:29Z</time>
      </trkpt>
      <trkpt lat="49.3199" lon="-0.3545">
        <ele>8.7</ele>
        <time>2021-08-18T07:42:31Z</time>
      </trkpt>
      <trkpt lat="49.31996" lon="-0.35467">
        <ele>8.8</ele>
        <time>2021-08-18T07:42:33Z</time>
      </trkpt>
      <trkpt lat="49.32" lon="-0.35476">
        <ele>8.9</ele>
        <time>2021-08-18T07:42:34Z</time>
      </trkpt>
      <trkpt lat="49.32006" lon="-0.35494">
        <ele>8.9</ele>
        <time>2021-08-18T07:42:36Z</time>
      </trkpt>
      <trkpt lat="49.32015" lon="-0.35511">
        <ele>9</ele>
        <time>2021-08-18T07:42:38Z</time>
      </trkpt>
      <trkpt lat="49.32023" lon="-0.35527">
        <ele>9.1</ele>
        <time>2021-08-18T07:42:40Z</time>
      </trkpt>
      <trkpt lat="49.32031" lon="-0.35544">
        <ele>9.1</ele>
        <time>2021-08-18T07:42:42Z</time>
      </trkpt>
      <trkpt lat="49.32035" lon="-0.35553">
        <ele>9.1</ele>
        <time>2021-08-18T07:42:43Z</time>
      </trkpt>
      <trkpt lat="49.32042" lon="-0.35571">
        <ele>9.2</ele>
        <time>2021-08-18T07:42:45Z</time>
      </trkpt>
      <trkpt lat="49.32046" lon="-0.3558">
        <ele>9.2</ele>
        <time>2021-08-18T07:42:46Z</time>
      </trkpt>
      <trkpt lat="49.3205" lon="-0.3559">
        <ele>9.2</ele>
        <time>2021-08-18T07:42:47Z</time>
      </trkpt>
      <trkpt lat="49.32058" lon="-0.35608">
        <ele>9.1</ele>
        <time>2021-08-18T07:42:49Z</time>
      </trkpt>
      <trkpt lat="49.32062" lon="-0.35618">
        <ele>9.1</ele>
        <time>2021-08-18T07:42:50Z</time>
      </trkpt>
      <trkpt lat="49.32067" lon="-0.35627">
        <ele>9</ele>
        <time>2021-08-18T07:42:51Z</time>
      </trkpt>
      <trkpt lat="49.32075" lon="-0.35647">
        <ele>8.9</ele>
        <time>2021-08-18T07:42:53Z</time>
      </trkpt>
      <trkpt lat="49.32079" lon="-0.35657">
        <ele>8.8</ele>
        <time>2021-08-18T07:42:54Z</time>
      </trkpt>
      <trkpt lat="49.32086" lon="-0.35677">
        <ele>8.7</ele>
        <time>2021-08-18T07:42:56Z</time>
      </trkpt>
      <trkpt lat="49.3209" lon="-0.35687">
        <ele>8.6</ele>
        <time>2021-08-18T07:42:57Z</time>
      </trkpt>
      <trkpt lat="49.32094" lon="-0.35697">
        <ele>8.5</ele>
        <time>2021-08-18T07:42:58Z</time>
      </trkpt>
      <trkpt lat="49.32102" lon="-0.35715">
        <ele>8.2</ele>
        <time>2021-08-18T07:43:00Z</time>
      </trkpt>
      <trkpt lat="49.32106" lon="-0.35725">
        <ele>8.1</ele>
        <time>2021-08-18T07:43:01Z</time>
      </trkpt>
      <trkpt lat="49.32111" lon="-0.35734">
        <ele>8</ele>
        <time>2021-08-18T07:43:02Z</time>
      </trkpt>
      <trkpt lat="49.32118" lon="-0.35753">
        <ele>7.8</ele>
        <time>2021-08-18T07:43:04Z</time>
      </trkpt>
      <trkpt lat="49.32127" lon="-0.35773">
        <ele>7.6</ele>
        <time>2021-08-18T07:43:06Z</time>
      </trkpt>
      <trkpt lat="49.32131" lon="-0.35783">
        <ele>7.5</ele>
        <time>2021-08-18T07:43:07Z</time>
      </trkpt>
      <trkpt lat="49.32135" lon="-0.35793">
        <ele>7.3</ele>
        <time>2021-08-18T07:43:08Z</time>
      </trkpt>
      <trkpt lat="49.32142" lon="-0.35813">
        <ele>7.1</ele>
        <time>2021-08-18T07:43:10Z</time>
      </trkpt>
      <trkpt lat="49.32146" lon="-0.35823">
        <ele>6.9</ele>
        <time>2021-08-18T07:43:11Z</time>
      </trkpt>
      <trkpt lat="49.32155" lon="-0.35843">
        <ele>6.7</ele>
        <time>2021-08-18T07:43:13Z</time>
      </trkpt>
      <trkpt lat="49.32164" lon="-0.35862">
        <ele>6.4</ele>
        <time>2021-08-18T07:43:15Z</time>
      </trkpt>
      <trkpt lat="49.32173" lon="-0.35883">
        <ele>6.2</ele>
        <time>2021-08-18T07:43:17Z</time>
      </trkpt>
      <trkpt lat="49.32182" lon="-0.35902">
        <ele>6.2</ele>
        <time>2021-08-18T07:43:19Z</time>
      </trkpt>
      <trkpt lat="49.32187" lon="-0.35913">
        <ele>6.2</ele>
        <time>2021-08-18T07:43:20Z</time>
      </trkpt>
      <trkpt lat="49.32196" lon="-0.35932">
        <ele>6.3</ele>
        <time>2021-08-18T07:43:22Z</time>
      </trkpt>
      <trkpt lat="49.322" lon="-0.35942">
        <ele>6.4</ele>
        <time>2021-08-18T07:43:23Z</time>
      </trkpt>
      <trkpt lat="49.32204" lon="-0.35953">
        <ele>6.5</ele>
        <time>2021-08-18T07:43:24Z</time>
      </trkpt>
      <trkpt lat="49.32212" lon="-0.35973">
        <ele>6.8</ele>
        <time>2021-08-18T07:43:26Z</time>
      </trkpt>
      <trkpt lat="49.32222" lon="-0.35992">
        <ele>7.2</ele>
        <time>2021-08-18T07:43:28Z</time>
      </trkpt>
      <trkpt lat="49.32232" lon="-0.36012">
        <ele>7.6</ele>
        <time>2021-08-18T07:43:30Z</time>
      </trkpt>
      <trkpt lat="49.32236" lon="-0.36021">
        <ele>7.8</ele>
        <time>2021-08-18T07:43:31Z</time>
      </trkpt>
      <trkpt lat="49.32245" lon="-0.36039">
        <ele>8.1</ele>
        <time>2021-08-18T07:43:33Z</time>
      </trkpt>
      <trkpt lat="49.32254" lon="-0.36056">
        <ele>8.5</ele>
        <time>2021-08-18T07:43:35Z</time>
      </trkpt>
      <trkpt lat="49.32258" lon="-0.36065">
        <ele>8.7</ele>
        <time>2021-08-18T07:43:36Z</time>
      </trkpt>
      <trkpt lat="49.32263" lon="-0.36074">
        <ele>8.8</ele>
        <time>2021-08-18T07:43:37Z</time>
      </trkpt>
      <trkpt lat="49.32272" lon="-0.36091">
        <ele>9</ele>
        <time>2021-08-18T07:43:39Z</time>
      </trkpt>
      <trkpt lat="49.3228" lon="-0.3611">
        <ele>9.2</ele>
        <time>2021-08-18T07:43:41Z</time>
      </trkpt>
      <trkpt lat="49.32288" lon="-0.36128">
        <ele>9.3</ele>
        <time>2021-08-18T07:43:43Z</time>
      </trkpt>
      <trkpt lat="49.32297" lon="-0.36146">
        <ele>9.5</ele>
        <time>2021-08-18T07:43:45Z</time>
      </trkpt>
      <trkpt lat="49.32305" lon="-0.36165">
        <ele>9.6</ele>
        <time>2021-08-18T07:43:47Z</time>
      </trkpt>
      <trkpt lat="49.32309" lon="-0.36175">
        <ele>9.7</ele>
        <time>2021-08-18T07:43:48Z</time>
      </trkpt>
      <trkpt lat="49.32317" lon="-0.36194">
        <ele>9.8</ele>
        <time>2021-08-18T07:43:50Z</time>
      </trkpt>
      <trkpt lat="49.32321" lon="-0.36203">
        <ele>9.9</ele>
        <time>2021-08-18T07:43:51Z</time>
      </trkpt>
      <trkpt lat="49.32329" lon="-0.36222">
        <ele>10</ele>
        <time>2021-08-18T07:43:53Z</time>
      </trkpt>
      <trkpt lat="49.32332" lon="-0.36231">
        <ele>10</ele>
        <time>2021-08-18T07:43:54Z</time>
      </trkpt>
      <trkpt lat="49.32338" lon="-0.36251">
        <ele>10.1</ele>
        <time>2021-08-18T07:43:56Z</time>
      </trkpt>
      <trkpt lat="49.32341" lon="-0.36261">
        <ele>10.1</ele>
        <time>2021-08-18T07:43:57Z</time>
      </trkpt>
      <trkpt lat="49.32347" lon="-0.36282">
        <ele>10.2</ele>
        <time>2021-08-18T07:43:59Z</time>
      </trkpt>
      <trkpt lat="49.32349" lon="-0.36293">
        <ele>10.3</ele>
        <time>2021-08-18T07:44:00Z</time>
      </trkpt>
      <trkpt lat="49.32354" lon="-0.36313">
        <ele>10.4</ele>
        <time>2021-08-18T07:44:02Z</time>
      </trkpt>
      <trkpt lat="49.32359" lon="-0.36333">
        <ele>10.5</ele>
        <time>2021-08-18T07:44:04Z</time>
      </trkpt>
      <trkpt lat="49.3236" lon="-0.36344">
        <ele>10.6</ele>
        <time>2021-08-18T07:44:05Z</time>
      </trkpt>
      <trkpt lat="49.32364" lon="-0.36364">
        <ele>10.7</ele>
        <time>2021-08-18T07:44:07Z</time>
      </trkpt>
      <trkpt lat="49.32367" lon="-0.36375">
        <ele>10.7</ele>
        <time>2021-08-18T07:44:08Z</time>
      </trkpt>
      <trkpt lat="49.32371" lon="-0.36395">
        <ele>10.7</ele>
        <time>2021-08-18T07:44:10Z</time>
      </trkpt>
      <trkpt lat="49.32376" lon="-0.36415">
        <ele>10.7</ele>
        <time>2021-08-18T07:44:12Z</time>
      </trkpt>
      <trkpt lat="49.32379" lon="-0.36425">
        <ele>10.7</ele>
        <time>2021-08-18T07:44:13Z</time>
      </trkpt>
      <trkpt lat="49.32384" lon="-0.36445">
        <ele>10.8</ele>
        <time>2021-08-18T07:44:15Z</time>
      </trkpt>
      <trkpt lat="49.32386" lon="-0.36456">
        <ele>10.8</ele>
        <time>2021-08-18T07:44:16Z</time>
      </trkpt>
      <trkpt lat="49.32389" lon="-0.36466">
        <ele>10.8</ele>
        <time>2021-08-18T07:44:17Z</time>
      </trkpt>
      <trkpt lat="49.32394" lon="-0.36486">
        <ele>10.8</ele>
        <time>2021-08-18T07:44:19Z</time>
      </trkpt>
      <trkpt lat="49.324" lon="-0.36506">
        <ele>10.9</ele>
        <time>2021-08-18T07:44:21Z</time>
      </trkpt>
      <trkpt lat="49.32406" lon="-0.36525">
        <ele>10.9</ele>
        <time>2021-08-18T07:44:23Z</time>
      </trkpt>
      <trkpt lat="49.32412" lon="-0.36544">
        <ele>10.9</ele>
        <time>2021-08-18T07:44:25Z</time>
      </trkpt>
      <trkpt lat="49.32415" lon="-0.36553">
        <ele>10.9</ele>
        <time>2021-08-18T07:44:26Z</time>
      </trkpt>
      <trkpt lat="49.32422" lon="-0.36572">
        <ele>10.9</ele>
        <time>2021-08-18T07:44:28Z</time>
      </trkpt>
      <trkpt lat="49.32425" lon="-0.36581">
        <ele>10.9</ele>
        <time>2021-08-18T07:44:29Z</time>
      </trkpt>
      <trkpt lat="49.32428" lon="-0.3659">
        <ele>10.9</ele>
        <time>2021-08-18T07:44:30Z</time>
      </trkpt>
      <trkpt lat="49.32435" lon="-0.36609">
        <ele>10.9</ele>
        <time>2021-08-18T07:44:32Z</time>
      </trkpt>
      <trkpt lat="49.32437" lon="-0.36619">
        <ele>10.8</ele>
        <time>2021-08-18T07:44:33Z</time>
      </trkpt>
      <trkpt lat="49.32443" lon="-0.36639">
        <ele>10.8</ele>
        <time>2021-08-18T07:44:35Z</time>
      </trkpt>
      <trkpt lat="49.32448" lon="-0.3666">
        <ele>10.6</ele>
        <time>2021-08-18T07:44:37Z</time>
      </trkpt>
      <trkpt lat="49.3245" lon="-0.36671">
        <ele>10.5</ele>
        <time>2021-08-18T07:44:38Z</time>
      </trkpt>
      <trkpt lat="49.32456" lon="-0.36692">
        <ele>10.4</ele>
        <time>2021-08-18T07:44:40Z</time>
      </trkpt>
      <trkpt lat="49.32461" lon="-0.36714">
        <ele>10.3</ele>
        <time>2021-08-18T07:44:42Z</time>
      </trkpt>
      <trkpt lat="49.32466" lon="-0.36736">
        <ele>10.1</ele>
        <time>2021-08-18T07:44:44Z</time>
      </trkpt>
      <trkpt lat="49.32468" lon="-0.36747">
        <ele>10.1</ele>
        <time>2021-08-18T07:44:45Z</time>
      </trkpt>
      <trkpt lat="49.32471" lon="-0.36757">
        <ele>10</ele>
        <time>2021-08-18T07:44:46Z</time>
      </trkpt>
      <trkpt lat="49.32473" lon="-0.36768">
        <ele>9.9</ele>
        <time>2021-08-18T07:44:47Z</time>
      </trkpt>
      <trkpt lat="49.32478" lon="-0.3679">
        <ele>9.7</ele>
        <time>2021-08-18T07:44:49Z</time>
      </trkpt>
      <trkpt lat="49.3248" lon="-0.36801">
        <ele>9.6</ele>
        <time>2021-08-18T07:44:50Z</time>
      </trkpt>
      <trkpt lat="49.32484" lon="-0.3681">
        <ele>9.5</ele>
        <time>2021-08-18T07:44:51Z</time>
      </trkpt>
      <trkpt lat="49.32491" lon="-0.36829">
        <ele>9.4</ele>
        <time>2021-08-18T07:44:53Z</time>
      </trkpt>
      <trkpt lat="49.32497" lon="-0.36851">
        <ele>9.4</ele>
        <time>2021-08-18T07:44:55Z</time>
      </trkpt>
      <trkpt lat="49.325" lon="-0.36862">
        <ele>9.3</ele>
        <time>2021-08-18T07:44:56Z</time>
      </trkpt>
      <trkpt lat="49.32503" lon="-0.36874">
        <ele>9.3</ele>
        <time>2021-08-18T07:44:57Z</time>
      </trkpt>
      <trkpt lat="49.32508" lon="-0.36896">
        <ele>9</ele>
        <time>2021-08-18T07:44:59Z</time>
      </trkpt>
      <trkpt lat="49.32511" lon="-0.36908">
        <ele>8.8</ele>
        <time>2021-08-18T07:45:00Z</time>
      </trkpt>
      <trkpt lat="49.32517" lon="-0.3693">
        <ele>8.5</ele>
        <time>2021-08-18T07:45:02Z</time>
      </trkpt>
      <trkpt lat="49.3252" lon="-0.36942">
        <ele>8.4</ele>
        <time>2021-08-18T07:45:03Z</time>
      </trkpt>
      <trkpt lat="49.32525" lon="-0.36965">
        <ele>8.1</ele>
        <time>2021-08-18T07:45:05Z</time>
      </trkpt>
      <trkpt lat="49.32527" lon="-0.36976">
        <ele>8</ele>
        <time>2021-08-18T07:45:06Z</time>
      </trkpt>
      <trkpt lat="49.3253" lon="-0.36988">
        <ele>7.8</ele>
        <time>2021-08-18T07:45:07Z</time>
      </trkpt>
      <trkpt lat="49.32533" lon="-0.36999">
        <ele>7.7</ele>
        <time>2021-08-18T07:45:08Z</time>
      </trkpt>
      <trkpt lat="49.32537" lon="-0.37021">
        <ele>7.6</ele>
        <time>2021-08-18T07:45:10Z</time>
      </trkpt>
      <trkpt lat="49.3254" lon="-0.37031">
        <ele>7.5</ele>
        <time>2021-08-18T07:45:11Z</time>
      </trkpt>
      <trkpt lat="49.32544" lon="-0.37052">
        <ele>7.5</ele>
        <time>2021-08-18T07:45:13Z</time>
      </trkpt>
      <trkpt lat="49.32548" lon="-0.37072">
        <ele>7.4</ele>
        <time>2021-08-18T07:45:15Z</time>
      </trkpt>
      <trkpt lat="49.32549" lon="-0.37081">
        <ele>7.4</ele>
        <time>2021-08-18T07:45:16Z</time>
      </trkpt>
      <trkpt lat="49.32551" lon="-0.37096">
        <ele>7.3</ele>
        <time>2021-08-18T07:45:18Z</time>
      </trkpt>
      <trkpt lat="49.32554" lon="-0.37104">
        <ele>7.2</ele>
        <time>2021-08-18T07:45:19Z</time>
      </trkpt>
      <trkpt lat="49.3256" lon="-0.37122">
        <ele>7</ele>
        <time>2021-08-18T07:45:21Z</time>
      </trkpt>
      <trkpt lat="49.32563" lon="-0.37132">
        <ele>6.9</ele>
        <time>2021-08-18T07:45:22Z</time>
      </trkpt>
      <trkpt lat="49.32568" lon="-0.37155">
        <ele>6.6</ele>
        <time>2021-08-18T07:45:24Z</time>
      </trkpt>
      <trkpt lat="49.3257" lon="-0.37167">
        <ele>6.5</ele>
        <time>2021-08-18T07:45:25Z</time>
      </trkpt>
      <trkpt lat="49.32572" lon="-0.3718">
        <ele>6.4</ele>
        <time>2021-08-18T07:45:26Z</time>
      </trkpt>
      <trkpt lat="49.32572" lon="-0.37206">
        <ele>6.3</ele>
        <time>2021-08-18T07:45:28Z</time>
      </trkpt>
      <trkpt lat="49.32572" lon="-0.37231">
        <ele>6.3</ele>
        <time>2021-08-18T07:45:30Z</time>
      </trkpt>
      <trkpt lat="49.32576" lon="-0.37257">
        <ele>6.2</ele>
        <time>2021-08-18T07:45:32Z</time>
      </trkpt>
      <trkpt lat="49.32579" lon="-0.37283">
        <ele>6.3</ele>
        <time>2021-08-18T07:45:34Z</time>
      </trkpt>
      <trkpt lat="49.32581" lon="-0.37296">
        <ele>6.3</ele>
        <time>2021-08-18T07:45:35Z</time>
      </trkpt>
      <trkpt lat="49.32583" lon="-0.37308">
        <ele>6.4</ele>
        <time>2021-08-18T07:45:36Z</time>
      </trkpt>
      <trkpt lat="49.32586" lon="-0.37331">
        <ele>6.6</ele>
        <time>2021-08-18T07:45:38Z</time>
      </trkpt>
      <trkpt lat="49.32589" lon="-0.37352">
        <ele>6.7</ele>
        <time>2021-08-18T07:45:40Z</time>
      </trkpt>
      <trkpt lat="49.32591" lon="-0.37362">
        <ele>6.8</ele>
        <time>2021-08-18T07:45:41Z</time>
      </trkpt>
      <trkpt lat="49.32595" lon="-0.3738">
        <ele>7</ele>
        <time>2021-08-18T07:45:43Z</time>
      </trkpt>
      <trkpt lat="49.32602" lon="-0.37396">
        <ele>7.1</ele>
        <time>2021-08-18T07:45:45Z</time>
      </trkpt>
      <trkpt lat="49.32606" lon="-0.37404">
        <ele>7.2</ele>
        <time>2021-08-18T07:45:46Z</time>
      </trkpt>
      <trkpt lat="49.32617" lon="-0.37422">
        <ele>7.3</ele>
        <time>2021-08-18T07:45:48Z</time>
      </trkpt>
      <trkpt lat="49.32622" lon="-0.37431">
        <ele>7.4</ele>
        <time>2021-08-18T07:45:49Z</time>
      </trkpt>
      <trkpt lat="49.32632" lon="-0.37449">
        <ele>7.5</ele>
        <time>2021-08-18T07:45:51Z</time>
      </trkpt>
      <trkpt lat="49.32637" lon="-0.37458">
        <ele>7.6</ele>
        <time>2021-08-18T07:45:52Z</time>
      </trkpt>
      <trkpt lat="49.32647" lon="-0.37476">
        <ele>7.7</ele>
        <time>2021-08-18T07:45:54Z</time>
      </trkpt>
      <trkpt lat="49.32652" lon="-0.37485">
        <ele>7.8</ele>
        <time>2021-08-18T07:45:55Z</time>
      </trkpt>
      <trkpt lat="49.32657" lon="-0.37494">
        <ele>7.8</ele>
        <time>2021-08-18T07:45:56Z</time>
      </trkpt>
      <trkpt lat="49.32666" lon="-0.37511">
        <ele>7.9</ele>
        <time>2021-08-18T07:45:58Z</time>
      </trkpt>
      <trkpt lat="49.32671" lon="-0.37518">
        <ele>8</ele>
        <time>2021-08-18T07:45:59Z</time>
      </trkpt>
      <trkpt lat="49.32681" lon="-0.37531">
        <ele>8.1</ele>
        <time>2021-08-18T07:46:01Z</time>
      </trkpt>
      <trkpt lat="49.32686" lon="-0.37539">
        <ele>8.1</ele>
        <time>2021-08-18T07:46:02Z</time>
      </trkpt>
      <trkpt lat="49.32694" lon="-0.37556">
        <ele>8.2</ele>
        <time>2021-08-18T07:46:04Z</time>
      </trkpt>
      <trkpt lat="49.32703" lon="-0.37575">
        <ele>8.3</ele>
        <time>2021-08-18T07:46:06Z</time>
      </trkpt>
      <trkpt lat="49.32713" lon="-0.37593">
        <ele>8.3</ele>
        <time>2021-08-18T07:46:08Z</time>
      </trkpt>
      <trkpt lat="49.32717" lon="-0.37605">
        <ele>8.3</ele>
        <time>2021-08-18T07:46:09Z</time>
      </trkpt>
      <trkpt lat="49.32725" lon="-0.37627">
        <ele>8.3</ele>
        <time>2021-08-18T07:46:11Z</time>
      </trkpt>
      <trkpt lat="49.32729" lon="-0.37639">
        <ele>8.3</ele>
        <time>2021-08-18T07:46:12Z</time>
      </trkpt>
      <trkpt lat="49.32736" lon="-0.37662">
        <ele>8.2</ele>
        <time>2021-08-18T07:46:14Z</time>
      </trkpt>
      <trkpt lat="49.32742" lon="-0.37686">
        <ele>8.2</ele>
        <time>2021-08-18T07:46:16Z</time>
      </trkpt>
      <trkpt lat="49.32747" lon="-0.3771">
        <ele>8.2</ele>
        <time>2021-08-18T07:46:18Z</time>
      </trkpt>
      <trkpt lat="49.3275" lon="-0.37722">
        <ele>8.2</ele>
        <time>2021-08-18T07:46:19Z</time>
      </trkpt>
      <trkpt lat="49.32756" lon="-0.37746">
        <ele>8.2</ele>
        <time>2021-08-18T07:46:21Z</time>
      </trkpt>
      <trkpt lat="49.32759" lon="-0.37758">
        <ele>8.2</ele>
        <time>2021-08-18T07:46:22Z</time>
      </trkpt>
      <trkpt lat="49.32762" lon="-0.37771">
        <ele>8.1</ele>
        <time>2021-08-18T07:46:23Z</time>
      </trkpt>
      <trkpt lat="49.32769" lon="-0.37794">
        <ele>8.1</ele>
        <time>2021-08-18T07:46:25Z</time>
      </trkpt>
      <trkpt lat="49.32775" lon="-0.37818">
        <ele>8</ele>
        <time>2021-08-18T07:46:27Z</time>
      </trkpt>
      <trkpt lat="49.32778" lon="-0.3783">
        <ele>8</ele>
        <time>2021-08-18T07:46:28Z</time>
      </trkpt>
      <trkpt lat="49.32781" lon="-0.37843">
        <ele>7.9</ele>
        <time>2021-08-18T07:46:29Z</time>
      </trkpt>
      <trkpt lat="49.32787" lon="-0.37867">
        <ele>7.8</ele>
        <time>2021-08-18T07:46:31Z</time>
      </trkpt>
      <trkpt lat="49.32792" lon="-0.37892">
        <ele>7.8</ele>
        <time>2021-08-18T07:46:33Z</time>
      </trkpt>
      <trkpt lat="49.32794" lon="-0.37905">
        <ele>7.7</ele>
        <time>2021-08-18T07:46:34Z</time>
      </trkpt>
      <trkpt lat="49.32797" lon="-0.37917">
        <ele>7.7</ele>
        <time>2021-08-18T07:46:35Z</time>
      </trkpt>
      <trkpt lat="49.32799" lon="-0.37929">
        <ele>7.6</ele>
        <time>2021-08-18T07:46:36Z</time>
      </trkpt>
      <trkpt lat="49.32805" lon="-0.37952">
        <ele>7.5</ele>
        <time>2021-08-18T07:46:38Z</time>
      </trkpt>
      <trkpt lat="49.32811" lon="-0.37974">
        <ele>7.5</ele>
        <time>2021-08-18T07:46:40Z</time>
      </trkpt>
      <trkpt lat="49.32816" lon="-0.37997">
        <ele>7.3</ele>
        <time>2021-08-18T07:46:42Z</time>
      </trkpt>
      <trkpt lat="49.32821" lon="-0.38019">
        <ele>7.1</ele>
        <time>2021-08-18T07:46:44Z</time>
      </trkpt>
      <trkpt lat="49.32827" lon="-0.38041">
        <ele>6.9</ele>
        <time>2021-08-18T07:46:46Z</time>
      </trkpt>
      <trkpt lat="49.32833" lon="-0.38065">
        <ele>6.8</ele>
        <time>2021-08-18T07:46:48Z</time>
      </trkpt>
      <trkpt lat="49.32839" lon="-0.38088">
        <ele>6.6</ele>
        <time>2021-08-18T07:46:50Z</time>
      </trkpt>
      <trkpt lat="49.32845" lon="-0.3811">
        <ele>6.6</ele>
        <time>2021-08-18T07:46:52Z</time>
      </trkpt>
      <trkpt lat="49.32851" lon="-0.38131">
        <ele>6.4</ele>
        <time>2021-08-18T07:46:54Z</time>
      </trkpt>
      <trkpt lat="49.32854" lon="-0.38143">
        <ele>6.4</ele>
        <time>2021-08-18T07:46:55Z</time>
      </trkpt>
      <trkpt lat="49.32859" lon="-0.38168">
        <ele>6.2</ele>
        <time>2021-08-18T07:46:57Z</time>
      </trkpt>
      <trkpt lat="49.32864" lon="-0.38193">
        <ele>6.1</ele>
        <time>2021-08-18T07:46:59Z</time>
      </trkpt>
      <trkpt lat="49.32869" lon="-0.38218">
        <ele>6</ele>
        <time>2021-08-18T07:47:01Z</time>
      </trkpt>
      <trkpt lat="49.32871" lon="-0.3823">
        <ele>5.9</ele>
        <time>2021-08-18T07:47:02Z</time>
      </trkpt>
      <trkpt lat="49.32874" lon="-0.38242">
        <ele>5.9</ele>
        <time>2021-08-18T07:47:03Z</time>
      </trkpt>
      <trkpt lat="49.32877" lon="-0.38254">
        <ele>5.9</ele>
        <time>2021-08-18T07:47:04Z</time>
      </trkpt>
      <trkpt lat="49.32882" lon="-0.38276">
        <ele>5.8</ele>
        <time>2021-08-18T07:47:06Z</time>
      </trkpt>
      <trkpt lat="49.32887" lon="-0.38299">
        <ele>5.7</ele>
        <time>2021-08-18T07:47:08Z</time>
      </trkpt>
      <trkpt lat="49.3289" lon="-0.3831">
        <ele>5.7</ele>
        <time>2021-08-18T07:47:09Z</time>
      </trkpt>
      <trkpt lat="49.32893" lon="-0.38321">
        <ele>5.7</ele>
        <time>2021-08-18T07:47:10Z</time>
      </trkpt>
      <trkpt lat="49.329" lon="-0.38344">
        <ele>5.7</ele>
        <time>2021-08-18T07:47:12Z</time>
      </trkpt>
      <trkpt lat="49.32907" lon="-0.38367">
        <ele>5.6</ele>
        <time>2021-08-18T07:47:14Z</time>
      </trkpt>
      <trkpt lat="49.3291" lon="-0.38378">
        <ele>5.6</ele>
        <time>2021-08-18T07:47:15Z</time>
      </trkpt>
      <trkpt lat="49.32916" lon="-0.38402">
        <ele>5.5</ele>
        <time>2021-08-18T07:47:17Z</time>
      </trkpt>
      <trkpt lat="49.32921" lon="-0.38426">
        <ele>5.5</ele>
        <time>2021-08-18T07:47:19Z</time>
      </trkpt>
      <trkpt lat="49.32926" lon="-0.38449">
        <ele>5.5</ele>
        <time>2021-08-18T07:47:21Z</time>
      </trkpt>
      <trkpt lat="49.32931" lon="-0.38473">
        <ele>5.5</ele>
        <time>2021-08-18T07:47:23Z</time>
      </trkpt>
      <trkpt lat="49.32934" lon="-0.38484">
        <ele>5.5</ele>
        <time>2021-08-18T07:47:24Z</time>
      </trkpt>
      <trkpt lat="49.32938" lon="-0.38505">
        <ele>5.5</ele>
        <time>2021-08-18T07:47:26Z</time>
      </trkpt>
      <trkpt lat="49.3294" lon="-0.38515">
        <ele>5.5</ele>
        <time>2021-08-18T07:47:27Z</time>
      </trkpt>
      <trkpt lat="49.32942" lon="-0.38525">
        <ele>5.5</ele>
        <time>2021-08-18T07:47:28Z</time>
      </trkpt>
      <trkpt lat="49.32944" lon="-0.38537">
        <ele>5.5</ele>
        <time>2021-08-18T07:47:30Z</time>
      </trkpt>
      <trkpt lat="49.32945" lon="-0.38542">
        <ele>5.5</ele>
        <time>2021-08-18T07:47:31Z</time>
      </trkpt>
      <trkpt lat="49.32947" lon="-0.38556">
        <ele>5.6</ele>
        <time>2021-08-18T07:47:33Z</time>
      </trkpt>
      <trkpt lat="49.32951" lon="-0.38571">
        <ele>5.6</ele>
        <time>2021-08-18T07:47:35Z</time>
      </trkpt>
      <trkpt lat="49.32953" lon="-0.3858">
        <ele>5.6</ele>
        <time>2021-08-18T07:47:36Z</time>
      </trkpt>
      <trkpt lat="49.32959" lon="-0.38599">
        <ele>5.6</ele>
        <time>2021-08-18T07:47:38Z</time>
      </trkpt>
      <trkpt lat="49.32966" lon="-0.38621">
        <ele>5.6</ele>
        <time>2021-08-18T07:47:40Z</time>
      </trkpt>
      <trkpt lat="49.32969" lon="-0.38632">
        <ele>5.6</ele>
        <time>2021-08-18T07:47:41Z</time>
      </trkpt>
      <trkpt lat="49.32972" lon="-0.38642">
        <ele>5.6</ele>
        <time>2021-08-18T07:47:42Z</time>
      </trkpt>
      <trkpt lat="49.32979" lon="-0.38663">
        <ele>5.6</ele>
        <time>2021-08-18T07:47:44Z</time>
      </trkpt>
      <trkpt lat="49.32985" lon="-0.38684">
        <ele>5.7</ele>
        <time>2021-08-18T07:47:46Z</time>
      </trkpt>
      <trkpt lat="49.32989" lon="-0.38704">
        <ele>5.7</ele>
        <time>2021-08-18T07:47:48Z</time>
      </trkpt>
      <trkpt lat="49.32992" lon="-0.38715">
        <ele>5.8</ele>
        <time>2021-08-18T07:47:49Z</time>
      </trkpt>
      <trkpt lat="49.32997" lon="-0.38736">
        <ele>5.8</ele>
        <time>2021-08-18T07:47:51Z</time>
      </trkpt>
      <trkpt lat="49.33001" lon="-0.38755">
        <ele>5.8</ele>
        <time>2021-08-18T07:47:53Z</time>
      </trkpt>
      <trkpt lat="49.33004" lon="-0.38764">
        <ele>5.9</ele>
        <time>2021-08-18T07:47:54Z</time>
      </trkpt>
      <trkpt lat="49.33008" lon="-0.38781">
        <ele>6</ele>
        <time>2021-08-18T07:47:56Z</time>
      </trkpt>
      <trkpt lat="49.33011" lon="-0.38798">
        <ele>6</ele>
        <time>2021-08-18T07:47:58Z</time>
      </trkpt>
      <trkpt lat="49.33014" lon="-0.38807">
        <ele>6.1</ele>
        <time>2021-08-18T07:47:59Z</time>
      </trkpt>
      <trkpt lat="49.3302" lon="-0.38828">
        <ele>6.2</ele>
        <time>2021-08-18T07:48:01Z</time>
      </trkpt>
      <trkpt lat="49.33022" lon="-0.38838">
        <ele>6.3</ele>
        <time>2021-08-18T07:48:02Z</time>
      </trkpt>
      <trkpt lat="49.33024" lon="-0.38848">
        <ele>6.4</ele>
        <time>2021-08-18T07:48:03Z</time>
      </trkpt>
      <trkpt lat="49.33028" lon="-0.38866">
        <ele>6.6</ele>
        <time>2021-08-18T07:48:05Z</time>
      </trkpt>
      <trkpt lat="49.33034" lon="-0.38881">
        <ele>6.6</ele>
        <time>2021-08-18T07:48:07Z</time>
      </trkpt>
      <trkpt lat="49.3304" lon="-0.38897">
        <ele>6.7</ele>
        <time>2021-08-18T07:48:09Z</time>
      </trkpt>
      <trkpt lat="49.33043" lon="-0.38914">
        <ele>6.8</ele>
        <time>2021-08-18T07:48:11Z</time>
      </trkpt>
      <trkpt lat="49.33047" lon="-0.3893">
        <ele>6.9</ele>
        <time>2021-08-18T07:48:13Z</time>
      </trkpt>
      <trkpt lat="49.33052" lon="-0.38948">
        <ele>7.1</ele>
        <time>2021-08-18T07:48:15Z</time>
      </trkpt>
      <trkpt lat="49.33055" lon="-0.38958">
        <ele>7.2</ele>
        <time>2021-08-18T07:48:16Z</time>
      </trkpt>
      <trkpt lat="49.3306" lon="-0.38976">
        <ele>7.3</ele>
        <time>2021-08-18T07:48:18Z</time>
      </trkpt>
      <trkpt lat="49.33065" lon="-0.38994">
        <ele>7.4</ele>
        <time>2021-08-18T07:48:20Z</time>
      </trkpt>
      <trkpt lat="49.33068" lon="-0.39013">
        <ele>7.5</ele>
        <time>2021-08-18T07:48:22Z</time>
      </trkpt>
      <trkpt lat="49.33072" lon="-0.39031">
        <ele>7.6</ele>
        <time>2021-08-18T07:48:24Z</time>
      </trkpt>
      <trkpt lat="49.33076" lon="-0.39047">
        <ele>7.7</ele>
        <time>2021-08-18T07:48:26Z</time>
      </trkpt>
      <trkpt lat="49.33078" lon="-0.39055">
        <ele>7.7</ele>
        <time>2021-08-18T07:48:27Z</time>
      </trkpt>
      <trkpt lat="49.33082" lon="-0.39068">
        <ele>7.8</ele>
        <time>2021-08-18T07:48:29Z</time>
      </trkpt>
      <trkpt lat="49.33088" lon="-0.3908">
        <ele>7.8</ele>
        <time>2021-08-18T07:48:31Z</time>
      </trkpt>
      <trkpt lat="49.33091" lon="-0.39098">
        <ele>7.8</ele>
        <time>2021-08-18T07:48:33Z</time>
      </trkpt>
      <trkpt lat="49.33092" lon="-0.39113">
        <ele>7.9</ele>
        <time>2021-08-18T07:48:35Z</time>
      </trkpt>
      <trkpt lat="49.33092" lon="-0.39122">
        <ele>7.9</ele>
        <time>2021-08-18T07:48:36Z</time>
      </trkpt>
      <trkpt lat="49.33094" lon="-0.3913">
        <ele>7.9</ele>
        <time>2021-08-18T07:48:37Z</time>
      </trkpt>
      <trkpt lat="49.33095" lon="-0.39139">
        <ele>8</ele>
        <time>2021-08-18T07:48:39Z</time>
      </trkpt>
      <trkpt lat="49.33097" lon="-0.39148">
        <ele>8</ele>
        <time>2021-08-18T07:48:41Z</time>
      </trkpt>
      <trkpt lat="49.33099" lon="-0.39151">
        <ele>8</ele>
        <time>2021-08-18T07:48:42Z</time>
      </trkpt>
      <trkpt lat="49.33102" lon="-0.39157">
        <ele>8</ele>
        <time>2021-08-18T07:48:44Z</time>
      </trkpt>
      <trkpt lat="49.33103" lon="-0.3916">
        <ele>8</ele>
        <time>2021-08-18T07:48:45Z</time>
      </trkpt>
      <trkpt lat="49.33106" lon="-0.39167">
        <ele>8</ele>
        <time>2021-08-18T07:48:47Z</time>
      </trkpt>
      <trkpt lat="49.33107" lon="-0.3917">
        <ele>7.9</ele>
        <time>2021-08-18T07:48:48Z</time>
      </trkpt>
      <trkpt lat="49.33111" lon="-0.39178">
        <ele>7.9</ele>
        <time>2021-08-18T07:48:50Z</time>
      </trkpt>
      <trkpt lat="49.33114" lon="-0.39182">
        <ele>7.9</ele>
        <time>2021-08-18T07:48:51Z</time>
      </trkpt>
      <trkpt lat="49.33117" lon="-0.39186">
        <ele>7.9</ele>
        <time>2021-08-18T07:48:52Z</time>
      </trkpt>
      <trkpt lat="49.3312" lon="-0.3919">
        <ele>7.9</ele>
        <time>2021-08-18T07:48:53Z</time>
      </trkpt>
      <trkpt lat="49.33127" lon="-0.39197">
        <ele>7.8</ele>
        <time>2021-08-18T07:48:55Z</time>
      </trkpt>
      <trkpt lat="49.33131" lon="-0.392">
        <ele>7.8</ele>
        <time>2021-08-18T07:48:56Z</time>
      </trkpt>
      <trkpt lat="49.33136" lon="-0.39209">
        <ele>7.8</ele>
        <time>2021-08-18T07:48:58Z</time>
      </trkpt>
      <trkpt lat="49.33139" lon="-0.39214">
        <ele>7.7</ele>
        <time>2021-08-18T07:48:59Z</time>
      </trkpt>
      <trkpt lat="49.33141" lon="-0.39219">
        <ele>7.7</ele>
        <time>2021-08-18T07:49:00Z</time>
      </trkpt>
      <trkpt lat="49.33145" lon="-0.39233">
        <ele>7.6</ele>
        <time>2021-08-18T07:49:02Z</time>
      </trkpt>
      <trkpt lat="49.33147" lon="-0.39238">
        <ele>7.5</ele>
        <time>2021-08-18T07:49:03Z</time>
      </trkpt>
      <trkpt lat="49.3315" lon="-0.39244">
        <ele>7.5</ele>
        <time>2021-08-18T07:49:04Z</time>
      </trkpt>
      <trkpt lat="49.33155" lon="-0.39255">
        <ele>7.4</ele>
        <time>2021-08-18T07:49:06Z</time>
      </trkpt>
      <trkpt lat="49.3316" lon="-0.39267">
        <ele>7.2</ele>
        <time>2021-08-18T07:49:08Z</time>
      </trkpt>
      <trkpt lat="49.33166" lon="-0.39278">
        <ele>7.1</ele>
        <time>2021-08-18T07:49:10Z</time>
      </trkpt>
      <trkpt lat="49.33171" lon="-0.39292">
        <ele>6.9</ele>
        <time>2021-08-18T07:49:12Z</time>
      </trkpt>
      <trkpt lat="49.33177" lon="-0.39302">
        <ele>6.7</ele>
        <time>2021-08-18T07:49:14Z</time>
      </trkpt>
      <trkpt lat="49.33185" lon="-0.39314">
        <ele>6.3</ele>
        <time>2021-08-18T07:49:16Z</time>
      </trkpt>
      <trkpt lat="49.33189" lon="-0.3932">
        <ele>6.2</ele>
        <time>2021-08-18T07:49:17Z</time>
      </trkpt>
      <trkpt lat="49.33191" lon="-0.39325">
        <ele>6.2</ele>
        <time>2021-08-18T07:49:18Z</time>
      </trkpt>
      <trkpt lat="49.33195" lon="-0.39339">
        <ele>6.1</ele>
        <time>2021-08-18T07:49:20Z</time>
      </trkpt>
      <trkpt lat="49.33199" lon="-0.39352">
        <ele>6.1</ele>
        <time>2021-08-18T07:49:22Z</time>
      </trkpt>
      <trkpt lat="49.33202" lon="-0.39359">
        <ele>6.2</ele>
        <time>2021-08-18T07:49:23Z</time>
      </trkpt>
      <trkpt lat="49.33207" lon="-0.39372">
        <ele>6.3</ele>
        <time>2021-08-18T07:49:25Z</time>
      </trkpt>
      <trkpt lat="49.3321" lon="-0.39378">
        <ele>6.3</ele>
        <time>2021-08-18T07:49:26Z</time>
      </trkpt>
      <trkpt lat="49.33213" lon="-0.39392">
        <ele>6.4</ele>
        <time>2021-08-18T07:49:28Z</time>
      </trkpt>
      <trkpt lat="49.33215" lon="-0.39398">
        <ele>6.5</ele>
        <time>2021-08-18T07:49:29Z</time>
      </trkpt>
      <trkpt lat="49.33217" lon="-0.39412">
        <ele>6.7</ele>
        <time>2021-08-18T07:49:31Z</time>
      </trkpt>
      <trkpt lat="49.33219" lon="-0.39418">
        <ele>6.8</ele>
        <time>2021-08-18T07:49:32Z</time>
      </trkpt>
      <trkpt lat="49.33226" lon="-0.39431">
        <ele>7</ele>
        <time>2021-08-18T07:49:34Z</time>
      </trkpt>
      <trkpt lat="49.33232" lon="-0.39449">
        <ele>7.1</ele>
        <time>2021-08-18T07:49:36Z</time>
      </trkpt>
      <trkpt lat="49.33234" lon="-0.39459">
        <ele>7.1</ele>
        <time>2021-08-18T07:49:37Z</time>
      </trkpt>
      <trkpt lat="49.33237" lon="-0.39467">
        <ele>7.1</ele>
        <time>2021-08-18T07:49:38Z</time>
      </trkpt>
      <trkpt lat="49.33243" lon="-0.39481">
        <ele>7.3</ele>
        <time>2021-08-18T07:49:40Z</time>
      </trkpt>
      <trkpt lat="49.33247" lon="-0.39491">
        <ele>7.5</ele>
        <time>2021-08-18T07:49:42Z</time>
      </trkpt>
      <trkpt lat="49.3325" lon="-0.39505">
        <ele>7.6</ele>
        <time>2021-08-18T07:49:44Z</time>
      </trkpt>
      <trkpt lat="49.33251" lon="-0.39514">
        <ele>7.7</ele>
        <time>2021-08-18T07:49:45Z</time>
      </trkpt>
      <trkpt lat="49.33253" lon="-0.39528">
        <ele>7.9</ele>
        <time>2021-08-18T07:49:47Z</time>
      </trkpt>
      <trkpt lat="49.33254" lon="-0.39536">
        <ele>7.9</ele>
        <time>2021-08-18T07:49:48Z</time>
      </trkpt>
      <trkpt lat="49.33257" lon="-0.3955">
        <ele>8.1</ele>
        <time>2021-08-18T07:49:50Z</time>
      </trkpt>
      <trkpt lat="49.33259" lon="-0.39565">
        <ele>8.3</ele>
        <time>2021-08-18T07:49:52Z</time>
      </trkpt>
      <trkpt lat="49.3326" lon="-0.39576">
        <ele>8.4</ele>
        <time>2021-08-18T07:49:53Z</time>
      </trkpt>
      <trkpt lat="49.33259" lon="-0.39596">
        <ele>8.5</ele>
        <time>2021-08-18T07:49:55Z</time>
      </trkpt>
      <trkpt lat="49.33259" lon="-0.39615">
        <ele>8.5</ele>
        <time>2021-08-18T07:49:57Z</time>
      </trkpt>
      <trkpt lat="49.3326" lon="-0.39625">
        <ele>8.6</ele>
        <time>2021-08-18T07:49:58Z</time>
      </trkpt>
      <trkpt lat="49.33262" lon="-0.39645">
        <ele>8.6</ele>
        <time>2021-08-18T07:50:00Z</time>
      </trkpt>
      <trkpt lat="49.33263" lon="-0.39664">
        <ele>8.7</ele>
        <time>2021-08-18T07:50:02Z</time>
      </trkpt>
      <trkpt lat="49.33265" lon="-0.39683">
        <ele>8.7</ele>
        <time>2021-08-18T07:50:04Z</time>
      </trkpt>
      <trkpt lat="49.33266" lon="-0.39692">
        <ele>8.8</ele>
        <time>2021-08-18T07:50:05Z</time>
      </trkpt>
      <trkpt lat="49.33267" lon="-0.3971">
        <ele>8.8</ele>
        <time>2021-08-18T07:50:07Z</time>
      </trkpt>
      <trkpt lat="49.33268" lon="-0.39719">
        <ele>8.8</ele>
        <time>2021-08-18T07:50:08Z</time>
      </trkpt>
      <trkpt lat="49.3327" lon="-0.39738">
        <ele>8.9</ele>
        <time>2021-08-18T07:50:10Z</time>
      </trkpt>
      <trkpt lat="49.33271" lon="-0.39747">
        <ele>8.9</ele>
        <time>2021-08-18T07:50:11Z</time>
      </trkpt>
      <trkpt lat="49.33272" lon="-0.39756">
        <ele>8.9</ele>
        <time>2021-08-18T07:50:12Z</time>
      </trkpt>
      <trkpt lat="49.33273" lon="-0.39765">
        <ele>8.9</ele>
        <time>2021-08-18T07:50:13Z</time>
      </trkpt>
      <trkpt lat="49.33274" lon="-0.39774">
        <ele>8.9</ele>
        <time>2021-08-18T07:50:14Z</time>
      </trkpt>
      <trkpt lat="49.33275" lon="-0.39793">
        <ele>8.9</ele>
        <time>2021-08-18T07:50:16Z</time>
      </trkpt>
      <trkpt lat="49.33276" lon="-0.39802">
        <ele>8.9</ele>
        <time>2021-08-18T07:50:17Z</time>
      </trkpt>
      <trkpt lat="49.33276" lon="-0.39821">
        <ele>9</ele>
        <time>2021-08-18T07:50:19Z</time>
      </trkpt>
      <trkpt lat="49.33277" lon="-0.3983">
        <ele>9</ele>
        <time>2021-08-18T07:50:20Z</time>
      </trkpt>
      <trkpt lat="49.33279" lon="-0.39849">
        <ele>9</ele>
        <time>2021-08-18T07:50:22Z</time>
      </trkpt>
      <trkpt lat="49.3328" lon="-0.39858">
        <ele>9</ele>
        <time>2021-08-18T07:50:23Z</time>
      </trkpt>
      <trkpt lat="49.33282" lon="-0.39877">
        <ele>9</ele>
        <time>2021-08-18T07:50:25Z</time>
      </trkpt>
      <trkpt lat="49.33284" lon="-0.39895">
        <ele>9</ele>
        <time>2021-08-18T07:50:27Z</time>
      </trkpt>
      <trkpt lat="49.33285" lon="-0.39904">
        <ele>9.1</ele>
        <time>2021-08-18T07:50:28Z</time>
      </trkpt>
      <trkpt lat="49.33287" lon="-0.39923">
        <ele>9.1</ele>
        <time>2021-08-18T07:50:30Z</time>
      </trkpt>
      <trkpt lat="49.33288" lon="-0.39941">
        <ele>9.1</ele>
        <time>2021-08-18T07:50:32Z</time>
      </trkpt>
      <trkpt lat="49.33289" lon="-0.3996">
        <ele>9.2</ele>
        <time>2021-08-18T07:50:34Z</time>
      </trkpt>
      <trkpt lat="49.3329" lon="-0.3997">
        <ele>9.2</ele>
        <time>2021-08-18T07:50:35Z</time>
      </trkpt>
      <trkpt lat="49.33291" lon="-0.39991">
        <ele>9.2</ele>
        <time>2021-08-18T07:50:37Z</time>
      </trkpt>
      <trkpt lat="49.33291" lon="-0.40011">
        <ele>9.2</ele>
        <time>2021-08-18T07:50:39Z</time>
      </trkpt>
      <trkpt lat="49.33292" lon="-0.4002">
        <ele>9.1</ele>
        <time>2021-08-18T07:50:40Z</time>
      </trkpt>
      <trkpt lat="49.33294" lon="-0.40038">
        <ele>9.1</ele>
        <time>2021-08-18T07:50:42Z</time>
      </trkpt>
      <trkpt lat="49.33295" lon="-0.40048">
        <ele>9.1</ele>
        <time>2021-08-18T07:50:43Z</time>
      </trkpt>
      <trkpt lat="49.33298" lon="-0.40066">
        <ele>9</ele>
        <time>2021-08-18T07:50:45Z</time>
      </trkpt>
      <trkpt lat="49.33299" lon="-0.40076">
        <ele>8.9</ele>
        <time>2021-08-18T07:50:46Z</time>
      </trkpt>
      <trkpt lat="49.33302" lon="-0.40094">
        <ele>8.9</ele>
        <time>2021-08-18T07:50:48Z</time>
      </trkpt>
      <trkpt lat="49.33303" lon="-0.40103">
        <ele>8.8</ele>
        <time>2021-08-18T07:50:49Z</time>
      </trkpt>
      <trkpt lat="49.33306" lon="-0.40121">
        <ele>8.7</ele>
        <time>2021-08-18T07:50:51Z</time>
      </trkpt>
      <trkpt lat="49.33308" lon="-0.4014">
        <ele>8.6</ele>
        <time>2021-08-18T07:50:53Z</time>
      </trkpt>
      <trkpt lat="49.33309" lon="-0.4015">
        <ele>8.5</ele>
        <time>2021-08-18T07:50:54Z</time>
      </trkpt>
      <trkpt lat="49.33311" lon="-0.4017">
        <ele>8.3</ele>
        <time>2021-08-18T07:50:56Z</time>
      </trkpt>
      <trkpt lat="49.33313" lon="-0.4019">
        <ele>8.2</ele>
        <time>2021-08-18T07:50:58Z</time>
      </trkpt>
      <trkpt lat="49.33314" lon="-0.40209">
        <ele>8</ele>
        <time>2021-08-18T07:51:00Z</time>
      </trkpt>
      <trkpt lat="49.33315" lon="-0.40219">
        <ele>7.9</ele>
        <time>2021-08-18T07:51:01Z</time>
      </trkpt>
      <trkpt lat="49.33316" lon="-0.4024">
        <ele>7.6</ele>
        <time>2021-08-18T07:51:03Z</time>
      </trkpt>
      <trkpt lat="49.33317" lon="-0.40251">
        <ele>7.4</ele>
        <time>2021-08-18T07:51:04Z</time>
      </trkpt>
      <trkpt lat="49.33318" lon="-0.40272">
        <ele>7.1</ele>
        <time>2021-08-18T07:51:06Z</time>
      </trkpt>
      <trkpt lat="49.33319" lon="-0.40283">
        <ele>7</ele>
        <time>2021-08-18T07:51:07Z</time>
      </trkpt>
      <trkpt lat="49.3332" lon="-0.40294">
        <ele>6.8</ele>
        <time>2021-08-18T07:51:08Z</time>
      </trkpt>
      <trkpt lat="49.33321" lon="-0.40315">
        <ele>6.6</ele>
        <time>2021-08-18T07:51:10Z</time>
      </trkpt>
      <trkpt lat="49.33321" lon="-0.40326">
        <ele>6.5</ele>
        <time>2021-08-18T07:51:11Z</time>
      </trkpt>
      <trkpt lat="49.33322" lon="-0.40348">
        <ele>6.2</ele>
        <time>2021-08-18T07:51:13Z</time>
      </trkpt>
      <trkpt lat="49.33323" lon="-0.40358">
        <ele>6.1</ele>
        <time>2021-08-18T07:51:14Z</time>
      </trkpt>
      <trkpt lat="49.33324" lon="-0.4038">
        <ele>5.9</ele>
        <time>2021-08-18T07:51:16Z</time>
      </trkpt>
      <trkpt lat="49.33325" lon="-0.40391">
        <ele>5.8</ele>
        <time>2021-08-18T07:51:17Z</time>
      </trkpt>
      <trkpt lat="49.33327" lon="-0.40413">
        <ele>5.6</ele>
        <time>2021-08-18T07:51:19Z</time>
      </trkpt>
      <trkpt lat="49.33328" lon="-0.40424">
        <ele>5.4</ele>
        <time>2021-08-18T07:51:20Z</time>
      </trkpt>
      <trkpt lat="49.33331" lon="-0.40443">
        <ele>5.2</ele>
        <time>2021-08-18T07:51:22Z</time>
      </trkpt>
      <trkpt lat="49.33332" lon="-0.40454">
        <ele>5.1</ele>
        <time>2021-08-18T07:51:23Z</time>
      </trkpt>
      <trkpt lat="49.33333" lon="-0.40465">
        <ele>5</ele>
        <time>2021-08-18T07:51:24Z</time>
      </trkpt>
      <trkpt lat="49.33335" lon="-0.40486">
        <ele>4.8</ele>
        <time>2021-08-18T07:51:26Z</time>
      </trkpt>
      <trkpt lat="49.33337" lon="-0.40507">
        <ele>4.7</ele>
        <time>2021-08-18T07:51:28Z</time>
      </trkpt>
      <trkpt lat="49.33338" lon="-0.40517">
        <ele>4.7</ele>
        <time>2021-08-18T07:51:29Z</time>
      </trkpt>
      <trkpt lat="49.33339" lon="-0.40528">
        <ele>4.6</ele>
        <time>2021-08-18T07:51:30Z</time>
      </trkpt>
      <trkpt lat="49.33339" lon="-0.40539">
        <ele>4.6</ele>
        <time>2021-08-18T07:51:31Z</time>
      </trkpt>
      <trkpt lat="49.3334" lon="-0.4056">
        <ele>4.5</ele>
        <time>2021-08-18T07:51:33Z</time>
      </trkpt>
      <trkpt lat="49.3334" lon="-0.40581">
        <ele>4.4</ele>
        <time>2021-08-18T07:51:35Z</time>
      </trkpt>
      <trkpt lat="49.33341" lon="-0.40602">
        <ele>4.3</ele>
        <time>2021-08-18T07:51:37Z</time>
      </trkpt>
      <trkpt lat="49.33341" lon="-0.40613">
        <ele>4.2</ele>
        <time>2021-08-18T07:51:38Z</time>
      </trkpt>
      <trkpt lat="49.33341" lon="-0.40633">
        <ele>4.2</ele>
        <time>2021-08-18T07:51:40Z</time>
      </trkpt>
      <trkpt lat="49.33342" lon="-0.40644">
        <ele>4.2</ele>
        <time>2021-08-18T07:51:41Z</time>
      </trkpt>
      <trkpt lat="49.33344" lon="-0.40665">
        <ele>4.2</ele>
        <time>2021-08-18T07:51:43Z</time>
      </trkpt>
      <trkpt lat="49.33345" lon="-0.40686">
        <ele>4.1</ele>
        <time>2021-08-18T07:51:45Z</time>
      </trkpt>
      <trkpt lat="49.33346" lon="-0.40696">
        <ele>4.1</ele>
        <time>2021-08-18T07:51:46Z</time>
      </trkpt>
      <trkpt lat="49.33348" lon="-0.40716">
        <ele>4.1</ele>
        <time>2021-08-18T07:51:48Z</time>
      </trkpt>
      <trkpt lat="49.3335" lon="-0.40726">
        <ele>4.1</ele>
        <time>2021-08-18T07:51:49Z</time>
      </trkpt>
      <trkpt lat="49.33356" lon="-0.40744">
        <ele>4</ele>
        <time>2021-08-18T07:51:51Z</time>
      </trkpt>
      <trkpt lat="49.33359" lon="-0.40754">
        <ele>3.9</ele>
        <time>2021-08-18T07:51:52Z</time>
      </trkpt>
      <trkpt lat="49.33362" lon="-0.40764">
        <ele>3.8</ele>
        <time>2021-08-18T07:51:53Z</time>
      </trkpt>
      <trkpt lat="49.33369" lon="-0.40782">
        <ele>3.6</ele>
        <time>2021-08-18T07:51:55Z</time>
      </trkpt>
      <trkpt lat="49.33373" lon="-0.40791">
        <ele>3.6</ele>
        <time>2021-08-18T07:51:56Z</time>
      </trkpt>
      <trkpt lat="49.33379" lon="-0.4081">
        <ele>3.5</ele>
        <time>2021-08-18T07:51:58Z</time>
      </trkpt>
      <trkpt lat="49.33386" lon="-0.40829">
        <ele>3.5</ele>
        <time>2021-08-18T07:52:00Z</time>
      </trkpt>
      <trkpt lat="49.33393" lon="-0.40848">
        <ele>3.4</ele>
        <time>2021-08-18T07:52:02Z</time>
      </trkpt>
      <trkpt lat="49.33397" lon="-0.40857">
        <ele>3.4</ele>
        <time>2021-08-18T07:52:03Z</time>
      </trkpt>
      <trkpt lat="49.33403" lon="-0.40877">
        <ele>3.4</ele>
        <time>2021-08-18T07:52:05Z</time>
      </trkpt>
      <trkpt lat="49.33406" lon="-0.40887">
        <ele>3.4</ele>
        <time>2021-08-18T07:52:06Z</time>
      </trkpt>
      <trkpt lat="49.33413" lon="-0.40907">
        <ele>3.4</ele>
        <time>2021-08-18T07:52:08Z</time>
      </trkpt>
      <trkpt lat="49.33416" lon="-0.40916">
        <ele>3.4</ele>
        <time>2021-08-18T07:52:09Z</time>
      </trkpt>
      <trkpt lat="49.33421" lon="-0.40935">
        <ele>3.4</ele>
        <time>2021-08-18T07:52:11Z</time>
      </trkpt>
      <trkpt lat="49.33426" lon="-0.40955">
        <ele>3.4</ele>
        <time>2021-08-18T07:52:13Z</time>
      </trkpt>
      <trkpt lat="49.3343" lon="-0.40975">
        <ele>3.4</ele>
        <time>2021-08-18T07:52:15Z</time>
      </trkpt>
      <trkpt lat="49.33432" lon="-0.40986">
        <ele>3.4</ele>
        <time>2021-08-18T07:52:16Z</time>
      </trkpt>
      <trkpt lat="49.33436" lon="-0.41006">
        <ele>3.5</ele>
        <time>2021-08-18T07:52:18Z</time>
      </trkpt>
      <trkpt lat="49.33438" lon="-0.41017">
        <ele>3.5</ele>
        <time>2021-08-18T07:52:19Z</time>
      </trkpt>
      <trkpt lat="49.3344" lon="-0.41026">
        <ele>3.5</ele>
        <time>2021-08-18T07:52:20Z</time>
      </trkpt>
      <trkpt lat="49.33442" lon="-0.41046">
        <ele>3.5</ele>
        <time>2021-08-18T07:52:22Z</time>
      </trkpt>
      <trkpt lat="49.33444" lon="-0.41066">
        <ele>3.5</ele>
        <time>2021-08-18T07:52:24Z</time>
      </trkpt>
      <trkpt lat="49.33445" lon="-0.41076">
        <ele>3.5</ele>
        <time>2021-08-18T07:52:25Z</time>
      </trkpt>
      <trkpt lat="49.33446" lon="-0.41086">
        <ele>3.4</ele>
        <time>2021-08-18T07:52:26Z</time>
      </trkpt>
      <trkpt lat="49.33447" lon="-0.41107">
        <ele>3.4</ele>
        <time>2021-08-18T07:52:28Z</time>
      </trkpt>
      <trkpt lat="49.33448" lon="-0.41118">
        <ele>3.4</ele>
        <time>2021-08-18T07:52:29Z</time>
      </trkpt>
      <trkpt lat="49.33449" lon="-0.41129">
        <ele>3.4</ele>
        <time>2021-08-18T07:52:30Z</time>
      </trkpt>
      <trkpt lat="49.3345" lon="-0.4115">
        <ele>3.3</ele>
        <time>2021-08-18T07:52:32Z</time>
      </trkpt>
      <trkpt lat="49.33451" lon="-0.41171">
        <ele>3.3</ele>
        <time>2021-08-18T07:52:34Z</time>
      </trkpt>
      <trkpt lat="49.33452" lon="-0.41192">
        <ele>3.3</ele>
        <time>2021-08-18T07:52:36Z</time>
      </trkpt>
      <trkpt lat="49.33453" lon="-0.41213">
        <ele>3.3</ele>
        <time>2021-08-18T07:52:38Z</time>
      </trkpt>
      <trkpt lat="49.33454" lon="-0.41234">
        <ele>3.3</ele>
        <time>2021-08-18T07:52:40Z</time>
      </trkpt>
      <trkpt lat="49.33454" lon="-0.41245">
        <ele>3.3</ele>
        <time>2021-08-18T07:52:41Z</time>
      </trkpt>
      <trkpt lat="49.33455" lon="-0.41265">
        <ele>3.4</ele>
        <time>2021-08-18T07:52:43Z</time>
      </trkpt>
      <trkpt lat="49.33456" lon="-0.41275">
        <ele>3.4</ele>
        <time>2021-08-18T07:52:44Z</time>
      </trkpt>
      <trkpt lat="49.33457" lon="-0.41295">
        <ele>3.4</ele>
        <time>2021-08-18T07:52:46Z</time>
      </trkpt>
      <trkpt lat="49.33458" lon="-0.41315">
        <ele>3.4</ele>
        <time>2021-08-18T07:52:48Z</time>
      </trkpt>
      <trkpt lat="49.33459" lon="-0.41335">
        <ele>3.4</ele>
        <time>2021-08-18T07:52:50Z</time>
      </trkpt>
      <trkpt lat="49.3346" lon="-0.41345">
        <ele>3.4</ele>
        <time>2021-08-18T07:52:51Z</time>
      </trkpt>
      <trkpt lat="49.33461" lon="-0.41365">
        <ele>3.5</ele>
        <time>2021-08-18T07:52:53Z</time>
      </trkpt>
      <trkpt lat="49.33462" lon="-0.41374">
        <ele>3.5</ele>
        <time>2021-08-18T07:52:54Z</time>
      </trkpt>
      <trkpt lat="49.33463" lon="-0.41394">
        <ele>3.5</ele>
        <time>2021-08-18T07:52:56Z</time>
      </trkpt>
      <trkpt lat="49.33463" lon="-0.41404">
        <ele>3.5</ele>
        <time>2021-08-18T07:52:57Z</time>
      </trkpt>
      <trkpt lat="49.33464" lon="-0.41425">
        <ele>3.5</ele>
        <time>2021-08-18T07:52:59Z</time>
      </trkpt>
      <trkpt lat="49.33465" lon="-0.41435">
        <ele>3.5</ele>
        <time>2021-08-18T07:53:00Z</time>
      </trkpt>
      <trkpt lat="49.33467" lon="-0.41456">
        <ele>3.5</ele>
        <time>2021-08-18T07:53:02Z</time>
      </trkpt>
      <trkpt lat="49.33467" lon="-0.41467">
        <ele>3.4</ele>
        <time>2021-08-18T07:53:03Z</time>
      </trkpt>
      <trkpt lat="49.33468" lon="-0.41489">
        <ele>3.4</ele>
        <time>2021-08-18T07:53:05Z</time>
      </trkpt>
      <trkpt lat="49.33469" lon="-0.415">
        <ele>3.4</ele>
        <time>2021-08-18T07:53:06Z</time>
      </trkpt>
      <trkpt lat="49.33469" lon="-0.41521">
        <ele>3.4</ele>
        <time>2021-08-18T07:53:08Z</time>
      </trkpt>
      <trkpt lat="49.3347" lon="-0.41533">
        <ele>3.4</ele>
        <time>2021-08-18T07:53:09Z</time>
      </trkpt>
      <trkpt lat="49.33471" lon="-0.41554">
        <ele>3.4</ele>
        <time>2021-08-18T07:53:11Z</time>
      </trkpt>
      <trkpt lat="49.33472" lon="-0.41575">
        <ele>3.5</ele>
        <time>2021-08-18T07:53:13Z</time>
      </trkpt>
      <trkpt lat="49.33472" lon="-0.41586">
        <ele>3.5</ele>
        <time>2021-08-18T07:53:14Z</time>
      </trkpt>
      <trkpt lat="49.33473" lon="-0.41607">
        <ele>3.5</ele>
        <time>2021-08-18T07:53:16Z</time>
      </trkpt>
      <trkpt lat="49.33473" lon="-0.41618">
        <ele>3.5</ele>
        <time>2021-08-18T07:53:17Z</time>
      </trkpt>
      <trkpt lat="49.33474" lon="-0.41639">
        <ele>3.5</ele>
        <time>2021-08-18T07:53:19Z</time>
      </trkpt>
      <trkpt lat="49.33475" lon="-0.41649">
        <ele>3.5</ele>
        <time>2021-08-18T07:53:20Z</time>
      </trkpt>
      <trkpt lat="49.33475" lon="-0.41669">
        <ele>3.5</ele>
        <time>2021-08-18T07:53:22Z</time>
      </trkpt>
      <trkpt lat="49.33475" lon="-0.4168">
        <ele>3.6</ele>
        <time>2021-08-18T07:53:23Z</time>
      </trkpt>
      <trkpt lat="49.33474" lon="-0.41699">
        <ele>3.6</ele>
        <time>2021-08-18T07:53:25Z</time>
      </trkpt>
      <trkpt lat="49.33474" lon="-0.41709">
        <ele>3.6</ele>
        <time>2021-08-18T07:53:26Z</time>
      </trkpt>
      <trkpt lat="49.33474" lon="-0.41729">
        <ele>3.7</ele>
        <time>2021-08-18T07:53:28Z</time>
      </trkpt>
      <trkpt lat="49.33474" lon="-0.41739">
        <ele>3.7</ele>
        <time>2021-08-18T07:53:29Z</time>
      </trkpt>
      <trkpt lat="49.33474" lon="-0.41758">
        <ele>3.7</ele>
        <time>2021-08-18T07:53:31Z</time>
      </trkpt>
      <trkpt lat="49.33474" lon="-0.41767">
        <ele>3.7</ele>
        <time>2021-08-18T07:53:32Z</time>
      </trkpt>
      <trkpt lat="49.33474" lon="-0.41776">
        <ele>3.7</ele>
        <time>2021-08-18T07:53:33Z</time>
      </trkpt>
      <trkpt lat="49.33474" lon="-0.41795">
        <ele>3.7</ele>
        <time>2021-08-18T07:53:35Z</time>
      </trkpt>
      <trkpt lat="49.33473" lon="-0.41805">
        <ele>3.7</ele>
        <time>2021-08-18T07:53:36Z</time>
      </trkpt>
      <trkpt lat="49.33473" lon="-0.41815">
        <ele>3.6</ele>
        <time>2021-08-18T07:53:37Z</time>
      </trkpt>
      <trkpt lat="49.33472" lon="-0.41835">
        <ele>3.6</ele>
        <time>2021-08-18T07:53:39Z</time>
      </trkpt>
      <trkpt lat="49.33472" lon="-0.41845">
        <ele>3.5</ele>
        <time>2021-08-18T07:53:40Z</time>
      </trkpt>
      <trkpt lat="49.33472" lon="-0.41855">
        <ele>3.5</ele>
        <time>2021-08-18T07:53:41Z</time>
      </trkpt>
      <trkpt lat="49.33472" lon="-0.41875">
        <ele>3.5</ele>
        <time>2021-08-18T07:53:43Z</time>
      </trkpt>
      <trkpt lat="49.33473" lon="-0.41895">
        <ele>3.4</ele>
        <time>2021-08-18T07:53:45Z</time>
      </trkpt>
      <trkpt lat="49.33474" lon="-0.41915">
        <ele>3.3</ele>
        <time>2021-08-18T07:53:47Z</time>
      </trkpt>
      <trkpt lat="49.33473" lon="-0.41935">
        <ele>3.3</ele>
        <time>2021-08-18T07:53:49Z</time>
      </trkpt>
      <trkpt lat="49.33474" lon="-0.41956">
        <ele>3.3</ele>
        <time>2021-08-18T07:53:51Z</time>
      </trkpt>
      <trkpt lat="49.33475" lon="-0.41976">
        <ele>3.2</ele>
        <time>2021-08-18T07:53:53Z</time>
      </trkpt>
      <trkpt lat="49.33475" lon="-0.41986">
        <ele>3.2</ele>
        <time>2021-08-18T07:53:54Z</time>
      </trkpt>
      <trkpt lat="49.33475" lon="-0.42005">
        <ele>3.2</ele>
        <time>2021-08-18T07:53:56Z</time>
      </trkpt>
      <trkpt lat="49.33476" lon="-0.42015">
        <ele>3.2</ele>
        <time>2021-08-18T07:53:57Z</time>
      </trkpt>
      <trkpt lat="49.33476" lon="-0.42034">
        <ele>3.2</ele>
        <time>2021-08-18T07:53:59Z</time>
      </trkpt>
      <trkpt lat="49.33477" lon="-0.42052">
        <ele>3.2</ele>
        <time>2021-08-18T07:54:01Z</time>
      </trkpt>
      <trkpt lat="49.33477" lon="-0.42071">
        <ele>3.3</ele>
        <time>2021-08-18T07:54:03Z</time>
      </trkpt>
      <trkpt lat="49.33477" lon="-0.4208">
        <ele>3.3</ele>
        <time>2021-08-18T07:54:04Z</time>
      </trkpt>
      <trkpt lat="49.33477" lon="-0.42089">
        <ele>3.3</ele>
        <time>2021-08-18T07:54:05Z</time>
      </trkpt>
      <trkpt lat="49.33477" lon="-0.42108">
        <ele>3.4</ele>
        <time>2021-08-18T07:54:07Z</time>
      </trkpt>
      <trkpt lat="49.33478" lon="-0.42117">
        <ele>3.4</ele>
        <time>2021-08-18T07:54:08Z</time>
      </trkpt>
      <trkpt lat="49.33477" lon="-0.42137">
        <ele>3.4</ele>
        <time>2021-08-18T07:54:10Z</time>
      </trkpt>
      <trkpt lat="49.33477" lon="-0.42156">
        <ele>3.5</ele>
        <time>2021-08-18T07:54:12Z</time>
      </trkpt>
      <trkpt lat="49.33477" lon="-0.42166">
        <ele>3.5</ele>
        <time>2021-08-18T07:54:13Z</time>
      </trkpt>
      <trkpt lat="49.33478" lon="-0.42185">
        <ele>3.6</ele>
        <time>2021-08-18T07:54:15Z</time>
      </trkpt>
      <trkpt lat="49.33478" lon="-0.42194">
        <ele>3.6</ele>
        <time>2021-08-18T07:54:16Z</time>
      </trkpt>
      <trkpt lat="49.33478" lon="-0.42204">
        <ele>3.7</ele>
        <time>2021-08-18T07:54:17Z</time>
      </trkpt>
      <trkpt lat="49.33479" lon="-0.42221">
        <ele>3.8</ele>
        <time>2021-08-18T07:54:19Z</time>
      </trkpt>
      <trkpt lat="49.3348" lon="-0.4223">
        <ele>3.8</ele>
        <time>2021-08-18T07:54:20Z</time>
      </trkpt>
      <trkpt lat="49.33482" lon="-0.42247">
        <ele>3.9</ele>
        <time>2021-08-18T07:54:22Z</time>
      </trkpt>
      <trkpt lat="49.33483" lon="-0.42256">
        <ele>3.9</ele>
        <time>2021-08-18T07:54:23Z</time>
      </trkpt>
      <trkpt lat="49.33484" lon="-0.42275">
        <ele>4</ele>
        <time>2021-08-18T07:54:25Z</time>
      </trkpt>
      <trkpt lat="49.33484" lon="-0.42285">
        <ele>4.1</ele>
        <time>2021-08-18T07:54:26Z</time>
      </trkpt>
      <trkpt lat="49.33485" lon="-0.42305">
        <ele>4.1</ele>
        <time>2021-08-18T07:54:28Z</time>
      </trkpt>
      <trkpt lat="49.33486" lon="-0.42324">
        <ele>4.2</ele>
        <time>2021-08-18T07:54:30Z</time>
      </trkpt>
      <trkpt lat="49.33487" lon="-0.42343">
        <ele>4.3</ele>
        <time>2021-08-18T07:54:32Z</time>
      </trkpt>
      <trkpt lat="49.33488" lon="-0.42362">
        <ele>4.3</ele>
        <time>2021-08-18T07:54:34Z</time>
      </trkpt>
      <trkpt lat="49.33489" lon="-0.42372">
        <ele>4.4</ele>
        <time>2021-08-18T07:54:35Z</time>
      </trkpt>
      <trkpt lat="49.3349" lon="-0.42393">
        <ele>4.4</ele>
        <time>2021-08-18T07:54:37Z</time>
      </trkpt>
      <trkpt lat="49.33491" lon="-0.42413">
        <ele>4.5</ele>
        <time>2021-08-18T07:54:39Z</time>
      </trkpt>
      <trkpt lat="49.33492" lon="-0.42433">
        <ele>4.5</ele>
        <time>2021-08-18T07:54:41Z</time>
      </trkpt>
      <trkpt lat="49.33493" lon="-0.42443">
        <ele>4.5</ele>
        <time>2021-08-18T07:54:42Z</time>
      </trkpt>
      <trkpt lat="49.33494" lon="-0.42463">
        <ele>4.5</ele>
        <time>2021-08-18T07:54:44Z</time>
      </trkpt>
      <trkpt lat="49.33495" lon="-0.42483">
        <ele>4.4</ele>
        <time>2021-08-18T07:54:46Z</time>
      </trkpt>
      <trkpt lat="49.33495" lon="-0.42494">
        <ele>4.3</ele>
        <time>2021-08-18T07:54:47Z</time>
      </trkpt>
      <trkpt lat="49.33494" lon="-0.42513">
        <ele>4.2</ele>
        <time>2021-08-18T07:54:49Z</time>
      </trkpt>
      <trkpt lat="49.33494" lon="-0.42523">
        <ele>4.2</ele>
        <time>2021-08-18T07:54:50Z</time>
      </trkpt>
      <trkpt lat="49.33493" lon="-0.42533">
        <ele>4.1</ele>
        <time>2021-08-18T07:54:51Z</time>
      </trkpt>
      <trkpt lat="49.33489" lon="-0.42553">
        <ele>4.1</ele>
        <time>2021-08-18T07:54:53Z</time>
      </trkpt>
      <trkpt lat="49.33487" lon="-0.42562">
        <ele>4.1</ele>
        <time>2021-08-18T07:54:54Z</time>
      </trkpt>
      <trkpt lat="49.33485" lon="-0.42572">
        <ele>4.1</ele>
        <time>2021-08-18T07:54:55Z</time>
      </trkpt>
      <trkpt lat="49.33478" lon="-0.4259">
        <ele>4.2</ele>
        <time>2021-08-18T07:54:57Z</time>
      </trkpt>
      <trkpt lat="49.33475" lon="-0.42599">
        <ele>4.2</ele>
        <time>2021-08-18T07:54:58Z</time>
      </trkpt>
      <trkpt lat="49.33471" lon="-0.42608">
        <ele>4.2</ele>
        <time>2021-08-18T07:54:59Z</time>
      </trkpt>
      <trkpt lat="49.33467" lon="-0.42616">
        <ele>4.2</ele>
        <time>2021-08-18T07:55:00Z</time>
      </trkpt>
      <trkpt lat="49.33457" lon="-0.42633">
        <ele>4.2</ele>
        <time>2021-08-18T07:55:02Z</time>
      </trkpt>
      <trkpt lat="49.33446" lon="-0.42648">
        <ele>4.2</ele>
        <time>2021-08-18T07:55:04Z</time>
      </trkpt>
      <trkpt lat="49.33434" lon="-0.42662">
        <ele>4.1</ele>
        <time>2021-08-18T07:55:06Z</time>
      </trkpt>
      <trkpt lat="49.33428" lon="-0.42669">
        <ele>4.1</ele>
        <time>2021-08-18T07:55:07Z</time>
      </trkpt>
      <trkpt lat="49.33415" lon="-0.42682">
        <ele>4</ele>
        <time>2021-08-18T07:55:09Z</time>
      </trkpt>
      <trkpt lat="49.33402" lon="-0.42694">
        <ele>4</ele>
        <time>2021-08-18T07:55:11Z</time>
      </trkpt>
      <trkpt lat="49.33388" lon="-0.42706">
        <ele>3.9</ele>
        <time>2021-08-18T07:55:13Z</time>
      </trkpt>
      <trkpt lat="49.33376" lon="-0.42719">
        <ele>3.9</ele>
        <time>2021-08-18T07:55:15Z</time>
      </trkpt>
      <trkpt lat="49.33369" lon="-0.42725">
        <ele>3.9</ele>
        <time>2021-08-18T07:55:16Z</time>
      </trkpt>
      <trkpt lat="49.33363" lon="-0.42731">
        <ele>3.8</ele>
        <time>2021-08-18T07:55:17Z</time>
      </trkpt>
      <trkpt lat="49.33349" lon="-0.42744">
        <ele>3.8</ele>
        <time>2021-08-18T07:55:19Z</time>
      </trkpt>
      <trkpt lat="49.33336" lon="-0.42757">
        <ele>3.7</ele>
        <time>2021-08-18T07:55:21Z</time>
      </trkpt>
      <trkpt lat="49.33323" lon="-0.42769">
        <ele>3.7</ele>
        <time>2021-08-18T07:55:23Z</time>
      </trkpt>
      <trkpt lat="49.3331" lon="-0.42781">
        <ele>3.7</ele>
        <time>2021-08-18T07:55:25Z</time>
      </trkpt>
      <trkpt lat="49.33299" lon="-0.42794">
        <ele>3.8</ele>
        <time>2021-08-18T07:55:27Z</time>
      </trkpt>
      <trkpt lat="49.33292" lon="-0.428">
        <ele>3.8</ele>
        <time>2021-08-18T07:55:28Z</time>
      </trkpt>
      <trkpt lat="49.33286" lon="-0.42806">
        <ele>3.8</ele>
        <time>2021-08-18T07:55:29Z</time>
      </trkpt>
      <trkpt lat="49.33281" lon="-0.42814">
        <ele>3.8</ele>
        <time>2021-08-18T07:55:30Z</time>
      </trkpt>
      <trkpt lat="49.3327" lon="-0.42828">
        <ele>3.8</ele>
        <time>2021-08-18T07:55:32Z</time>
      </trkpt>
      <trkpt lat="49.33262" lon="-0.42844">
        <ele>3.8</ele>
        <time>2021-08-18T07:55:34Z</time>
      </trkpt>
      <trkpt lat="49.33252" lon="-0.42861">
        <ele>3.8</ele>
        <time>2021-08-18T07:55:36Z</time>
      </trkpt>
      <trkpt lat="49.33243" lon="-0.4288">
        <ele>3.9</ele>
        <time>2021-08-18T07:55:38Z</time>
      </trkpt>
      <trkpt lat="49.33239" lon="-0.42889">
        <ele>3.9</ele>
        <time>2021-08-18T07:55:39Z</time>
      </trkpt>
      <trkpt lat="49.33235" lon="-0.42899">
        <ele>3.9</ele>
        <time>2021-08-18T07:55:40Z</time>
      </trkpt>
      <trkpt lat="49.33227" lon="-0.42919">
        <ele>3.8</ele>
        <time>2021-08-18T07:55:42Z</time>
      </trkpt>
      <trkpt lat="49.3322" lon="-0.42939">
        <ele>3.8</ele>
        <time>2021-08-18T07:55:44Z</time>
      </trkpt>
      <trkpt lat="49.33216" lon="-0.42949">
        <ele>3.8</ele>
        <time>2021-08-18T07:55:45Z</time>
      </trkpt>
      <trkpt lat="49.33209" lon="-0.4297">
        <ele>3.8</ele>
        <time>2021-08-18T07:55:47Z</time>
      </trkpt>
      <trkpt lat="49.33206" lon="-0.42981">
        <ele>3.9</ele>
        <time>2021-08-18T07:55:48Z</time>
      </trkpt>
      <trkpt lat="49.33202" lon="-0.42992">
        <ele>3.9</ele>
        <time>2021-08-18T07:55:49Z</time>
      </trkpt>
      <trkpt lat="49.33195" lon="-0.43013">
        <ele>4</ele>
        <time>2021-08-18T07:55:51Z</time>
      </trkpt>
      <trkpt lat="49.33191" lon="-0.43023">
        <ele>4</ele>
        <time>2021-08-18T07:55:52Z</time>
      </trkpt>
      <trkpt lat="49.33185" lon="-0.43044">
        <ele>4.1</ele>
        <time>2021-08-18T07:55:54Z</time>
      </trkpt>
      <trkpt lat="49.33178" lon="-0.43065">
        <ele>4.2</ele>
        <time>2021-08-18T07:55:56Z</time>
      </trkpt>
      <trkpt lat="49.33171" lon="-0.43084">
        <ele>4.3</ele>
        <time>2021-08-18T07:55:58Z</time>
      </trkpt>
      <trkpt lat="49.33162" lon="-0.43102">
        <ele>4.4</ele>
        <time>2021-08-18T07:56:00Z</time>
      </trkpt>
      <trkpt lat="49.33153" lon="-0.43119">
        <ele>4.5</ele>
        <time>2021-08-18T07:56:02Z</time>
      </trkpt>
      <trkpt lat="49.33143" lon="-0.43134">
        <ele>4.7</ele>
        <time>2021-08-18T07:56:04Z</time>
      </trkpt>
      <trkpt lat="49.33133" lon="-0.43148">
        <ele>4.8</ele>
        <time>2021-08-18T07:56:06Z</time>
      </trkpt>
      <trkpt lat="49.33128" lon="-0.43154">
        <ele>4.9</ele>
        <time>2021-08-18T07:56:07Z</time>
      </trkpt>
      <trkpt lat="49.33117" lon="-0.43165">
        <ele>5.1</ele>
        <time>2021-08-18T07:56:09Z</time>
      </trkpt>
      <trkpt lat="49.33112" lon="-0.4317">
        <ele>5.2</ele>
        <time>2021-08-18T07:56:10Z</time>
      </trkpt>
      <trkpt lat="49.33099" lon="-0.43179">
        <ele>5.3</ele>
        <time>2021-08-18T07:56:12Z</time>
      </trkpt>
      <trkpt lat="49.33087" lon="-0.43187">
        <ele>5.5</ele>
        <time>2021-08-18T07:56:14Z</time>
      </trkpt>
      <trkpt lat="49.33075" lon="-0.43195">
        <ele>5.8</ele>
        <time>2021-08-18T07:56:16Z</time>
      </trkpt>
      <trkpt lat="49.33063" lon="-0.43204">
        <ele>6</ele>
        <time>2021-08-18T07:56:18Z</time>
      </trkpt>
      <trkpt lat="49.33052" lon="-0.43214">
        <ele>6.3</ele>
        <time>2021-08-18T07:56:20Z</time>
      </trkpt>
      <trkpt lat="49.33041" lon="-0.43223">
        <ele>6.5</ele>
        <time>2021-08-18T07:56:22Z</time>
      </trkpt>
      <trkpt lat="49.33035" lon="-0.43228">
        <ele>6.6</ele>
        <time>2021-08-18T07:56:23Z</time>
      </trkpt>
      <trkpt lat="49.33024" lon="-0.43239">
        <ele>6.9</ele>
        <time>2021-08-18T07:56:25Z</time>
      </trkpt>
      <trkpt lat="49.33015" lon="-0.43251">
        <ele>7.2</ele>
        <time>2021-08-18T07:56:27Z</time>
      </trkpt>
      <trkpt lat="49.33005" lon="-0.43263">
        <ele>7.4</ele>
        <time>2021-08-18T07:56:29Z</time>
      </trkpt>
      <trkpt lat="49.32996" lon="-0.43278">
        <ele>7.7</ele>
        <time>2021-08-18T07:56:31Z</time>
      </trkpt>
      <trkpt lat="49.32992" lon="-0.43285">
        <ele>7.8</ele>
        <time>2021-08-18T07:56:32Z</time>
      </trkpt>
      <trkpt lat="49.32988" lon="-0.43293">
        <ele>7.9</ele>
        <time>2021-08-18T07:56:33Z</time>
      </trkpt>
      <trkpt lat="49.3298" lon="-0.43309">
        <ele>8.1</ele>
        <time>2021-08-18T07:56:35Z</time>
      </trkpt>
      <trkpt lat="49.32977" lon="-0.43318">
        <ele>8.2</ele>
        <time>2021-08-18T07:56:36Z</time>
      </trkpt>
      <trkpt lat="49.3297" lon="-0.43334">
        <ele>8.4</ele>
        <time>2021-08-18T07:56:38Z</time>
      </trkpt>
      <trkpt lat="49.32964" lon="-0.43351">
        <ele>8.6</ele>
        <time>2021-08-18T07:56:40Z</time>
      </trkpt>
      <trkpt lat="49.32961" lon="-0.4336">
        <ele>8.6</ele>
        <time>2021-08-18T07:56:41Z</time>
      </trkpt>
      <trkpt lat="49.32959" lon="-0.43369">
        <ele>8.8</ele>
        <time>2021-08-18T07:56:42Z</time>
      </trkpt>
      <trkpt lat="49.32955" lon="-0.43388">
        <ele>8.9</ele>
        <time>2021-08-18T07:56:44Z</time>
      </trkpt>
      <trkpt lat="49.32952" lon="-0.43397">
        <ele>8.9</ele>
        <time>2021-08-18T07:56:45Z</time>
      </trkpt>
      <trkpt lat="49.3295" lon="-0.43417">
        <ele>9</ele>
        <time>2021-08-18T07:56:47Z</time>
      </trkpt>
      <trkpt lat="49.32948" lon="-0.43435">
        <ele>9.1</ele>
        <time>2021-08-18T07:56:49Z</time>
      </trkpt>
      <trkpt lat="49.32947" lon="-0.43445">
        <ele>9.1</ele>
        <time>2021-08-18T07:56:50Z</time>
      </trkpt>
      <trkpt lat="49.32947" lon="-0.43464">
        <ele>9.1</ele>
        <time>2021-08-18T07:56:52Z</time>
      </trkpt>
      <trkpt lat="49.32946" lon="-0.43484">
        <ele>9.2</ele>
        <time>2021-08-18T07:56:54Z</time>
      </trkpt>
      <trkpt lat="49.32947" lon="-0.43503">
        <ele>9.2</ele>
        <time>2021-08-18T07:56:56Z</time>
      </trkpt>
      <trkpt lat="49.32947" lon="-0.43512">
        <ele>9.2</ele>
        <time>2021-08-18T07:56:57Z</time>
      </trkpt>
      <trkpt lat="49.32948" lon="-0.43531">
        <ele>9.3</ele>
        <time>2021-08-18T07:56:59Z</time>
      </trkpt>
      <trkpt lat="49.32949" lon="-0.43551">
        <ele>9.3</ele>
        <time>2021-08-18T07:57:01Z</time>
      </trkpt>
      <trkpt lat="49.3295" lon="-0.4357">
        <ele>9.3</ele>
        <time>2021-08-18T07:57:03Z</time>
      </trkpt>
      <trkpt lat="49.32951" lon="-0.4358">
        <ele>9.3</ele>
        <time>2021-08-18T07:57:04Z</time>
      </trkpt>
      <trkpt lat="49.32952" lon="-0.43599">
        <ele>9.4</ele>
        <time>2021-08-18T07:57:06Z</time>
      </trkpt>
      <trkpt lat="49.32954" lon="-0.43619">
        <ele>9.4</ele>
        <time>2021-08-18T07:57:08Z</time>
      </trkpt>
      <trkpt lat="49.32955" lon="-0.43637">
        <ele>9.4</ele>
        <time>2021-08-18T07:57:10Z</time>
      </trkpt>
      <trkpt lat="49.32956" lon="-0.43656">
        <ele>9.4</ele>
        <time>2021-08-18T07:57:12Z</time>
      </trkpt>
      <trkpt lat="49.32957" lon="-0.43666">
        <ele>9.4</ele>
        <time>2021-08-18T07:57:13Z</time>
      </trkpt>
      <trkpt lat="49.32958" lon="-0.43675">
        <ele>9.4</ele>
        <time>2021-08-18T07:57:14Z</time>
      </trkpt>
      <trkpt lat="49.32959" lon="-0.43694">
        <ele>9.5</ele>
        <time>2021-08-18T07:57:16Z</time>
      </trkpt>
      <trkpt lat="49.32961" lon="-0.43712">
        <ele>9.5</ele>
        <time>2021-08-18T07:57:18Z</time>
      </trkpt>
      <trkpt lat="49.32962" lon="-0.4373">
        <ele>9.5</ele>
        <time>2021-08-18T07:57:20Z</time>
      </trkpt>
      <trkpt lat="49.32962" lon="-0.4374">
        <ele>9.5</ele>
        <time>2021-08-18T07:57:21Z</time>
      </trkpt>
      <trkpt lat="49.32963" lon="-0.43759">
        <ele>9.6</ele>
        <time>2021-08-18T07:57:23Z</time>
      </trkpt>
      <trkpt lat="49.32963" lon="-0.43769">
        <ele>9.6</ele>
        <time>2021-08-18T07:57:24Z</time>
      </trkpt>
      <trkpt lat="49.32965" lon="-0.43788">
        <ele>9.6</ele>
        <time>2021-08-18T07:57:26Z</time>
      </trkpt>
      <trkpt lat="49.32966" lon="-0.43807">
        <ele>9.7</ele>
        <time>2021-08-18T07:57:28Z</time>
      </trkpt>
      <trkpt lat="49.32967" lon="-0.43826">
        <ele>9.7</ele>
        <time>2021-08-18T07:57:30Z</time>
      </trkpt>
      <trkpt lat="49.32968" lon="-0.43845">
        <ele>9.8</ele>
        <time>2021-08-18T07:57:32Z</time>
      </trkpt>
      <trkpt lat="49.32969" lon="-0.43855">
        <ele>9.8</ele>
        <time>2021-08-18T07:57:33Z</time>
      </trkpt>
      <trkpt lat="49.32969" lon="-0.43864">
        <ele>9.8</ele>
        <time>2021-08-18T07:57:34Z</time>
      </trkpt>
      <trkpt lat="49.32971" lon="-0.43882">
        <ele>9.9</ele>
        <time>2021-08-18T07:57:36Z</time>
      </trkpt>
      <trkpt lat="49.32971" lon="-0.43891">
        <ele>9.9</ele>
        <time>2021-08-18T07:57:37Z</time>
      </trkpt>
      <trkpt lat="49.32972" lon="-0.439">
        <ele>10</ele>
        <time>2021-08-18T07:57:38Z</time>
      </trkpt>
      <trkpt lat="49.32973" lon="-0.43919">
        <ele>10</ele>
        <time>2021-08-18T07:57:40Z</time>
      </trkpt>
      <trkpt lat="49.32975" lon="-0.43938">
        <ele>10</ele>
        <time>2021-08-18T07:57:42Z</time>
      </trkpt>
      <trkpt lat="49.32976" lon="-0.43958">
        <ele>10</ele>
        <time>2021-08-18T07:57:44Z</time>
      </trkpt>
      <trkpt lat="49.32978" lon="-0.43978">
        <ele>9.9</ele>
        <time>2021-08-18T07:57:46Z</time>
      </trkpt>
      <trkpt lat="49.3298" lon="-0.43999">
        <ele>9.8</ele>
        <time>2021-08-18T07:57:48Z</time>
      </trkpt>
      <trkpt lat="49.32981" lon="-0.4402">
        <ele>9.8</ele>
        <time>2021-08-18T07:57:50Z</time>
      </trkpt>
      <trkpt lat="49.32983" lon="-0.44041">
        <ele>9.7</ele>
        <time>2021-08-18T07:57:52Z</time>
      </trkpt>
      <trkpt lat="49.32983" lon="-0.44052">
        <ele>9.7</ele>
        <time>2021-08-18T07:57:53Z</time>
      </trkpt>
      <trkpt lat="49.32984" lon="-0.44062">
        <ele>9.7</ele>
        <time>2021-08-18T07:57:54Z</time>
      </trkpt>
      <trkpt lat="49.32985" lon="-0.44084">
        <ele>9.6</ele>
        <time>2021-08-18T07:57:56Z</time>
      </trkpt>
      <trkpt lat="49.32987" lon="-0.44105">
        <ele>9.6</ele>
        <time>2021-08-18T07:57:58Z</time>
      </trkpt>
      <trkpt lat="49.32988" lon="-0.44116">
        <ele>9.6</ele>
        <time>2021-08-18T07:57:59Z</time>
      </trkpt>
      <trkpt lat="49.3299" lon="-0.44137">
        <ele>9.5</ele>
        <time>2021-08-18T07:58:01Z</time>
      </trkpt>
      <trkpt lat="49.32991" lon="-0.44148">
        <ele>9.5</ele>
        <time>2021-08-18T07:58:02Z</time>
      </trkpt>
      <trkpt lat="49.32992" lon="-0.4417">
        <ele>9.5</ele>
        <time>2021-08-18T07:58:04Z</time>
      </trkpt>
      <trkpt lat="49.32994" lon="-0.44191">
        <ele>9.4</ele>
        <time>2021-08-18T07:58:06Z</time>
      </trkpt>
      <trkpt lat="49.32994" lon="-0.44202">
        <ele>9.4</ele>
        <time>2021-08-18T07:58:07Z</time>
      </trkpt>
      <trkpt lat="49.32996" lon="-0.44223">
        <ele>9.4</ele>
        <time>2021-08-18T07:58:09Z</time>
      </trkpt>
      <trkpt lat="49.32997" lon="-0.44243">
        <ele>9.3</ele>
        <time>2021-08-18T07:58:11Z</time>
      </trkpt>
      <trkpt lat="49.32998" lon="-0.44254">
        <ele>9.3</ele>
        <time>2021-08-18T07:58:12Z</time>
      </trkpt>
      <trkpt lat="49.32999" lon="-0.44263">
        <ele>9.4</ele>
        <time>2021-08-18T07:58:13Z</time>
      </trkpt>
      <trkpt lat="49.32999" lon="-0.44273">
        <ele>9.4</ele>
        <time>2021-08-18T07:58:14Z</time>
      </trkpt>
      <trkpt lat="49.33" lon="-0.44283">
        <ele>9.4</ele>
        <time>2021-08-18T07:58:15Z</time>
      </trkpt>
      <trkpt lat="49.33001" lon="-0.44302">
        <ele>9.4</ele>
        <time>2021-08-18T07:58:17Z</time>
      </trkpt>
      <trkpt lat="49.33002" lon="-0.4432">
        <ele>9.3</ele>
        <time>2021-08-18T07:58:19Z</time>
      </trkpt>
      <trkpt lat="49.33003" lon="-0.44338">
        <ele>9.3</ele>
        <time>2021-08-18T07:58:21Z</time>
      </trkpt>
      <trkpt lat="49.33005" lon="-0.44356">
        <ele>9.3</ele>
        <time>2021-08-18T07:58:23Z</time>
      </trkpt>
      <trkpt lat="49.33006" lon="-0.44378">
        <ele>9.2</ele>
        <time>2021-08-18T07:58:25Z</time>
      </trkpt>
      <trkpt lat="49.33007" lon="-0.44402">
        <ele>9.1</ele>
        <time>2021-08-18T07:58:27Z</time>
      </trkpt>
      <trkpt lat="49.33007" lon="-0.44415">
        <ele>9.1</ele>
        <time>2021-08-18T07:58:28Z</time>
      </trkpt>
      <trkpt lat="49.33009" lon="-0.4444">
        <ele>9</ele>
        <time>2021-08-18T07:58:30Z</time>
      </trkpt>
      <trkpt lat="49.33009" lon="-0.44467">
        <ele>8.9</ele>
        <time>2021-08-18T07:58:32Z</time>
      </trkpt>
      <trkpt lat="49.33011" lon="-0.44493">
        <ele>8.8</ele>
        <time>2021-08-18T07:58:34Z</time>
      </trkpt>
      <trkpt lat="49.33014" lon="-0.44519">
        <ele>8.7</ele>
        <time>2021-08-18T07:58:36Z</time>
      </trkpt>
      <trkpt lat="49.33015" lon="-0.44532">
        <ele>8.6</ele>
        <time>2021-08-18T07:58:37Z</time>
      </trkpt>
      <trkpt lat="49.33017" lon="-0.44558">
        <ele>8.6</ele>
        <time>2021-08-18T07:58:39Z</time>
      </trkpt>
      <trkpt lat="49.33017" lon="-0.4457">
        <ele>8.5</ele>
        <time>2021-08-18T07:58:40Z</time>
      </trkpt>
      <trkpt lat="49.33019" lon="-0.44596">
        <ele>8.6</ele>
        <time>2021-08-18T07:58:42Z</time>
      </trkpt>
      <trkpt lat="49.3302" lon="-0.44608">
        <ele>8.6</ele>
        <time>2021-08-18T07:58:43Z</time>
      </trkpt>
      <trkpt lat="49.33021" lon="-0.44621">
        <ele>8.6</ele>
        <time>2021-08-18T07:58:44Z</time>
      </trkpt>
      <trkpt lat="49.33021" lon="-0.44633">
        <ele>8.6</ele>
        <time>2021-08-18T07:58:45Z</time>
      </trkpt>
      <trkpt lat="49.33022" lon="-0.44658">
        <ele>8.7</ele>
        <time>2021-08-18T07:58:47Z</time>
      </trkpt>
      <trkpt lat="49.33022" lon="-0.44671">
        <ele>8.7</ele>
        <time>2021-08-18T07:58:48Z</time>
      </trkpt>
      <trkpt lat="49.33023" lon="-0.44695">
        <ele>8.8</ele>
        <time>2021-08-18T07:58:50Z</time>
      </trkpt>
      <trkpt lat="49.33024" lon="-0.44707">
        <ele>8.8</ele>
        <time>2021-08-18T07:58:51Z</time>
      </trkpt>
      <trkpt lat="49.33025" lon="-0.44719">
        <ele>8.8</ele>
        <time>2021-08-18T07:58:52Z</time>
      </trkpt>
      <trkpt lat="49.33026" lon="-0.44731">
        <ele>8.8</ele>
        <time>2021-08-18T07:58:53Z</time>
      </trkpt>
      <trkpt lat="49.33028" lon="-0.44753">
        <ele>8.9</ele>
        <time>2021-08-18T07:58:55Z</time>
      </trkpt>
      <trkpt lat="49.33029" lon="-0.44764">
        <ele>8.9</ele>
        <time>2021-08-18T07:58:56Z</time>
      </trkpt>
      <trkpt lat="49.33031" lon="-0.44786">
        <ele>8.8</ele>
        <time>2021-08-18T07:58:58Z</time>
      </trkpt>
      <trkpt lat="49.33034" lon="-0.44808">
        <ele>8.6</ele>
        <time>2021-08-18T07:59:00Z</time>
      </trkpt>
      <trkpt lat="49.33035" lon="-0.44829">
        <ele>8.5</ele>
        <time>2021-08-18T07:59:02Z</time>
      </trkpt>
      <trkpt lat="49.33036" lon="-0.4484">
        <ele>8.4</ele>
        <time>2021-08-18T07:59:03Z</time>
      </trkpt>
      <trkpt lat="49.33038" lon="-0.44859">
        <ele>8.3</ele>
        <time>2021-08-18T07:59:05Z</time>
      </trkpt>
      <trkpt lat="49.33039" lon="-0.44878">
        <ele>8.3</ele>
        <time>2021-08-18T07:59:07Z</time>
      </trkpt>
      <trkpt lat="49.33041" lon="-0.44896">
        <ele>8.2</ele>
        <time>2021-08-18T07:59:09Z</time>
      </trkpt>
      <trkpt lat="49.33041" lon="-0.44914">
        <ele>8.1</ele>
        <time>2021-08-18T07:59:11Z</time>
      </trkpt>
      <trkpt lat="49.33042" lon="-0.44923">
        <ele>8.1</ele>
        <time>2021-08-18T07:59:12Z</time>
      </trkpt>
      <trkpt lat="49.33042" lon="-0.44932">
        <ele>8.1</ele>
        <time>2021-08-18T07:59:13Z</time>
      </trkpt>
      <trkpt lat="49.33042" lon="-0.44942">
        <ele>8</ele>
        <time>2021-08-18T07:59:14Z</time>
      </trkpt>
      <trkpt lat="49.33042" lon="-0.44961">
        <ele>8</ele>
        <time>2021-08-18T07:59:16Z</time>
      </trkpt>
      <trkpt lat="49.33041" lon="-0.4497">
        <ele>8</ele>
        <time>2021-08-18T07:59:17Z</time>
      </trkpt>
      <trkpt lat="49.33039" lon="-0.44987">
        <ele>8</ele>
        <time>2021-08-18T07:59:19Z</time>
      </trkpt>
      <trkpt lat="49.33037" lon="-0.44996">
        <ele>8</ele>
        <time>2021-08-18T07:59:20Z</time>
      </trkpt>
      <trkpt lat="49.33032" lon="-0.45012">
        <ele>8</ele>
        <time>2021-08-18T07:59:22Z</time>
      </trkpt>
      <trkpt lat="49.3303" lon="-0.45021">
        <ele>8</ele>
        <time>2021-08-18T07:59:23Z</time>
      </trkpt>
      <trkpt lat="49.33025" lon="-0.45038">
        <ele>7.9</ele>
        <time>2021-08-18T07:59:25Z</time>
      </trkpt>
      <trkpt lat="49.33021" lon="-0.45055">
        <ele>7.9</ele>
        <time>2021-08-18T07:59:27Z</time>
      </trkpt>
      <trkpt lat="49.33019" lon="-0.45064">
        <ele>7.9</ele>
        <time>2021-08-18T07:59:28Z</time>
      </trkpt>
      <trkpt lat="49.33016" lon="-0.45073">
        <ele>7.9</ele>
        <time>2021-08-18T07:59:29Z</time>
      </trkpt>
      <trkpt lat="49.33013" lon="-0.45081">
        <ele>7.9</ele>
        <time>2021-08-18T07:59:30Z</time>
      </trkpt>
      <trkpt lat="49.33008" lon="-0.45099">
        <ele>7.8</ele>
        <time>2021-08-18T07:59:32Z</time>
      </trkpt>
      <trkpt lat="49.33005" lon="-0.45117">
        <ele>7.8</ele>
        <time>2021-08-18T07:59:34Z</time>
      </trkpt>
      <trkpt lat="49.33004" lon="-0.45126">
        <ele>7.8</ele>
        <time>2021-08-18T07:59:35Z</time>
      </trkpt>
      <trkpt lat="49.33003" lon="-0.45145">
        <ele>7.7</ele>
        <time>2021-08-18T07:59:37Z</time>
      </trkpt>
      <trkpt lat="49.33003" lon="-0.45154">
        <ele>7.7</ele>
        <time>2021-08-18T07:59:38Z</time>
      </trkpt>
      <trkpt lat="49.33003" lon="-0.45163">
        <ele>7.7</ele>
        <time>2021-08-18T07:59:39Z</time>
      </trkpt>
      <trkpt lat="49.33002" lon="-0.45181">
        <ele>7.6</ele>
        <time>2021-08-18T07:59:41Z</time>
      </trkpt>
      <trkpt lat="49.33" lon="-0.45196">
        <ele>7.6</ele>
        <time>2021-08-18T07:59:43Z</time>
      </trkpt>
      <trkpt lat="49.33" lon="-0.45211">
        <ele>7.5</ele>
        <time>2021-08-18T07:59:45Z</time>
      </trkpt>
      <trkpt lat="49.33" lon="-0.45222">
        <ele>7.5</ele>
        <time>2021-08-18T07:59:47Z</time>
      </trkpt>
      <trkpt lat="49.32998" lon="-0.45233">
        <ele>7.4</ele>
        <time>2021-08-18T07:59:49Z</time>
      </trkpt>
      <trkpt lat="49.32998" lon="-0.45238">
        <ele>7.4</ele>
        <time>2021-08-18T07:59:50Z</time>
      </trkpt>
      <trkpt lat="49.32999" lon="-0.45245">
        <ele>7.4</ele>
        <time>2021-08-18T07:59:52Z</time>
      </trkpt>
      <trkpt lat="49.32999" lon="-0.45254">
        <ele>7.3</ele>
        <time>2021-08-18T07:59:54Z</time>
      </trkpt>
      <trkpt lat="49.32999" lon="-0.45258">
        <ele>7.3</ele>
        <time>2021-08-18T07:59:55Z</time>
      </trkpt>
      <trkpt lat="49.32999" lon="-0.45271">
        <ele>7.2</ele>
        <time>2021-08-18T07:59:57Z</time>
      </trkpt>
      <trkpt lat="49.32999" lon="-0.4528">
        <ele>7.1</ele>
        <time>2021-08-18T07:59:58Z</time>
      </trkpt>
      <trkpt lat="49.33004" lon="-0.45301">
        <ele>6.9</ele>
        <time>2021-08-18T08:00:00Z</time>
      </trkpt>
      <trkpt lat="49.33006" lon="-0.45313">
        <ele>6.7</ele>
        <time>2021-08-18T08:00:01Z</time>
      </trkpt>
      <trkpt lat="49.33007" lon="-0.45324">
        <ele>6.6</ele>
        <time>2021-08-18T08:00:02Z</time>
      </trkpt>
      <trkpt lat="49.33009" lon="-0.45347">
        <ele>6.3</ele>
        <time>2021-08-18T08:00:04Z</time>
      </trkpt>
      <trkpt lat="49.33009" lon="-0.45358">
        <ele>6.2</ele>
        <time>2021-08-18T08:00:05Z</time>
      </trkpt>
      <trkpt lat="49.33008" lon="-0.45382">
        <ele>5.9</ele>
        <time>2021-08-18T08:00:07Z</time>
      </trkpt>
      <trkpt lat="49.33007" lon="-0.45407">
        <ele>5.7</ele>
        <time>2021-08-18T08:00:09Z</time>
      </trkpt>
      <trkpt lat="49.33007" lon="-0.45419">
        <ele>5.6</ele>
        <time>2021-08-18T08:00:10Z</time>
      </trkpt>
      <trkpt lat="49.33007" lon="-0.45431">
        <ele>5.5</ele>
        <time>2021-08-18T08:00:11Z</time>
      </trkpt>
      <trkpt lat="49.33007" lon="-0.45442">
        <ele>5.4</ele>
        <time>2021-08-18T08:00:12Z</time>
      </trkpt>
      <trkpt lat="49.33007" lon="-0.45459">
        <ele>5.2</ele>
        <time>2021-08-18T08:00:14Z</time>
      </trkpt>
      <trkpt lat="49.3301" lon="-0.45472">
        <ele>5.2</ele>
        <time>2021-08-18T08:00:16Z</time>
      </trkpt>
      <trkpt lat="49.33013" lon="-0.45488">
        <ele>5</ele>
        <time>2021-08-18T08:00:18Z</time>
      </trkpt>
      <trkpt lat="49.33016" lon="-0.45503">
        <ele>5</ele>
        <time>2021-08-18T08:00:20Z</time>
      </trkpt>
      <trkpt lat="49.33016" lon="-0.45509">
        <ele>5</ele>
        <time>2021-08-18T08:00:21Z</time>
      </trkpt>
      <trkpt lat="49.33016" lon="-0.45524">
        <ele>4.9</ele>
        <time>2021-08-18T08:00:23Z</time>
      </trkpt>
      <trkpt lat="49.33016" lon="-0.45537">
        <ele>5</ele>
        <time>2021-08-18T08:00:25Z</time>
      </trkpt>
      <trkpt lat="49.33015" lon="-0.45542">
        <ele>5</ele>
        <time>2021-08-18T08:00:26Z</time>
      </trkpt>
      <trkpt lat="49.3301" lon="-0.45563">
        <ele>5.1</ele>
        <time>2021-08-18T08:00:28Z</time>
      </trkpt>
      <trkpt lat="49.33007" lon="-0.45574">
        <ele>5.2</ele>
        <time>2021-08-18T08:00:29Z</time>
      </trkpt>
      <trkpt lat="49.33003" lon="-0.45595">
        <ele>5.5</ele>
        <time>2021-08-18T08:00:31Z</time>
      </trkpt>
      <trkpt lat="49.32999" lon="-0.45616">
        <ele>5.8</ele>
        <time>2021-08-18T08:00:33Z</time>
      </trkpt>
      <trkpt lat="49.32994" lon="-0.45631">
        <ele>6.1</ele>
        <time>2021-08-18T08:00:35Z</time>
      </trkpt>
      <trkpt lat="49.32992" lon="-0.45646">
        <ele>6.5</ele>
        <time>2021-08-18T08:00:37Z</time>
      </trkpt>
      <trkpt lat="49.32993" lon="-0.45663">
        <ele>6.8</ele>
        <time>2021-08-18T08:00:39Z</time>
      </trkpt>
      <trkpt lat="49.32996" lon="-0.4567">
        <ele>7</ele>
        <time>2021-08-18T08:00:40Z</time>
      </trkpt>
      <trkpt lat="49.33" lon="-0.45675">
        <ele>7</ele>
        <time>2021-08-18T08:00:41Z</time>
      </trkpt>
      <trkpt lat="49.33011" lon="-0.45686">
        <ele>7.1</ele>
        <time>2021-08-18T08:00:43Z</time>
      </trkpt>
      <trkpt lat="49.33017" lon="-0.45693">
        <ele>7.1</ele>
        <time>2021-08-18T08:00:44Z</time>
      </trkpt>
      <trkpt lat="49.33028" lon="-0.45705">
        <ele>7.1</ele>
        <time>2021-08-18T08:00:46Z</time>
      </trkpt>
      <trkpt lat="49.33034" lon="-0.4571">
        <ele>7.1</ele>
        <time>2021-08-18T08:00:47Z</time>
      </trkpt>
      <trkpt lat="49.33046" lon="-0.45723">
        <ele>6.9</ele>
        <time>2021-08-18T08:00:49Z</time>
      </trkpt>
      <trkpt lat="49.33053" lon="-0.45729">
        <ele>6.8</ele>
        <time>2021-08-18T08:00:50Z</time>
      </trkpt>
      <trkpt lat="49.33065" lon="-0.45738">
        <ele>6.6</ele>
        <time>2021-08-18T08:00:52Z</time>
      </trkpt>
      <trkpt lat="49.33072" lon="-0.4575">
        <ele>6.4</ele>
        <time>2021-08-18T08:00:54Z</time>
      </trkpt>
      <trkpt lat="49.33074" lon="-0.4576">
        <ele>6.2</ele>
        <time>2021-08-18T08:00:55Z</time>
      </trkpt>
      <trkpt lat="49.33076" lon="-0.45768">
        <ele>6.1</ele>
        <time>2021-08-18T08:00:56Z</time>
      </trkpt>
      <trkpt lat="49.33079" lon="-0.45775">
        <ele>6</ele>
        <time>2021-08-18T08:00:57Z</time>
      </trkpt>
      <trkpt lat="49.33083" lon="-0.45784">
        <ele>5.8</ele>
        <time>2021-08-18T08:00:59Z</time>
      </trkpt>
      <trkpt lat="49.33085" lon="-0.45788">
        <ele>5.7</ele>
        <time>2021-08-18T08:01:00Z</time>
      </trkpt>
      <trkpt lat="49.33091" lon="-0.45792">
        <ele>5.6</ele>
        <time>2021-08-18T08:01:02Z</time>
      </trkpt>
      <trkpt lat="49.33097" lon="-0.45792">
        <ele>5.5</ele>
        <time>2021-08-18T08:01:04Z</time>
      </trkpt>
      <trkpt lat="49.33103" lon="-0.45794">
        <ele>5.3</ele>
        <time>2021-08-18T08:01:05Z</time>
      </trkpt>
      <trkpt lat="49.3311" lon="-0.45795">
        <ele>5.2</ele>
        <time>2021-08-18T08:01:07Z</time>
      </trkpt>
      <trkpt lat="49.3312" lon="-0.45795">
        <ele>5</ele>
        <time>2021-08-18T08:01:09Z</time>
      </trkpt>
      <trkpt lat="49.33126" lon="-0.45795">
        <ele>4.9</ele>
        <time>2021-08-18T08:01:10Z</time>
      </trkpt>
      <trkpt lat="49.33141" lon="-0.45793">
        <ele>4.7</ele>
        <time>2021-08-18T08:01:12Z</time>
      </trkpt>
      <trkpt lat="49.33155" lon="-0.45792">
        <ele>4.4</ele>
        <time>2021-08-18T08:01:14Z</time>
      </trkpt>
      <trkpt lat="49.33163" lon="-0.45792">
        <ele>4.3</ele>
        <time>2021-08-18T08:01:15Z</time>
      </trkpt>
      <trkpt lat="49.33179" lon="-0.4579">
        <ele>4.2</ele>
        <time>2021-08-18T08:01:17Z</time>
      </trkpt>
      <trkpt lat="49.33195" lon="-0.45789">
        <ele>4.1</ele>
        <time>2021-08-18T08:01:19Z</time>
      </trkpt>
      <trkpt lat="49.33202" lon="-0.45789">
        <ele>4.1</ele>
        <time>2021-08-18T08:01:20Z</time>
      </trkpt>
      <trkpt lat="49.33207" lon="-0.45789">
        <ele>4.1</ele>
        <time>2021-08-18T08:01:22Z</time>
      </trkpt>
      <trkpt lat="49.3321" lon="-0.45791">
        <ele>4.1</ele>
        <time>2021-08-18T08:01:23Z</time>
      </trkpt>
      <trkpt lat="49.33215" lon="-0.45793">
        <ele>4.1</ele>
        <time>2021-08-18T08:01:25Z</time>
      </trkpt>
      <trkpt lat="49.33219" lon="-0.45793">
        <ele>4.1</ele>
        <time>2021-08-18T08:01:27Z</time>
      </trkpt>
      <trkpt lat="49.33225" lon="-0.45792">
        <ele>4.1</ele>
        <time>2021-08-18T08:01:29Z</time>
      </trkpt>
      <trkpt lat="49.33233" lon="-0.45793">
        <ele>4.1</ele>
        <time>2021-08-18T08:01:31Z</time>
      </trkpt>
      <trkpt lat="49.33238" lon="-0.45793">
        <ele>4.1</ele>
        <time>2021-08-18T08:01:32Z</time>
      </trkpt>
      <trkpt lat="49.33243" lon="-0.45793">
        <ele>4.1</ele>
        <time>2021-08-18T08:01:33Z</time>
      </trkpt>
      <trkpt lat="49.33247" lon="-0.45793">
        <ele>4.1</ele>
        <time>2021-08-18T08:01:34Z</time>
      </trkpt>
      <trkpt lat="49.33257" lon="-0.45793">
        <ele>4.1</ele>
        <time>2021-08-18T08:01:36Z</time>
      </trkpt>
      <trkpt lat="49.33264" lon="-0.45793">
        <ele>4.1</ele>
        <time>2021-08-18T08:01:37Z</time>
      </trkpt>
      <trkpt lat="49.33279" lon="-0.45793">
        <ele>4.1</ele>
        <time>2021-08-18T08:01:39Z</time>
      </trkpt>
      <trkpt lat="49.33293" lon="-0.45791">
        <ele>4.1</ele>
        <time>2021-08-18T08:01:41Z</time>
      </trkpt>
      <trkpt lat="49.33306" lon="-0.45789">
        <ele>4.1</ele>
        <time>2021-08-18T08:01:43Z</time>
      </trkpt>
      <trkpt lat="49.33319" lon="-0.45788">
        <ele>4.1</ele>
        <time>2021-08-18T08:01:45Z</time>
      </trkpt>
      <trkpt lat="49.33327" lon="-0.45787">
        <ele>4.1</ele>
        <time>2021-08-18T08:01:46Z</time>
      </trkpt>
      <trkpt lat="49.33334" lon="-0.45786">
        <ele>4.1</ele>
        <time>2021-08-18T08:01:47Z</time>
      </trkpt>
      <trkpt lat="49.33351" lon="-0.45784">
        <ele>4.1</ele>
        <time>2021-08-18T08:01:49Z</time>
      </trkpt>
      <trkpt lat="49.33367" lon="-0.45783">
        <ele>4.1</ele>
        <time>2021-08-18T08:01:51Z</time>
      </trkpt>
      <trkpt lat="49.33383" lon="-0.45783">
        <ele>4.1</ele>
        <time>2021-08-18T08:01:53Z</time>
      </trkpt>
      <trkpt lat="49.33395" lon="-0.45781">
        <ele>4.1</ele>
        <time>2021-08-18T08:01:55Z</time>
      </trkpt>
      <trkpt lat="49.33402" lon="-0.45787">
        <ele>4.2</ele>
        <time>2021-08-18T08:01:57Z</time>
      </trkpt>
      <trkpt lat="49.33404" lon="-0.45794">
        <ele>4.2</ele>
        <time>2021-08-18T08:01:58Z</time>
      </trkpt>
      <trkpt lat="49.33408" lon="-0.45806">
        <ele>4.2</ele>
        <time>2021-08-18T08:02:00Z</time>
      </trkpt>
      <trkpt lat="49.33409" lon="-0.45821">
        <ele>4.2</ele>
        <time>2021-08-18T08:02:02Z</time>
      </trkpt>
      <trkpt lat="49.33408" lon="-0.4583">
        <ele>4.2</ele>
        <time>2021-08-18T08:02:03Z</time>
      </trkpt>
      <trkpt lat="49.33405" lon="-0.4585">
        <ele>4.3</ele>
        <time>2021-08-18T08:02:05Z</time>
      </trkpt>
      <trkpt lat="49.33402" lon="-0.4586">
        <ele>4.3</ele>
        <time>2021-08-18T08:02:06Z</time>
      </trkpt>
      <trkpt lat="49.33398" lon="-0.4587">
        <ele>4.4</ele>
        <time>2021-08-18T08:02:07Z</time>
      </trkpt>
      <trkpt lat="49.33392" lon="-0.45891">
        <ele>4.4</ele>
        <time>2021-08-18T08:02:09Z</time>
      </trkpt>
      <trkpt lat="49.33389" lon="-0.45901">
        <ele>4.5</ele>
        <time>2021-08-18T08:02:10Z</time>
      </trkpt>
      <trkpt lat="49.33376" lon="-0.45912">
        <ele>4.5</ele>
        <time>2021-08-18T08:02:12Z</time>
      </trkpt>
      <trkpt lat="49.33363" lon="-0.45924">
        <ele>4.6</ele>
        <time>2021-08-18T08:02:14Z</time>
      </trkpt>
      <trkpt lat="49.33355" lon="-0.4593">
        <ele>4.6</ele>
        <time>2021-08-18T08:02:15Z</time>
      </trkpt>
      <trkpt lat="49.33348" lon="-0.45937">
        <ele>4.7</ele>
        <time>2021-08-18T08:02:16Z</time>
      </trkpt>
      <trkpt lat="49.33336" lon="-0.45955">
        <ele>4.6</ele>
        <time>2021-08-18T08:02:18Z</time>
      </trkpt>
      <trkpt lat="49.33328" lon="-0.45976">
        <ele>4.6</ele>
        <time>2021-08-18T08:02:20Z</time>
      </trkpt>
      <trkpt lat="49.33322" lon="-0.45999">
        <ele>4.5</ele>
        <time>2021-08-18T08:02:22Z</time>
      </trkpt>
      <trkpt lat="49.3332" lon="-0.46024">
        <ele>4.5</ele>
        <time>2021-08-18T08:02:24Z</time>
      </trkpt>
      <trkpt lat="49.3332" lon="-0.46036">
        <ele>4.6</ele>
        <time>2021-08-18T08:02:25Z</time>
      </trkpt>
      <trkpt lat="49.3332" lon="-0.46049">
        <ele>4.6</ele>
        <time>2021-08-18T08:02:26Z</time>
      </trkpt>
      <trkpt lat="49.33325" lon="-0.46071">
        <ele>4.6</ele>
        <time>2021-08-18T08:02:28Z</time>
      </trkpt>
      <trkpt lat="49.33333" lon="-0.4609">
        <ele>4.6</ele>
        <time>2021-08-18T08:02:30Z</time>
      </trkpt>
      <trkpt lat="49.33342" lon="-0.46106">
        <ele>4.6</ele>
        <time>2021-08-18T08:02:32Z</time>
      </trkpt>
      <trkpt lat="49.33348" lon="-0.46123">
        <ele>4.5</ele>
        <time>2021-08-18T08:02:34Z</time>
      </trkpt>
      <trkpt lat="49.33352" lon="-0.46134">
        <ele>4.4</ele>
        <time>2021-08-18T08:02:35Z</time>
      </trkpt>
      <trkpt lat="49.33359" lon="-0.46153">
        <ele>4.5</ele>
        <time>2021-08-18T08:02:37Z</time>
      </trkpt>
      <trkpt lat="49.33363" lon="-0.46161">
        <ele>4.6</ele>
        <time>2021-08-18T08:02:38Z</time>
      </trkpt>
      <trkpt lat="49.33373" lon="-0.46175">
        <ele>4.6</ele>
        <time>2021-08-18T08:02:40Z</time>
      </trkpt>
      <trkpt lat="49.33378" lon="-0.46182">
        <ele>4.6</ele>
        <time>2021-08-18T08:02:41Z</time>
      </trkpt>
      <trkpt lat="49.33389" lon="-0.46196">
        <ele>4.6</ele>
        <time>2021-08-18T08:02:43Z</time>
      </trkpt>
      <trkpt lat="49.33396" lon="-0.46203">
        <ele>4.5</ele>
        <time>2021-08-18T08:02:44Z</time>
      </trkpt>
      <trkpt lat="49.33403" lon="-0.46211">
        <ele>4.6</ele>
        <time>2021-08-18T08:02:45Z</time>
      </trkpt>
      <trkpt lat="49.33409" lon="-0.46218">
        <ele>4.6</ele>
        <time>2021-08-18T08:02:46Z</time>
      </trkpt>
      <trkpt lat="49.33423" lon="-0.46227">
        <ele>4.5</ele>
        <time>2021-08-18T08:02:48Z</time>
      </trkpt>
      <trkpt lat="49.33437" lon="-0.46235">
        <ele>4.5</ele>
        <time>2021-08-18T08:02:50Z</time>
      </trkpt>
      <trkpt lat="49.33451" lon="-0.46248">
        <ele>4.4</ele>
        <time>2021-08-18T08:02:52Z</time>
      </trkpt>
      <trkpt lat="49.33457" lon="-0.46257">
        <ele>4.4</ele>
        <time>2021-08-18T08:02:53Z</time>
      </trkpt>
      <trkpt lat="49.33466" lon="-0.46275">
        <ele>4.4</ele>
        <time>2021-08-18T08:02:55Z</time>
      </trkpt>
      <trkpt lat="49.33469" lon="-0.46286">
        <ele>4.4</ele>
        <time>2021-08-18T08:02:56Z</time>
      </trkpt>
      <trkpt lat="49.33472" lon="-0.46311">
        <ele>4.3</ele>
        <time>2021-08-18T08:02:58Z</time>
      </trkpt>
      <trkpt lat="49.33472" lon="-0.46324">
        <ele>4.3</ele>
        <time>2021-08-18T08:02:59Z</time>
      </trkpt>
      <trkpt lat="49.33473" lon="-0.46337">
        <ele>4.2</ele>
        <time>2021-08-18T08:03:00Z</time>
      </trkpt>
      <trkpt lat="49.33473" lon="-0.46364">
        <ele>4.1</ele>
        <time>2021-08-18T08:03:02Z</time>
      </trkpt>
      <trkpt lat="49.33473" lon="-0.46376">
        <ele>4.1</ele>
        <time>2021-08-18T08:03:03Z</time>
      </trkpt>
      <trkpt lat="49.33473" lon="-0.46401">
        <ele>4</ele>
        <time>2021-08-18T08:03:05Z</time>
      </trkpt>
      <trkpt lat="49.33473" lon="-0.46426">
        <ele>4</ele>
        <time>2021-08-18T08:03:07Z</time>
      </trkpt>
      <trkpt lat="49.33474" lon="-0.46452">
        <ele>3.9</ele>
        <time>2021-08-18T08:03:09Z</time>
      </trkpt>
      <trkpt lat="49.33474" lon="-0.46477">
        <ele>3.9</ele>
        <time>2021-08-18T08:03:11Z</time>
      </trkpt>
      <trkpt lat="49.33475" lon="-0.46502">
        <ele>3.8</ele>
        <time>2021-08-18T08:03:13Z</time>
      </trkpt>
      <trkpt lat="49.33475" lon="-0.46514">
        <ele>3.8</ele>
        <time>2021-08-18T08:03:14Z</time>
      </trkpt>
      <trkpt lat="49.33476" lon="-0.46526">
        <ele>3.8</ele>
        <time>2021-08-18T08:03:15Z</time>
      </trkpt>
      <trkpt lat="49.33476" lon="-0.46549">
        <ele>3.8</ele>
        <time>2021-08-18T08:03:17Z</time>
      </trkpt>
      <trkpt lat="49.33477" lon="-0.46573">
        <ele>3.8</ele>
        <time>2021-08-18T08:03:19Z</time>
      </trkpt>
      <trkpt lat="49.33477" lon="-0.46584">
        <ele>3.8</ele>
        <time>2021-08-18T08:03:20Z</time>
      </trkpt>
      <trkpt lat="49.33477" lon="-0.46596">
        <ele>3.8</ele>
        <time>2021-08-18T08:03:21Z</time>
      </trkpt>
      <trkpt lat="49.33477" lon="-0.46619">
        <ele>3.9</ele>
        <time>2021-08-18T08:03:23Z</time>
      </trkpt>
      <trkpt lat="49.33477" lon="-0.46641">
        <ele>3.9</ele>
        <time>2021-08-18T08:03:25Z</time>
      </trkpt>
      <trkpt lat="49.33477" lon="-0.46653">
        <ele>4</ele>
        <time>2021-08-18T08:03:26Z</time>
      </trkpt>
      <trkpt lat="49.33477" lon="-0.46664">
        <ele>4</ele>
        <time>2021-08-18T08:03:27Z</time>
      </trkpt>
      <trkpt lat="49.33478" lon="-0.46687">
        <ele>4.1</ele>
        <time>2021-08-18T08:03:29Z</time>
      </trkpt>
      <trkpt lat="49.33479" lon="-0.46709">
        <ele>4.1</ele>
        <time>2021-08-18T08:03:31Z</time>
      </trkpt>
      <trkpt lat="49.3348" lon="-0.46732">
        <ele>4.3</ele>
        <time>2021-08-18T08:03:33Z</time>
      </trkpt>
      <trkpt lat="49.33481" lon="-0.46753">
        <ele>4.4</ele>
        <time>2021-08-18T08:03:35Z</time>
      </trkpt>
      <trkpt lat="49.33483" lon="-0.46773">
        <ele>4.5</ele>
        <time>2021-08-18T08:03:37Z</time>
      </trkpt>
      <trkpt lat="49.33483" lon="-0.46792">
        <ele>4.5</ele>
        <time>2021-08-18T08:03:39Z</time>
      </trkpt>
      <trkpt lat="49.33483" lon="-0.46803">
        <ele>4.5</ele>
        <time>2021-08-18T08:03:40Z</time>
      </trkpt>
      <trkpt lat="49.33484" lon="-0.46823">
        <ele>4.5</ele>
        <time>2021-08-18T08:03:42Z</time>
      </trkpt>
      <trkpt lat="49.33484" lon="-0.46834">
        <ele>4.4</ele>
        <time>2021-08-18T08:03:43Z</time>
      </trkpt>
      <trkpt lat="49.33484" lon="-0.46845">
        <ele>4.4</ele>
        <time>2021-08-18T08:03:44Z</time>
      </trkpt>
      <trkpt lat="49.33484" lon="-0.46868">
        <ele>4.2</ele>
        <time>2021-08-18T08:03:46Z</time>
      </trkpt>
      <trkpt lat="49.33485" lon="-0.4689">
        <ele>4.1</ele>
        <time>2021-08-18T08:03:48Z</time>
      </trkpt>
      <trkpt lat="49.33486" lon="-0.46903">
        <ele>4.1</ele>
        <time>2021-08-18T08:03:49Z</time>
      </trkpt>
      <trkpt lat="49.33486" lon="-0.46914">
        <ele>4</ele>
        <time>2021-08-18T08:03:50Z</time>
      </trkpt>
      <trkpt lat="49.33487" lon="-0.46926">
        <ele>4</ele>
        <time>2021-08-18T08:03:51Z</time>
      </trkpt>
      <trkpt lat="49.33488" lon="-0.46949">
        <ele>3.8</ele>
        <time>2021-08-18T08:03:53Z</time>
      </trkpt>
      <trkpt lat="49.33488" lon="-0.46961">
        <ele>3.8</ele>
        <time>2021-08-18T08:03:54Z</time>
      </trkpt>
      <trkpt lat="49.33489" lon="-0.46983">
        <ele>3.7</ele>
        <time>2021-08-18T08:03:56Z</time>
      </trkpt>
      <trkpt lat="49.3349" lon="-0.46994">
        <ele>3.7</ele>
        <time>2021-08-18T08:03:57Z</time>
      </trkpt>
      <trkpt lat="49.33491" lon="-0.47015">
        <ele>3.6</ele>
        <time>2021-08-18T08:03:59Z</time>
      </trkpt>
      <trkpt lat="49.33491" lon="-0.47024">
        <ele>3.5</ele>
        <time>2021-08-18T08:04:00Z</time>
      </trkpt>
      <trkpt lat="49.33493" lon="-0.47042">
        <ele>3.5</ele>
        <time>2021-08-18T08:04:02Z</time>
      </trkpt>
      <trkpt lat="49.33495" lon="-0.47048">
        <ele>3.4</ele>
        <time>2021-08-18T08:04:03Z</time>
      </trkpt>
      <trkpt lat="49.33498" lon="-0.47056">
        <ele>3.4</ele>
        <time>2021-08-18T08:04:05Z</time>
      </trkpt>
      <trkpt lat="49.33499" lon="-0.47062">
        <ele>3.3</ele>
        <time>2021-08-18T08:04:06Z</time>
      </trkpt>
      <trkpt lat="49.335" lon="-0.47074">
        <ele>3.3</ele>
        <time>2021-08-18T08:04:08Z</time>
      </trkpt>
      <trkpt lat="49.33502" lon="-0.47085">
        <ele>3.3</ele>
        <time>2021-08-18T08:04:10Z</time>
      </trkpt>
      <trkpt lat="49.33503" lon="-0.47089">
        <ele>3.2</ele>
        <time>2021-08-18T08:04:11Z</time>
      </trkpt>
      <trkpt lat="49.33506" lon="-0.47099">
        <ele>3.2</ele>
        <time>2021-08-18T08:04:13Z</time>
      </trkpt>
      <trkpt lat="49.33508" lon="-0.47104">
        <ele>3.1</ele>
        <time>2021-08-18T08:04:14Z</time>
      </trkpt>
      <trkpt lat="49.33513" lon="-0.47118">
        <ele>3</ele>
        <time>2021-08-18T08:04:16Z</time>
      </trkpt>
      <trkpt lat="49.33515" lon="-0.47124">
        <ele>2.9</ele>
        <time>2021-08-18T08:04:17Z</time>
      </trkpt>
      <trkpt lat="49.33516" lon="-0.47126">
        <ele>2.9</ele>
        <time>2021-08-18T08:04:18Z</time>
      </trkpt>
      <trkpt lat="49.3352" lon="-0.47137">
        <ele>2.8</ele>
        <time>2021-08-18T08:04:20Z</time>
      </trkpt>
      <trkpt lat="49.33523" lon="-0.47148">
        <ele>2.7</ele>
        <time>2021-08-18T08:04:22Z</time>
      </trkpt>
      <trkpt lat="49.33526" lon="-0.47159">
        <ele>2.7</ele>
        <time>2021-08-18T08:04:24Z</time>
      </trkpt>
      <trkpt lat="49.3353" lon="-0.47172">
        <ele>2.6</ele>
        <time>2021-08-18T08:04:26Z</time>
      </trkpt>
      <trkpt lat="49.33533" lon="-0.4718">
        <ele>2.6</ele>
        <time>2021-08-18T08:04:27Z</time>
      </trkpt>
      <trkpt lat="49.33536" lon="-0.4719">
        <ele>2.5</ele>
        <time>2021-08-18T08:04:28Z</time>
      </trkpt>
      <trkpt lat="49.33541" lon="-0.47208">
        <ele>2.5</ele>
        <time>2021-08-18T08:04:30Z</time>
      </trkpt>
      <trkpt lat="49.33544" lon="-0.47218">
        <ele>2.4</ele>
        <time>2021-08-18T08:04:31Z</time>
      </trkpt>
      <trkpt lat="49.33551" lon="-0.47236">
        <ele>2.4</ele>
        <time>2021-08-18T08:04:33Z</time>
      </trkpt>
      <trkpt lat="49.33554" lon="-0.47245">
        <ele>2.4</ele>
        <time>2021-08-18T08:04:34Z</time>
      </trkpt>
      <trkpt lat="49.33559" lon="-0.47265">
        <ele>2.4</ele>
        <time>2021-08-18T08:04:36Z</time>
      </trkpt>
      <trkpt lat="49.33561" lon="-0.47275">
        <ele>2.4</ele>
        <time>2021-08-18T08:04:37Z</time>
      </trkpt>
      <trkpt lat="49.33567" lon="-0.47297">
        <ele>2.4</ele>
        <time>2021-08-18T08:04:39Z</time>
      </trkpt>
      <trkpt lat="49.33574" lon="-0.47319">
        <ele>2.3</ele>
        <time>2021-08-18T08:04:41Z</time>
      </trkpt>
      <trkpt lat="49.33581" lon="-0.47342">
        <ele>2.4</ele>
        <time>2021-08-18T08:04:43Z</time>
      </trkpt>
      <trkpt lat="49.33585" lon="-0.47353">
        <ele>2.4</ele>
        <time>2021-08-18T08:04:44Z</time>
      </trkpt>
      <trkpt lat="49.33588" lon="-0.47365">
        <ele>2.4</ele>
        <time>2021-08-18T08:04:45Z</time>
      </trkpt>
      <trkpt lat="49.33595" lon="-0.47387">
        <ele>2.5</ele>
        <time>2021-08-18T08:04:47Z</time>
      </trkpt>
      <trkpt lat="49.33598" lon="-0.47399">
        <ele>2.5</ele>
        <time>2021-08-18T08:04:48Z</time>
      </trkpt>
      <trkpt lat="49.33601" lon="-0.4741">
        <ele>2.5</ele>
        <time>2021-08-18T08:04:49Z</time>
      </trkpt>
      <trkpt lat="49.33608" lon="-0.47433">
        <ele>2.6</ele>
        <time>2021-08-18T08:04:51Z</time>
      </trkpt>
      <trkpt lat="49.33611" lon="-0.47444">
        <ele>2.6</ele>
        <time>2021-08-18T08:04:52Z</time>
      </trkpt>
      <trkpt lat="49.33614" lon="-0.47456">
        <ele>2.6</ele>
        <time>2021-08-18T08:04:53Z</time>
      </trkpt>
      <trkpt lat="49.33621" lon="-0.47477">
        <ele>2.6</ele>
        <time>2021-08-18T08:04:55Z</time>
      </trkpt>
      <trkpt lat="49.33624" lon="-0.47488">
        <ele>2.6</ele>
        <time>2021-08-18T08:04:56Z</time>
      </trkpt>
      <trkpt lat="49.33627" lon="-0.47499">
        <ele>2.7</ele>
        <time>2021-08-18T08:04:57Z</time>
      </trkpt>
      <trkpt lat="49.33633" lon="-0.4752">
        <ele>2.7</ele>
        <time>2021-08-18T08:04:59Z</time>
      </trkpt>
      <trkpt lat="49.33637" lon="-0.47531">
        <ele>2.7</ele>
        <time>2021-08-18T08:05:00Z</time>
      </trkpt>
      <trkpt lat="49.33643" lon="-0.47551">
        <ele>2.8</ele>
        <time>2021-08-18T08:05:02Z</time>
      </trkpt>
      <trkpt lat="49.33646" lon="-0.47561">
        <ele>2.8</ele>
        <time>2021-08-18T08:05:03Z</time>
      </trkpt>
      <trkpt lat="49.33653" lon="-0.47581">
        <ele>2.8</ele>
        <time>2021-08-18T08:05:05Z</time>
      </trkpt>
      <trkpt lat="49.33658" lon="-0.47602">
        <ele>2.7</ele>
        <time>2021-08-18T08:05:07Z</time>
      </trkpt>
      <trkpt lat="49.33664" lon="-0.47623">
        <ele>2.7</ele>
        <time>2021-08-18T08:05:09Z</time>
      </trkpt>
      <trkpt lat="49.3367" lon="-0.47645">
        <ele>2.7</ele>
        <time>2021-08-18T08:05:11Z</time>
      </trkpt>
      <trkpt lat="49.33673" lon="-0.47656">
        <ele>2.7</ele>
        <time>2021-08-18T08:05:12Z</time>
      </trkpt>
      <trkpt lat="49.33676" lon="-0.47667">
        <ele>2.7</ele>
        <time>2021-08-18T08:05:13Z</time>
      </trkpt>
      <trkpt lat="49.33681" lon="-0.47689">
        <ele>2.8</ele>
        <time>2021-08-18T08:05:15Z</time>
      </trkpt>
      <trkpt lat="49.33684" lon="-0.477">
        <ele>2.8</ele>
        <time>2021-08-18T08:05:16Z</time>
      </trkpt>
      <trkpt lat="49.33689" lon="-0.47721">
        <ele>2.8</ele>
        <time>2021-08-18T08:05:18Z</time>
      </trkpt>
      <trkpt lat="49.33692" lon="-0.47731">
        <ele>2.9</ele>
        <time>2021-08-18T08:05:19Z</time>
      </trkpt>
      <trkpt lat="49.33699" lon="-0.47752">
        <ele>2.9</ele>
        <time>2021-08-18T08:05:21Z</time>
      </trkpt>
      <trkpt lat="49.33702" lon="-0.47763">
        <ele>3</ele>
        <time>2021-08-18T08:05:22Z</time>
      </trkpt>
      <trkpt lat="49.33705" lon="-0.47774">
        <ele>3</ele>
        <time>2021-08-18T08:05:23Z</time>
      </trkpt>
      <trkpt lat="49.33712" lon="-0.47795">
        <ele>2.9</ele>
        <time>2021-08-18T08:05:25Z</time>
      </trkpt>
      <trkpt lat="49.33718" lon="-0.47817">
        <ele>2.9</ele>
        <time>2021-08-18T08:05:27Z</time>
      </trkpt>
      <trkpt lat="49.33721" lon="-0.47827">
        <ele>2.8</ele>
        <time>2021-08-18T08:05:28Z</time>
      </trkpt>
      <trkpt lat="49.33726" lon="-0.47848">
        <ele>2.7</ele>
        <time>2021-08-18T08:05:30Z</time>
      </trkpt>
      <trkpt lat="49.33729" lon="-0.47859">
        <ele>2.7</ele>
        <time>2021-08-18T08:05:31Z</time>
      </trkpt>
      <trkpt lat="49.33734" lon="-0.4788">
        <ele>2.6</ele>
        <time>2021-08-18T08:05:33Z</time>
      </trkpt>
      <trkpt lat="49.33737" lon="-0.47891">
        <ele>2.6</ele>
        <time>2021-08-18T08:05:34Z</time>
      </trkpt>
      <trkpt lat="49.33743" lon="-0.47912">
        <ele>2.6</ele>
        <time>2021-08-18T08:05:36Z</time>
      </trkpt>
      <trkpt lat="49.33748" lon="-0.47934">
        <ele>2.6</ele>
        <time>2021-08-18T08:05:38Z</time>
      </trkpt>
      <trkpt lat="49.33751" lon="-0.47945">
        <ele>2.7</ele>
        <time>2021-08-18T08:05:39Z</time>
      </trkpt>
      <trkpt lat="49.33757" lon="-0.47966">
        <ele>2.7</ele>
        <time>2021-08-18T08:05:41Z</time>
      </trkpt>
      <trkpt lat="49.33763" lon="-0.47988">
        <ele>2.7</ele>
        <time>2021-08-18T08:05:43Z</time>
      </trkpt>
      <trkpt lat="49.33769" lon="-0.4801">
        <ele>2.7</ele>
        <time>2021-08-18T08:05:45Z</time>
      </trkpt>
      <trkpt lat="49.33776" lon="-0.48032">
        <ele>2.7</ele>
        <time>2021-08-18T08:05:47Z</time>
      </trkpt>
      <trkpt lat="49.33779" lon="-0.48043">
        <ele>2.8</ele>
        <time>2021-08-18T08:05:48Z</time>
      </trkpt>
      <trkpt lat="49.33785" lon="-0.48065">
        <ele>2.8</ele>
        <time>2021-08-18T08:05:50Z</time>
      </trkpt>
      <trkpt lat="49.33788" lon="-0.48076">
        <ele>2.8</ele>
        <time>2021-08-18T08:05:51Z</time>
      </trkpt>
      <trkpt lat="49.33794" lon="-0.48098">
        <ele>2.9</ele>
        <time>2021-08-18T08:05:53Z</time>
      </trkpt>
      <trkpt lat="49.33797" lon="-0.48109">
        <ele>2.9</ele>
        <time>2021-08-18T08:05:54Z</time>
      </trkpt>
      <trkpt lat="49.33804" lon="-0.4813">
        <ele>2.9</ele>
        <time>2021-08-18T08:05:56Z</time>
      </trkpt>
      <trkpt lat="49.33807" lon="-0.48141">
        <ele>2.9</ele>
        <time>2021-08-18T08:05:57Z</time>
      </trkpt>
      <trkpt lat="49.3381" lon="-0.48152">
        <ele>2.9</ele>
        <time>2021-08-18T08:05:58Z</time>
      </trkpt>
      <trkpt lat="49.33816" lon="-0.48174">
        <ele>2.9</ele>
        <time>2021-08-18T08:06:00Z</time>
      </trkpt>
      <trkpt lat="49.33819" lon="-0.48185">
        <ele>2.9</ele>
        <time>2021-08-18T08:06:01Z</time>
      </trkpt>
      <trkpt lat="49.33826" lon="-0.48207">
        <ele>2.8</ele>
        <time>2021-08-18T08:06:03Z</time>
      </trkpt>
      <trkpt lat="49.33832" lon="-0.48228">
        <ele>2.8</ele>
        <time>2021-08-18T08:06:05Z</time>
      </trkpt>
      <trkpt lat="49.33834" lon="-0.48239">
        <ele>2.8</ele>
        <time>2021-08-18T08:06:06Z</time>
      </trkpt>
      <trkpt lat="49.33841" lon="-0.48261">
        <ele>2.8</ele>
        <time>2021-08-18T08:06:08Z</time>
      </trkpt>
      <trkpt lat="49.33844" lon="-0.48272">
        <ele>2.8</ele>
        <time>2021-08-18T08:06:09Z</time>
      </trkpt>
      <trkpt lat="49.33847" lon="-0.48283">
        <ele>2.7</ele>
        <time>2021-08-18T08:06:10Z</time>
      </trkpt>
      <trkpt lat="49.33853" lon="-0.48305">
        <ele>2.7</ele>
        <time>2021-08-18T08:06:12Z</time>
      </trkpt>
      <trkpt lat="49.33858" lon="-0.48325">
        <ele>2.8</ele>
        <time>2021-08-18T08:06:14Z</time>
      </trkpt>
      <trkpt lat="49.33861" lon="-0.48336">
        <ele>2.8</ele>
        <time>2021-08-18T08:06:15Z</time>
      </trkpt>
      <trkpt lat="49.33867" lon="-0.48356">
        <ele>2.8</ele>
        <time>2021-08-18T08:06:17Z</time>
      </trkpt>
      <trkpt lat="49.33872" lon="-0.48376">
        <ele>2.7</ele>
        <time>2021-08-18T08:06:19Z</time>
      </trkpt>
      <trkpt lat="49.33875" lon="-0.48386">
        <ele>2.7</ele>
        <time>2021-08-18T08:06:20Z</time>
      </trkpt>
      <trkpt lat="49.3388" lon="-0.48406">
        <ele>2.7</ele>
        <time>2021-08-18T08:06:22Z</time>
      </trkpt>
      <trkpt lat="49.33883" lon="-0.48417">
        <ele>2.7</ele>
        <time>2021-08-18T08:06:23Z</time>
      </trkpt>
      <trkpt lat="49.33886" lon="-0.48427">
        <ele>2.7</ele>
        <time>2021-08-18T08:06:24Z</time>
      </trkpt>
      <trkpt lat="49.33891" lon="-0.48447">
        <ele>2.8</ele>
        <time>2021-08-18T08:06:26Z</time>
      </trkpt>
      <trkpt lat="49.33894" lon="-0.48458">
        <ele>2.8</ele>
        <time>2021-08-18T08:06:27Z</time>
      </trkpt>
      <trkpt lat="49.33899" lon="-0.48479">
        <ele>2.8</ele>
        <time>2021-08-18T08:06:29Z</time>
      </trkpt>
      <trkpt lat="49.33904" lon="-0.48499">
        <ele>2.8</ele>
        <time>2021-08-18T08:06:31Z</time>
      </trkpt>
      <trkpt lat="49.3391" lon="-0.48519">
        <ele>2.8</ele>
        <time>2021-08-18T08:06:33Z</time>
      </trkpt>
      <trkpt lat="49.33916" lon="-0.4854">
        <ele>2.8</ele>
        <time>2021-08-18T08:06:35Z</time>
      </trkpt>
      <trkpt lat="49.33919" lon="-0.4855">
        <ele>2.8</ele>
        <time>2021-08-18T08:06:36Z</time>
      </trkpt>
      <trkpt lat="49.33925" lon="-0.4857">
        <ele>2.9</ele>
        <time>2021-08-18T08:06:38Z</time>
      </trkpt>
      <trkpt lat="49.33928" lon="-0.48581">
        <ele>2.9</ele>
        <time>2021-08-18T08:06:39Z</time>
      </trkpt>
      <trkpt lat="49.3393" lon="-0.48591">
        <ele>2.9</ele>
        <time>2021-08-18T08:06:40Z</time>
      </trkpt>
      <trkpt lat="49.33933" lon="-0.48601">
        <ele>2.9</ele>
        <time>2021-08-18T08:06:41Z</time>
      </trkpt>
      <trkpt lat="49.33938" lon="-0.48621">
        <ele>2.8</ele>
        <time>2021-08-18T08:06:43Z</time>
      </trkpt>
      <trkpt lat="49.33941" lon="-0.48631">
        <ele>2.8</ele>
        <time>2021-08-18T08:06:44Z</time>
      </trkpt>
      <trkpt lat="49.33946" lon="-0.48651">
        <ele>2.8</ele>
        <time>2021-08-18T08:06:46Z</time>
      </trkpt>
      <trkpt lat="49.3395" lon="-0.48672">
        <ele>2.8</ele>
        <time>2021-08-18T08:06:48Z</time>
      </trkpt>
      <trkpt lat="49.33954" lon="-0.48693">
        <ele>2.8</ele>
        <time>2021-08-18T08:06:50Z</time>
      </trkpt>
      <trkpt lat="49.33956" lon="-0.48704">
        <ele>2.8</ele>
        <time>2021-08-18T08:06:51Z</time>
      </trkpt>
      <trkpt lat="49.3396" lon="-0.48725">
        <ele>2.8</ele>
        <time>2021-08-18T08:06:53Z</time>
      </trkpt>
      <trkpt lat="49.33965" lon="-0.48747">
        <ele>2.8</ele>
        <time>2021-08-18T08:06:55Z</time>
      </trkpt>
      <trkpt lat="49.33969" lon="-0.48768">
        <ele>2.8</ele>
        <time>2021-08-18T08:06:57Z</time>
      </trkpt>
      <trkpt lat="49.33971" lon="-0.48779">
        <ele>2.8</ele>
        <time>2021-08-18T08:06:58Z</time>
      </trkpt>
      <trkpt lat="49.33973" lon="-0.4879">
        <ele>2.8</ele>
        <time>2021-08-18T08:06:59Z</time>
      </trkpt>
      <trkpt lat="49.33978" lon="-0.48812">
        <ele>2.9</ele>
        <time>2021-08-18T08:07:01Z</time>
      </trkpt>
      <trkpt lat="49.33982" lon="-0.48833">
        <ele>2.8</ele>
        <time>2021-08-18T08:07:03Z</time>
      </trkpt>
      <trkpt lat="49.33986" lon="-0.48854">
        <ele>2.8</ele>
        <time>2021-08-18T08:07:05Z</time>
      </trkpt>
      <trkpt lat="49.3399" lon="-0.48875">
        <ele>2.8</ele>
        <time>2021-08-18T08:07:07Z</time>
      </trkpt>
      <trkpt lat="49.33995" lon="-0.48896">
        <ele>2.8</ele>
        <time>2021-08-18T08:07:09Z</time>
      </trkpt>
      <trkpt lat="49.33997" lon="-0.48907">
        <ele>2.8</ele>
        <time>2021-08-18T08:07:10Z</time>
      </trkpt>
      <trkpt lat="49.34002" lon="-0.48929">
        <ele>2.9</ele>
        <time>2021-08-18T08:07:12Z</time>
      </trkpt>
      <trkpt lat="49.34007" lon="-0.48952">
        <ele>2.9</ele>
        <time>2021-08-18T08:07:14Z</time>
      </trkpt>
      <trkpt lat="49.34011" lon="-0.48974">
        <ele>2.8</ele>
        <time>2021-08-18T08:07:16Z</time>
      </trkpt>
      <trkpt lat="49.34013" lon="-0.48985">
        <ele>2.8</ele>
        <time>2021-08-18T08:07:17Z</time>
      </trkpt>
      <trkpt lat="49.34017" lon="-0.49007">
        <ele>2.8</ele>
        <time>2021-08-18T08:07:19Z</time>
      </trkpt>
      <trkpt lat="49.34022" lon="-0.4903">
        <ele>2.8</ele>
        <time>2021-08-18T08:07:21Z</time>
      </trkpt>
      <trkpt lat="49.34024" lon="-0.49041">
        <ele>2.8</ele>
        <time>2021-08-18T08:07:22Z</time>
      </trkpt>
      <trkpt lat="49.34026" lon="-0.49052">
        <ele>2.8</ele>
        <time>2021-08-18T08:07:23Z</time>
      </trkpt>
      <trkpt lat="49.34031" lon="-0.49074">
        <ele>2.9</ele>
        <time>2021-08-18T08:07:25Z</time>
      </trkpt>
      <trkpt lat="49.34033" lon="-0.49085">
        <ele>2.9</ele>
        <time>2021-08-18T08:07:26Z</time>
      </trkpt>
      <trkpt lat="49.34038" lon="-0.49107">
        <ele>3</ele>
        <time>2021-08-18T08:07:28Z</time>
      </trkpt>
      <trkpt lat="49.3404" lon="-0.49118">
        <ele>3</ele>
        <time>2021-08-18T08:07:29Z</time>
      </trkpt>
      <trkpt lat="49.34045" lon="-0.4914">
        <ele>3</ele>
        <time>2021-08-18T08:07:31Z</time>
      </trkpt>
      <trkpt lat="49.3405" lon="-0.49162">
        <ele>3</ele>
        <time>2021-08-18T08:07:33Z</time>
      </trkpt>
      <trkpt lat="49.34052" lon="-0.49173">
        <ele>3</ele>
        <time>2021-08-18T08:07:34Z</time>
      </trkpt>
      <trkpt lat="49.34057" lon="-0.49195">
        <ele>2.9</ele>
        <time>2021-08-18T08:07:36Z</time>
      </trkpt>
      <trkpt lat="49.34059" lon="-0.49206">
        <ele>2.9</ele>
        <time>2021-08-18T08:07:37Z</time>
      </trkpt>
      <trkpt lat="49.34063" lon="-0.49228">
        <ele>2.9</ele>
        <time>2021-08-18T08:07:39Z</time>
      </trkpt>
      <trkpt lat="49.34066" lon="-0.49239">
        <ele>2.9</ele>
        <time>2021-08-18T08:07:40Z</time>
      </trkpt>
      <trkpt lat="49.34068" lon="-0.4925">
        <ele>2.9</ele>
        <time>2021-08-18T08:07:41Z</time>
      </trkpt>
      <trkpt lat="49.34069" lon="-0.49261">
        <ele>2.9</ele>
        <time>2021-08-18T08:07:42Z</time>
      </trkpt>
      <trkpt lat="49.34073" lon="-0.49283">
        <ele>2.9</ele>
        <time>2021-08-18T08:07:44Z</time>
      </trkpt>
      <trkpt lat="49.34076" lon="-0.49294">
        <ele>2.9</ele>
        <time>2021-08-18T08:07:45Z</time>
      </trkpt>
      <trkpt lat="49.3408" lon="-0.49316">
        <ele>2.9</ele>
        <time>2021-08-18T08:07:47Z</time>
      </trkpt>
      <trkpt lat="49.34084" lon="-0.49338">
        <ele>2.9</ele>
        <time>2021-08-18T08:07:49Z</time>
      </trkpt>
      <trkpt lat="49.34086" lon="-0.49349">
        <ele>2.9</ele>
        <time>2021-08-18T08:07:50Z</time>
      </trkpt>
      <trkpt lat="49.34089" lon="-0.49372">
        <ele>3</ele>
        <time>2021-08-18T08:07:52Z</time>
      </trkpt>
      <trkpt lat="49.34093" lon="-0.49394">
        <ele>3</ele>
        <time>2021-08-18T08:07:54Z</time>
      </trkpt>
      <trkpt lat="49.34095" lon="-0.49405">
        <ele>3</ele>
        <time>2021-08-18T08:07:55Z</time>
      </trkpt>
      <trkpt lat="49.34098" lon="-0.49428">
        <ele>2.9</ele>
        <time>2021-08-18T08:07:57Z</time>
      </trkpt>
      <trkpt lat="49.341" lon="-0.49439">
        <ele>2.9</ele>
        <time>2021-08-18T08:07:58Z</time>
      </trkpt>
      <trkpt lat="49.34104" lon="-0.49462">
        <ele>3</ele>
        <time>2021-08-18T08:08:00Z</time>
      </trkpt>
      <trkpt lat="49.34108" lon="-0.49485">
        <ele>3</ele>
        <time>2021-08-18T08:08:02Z</time>
      </trkpt>
      <trkpt lat="49.34113" lon="-0.49507">
        <ele>3.1</ele>
        <time>2021-08-18T08:08:04Z</time>
      </trkpt>
      <trkpt lat="49.34115" lon="-0.49518">
        <ele>3.1</ele>
        <time>2021-08-18T08:08:05Z</time>
      </trkpt>
      <trkpt lat="49.34117" lon="-0.49529">
        <ele>3.1</ele>
        <time>2021-08-18T08:08:06Z</time>
      </trkpt>
      <trkpt lat="49.3412" lon="-0.4954">
        <ele>3.1</ele>
        <time>2021-08-18T08:08:07Z</time>
      </trkpt>
      <trkpt lat="49.34124" lon="-0.49563">
        <ele>3.1</ele>
        <time>2021-08-18T08:08:09Z</time>
      </trkpt>
      <trkpt lat="49.34125" lon="-0.49574">
        <ele>3.1</ele>
        <time>2021-08-18T08:08:10Z</time>
      </trkpt>
      <trkpt lat="49.34127" lon="-0.49585">
        <ele>3.1</ele>
        <time>2021-08-18T08:08:11Z</time>
      </trkpt>
      <trkpt lat="49.34129" lon="-0.49596">
        <ele>3.1</ele>
        <time>2021-08-18T08:08:12Z</time>
      </trkpt>
      <trkpt lat="49.34132" lon="-0.49618">
        <ele>3.1</ele>
        <time>2021-08-18T08:08:14Z</time>
      </trkpt>
      <trkpt lat="49.34134" lon="-0.49629">
        <ele>3.1</ele>
        <time>2021-08-18T08:08:15Z</time>
      </trkpt>
      <trkpt lat="49.34137" lon="-0.49652">
        <ele>3.2</ele>
        <time>2021-08-18T08:08:17Z</time>
      </trkpt>
      <trkpt lat="49.34139" lon="-0.49664">
        <ele>3.2</ele>
        <time>2021-08-18T08:08:18Z</time>
      </trkpt>
      <trkpt lat="49.34142" lon="-0.49687">
        <ele>3.2</ele>
        <time>2021-08-18T08:08:20Z</time>
      </trkpt>
      <trkpt lat="49.34144" lon="-0.49699">
        <ele>3.1</ele>
        <time>2021-08-18T08:08:21Z</time>
      </trkpt>
      <trkpt lat="49.34147" lon="-0.49723">
        <ele>3.1</ele>
        <time>2021-08-18T08:08:23Z</time>
      </trkpt>
      <trkpt lat="49.34148" lon="-0.49735">
        <ele>3.1</ele>
        <time>2021-08-18T08:08:24Z</time>
      </trkpt>
      <trkpt lat="49.34149" lon="-0.49746">
        <ele>3.1</ele>
        <time>2021-08-18T08:08:25Z</time>
      </trkpt>
      <trkpt lat="49.34152" lon="-0.49769">
        <ele>3.1</ele>
        <time>2021-08-18T08:08:27Z</time>
      </trkpt>
      <trkpt lat="49.34154" lon="-0.4978">
        <ele>3.1</ele>
        <time>2021-08-18T08:08:28Z</time>
      </trkpt>
      <trkpt lat="49.34156" lon="-0.49791">
        <ele>3.1</ele>
        <time>2021-08-18T08:08:29Z</time>
      </trkpt>
      <trkpt lat="49.3416" lon="-0.49814">
        <ele>3.1</ele>
        <time>2021-08-18T08:08:31Z</time>
      </trkpt>
      <trkpt lat="49.34162" lon="-0.49826">
        <ele>3</ele>
        <time>2021-08-18T08:08:32Z</time>
      </trkpt>
      <trkpt lat="49.34165" lon="-0.49848">
        <ele>3</ele>
        <time>2021-08-18T08:08:34Z</time>
      </trkpt>
      <trkpt lat="49.34169" lon="-0.49871">
        <ele>3.1</ele>
        <time>2021-08-18T08:08:36Z</time>
      </trkpt>
      <trkpt lat="49.34171" lon="-0.49882">
        <ele>3.1</ele>
        <time>2021-08-18T08:08:37Z</time>
      </trkpt>
      <trkpt lat="49.34175" lon="-0.49906">
        <ele>3.1</ele>
        <time>2021-08-18T08:08:39Z</time>
      </trkpt>
      <trkpt lat="49.34178" lon="-0.4993">
        <ele>3.1</ele>
        <time>2021-08-18T08:08:41Z</time>
      </trkpt>
      <trkpt lat="49.3418" lon="-0.49942">
        <ele>3.1</ele>
        <time>2021-08-18T08:08:42Z</time>
      </trkpt>
      <trkpt lat="49.34184" lon="-0.49965">
        <ele>3.1</ele>
        <time>2021-08-18T08:08:44Z</time>
      </trkpt>
      <trkpt lat="49.34187" lon="-0.49989">
        <ele>3.1</ele>
        <time>2021-08-18T08:08:46Z</time>
      </trkpt>
      <trkpt lat="49.34189" lon="-0.5">
        <ele>3.1</ele>
        <time>2021-08-18T08:08:47Z</time>
      </trkpt>
      <trkpt lat="49.34192" lon="-0.50024">
        <ele>3.1</ele>
        <time>2021-08-18T08:08:49Z</time>
      </trkpt>
      <trkpt lat="49.34194" lon="-0.50036">
        <ele>3.1</ele>
        <time>2021-08-18T08:08:50Z</time>
      </trkpt>
      <trkpt lat="49.34197" lon="-0.50059">
        <ele>3.1</ele>
        <time>2021-08-18T08:08:52Z</time>
      </trkpt>
      <trkpt lat="49.34199" lon="-0.50071">
        <ele>3.1</ele>
        <time>2021-08-18T08:08:53Z</time>
      </trkpt>
      <trkpt lat="49.34201" lon="-0.50083">
        <ele>3.1</ele>
        <time>2021-08-18T08:08:54Z</time>
      </trkpt>
      <trkpt lat="49.34203" lon="-0.50106">
        <ele>3.1</ele>
        <time>2021-08-18T08:08:56Z</time>
      </trkpt>
      <trkpt lat="49.34205" lon="-0.50119">
        <ele>3.2</ele>
        <time>2021-08-18T08:08:57Z</time>
      </trkpt>
      <trkpt lat="49.34208" lon="-0.50143">
        <ele>3.2</ele>
        <time>2021-08-18T08:08:59Z</time>
      </trkpt>
      <trkpt lat="49.3421" lon="-0.50154">
        <ele>3.2</ele>
        <time>2021-08-18T08:09:00Z</time>
      </trkpt>
      <trkpt lat="49.34213" lon="-0.50177">
        <ele>3.2</ele>
        <time>2021-08-18T08:09:02Z</time>
      </trkpt>
      <trkpt lat="49.34214" lon="-0.50189">
        <ele>3.2</ele>
        <time>2021-08-18T08:09:03Z</time>
      </trkpt>
      <trkpt lat="49.34215" lon="-0.502">
        <ele>3.3</ele>
        <time>2021-08-18T08:09:04Z</time>
      </trkpt>
      <trkpt lat="49.34216" lon="-0.50212">
        <ele>3.3</ele>
        <time>2021-08-18T08:09:05Z</time>
      </trkpt>
      <trkpt lat="49.34218" lon="-0.50223">
        <ele>3.3</ele>
        <time>2021-08-18T08:09:06Z</time>
      </trkpt>
      <trkpt lat="49.34219" lon="-0.50234">
        <ele>3.3</ele>
        <time>2021-08-18T08:09:07Z</time>
      </trkpt>
      <trkpt lat="49.34221" lon="-0.50257">
        <ele>3.3</ele>
        <time>2021-08-18T08:09:09Z</time>
      </trkpt>
      <trkpt lat="49.34222" lon="-0.50269">
        <ele>3.4</ele>
        <time>2021-08-18T08:09:10Z</time>
      </trkpt>
      <trkpt lat="49.34224" lon="-0.50291">
        <ele>3.4</ele>
        <time>2021-08-18T08:09:12Z</time>
      </trkpt>
      <trkpt lat="49.34226" lon="-0.50302">
        <ele>3.4</ele>
        <time>2021-08-18T08:09:13Z</time>
      </trkpt>
      <trkpt lat="49.34227" lon="-0.50313">
        <ele>3.4</ele>
        <time>2021-08-18T08:09:14Z</time>
      </trkpt>
      <trkpt lat="49.34229" lon="-0.50336">
        <ele>3.4</ele>
        <time>2021-08-18T08:09:16Z</time>
      </trkpt>
      <trkpt lat="49.3423" lon="-0.50347">
        <ele>3.4</ele>
        <time>2021-08-18T08:09:17Z</time>
      </trkpt>
      <trkpt lat="49.34232" lon="-0.50369">
        <ele>3.4</ele>
        <time>2021-08-18T08:09:19Z</time>
      </trkpt>
      <trkpt lat="49.34233" lon="-0.50381">
        <ele>3.4</ele>
        <time>2021-08-18T08:09:20Z</time>
      </trkpt>
      <trkpt lat="49.34234" lon="-0.50392">
        <ele>3.4</ele>
        <time>2021-08-18T08:09:21Z</time>
      </trkpt>
      <trkpt lat="49.34236" lon="-0.50414">
        <ele>3.4</ele>
        <time>2021-08-18T08:09:23Z</time>
      </trkpt>
      <trkpt lat="49.34237" lon="-0.50436">
        <ele>3.5</ele>
        <time>2021-08-18T08:09:25Z</time>
      </trkpt>
      <trkpt lat="49.34238" lon="-0.50448">
        <ele>3.5</ele>
        <time>2021-08-18T08:09:26Z</time>
      </trkpt>
      <trkpt lat="49.34239" lon="-0.50459">
        <ele>3.6</ele>
        <time>2021-08-18T08:09:27Z</time>
      </trkpt>
      <trkpt lat="49.34241" lon="-0.5047">
        <ele>3.6</ele>
        <time>2021-08-18T08:09:28Z</time>
      </trkpt>
      <trkpt lat="49.34243" lon="-0.50492">
        <ele>3.6</ele>
        <time>2021-08-18T08:09:30Z</time>
      </trkpt>
      <trkpt lat="49.34245" lon="-0.50514">
        <ele>3.7</ele>
        <time>2021-08-18T08:09:32Z</time>
      </trkpt>
      <trkpt lat="49.34245" lon="-0.50525">
        <ele>3.7</ele>
        <time>2021-08-18T08:09:33Z</time>
      </trkpt>
      <trkpt lat="49.34247" lon="-0.50546">
        <ele>3.8</ele>
        <time>2021-08-18T08:09:35Z</time>
      </trkpt>
      <trkpt lat="49.34248" lon="-0.50556">
        <ele>3.8</ele>
        <time>2021-08-18T08:09:36Z</time>
      </trkpt>
      <trkpt lat="49.3425" lon="-0.50576">
        <ele>3.8</ele>
        <time>2021-08-18T08:09:38Z</time>
      </trkpt>
      <trkpt lat="49.34251" lon="-0.50599">
        <ele>3.7</ele>
        <time>2021-08-18T08:09:40Z</time>
      </trkpt>
      <trkpt lat="49.34253" lon="-0.50616">
        <ele>3.8</ele>
        <time>2021-08-18T08:09:42Z</time>
      </trkpt>
      <trkpt lat="49.34255" lon="-0.50634">
        <ele>3.8</ele>
        <time>2021-08-18T08:09:44Z</time>
      </trkpt>
      <trkpt lat="49.34256" lon="-0.50652">
        <ele>3.9</ele>
        <time>2021-08-18T08:09:46Z</time>
      </trkpt>
      <trkpt lat="49.34257" lon="-0.50662">
        <ele>3.9</ele>
        <time>2021-08-18T08:09:47Z</time>
      </trkpt>
      <trkpt lat="49.34258" lon="-0.50678">
        <ele>4</ele>
        <time>2021-08-18T08:09:49Z</time>
      </trkpt>
      <trkpt lat="49.34259" lon="-0.50687">
        <ele>4.1</ele>
        <time>2021-08-18T08:09:50Z</time>
      </trkpt>
      <trkpt lat="49.34261" lon="-0.50704">
        <ele>4.1</ele>
        <time>2021-08-18T08:09:52Z</time>
      </trkpt>
      <trkpt lat="49.34262" lon="-0.50719">
        <ele>4.2</ele>
        <time>2021-08-18T08:09:54Z</time>
      </trkpt>
      <trkpt lat="49.34263" lon="-0.50728">
        <ele>4.2</ele>
        <time>2021-08-18T08:09:55Z</time>
      </trkpt>
      <trkpt lat="49.34265" lon="-0.50744">
        <ele>4.2</ele>
        <time>2021-08-18T08:09:57Z</time>
      </trkpt>
      <trkpt lat="49.34265" lon="-0.5076">
        <ele>4.2</ele>
        <time>2021-08-18T08:09:59Z</time>
      </trkpt>
      <trkpt lat="49.34266" lon="-0.50768">
        <ele>4.2</ele>
        <time>2021-08-18T08:10:00Z</time>
      </trkpt>
      <trkpt lat="49.34266" lon="-0.50777">
        <ele>4.2</ele>
        <time>2021-08-18T08:10:01Z</time>
      </trkpt>
      <trkpt lat="49.34267" lon="-0.50793">
        <ele>4.3</ele>
        <time>2021-08-18T08:10:03Z</time>
      </trkpt>
      <trkpt lat="49.34267" lon="-0.50811">
        <ele>4.3</ele>
        <time>2021-08-18T08:10:05Z</time>
      </trkpt>
      <trkpt lat="49.34268" lon="-0.5082">
        <ele>4.3</ele>
        <time>2021-08-18T08:10:06Z</time>
      </trkpt>
      <trkpt lat="49.34269" lon="-0.50837">
        <ele>4.3</ele>
        <time>2021-08-18T08:10:08Z</time>
      </trkpt>
      <trkpt lat="49.34271" lon="-0.50846">
        <ele>4.3</ele>
        <time>2021-08-18T08:10:09Z</time>
      </trkpt>
      <trkpt lat="49.34272" lon="-0.50865">
        <ele>4.4</ele>
        <time>2021-08-18T08:10:11Z</time>
      </trkpt>
      <trkpt lat="49.34272" lon="-0.50875">
        <ele>4.4</ele>
        <time>2021-08-18T08:10:12Z</time>
      </trkpt>
      <trkpt lat="49.34275" lon="-0.50893">
        <ele>4.4</ele>
        <time>2021-08-18T08:10:14Z</time>
      </trkpt>
      <trkpt lat="49.34276" lon="-0.50912">
        <ele>4.4</ele>
        <time>2021-08-18T08:10:16Z</time>
      </trkpt>
      <trkpt lat="49.34277" lon="-0.50931">
        <ele>4.4</ele>
        <time>2021-08-18T08:10:18Z</time>
      </trkpt>
      <trkpt lat="49.34278" lon="-0.5094">
        <ele>4.4</ele>
        <time>2021-08-18T08:10:19Z</time>
      </trkpt>
      <trkpt lat="49.34281" lon="-0.50959">
        <ele>4.4</ele>
        <time>2021-08-18T08:10:21Z</time>
      </trkpt>
      <trkpt lat="49.34283" lon="-0.50978">
        <ele>4.4</ele>
        <time>2021-08-18T08:10:23Z</time>
      </trkpt>
      <trkpt lat="49.34284" lon="-0.50997">
        <ele>4.4</ele>
        <time>2021-08-18T08:10:25Z</time>
      </trkpt>
      <trkpt lat="49.34285" lon="-0.51007">
        <ele>4.4</ele>
        <time>2021-08-18T08:10:26Z</time>
      </trkpt>
      <trkpt lat="49.34286" lon="-0.51025">
        <ele>4.4</ele>
        <time>2021-08-18T08:10:28Z</time>
      </trkpt>
      <trkpt lat="49.34287" lon="-0.51043">
        <ele>4.4</ele>
        <time>2021-08-18T08:10:30Z</time>
      </trkpt>
      <trkpt lat="49.34287" lon="-0.51052">
        <ele>4.3</ele>
        <time>2021-08-18T08:10:31Z</time>
      </trkpt>
      <trkpt lat="49.34289" lon="-0.51069">
        <ele>4.3</ele>
        <time>2021-08-18T08:10:33Z</time>
      </trkpt>
      <trkpt lat="49.3429" lon="-0.51078">
        <ele>4.3</ele>
        <time>2021-08-18T08:10:34Z</time>
      </trkpt>
      <trkpt lat="49.34292" lon="-0.51096">
        <ele>4.3</ele>
        <time>2021-08-18T08:10:36Z</time>
      </trkpt>
      <trkpt lat="49.34292" lon="-0.51104">
        <ele>4.3</ele>
        <time>2021-08-18T08:10:37Z</time>
      </trkpt>
      <trkpt lat="49.34293" lon="-0.51113">
        <ele>4.3</ele>
        <time>2021-08-18T08:10:38Z</time>
      </trkpt>
      <trkpt lat="49.34296" lon="-0.51131">
        <ele>4.3</ele>
        <time>2021-08-18T08:10:40Z</time>
      </trkpt>
      <trkpt lat="49.34297" lon="-0.51141">
        <ele>4.3</ele>
        <time>2021-08-18T08:10:41Z</time>
      </trkpt>
      <trkpt lat="49.34299" lon="-0.51161">
        <ele>4.3</ele>
        <time>2021-08-18T08:10:43Z</time>
      </trkpt>
      <trkpt lat="49.343" lon="-0.51171">
        <ele>4.3</ele>
        <time>2021-08-18T08:10:44Z</time>
      </trkpt>
      <trkpt lat="49.34302" lon="-0.51191">
        <ele>4.3</ele>
        <time>2021-08-18T08:10:46Z</time>
      </trkpt>
      <trkpt lat="49.34302" lon="-0.51201">
        <ele>4.3</ele>
        <time>2021-08-18T08:10:47Z</time>
      </trkpt>
      <trkpt lat="49.34305" lon="-0.51223">
        <ele>4.3</ele>
        <time>2021-08-18T08:10:49Z</time>
      </trkpt>
      <trkpt lat="49.34308" lon="-0.51245">
        <ele>4.3</ele>
        <time>2021-08-18T08:10:51Z</time>
      </trkpt>
      <trkpt lat="49.3431" lon="-0.51267">
        <ele>4.4</ele>
        <time>2021-08-18T08:10:53Z</time>
      </trkpt>
      <trkpt lat="49.34311" lon="-0.51278">
        <ele>4.4</ele>
        <time>2021-08-18T08:10:54Z</time>
      </trkpt>
      <trkpt lat="49.34313" lon="-0.51299">
        <ele>4.4</ele>
        <time>2021-08-18T08:10:56Z</time>
      </trkpt>
      <trkpt lat="49.34313" lon="-0.51309">
        <ele>4.4</ele>
        <time>2021-08-18T08:10:57Z</time>
      </trkpt>
      <trkpt lat="49.34314" lon="-0.5132">
        <ele>4.4</ele>
        <time>2021-08-18T08:10:58Z</time>
      </trkpt>
      <trkpt lat="49.34316" lon="-0.51342">
        <ele>4.4</ele>
        <time>2021-08-18T08:11:00Z</time>
      </trkpt>
      <trkpt lat="49.34317" lon="-0.51353">
        <ele>4.4</ele>
        <time>2021-08-18T08:11:01Z</time>
      </trkpt>
      <trkpt lat="49.34319" lon="-0.51375">
        <ele>4.5</ele>
        <time>2021-08-18T08:11:03Z</time>
      </trkpt>
      <trkpt lat="49.34319" lon="-0.51386">
        <ele>4.5</ele>
        <time>2021-08-18T08:11:04Z</time>
      </trkpt>
      <trkpt lat="49.34321" lon="-0.51408">
        <ele>4.6</ele>
        <time>2021-08-18T08:11:06Z</time>
      </trkpt>
      <trkpt lat="49.34321" lon="-0.5142">
        <ele>4.6</ele>
        <time>2021-08-18T08:11:07Z</time>
      </trkpt>
      <trkpt lat="49.34322" lon="-0.51431">
        <ele>4.6</ele>
        <time>2021-08-18T08:11:08Z</time>
      </trkpt>
      <trkpt lat="49.34323" lon="-0.51441">
        <ele>4.6</ele>
        <time>2021-08-18T08:11:09Z</time>
      </trkpt>
      <trkpt lat="49.34326" lon="-0.51462">
        <ele>4.6</ele>
        <time>2021-08-18T08:11:11Z</time>
      </trkpt>
      <trkpt lat="49.34329" lon="-0.51483">
        <ele>4.7</ele>
        <time>2021-08-18T08:11:13Z</time>
      </trkpt>
      <trkpt lat="49.34334" lon="-0.51502">
        <ele>4.7</ele>
        <time>2021-08-18T08:11:15Z</time>
      </trkpt>
      <trkpt lat="49.34337" lon="-0.51511">
        <ele>4.8</ele>
        <time>2021-08-18T08:11:16Z</time>
      </trkpt>
      <trkpt lat="49.34339" lon="-0.5152">
        <ele>4.8</ele>
        <time>2021-08-18T08:11:17Z</time>
      </trkpt>
      <trkpt lat="49.34344" lon="-0.51536">
        <ele>4.8</ele>
        <time>2021-08-18T08:11:19Z</time>
      </trkpt>
      <trkpt lat="49.34347" lon="-0.51552">
        <ele>4.9</ele>
        <time>2021-08-18T08:11:21Z</time>
      </trkpt>
      <trkpt lat="49.34349" lon="-0.5156">
        <ele>4.9</ele>
        <time>2021-08-18T08:11:22Z</time>
      </trkpt>
      <trkpt lat="49.3435" lon="-0.51567">
        <ele>4.9</ele>
        <time>2021-08-18T08:11:23Z</time>
      </trkpt>
      <trkpt lat="49.34354" lon="-0.51578">
        <ele>4.9</ele>
        <time>2021-08-18T08:11:25Z</time>
      </trkpt>
      <trkpt lat="49.34356" lon="-0.51584">
        <ele>5</ele>
        <time>2021-08-18T08:11:26Z</time>
      </trkpt>
      <trkpt lat="49.34359" lon="-0.51595">
        <ele>5</ele>
        <time>2021-08-18T08:11:28Z</time>
      </trkpt>
      <trkpt lat="49.3436" lon="-0.51612">
        <ele>5</ele>
        <time>2021-08-18T08:11:30Z</time>
      </trkpt>
      <trkpt lat="49.3436" lon="-0.51622">
        <ele>5.1</ele>
        <time>2021-08-18T08:11:31Z</time>
      </trkpt>
      <trkpt lat="49.3436" lon="-0.51645">
        <ele>5</ele>
        <time>2021-08-18T08:11:33Z</time>
      </trkpt>
      <trkpt lat="49.34359" lon="-0.51656">
        <ele>5</ele>
        <time>2021-08-18T08:11:34Z</time>
      </trkpt>
      <trkpt lat="49.34358" lon="-0.51681">
        <ele>4.8</ele>
        <time>2021-08-18T08:11:36Z</time>
      </trkpt>
      <trkpt lat="49.34356" lon="-0.51693">
        <ele>4.8</ele>
        <time>2021-08-18T08:11:37Z</time>
      </trkpt>
      <trkpt lat="49.34354" lon="-0.51704">
        <ele>4.8</ele>
        <time>2021-08-18T08:11:38Z</time>
      </trkpt>
      <trkpt lat="49.34353" lon="-0.51716">
        <ele>4.8</ele>
        <time>2021-08-18T08:11:39Z</time>
      </trkpt>
      <trkpt lat="49.34349" lon="-0.5174">
        <ele>4.8</ele>
        <time>2021-08-18T08:11:41Z</time>
      </trkpt>
      <trkpt lat="49.34346" lon="-0.51751">
        <ele>4.9</ele>
        <time>2021-08-18T08:11:42Z</time>
      </trkpt>
      <trkpt lat="49.34341" lon="-0.51774">
        <ele>4.9</ele>
        <time>2021-08-18T08:11:44Z</time>
      </trkpt>
      <trkpt lat="49.34339" lon="-0.51785">
        <ele>5</ele>
        <time>2021-08-18T08:11:45Z</time>
      </trkpt>
      <trkpt lat="49.34335" lon="-0.51807">
        <ele>5.1</ele>
        <time>2021-08-18T08:11:47Z</time>
      </trkpt>
      <trkpt lat="49.34334" lon="-0.51819">
        <ele>5.1</ele>
        <time>2021-08-18T08:11:48Z</time>
      </trkpt>
      <trkpt lat="49.34332" lon="-0.51831">
        <ele>5.2</ele>
        <time>2021-08-18T08:11:49Z</time>
      </trkpt>
      <trkpt lat="49.3433" lon="-0.51842">
        <ele>5.3</ele>
        <time>2021-08-18T08:11:50Z</time>
      </trkpt>
      <trkpt lat="49.34325" lon="-0.51864">
        <ele>5.4</ele>
        <time>2021-08-18T08:11:52Z</time>
      </trkpt>
      <trkpt lat="49.34322" lon="-0.51875">
        <ele>5.4</ele>
        <time>2021-08-18T08:11:53Z</time>
      </trkpt>
      <trkpt lat="49.34321" lon="-0.51887">
        <ele>5.4</ele>
        <time>2021-08-18T08:11:54Z</time>
      </trkpt>
      <trkpt lat="49.34317" lon="-0.5191">
        <ele>5.6</ele>
        <time>2021-08-18T08:11:56Z</time>
      </trkpt>
      <trkpt lat="49.34316" lon="-0.51922">
        <ele>5.6</ele>
        <time>2021-08-18T08:11:57Z</time>
      </trkpt>
      <trkpt lat="49.34313" lon="-0.51944">
        <ele>5.8</ele>
        <time>2021-08-18T08:11:59Z</time>
      </trkpt>
      <trkpt lat="49.3431" lon="-0.51965">
        <ele>5.9</ele>
        <time>2021-08-18T08:12:01Z</time>
      </trkpt>
      <trkpt lat="49.34308" lon="-0.51976">
        <ele>6</ele>
        <time>2021-08-18T08:12:02Z</time>
      </trkpt>
      <trkpt lat="49.34304" lon="-0.51996">
        <ele>6.1</ele>
        <time>2021-08-18T08:12:04Z</time>
      </trkpt>
      <trkpt lat="49.343" lon="-0.52016">
        <ele>6.2</ele>
        <time>2021-08-18T08:12:06Z</time>
      </trkpt>
      <trkpt lat="49.34298" lon="-0.52026">
        <ele>6.2</ele>
        <time>2021-08-18T08:12:07Z</time>
      </trkpt>
      <trkpt lat="49.34294" lon="-0.52046">
        <ele>6.3</ele>
        <time>2021-08-18T08:12:09Z</time>
      </trkpt>
      <trkpt lat="49.34289" lon="-0.52066">
        <ele>6.5</ele>
        <time>2021-08-18T08:12:11Z</time>
      </trkpt>
      <trkpt lat="49.34286" lon="-0.52084">
        <ele>6.5</ele>
        <time>2021-08-18T08:12:13Z</time>
      </trkpt>
      <trkpt lat="49.34285" lon="-0.52093">
        <ele>6.6</ele>
        <time>2021-08-18T08:12:14Z</time>
      </trkpt>
      <trkpt lat="49.34282" lon="-0.52112">
        <ele>6.6</ele>
        <time>2021-08-18T08:12:16Z</time>
      </trkpt>
      <trkpt lat="49.34281" lon="-0.52121">
        <ele>6.7</ele>
        <time>2021-08-18T08:12:17Z</time>
      </trkpt>
      <trkpt lat="49.34279" lon="-0.52131">
        <ele>6.7</ele>
        <time>2021-08-18T08:12:18Z</time>
      </trkpt>
      <trkpt lat="49.34276" lon="-0.52148">
        <ele>6.9</ele>
        <time>2021-08-18T08:12:20Z</time>
      </trkpt>
      <trkpt lat="49.34273" lon="-0.52167">
        <ele>7</ele>
        <time>2021-08-18T08:12:22Z</time>
      </trkpt>
      <trkpt lat="49.3427" lon="-0.52185">
        <ele>7.2</ele>
        <time>2021-08-18T08:12:24Z</time>
      </trkpt>
      <trkpt lat="49.34269" lon="-0.52195">
        <ele>7.3</ele>
        <time>2021-08-18T08:12:25Z</time>
      </trkpt>
      <trkpt lat="49.34266" lon="-0.52213">
        <ele>7.5</ele>
        <time>2021-08-18T08:12:27Z</time>
      </trkpt>
      <trkpt lat="49.34264" lon="-0.52222">
        <ele>7.6</ele>
        <time>2021-08-18T08:12:28Z</time>
      </trkpt>
      <trkpt lat="49.34261" lon="-0.52241">
        <ele>7.8</ele>
        <time>2021-08-18T08:12:30Z</time>
      </trkpt>
      <trkpt lat="49.34257" lon="-0.5226">
        <ele>8</ele>
        <time>2021-08-18T08:12:32Z</time>
      </trkpt>
      <trkpt lat="49.34253" lon="-0.52279">
        <ele>8.2</ele>
        <time>2021-08-18T08:12:34Z</time>
      </trkpt>
      <trkpt lat="49.34252" lon="-0.52289">
        <ele>8.4</ele>
        <time>2021-08-18T08:12:35Z</time>
      </trkpt>
      <trkpt lat="49.34249" lon="-0.52307">
        <ele>8.6</ele>
        <time>2021-08-18T08:12:37Z</time>
      </trkpt>
      <trkpt lat="49.34246" lon="-0.52326">
        <ele>8.9</ele>
        <time>2021-08-18T08:12:39Z</time>
      </trkpt>
      <trkpt lat="49.34244" lon="-0.52335">
        <ele>9</ele>
        <time>2021-08-18T08:12:40Z</time>
      </trkpt>
      <trkpt lat="49.34241" lon="-0.52353">
        <ele>9.3</ele>
        <time>2021-08-18T08:12:42Z</time>
      </trkpt>
      <trkpt lat="49.3424" lon="-0.52362">
        <ele>9.5</ele>
        <time>2021-08-18T08:12:43Z</time>
      </trkpt>
      <trkpt lat="49.34239" lon="-0.52371">
        <ele>9.7</ele>
        <time>2021-08-18T08:12:44Z</time>
      </trkpt>
      <trkpt lat="49.34235" lon="-0.5239">
        <ele>10</ele>
        <time>2021-08-18T08:12:46Z</time>
      </trkpt>
      <trkpt lat="49.34231" lon="-0.52409">
        <ele>10.4</ele>
        <time>2021-08-18T08:12:48Z</time>
      </trkpt>
      <trkpt lat="49.34228" lon="-0.52427">
        <ele>10.7</ele>
        <time>2021-08-18T08:12:50Z</time>
      </trkpt>
      <trkpt lat="49.34227" lon="-0.52436">
        <ele>10.8</ele>
        <time>2021-08-18T08:12:51Z</time>
      </trkpt>
      <trkpt lat="49.34223" lon="-0.52454">
        <ele>11.1</ele>
        <time>2021-08-18T08:12:53Z</time>
      </trkpt>
      <trkpt lat="49.34221" lon="-0.52463">
        <ele>11.3</ele>
        <time>2021-08-18T08:12:54Z</time>
      </trkpt>
      <trkpt lat="49.34219" lon="-0.52472">
        <ele>11.5</ele>
        <time>2021-08-18T08:12:55Z</time>
      </trkpt>
      <trkpt lat="49.34216" lon="-0.52491">
        <ele>11.8</ele>
        <time>2021-08-18T08:12:57Z</time>
      </trkpt>
      <trkpt lat="49.34213" lon="-0.52508">
        <ele>12.2</ele>
        <time>2021-08-18T08:12:59Z</time>
      </trkpt>
      <trkpt lat="49.34212" lon="-0.52517">
        <ele>12.3</ele>
        <time>2021-08-18T08:13:00Z</time>
      </trkpt>
      <trkpt lat="49.3421" lon="-0.52526">
        <ele>12.5</ele>
        <time>2021-08-18T08:13:01Z</time>
      </trkpt>
      <trkpt lat="49.34206" lon="-0.52544">
        <ele>12.8</ele>
        <time>2021-08-18T08:13:03Z</time>
      </trkpt>
      <trkpt lat="49.34203" lon="-0.5256">
        <ele>13.1</ele>
        <time>2021-08-18T08:13:05Z</time>
      </trkpt>
      <trkpt lat="49.34202" lon="-0.52569">
        <ele>13.3</ele>
        <time>2021-08-18T08:13:06Z</time>
      </trkpt>
      <trkpt lat="49.34201" lon="-0.52577">
        <ele>13.4</ele>
        <time>2021-08-18T08:13:07Z</time>
      </trkpt>
      <trkpt lat="49.34199" lon="-0.52586">
        <ele>13.6</ele>
        <time>2021-08-18T08:13:08Z</time>
      </trkpt>
      <trkpt lat="49.34196" lon="-0.52603">
        <ele>13.9</ele>
        <time>2021-08-18T08:13:10Z</time>
      </trkpt>
      <trkpt lat="49.34193" lon="-0.52619">
        <ele>14.3</ele>
        <time>2021-08-18T08:13:12Z</time>
      </trkpt>
      <trkpt lat="49.34191" lon="-0.52628">
        <ele>14.5</ele>
        <time>2021-08-18T08:13:13Z</time>
      </trkpt>
      <trkpt lat="49.3419" lon="-0.52637">
        <ele>14.6</ele>
        <time>2021-08-18T08:13:14Z</time>
      </trkpt>
      <trkpt lat="49.34188" lon="-0.52645">
        <ele>14.8</ele>
        <time>2021-08-18T08:13:15Z</time>
      </trkpt>
      <trkpt lat="49.34185" lon="-0.52663">
        <ele>15.1</ele>
        <time>2021-08-18T08:13:17Z</time>
      </trkpt>
      <trkpt lat="49.34182" lon="-0.5268">
        <ele>15.4</ele>
        <time>2021-08-18T08:13:19Z</time>
      </trkpt>
      <trkpt lat="49.3418" lon="-0.52688">
        <ele>15.6</ele>
        <time>2021-08-18T08:13:20Z</time>
      </trkpt>
      <trkpt lat="49.34179" lon="-0.52697">
        <ele>15.8</ele>
        <time>2021-08-18T08:13:21Z</time>
      </trkpt>
      <trkpt lat="49.34176" lon="-0.52715">
        <ele>16.2</ele>
        <time>2021-08-18T08:13:23Z</time>
      </trkpt>
      <trkpt lat="49.34172" lon="-0.52734">
        <ele>16.6</ele>
        <time>2021-08-18T08:13:25Z</time>
      </trkpt>
      <trkpt lat="49.3417" lon="-0.52752">
        <ele>16.9</ele>
        <time>2021-08-18T08:13:27Z</time>
      </trkpt>
      <trkpt lat="49.34167" lon="-0.52768">
        <ele>17.2</ele>
        <time>2021-08-18T08:13:29Z</time>
      </trkpt>
      <trkpt lat="49.34166" lon="-0.52775">
        <ele>17.2</ele>
        <time>2021-08-18T08:13:30Z</time>
      </trkpt>
      <trkpt lat="49.34163" lon="-0.52792">
        <ele>17.4</ele>
        <time>2021-08-18T08:13:32Z</time>
      </trkpt>
      <trkpt lat="49.34161" lon="-0.52809">
        <ele>17.5</ele>
        <time>2021-08-18T08:13:34Z</time>
      </trkpt>
      <trkpt lat="49.34159" lon="-0.52818">
        <ele>17.6</ele>
        <time>2021-08-18T08:13:35Z</time>
      </trkpt>
      <trkpt lat="49.34156" lon="-0.52835">
        <ele>17.7</ele>
        <time>2021-08-18T08:13:37Z</time>
      </trkpt>
      <trkpt lat="49.34153" lon="-0.52853">
        <ele>17.8</ele>
        <time>2021-08-18T08:13:39Z</time>
      </trkpt>
      <trkpt lat="49.3415" lon="-0.52871">
        <ele>17.9</ele>
        <time>2021-08-18T08:13:41Z</time>
      </trkpt>
      <trkpt lat="49.34146" lon="-0.5289">
        <ele>18</ele>
        <time>2021-08-18T08:13:43Z</time>
      </trkpt>
      <trkpt lat="49.34144" lon="-0.529">
        <ele>18</ele>
        <time>2021-08-18T08:13:44Z</time>
      </trkpt>
      <trkpt lat="49.34142" lon="-0.5291">
        <ele>18.1</ele>
        <time>2021-08-18T08:13:45Z</time>
      </trkpt>
      <trkpt lat="49.34138" lon="-0.5293">
        <ele>18.2</ele>
        <time>2021-08-18T08:13:47Z</time>
      </trkpt>
      <trkpt lat="49.34134" lon="-0.5295">
        <ele>18.4</ele>
        <time>2021-08-18T08:13:49Z</time>
      </trkpt>
      <trkpt lat="49.34133" lon="-0.52959">
        <ele>18.5</ele>
        <time>2021-08-18T08:13:50Z</time>
      </trkpt>
      <trkpt lat="49.34129" lon="-0.52979">
        <ele>18.6</ele>
        <time>2021-08-18T08:13:52Z</time>
      </trkpt>
      <trkpt lat="49.34126" lon="-0.52999">
        <ele>18.7</ele>
        <time>2021-08-18T08:13:54Z</time>
      </trkpt>
      <trkpt lat="49.34123" lon="-0.53018">
        <ele>18.9</ele>
        <time>2021-08-18T08:13:56Z</time>
      </trkpt>
      <trkpt lat="49.34119" lon="-0.53038">
        <ele>19</ele>
        <time>2021-08-18T08:13:58Z</time>
      </trkpt>
      <trkpt lat="49.34118" lon="-0.53048">
        <ele>19.1</ele>
        <time>2021-08-18T08:13:59Z</time>
      </trkpt>
      <trkpt lat="49.34114" lon="-0.53067">
        <ele>19.2</ele>
        <time>2021-08-18T08:14:01Z</time>
      </trkpt>
      <trkpt lat="49.34111" lon="-0.53087">
        <ele>19.4</ele>
        <time>2021-08-18T08:14:03Z</time>
      </trkpt>
      <trkpt lat="49.3411" lon="-0.53097">
        <ele>19.5</ele>
        <time>2021-08-18T08:14:04Z</time>
      </trkpt>
      <trkpt lat="49.34109" lon="-0.53107">
        <ele>19.5</ele>
        <time>2021-08-18T08:14:05Z</time>
      </trkpt>
      <trkpt lat="49.34106" lon="-0.53127">
        <ele>19.7</ele>
        <time>2021-08-18T08:14:07Z</time>
      </trkpt>
      <trkpt lat="49.34104" lon="-0.53148">
        <ele>19.8</ele>
        <time>2021-08-18T08:14:09Z</time>
      </trkpt>
      <trkpt lat="49.34102" lon="-0.53168">
        <ele>20</ele>
        <time>2021-08-18T08:14:11Z</time>
      </trkpt>
      <trkpt lat="49.341" lon="-0.53178">
        <ele>20.1</ele>
        <time>2021-08-18T08:14:12Z</time>
      </trkpt>
      <trkpt lat="49.34098" lon="-0.53198">
        <ele>20.2</ele>
        <time>2021-08-18T08:14:14Z</time>
      </trkpt>
      <trkpt lat="49.34097" lon="-0.53208">
        <ele>20.3</ele>
        <time>2021-08-18T08:14:15Z</time>
      </trkpt>
      <trkpt lat="49.34096" lon="-0.53218">
        <ele>20.3</ele>
        <time>2021-08-18T08:14:16Z</time>
      </trkpt>
      <trkpt lat="49.34094" lon="-0.53238">
        <ele>20.5</ele>
        <time>2021-08-18T08:14:18Z</time>
      </trkpt>
      <trkpt lat="49.34093" lon="-0.53258">
        <ele>20.6</ele>
        <time>2021-08-18T08:14:20Z</time>
      </trkpt>
      <trkpt lat="49.3409" lon="-0.53278">
        <ele>20.7</ele>
        <time>2021-08-18T08:14:22Z</time>
      </trkpt>
      <trkpt lat="49.34089" lon="-0.53288">
        <ele>20.7</ele>
        <time>2021-08-18T08:14:23Z</time>
      </trkpt>
      <trkpt lat="49.34087" lon="-0.53307">
        <ele>20.8</ele>
        <time>2021-08-18T08:14:25Z</time>
      </trkpt>
      <trkpt lat="49.34086" lon="-0.53317">
        <ele>20.8</ele>
        <time>2021-08-18T08:14:26Z</time>
      </trkpt>
      <trkpt lat="49.34083" lon="-0.53337">
        <ele>20.9</ele>
        <time>2021-08-18T08:14:28Z</time>
      </trkpt>
      <trkpt lat="49.34082" lon="-0.53347">
        <ele>20.9</ele>
        <time>2021-08-18T08:14:29Z</time>
      </trkpt>
      <trkpt lat="49.34079" lon="-0.53368">
        <ele>21</ele>
        <time>2021-08-18T08:14:31Z</time>
      </trkpt>
      <trkpt lat="49.34078" lon="-0.53378">
        <ele>21.1</ele>
        <time>2021-08-18T08:14:32Z</time>
      </trkpt>
      <trkpt lat="49.34077" lon="-0.53388">
        <ele>21.1</ele>
        <time>2021-08-18T08:14:33Z</time>
      </trkpt>
      <trkpt lat="49.34074" lon="-0.53408">
        <ele>21.1</ele>
        <time>2021-08-18T08:14:35Z</time>
      </trkpt>
      <trkpt lat="49.34073" lon="-0.53419">
        <ele>21.1</ele>
        <time>2021-08-18T08:14:36Z</time>
      </trkpt>
      <trkpt lat="49.3407" lon="-0.5344">
        <ele>21.1</ele>
        <time>2021-08-18T08:14:38Z</time>
      </trkpt>
      <trkpt lat="49.34068" lon="-0.53461">
        <ele>21</ele>
        <time>2021-08-18T08:14:40Z</time>
      </trkpt>
      <trkpt lat="49.34065" lon="-0.53483">
        <ele>21</ele>
        <time>2021-08-18T08:14:42Z</time>
      </trkpt>
      <trkpt lat="49.34063" lon="-0.53504">
        <ele>21</ele>
        <time>2021-08-18T08:14:44Z</time>
      </trkpt>
      <trkpt lat="49.34061" lon="-0.53515">
        <ele>21</ele>
        <time>2021-08-18T08:14:45Z</time>
      </trkpt>
      <trkpt lat="49.3406" lon="-0.53537">
        <ele>20.9</ele>
        <time>2021-08-18T08:14:47Z</time>
      </trkpt>
      <trkpt lat="49.34057" lon="-0.53559">
        <ele>20.9</ele>
        <time>2021-08-18T08:14:49Z</time>
      </trkpt>
      <trkpt lat="49.34055" lon="-0.53581">
        <ele>20.8</ele>
        <time>2021-08-18T08:14:51Z</time>
      </trkpt>
      <trkpt lat="49.34053" lon="-0.53592">
        <ele>20.8</ele>
        <time>2021-08-18T08:14:52Z</time>
      </trkpt>
      <trkpt lat="49.34052" lon="-0.53603">
        <ele>20.7</ele>
        <time>2021-08-18T08:14:53Z</time>
      </trkpt>
      <trkpt lat="49.3405" lon="-0.53626">
        <ele>20.6</ele>
        <time>2021-08-18T08:14:55Z</time>
      </trkpt>
      <trkpt lat="49.34047" lon="-0.53649">
        <ele>20.5</ele>
        <time>2021-08-18T08:14:57Z</time>
      </trkpt>
      <trkpt lat="49.34046" lon="-0.5366">
        <ele>20.5</ele>
        <time>2021-08-18T08:14:58Z</time>
      </trkpt>
      <trkpt lat="49.34044" lon="-0.53683">
        <ele>20.4</ele>
        <time>2021-08-18T08:15:00Z</time>
      </trkpt>
      <trkpt lat="49.34043" lon="-0.53694">
        <ele>20.4</ele>
        <time>2021-08-18T08:15:01Z</time>
      </trkpt>
      <trkpt lat="49.34041" lon="-0.53718">
        <ele>20.2</ele>
        <time>2021-08-18T08:15:03Z</time>
      </trkpt>
      <trkpt lat="49.3404" lon="-0.53729">
        <ele>20.2</ele>
        <time>2021-08-18T08:15:04Z</time>
      </trkpt>
      <trkpt lat="49.34036" lon="-0.53752">
        <ele>20.1</ele>
        <time>2021-08-18T08:15:06Z</time>
      </trkpt>
      <trkpt lat="49.34033" lon="-0.53774">
        <ele>20</ele>
        <time>2021-08-18T08:15:08Z</time>
      </trkpt>
      <trkpt lat="49.34032" lon="-0.53786">
        <ele>19.9</ele>
        <time>2021-08-18T08:15:09Z</time>
      </trkpt>
      <trkpt lat="49.3403" lon="-0.5381">
        <ele>19.8</ele>
        <time>2021-08-18T08:15:11Z</time>
      </trkpt>
      <trkpt lat="49.34028" lon="-0.53822">
        <ele>19.8</ele>
        <time>2021-08-18T08:15:12Z</time>
      </trkpt>
      <trkpt lat="49.34025" lon="-0.53845">
        <ele>19.7</ele>
        <time>2021-08-18T08:15:14Z</time>
      </trkpt>
      <trkpt lat="49.34024" lon="-0.53857">
        <ele>19.6</ele>
        <time>2021-08-18T08:15:15Z</time>
      </trkpt>
      <trkpt lat="49.34021" lon="-0.5388">
        <ele>19.4</ele>
        <time>2021-08-18T08:15:17Z</time>
      </trkpt>
      <trkpt lat="49.34019" lon="-0.53903">
        <ele>19.2</ele>
        <time>2021-08-18T08:15:19Z</time>
      </trkpt>
      <trkpt lat="49.34018" lon="-0.53915">
        <ele>19.1</ele>
        <time>2021-08-18T08:15:20Z</time>
      </trkpt>
      <trkpt lat="49.34015" lon="-0.53938">
        <ele>19</ele>
        <time>2021-08-18T08:15:22Z</time>
      </trkpt>
      <trkpt lat="49.34013" lon="-0.53962">
        <ele>19</ele>
        <time>2021-08-18T08:15:24Z</time>
      </trkpt>
      <trkpt lat="49.3401" lon="-0.53985">
        <ele>18.9</ele>
        <time>2021-08-18T08:15:26Z</time>
      </trkpt>
      <trkpt lat="49.34007" lon="-0.54008">
        <ele>18.8</ele>
        <time>2021-08-18T08:15:28Z</time>
      </trkpt>
      <trkpt lat="49.34006" lon="-0.54019">
        <ele>18.7</ele>
        <time>2021-08-18T08:15:29Z</time>
      </trkpt>
      <trkpt lat="49.34003" lon="-0.54042">
        <ele>18.6</ele>
        <time>2021-08-18T08:15:31Z</time>
      </trkpt>
      <trkpt lat="49.34" lon="-0.54065">
        <ele>18.4</ele>
        <time>2021-08-18T08:15:33Z</time>
      </trkpt>
      <trkpt lat="49.33998" lon="-0.54087">
        <ele>18.3</ele>
        <time>2021-08-18T08:15:35Z</time>
      </trkpt>
      <trkpt lat="49.33997" lon="-0.54098">
        <ele>18.2</ele>
        <time>2021-08-18T08:15:36Z</time>
      </trkpt>
      <trkpt lat="49.33995" lon="-0.5412">
        <ele>18.1</ele>
        <time>2021-08-18T08:15:38Z</time>
      </trkpt>
      <trkpt lat="49.33993" lon="-0.54142">
        <ele>18</ele>
        <time>2021-08-18T08:15:40Z</time>
      </trkpt>
      <trkpt lat="49.33992" lon="-0.54153">
        <ele>18</ele>
        <time>2021-08-18T08:15:41Z</time>
      </trkpt>
      <trkpt lat="49.33991" lon="-0.54175">
        <ele>17.9</ele>
        <time>2021-08-18T08:15:43Z</time>
      </trkpt>
      <trkpt lat="49.3399" lon="-0.54196">
        <ele>17.7</ele>
        <time>2021-08-18T08:15:45Z</time>
      </trkpt>
      <trkpt lat="49.33989" lon="-0.54207">
        <ele>17.7</ele>
        <time>2021-08-18T08:15:46Z</time>
      </trkpt>
      <trkpt lat="49.33986" lon="-0.54228">
        <ele>17.6</ele>
        <time>2021-08-18T08:15:48Z</time>
      </trkpt>
      <trkpt lat="49.33984" lon="-0.54249">
        <ele>17.5</ele>
        <time>2021-08-18T08:15:50Z</time>
      </trkpt>
      <trkpt lat="49.33981" lon="-0.54271">
        <ele>17.4</ele>
        <time>2021-08-18T08:15:52Z</time>
      </trkpt>
      <trkpt lat="49.33979" lon="-0.54282">
        <ele>17.3</ele>
        <time>2021-08-18T08:15:53Z</time>
      </trkpt>
      <trkpt lat="49.33978" lon="-0.54293">
        <ele>17.3</ele>
        <time>2021-08-18T08:15:54Z</time>
      </trkpt>
      <trkpt lat="49.33976" lon="-0.54315">
        <ele>17.2</ele>
        <time>2021-08-18T08:15:56Z</time>
      </trkpt>
      <trkpt lat="49.33973" lon="-0.54336">
        <ele>17.1</ele>
        <time>2021-08-18T08:15:58Z</time>
      </trkpt>
      <trkpt lat="49.33971" lon="-0.54358">
        <ele>17</ele>
        <time>2021-08-18T08:16:00Z</time>
      </trkpt>
      <trkpt lat="49.33968" lon="-0.5438">
        <ele>16.9</ele>
        <time>2021-08-18T08:16:02Z</time>
      </trkpt>
      <trkpt lat="49.33967" lon="-0.54391">
        <ele>16.9</ele>
        <time>2021-08-18T08:16:03Z</time>
      </trkpt>
      <trkpt lat="49.33964" lon="-0.54412">
        <ele>16.8</ele>
        <time>2021-08-18T08:16:05Z</time>
      </trkpt>
      <trkpt lat="49.33961" lon="-0.54433">
        <ele>16.7</ele>
        <time>2021-08-18T08:16:07Z</time>
      </trkpt>
      <trkpt lat="49.33961" lon="-0.54444">
        <ele>16.6</ele>
        <time>2021-08-18T08:16:08Z</time>
      </trkpt>
      <trkpt lat="49.33959" lon="-0.54465">
        <ele>16.5</ele>
        <time>2021-08-18T08:16:10Z</time>
      </trkpt>
      <trkpt lat="49.33957" lon="-0.54476">
        <ele>16.5</ele>
        <time>2021-08-18T08:16:11Z</time>
      </trkpt>
      <trkpt lat="49.33955" lon="-0.54499">
        <ele>16.4</ele>
        <time>2021-08-18T08:16:13Z</time>
      </trkpt>
      <trkpt lat="49.33953" lon="-0.54521">
        <ele>16.3</ele>
        <time>2021-08-18T08:16:15Z</time>
      </trkpt>
      <trkpt lat="49.3395" lon="-0.54544">
        <ele>16.2</ele>
        <time>2021-08-18T08:16:17Z</time>
      </trkpt>
      <trkpt lat="49.33949" lon="-0.54555">
        <ele>16.1</ele>
        <time>2021-08-18T08:16:18Z</time>
      </trkpt>
      <trkpt lat="49.33948" lon="-0.54566">
        <ele>16</ele>
        <time>2021-08-18T08:16:19Z</time>
      </trkpt>
      <trkpt lat="49.33945" lon="-0.54589">
        <ele>15.9</ele>
        <time>2021-08-18T08:16:21Z</time>
      </trkpt>
      <trkpt lat="49.33942" lon="-0.54613">
        <ele>15.9</ele>
        <time>2021-08-18T08:16:23Z</time>
      </trkpt>
      <trkpt lat="49.33941" lon="-0.54625">
        <ele>15.8</ele>
        <time>2021-08-18T08:16:24Z</time>
      </trkpt>
      <trkpt lat="49.33939" lon="-0.54648">
        <ele>15.8</ele>
        <time>2021-08-18T08:16:26Z</time>
      </trkpt>
      <trkpt lat="49.33938" lon="-0.5466">
        <ele>15.7</ele>
        <time>2021-08-18T08:16:27Z</time>
      </trkpt>
      <trkpt lat="49.33936" lon="-0.54684">
        <ele>15.7</ele>
        <time>2021-08-18T08:16:29Z</time>
      </trkpt>
      <trkpt lat="49.33934" lon="-0.54696">
        <ele>15.6</ele>
        <time>2021-08-18T08:16:30Z</time>
      </trkpt>
      <trkpt lat="49.33932" lon="-0.54719">
        <ele>15.5</ele>
        <time>2021-08-18T08:16:32Z</time>
      </trkpt>
      <trkpt lat="49.3393" lon="-0.54731">
        <ele>15.4</ele>
        <time>2021-08-18T08:16:33Z</time>
      </trkpt>
      <trkpt lat="49.33927" lon="-0.54754">
        <ele>15.4</ele>
        <time>2021-08-18T08:16:35Z</time>
      </trkpt>
      <trkpt lat="49.33925" lon="-0.54776">
        <ele>15.3</ele>
        <time>2021-08-18T08:16:37Z</time>
      </trkpt>
      <trkpt lat="49.33924" lon="-0.54788">
        <ele>15.2</ele>
        <time>2021-08-18T08:16:38Z</time>
      </trkpt>
      <trkpt lat="49.33922" lon="-0.54811">
        <ele>15.1</ele>
        <time>2021-08-18T08:16:40Z</time>
      </trkpt>
      <trkpt lat="49.33921" lon="-0.54822">
        <ele>15</ele>
        <time>2021-08-18T08:16:41Z</time>
      </trkpt>
      <trkpt lat="49.33919" lon="-0.54833">
        <ele>14.9</ele>
        <time>2021-08-18T08:16:42Z</time>
      </trkpt>
      <trkpt lat="49.33917" lon="-0.54856">
        <ele>14.8</ele>
        <time>2021-08-18T08:16:44Z</time>
      </trkpt>
      <trkpt lat="49.33915" lon="-0.54868">
        <ele>14.8</ele>
        <time>2021-08-18T08:16:45Z</time>
      </trkpt>
      <trkpt lat="49.33912" lon="-0.54891">
        <ele>14.6</ele>
        <time>2021-08-18T08:16:47Z</time>
      </trkpt>
      <trkpt lat="49.3391" lon="-0.54914">
        <ele>14.5</ele>
        <time>2021-08-18T08:16:49Z</time>
      </trkpt>
      <trkpt lat="49.33908" lon="-0.54926">
        <ele>14.5</ele>
        <time>2021-08-18T08:16:50Z</time>
      </trkpt>
      <trkpt lat="49.33905" lon="-0.54948">
        <ele>14.3</ele>
        <time>2021-08-18T08:16:52Z</time>
      </trkpt>
      <trkpt lat="49.33902" lon="-0.54972">
        <ele>14.2</ele>
        <time>2021-08-18T08:16:54Z</time>
      </trkpt>
      <trkpt lat="49.33901" lon="-0.54983">
        <ele>14.1</ele>
        <time>2021-08-18T08:16:55Z</time>
      </trkpt>
      <trkpt lat="49.33899" lon="-0.55007">
        <ele>14</ele>
        <time>2021-08-18T08:16:57Z</time>
      </trkpt>
      <trkpt lat="49.33896" lon="-0.55031">
        <ele>13.8</ele>
        <time>2021-08-18T08:16:59Z</time>
      </trkpt>
      <trkpt lat="49.33894" lon="-0.55043">
        <ele>13.8</ele>
        <time>2021-08-18T08:17:00Z</time>
      </trkpt>
      <trkpt lat="49.33891" lon="-0.55067">
        <ele>13.6</ele>
        <time>2021-08-18T08:17:02Z</time>
      </trkpt>
      <trkpt lat="49.3389" lon="-0.55079">
        <ele>13.5</ele>
        <time>2021-08-18T08:17:03Z</time>
      </trkpt>
      <trkpt lat="49.33888" lon="-0.55103">
        <ele>13.4</ele>
        <time>2021-08-18T08:17:05Z</time>
      </trkpt>
      <trkpt lat="49.33885" lon="-0.55126">
        <ele>13.2</ele>
        <time>2021-08-18T08:17:07Z</time>
      </trkpt>
      <trkpt lat="49.33884" lon="-0.55139">
        <ele>13.2</ele>
        <time>2021-08-18T08:17:08Z</time>
      </trkpt>
      <trkpt lat="49.33881" lon="-0.55163">
        <ele>13.1</ele>
        <time>2021-08-18T08:17:10Z</time>
      </trkpt>
      <trkpt lat="49.33879" lon="-0.55188">
        <ele>12.9</ele>
        <time>2021-08-18T08:17:12Z</time>
      </trkpt>
      <trkpt lat="49.33876" lon="-0.55213">
        <ele>12.8</ele>
        <time>2021-08-18T08:17:14Z</time>
      </trkpt>
      <trkpt lat="49.33874" lon="-0.55238">
        <ele>12.6</ele>
        <time>2021-08-18T08:17:16Z</time>
      </trkpt>
      <trkpt lat="49.33871" lon="-0.55263">
        <ele>12.5</ele>
        <time>2021-08-18T08:17:18Z</time>
      </trkpt>
      <trkpt lat="49.3387" lon="-0.55275">
        <ele>12.4</ele>
        <time>2021-08-18T08:17:19Z</time>
      </trkpt>
      <trkpt lat="49.33868" lon="-0.55288">
        <ele>12.3</ele>
        <time>2021-08-18T08:17:20Z</time>
      </trkpt>
      <trkpt lat="49.33865" lon="-0.55313">
        <ele>12.2</ele>
        <time>2021-08-18T08:17:22Z</time>
      </trkpt>
      <trkpt lat="49.33864" lon="-0.55325">
        <ele>12.2</ele>
        <time>2021-08-18T08:17:23Z</time>
      </trkpt>
      <trkpt lat="49.33861" lon="-0.55349">
        <ele>12.1</ele>
        <time>2021-08-18T08:17:25Z</time>
      </trkpt>
      <trkpt lat="49.3386" lon="-0.55361">
        <ele>12</ele>
        <time>2021-08-18T08:17:26Z</time>
      </trkpt>
      <trkpt lat="49.33859" lon="-0.55373">
        <ele>12</ele>
        <time>2021-08-18T08:17:27Z</time>
      </trkpt>
      <trkpt lat="49.33857" lon="-0.55398">
        <ele>11.8</ele>
        <time>2021-08-18T08:17:29Z</time>
      </trkpt>
      <trkpt lat="49.33855" lon="-0.5541">
        <ele>11.8</ele>
        <time>2021-08-18T08:17:30Z</time>
      </trkpt>
      <trkpt lat="49.33853" lon="-0.55434">
        <ele>11.7</ele>
        <time>2021-08-18T08:17:32Z</time>
      </trkpt>
      <trkpt lat="49.33851" lon="-0.55458">
        <ele>11.6</ele>
        <time>2021-08-18T08:17:34Z</time>
      </trkpt>
      <trkpt lat="49.33848" lon="-0.55482">
        <ele>11.5</ele>
        <time>2021-08-18T08:17:36Z</time>
      </trkpt>
      <trkpt lat="49.33844" lon="-0.55506">
        <ele>11.4</ele>
        <time>2021-08-18T08:17:38Z</time>
      </trkpt>
      <trkpt lat="49.33843" lon="-0.55517">
        <ele>11.3</ele>
        <time>2021-08-18T08:17:39Z</time>
      </trkpt>
      <trkpt lat="49.33839" lon="-0.55541">
        <ele>11.1</ele>
        <time>2021-08-18T08:17:41Z</time>
      </trkpt>
      <trkpt lat="49.33836" lon="-0.55565">
        <ele>11</ele>
        <time>2021-08-18T08:17:43Z</time>
      </trkpt>
      <trkpt lat="49.33833" lon="-0.55588">
        <ele>10.9</ele>
        <time>2021-08-18T08:17:45Z</time>
      </trkpt>
      <trkpt lat="49.33831" lon="-0.556">
        <ele>10.8</ele>
        <time>2021-08-18T08:17:46Z</time>
      </trkpt>
      <trkpt lat="49.33829" lon="-0.55623">
        <ele>10.6</ele>
        <time>2021-08-18T08:17:48Z</time>
      </trkpt>
      <trkpt lat="49.33827" lon="-0.55634">
        <ele>10.6</ele>
        <time>2021-08-18T08:17:49Z</time>
      </trkpt>
      <trkpt lat="49.33826" lon="-0.55645">
        <ele>10.5</ele>
        <time>2021-08-18T08:17:50Z</time>
      </trkpt>
      <trkpt lat="49.33824" lon="-0.55669">
        <ele>10.3</ele>
        <time>2021-08-18T08:17:52Z</time>
      </trkpt>
      <trkpt lat="49.33821" lon="-0.55692">
        <ele>10.2</ele>
        <time>2021-08-18T08:17:54Z</time>
      </trkpt>
      <trkpt lat="49.33819" lon="-0.55716">
        <ele>10</ele>
        <time>2021-08-18T08:17:56Z</time>
      </trkpt>
      <trkpt lat="49.33817" lon="-0.55728">
        <ele>9.9</ele>
        <time>2021-08-18T08:17:57Z</time>
      </trkpt>
      <trkpt lat="49.33815" lon="-0.55751">
        <ele>9.7</ele>
        <time>2021-08-18T08:17:59Z</time>
      </trkpt>
      <trkpt lat="49.33813" lon="-0.55763">
        <ele>9.6</ele>
        <time>2021-08-18T08:18:00Z</time>
      </trkpt>
      <trkpt lat="49.33811" lon="-0.55787">
        <ele>9.4</ele>
        <time>2021-08-18T08:18:02Z</time>
      </trkpt>
      <trkpt lat="49.3381" lon="-0.55799">
        <ele>9.3</ele>
        <time>2021-08-18T08:18:03Z</time>
      </trkpt>
      <trkpt lat="49.33808" lon="-0.55824">
        <ele>9.1</ele>
        <time>2021-08-18T08:18:05Z</time>
      </trkpt>
      <trkpt lat="49.33807" lon="-0.55836">
        <ele>9</ele>
        <time>2021-08-18T08:18:06Z</time>
      </trkpt>
      <trkpt lat="49.33806" lon="-0.55849">
        <ele>8.9</ele>
        <time>2021-08-18T08:18:07Z</time>
      </trkpt>
      <trkpt lat="49.33805" lon="-0.55861">
        <ele>8.8</ele>
        <time>2021-08-18T08:18:08Z</time>
      </trkpt>
      <trkpt lat="49.33803" lon="-0.55873">
        <ele>8.7</ele>
        <time>2021-08-18T08:18:09Z</time>
      </trkpt>
      <trkpt lat="49.33801" lon="-0.55899">
        <ele>8.5</ele>
        <time>2021-08-18T08:18:11Z</time>
      </trkpt>
      <trkpt lat="49.33799" lon="-0.55924">
        <ele>8.3</ele>
        <time>2021-08-18T08:18:13Z</time>
      </trkpt>
      <trkpt lat="49.33797" lon="-0.5595">
        <ele>8.1</ele>
        <time>2021-08-18T08:18:15Z</time>
      </trkpt>
      <trkpt lat="49.33796" lon="-0.55963">
        <ele>8</ele>
        <time>2021-08-18T08:18:16Z</time>
      </trkpt>
      <trkpt lat="49.33795" lon="-0.55977">
        <ele>7.9</ele>
        <time>2021-08-18T08:18:17Z</time>
      </trkpt>
      <trkpt lat="49.33793" lon="-0.56004">
        <ele>7.7</ele>
        <time>2021-08-18T08:18:19Z</time>
      </trkpt>
      <trkpt lat="49.33792" lon="-0.56031">
        <ele>7.5</ele>
        <time>2021-08-18T08:18:21Z</time>
      </trkpt>
      <trkpt lat="49.33791" lon="-0.56044">
        <ele>7.4</ele>
        <time>2021-08-18T08:18:22Z</time>
      </trkpt>
      <trkpt lat="49.3379" lon="-0.56071">
        <ele>7.1</ele>
        <time>2021-08-18T08:18:24Z</time>
      </trkpt>
      <trkpt lat="49.33789" lon="-0.56084">
        <ele>7</ele>
        <time>2021-08-18T08:18:25Z</time>
      </trkpt>
      <trkpt lat="49.33788" lon="-0.56111">
        <ele>6.9</ele>
        <time>2021-08-18T08:18:27Z</time>
      </trkpt>
      <trkpt lat="49.33787" lon="-0.56124">
        <ele>6.8</ele>
        <time>2021-08-18T08:18:28Z</time>
      </trkpt>
      <trkpt lat="49.33786" lon="-0.56138">
        <ele>6.7</ele>
        <time>2021-08-18T08:18:29Z</time>
      </trkpt>
      <trkpt lat="49.33786" lon="-0.56152">
        <ele>6.6</ele>
        <time>2021-08-18T08:18:30Z</time>
      </trkpt>
      <trkpt lat="49.33785" lon="-0.56179">
        <ele>6.5</ele>
        <time>2021-08-18T08:18:32Z</time>
      </trkpt>
      <trkpt lat="49.33784" lon="-0.56205">
        <ele>6.4</ele>
        <time>2021-08-18T08:18:34Z</time>
      </trkpt>
      <trkpt lat="49.33784" lon="-0.56219">
        <ele>6.4</ele>
        <time>2021-08-18T08:18:35Z</time>
      </trkpt>
      <trkpt lat="49.33783" lon="-0.56245">
        <ele>6.3</ele>
        <time>2021-08-18T08:18:37Z</time>
      </trkpt>
      <trkpt lat="49.33782" lon="-0.56257">
        <ele>6.3</ele>
        <time>2021-08-18T08:18:38Z</time>
      </trkpt>
      <trkpt lat="49.33782" lon="-0.5627">
        <ele>6.2</ele>
        <time>2021-08-18T08:18:39Z</time>
      </trkpt>
      <trkpt lat="49.33783" lon="-0.56296">
        <ele>6.1</ele>
        <time>2021-08-18T08:18:41Z</time>
      </trkpt>
      <trkpt lat="49.33784" lon="-0.56321">
        <ele>6</ele>
        <time>2021-08-18T08:18:43Z</time>
      </trkpt>
      <trkpt lat="49.33784" lon="-0.56334">
        <ele>6</ele>
        <time>2021-08-18T08:18:44Z</time>
      </trkpt>
      <trkpt lat="49.33785" lon="-0.56347">
        <ele>5.9</ele>
        <time>2021-08-18T08:18:45Z</time>
      </trkpt>
      <trkpt lat="49.33786" lon="-0.56373">
        <ele>5.9</ele>
        <time>2021-08-18T08:18:47Z</time>
      </trkpt>
      <trkpt lat="49.33786" lon="-0.56399">
        <ele>5.8</ele>
        <time>2021-08-18T08:18:49Z</time>
      </trkpt>
      <trkpt lat="49.33787" lon="-0.56411">
        <ele>5.8</ele>
        <time>2021-08-18T08:18:50Z</time>
      </trkpt>
      <trkpt lat="49.33787" lon="-0.56436">
        <ele>5.6</ele>
        <time>2021-08-18T08:18:52Z</time>
      </trkpt>
      <trkpt lat="49.33788" lon="-0.56461">
        <ele>5.6</ele>
        <time>2021-08-18T08:18:54Z</time>
      </trkpt>
      <trkpt lat="49.3379" lon="-0.56486">
        <ele>5.5</ele>
        <time>2021-08-18T08:18:56Z</time>
      </trkpt>
      <trkpt lat="49.33791" lon="-0.56511">
        <ele>5.5</ele>
        <time>2021-08-18T08:18:58Z</time>
      </trkpt>
      <trkpt lat="49.33792" lon="-0.56524">
        <ele>5.5</ele>
        <time>2021-08-18T08:18:59Z</time>
      </trkpt>
      <trkpt lat="49.33792" lon="-0.56537">
        <ele>5.4</ele>
        <time>2021-08-18T08:19:00Z</time>
      </trkpt>
      <trkpt lat="49.33792" lon="-0.5655">
        <ele>5.4</ele>
        <time>2021-08-18T08:19:01Z</time>
      </trkpt>
      <trkpt lat="49.33793" lon="-0.56575">
        <ele>5.4</ele>
        <time>2021-08-18T08:19:03Z</time>
      </trkpt>
      <trkpt lat="49.33794" lon="-0.56588">
        <ele>5.4</ele>
        <time>2021-08-18T08:19:04Z</time>
      </trkpt>
      <trkpt lat="49.33794" lon="-0.56601">
        <ele>5.3</ele>
        <time>2021-08-18T08:19:05Z</time>
      </trkpt>
      <trkpt lat="49.33796" lon="-0.56626">
        <ele>5.2</ele>
        <time>2021-08-18T08:19:07Z</time>
      </trkpt>
      <trkpt lat="49.33797" lon="-0.56638">
        <ele>5.2</ele>
        <time>2021-08-18T08:19:08Z</time>
      </trkpt>
      <trkpt lat="49.33798" lon="-0.56663">
        <ele>5.1</ele>
        <time>2021-08-18T08:19:10Z</time>
      </trkpt>
      <trkpt lat="49.33799" lon="-0.56688">
        <ele>5.1</ele>
        <time>2021-08-18T08:19:12Z</time>
      </trkpt>
      <trkpt lat="49.33801" lon="-0.567">
        <ele>5.1</ele>
        <time>2021-08-18T08:19:13Z</time>
      </trkpt>
      <trkpt lat="49.33803" lon="-0.56713">
        <ele>5</ele>
        <time>2021-08-18T08:19:14Z</time>
      </trkpt>
      <trkpt lat="49.33805" lon="-0.56738">
        <ele>5</ele>
        <time>2021-08-18T08:19:16Z</time>
      </trkpt>
      <trkpt lat="49.33806" lon="-0.56763">
        <ele>5</ele>
        <time>2021-08-18T08:19:18Z</time>
      </trkpt>
      <trkpt lat="49.33807" lon="-0.56788">
        <ele>5</ele>
        <time>2021-08-18T08:19:20Z</time>
      </trkpt>
      <trkpt lat="49.33809" lon="-0.568">
        <ele>5</ele>
        <time>2021-08-18T08:19:21Z</time>
      </trkpt>
      <trkpt lat="49.33811" lon="-0.56825">
        <ele>5</ele>
        <time>2021-08-18T08:19:23Z</time>
      </trkpt>
      <trkpt lat="49.33812" lon="-0.56837">
        <ele>5</ele>
        <time>2021-08-18T08:19:24Z</time>
      </trkpt>
      <trkpt lat="49.33813" lon="-0.5685">
        <ele>5</ele>
        <time>2021-08-18T08:19:25Z</time>
      </trkpt>
      <trkpt lat="49.33816" lon="-0.56873">
        <ele>4.9</ele>
        <time>2021-08-18T08:19:27Z</time>
      </trkpt>
      <trkpt lat="49.33817" lon="-0.56886">
        <ele>4.9</ele>
        <time>2021-08-18T08:19:28Z</time>
      </trkpt>
      <trkpt lat="49.33819" lon="-0.56898">
        <ele>4.9</ele>
        <time>2021-08-18T08:19:29Z</time>
      </trkpt>
      <trkpt lat="49.33821" lon="-0.56922">
        <ele>4.9</ele>
        <time>2021-08-18T08:19:31Z</time>
      </trkpt>
      <trkpt lat="49.33823" lon="-0.56946">
        <ele>4.9</ele>
        <time>2021-08-18T08:19:33Z</time>
      </trkpt>
      <trkpt lat="49.33824" lon="-0.56958">
        <ele>4.9</ele>
        <time>2021-08-18T08:19:34Z</time>
      </trkpt>
      <trkpt lat="49.33826" lon="-0.56982">
        <ele>4.9</ele>
        <time>2021-08-18T08:19:36Z</time>
      </trkpt>
      <trkpt lat="49.33827" lon="-0.56994">
        <ele>5</ele>
        <time>2021-08-18T08:19:37Z</time>
      </trkpt>
      <trkpt lat="49.33828" lon="-0.57016">
        <ele>5</ele>
        <time>2021-08-18T08:19:39Z</time>
      </trkpt>
      <trkpt lat="49.33829" lon="-0.57026">
        <ele>5</ele>
        <time>2021-08-18T08:19:41Z</time>
      </trkpt>
      <trkpt lat="49.33831" lon="-0.57055">
        <ele>5.1</ele>
        <time>2021-08-18T08:19:42Z</time>
      </trkpt>
      <trkpt lat="49.33832" lon="-0.57065">
        <ele>5.2</ele>
        <time>2021-08-18T08:19:44Z</time>
      </trkpt>
      <trkpt lat="49.33836" lon="-0.57099">
        <ele>5.3</ele>
        <time>2021-08-18T08:19:46Z</time>
      </trkpt>
      <trkpt lat="49.33838" lon="-0.57115">
        <ele>5.3</ele>
        <time>2021-08-18T08:19:48Z</time>
      </trkpt>
      <trkpt lat="49.3384" lon="-0.57128">
        <ele>5.3</ele>
        <time>2021-08-18T08:19:50Z</time>
      </trkpt>
      <trkpt lat="49.3384" lon="-0.57136">
        <ele>5.4</ele>
        <time>2021-08-18T08:19:51Z</time>
      </trkpt>
      <trkpt lat="49.33841" lon="-0.57149">
        <ele>5.4</ele>
        <time>2021-08-18T08:19:53Z</time>
      </trkpt>
      <trkpt lat="49.33841" lon="-0.57157">
        <ele>5.5</ele>
        <time>2021-08-18T08:19:54Z</time>
      </trkpt>
      <trkpt lat="49.33842" lon="-0.57174">
        <ele>5.5</ele>
        <time>2021-08-18T08:19:56Z</time>
      </trkpt>
      <trkpt lat="49.33842" lon="-0.57183">
        <ele>5.6</ele>
        <time>2021-08-18T08:19:57Z</time>
      </trkpt>
      <trkpt lat="49.33843" lon="-0.57192">
        <ele>5.6</ele>
        <time>2021-08-18T08:19:58Z</time>
      </trkpt>
      <trkpt lat="49.33844" lon="-0.5721">
        <ele>5.6</ele>
        <time>2021-08-18T08:20:00Z</time>
      </trkpt>
      <trkpt lat="49.33846" lon="-0.57227">
        <ele>5.7</ele>
        <time>2021-08-18T08:20:02Z</time>
      </trkpt>
      <trkpt lat="49.33847" lon="-0.57244">
        <ele>5.7</ele>
        <time>2021-08-18T08:20:04Z</time>
      </trkpt>
      <trkpt lat="49.33848" lon="-0.57253">
        <ele>5.7</ele>
        <time>2021-08-18T08:20:05Z</time>
      </trkpt>
      <trkpt lat="49.33848" lon="-0.57261">
        <ele>5.7</ele>
        <time>2021-08-18T08:20:06Z</time>
      </trkpt>
      <trkpt lat="49.3385" lon="-0.57278">
        <ele>5.7</ele>
        <time>2021-08-18T08:20:08Z</time>
      </trkpt>
      <trkpt lat="49.33852" lon="-0.57294">
        <ele>5.8</ele>
        <time>2021-08-18T08:20:10Z</time>
      </trkpt>
      <trkpt lat="49.33854" lon="-0.57302">
        <ele>5.8</ele>
        <time>2021-08-18T08:20:11Z</time>
      </trkpt>
      <trkpt lat="49.33856" lon="-0.57318">
        <ele>5.9</ele>
        <time>2021-08-18T08:20:13Z</time>
      </trkpt>
      <trkpt lat="49.33857" lon="-0.57326">
        <ele>5.9</ele>
        <time>2021-08-18T08:20:14Z</time>
      </trkpt>
      <trkpt lat="49.33858" lon="-0.57342">
        <ele>6</ele>
        <time>2021-08-18T08:20:16Z</time>
      </trkpt>
      <trkpt lat="49.33858" lon="-0.5735">
        <ele>6.1</ele>
        <time>2021-08-18T08:20:17Z</time>
      </trkpt>
      <trkpt lat="49.33858" lon="-0.57366">
        <ele>6.1</ele>
        <time>2021-08-18T08:20:19Z</time>
      </trkpt>
      <trkpt lat="49.3386" lon="-0.57383">
        <ele>6.2</ele>
        <time>2021-08-18T08:20:21Z</time>
      </trkpt>
      <trkpt lat="49.33862" lon="-0.574">
        <ele>6.2</ele>
        <time>2021-08-18T08:20:23Z</time>
      </trkpt>
      <trkpt lat="49.33863" lon="-0.57408">
        <ele>6.3</ele>
        <time>2021-08-18T08:20:24Z</time>
      </trkpt>
      <trkpt lat="49.33863" lon="-0.57417">
        <ele>6.3</ele>
        <time>2021-08-18T08:20:25Z</time>
      </trkpt>
      <trkpt lat="49.33864" lon="-0.57434">
        <ele>6.3</ele>
        <time>2021-08-18T08:20:27Z</time>
      </trkpt>
      <trkpt lat="49.33865" lon="-0.57451">
        <ele>6.4</ele>
        <time>2021-08-18T08:20:29Z</time>
      </trkpt>
      <trkpt lat="49.33866" lon="-0.57469">
        <ele>6.5</ele>
        <time>2021-08-18T08:20:31Z</time>
      </trkpt>
      <trkpt lat="49.33867" lon="-0.57478">
        <ele>6.5</ele>
        <time>2021-08-18T08:20:32Z</time>
      </trkpt>
      <trkpt lat="49.33868" lon="-0.57487">
        <ele>6.5</ele>
        <time>2021-08-18T08:20:33Z</time>
      </trkpt>
      <trkpt lat="49.3387" lon="-0.57508">
        <ele>6.5</ele>
        <time>2021-08-18T08:20:35Z</time>
      </trkpt>
      <trkpt lat="49.33872" lon="-0.57528">
        <ele>6.4</ele>
        <time>2021-08-18T08:20:37Z</time>
      </trkpt>
      <trkpt lat="49.33872" lon="-0.57538">
        <ele>6.4</ele>
        <time>2021-08-18T08:20:38Z</time>
      </trkpt>
      <trkpt lat="49.33873" lon="-0.57549">
        <ele>6.4</ele>
        <time>2021-08-18T08:20:39Z</time>
      </trkpt>
      <trkpt lat="49.33875" lon="-0.57568">
        <ele>6.3</ele>
        <time>2021-08-18T08:20:41Z</time>
      </trkpt>
      <trkpt lat="49.33877" lon="-0.57578">
        <ele>6.3</ele>
        <time>2021-08-18T08:20:42Z</time>
      </trkpt>
      <trkpt lat="49.33879" lon="-0.57589">
        <ele>6.3</ele>
        <time>2021-08-18T08:20:43Z</time>
      </trkpt>
      <trkpt lat="49.33882" lon="-0.57608">
        <ele>6.2</ele>
        <time>2021-08-18T08:20:45Z</time>
      </trkpt>
      <trkpt lat="49.33883" lon="-0.57618">
        <ele>6.2</ele>
        <time>2021-08-18T08:20:46Z</time>
      </trkpt>
      <trkpt lat="49.33886" lon="-0.5764">
        <ele>6.1</ele>
        <time>2021-08-18T08:20:48Z</time>
      </trkpt>
      <trkpt lat="49.33889" lon="-0.5766">
        <ele>5.9</ele>
        <time>2021-08-18T08:20:50Z</time>
      </trkpt>
      <trkpt lat="49.33892" lon="-0.57681">
        <ele>5.8</ele>
        <time>2021-08-18T08:20:52Z</time>
      </trkpt>
      <trkpt lat="49.33894" lon="-0.57703">
        <ele>5.8</ele>
        <time>2021-08-18T08:20:54Z</time>
      </trkpt>
      <trkpt lat="49.33894" lon="-0.57725">
        <ele>5.7</ele>
        <time>2021-08-18T08:20:56Z</time>
      </trkpt>
      <trkpt lat="49.33895" lon="-0.57737">
        <ele>5.6</ele>
        <time>2021-08-18T08:20:57Z</time>
      </trkpt>
      <trkpt lat="49.33896" lon="-0.57758">
        <ele>5.5</ele>
        <time>2021-08-18T08:20:59Z</time>
      </trkpt>
      <trkpt lat="49.33898" lon="-0.57778">
        <ele>5.5</ele>
        <time>2021-08-18T08:21:01Z</time>
      </trkpt>
      <trkpt lat="49.339" lon="-0.57799">
        <ele>5.4</ele>
        <time>2021-08-18T08:21:03Z</time>
      </trkpt>
      <trkpt lat="49.33901" lon="-0.57809">
        <ele>5.3</ele>
        <time>2021-08-18T08:21:04Z</time>
      </trkpt>
      <trkpt lat="49.33903" lon="-0.57829">
        <ele>5.3</ele>
        <time>2021-08-18T08:21:06Z</time>
      </trkpt>
      <trkpt lat="49.33904" lon="-0.57839">
        <ele>5.2</ele>
        <time>2021-08-18T08:21:07Z</time>
      </trkpt>
      <trkpt lat="49.33907" lon="-0.57857">
        <ele>5.2</ele>
        <time>2021-08-18T08:21:09Z</time>
      </trkpt>
      <trkpt lat="49.33908" lon="-0.57865">
        <ele>5.2</ele>
        <time>2021-08-18T08:21:10Z</time>
      </trkpt>
      <trkpt lat="49.33912" lon="-0.5788">
        <ele>5.1</ele>
        <time>2021-08-18T08:21:12Z</time>
      </trkpt>
      <trkpt lat="49.33914" lon="-0.57894">
        <ele>5.1</ele>
        <time>2021-08-18T08:21:14Z</time>
      </trkpt>
      <trkpt lat="49.33914" lon="-0.57897">
        <ele>5.1</ele>
        <time>2021-08-18T08:21:16Z</time>
      </trkpt>
      <trkpt lat="49.33914" lon="-0.57895">
        <ele>5.1</ele>
        <time>2021-08-18T08:21:18Z</time>
      </trkpt>
      <trkpt lat="49.33914" lon="-0.57895">
        <ele>5</ele>
        <time>2021-08-18T08:21:20Z</time>
      </trkpt>
      <trkpt lat="49.33914" lon="-0.57895">
        <ele>5</ele>
        <time>2021-08-18T08:21:22Z</time>
      </trkpt>
      <trkpt lat="49.33914" lon="-0.57895">
        <ele>5</ele>
        <time>2021-08-18T08:21:24Z</time>
      </trkpt>
      <trkpt lat="49.33914" lon="-0.57901">
        <ele>5</ele>
        <time>2021-08-18T08:21:33Z</time>
      </trkpt>
      <trkpt lat="49.33913" lon="-0.57909">
        <ele>5</ele>
        <time>2021-08-18T08:21:35Z</time>
      </trkpt>
      <trkpt lat="49.33913" lon="-0.57914">
        <ele>5</ele>
        <time>2021-08-18T08:21:36Z</time>
      </trkpt>
      <trkpt lat="49.33913" lon="-0.57916">
        <ele>5</ele>
        <time>2021-08-18T08:21:37Z</time>
      </trkpt>
      <trkpt lat="49.33913" lon="-0.5792">
        <ele>5</ele>
        <time>2021-08-18T08:21:38Z</time>
      </trkpt>
      <trkpt lat="49.33913" lon="-0.57933">
        <ele>4.9</ele>
        <time>2021-08-18T08:21:40Z</time>
      </trkpt>
      <trkpt lat="49.33914" lon="-0.5794">
        <ele>4.9</ele>
        <time>2021-08-18T08:21:41Z</time>
      </trkpt>
      <trkpt lat="49.33915" lon="-0.57961">
        <ele>4.8</ele>
        <time>2021-08-18T08:21:43Z</time>
      </trkpt>
      <trkpt lat="49.33916" lon="-0.57982">
        <ele>4.7</ele>
        <time>2021-08-18T08:21:45Z</time>
      </trkpt>
      <trkpt lat="49.33917" lon="-0.57992">
        <ele>4.7</ele>
        <time>2021-08-18T08:21:46Z</time>
      </trkpt>
      <trkpt lat="49.33919" lon="-0.58012">
        <ele>4.6</ele>
        <time>2021-08-18T08:21:48Z</time>
      </trkpt>
      <trkpt lat="49.3392" lon="-0.58023">
        <ele>4.5</ele>
        <time>2021-08-18T08:21:49Z</time>
      </trkpt>
      <trkpt lat="49.33922" lon="-0.58043">
        <ele>4.4</ele>
        <time>2021-08-18T08:21:51Z</time>
      </trkpt>
      <trkpt lat="49.33923" lon="-0.58053">
        <ele>4.3</ele>
        <time>2021-08-18T08:21:52Z</time>
      </trkpt>
      <trkpt lat="49.33925" lon="-0.58072">
        <ele>4.2</ele>
        <time>2021-08-18T08:21:54Z</time>
      </trkpt>
      <trkpt lat="49.33927" lon="-0.58093">
        <ele>4</ele>
        <time>2021-08-18T08:21:56Z</time>
      </trkpt>
      <trkpt lat="49.33928" lon="-0.58113">
        <ele>3.9</ele>
        <time>2021-08-18T08:21:58Z</time>
      </trkpt>
      <trkpt lat="49.33929" lon="-0.58123">
        <ele>3.8</ele>
        <time>2021-08-18T08:21:59Z</time>
      </trkpt>
      <trkpt lat="49.3393" lon="-0.58133">
        <ele>3.7</ele>
        <time>2021-08-18T08:22:00Z</time>
      </trkpt>
      <trkpt lat="49.33932" lon="-0.58155">
        <ele>3.6</ele>
        <time>2021-08-18T08:22:02Z</time>
      </trkpt>
      <trkpt lat="49.33935" lon="-0.58177">
        <ele>3.5</ele>
        <time>2021-08-18T08:22:04Z</time>
      </trkpt>
      <trkpt lat="49.33936" lon="-0.58188">
        <ele>3.5</ele>
        <time>2021-08-18T08:22:05Z</time>
      </trkpt>
      <trkpt lat="49.33937" lon="-0.58199">
        <ele>3.4</ele>
        <time>2021-08-18T08:22:06Z</time>
      </trkpt>
      <trkpt lat="49.33938" lon="-0.5821">
        <ele>3.4</ele>
        <time>2021-08-18T08:22:07Z</time>
      </trkpt>
      <trkpt lat="49.33941" lon="-0.58232">
        <ele>3.4</ele>
        <time>2021-08-18T08:22:09Z</time>
      </trkpt>
      <trkpt lat="49.33943" lon="-0.58242">
        <ele>3.4</ele>
        <time>2021-08-18T08:22:10Z</time>
      </trkpt>
      <trkpt lat="49.33945" lon="-0.58264">
        <ele>3.4</ele>
        <time>2021-08-18T08:22:12Z</time>
      </trkpt>
      <trkpt lat="49.33948" lon="-0.58285">
        <ele>3.5</ele>
        <time>2021-08-18T08:22:14Z</time>
      </trkpt>
      <trkpt lat="49.3395" lon="-0.58308">
        <ele>3.5</ele>
        <time>2021-08-18T08:22:16Z</time>
      </trkpt>
      <trkpt lat="49.33952" lon="-0.5833">
        <ele>3.6</ele>
        <time>2021-08-18T08:22:18Z</time>
      </trkpt>
      <trkpt lat="49.33954" lon="-0.58352">
        <ele>3.6</ele>
        <time>2021-08-18T08:22:20Z</time>
      </trkpt>
      <trkpt lat="49.33956" lon="-0.58374">
        <ele>3.7</ele>
        <time>2021-08-18T08:22:22Z</time>
      </trkpt>
      <trkpt lat="49.33957" lon="-0.58385">
        <ele>3.8</ele>
        <time>2021-08-18T08:22:23Z</time>
      </trkpt>
      <trkpt lat="49.33959" lon="-0.58408">
        <ele>3.9</ele>
        <time>2021-08-18T08:22:25Z</time>
      </trkpt>
      <trkpt lat="49.33961" lon="-0.5843">
        <ele>4</ele>
        <time>2021-08-18T08:22:27Z</time>
      </trkpt>
      <trkpt lat="49.33964" lon="-0.58453">
        <ele>4.1</ele>
        <time>2021-08-18T08:22:29Z</time>
      </trkpt>
      <trkpt lat="49.33967" lon="-0.58475">
        <ele>4.2</ele>
        <time>2021-08-18T08:22:31Z</time>
      </trkpt>
      <trkpt lat="49.33969" lon="-0.58486">
        <ele>4.3</ele>
        <time>2021-08-18T08:22:32Z</time>
      </trkpt>
      <trkpt lat="49.33972" lon="-0.58509">
        <ele>4.4</ele>
        <time>2021-08-18T08:22:34Z</time>
      </trkpt>
      <trkpt lat="49.33973" lon="-0.5852">
        <ele>4.5</ele>
        <time>2021-08-18T08:22:35Z</time>
      </trkpt>
      <trkpt lat="49.33975" lon="-0.58541">
        <ele>4.6</ele>
        <time>2021-08-18T08:22:37Z</time>
      </trkpt>
      <trkpt lat="49.33976" lon="-0.58552">
        <ele>4.6</ele>
        <time>2021-08-18T08:22:38Z</time>
      </trkpt>
      <trkpt lat="49.33976" lon="-0.58563">
        <ele>4.7</ele>
        <time>2021-08-18T08:22:39Z</time>
      </trkpt>
      <trkpt lat="49.33979" lon="-0.58583">
        <ele>4.7</ele>
        <time>2021-08-18T08:22:41Z</time>
      </trkpt>
      <trkpt lat="49.3398" lon="-0.58603">
        <ele>4.8</ele>
        <time>2021-08-18T08:22:43Z</time>
      </trkpt>
      <trkpt lat="49.33982" lon="-0.58613">
        <ele>4.8</ele>
        <time>2021-08-18T08:22:44Z</time>
      </trkpt>
      <trkpt lat="49.33984" lon="-0.58633">
        <ele>4.9</ele>
        <time>2021-08-18T08:22:46Z</time>
      </trkpt>
      <trkpt lat="49.33984" lon="-0.58644">
        <ele>4.9</ele>
        <time>2021-08-18T08:22:47Z</time>
      </trkpt>
      <trkpt lat="49.33985" lon="-0.58654">
        <ele>5</ele>
        <time>2021-08-18T08:22:48Z</time>
      </trkpt>
      <trkpt lat="49.33985" lon="-0.58664">
        <ele>5</ele>
        <time>2021-08-18T08:22:49Z</time>
      </trkpt>
      <trkpt lat="49.33983" lon="-0.58684">
        <ele>5</ele>
        <time>2021-08-18T08:22:51Z</time>
      </trkpt>
      <trkpt lat="49.33982" lon="-0.58694">
        <ele>5</ele>
        <time>2021-08-18T08:22:52Z</time>
      </trkpt>
      <trkpt lat="49.33982" lon="-0.58704">
        <ele>5</ele>
        <time>2021-08-18T08:22:53Z</time>
      </trkpt>
      <trkpt lat="49.33981" lon="-0.58725">
        <ele>5.1</ele>
        <time>2021-08-18T08:22:55Z</time>
      </trkpt>
      <trkpt lat="49.33981" lon="-0.58735">
        <ele>5.1</ele>
        <time>2021-08-18T08:22:56Z</time>
      </trkpt>
      <trkpt lat="49.33981" lon="-0.58756">
        <ele>5.1</ele>
        <time>2021-08-18T08:22:58Z</time>
      </trkpt>
      <trkpt lat="49.33981" lon="-0.58777">
        <ele>5.1</ele>
        <time>2021-08-18T08:23:00Z</time>
      </trkpt>
      <trkpt lat="49.33981" lon="-0.58787">
        <ele>5.1</ele>
        <time>2021-08-18T08:23:01Z</time>
      </trkpt>
      <trkpt lat="49.33981" lon="-0.58798">
        <ele>5.1</ele>
        <time>2021-08-18T08:23:02Z</time>
      </trkpt>
      <trkpt lat="49.33983" lon="-0.58819">
        <ele>5.1</ele>
        <time>2021-08-18T08:23:04Z</time>
      </trkpt>
      <trkpt lat="49.33984" lon="-0.5884">
        <ele>5.1</ele>
        <time>2021-08-18T08:23:06Z</time>
      </trkpt>
      <trkpt lat="49.33984" lon="-0.58851">
        <ele>5.1</ele>
        <time>2021-08-18T08:23:07Z</time>
      </trkpt>
      <trkpt lat="49.33984" lon="-0.58862">
        <ele>5.1</ele>
        <time>2021-08-18T08:23:08Z</time>
      </trkpt>
      <trkpt lat="49.33985" lon="-0.58883">
        <ele>5.1</ele>
        <time>2021-08-18T08:23:10Z</time>
      </trkpt>
      <trkpt lat="49.33986" lon="-0.58893">
        <ele>5</ele>
        <time>2021-08-18T08:23:11Z</time>
      </trkpt>
      <trkpt lat="49.33986" lon="-0.58914">
        <ele>5</ele>
        <time>2021-08-18T08:23:13Z</time>
      </trkpt>
      <trkpt lat="49.33987" lon="-0.58924">
        <ele>5</ele>
        <time>2021-08-18T08:23:14Z</time>
      </trkpt>
      <trkpt lat="49.33987" lon="-0.58935">
        <ele>4.9</ele>
        <time>2021-08-18T08:23:15Z</time>
      </trkpt>
      <trkpt lat="49.33987" lon="-0.58955">
        <ele>4.9</ele>
        <time>2021-08-18T08:23:17Z</time>
      </trkpt>
      <trkpt lat="49.33986" lon="-0.58966">
        <ele>4.9</ele>
        <time>2021-08-18T08:23:18Z</time>
      </trkpt>
      <trkpt lat="49.33986" lon="-0.58977">
        <ele>4.8</ele>
        <time>2021-08-18T08:23:19Z</time>
      </trkpt>
      <trkpt lat="49.33986" lon="-0.58987">
        <ele>4.8</ele>
        <time>2021-08-18T08:23:20Z</time>
      </trkpt>
      <trkpt lat="49.33987" lon="-0.59007">
        <ele>4.8</ele>
        <time>2021-08-18T08:23:22Z</time>
      </trkpt>
      <trkpt lat="49.33988" lon="-0.59028">
        <ele>4.7</ele>
        <time>2021-08-18T08:23:24Z</time>
      </trkpt>
      <trkpt lat="49.3399" lon="-0.59049">
        <ele>4.7</ele>
        <time>2021-08-18T08:23:26Z</time>
      </trkpt>
      <trkpt lat="49.3399" lon="-0.5906">
        <ele>4.7</ele>
        <time>2021-08-18T08:23:27Z</time>
      </trkpt>
      <trkpt lat="49.3399" lon="-0.5907">
        <ele>4.7</ele>
        <time>2021-08-18T08:23:28Z</time>
      </trkpt>
      <trkpt lat="49.3399" lon="-0.59091">
        <ele>4.7</ele>
        <time>2021-08-18T08:23:30Z</time>
      </trkpt>
      <trkpt lat="49.33991" lon="-0.59111">
        <ele>4.7</ele>
        <time>2021-08-18T08:23:32Z</time>
      </trkpt>
      <trkpt lat="49.33991" lon="-0.59132">
        <ele>4.7</ele>
        <time>2021-08-18T08:23:34Z</time>
      </trkpt>
      <trkpt lat="49.33992" lon="-0.59154">
        <ele>4.7</ele>
        <time>2021-08-18T08:23:36Z</time>
      </trkpt>
      <trkpt lat="49.33992" lon="-0.59165">
        <ele>4.7</ele>
        <time>2021-08-18T08:23:37Z</time>
      </trkpt>
      <trkpt lat="49.33992" lon="-0.59188">
        <ele>4.7</ele>
        <time>2021-08-18T08:23:39Z</time>
      </trkpt>
      <trkpt lat="49.33992" lon="-0.59199">
        <ele>4.7</ele>
        <time>2021-08-18T08:23:40Z</time>
      </trkpt>
      <trkpt lat="49.33993" lon="-0.59221">
        <ele>4.7</ele>
        <time>2021-08-18T08:23:42Z</time>
      </trkpt>
      <trkpt lat="49.33993" lon="-0.59243">
        <ele>4.7</ele>
        <time>2021-08-18T08:23:44Z</time>
      </trkpt>
      <trkpt lat="49.33993" lon="-0.59254">
        <ele>4.7</ele>
        <time>2021-08-18T08:23:45Z</time>
      </trkpt>
      <trkpt lat="49.33993" lon="-0.59276">
        <ele>4.8</ele>
        <time>2021-08-18T08:23:47Z</time>
      </trkpt>
      <trkpt lat="49.33993" lon="-0.59288">
        <ele>4.8</ele>
        <time>2021-08-18T08:23:48Z</time>
      </trkpt>
      <trkpt lat="49.33993" lon="-0.59309">
        <ele>4.8</ele>
        <time>2021-08-18T08:23:50Z</time>
      </trkpt>
      <trkpt lat="49.33992" lon="-0.59331">
        <ele>4.8</ele>
        <time>2021-08-18T08:23:52Z</time>
      </trkpt>
      <trkpt lat="49.33991" lon="-0.59353">
        <ele>4.8</ele>
        <time>2021-08-18T08:23:54Z</time>
      </trkpt>
      <trkpt lat="49.3399" lon="-0.59364">
        <ele>4.8</ele>
        <time>2021-08-18T08:23:55Z</time>
      </trkpt>
      <trkpt lat="49.33989" lon="-0.59375">
        <ele>4.8</ele>
        <time>2021-08-18T08:23:56Z</time>
      </trkpt>
      <trkpt lat="49.33988" lon="-0.59397">
        <ele>4.9</ele>
        <time>2021-08-18T08:23:58Z</time>
      </trkpt>
      <trkpt lat="49.33987" lon="-0.59419">
        <ele>4.9</ele>
        <time>2021-08-18T08:24:00Z</time>
      </trkpt>
      <trkpt lat="49.33987" lon="-0.59431">
        <ele>4.9</ele>
        <time>2021-08-18T08:24:01Z</time>
      </trkpt>
      <trkpt lat="49.33985" lon="-0.59452">
        <ele>4.9</ele>
        <time>2021-08-18T08:24:03Z</time>
      </trkpt>
      <trkpt lat="49.33983" lon="-0.59474">
        <ele>4.9</ele>
        <time>2021-08-18T08:24:05Z</time>
      </trkpt>
      <trkpt lat="49.3398" lon="-0.59496">
        <ele>5</ele>
        <time>2021-08-18T08:24:07Z</time>
      </trkpt>
      <trkpt lat="49.33975" lon="-0.59517">
        <ele>5</ele>
        <time>2021-08-18T08:24:09Z</time>
      </trkpt>
      <trkpt lat="49.33973" lon="-0.59528">
        <ele>5</ele>
        <time>2021-08-18T08:24:10Z</time>
      </trkpt>
      <trkpt lat="49.33969" lon="-0.59549">
        <ele>5</ele>
        <time>2021-08-18T08:24:12Z</time>
      </trkpt>
      <trkpt lat="49.33963" lon="-0.59568">
        <ele>5.1</ele>
        <time>2021-08-18T08:24:14Z</time>
      </trkpt>
      <trkpt lat="49.3396" lon="-0.59578">
        <ele>5.1</ele>
        <time>2021-08-18T08:24:15Z</time>
      </trkpt>
      <trkpt lat="49.33956" lon="-0.59587">
        <ele>5.2</ele>
        <time>2021-08-18T08:24:16Z</time>
      </trkpt>
      <trkpt lat="49.33953" lon="-0.59596">
        <ele>5.2</ele>
        <time>2021-08-18T08:24:17Z</time>
      </trkpt>
      <trkpt lat="49.33946" lon="-0.59614">
        <ele>5.2</ele>
        <time>2021-08-18T08:24:19Z</time>
      </trkpt>
      <trkpt lat="49.33938" lon="-0.59632">
        <ele>5.2</ele>
        <time>2021-08-18T08:24:21Z</time>
      </trkpt>
      <trkpt lat="49.3393" lon="-0.59649">
        <ele>5.2</ele>
        <time>2021-08-18T08:24:23Z</time>
      </trkpt>
      <trkpt lat="49.33926" lon="-0.59658">
        <ele>5.2</ele>
        <time>2021-08-18T08:24:24Z</time>
      </trkpt>
      <trkpt lat="49.33917" lon="-0.59675">
        <ele>5.3</ele>
        <time>2021-08-18T08:24:26Z</time>
      </trkpt>
      <trkpt lat="49.33913" lon="-0.59684">
        <ele>5.2</ele>
        <time>2021-08-18T08:24:27Z</time>
      </trkpt>
      <trkpt lat="49.33904" lon="-0.59701">
        <ele>5.2</ele>
        <time>2021-08-18T08:24:29Z</time>
      </trkpt>
      <trkpt lat="49.33895" lon="-0.59719">
        <ele>5.2</ele>
        <time>2021-08-18T08:24:31Z</time>
      </trkpt>
      <trkpt lat="49.33886" lon="-0.59739">
        <ele>5.1</ele>
        <time>2021-08-18T08:24:33Z</time>
      </trkpt>
      <trkpt lat="49.33877" lon="-0.59757">
        <ele>5.1</ele>
        <time>2021-08-18T08:24:35Z</time>
      </trkpt>
      <trkpt lat="49.33872" lon="-0.59767">
        <ele>5.1</ele>
        <time>2021-08-18T08:24:36Z</time>
      </trkpt>
      <trkpt lat="49.33863" lon="-0.59786">
        <ele>5</ele>
        <time>2021-08-18T08:24:38Z</time>
      </trkpt>
      <trkpt lat="49.33855" lon="-0.59805">
        <ele>4.9</ele>
        <time>2021-08-18T08:24:40Z</time>
      </trkpt>
      <trkpt lat="49.33851" lon="-0.59815">
        <ele>4.9</ele>
        <time>2021-08-18T08:24:41Z</time>
      </trkpt>
      <trkpt lat="49.33842" lon="-0.59834">
        <ele>4.8</ele>
        <time>2021-08-18T08:24:43Z</time>
      </trkpt>
      <trkpt lat="49.33838" lon="-0.59844">
        <ele>4.8</ele>
        <time>2021-08-18T08:24:44Z</time>
      </trkpt>
      <trkpt lat="49.33834" lon="-0.59853">
        <ele>4.8</ele>
        <time>2021-08-18T08:24:45Z</time>
      </trkpt>
      <trkpt lat="49.33827" lon="-0.59873">
        <ele>4.8</ele>
        <time>2021-08-18T08:24:47Z</time>
      </trkpt>
      <trkpt lat="49.33824" lon="-0.59883">
        <ele>4.8</ele>
        <time>2021-08-18T08:24:48Z</time>
      </trkpt>
      <trkpt lat="49.33817" lon="-0.59903">
        <ele>4.8</ele>
        <time>2021-08-18T08:24:50Z</time>
      </trkpt>
      <trkpt lat="49.33811" lon="-0.59923">
        <ele>4.8</ele>
        <time>2021-08-18T08:24:52Z</time>
      </trkpt>
      <trkpt lat="49.33806" lon="-0.59944">
        <ele>4.8</ele>
        <time>2021-08-18T08:24:54Z</time>
      </trkpt>
      <trkpt lat="49.33803" lon="-0.59955">
        <ele>4.8</ele>
        <time>2021-08-18T08:24:55Z</time>
      </trkpt>
      <trkpt lat="49.33798" lon="-0.59976">
        <ele>4.8</ele>
        <time>2021-08-18T08:24:57Z</time>
      </trkpt>
      <trkpt lat="49.33794" lon="-0.59996">
        <ele>4.8</ele>
        <time>2021-08-18T08:24:59Z</time>
      </trkpt>
      <trkpt lat="49.33789" lon="-0.60018">
        <ele>4.8</ele>
        <time>2021-08-18T08:25:01Z</time>
      </trkpt>
      <trkpt lat="49.33787" lon="-0.60029">
        <ele>4.8</ele>
        <time>2021-08-18T08:25:02Z</time>
      </trkpt>
      <trkpt lat="49.33784" lon="-0.6005">
        <ele>4.8</ele>
        <time>2021-08-18T08:25:04Z</time>
      </trkpt>
      <trkpt lat="49.33782" lon="-0.60061">
        <ele>4.9</ele>
        <time>2021-08-18T08:25:05Z</time>
      </trkpt>
      <trkpt lat="49.33779" lon="-0.60082">
        <ele>4.9</ele>
        <time>2021-08-18T08:25:07Z</time>
      </trkpt>
      <trkpt lat="49.33778" lon="-0.60093">
        <ele>4.9</ele>
        <time>2021-08-18T08:25:08Z</time>
      </trkpt>
      <trkpt lat="49.33776" lon="-0.60114">
        <ele>5</ele>
        <time>2021-08-18T08:25:10Z</time>
      </trkpt>
      <trkpt lat="49.33775" lon="-0.60135">
        <ele>5.2</ele>
        <time>2021-08-18T08:25:12Z</time>
      </trkpt>
      <trkpt lat="49.33775" lon="-0.60146">
        <ele>5.3</ele>
        <time>2021-08-18T08:25:13Z</time>
      </trkpt>
      <trkpt lat="49.33774" lon="-0.60166">
        <ele>5.5</ele>
        <time>2021-08-18T08:25:15Z</time>
      </trkpt>
      <trkpt lat="49.33774" lon="-0.60186">
        <ele>5.7</ele>
        <time>2021-08-18T08:25:17Z</time>
      </trkpt>
      <trkpt lat="49.33774" lon="-0.60206">
        <ele>6</ele>
        <time>2021-08-18T08:25:19Z</time>
      </trkpt>
      <trkpt lat="49.33774" lon="-0.60227">
        <ele>6.3</ele>
        <time>2021-08-18T08:25:21Z</time>
      </trkpt>
      <trkpt lat="49.33775" lon="-0.60247">
        <ele>6.6</ele>
        <time>2021-08-18T08:25:23Z</time>
      </trkpt>
      <trkpt lat="49.33776" lon="-0.60266">
        <ele>7</ele>
        <time>2021-08-18T08:25:25Z</time>
      </trkpt>
      <trkpt lat="49.33777" lon="-0.60275">
        <ele>7.3</ele>
        <time>2021-08-18T08:25:26Z</time>
      </trkpt>
      <trkpt lat="49.33778" lon="-0.60293">
        <ele>7.8</ele>
        <time>2021-08-18T08:25:28Z</time>
      </trkpt>
      <trkpt lat="49.33779" lon="-0.60302">
        <ele>8.1</ele>
        <time>2021-08-18T08:25:29Z</time>
      </trkpt>
      <trkpt lat="49.33779" lon="-0.60311">
        <ele>8.4</ele>
        <time>2021-08-18T08:25:30Z</time>
      </trkpt>
      <trkpt lat="49.33781" lon="-0.60327">
        <ele>8.9</ele>
        <time>2021-08-18T08:25:32Z</time>
      </trkpt>
      <trkpt lat="49.33782" lon="-0.60335">
        <ele>9.2</ele>
        <time>2021-08-18T08:25:33Z</time>
      </trkpt>
      <trkpt lat="49.33784" lon="-0.6035">
        <ele>9.8</ele>
        <time>2021-08-18T08:25:35Z</time>
      </trkpt>
      <trkpt lat="49.33786" lon="-0.60365">
        <ele>10.4</ele>
        <time>2021-08-18T08:25:37Z</time>
      </trkpt>
      <trkpt lat="49.33789" lon="-0.6038">
        <ele>11.2</ele>
        <time>2021-08-18T08:25:39Z</time>
      </trkpt>
      <trkpt lat="49.33792" lon="-0.60395">
        <ele>11.9</ele>
        <time>2021-08-18T08:25:41Z</time>
      </trkpt>
      <trkpt lat="49.33794" lon="-0.60409">
        <ele>12.7</ele>
        <time>2021-08-18T08:25:43Z</time>
      </trkpt>
      <trkpt lat="49.33796" lon="-0.60416">
        <ele>13.1</ele>
        <time>2021-08-18T08:25:44Z</time>
      </trkpt>
      <trkpt lat="49.33797" lon="-0.60422">
        <ele>13.5</ele>
        <time>2021-08-18T08:25:45Z</time>
      </trkpt>
      <trkpt lat="49.33799" lon="-0.60432">
        <ele>14.2</ele>
        <time>2021-08-18T08:25:47Z</time>
      </trkpt>
      <trkpt lat="49.33803" lon="-0.60443">
        <ele>14.9</ele>
        <time>2021-08-18T08:25:49Z</time>
      </trkpt>
      <trkpt lat="49.33805" lon="-0.60448">
        <ele>15.2</ele>
        <time>2021-08-18T08:25:50Z</time>
      </trkpt>
      <trkpt lat="49.33808" lon="-0.6046">
        <ele>15.9</ele>
        <time>2021-08-18T08:25:52Z</time>
      </trkpt>
      <trkpt lat="49.33809" lon="-0.60464">
        <ele>16.1</ele>
        <time>2021-08-18T08:25:53Z</time>
      </trkpt>
      <trkpt lat="49.33811" lon="-0.60471">
        <ele>16.5</ele>
        <time>2021-08-18T08:25:54Z</time>
      </trkpt>
      <trkpt lat="49.33814" lon="-0.60482">
        <ele>17.1</ele>
        <time>2021-08-18T08:25:56Z</time>
      </trkpt>
      <trkpt lat="49.33815" lon="-0.60487">
        <ele>17.5</ele>
        <time>2021-08-18T08:25:57Z</time>
      </trkpt>
      <trkpt lat="49.33818" lon="-0.60498">
        <ele>18.1</ele>
        <time>2021-08-18T08:25:59Z</time>
      </trkpt>
      <trkpt lat="49.3382" lon="-0.60503">
        <ele>18.4</ele>
        <time>2021-08-18T08:26:00Z</time>
      </trkpt>
      <trkpt lat="49.33823" lon="-0.60514">
        <ele>19</ele>
        <time>2021-08-18T08:26:02Z</time>
      </trkpt>
      <trkpt lat="49.33823" lon="-0.60515">
        <ele>19.1</ele>
        <time>2021-08-18T08:26:04Z</time>
      </trkpt>
      <trkpt lat="49.33824" lon="-0.60518">
        <ele>19.3</ele>
        <time>2021-08-18T08:26:05Z</time>
      </trkpt>
      <trkpt lat="49.33829" lon="-0.60533">
        <ele>20.2</ele>
        <time>2021-08-18T08:26:07Z</time>
      </trkpt>
      <trkpt lat="49.33834" lon="-0.60549">
        <ele>21.1</ele>
        <time>2021-08-18T08:26:09Z</time>
      </trkpt>
      <trkpt lat="49.33838" lon="-0.6056">
        <ele>21.8</ele>
        <time>2021-08-18T08:26:11Z</time>
      </trkpt>
      <trkpt lat="49.33839" lon="-0.60565">
        <ele>22.1</ele>
        <time>2021-08-18T08:26:12Z</time>
      </trkpt>
      <trkpt lat="49.33841" lon="-0.6057">
        <ele>22.4</ele>
        <time>2021-08-18T08:26:13Z</time>
      </trkpt>
      <trkpt lat="49.33844" lon="-0.60581">
        <ele>23</ele>
        <time>2021-08-18T08:26:15Z</time>
      </trkpt>
      <trkpt lat="49.33847" lon="-0.60591">
        <ele>23.7</ele>
        <time>2021-08-18T08:26:17Z</time>
      </trkpt>
      <trkpt lat="49.33848" lon="-0.60596">
        <ele>24</ele>
        <time>2021-08-18T08:26:18Z</time>
      </trkpt>
      <trkpt lat="49.33852" lon="-0.60606">
        <ele>24.6</ele>
        <time>2021-08-18T08:26:20Z</time>
      </trkpt>
      <trkpt lat="49.33855" lon="-0.60616">
        <ele>25.2</ele>
        <time>2021-08-18T08:26:22Z</time>
      </trkpt>
      <trkpt lat="49.33856" lon="-0.60621">
        <ele>25.5</ele>
        <time>2021-08-18T08:26:23Z</time>
      </trkpt>
      <trkpt lat="49.33859" lon="-0.60629">
        <ele>26</ele>
        <time>2021-08-18T08:26:25Z</time>
      </trkpt>
      <trkpt lat="49.33863" lon="-0.60638">
        <ele>26.6</ele>
        <time>2021-08-18T08:26:27Z</time>
      </trkpt>
      <trkpt lat="49.33865" lon="-0.60643">
        <ele>26.9</ele>
        <time>2021-08-18T08:26:28Z</time>
      </trkpt>
      <trkpt lat="49.33865" lon="-0.60645">
        <ele>27.1</ele>
        <time>2021-08-18T08:26:30Z</time>
      </trkpt>
      <trkpt lat="49.33866" lon="-0.60649">
        <ele>27.3</ele>
        <time>2021-08-18T08:26:32Z</time>
      </trkpt>
      <trkpt lat="49.33869" lon="-0.60659">
        <ele>27.9</ele>
        <time>2021-08-18T08:26:33Z</time>
      </trkpt>
      <trkpt lat="49.33874" lon="-0.60676">
        <ele>29</ele>
        <time>2021-08-18T08:26:35Z</time>
      </trkpt>
      <trkpt lat="49.33877" lon="-0.60685">
        <ele>29.6</ele>
        <time>2021-08-18T08:26:37Z</time>
      </trkpt>
      <trkpt lat="49.33879" lon="-0.6069">
        <ele>29.9</ele>
        <time>2021-08-18T08:26:38Z</time>
      </trkpt>
      <trkpt lat="49.33881" lon="-0.607">
        <ele>30.4</ele>
        <time>2021-08-18T08:26:40Z</time>
      </trkpt>
      <trkpt lat="49.33882" lon="-0.60704">
        <ele>30.7</ele>
        <time>2021-08-18T08:26:41Z</time>
      </trkpt>
      <trkpt lat="49.33884" lon="-0.60713">
        <ele>31.2</ele>
        <time>2021-08-18T08:26:43Z</time>
      </trkpt>
      <trkpt lat="49.33885" lon="-0.6072">
        <ele>31.7</ele>
        <time>2021-08-18T08:26:45Z</time>
      </trkpt>
      <trkpt lat="49.33888" lon="-0.60729">
        <ele>32.2</ele>
        <time>2021-08-18T08:26:47Z</time>
      </trkpt>
      <trkpt lat="49.3389" lon="-0.6074">
        <ele>32.9</ele>
        <time>2021-08-18T08:26:49Z</time>
      </trkpt>
      <trkpt lat="49.33891" lon="-0.60745">
        <ele>33.2</ele>
        <time>2021-08-18T08:26:50Z</time>
      </trkpt>
      <trkpt lat="49.33892" lon="-0.60754">
        <ele>33.7</ele>
        <time>2021-08-18T08:26:52Z</time>
      </trkpt>
      <trkpt lat="49.33893" lon="-0.60759">
        <ele>34</ele>
        <time>2021-08-18T08:26:53Z</time>
      </trkpt>
      <trkpt lat="49.33894" lon="-0.60765">
        <ele>34.3</ele>
        <time>2021-08-18T08:26:55Z</time>
      </trkpt>
      <trkpt lat="49.33894" lon="-0.60765">
        <ele>34.3</ele>
        <time>2021-08-18T08:26:56Z</time>
      </trkpt>
      <trkpt lat="49.33894" lon="-0.60765">
        <ele>34.3</ele>
        <time>2021-08-18T08:26:57Z</time>
      </trkpt>
      <trkpt lat="49.33896" lon="-0.60778">
        <ele>35.1</ele>
        <time>2021-08-18T08:26:59Z</time>
      </trkpt>
      <trkpt lat="49.33896" lon="-0.60784">
        <ele>35.4</ele>
        <time>2021-08-18T08:27:00Z</time>
      </trkpt>
      <trkpt lat="49.33897" lon="-0.60793">
        <ele>35.9</ele>
        <time>2021-08-18T08:27:02Z</time>
      </trkpt>
      <trkpt lat="49.33898" lon="-0.60801">
        <ele>36.3</ele>
        <time>2021-08-18T08:27:03Z</time>
      </trkpt>
      <trkpt lat="49.33898" lon="-0.6081">
        <ele>36.9</ele>
        <time>2021-08-18T08:27:04Z</time>
      </trkpt>
      <trkpt lat="49.33898" lon="-0.60822">
        <ele>37.5</ele>
        <time>2021-08-18T08:27:06Z</time>
      </trkpt>
      <trkpt lat="49.33897" lon="-0.60827">
        <ele>37.8</ele>
        <time>2021-08-18T08:27:07Z</time>
      </trkpt>
      <trkpt lat="49.33896" lon="-0.60839">
        <ele>38.5</ele>
        <time>2021-08-18T08:27:09Z</time>
      </trkpt>
      <trkpt lat="49.33896" lon="-0.60844">
        <ele>38.7</ele>
        <time>2021-08-18T08:27:10Z</time>
      </trkpt>
      <trkpt lat="49.33895" lon="-0.60854">
        <ele>39.1</ele>
        <time>2021-08-18T08:27:12Z</time>
      </trkpt>
      <trkpt lat="49.33894" lon="-0.60864">
        <ele>39.6</ele>
        <time>2021-08-18T08:27:14Z</time>
      </trkpt>
      <trkpt lat="49.33894" lon="-0.60874">
        <ele>40.1</ele>
        <time>2021-08-18T08:27:16Z</time>
      </trkpt>
      <trkpt lat="49.33894" lon="-0.60883">
        <ele>40.7</ele>
        <time>2021-08-18T08:27:18Z</time>
      </trkpt>
      <trkpt lat="49.33893" lon="-0.60889">
        <ele>40.9</ele>
        <time>2021-08-18T08:27:19Z</time>
      </trkpt>
      <trkpt lat="49.33893" lon="-0.60895">
        <ele>41.2</ele>
        <time>2021-08-18T08:27:20Z</time>
      </trkpt>
      <trkpt lat="49.33892" lon="-0.60908">
        <ele>41.8</ele>
        <time>2021-08-18T08:27:22Z</time>
      </trkpt>
      <trkpt lat="49.33891" lon="-0.60921">
        <ele>42.4</ele>
        <time>2021-08-18T08:27:24Z</time>
      </trkpt>
      <trkpt lat="49.33891" lon="-0.60923">
        <ele>42.5</ele>
        <time>2021-08-18T08:27:25Z</time>
      </trkpt>
      <trkpt lat="49.33891" lon="-0.60923">
        <ele>42.5</ele>
        <time>2021-08-18T08:27:26Z</time>
      </trkpt>
      <trkpt lat="49.3389" lon="-0.60936">
        <ele>43</ele>
        <time>2021-08-18T08:27:28Z</time>
      </trkpt>
      <trkpt lat="49.33889" lon="-0.60945">
        <ele>43.4</ele>
        <time>2021-08-18T08:27:29Z</time>
      </trkpt>
      <trkpt lat="49.33888" lon="-0.60964">
        <ele>44.2</ele>
        <time>2021-08-18T08:27:31Z</time>
      </trkpt>
      <trkpt lat="49.33886" lon="-0.60977">
        <ele>44.7</ele>
        <time>2021-08-18T08:27:33Z</time>
      </trkpt>
      <trkpt lat="49.33886" lon="-0.60983">
        <ele>44.9</ele>
        <time>2021-08-18T08:27:34Z</time>
      </trkpt>
      <trkpt lat="49.33885" lon="-0.60989">
        <ele>45.1</ele>
        <time>2021-08-18T08:27:35Z</time>
      </trkpt>
      <trkpt lat="49.33885" lon="-0.60996">
        <ele>45.4</ele>
        <time>2021-08-18T08:27:36Z</time>
      </trkpt>
      <trkpt lat="49.33884" lon="-0.61008">
        <ele>45.8</ele>
        <time>2021-08-18T08:27:38Z</time>
      </trkpt>
      <trkpt lat="49.33883" lon="-0.61021">
        <ele>46.2</ele>
        <time>2021-08-18T08:27:40Z</time>
      </trkpt>
      <trkpt lat="49.33883" lon="-0.61027">
        <ele>46.4</ele>
        <time>2021-08-18T08:27:41Z</time>
      </trkpt>
      <trkpt lat="49.33883" lon="-0.61033">
        <ele>46.5</ele>
        <time>2021-08-18T08:27:42Z</time>
      </trkpt>
      <trkpt lat="49.33882" lon="-0.61039">
        <ele>46.7</ele>
        <time>2021-08-18T08:27:43Z</time>
      </trkpt>
      <trkpt lat="49.33882" lon="-0.61052">
        <ele>47</ele>
        <time>2021-08-18T08:27:45Z</time>
      </trkpt>
      <trkpt lat="49.33881" lon="-0.61059">
        <ele>47.1</ele>
        <time>2021-08-18T08:27:46Z</time>
      </trkpt>
      <trkpt lat="49.33881" lon="-0.6107">
        <ele>47.4</ele>
        <time>2021-08-18T08:27:48Z</time>
      </trkpt>
      <trkpt lat="49.33881" lon="-0.61078">
        <ele>47.5</ele>
        <time>2021-08-18T08:27:49Z</time>
      </trkpt>
      <trkpt lat="49.3388" lon="-0.61083">
        <ele>47.7</ele>
        <time>2021-08-18T08:27:50Z</time>
      </trkpt>
      <trkpt lat="49.3388" lon="-0.61096">
        <ele>47.9</ele>
        <time>2021-08-18T08:27:52Z</time>
      </trkpt>
      <trkpt lat="49.33879" lon="-0.61109">
        <ele>48</ele>
        <time>2021-08-18T08:27:54Z</time>
      </trkpt>
      <trkpt lat="49.33878" lon="-0.61124">
        <ele>48.2</ele>
        <time>2021-08-18T08:27:56Z</time>
      </trkpt>
      <trkpt lat="49.33877" lon="-0.61138">
        <ele>48.4</ele>
        <time>2021-08-18T08:27:58Z</time>
      </trkpt>
      <trkpt lat="49.33877" lon="-0.61146">
        <ele>48.5</ele>
        <time>2021-08-18T08:27:59Z</time>
      </trkpt>
      <trkpt lat="49.33877" lon="-0.61155">
        <ele>48.6</ele>
        <time>2021-08-18T08:28:00Z</time>
      </trkpt>
      <trkpt lat="49.33877" lon="-0.61163">
        <ele>48.7</ele>
        <time>2021-08-18T08:28:01Z</time>
      </trkpt>
      <trkpt lat="49.33876" lon="-0.61178">
        <ele>48.8</ele>
        <time>2021-08-18T08:28:03Z</time>
      </trkpt>
      <trkpt lat="49.33876" lon="-0.61194">
        <ele>49</ele>
        <time>2021-08-18T08:28:05Z</time>
      </trkpt>
      <trkpt lat="49.33877" lon="-0.6121">
        <ele>49.1</ele>
        <time>2021-08-18T08:28:07Z</time>
      </trkpt>
      <trkpt lat="49.33878" lon="-0.61218">
        <ele>49.1</ele>
        <time>2021-08-18T08:28:08Z</time>
      </trkpt>
      <trkpt lat="49.33879" lon="-0.61234">
        <ele>49.2</ele>
        <time>2021-08-18T08:28:10Z</time>
      </trkpt>
      <trkpt lat="49.33879" lon="-0.61241">
        <ele>49.3</ele>
        <time>2021-08-18T08:28:11Z</time>
      </trkpt>
      <trkpt lat="49.3388" lon="-0.6125">
        <ele>49.3</ele>
        <time>2021-08-18T08:28:12Z</time>
      </trkpt>
      <trkpt lat="49.33881" lon="-0.61259">
        <ele>49.4</ele>
        <time>2021-08-18T08:28:13Z</time>
      </trkpt>
      <trkpt lat="49.33882" lon="-0.61268">
        <ele>49.5</ele>
        <time>2021-08-18T08:28:14Z</time>
      </trkpt>
      <trkpt lat="49.33883" lon="-0.61285">
        <ele>49.7</ele>
        <time>2021-08-18T08:28:16Z</time>
      </trkpt>
      <trkpt lat="49.33884" lon="-0.61294">
        <ele>49.8</ele>
        <time>2021-08-18T08:28:17Z</time>
      </trkpt>
      <trkpt lat="49.33884" lon="-0.61303">
        <ele>49.8</ele>
        <time>2021-08-18T08:28:18Z</time>
      </trkpt>
      <trkpt lat="49.33886" lon="-0.6132">
        <ele>50.4</ele>
        <time>2021-08-18T08:28:20Z</time>
      </trkpt>
      <trkpt lat="49.33886" lon="-0.61329">
        <ele>50.4</ele>
        <time>2021-08-18T08:28:21Z</time>
      </trkpt>
      <trkpt lat="49.33888" lon="-0.61345">
        <ele>50.5</ele>
        <time>2021-08-18T08:28:23Z</time>
      </trkpt>
      <trkpt lat="49.33889" lon="-0.61353">
        <ele>50.5</ele>
        <time>2021-08-18T08:28:24Z</time>
      </trkpt>
      <trkpt lat="49.33891" lon="-0.61369">
        <ele>50.6</ele>
        <time>2021-08-18T08:28:26Z</time>
      </trkpt>
      <trkpt lat="49.33892" lon="-0.61378">
        <ele>50.6</ele>
        <time>2021-08-18T08:28:27Z</time>
      </trkpt>
      <trkpt lat="49.33893" lon="-0.61387">
        <ele>50.7</ele>
        <time>2021-08-18T08:28:28Z</time>
      </trkpt>
      <trkpt lat="49.33894" lon="-0.61403">
        <ele>50.7</ele>
        <time>2021-08-18T08:28:30Z</time>
      </trkpt>
      <trkpt lat="49.33896" lon="-0.6142">
        <ele>50.8</ele>
        <time>2021-08-18T08:28:32Z</time>
      </trkpt>
      <trkpt lat="49.33897" lon="-0.61437">
        <ele>50.9</ele>
        <time>2021-08-18T08:28:34Z</time>
      </trkpt>
      <trkpt lat="49.33899" lon="-0.61454">
        <ele>51</ele>
        <time>2021-08-18T08:28:36Z</time>
      </trkpt>
      <trkpt lat="49.33899" lon="-0.61463">
        <ele>51</ele>
        <time>2021-08-18T08:28:37Z</time>
      </trkpt>
      <trkpt lat="49.339" lon="-0.61472">
        <ele>51.1</ele>
        <time>2021-08-18T08:28:38Z</time>
      </trkpt>
      <trkpt lat="49.33901" lon="-0.61481">
        <ele>51.1</ele>
        <time>2021-08-18T08:28:39Z</time>
      </trkpt>
      <trkpt lat="49.33902" lon="-0.6149">
        <ele>51.2</ele>
        <time>2021-08-18T08:28:40Z</time>
      </trkpt>
      <trkpt lat="49.33903" lon="-0.61507">
        <ele>51.2</ele>
        <time>2021-08-18T08:28:42Z</time>
      </trkpt>
      <trkpt lat="49.33904" lon="-0.61516">
        <ele>51.3</ele>
        <time>2021-08-18T08:28:43Z</time>
      </trkpt>
      <trkpt lat="49.33906" lon="-0.61535">
        <ele>51.3</ele>
        <time>2021-08-18T08:28:45Z</time>
      </trkpt>
      <trkpt lat="49.33906" lon="-0.61545">
        <ele>51.3</ele>
        <time>2021-08-18T08:28:46Z</time>
      </trkpt>
      <trkpt lat="49.33908" lon="-0.61565">
        <ele>51.4</ele>
        <time>2021-08-18T08:28:48Z</time>
      </trkpt>
      <trkpt lat="49.33908" lon="-0.61575">
        <ele>51.4</ele>
        <time>2021-08-18T08:28:49Z</time>
      </trkpt>
      <trkpt lat="49.33909" lon="-0.61593">
        <ele>51.5</ele>
        <time>2021-08-18T08:28:51Z</time>
      </trkpt>
      <trkpt lat="49.33909" lon="-0.61603">
        <ele>51.5</ele>
        <time>2021-08-18T08:28:52Z</time>
      </trkpt>
      <trkpt lat="49.33908" lon="-0.61612">
        <ele>51.6</ele>
        <time>2021-08-18T08:28:53Z</time>
      </trkpt>
      <trkpt lat="49.33907" lon="-0.61622">
        <ele>51.6</ele>
        <time>2021-08-18T08:28:54Z</time>
      </trkpt>
      <trkpt lat="49.33905" lon="-0.6164">
        <ele>51.7</ele>
        <time>2021-08-18T08:28:56Z</time>
      </trkpt>
      <trkpt lat="49.339" lon="-0.61659">
        <ele>51.8</ele>
        <time>2021-08-18T08:28:58Z</time>
      </trkpt>
      <trkpt lat="49.33896" lon="-0.61676">
        <ele>51.8</ele>
        <time>2021-08-18T08:29:00Z</time>
      </trkpt>
      <trkpt lat="49.33888" lon="-0.61692">
        <ele>51.9</ele>
        <time>2021-08-18T08:29:02Z</time>
      </trkpt>
      <trkpt lat="49.33884" lon="-0.617">
        <ele>52</ele>
        <time>2021-08-18T08:29:03Z</time>
      </trkpt>
      <trkpt lat="49.33875" lon="-0.61716">
        <ele>52</ele>
        <time>2021-08-18T08:29:05Z</time>
      </trkpt>
      <trkpt lat="49.33871" lon="-0.61723">
        <ele>52.1</ele>
        <time>2021-08-18T08:29:06Z</time>
      </trkpt>
      <trkpt lat="49.33861" lon="-0.61738">
        <ele>52.1</ele>
        <time>2021-08-18T08:29:08Z</time>
      </trkpt>
      <trkpt lat="49.3385" lon="-0.61751">
        <ele>52.2</ele>
        <time>2021-08-18T08:29:10Z</time>
      </trkpt>
      <trkpt lat="49.33839" lon="-0.61762">
        <ele>52.3</ele>
        <time>2021-08-18T08:29:12Z</time>
      </trkpt>
      <trkpt lat="49.33827" lon="-0.61771">
        <ele>52.4</ele>
        <time>2021-08-18T08:29:14Z</time>
      </trkpt>
      <trkpt lat="49.33821" lon="-0.61776">
        <ele>52.4</ele>
        <time>2021-08-18T08:29:15Z</time>
      </trkpt>
      <trkpt lat="49.33808" lon="-0.61781">
        <ele>52.4</ele>
        <time>2021-08-18T08:29:17Z</time>
      </trkpt>
      <trkpt lat="49.33794" lon="-0.61784">
        <ele>52.5</ele>
        <time>2021-08-18T08:29:19Z</time>
      </trkpt>
      <trkpt lat="49.33779" lon="-0.61787">
        <ele>52.6</ele>
        <time>2021-08-18T08:29:21Z</time>
      </trkpt>
      <trkpt lat="49.33765" lon="-0.61793">
        <ele>52.5</ele>
        <time>2021-08-18T08:29:23Z</time>
      </trkpt>
      <trkpt lat="49.33751" lon="-0.61796">
        <ele>52.5</ele>
        <time>2021-08-18T08:29:25Z</time>
      </trkpt>
      <trkpt lat="49.33744" lon="-0.61797">
        <ele>52.4</ele>
        <time>2021-08-18T08:29:26Z</time>
      </trkpt>
      <trkpt lat="49.3373" lon="-0.61801">
        <ele>52.3</ele>
        <time>2021-08-18T08:29:28Z</time>
      </trkpt>
      <trkpt lat="49.33723" lon="-0.61803">
        <ele>52.2</ele>
        <time>2021-08-18T08:29:29Z</time>
      </trkpt>
      <trkpt lat="49.33715" lon="-0.61805">
        <ele>52</ele>
        <time>2021-08-18T08:29:30Z</time>
      </trkpt>
      <trkpt lat="49.337" lon="-0.61809">
        <ele>51.6</ele>
        <time>2021-08-18T08:29:32Z</time>
      </trkpt>
      <trkpt lat="49.33692" lon="-0.61812">
        <ele>51.4</ele>
        <time>2021-08-18T08:29:33Z</time>
      </trkpt>
      <trkpt lat="49.33677" lon="-0.61816">
        <ele>50.9</ele>
        <time>2021-08-18T08:29:35Z</time>
      </trkpt>
      <trkpt lat="49.33669" lon="-0.61818">
        <ele>50.7</ele>
        <time>2021-08-18T08:29:36Z</time>
      </trkpt>
      <trkpt lat="49.33661" lon="-0.6182">
        <ele>50.4</ele>
        <time>2021-08-18T08:29:37Z</time>
      </trkpt>
      <trkpt lat="49.33645" lon="-0.61824">
        <ele>49.7</ele>
        <time>2021-08-18T08:29:39Z</time>
      </trkpt>
      <trkpt lat="49.33628" lon="-0.6183">
        <ele>48.7</ele>
        <time>2021-08-18T08:29:41Z</time>
      </trkpt>
      <trkpt lat="49.3362" lon="-0.61832">
        <ele>48.1</ele>
        <time>2021-08-18T08:29:42Z</time>
      </trkpt>
      <trkpt lat="49.33602" lon="-0.61842">
        <ele>46.7</ele>
        <time>2021-08-18T08:29:44Z</time>
      </trkpt>
      <trkpt lat="49.33584" lon="-0.6186">
        <ele>44.9</ele>
        <time>2021-08-18T08:29:46Z</time>
      </trkpt>
      <trkpt lat="49.33575" lon="-0.6187">
        <ele>43.9</ele>
        <time>2021-08-18T08:29:47Z</time>
      </trkpt>
      <trkpt lat="49.33561" lon="-0.61899">
        <ele>41.7</ele>
        <time>2021-08-18T08:29:49Z</time>
      </trkpt>
      <trkpt lat="49.33558" lon="-0.61916">
        <ele>40.6</ele>
        <time>2021-08-18T08:29:50Z</time>
      </trkpt>
      <trkpt lat="49.33555" lon="-0.61936">
        <ele>39.4</ele>
        <time>2021-08-18T08:29:51Z</time>
      </trkpt>
      <trkpt lat="49.33557" lon="-0.61975">
        <ele>37.4</ele>
        <time>2021-08-18T08:29:53Z</time>
      </trkpt>
      <trkpt lat="49.33561" lon="-0.61994">
        <ele>36.2</ele>
        <time>2021-08-18T08:29:54Z</time>
      </trkpt>
      <trkpt lat="49.33578" lon="-0.62026">
        <ele>33.5</ele>
        <time>2021-08-18T08:29:56Z</time>
      </trkpt>
      <trkpt lat="49.33588" lon="-0.6204">
        <ele>32.1</ele>
        <time>2021-08-18T08:29:57Z</time>
      </trkpt>
      <trkpt lat="49.33611" lon="-0.62066">
        <ele>29.2</ele>
        <time>2021-08-18T08:29:59Z</time>
      </trkpt>
      <trkpt lat="49.33623" lon="-0.6208">
        <ele>27.8</ele>
        <time>2021-08-18T08:30:00Z</time>
      </trkpt>
      <trkpt lat="49.33635" lon="-0.62093">
        <ele>26.2</ele>
        <time>2021-08-18T08:30:01Z</time>
      </trkpt>
      <trkpt lat="49.33665" lon="-0.6211">
        <ele>22.7</ele>
        <time>2021-08-18T08:30:03Z</time>
      </trkpt>
      <trkpt lat="49.33681" lon="-0.62111">
        <ele>20.9</ele>
        <time>2021-08-18T08:30:04Z</time>
      </trkpt>
      <trkpt lat="49.33713" lon="-0.62101">
        <ele>17.8</ele>
        <time>2021-08-18T08:30:06Z</time>
      </trkpt>
      <trkpt lat="49.33727" lon="-0.62096">
        <ele>16.6</ele>
        <time>2021-08-18T08:30:07Z</time>
      </trkpt>
      <trkpt lat="49.33751" lon="-0.6209">
        <ele>15</ele>
        <time>2021-08-18T08:30:09Z</time>
      </trkpt>
      <trkpt lat="49.33772" lon="-0.62091">
        <ele>13.7</ele>
        <time>2021-08-18T08:30:11Z</time>
      </trkpt>
      <trkpt lat="49.3378" lon="-0.62096">
        <ele>13.2</ele>
        <time>2021-08-18T08:30:12Z</time>
      </trkpt>
      <trkpt lat="49.33795" lon="-0.62116">
        <ele>12.3</ele>
        <time>2021-08-18T08:30:14Z</time>
      </trkpt>
      <trkpt lat="49.338" lon="-0.6213">
        <ele>12</ele>
        <time>2021-08-18T08:30:15Z</time>
      </trkpt>
      <trkpt lat="49.33806" lon="-0.62159">
        <ele>11.9</ele>
        <time>2021-08-18T08:30:17Z</time>
      </trkpt>
      <trkpt lat="49.33808" lon="-0.62174">
        <ele>12.1</ele>
        <time>2021-08-18T08:30:18Z</time>
      </trkpt>
      <trkpt lat="49.33811" lon="-0.62185">
        <ele>12.2</ele>
        <time>2021-08-18T08:30:19Z</time>
      </trkpt>
      <trkpt lat="49.33814" lon="-0.622">
        <ele>12.5</ele>
        <time>2021-08-18T08:30:21Z</time>
      </trkpt>
      <trkpt lat="49.33814" lon="-0.62207">
        <ele>12.7</ele>
        <time>2021-08-18T08:30:22Z</time>
      </trkpt>
      <trkpt lat="49.33813" lon="-0.62211">
        <ele>12.8</ele>
        <time>2021-08-18T08:30:23Z</time>
      </trkpt>
      <trkpt lat="49.33814" lon="-0.62223">
        <ele>13</ele>
        <time>2021-08-18T08:30:25Z</time>
      </trkpt>
      <trkpt lat="49.33814" lon="-0.62228">
        <ele>13.1</ele>
        <time>2021-08-18T08:30:26Z</time>
      </trkpt>
      <trkpt lat="49.33815" lon="-0.62233">
        <ele>13.2</ele>
        <time>2021-08-18T08:30:27Z</time>
      </trkpt>
      <trkpt lat="49.33818" lon="-0.62242">
        <ele>13.3</ele>
        <time>2021-08-18T08:30:29Z</time>
      </trkpt>
      <trkpt lat="49.33821" lon="-0.62251">
        <ele>13.2</ele>
        <time>2021-08-18T08:30:31Z</time>
      </trkpt>
      <trkpt lat="49.33824" lon="-0.62262">
        <ele>13.1</ele>
        <time>2021-08-18T08:30:33Z</time>
      </trkpt>
      <trkpt lat="49.33825" lon="-0.6227">
        <ele>13</ele>
        <time>2021-08-18T08:30:34Z</time>
      </trkpt>
      <trkpt lat="49.33827" lon="-0.62277">
        <ele>12.9</ele>
        <time>2021-08-18T08:30:35Z</time>
      </trkpt>
      <trkpt lat="49.33828" lon="-0.62283">
        <ele>12.8</ele>
        <time>2021-08-18T08:30:36Z</time>
      </trkpt>
      <trkpt lat="49.33832" lon="-0.623">
        <ele>12.6</ele>
        <time>2021-08-18T08:30:38Z</time>
      </trkpt>
      <trkpt lat="49.33834" lon="-0.62311">
        <ele>12.5</ele>
        <time>2021-08-18T08:30:39Z</time>
      </trkpt>
      <trkpt lat="49.33838" lon="-0.62331">
        <ele>12.3</ele>
        <time>2021-08-18T08:30:41Z</time>
      </trkpt>
      <trkpt lat="49.33841" lon="-0.62342">
        <ele>12.3</ele>
        <time>2021-08-18T08:30:42Z</time>
      </trkpt>
      <trkpt lat="49.33842" lon="-0.62353">
        <ele>12.4</ele>
        <time>2021-08-18T08:30:43Z</time>
      </trkpt>
      <trkpt lat="49.33843" lon="-0.62373">
        <ele>12.5</ele>
        <time>2021-08-18T08:30:45Z</time>
      </trkpt>
      <trkpt lat="49.3384" lon="-0.62389">
        <ele>12.4</ele>
        <time>2021-08-18T08:30:47Z</time>
      </trkpt>
      <trkpt lat="49.33831" lon="-0.62395">
        <ele>12.6</ele>
        <time>2021-08-18T08:30:49Z</time>
      </trkpt>
      <trkpt lat="49.33826" lon="-0.62398">
        <ele>12.9</ele>
        <time>2021-08-18T08:30:50Z</time>
      </trkpt>
      <trkpt lat="49.33814" lon="-0.62403">
        <ele>13.5</ele>
        <time>2021-08-18T08:30:52Z</time>
      </trkpt>
      <trkpt lat="49.33802" lon="-0.62407">
        <ele>14.3</ele>
        <time>2021-08-18T08:30:54Z</time>
      </trkpt>
      <trkpt lat="49.33792" lon="-0.6241">
        <ele>15</ele>
        <time>2021-08-18T08:30:56Z</time>
      </trkpt>
      <trkpt lat="49.33783" lon="-0.62411">
        <ele>15.6</ele>
        <time>2021-08-18T08:30:58Z</time>
      </trkpt>
      <trkpt lat="49.33779" lon="-0.62412">
        <ele>16.2</ele>
        <time>2021-08-18T08:31:00Z</time>
      </trkpt>
      <trkpt lat="49.33779" lon="-0.62415">
        <ele>16.2</ele>
        <time>2021-08-18T08:31:02Z</time>
      </trkpt>
      <trkpt lat="49.33778" lon="-0.6243">
        <ele>16.3</ele>
        <time>2021-08-18T08:31:04Z</time>
      </trkpt>
      <trkpt lat="49.33779" lon="-0.62436">
        <ele>16.3</ele>
        <time>2021-08-18T08:31:05Z</time>
      </trkpt>
      <trkpt lat="49.33782" lon="-0.62451">
        <ele>16.4</ele>
        <time>2021-08-18T08:31:07Z</time>
      </trkpt>
      <trkpt lat="49.33783" lon="-0.62458">
        <ele>16.4</ele>
        <time>2021-08-18T08:31:08Z</time>
      </trkpt>
      <trkpt lat="49.33786" lon="-0.62476">
        <ele>16.5</ele>
        <time>2021-08-18T08:31:10Z</time>
      </trkpt>
      <trkpt lat="49.33789" lon="-0.62498">
        <ele>16.6</ele>
        <time>2021-08-18T08:31:12Z</time>
      </trkpt>
      <trkpt lat="49.3379" lon="-0.6251">
        <ele>16.7</ele>
        <time>2021-08-18T08:31:13Z</time>
      </trkpt>
      <trkpt lat="49.33792" lon="-0.62523">
        <ele>16.7</ele>
        <time>2021-08-18T08:31:14Z</time>
      </trkpt>
      <trkpt lat="49.33793" lon="-0.62549">
        <ele>16.7</ele>
        <time>2021-08-18T08:31:16Z</time>
      </trkpt>
      <trkpt lat="49.33794" lon="-0.62562">
        <ele>16.8</ele>
        <time>2021-08-18T08:31:17Z</time>
      </trkpt>
      <trkpt lat="49.33797" lon="-0.62587">
        <ele>16.8</ele>
        <time>2021-08-18T08:31:19Z</time>
      </trkpt>
      <trkpt lat="49.33799" lon="-0.626">
        <ele>16.8</ele>
        <time>2021-08-18T08:31:20Z</time>
      </trkpt>
      <trkpt lat="49.33802" lon="-0.62625">
        <ele>16.9</ele>
        <time>2021-08-18T08:31:22Z</time>
      </trkpt>
      <trkpt lat="49.33803" lon="-0.62649">
        <ele>17</ele>
        <time>2021-08-18T08:31:24Z</time>
      </trkpt>
      <trkpt lat="49.33804" lon="-0.62662">
        <ele>17</ele>
        <time>2021-08-18T08:31:25Z</time>
      </trkpt>
      <trkpt lat="49.33805" lon="-0.62686">
        <ele>17</ele>
        <time>2021-08-18T08:31:27Z</time>
      </trkpt>
      <trkpt lat="49.33806" lon="-0.62699">
        <ele>17</ele>
        <time>2021-08-18T08:31:28Z</time>
      </trkpt>
      <trkpt lat="49.33808" lon="-0.6271">
        <ele>17</ele>
        <time>2021-08-18T08:31:29Z</time>
      </trkpt>
      <trkpt lat="49.33811" lon="-0.62733">
        <ele>17.1</ele>
        <time>2021-08-18T08:31:31Z</time>
      </trkpt>
      <trkpt lat="49.33812" lon="-0.62745">
        <ele>17.1</ele>
        <time>2021-08-18T08:31:32Z</time>
      </trkpt>
      <trkpt lat="49.33814" lon="-0.62757">
        <ele>17.2</ele>
        <time>2021-08-18T08:31:33Z</time>
      </trkpt>
      <trkpt lat="49.33817" lon="-0.6278">
        <ele>17.3</ele>
        <time>2021-08-18T08:31:35Z</time>
      </trkpt>
      <trkpt lat="49.33818" lon="-0.62792">
        <ele>17.5</ele>
        <time>2021-08-18T08:31:36Z</time>
      </trkpt>
      <trkpt lat="49.33822" lon="-0.62815">
        <ele>17.8</ele>
        <time>2021-08-18T08:31:38Z</time>
      </trkpt>
      <trkpt lat="49.33826" lon="-0.62837">
        <ele>18.3</ele>
        <time>2021-08-18T08:31:40Z</time>
      </trkpt>
      <trkpt lat="49.33828" lon="-0.62848">
        <ele>18.5</ele>
        <time>2021-08-18T08:31:41Z</time>
      </trkpt>
      <trkpt lat="49.3383" lon="-0.62869">
        <ele>19</ele>
        <time>2021-08-18T08:31:43Z</time>
      </trkpt>
      <trkpt lat="49.33832" lon="-0.62888">
        <ele>19.5</ele>
        <time>2021-08-18T08:31:45Z</time>
      </trkpt>
      <trkpt lat="49.33833" lon="-0.62898">
        <ele>19.6</ele>
        <time>2021-08-18T08:31:46Z</time>
      </trkpt>
      <trkpt lat="49.33834" lon="-0.62907">
        <ele>19.7</ele>
        <time>2021-08-18T08:31:47Z</time>
      </trkpt>
      <trkpt lat="49.33834" lon="-0.62916">
        <ele>19.8</ele>
        <time>2021-08-18T08:31:48Z</time>
      </trkpt>
      <trkpt lat="49.33836" lon="-0.62934">
        <ele>20.2</ele>
        <time>2021-08-18T08:31:50Z</time>
      </trkpt>
      <trkpt lat="49.33836" lon="-0.62943">
        <ele>20.3</ele>
        <time>2021-08-18T08:31:51Z</time>
      </trkpt>
      <trkpt lat="49.33836" lon="-0.62961">
        <ele>20.8</ele>
        <time>2021-08-18T08:31:53Z</time>
      </trkpt>
      <trkpt lat="49.33837" lon="-0.6297">
        <ele>21</ele>
        <time>2021-08-18T08:31:54Z</time>
      </trkpt>
      <trkpt lat="49.33837" lon="-0.62989">
        <ele>21.4</ele>
        <time>2021-08-18T08:31:56Z</time>
      </trkpt>
      <trkpt lat="49.33838" lon="-0.62997">
        <ele>21.7</ele>
        <time>2021-08-18T08:31:57Z</time>
      </trkpt>
      <trkpt lat="49.3384" lon="-0.63013">
        <ele>22.2</ele>
        <time>2021-08-18T08:31:59Z</time>
      </trkpt>
      <trkpt lat="49.33842" lon="-0.63029">
        <ele>22.5</ele>
        <time>2021-08-18T08:32:01Z</time>
      </trkpt>
      <trkpt lat="49.33842" lon="-0.63037">
        <ele>22.6</ele>
        <time>2021-08-18T08:32:02Z</time>
      </trkpt>
      <trkpt lat="49.33841" lon="-0.63055">
        <ele>22.9</ele>
        <time>2021-08-18T08:32:04Z</time>
      </trkpt>
      <trkpt lat="49.33838" lon="-0.63064">
        <ele>23.3</ele>
        <time>2021-08-18T08:32:05Z</time>
      </trkpt>
      <trkpt lat="49.33834" lon="-0.63073">
        <ele>23.7</ele>
        <time>2021-08-18T08:32:06Z</time>
      </trkpt>
      <trkpt lat="49.33827" lon="-0.63088">
        <ele>24.6</ele>
        <time>2021-08-18T08:32:08Z</time>
      </trkpt>
      <trkpt lat="49.3382" lon="-0.63102">
        <ele>25.3</ele>
        <time>2021-08-18T08:32:10Z</time>
      </trkpt>
      <trkpt lat="49.33817" lon="-0.63108">
        <ele>25.6</ele>
        <time>2021-08-18T08:32:11Z</time>
      </trkpt>
      <trkpt lat="49.33813" lon="-0.63113">
        <ele>25.9</ele>
        <time>2021-08-18T08:32:12Z</time>
      </trkpt>
      <trkpt lat="49.3381" lon="-0.63118">
        <ele>26.3</ele>
        <time>2021-08-18T08:32:13Z</time>
      </trkpt>
      <trkpt lat="49.33802" lon="-0.63128">
        <ele>26.9</ele>
        <time>2021-08-18T08:32:15Z</time>
      </trkpt>
      <trkpt lat="49.33794" lon="-0.63137">
        <ele>27.6</ele>
        <time>2021-08-18T08:32:17Z</time>
      </trkpt>
      <trkpt lat="49.3379" lon="-0.63141">
        <ele>28</ele>
        <time>2021-08-18T08:32:18Z</time>
      </trkpt>
      <trkpt lat="49.33787" lon="-0.63145">
        <ele>28.3</ele>
        <time>2021-08-18T08:32:19Z</time>
      </trkpt>
      <trkpt lat="49.33779" lon="-0.63153">
        <ele>29</ele>
        <time>2021-08-18T08:32:21Z</time>
      </trkpt>
      <trkpt lat="49.33777" lon="-0.63156">
        <ele>29.2</ele>
        <time>2021-08-18T08:32:22Z</time>
      </trkpt>
      <trkpt lat="49.3377" lon="-0.63163">
        <ele>29.9</ele>
        <time>2021-08-18T08:32:24Z</time>
      </trkpt>
      <trkpt lat="49.33766" lon="-0.63167">
        <ele>30.2</ele>
        <time>2021-08-18T08:32:25Z</time>
      </trkpt>
      <trkpt lat="49.33761" lon="-0.63173">
        <ele>30.7</ele>
        <time>2021-08-18T08:32:27Z</time>
      </trkpt>
      <trkpt lat="49.33757" lon="-0.63177">
        <ele>31.1</ele>
        <time>2021-08-18T08:32:28Z</time>
      </trkpt>
      <trkpt lat="49.33754" lon="-0.6318">
        <ele>31.4</ele>
        <time>2021-08-18T08:32:29Z</time>
      </trkpt>
      <trkpt lat="49.33748" lon="-0.63186">
        <ele>32</ele>
        <time>2021-08-18T08:32:31Z</time>
      </trkpt>
      <trkpt lat="49.33741" lon="-0.63193">
        <ele>32.6</ele>
        <time>2021-08-18T08:32:33Z</time>
      </trkpt>
      <trkpt lat="49.33738" lon="-0.63196">
        <ele>33</ele>
        <time>2021-08-18T08:32:34Z</time>
      </trkpt>
      <trkpt lat="49.33735" lon="-0.63199">
        <ele>33.3</ele>
        <time>2021-08-18T08:32:35Z</time>
      </trkpt>
      <trkpt lat="49.33729" lon="-0.63206">
        <ele>33.9</ele>
        <time>2021-08-18T08:32:37Z</time>
      </trkpt>
      <trkpt lat="49.33723" lon="-0.63212">
        <ele>34.6</ele>
        <time>2021-08-18T08:32:39Z</time>
      </trkpt>
      <trkpt lat="49.3372" lon="-0.63216">
        <ele>34.9</ele>
        <time>2021-08-18T08:32:40Z</time>
      </trkpt>
      <trkpt lat="49.33714" lon="-0.63223">
        <ele>35.5</ele>
        <time>2021-08-18T08:32:42Z</time>
      </trkpt>
      <trkpt lat="49.33708" lon="-0.6323">
        <ele>36.3</ele>
        <time>2021-08-18T08:32:44Z</time>
      </trkpt>
      <trkpt lat="49.33702" lon="-0.63238">
        <ele>36.9</ele>
        <time>2021-08-18T08:32:46Z</time>
      </trkpt>
      <trkpt lat="49.33696" lon="-0.63245">
        <ele>37.6</ele>
        <time>2021-08-18T08:32:48Z</time>
      </trkpt>
      <trkpt lat="49.33692" lon="-0.63249">
        <ele>38</ele>
        <time>2021-08-18T08:32:49Z</time>
      </trkpt>
      <trkpt lat="49.33689" lon="-0.63253">
        <ele>38.4</ele>
        <time>2021-08-18T08:32:50Z</time>
      </trkpt>
      <trkpt lat="49.33686" lon="-0.63256">
        <ele>38.7</ele>
        <time>2021-08-18T08:32:51Z</time>
      </trkpt>
      <trkpt lat="49.3368" lon="-0.63264">
        <ele>39.4</ele>
        <time>2021-08-18T08:32:53Z</time>
      </trkpt>
      <trkpt lat="49.33676" lon="-0.63268">
        <ele>39.8</ele>
        <time>2021-08-18T08:32:54Z</time>
      </trkpt>
      <trkpt lat="49.33669" lon="-0.63276">
        <ele>40.6</ele>
        <time>2021-08-18T08:32:56Z</time>
      </trkpt>
      <trkpt lat="49.33663" lon="-0.63285">
        <ele>41.3</ele>
        <time>2021-08-18T08:32:58Z</time>
      </trkpt>
      <trkpt lat="49.3366" lon="-0.63289">
        <ele>41.7</ele>
        <time>2021-08-18T08:32:59Z</time>
      </trkpt>
      <trkpt lat="49.33654" lon="-0.63297">
        <ele>42.4</ele>
        <time>2021-08-18T08:33:01Z</time>
      </trkpt>
      <trkpt lat="49.33648" lon="-0.63305">
        <ele>43</ele>
        <time>2021-08-18T08:33:03Z</time>
      </trkpt>
      <trkpt lat="49.33642" lon="-0.63313">
        <ele>43.7</ele>
        <time>2021-08-18T08:33:05Z</time>
      </trkpt>
      <trkpt lat="49.33639" lon="-0.63318">
        <ele>44</ele>
        <time>2021-08-18T08:33:06Z</time>
      </trkpt>
      <trkpt lat="49.33633" lon="-0.63326">
        <ele>44.6</ele>
        <time>2021-08-18T08:33:08Z</time>
      </trkpt>
      <trkpt lat="49.33627" lon="-0.63334">
        <ele>45.3</ele>
        <time>2021-08-18T08:33:10Z</time>
      </trkpt>
      <trkpt lat="49.33623" lon="-0.63339">
        <ele>45.7</ele>
        <time>2021-08-18T08:33:11Z</time>
      </trkpt>
      <trkpt lat="49.33617" lon="-0.63348">
        <ele>46.4</ele>
        <time>2021-08-18T08:33:13Z</time>
      </trkpt>
      <trkpt lat="49.33615" lon="-0.63352">
        <ele>46.6</ele>
        <time>2021-08-18T08:33:14Z</time>
      </trkpt>
      <trkpt lat="49.3361" lon="-0.6336">
        <ele>47.2</ele>
        <time>2021-08-18T08:33:16Z</time>
      </trkpt>
      <trkpt lat="49.33607" lon="-0.63363">
        <ele>47.4</ele>
        <time>2021-08-18T08:33:17Z</time>
      </trkpt>
      <trkpt lat="49.33602" lon="-0.63372">
        <ele>48.1</ele>
        <time>2021-08-18T08:33:19Z</time>
      </trkpt>
      <trkpt lat="49.33596" lon="-0.6338">
        <ele>48.6</ele>
        <time>2021-08-18T08:33:21Z</time>
      </trkpt>
      <trkpt lat="49.33591" lon="-0.63388">
        <ele>49.2</ele>
        <time>2021-08-18T08:33:23Z</time>
      </trkpt>
      <trkpt lat="49.33584" lon="-0.63399">
        <ele>49.9</ele>
        <time>2021-08-18T08:33:25Z</time>
      </trkpt>
      <trkpt lat="49.33581" lon="-0.63404">
        <ele>50.2</ele>
        <time>2021-08-18T08:33:26Z</time>
      </trkpt>
      <trkpt lat="49.33575" lon="-0.63414">
        <ele>50.8</ele>
        <time>2021-08-18T08:33:28Z</time>
      </trkpt>
      <trkpt lat="49.33572" lon="-0.63418">
        <ele>51</ele>
        <time>2021-08-18T08:33:29Z</time>
      </trkpt>
      <trkpt lat="49.33566" lon="-0.63427">
        <ele>51.5</ele>
        <time>2021-08-18T08:33:31Z</time>
      </trkpt>
      <trkpt lat="49.3356" lon="-0.63436">
        <ele>52.1</ele>
        <time>2021-08-18T08:33:33Z</time>
      </trkpt>
      <trkpt lat="49.33554" lon="-0.63445">
        <ele>52.5</ele>
        <time>2021-08-18T08:33:35Z</time>
      </trkpt>
      <trkpt lat="49.33547" lon="-0.63455">
        <ele>53</ele>
        <time>2021-08-18T08:33:37Z</time>
      </trkpt>
      <trkpt lat="49.33544" lon="-0.6346">
        <ele>53.3</ele>
        <time>2021-08-18T08:33:38Z</time>
      </trkpt>
      <trkpt lat="49.33535" lon="-0.63472">
        <ele>53.8</ele>
        <time>2021-08-18T08:33:40Z</time>
      </trkpt>
      <trkpt lat="49.33531" lon="-0.63478">
        <ele>54.1</ele>
        <time>2021-08-18T08:33:41Z</time>
      </trkpt>
      <trkpt lat="49.33522" lon="-0.6349">
        <ele>54.4</ele>
        <time>2021-08-18T08:33:43Z</time>
      </trkpt>
      <trkpt lat="49.33518" lon="-0.63496">
        <ele>54.6</ele>
        <time>2021-08-18T08:33:44Z</time>
      </trkpt>
      <trkpt lat="49.33509" lon="-0.63507">
        <ele>54.8</ele>
        <time>2021-08-18T08:33:46Z</time>
      </trkpt>
      <trkpt lat="49.335" lon="-0.63519">
        <ele>55.1</ele>
        <time>2021-08-18T08:33:48Z</time>
      </trkpt>
      <trkpt lat="49.33495" lon="-0.63525">
        <ele>55.3</ele>
        <time>2021-08-18T08:33:49Z</time>
      </trkpt>
      <trkpt lat="49.33486" lon="-0.63537">
        <ele>55.6</ele>
        <time>2021-08-18T08:33:51Z</time>
      </trkpt>
      <trkpt lat="49.3348" lon="-0.63543">
        <ele>55.7</ele>
        <time>2021-08-18T08:33:52Z</time>
      </trkpt>
      <trkpt lat="49.3347" lon="-0.63553">
        <ele>55.9</ele>
        <time>2021-08-18T08:33:54Z</time>
      </trkpt>
      <trkpt lat="49.33464" lon="-0.63558">
        <ele>56</ele>
        <time>2021-08-18T08:33:55Z</time>
      </trkpt>
      <trkpt lat="49.33453" lon="-0.63567">
        <ele>56.2</ele>
        <time>2021-08-18T08:33:57Z</time>
      </trkpt>
      <trkpt lat="49.33448" lon="-0.63572">
        <ele>56.3</ele>
        <time>2021-08-18T08:33:58Z</time>
      </trkpt>
      <trkpt lat="49.33442" lon="-0.63577">
        <ele>56.3</ele>
        <time>2021-08-18T08:33:59Z</time>
      </trkpt>
      <trkpt lat="49.33432" lon="-0.63587">
        <ele>56.4</ele>
        <time>2021-08-18T08:34:01Z</time>
      </trkpt>
      <trkpt lat="49.33428" lon="-0.63593">
        <ele>56.5</ele>
        <time>2021-08-18T08:34:02Z</time>
      </trkpt>
      <trkpt lat="49.33424" lon="-0.63601">
        <ele>56.6</ele>
        <time>2021-08-18T08:34:03Z</time>
      </trkpt>
      <trkpt lat="49.33422" lon="-0.63619">
        <ele>56.5</ele>
        <time>2021-08-18T08:34:05Z</time>
      </trkpt>
      <trkpt lat="49.33425" lon="-0.63639">
        <ele>56.3</ele>
        <time>2021-08-18T08:34:07Z</time>
      </trkpt>
      <trkpt lat="49.33426" lon="-0.63648">
        <ele>56.2</ele>
        <time>2021-08-18T08:34:08Z</time>
      </trkpt>
      <trkpt lat="49.33429" lon="-0.63667">
        <ele>55.8</ele>
        <time>2021-08-18T08:34:10Z</time>
      </trkpt>
      <trkpt lat="49.33431" lon="-0.63676">
        <ele>55.6</ele>
        <time>2021-08-18T08:34:11Z</time>
      </trkpt>
      <trkpt lat="49.33435" lon="-0.63696">
        <ele>55.2</ele>
        <time>2021-08-18T08:34:13Z</time>
      </trkpt>
      <trkpt lat="49.33438" lon="-0.63707">
        <ele>55.1</ele>
        <time>2021-08-18T08:34:14Z</time>
      </trkpt>
      <trkpt lat="49.3344" lon="-0.63718">
        <ele>54.9</ele>
        <time>2021-08-18T08:34:15Z</time>
      </trkpt>
      <trkpt lat="49.33445" lon="-0.63741">
        <ele>54.6</ele>
        <time>2021-08-18T08:34:17Z</time>
      </trkpt>
      <trkpt lat="49.33448" lon="-0.63752">
        <ele>54.5</ele>
        <time>2021-08-18T08:34:18Z</time>
      </trkpt>
      <trkpt lat="49.33454" lon="-0.63775">
        <ele>54.1</ele>
        <time>2021-08-18T08:34:20Z</time>
      </trkpt>
      <trkpt lat="49.3346" lon="-0.63798">
        <ele>53.8</ele>
        <time>2021-08-18T08:34:22Z</time>
      </trkpt>
      <trkpt lat="49.33463" lon="-0.6381">
        <ele>53.7</ele>
        <time>2021-08-18T08:34:23Z</time>
      </trkpt>
      <trkpt lat="49.33466" lon="-0.63823">
        <ele>53.6</ele>
        <time>2021-08-18T08:34:24Z</time>
      </trkpt>
      <trkpt lat="49.33473" lon="-0.63847">
        <ele>53.5</ele>
        <time>2021-08-18T08:34:26Z</time>
      </trkpt>
      <trkpt lat="49.33479" lon="-0.63872">
        <ele>53.5</ele>
        <time>2021-08-18T08:34:28Z</time>
      </trkpt>
      <trkpt lat="49.33486" lon="-0.63896">
        <ele>53.7</ele>
        <time>2021-08-18T08:34:30Z</time>
      </trkpt>
      <trkpt lat="49.3349" lon="-0.63907">
        <ele>53.7</ele>
        <time>2021-08-18T08:34:31Z</time>
      </trkpt>
      <trkpt lat="49.33498" lon="-0.6393">
        <ele>53.9</ele>
        <time>2021-08-18T08:34:33Z</time>
      </trkpt>
      <trkpt lat="49.33508" lon="-0.63951">
        <ele>54</ele>
        <time>2021-08-18T08:34:35Z</time>
      </trkpt>
      <trkpt lat="49.33518" lon="-0.63971">
        <ele>54.1</ele>
        <time>2021-08-18T08:34:37Z</time>
      </trkpt>
      <trkpt lat="49.33524" lon="-0.63981">
        <ele>54.2</ele>
        <time>2021-08-18T08:34:38Z</time>
      </trkpt>
      <trkpt lat="49.33535" lon="-0.64">
        <ele>54.3</ele>
        <time>2021-08-18T08:34:40Z</time>
      </trkpt>
      <trkpt lat="49.3354" lon="-0.6401">
        <ele>54.4</ele>
        <time>2021-08-18T08:34:41Z</time>
      </trkpt>
      <trkpt lat="49.33551" lon="-0.6403">
        <ele>54.6</ele>
        <time>2021-08-18T08:34:43Z</time>
      </trkpt>
      <trkpt lat="49.33557" lon="-0.6404">
        <ele>54.7</ele>
        <time>2021-08-18T08:34:44Z</time>
      </trkpt>
      <trkpt lat="49.33562" lon="-0.64049">
        <ele>54.8</ele>
        <time>2021-08-18T08:34:45Z</time>
      </trkpt>
      <trkpt lat="49.33572" lon="-0.64069">
        <ele>55</ele>
        <time>2021-08-18T08:34:47Z</time>
      </trkpt>
      <trkpt lat="49.33581" lon="-0.64087">
        <ele>55.1</ele>
        <time>2021-08-18T08:34:49Z</time>
      </trkpt>
      <trkpt lat="49.3359" lon="-0.64106">
        <ele>55.3</ele>
        <time>2021-08-18T08:34:51Z</time>
      </trkpt>
      <trkpt lat="49.33594" lon="-0.64114">
        <ele>55.3</ele>
        <time>2021-08-18T08:34:52Z</time>
      </trkpt>
      <trkpt lat="49.33599" lon="-0.64123">
        <ele>55.4</ele>
        <time>2021-08-18T08:34:53Z</time>
      </trkpt>
      <trkpt lat="49.33604" lon="-0.64131">
        <ele>55.5</ele>
        <time>2021-08-18T08:34:54Z</time>
      </trkpt>
      <trkpt lat="49.33613" lon="-0.64149">
        <ele>55.7</ele>
        <time>2021-08-18T08:34:56Z</time>
      </trkpt>
      <trkpt lat="49.33623" lon="-0.64166">
        <ele>55.8</ele>
        <time>2021-08-18T08:34:58Z</time>
      </trkpt>
      <trkpt lat="49.33631" lon="-0.6418">
        <ele>55.9</ele>
        <time>2021-08-18T08:35:00Z</time>
      </trkpt>
      <trkpt lat="49.33637" lon="-0.64199">
        <ele>56</ele>
        <time>2021-08-18T08:35:02Z</time>
      </trkpt>
      <trkpt lat="49.3364" lon="-0.64208">
        <ele>56</ele>
        <time>2021-08-18T08:35:03Z</time>
      </trkpt>
      <trkpt lat="49.33645" lon="-0.64226">
        <ele>56</ele>
        <time>2021-08-18T08:35:05Z</time>
      </trkpt>
      <trkpt lat="49.33651" lon="-0.64245">
        <ele>56.1</ele>
        <time>2021-08-18T08:35:07Z</time>
      </trkpt>
      <trkpt lat="49.33655" lon="-0.64265">
        <ele>56.2</ele>
        <time>2021-08-18T08:35:09Z</time>
      </trkpt>
      <trkpt lat="49.33658" lon="-0.64274">
        <ele>56.3</ele>
        <time>2021-08-18T08:35:10Z</time>
      </trkpt>
      <trkpt lat="49.33663" lon="-0.64293">
        <ele>56.4</ele>
        <time>2021-08-18T08:35:12Z</time>
      </trkpt>
      <trkpt lat="49.33665" lon="-0.64301">
        <ele>56.4</ele>
        <time>2021-08-18T08:35:13Z</time>
      </trkpt>
      <trkpt lat="49.33666" lon="-0.64318">
        <ele>56.5</ele>
        <time>2021-08-18T08:35:15Z</time>
      </trkpt>
      <trkpt lat="49.33665" lon="-0.64326">
        <ele>56.5</ele>
        <time>2021-08-18T08:35:16Z</time>
      </trkpt>
      <trkpt lat="49.33665" lon="-0.64344">
        <ele>56.5</ele>
        <time>2021-08-18T08:35:18Z</time>
      </trkpt>
      <trkpt lat="49.33664" lon="-0.64364">
        <ele>56.5</ele>
        <time>2021-08-18T08:35:20Z</time>
      </trkpt>
      <trkpt lat="49.33664" lon="-0.64374">
        <ele>56.5</ele>
        <time>2021-08-18T08:35:21Z</time>
      </trkpt>
      <trkpt lat="49.33661" lon="-0.64392">
        <ele>56.5</ele>
        <time>2021-08-18T08:35:23Z</time>
      </trkpt>
      <trkpt lat="49.33653" lon="-0.64407">
        <ele>56.5</ele>
        <time>2021-08-18T08:35:25Z</time>
      </trkpt>
      <trkpt lat="49.33642" lon="-0.64419">
        <ele>56.5</ele>
        <time>2021-08-18T08:35:27Z</time>
      </trkpt>
      <trkpt lat="49.33631" lon="-0.64432">
        <ele>56.5</ele>
        <time>2021-08-18T08:35:29Z</time>
      </trkpt>
      <trkpt lat="49.33627" lon="-0.6444">
        <ele>56.4</ele>
        <time>2021-08-18T08:35:30Z</time>
      </trkpt>
      <trkpt lat="49.33622" lon="-0.64458">
        <ele>56.3</ele>
        <time>2021-08-18T08:35:32Z</time>
      </trkpt>
      <trkpt lat="49.33623" lon="-0.64469">
        <ele>56.2</ele>
        <time>2021-08-18T08:35:33Z</time>
      </trkpt>
      <trkpt lat="49.33626" lon="-0.64479">
        <ele>56.1</ele>
        <time>2021-08-18T08:35:34Z</time>
      </trkpt>
      <trkpt lat="49.33629" lon="-0.64489">
        <ele>56</ele>
        <time>2021-08-18T08:35:35Z</time>
      </trkpt>
      <trkpt lat="49.33636" lon="-0.64507">
        <ele>55.9</ele>
        <time>2021-08-18T08:35:37Z</time>
      </trkpt>
      <trkpt lat="49.33639" lon="-0.64516">
        <ele>55.8</ele>
        <time>2021-08-18T08:35:38Z</time>
      </trkpt>
      <trkpt lat="49.33645" lon="-0.64535">
        <ele>55.7</ele>
        <time>2021-08-18T08:35:40Z</time>
      </trkpt>
      <trkpt lat="49.33648" lon="-0.64555">
        <ele>55.6</ele>
        <time>2021-08-18T08:35:42Z</time>
      </trkpt>
      <trkpt lat="49.33652" lon="-0.64575">
        <ele>55.5</ele>
        <time>2021-08-18T08:35:44Z</time>
      </trkpt>
      <trkpt lat="49.33653" lon="-0.64585">
        <ele>55.4</ele>
        <time>2021-08-18T08:35:45Z</time>
      </trkpt>
      <trkpt lat="49.33656" lon="-0.64605">
        <ele>55.3</ele>
        <time>2021-08-18T08:35:47Z</time>
      </trkpt>
      <trkpt lat="49.33658" lon="-0.64614">
        <ele>55.3</ele>
        <time>2021-08-18T08:35:48Z</time>
      </trkpt>
      <trkpt lat="49.33659" lon="-0.64624">
        <ele>55.3</ele>
        <time>2021-08-18T08:35:49Z</time>
      </trkpt>
      <trkpt lat="49.3366" lon="-0.64644">
        <ele>55.2</ele>
        <time>2021-08-18T08:35:51Z</time>
      </trkpt>
      <trkpt lat="49.33661" lon="-0.64664">
        <ele>55.1</ele>
        <time>2021-08-18T08:35:53Z</time>
      </trkpt>
      <trkpt lat="49.33664" lon="-0.64685">
        <ele>55</ele>
        <time>2021-08-18T08:35:55Z</time>
      </trkpt>
      <trkpt lat="49.33664" lon="-0.64697">
        <ele>54.9</ele>
        <time>2021-08-18T08:35:56Z</time>
      </trkpt>
      <trkpt lat="49.33665" lon="-0.64718">
        <ele>54.8</ele>
        <time>2021-08-18T08:35:58Z</time>
      </trkpt>
      <trkpt lat="49.33666" lon="-0.6474">
        <ele>54.7</ele>
        <time>2021-08-18T08:36:00Z</time>
      </trkpt>
      <trkpt lat="49.33667" lon="-0.6475">
        <ele>54.6</ele>
        <time>2021-08-18T08:36:01Z</time>
      </trkpt>
      <trkpt lat="49.33669" lon="-0.64761">
        <ele>54.5</ele>
        <time>2021-08-18T08:36:02Z</time>
      </trkpt>
      <trkpt lat="49.3367" lon="-0.64772">
        <ele>54.4</ele>
        <time>2021-08-18T08:36:03Z</time>
      </trkpt>
      <trkpt lat="49.33674" lon="-0.64794">
        <ele>54.1</ele>
        <time>2021-08-18T08:36:05Z</time>
      </trkpt>
      <trkpt lat="49.33677" lon="-0.64805">
        <ele>53.9</ele>
        <time>2021-08-18T08:36:06Z</time>
      </trkpt>
      <trkpt lat="49.33681" lon="-0.64828">
        <ele>53.3</ele>
        <time>2021-08-18T08:36:08Z</time>
      </trkpt>
      <trkpt lat="49.33683" lon="-0.64839">
        <ele>53</ele>
        <time>2021-08-18T08:36:09Z</time>
      </trkpt>
      <trkpt lat="49.33686" lon="-0.64864">
        <ele>52.2</ele>
        <time>2021-08-18T08:36:11Z</time>
      </trkpt>
      <trkpt lat="49.33684" lon="-0.64878">
        <ele>51.6</ele>
        <time>2021-08-18T08:36:12Z</time>
      </trkpt>
      <trkpt lat="49.33681" lon="-0.64891">
        <ele>51.1</ele>
        <time>2021-08-18T08:36:13Z</time>
      </trkpt>
      <trkpt lat="49.33676" lon="-0.64919">
        <ele>50</ele>
        <time>2021-08-18T08:36:15Z</time>
      </trkpt>
      <trkpt lat="49.33677" lon="-0.64937">
        <ele>49.3</ele>
        <time>2021-08-18T08:36:16Z</time>
      </trkpt>
      <trkpt lat="49.33679" lon="-0.64953">
        <ele>48.6</ele>
        <time>2021-08-18T08:36:17Z</time>
      </trkpt>
      <trkpt lat="49.33688" lon="-0.64984">
        <ele>47.4</ele>
        <time>2021-08-18T08:36:19Z</time>
      </trkpt>
      <trkpt lat="49.33692" lon="-0.65">
        <ele>46.8</ele>
        <time>2021-08-18T08:36:20Z</time>
      </trkpt>
      <trkpt lat="49.33698" lon="-0.65031">
        <ele>45.8</ele>
        <time>2021-08-18T08:36:22Z</time>
      </trkpt>
      <trkpt lat="49.33702" lon="-0.65062">
        <ele>45.1</ele>
        <time>2021-08-18T08:36:24Z</time>
      </trkpt>
      <trkpt lat="49.33704" lon="-0.65093">
        <ele>44.8</ele>
        <time>2021-08-18T08:36:26Z</time>
      </trkpt>
      <trkpt lat="49.33703" lon="-0.65108">
        <ele>44.9</ele>
        <time>2021-08-18T08:36:27Z</time>
      </trkpt>
      <trkpt lat="49.33702" lon="-0.65137">
        <ele>45.2</ele>
        <time>2021-08-18T08:36:29Z</time>
      </trkpt>
      <trkpt lat="49.33701" lon="-0.65152">
        <ele>45.5</ele>
        <time>2021-08-18T08:36:30Z</time>
      </trkpt>
      <trkpt lat="49.337" lon="-0.65165">
        <ele>45.8</ele>
        <time>2021-08-18T08:36:31Z</time>
      </trkpt>
      <trkpt lat="49.33697" lon="-0.65191">
        <ele>46.4</ele>
        <time>2021-08-18T08:36:33Z</time>
      </trkpt>
      <trkpt lat="49.33695" lon="-0.65217">
        <ele>47</ele>
        <time>2021-08-18T08:36:35Z</time>
      </trkpt>
      <trkpt lat="49.33691" lon="-0.65241">
        <ele>47.6</ele>
        <time>2021-08-18T08:36:37Z</time>
      </trkpt>
      <trkpt lat="49.33689" lon="-0.65253">
        <ele>47.9</ele>
        <time>2021-08-18T08:36:38Z</time>
      </trkpt>
      <trkpt lat="49.33687" lon="-0.65278">
        <ele>48.4</ele>
        <time>2021-08-18T08:36:40Z</time>
      </trkpt>
      <trkpt lat="49.33684" lon="-0.65301">
        <ele>48.9</ele>
        <time>2021-08-18T08:36:42Z</time>
      </trkpt>
      <trkpt lat="49.33682" lon="-0.65324">
        <ele>49.2</ele>
        <time>2021-08-18T08:36:44Z</time>
      </trkpt>
      <trkpt lat="49.33681" lon="-0.65335">
        <ele>49.3</ele>
        <time>2021-08-18T08:36:45Z</time>
      </trkpt>
      <trkpt lat="49.33677" lon="-0.65357">
        <ele>49.5</ele>
        <time>2021-08-18T08:36:47Z</time>
      </trkpt>
      <trkpt lat="49.33672" lon="-0.65379">
        <ele>49.7</ele>
        <time>2021-08-18T08:36:49Z</time>
      </trkpt>
      <trkpt lat="49.33671" lon="-0.65391">
        <ele>49.8</ele>
        <time>2021-08-18T08:36:50Z</time>
      </trkpt>
      <trkpt lat="49.33671" lon="-0.65403">
        <ele>49.9</ele>
        <time>2021-08-18T08:36:51Z</time>
      </trkpt>
      <trkpt lat="49.33671" lon="-0.65426">
        <ele>50.1</ele>
        <time>2021-08-18T08:36:53Z</time>
      </trkpt>
      <trkpt lat="49.33676" lon="-0.65447">
        <ele>50.3</ele>
        <time>2021-08-18T08:36:55Z</time>
      </trkpt>
      <trkpt lat="49.33682" lon="-0.65465">
        <ele>50.5</ele>
        <time>2021-08-18T08:36:57Z</time>
      </trkpt>
      <trkpt lat="49.33686" lon="-0.65484">
        <ele>50.7</ele>
        <time>2021-08-18T08:36:59Z</time>
      </trkpt>
      <trkpt lat="49.33689" lon="-0.65504">
        <ele>50.8</ele>
        <time>2021-08-18T08:37:01Z</time>
      </trkpt>
      <trkpt lat="49.33692" lon="-0.65525">
        <ele>51</ele>
        <time>2021-08-18T08:37:03Z</time>
      </trkpt>
      <trkpt lat="49.33695" lon="-0.65545">
        <ele>51.1</ele>
        <time>2021-08-18T08:37:05Z</time>
      </trkpt>
      <trkpt lat="49.33699" lon="-0.65564">
        <ele>51.1</ele>
        <time>2021-08-18T08:37:07Z</time>
      </trkpt>
      <trkpt lat="49.33706" lon="-0.6558">
        <ele>51.1</ele>
        <time>2021-08-18T08:37:09Z</time>
      </trkpt>
      <trkpt lat="49.33712" lon="-0.65587">
        <ele>51.1</ele>
        <time>2021-08-18T08:37:10Z</time>
      </trkpt>
      <trkpt lat="49.33722" lon="-0.656">
        <ele>51.2</ele>
        <time>2021-08-18T08:37:12Z</time>
      </trkpt>
      <trkpt lat="49.33725" lon="-0.65608">
        <ele>51.2</ele>
        <time>2021-08-18T08:37:13Z</time>
      </trkpt>
      <trkpt lat="49.33731" lon="-0.65627">
        <ele>51.2</ele>
        <time>2021-08-18T08:37:15Z</time>
      </trkpt>
      <trkpt lat="49.33731" lon="-0.65646">
        <ele>51.2</ele>
        <time>2021-08-18T08:37:17Z</time>
      </trkpt>
      <trkpt lat="49.33728" lon="-0.65656">
        <ele>51.2</ele>
        <time>2021-08-18T08:37:18Z</time>
      </trkpt>
      <trkpt lat="49.33722" lon="-0.65674">
        <ele>51.1</ele>
        <time>2021-08-18T08:37:20Z</time>
      </trkpt>
      <trkpt lat="49.33718" lon="-0.65684">
        <ele>51.1</ele>
        <time>2021-08-18T08:37:21Z</time>
      </trkpt>
      <trkpt lat="49.33715" lon="-0.65694">
        <ele>51.1</ele>
        <time>2021-08-18T08:37:22Z</time>
      </trkpt>
      <trkpt lat="49.33707" lon="-0.65714">
        <ele>51.1</ele>
        <time>2021-08-18T08:37:24Z</time>
      </trkpt>
      <trkpt lat="49.33703" lon="-0.65723">
        <ele>51.1</ele>
        <time>2021-08-18T08:37:25Z</time>
      </trkpt>
      <trkpt lat="49.33696" lon="-0.65742">
        <ele>51.2</ele>
        <time>2021-08-18T08:37:27Z</time>
      </trkpt>
      <trkpt lat="49.33692" lon="-0.65752">
        <ele>51.2</ele>
        <time>2021-08-18T08:37:28Z</time>
      </trkpt>
      <trkpt lat="49.33684" lon="-0.65771">
        <ele>51.3</ele>
        <time>2021-08-18T08:37:30Z</time>
      </trkpt>
      <trkpt lat="49.33677" lon="-0.6579">
        <ele>51.4</ele>
        <time>2021-08-18T08:37:32Z</time>
      </trkpt>
      <trkpt lat="49.33674" lon="-0.658">
        <ele>51.4</ele>
        <time>2021-08-18T08:37:33Z</time>
      </trkpt>
      <trkpt lat="49.33667" lon="-0.6582">
        <ele>51.5</ele>
        <time>2021-08-18T08:37:35Z</time>
      </trkpt>
      <trkpt lat="49.33664" lon="-0.65831">
        <ele>51.5</ele>
        <time>2021-08-18T08:37:36Z</time>
      </trkpt>
      <trkpt lat="49.33658" lon="-0.6585">
        <ele>51.7</ele>
        <time>2021-08-18T08:37:38Z</time>
      </trkpt>
      <trkpt lat="49.33653" lon="-0.65871">
        <ele>51.8</ele>
        <time>2021-08-18T08:37:40Z</time>
      </trkpt>
      <trkpt lat="49.33648" lon="-0.65892">
        <ele>52</ele>
        <time>2021-08-18T08:37:42Z</time>
      </trkpt>
      <trkpt lat="49.33643" lon="-0.65913">
        <ele>52.1</ele>
        <time>2021-08-18T08:37:44Z</time>
      </trkpt>
      <trkpt lat="49.33637" lon="-0.65932">
        <ele>52.3</ele>
        <time>2021-08-18T08:37:46Z</time>
      </trkpt>
      <trkpt lat="49.33633" lon="-0.65941">
        <ele>52.3</ele>
        <time>2021-08-18T08:37:47Z</time>
      </trkpt>
      <trkpt lat="49.33629" lon="-0.65949">
        <ele>52.4</ele>
        <time>2021-08-18T08:37:48Z</time>
      </trkpt>
      <trkpt lat="49.33622" lon="-0.65966">
        <ele>52.6</ele>
        <time>2021-08-18T08:37:50Z</time>
      </trkpt>
      <trkpt lat="49.33618" lon="-0.65973">
        <ele>52.6</ele>
        <time>2021-08-18T08:37:51Z</time>
      </trkpt>
      <trkpt lat="49.33613" lon="-0.65981">
        <ele>52.7</ele>
        <time>2021-08-18T08:37:52Z</time>
      </trkpt>
      <trkpt lat="49.33605" lon="-0.65996">
        <ele>52.8</ele>
        <time>2021-08-18T08:37:54Z</time>
      </trkpt>
      <trkpt lat="49.33597" lon="-0.66013">
        <ele>53</ele>
        <time>2021-08-18T08:37:56Z</time>
      </trkpt>
      <trkpt lat="49.33588" lon="-0.66029">
        <ele>53.1</ele>
        <time>2021-08-18T08:37:58Z</time>
      </trkpt>
      <trkpt lat="49.33585" lon="-0.66037">
        <ele>53.3</ele>
        <time>2021-08-18T08:37:59Z</time>
      </trkpt>
      <trkpt lat="49.33581" lon="-0.66045">
        <ele>53.4</ele>
        <time>2021-08-18T08:38:00Z</time>
      </trkpt>
      <trkpt lat="49.33574" lon="-0.66062">
        <ele>53.7</ele>
        <time>2021-08-18T08:38:02Z</time>
      </trkpt>
      <trkpt lat="49.33566" lon="-0.66078">
        <ele>54</ele>
        <time>2021-08-18T08:38:04Z</time>
      </trkpt>
      <trkpt lat="49.33562" lon="-0.66087">
        <ele>54.1</ele>
        <time>2021-08-18T08:38:05Z</time>
      </trkpt>
      <trkpt lat="49.33559" lon="-0.66098">
        <ele>54.2</ele>
        <time>2021-08-18T08:38:06Z</time>
      </trkpt>
      <trkpt lat="49.33552" lon="-0.6612">
        <ele>54.5</ele>
        <time>2021-08-18T08:38:08Z</time>
      </trkpt>
      <trkpt lat="49.33548" lon="-0.66132">
        <ele>54.7</ele>
        <time>2021-08-18T08:38:09Z</time>
      </trkpt>
      <trkpt lat="49.33543" lon="-0.66154">
        <ele>55.1</ele>
        <time>2021-08-18T08:38:11Z</time>
      </trkpt>
      <trkpt lat="49.33541" lon="-0.66164">
        <ele>55.3</ele>
        <time>2021-08-18T08:38:12Z</time>
      </trkpt>
      <trkpt lat="49.33539" lon="-0.66175">
        <ele>55.5</ele>
        <time>2021-08-18T08:38:13Z</time>
      </trkpt>
      <trkpt lat="49.33536" lon="-0.66196">
        <ele>55.9</ele>
        <time>2021-08-18T08:38:15Z</time>
      </trkpt>
      <trkpt lat="49.33532" lon="-0.66218">
        <ele>56.2</ele>
        <time>2021-08-18T08:38:17Z</time>
      </trkpt>
      <trkpt lat="49.3353" lon="-0.66228">
        <ele>56.4</ele>
        <time>2021-08-18T08:38:18Z</time>
      </trkpt>
      <trkpt lat="49.33526" lon="-0.66247">
        <ele>56.8</ele>
        <time>2021-08-18T08:38:20Z</time>
      </trkpt>
      <trkpt lat="49.33524" lon="-0.66257">
        <ele>56.9</ele>
        <time>2021-08-18T08:38:21Z</time>
      </trkpt>
      <trkpt lat="49.33519" lon="-0.66276">
        <ele>57.3</ele>
        <time>2021-08-18T08:38:23Z</time>
      </trkpt>
      <trkpt lat="49.33516" lon="-0.66285">
        <ele>57.5</ele>
        <time>2021-08-18T08:38:24Z</time>
      </trkpt>
      <trkpt lat="49.33512" lon="-0.66302">
        <ele>57.8</ele>
        <time>2021-08-18T08:38:26Z</time>
      </trkpt>
      <trkpt lat="49.33509" lon="-0.66311">
        <ele>57.9</ele>
        <time>2021-08-18T08:38:27Z</time>
      </trkpt>
      <trkpt lat="49.33505" lon="-0.66329">
        <ele>58.2</ele>
        <time>2021-08-18T08:38:29Z</time>
      </trkpt>
      <trkpt lat="49.33503" lon="-0.66338">
        <ele>58.3</ele>
        <time>2021-08-18T08:38:30Z</time>
      </trkpt>
      <trkpt lat="49.335" lon="-0.66357">
        <ele>58.5</ele>
        <time>2021-08-18T08:38:32Z</time>
      </trkpt>
      <trkpt lat="49.33494" lon="-0.66377">
        <ele>58.8</ele>
        <time>2021-08-18T08:38:34Z</time>
      </trkpt>
      <trkpt lat="49.33491" lon="-0.66387">
        <ele>58.9</ele>
        <time>2021-08-18T08:38:35Z</time>
      </trkpt>
      <trkpt lat="49.33486" lon="-0.66407">
        <ele>59.2</ele>
        <time>2021-08-18T08:38:37Z</time>
      </trkpt>
      <trkpt lat="49.33483" lon="-0.66417">
        <ele>59.3</ele>
        <time>2021-08-18T08:38:38Z</time>
      </trkpt>
      <trkpt lat="49.33476" lon="-0.66438">
        <ele>59.6</ele>
        <time>2021-08-18T08:38:40Z</time>
      </trkpt>
      <trkpt lat="49.3347" lon="-0.66459">
        <ele>59.9</ele>
        <time>2021-08-18T08:38:42Z</time>
      </trkpt>
      <trkpt lat="49.33464" lon="-0.66479">
        <ele>60.3</ele>
        <time>2021-08-18T08:38:44Z</time>
      </trkpt>
      <trkpt lat="49.33461" lon="-0.66489">
        <ele>60.5</ele>
        <time>2021-08-18T08:38:45Z</time>
      </trkpt>
      <trkpt lat="49.33456" lon="-0.66508">
        <ele>60.8</ele>
        <time>2021-08-18T08:38:47Z</time>
      </trkpt>
      <trkpt lat="49.33453" lon="-0.66518">
        <ele>60.9</ele>
        <time>2021-08-18T08:38:48Z</time>
      </trkpt>
      <trkpt lat="49.33447" lon="-0.66538">
        <ele>61.2</ele>
        <time>2021-08-18T08:38:50Z</time>
      </trkpt>
      <trkpt lat="49.33443" lon="-0.66558">
        <ele>61.4</ele>
        <time>2021-08-18T08:38:52Z</time>
      </trkpt>
      <trkpt lat="49.33438" lon="-0.66577">
        <ele>61.6</ele>
        <time>2021-08-18T08:38:54Z</time>
      </trkpt>
      <trkpt lat="49.33435" lon="-0.66586">
        <ele>61.6</ele>
        <time>2021-08-18T08:38:55Z</time>
      </trkpt>
      <trkpt lat="49.33429" lon="-0.66605">
        <ele>61.8</ele>
        <time>2021-08-18T08:38:57Z</time>
      </trkpt>
      <trkpt lat="49.33426" lon="-0.66615">
        <ele>61.8</ele>
        <time>2021-08-18T08:38:58Z</time>
      </trkpt>
      <trkpt lat="49.33419" lon="-0.66632">
        <ele>61.9</ele>
        <time>2021-08-18T08:39:00Z</time>
      </trkpt>
      <trkpt lat="49.33415" lon="-0.66641">
        <ele>62</ele>
        <time>2021-08-18T08:39:01Z</time>
      </trkpt>
      <trkpt lat="49.33411" lon="-0.66649">
        <ele>62.1</ele>
        <time>2021-08-18T08:39:02Z</time>
      </trkpt>
      <trkpt lat="49.33403" lon="-0.66666">
        <ele>62.2</ele>
        <time>2021-08-18T08:39:04Z</time>
      </trkpt>
      <trkpt lat="49.33399" lon="-0.66675">
        <ele>62.2</ele>
        <time>2021-08-18T08:39:05Z</time>
      </trkpt>
      <trkpt lat="49.3339" lon="-0.66692">
        <ele>62.3</ele>
        <time>2021-08-18T08:39:07Z</time>
      </trkpt>
      <trkpt lat="49.33386" lon="-0.66701">
        <ele>62.3</ele>
        <time>2021-08-18T08:39:08Z</time>
      </trkpt>
      <trkpt lat="49.33382" lon="-0.66709">
        <ele>62.3</ele>
        <time>2021-08-18T08:39:09Z</time>
      </trkpt>
      <trkpt lat="49.33373" lon="-0.66727">
        <ele>62.3</ele>
        <time>2021-08-18T08:39:11Z</time>
      </trkpt>
      <trkpt lat="49.33363" lon="-0.66743">
        <ele>62.3</ele>
        <time>2021-08-18T08:39:13Z</time>
      </trkpt>
      <trkpt lat="49.33353" lon="-0.66759">
        <ele>62.4</ele>
        <time>2021-08-18T08:39:15Z</time>
      </trkpt>
      <trkpt lat="49.33348" lon="-0.66767">
        <ele>62.4</ele>
        <time>2021-08-18T08:39:16Z</time>
      </trkpt>
      <trkpt lat="49.33343" lon="-0.66776">
        <ele>62.4</ele>
        <time>2021-08-18T08:39:17Z</time>
      </trkpt>
      <trkpt lat="49.33332" lon="-0.66792">
        <ele>62.5</ele>
        <time>2021-08-18T08:39:19Z</time>
      </trkpt>
      <trkpt lat="49.33321" lon="-0.66808">
        <ele>62.5</ele>
        <time>2021-08-18T08:39:21Z</time>
      </trkpt>
      <trkpt lat="49.3331" lon="-0.66825">
        <ele>62.5</ele>
        <time>2021-08-18T08:39:23Z</time>
      </trkpt>
      <trkpt lat="49.33299" lon="-0.66841">
        <ele>62.4</ele>
        <time>2021-08-18T08:39:25Z</time>
      </trkpt>
      <trkpt lat="49.33287" lon="-0.66858">
        <ele>62.4</ele>
        <time>2021-08-18T08:39:27Z</time>
      </trkpt>
      <trkpt lat="49.33281" lon="-0.66866">
        <ele>62.4</ele>
        <time>2021-08-18T08:39:28Z</time>
      </trkpt>
      <trkpt lat="49.3327" lon="-0.66884">
        <ele>62.4</ele>
        <time>2021-08-18T08:39:30Z</time>
      </trkpt>
      <trkpt lat="49.33265" lon="-0.66894">
        <ele>62.4</ele>
        <time>2021-08-18T08:39:31Z</time>
      </trkpt>
      <trkpt lat="49.33257" lon="-0.66915">
        <ele>62.4</ele>
        <time>2021-08-18T08:39:33Z</time>
      </trkpt>
      <trkpt lat="49.33252" lon="-0.66938">
        <ele>62.4</ele>
        <time>2021-08-18T08:39:35Z</time>
      </trkpt>
      <trkpt lat="49.33247" lon="-0.66961">
        <ele>62.5</ele>
        <time>2021-08-18T08:39:37Z</time>
      </trkpt>
      <trkpt lat="49.33242" lon="-0.66983">
        <ele>62.5</ele>
        <time>2021-08-18T08:39:39Z</time>
      </trkpt>
      <trkpt lat="49.33237" lon="-0.67005">
        <ele>62.5</ele>
        <time>2021-08-18T08:39:41Z</time>
      </trkpt>
      <trkpt lat="49.33235" lon="-0.67017">
        <ele>62.5</ele>
        <time>2021-08-18T08:39:42Z</time>
      </trkpt>
      <trkpt lat="49.33231" lon="-0.67039">
        <ele>62.5</ele>
        <time>2021-08-18T08:39:44Z</time>
      </trkpt>
      <trkpt lat="49.33226" lon="-0.67061">
        <ele>62.5</ele>
        <time>2021-08-18T08:39:46Z</time>
      </trkpt>
      <trkpt lat="49.33221" lon="-0.67085">
        <ele>62.5</ele>
        <time>2021-08-18T08:39:48Z</time>
      </trkpt>
      <trkpt lat="49.33219" lon="-0.67096">
        <ele>62.5</ele>
        <time>2021-08-18T08:39:49Z</time>
      </trkpt>
      <trkpt lat="49.33216" lon="-0.67108">
        <ele>62.5</ele>
        <time>2021-08-18T08:39:50Z</time>
      </trkpt>
      <trkpt lat="49.33211" lon="-0.67132">
        <ele>62.5</ele>
        <time>2021-08-18T08:39:52Z</time>
      </trkpt>
      <trkpt lat="49.33209" lon="-0.67144">
        <ele>62.4</ele>
        <time>2021-08-18T08:39:53Z</time>
      </trkpt>
      <trkpt lat="49.33203" lon="-0.67167">
        <ele>62.4</ele>
        <time>2021-08-18T08:39:55Z</time>
      </trkpt>
      <trkpt lat="49.332" lon="-0.67179">
        <ele>62.4</ele>
        <time>2021-08-18T08:39:56Z</time>
      </trkpt>
      <trkpt lat="49.33198" lon="-0.6719">
        <ele>62.4</ele>
        <time>2021-08-18T08:39:57Z</time>
      </trkpt>
      <trkpt lat="49.33195" lon="-0.67202">
        <ele>62.4</ele>
        <time>2021-08-18T08:39:58Z</time>
      </trkpt>
      <trkpt lat="49.3319" lon="-0.67225">
        <ele>62.4</ele>
        <time>2021-08-18T08:40:00Z</time>
      </trkpt>
      <trkpt lat="49.33189" lon="-0.67237">
        <ele>62.4</ele>
        <time>2021-08-18T08:40:01Z</time>
      </trkpt>
      <trkpt lat="49.33187" lon="-0.67249">
        <ele>62.4</ele>
        <time>2021-08-18T08:40:02Z</time>
      </trkpt>
      <trkpt lat="49.33185" lon="-0.67261">
        <ele>62.4</ele>
        <time>2021-08-18T08:40:03Z</time>
      </trkpt>
      <trkpt lat="49.33183" lon="-0.67285">
        <ele>62.3</ele>
        <time>2021-08-18T08:40:05Z</time>
      </trkpt>
      <trkpt lat="49.33182" lon="-0.67309">
        <ele>62.3</ele>
        <time>2021-08-18T08:40:07Z</time>
      </trkpt>
      <trkpt lat="49.33183" lon="-0.67332">
        <ele>62.2</ele>
        <time>2021-08-18T08:40:09Z</time>
      </trkpt>
      <trkpt lat="49.33185" lon="-0.67344">
        <ele>62.2</ele>
        <time>2021-08-18T08:40:10Z</time>
      </trkpt>
      <trkpt lat="49.33187" lon="-0.67356">
        <ele>62.2</ele>
        <time>2021-08-18T08:40:11Z</time>
      </trkpt>
      <trkpt lat="49.33191" lon="-0.67379">
        <ele>62.2</ele>
        <time>2021-08-18T08:40:13Z</time>
      </trkpt>
      <trkpt lat="49.33196" lon="-0.67402">
        <ele>62.1</ele>
        <time>2021-08-18T08:40:15Z</time>
      </trkpt>
      <trkpt lat="49.33201" lon="-0.67423">
        <ele>62.1</ele>
        <time>2021-08-18T08:40:17Z</time>
      </trkpt>
      <trkpt lat="49.33205" lon="-0.67434">
        <ele>62.1</ele>
        <time>2021-08-18T08:40:18Z</time>
      </trkpt>
      <trkpt lat="49.33211" lon="-0.67455">
        <ele>62.1</ele>
        <time>2021-08-18T08:40:20Z</time>
      </trkpt>
      <trkpt lat="49.33218" lon="-0.67475">
        <ele>62.1</ele>
        <time>2021-08-18T08:40:22Z</time>
      </trkpt>
      <trkpt lat="49.33225" lon="-0.67496">
        <ele>62.2</ele>
        <time>2021-08-18T08:40:24Z</time>
      </trkpt>
      <trkpt lat="49.33228" lon="-0.67507">
        <ele>62.2</ele>
        <time>2021-08-18T08:40:25Z</time>
      </trkpt>
      <trkpt lat="49.33234" lon="-0.67528">
        <ele>62.2</ele>
        <time>2021-08-18T08:40:27Z</time>
      </trkpt>
      <trkpt lat="49.33239" lon="-0.67549">
        <ele>62.2</ele>
        <time>2021-08-18T08:40:29Z</time>
      </trkpt>
      <trkpt lat="49.33242" lon="-0.6756">
        <ele>62.2</ele>
        <time>2021-08-18T08:40:30Z</time>
      </trkpt>
      <trkpt lat="49.33248" lon="-0.67581">
        <ele>62.2</ele>
        <time>2021-08-18T08:40:32Z</time>
      </trkpt>
      <trkpt lat="49.33252" lon="-0.67604">
        <ele>62.1</ele>
        <time>2021-08-18T08:40:34Z</time>
      </trkpt>
      <trkpt lat="49.33253" lon="-0.67615">
        <ele>62.1</ele>
        <time>2021-08-18T08:40:35Z</time>
      </trkpt>
      <trkpt lat="49.33256" lon="-0.67638">
        <ele>62</ele>
        <time>2021-08-18T08:40:37Z</time>
      </trkpt>
      <trkpt lat="49.33259" lon="-0.67661">
        <ele>61.9</ele>
        <time>2021-08-18T08:40:39Z</time>
      </trkpt>
      <trkpt lat="49.3326" lon="-0.67684">
        <ele>61.7</ele>
        <time>2021-08-18T08:40:41Z</time>
      </trkpt>
      <trkpt lat="49.3326" lon="-0.67696">
        <ele>61.6</ele>
        <time>2021-08-18T08:40:42Z</time>
      </trkpt>
      <trkpt lat="49.33261" lon="-0.67708">
        <ele>61.6</ele>
        <time>2021-08-18T08:40:43Z</time>
      </trkpt>
      <trkpt lat="49.33262" lon="-0.67719">
        <ele>61.5</ele>
        <time>2021-08-18T08:40:44Z</time>
      </trkpt>
      <trkpt lat="49.33262" lon="-0.67731">
        <ele>61.4</ele>
        <time>2021-08-18T08:40:45Z</time>
      </trkpt>
      <trkpt lat="49.33263" lon="-0.67754">
        <ele>61.3</ele>
        <time>2021-08-18T08:40:47Z</time>
      </trkpt>
      <trkpt lat="49.33263" lon="-0.67765">
        <ele>61.2</ele>
        <time>2021-08-18T08:40:48Z</time>
      </trkpt>
      <trkpt lat="49.33263" lon="-0.67776">
        <ele>61.1</ele>
        <time>2021-08-18T08:40:49Z</time>
      </trkpt>
      <trkpt lat="49.33263" lon="-0.67799">
        <ele>61</ele>
        <time>2021-08-18T08:40:51Z</time>
      </trkpt>
      <trkpt lat="49.33263" lon="-0.67823">
        <ele>60.8</ele>
        <time>2021-08-18T08:40:53Z</time>
      </trkpt>
      <trkpt lat="49.33263" lon="-0.67834">
        <ele>60.8</ele>
        <time>2021-08-18T08:40:54Z</time>
      </trkpt>
      <trkpt lat="49.33264" lon="-0.67856">
        <ele>60.8</ele>
        <time>2021-08-18T08:40:56Z</time>
      </trkpt>
      <trkpt lat="49.33267" lon="-0.67878">
        <ele>60.7</ele>
        <time>2021-08-18T08:40:58Z</time>
      </trkpt>
      <trkpt lat="49.33269" lon="-0.67889">
        <ele>60.7</ele>
        <time>2021-08-18T08:40:59Z</time>
      </trkpt>
      <trkpt lat="49.33273" lon="-0.6791">
        <ele>60.7</ele>
        <time>2021-08-18T08:41:01Z</time>
      </trkpt>
      <trkpt lat="49.33279" lon="-0.67929">
        <ele>60.7</ele>
        <time>2021-08-18T08:41:03Z</time>
      </trkpt>
      <trkpt lat="49.33282" lon="-0.6794">
        <ele>60.7</ele>
        <time>2021-08-18T08:41:04Z</time>
      </trkpt>
      <trkpt lat="49.33288" lon="-0.6796">
        <ele>60.7</ele>
        <time>2021-08-18T08:41:06Z</time>
      </trkpt>
      <trkpt lat="49.33291" lon="-0.6797">
        <ele>60.7</ele>
        <time>2021-08-18T08:41:07Z</time>
      </trkpt>
      <trkpt lat="49.33294" lon="-0.67981">
        <ele>60.7</ele>
        <time>2021-08-18T08:41:08Z</time>
      </trkpt>
      <trkpt lat="49.33297" lon="-0.67991">
        <ele>60.7</ele>
        <time>2021-08-18T08:41:09Z</time>
      </trkpt>
      <trkpt lat="49.33303" lon="-0.68012">
        <ele>60.6</ele>
        <time>2021-08-18T08:41:11Z</time>
      </trkpt>
      <trkpt lat="49.33307" lon="-0.68022">
        <ele>60.5</ele>
        <time>2021-08-18T08:41:12Z</time>
      </trkpt>
      <trkpt lat="49.3331" lon="-0.68033">
        <ele>60.5</ele>
        <time>2021-08-18T08:41:13Z</time>
      </trkpt>
      <trkpt lat="49.33315" lon="-0.68054">
        <ele>60.4</ele>
        <time>2021-08-18T08:41:15Z</time>
      </trkpt>
      <trkpt lat="49.33319" lon="-0.68076">
        <ele>60.3</ele>
        <time>2021-08-18T08:41:17Z</time>
      </trkpt>
      <trkpt lat="49.33322" lon="-0.68087">
        <ele>60.2</ele>
        <time>2021-08-18T08:41:18Z</time>
      </trkpt>
      <trkpt lat="49.33326" lon="-0.68109">
        <ele>60.1</ele>
        <time>2021-08-18T08:41:20Z</time>
      </trkpt>
      <trkpt lat="49.33331" lon="-0.6813">
        <ele>60</ele>
        <time>2021-08-18T08:41:22Z</time>
      </trkpt>
      <trkpt lat="49.33333" lon="-0.68141">
        <ele>59.9</ele>
        <time>2021-08-18T08:41:23Z</time>
      </trkpt>
      <trkpt lat="49.33337" lon="-0.68162">
        <ele>59.8</ele>
        <time>2021-08-18T08:41:25Z</time>
      </trkpt>
      <trkpt lat="49.3334" lon="-0.68184">
        <ele>59.6</ele>
        <time>2021-08-18T08:41:27Z</time>
      </trkpt>
      <trkpt lat="49.33342" lon="-0.68206">
        <ele>59.5</ele>
        <time>2021-08-18T08:41:29Z</time>
      </trkpt>
      <trkpt lat="49.33344" lon="-0.68228">
        <ele>59.3</ele>
        <time>2021-08-18T08:41:31Z</time>
      </trkpt>
      <trkpt lat="49.33346" lon="-0.68251">
        <ele>59</ele>
        <time>2021-08-18T08:41:33Z</time>
      </trkpt>
      <trkpt lat="49.33346" lon="-0.68262">
        <ele>58.9</ele>
        <time>2021-08-18T08:41:34Z</time>
      </trkpt>
      <trkpt lat="49.33347" lon="-0.68285">
        <ele>58.7</ele>
        <time>2021-08-18T08:41:36Z</time>
      </trkpt>
      <trkpt lat="49.33348" lon="-0.68308">
        <ele>58.4</ele>
        <time>2021-08-18T08:41:38Z</time>
      </trkpt>
      <trkpt lat="49.33348" lon="-0.6832">
        <ele>58.3</ele>
        <time>2021-08-18T08:41:39Z</time>
      </trkpt>
      <trkpt lat="49.33348" lon="-0.68333">
        <ele>58.2</ele>
        <time>2021-08-18T08:41:40Z</time>
      </trkpt>
      <trkpt lat="49.33349" lon="-0.68345">
        <ele>58.1</ele>
        <time>2021-08-18T08:41:41Z</time>
      </trkpt>
      <trkpt lat="49.33348" lon="-0.68369">
        <ele>57.8</ele>
        <time>2021-08-18T08:41:43Z</time>
      </trkpt>
      <trkpt lat="49.33348" lon="-0.68394">
        <ele>57.6</ele>
        <time>2021-08-18T08:41:45Z</time>
      </trkpt>
      <trkpt lat="49.33349" lon="-0.68419">
        <ele>57.4</ele>
        <time>2021-08-18T08:41:47Z</time>
      </trkpt>
      <trkpt lat="49.3335" lon="-0.68431">
        <ele>57.3</ele>
        <time>2021-08-18T08:41:48Z</time>
      </trkpt>
      <trkpt lat="49.33353" lon="-0.68455">
        <ele>57.1</ele>
        <time>2021-08-18T08:41:50Z</time>
      </trkpt>
      <trkpt lat="49.33358" lon="-0.68478">
        <ele>57</ele>
        <time>2021-08-18T08:41:52Z</time>
      </trkpt>
      <trkpt lat="49.33364" lon="-0.68501">
        <ele>56.9</ele>
        <time>2021-08-18T08:41:54Z</time>
      </trkpt>
      <trkpt lat="49.33371" lon="-0.68523">
        <ele>56.8</ele>
        <time>2021-08-18T08:41:56Z</time>
      </trkpt>
      <trkpt lat="49.33379" lon="-0.68543">
        <ele>56.8</ele>
        <time>2021-08-18T08:41:58Z</time>
      </trkpt>
      <trkpt lat="49.33385" lon="-0.68565">
        <ele>56.9</ele>
        <time>2021-08-18T08:42:00Z</time>
      </trkpt>
      <trkpt lat="49.33391" lon="-0.68586">
        <ele>56.9</ele>
        <time>2021-08-18T08:42:02Z</time>
      </trkpt>
      <trkpt lat="49.33395" lon="-0.68608">
        <ele>56.9</ele>
        <time>2021-08-18T08:42:04Z</time>
      </trkpt>
      <trkpt lat="49.33396" lon="-0.68619">
        <ele>56.9</ele>
        <time>2021-08-18T08:42:05Z</time>
      </trkpt>
      <trkpt lat="49.33397" lon="-0.6863">
        <ele>56.9</ele>
        <time>2021-08-18T08:42:06Z</time>
      </trkpt>
      <trkpt lat="49.33398" lon="-0.68642">
        <ele>56.9</ele>
        <time>2021-08-18T08:42:07Z</time>
      </trkpt>
      <trkpt lat="49.33399" lon="-0.68664">
        <ele>56.9</ele>
        <time>2021-08-18T08:42:09Z</time>
      </trkpt>
      <trkpt lat="49.334" lon="-0.68686">
        <ele>56.9</ele>
        <time>2021-08-18T08:42:11Z</time>
      </trkpt>
      <trkpt lat="49.334" lon="-0.68698">
        <ele>56.9</ele>
        <time>2021-08-18T08:42:12Z</time>
      </trkpt>
      <trkpt lat="49.33402" lon="-0.6872">
        <ele>56.9</ele>
        <time>2021-08-18T08:42:14Z</time>
      </trkpt>
      <trkpt lat="49.33404" lon="-0.68744">
        <ele>57</ele>
        <time>2021-08-18T08:42:16Z</time>
      </trkpt>
      <trkpt lat="49.33407" lon="-0.68768">
        <ele>57</ele>
        <time>2021-08-18T08:42:18Z</time>
      </trkpt>
      <trkpt lat="49.33409" lon="-0.68791">
        <ele>57</ele>
        <time>2021-08-18T08:42:20Z</time>
      </trkpt>
      <trkpt lat="49.33413" lon="-0.68814">
        <ele>57.1</ele>
        <time>2021-08-18T08:42:22Z</time>
      </trkpt>
      <trkpt lat="49.33415" lon="-0.68825">
        <ele>57.1</ele>
        <time>2021-08-18T08:42:23Z</time>
      </trkpt>
      <trkpt lat="49.33422" lon="-0.68846">
        <ele>57.1</ele>
        <time>2021-08-18T08:42:25Z</time>
      </trkpt>
      <trkpt lat="49.33426" lon="-0.68856">
        <ele>57.1</ele>
        <time>2021-08-18T08:42:26Z</time>
      </trkpt>
      <trkpt lat="49.33435" lon="-0.68873">
        <ele>57.1</ele>
        <time>2021-08-18T08:42:28Z</time>
      </trkpt>
      <trkpt lat="49.33439" lon="-0.68882">
        <ele>57.1</ele>
        <time>2021-08-18T08:42:29Z</time>
      </trkpt>
      <trkpt lat="49.33446" lon="-0.68901">
        <ele>57.1</ele>
        <time>2021-08-18T08:42:31Z</time>
      </trkpt>
      <trkpt lat="49.3345" lon="-0.6891">
        <ele>57.1</ele>
        <time>2021-08-18T08:42:32Z</time>
      </trkpt>
      <trkpt lat="49.33457" lon="-0.68929">
        <ele>57.1</ele>
        <time>2021-08-18T08:42:34Z</time>
      </trkpt>
      <trkpt lat="49.33461" lon="-0.68938">
        <ele>57.1</ele>
        <time>2021-08-18T08:42:35Z</time>
      </trkpt>
      <trkpt lat="49.33468" lon="-0.68957">
        <ele>57.1</ele>
        <time>2021-08-18T08:42:37Z</time>
      </trkpt>
      <trkpt lat="49.33474" lon="-0.68976">
        <ele>57.1</ele>
        <time>2021-08-18T08:42:39Z</time>
      </trkpt>
      <trkpt lat="49.33479" lon="-0.68997">
        <ele>57.2</ele>
        <time>2021-08-18T08:42:41Z</time>
      </trkpt>
      <trkpt lat="49.33485" lon="-0.69018">
        <ele>57.1</ele>
        <time>2021-08-18T08:42:43Z</time>
      </trkpt>
      <trkpt lat="49.33487" lon="-0.69029">
        <ele>57.1</ele>
        <time>2021-08-18T08:42:44Z</time>
      </trkpt>
      <trkpt lat="49.33492" lon="-0.69051">
        <ele>57.1</ele>
        <time>2021-08-18T08:42:46Z</time>
      </trkpt>
      <trkpt lat="49.33496" lon="-0.69073">
        <ele>57.1</ele>
        <time>2021-08-18T08:42:48Z</time>
      </trkpt>
      <trkpt lat="49.33498" lon="-0.69084">
        <ele>57</ele>
        <time>2021-08-18T08:42:49Z</time>
      </trkpt>
      <trkpt lat="49.33501" lon="-0.69095">
        <ele>57</ele>
        <time>2021-08-18T08:42:50Z</time>
      </trkpt>
      <trkpt lat="49.33503" lon="-0.69105">
        <ele>57</ele>
        <time>2021-08-18T08:42:51Z</time>
      </trkpt>
      <trkpt lat="49.33508" lon="-0.69126">
        <ele>57</ele>
        <time>2021-08-18T08:42:53Z</time>
      </trkpt>
      <trkpt lat="49.33512" lon="-0.69148">
        <ele>56.9</ele>
        <time>2021-08-18T08:42:55Z</time>
      </trkpt>
      <trkpt lat="49.33515" lon="-0.69171">
        <ele>56.9</ele>
        <time>2021-08-18T08:42:57Z</time>
      </trkpt>
      <trkpt lat="49.33519" lon="-0.69192">
        <ele>56.8</ele>
        <time>2021-08-18T08:42:59Z</time>
      </trkpt>
      <trkpt lat="49.33521" lon="-0.69214">
        <ele>56.8</ele>
        <time>2021-08-18T08:43:01Z</time>
      </trkpt>
      <trkpt lat="49.33525" lon="-0.69235">
        <ele>56.7</ele>
        <time>2021-08-18T08:43:03Z</time>
      </trkpt>
      <trkpt lat="49.33527" lon="-0.69246">
        <ele>56.7</ele>
        <time>2021-08-18T08:43:04Z</time>
      </trkpt>
      <trkpt lat="49.33529" lon="-0.69256">
        <ele>56.6</ele>
        <time>2021-08-18T08:43:05Z</time>
      </trkpt>
      <trkpt lat="49.33533" lon="-0.69277">
        <ele>56.5</ele>
        <time>2021-08-18T08:43:07Z</time>
      </trkpt>
      <trkpt lat="49.33535" lon="-0.69288">
        <ele>56.5</ele>
        <time>2021-08-18T08:43:08Z</time>
      </trkpt>
      <trkpt lat="49.33539" lon="-0.69309">
        <ele>56.4</ele>
        <time>2021-08-18T08:43:10Z</time>
      </trkpt>
      <trkpt lat="49.33544" lon="-0.6933">
        <ele>56.4</ele>
        <time>2021-08-18T08:43:12Z</time>
      </trkpt>
      <trkpt lat="49.33546" lon="-0.6934">
        <ele>56.4</ele>
        <time>2021-08-18T08:43:13Z</time>
      </trkpt>
      <trkpt lat="49.3355" lon="-0.6936">
        <ele>56.3</ele>
        <time>2021-08-18T08:43:15Z</time>
      </trkpt>
      <trkpt lat="49.33552" lon="-0.69381">
        <ele>56.2</ele>
        <time>2021-08-18T08:43:17Z</time>
      </trkpt>
      <trkpt lat="49.33553" lon="-0.69392">
        <ele>56.1</ele>
        <time>2021-08-18T08:43:18Z</time>
      </trkpt>
      <trkpt lat="49.33555" lon="-0.69413">
        <ele>55.9</ele>
        <time>2021-08-18T08:43:20Z</time>
      </trkpt>
      <trkpt lat="49.33556" lon="-0.69423">
        <ele>55.8</ele>
        <time>2021-08-18T08:43:21Z</time>
      </trkpt>
      <trkpt lat="49.33557" lon="-0.69445">
        <ele>55.6</ele>
        <time>2021-08-18T08:43:23Z</time>
      </trkpt>
      <trkpt lat="49.33558" lon="-0.69455">
        <ele>55.5</ele>
        <time>2021-08-18T08:43:24Z</time>
      </trkpt>
      <trkpt lat="49.33559" lon="-0.69477">
        <ele>55.3</ele>
        <time>2021-08-18T08:43:26Z</time>
      </trkpt>
      <trkpt lat="49.3356" lon="-0.69488">
        <ele>55.1</ele>
        <time>2021-08-18T08:43:27Z</time>
      </trkpt>
      <trkpt lat="49.33562" lon="-0.69509">
        <ele>54.8</ele>
        <time>2021-08-18T08:43:29Z</time>
      </trkpt>
      <trkpt lat="49.33563" lon="-0.6952">
        <ele>54.6</ele>
        <time>2021-08-18T08:43:30Z</time>
      </trkpt>
      <trkpt lat="49.33564" lon="-0.69542">
        <ele>54.2</ele>
        <time>2021-08-18T08:43:32Z</time>
      </trkpt>
      <trkpt lat="49.33565" lon="-0.69553">
        <ele>54</ele>
        <time>2021-08-18T08:43:33Z</time>
      </trkpt>
      <trkpt lat="49.33566" lon="-0.69574">
        <ele>53.4</ele>
        <time>2021-08-18T08:43:35Z</time>
      </trkpt>
      <trkpt lat="49.33567" lon="-0.69585">
        <ele>53.1</ele>
        <time>2021-08-18T08:43:36Z</time>
      </trkpt>
      <trkpt lat="49.33569" lon="-0.69606">
        <ele>52.4</ele>
        <time>2021-08-18T08:43:38Z</time>
      </trkpt>
      <trkpt lat="49.33572" lon="-0.69628">
        <ele>51.9</ele>
        <time>2021-08-18T08:43:40Z</time>
      </trkpt>
      <trkpt lat="49.33575" lon="-0.69637">
        <ele>51.7</ele>
        <time>2021-08-18T08:43:41Z</time>
      </trkpt>
      <trkpt lat="49.33577" lon="-0.69644">
        <ele>51.5</ele>
        <time>2021-08-18T08:43:42Z</time>
      </trkpt>
      <trkpt lat="49.33583" lon="-0.69652">
        <ele>51.3</ele>
        <time>2021-08-18T08:43:44Z</time>
      </trkpt>
      <trkpt lat="49.33587" lon="-0.69657">
        <ele>51.2</ele>
        <time>2021-08-18T08:43:45Z</time>
      </trkpt>
      <trkpt lat="49.33593" lon="-0.69673">
        <ele>51.3</ele>
        <time>2021-08-18T08:43:47Z</time>
      </trkpt>
      <trkpt lat="49.33596" lon="-0.69681">
        <ele>51.3</ele>
        <time>2021-08-18T08:43:48Z</time>
      </trkpt>
      <trkpt lat="49.336" lon="-0.69698">
        <ele>51.4</ele>
        <time>2021-08-18T08:43:50Z</time>
      </trkpt>
      <trkpt lat="49.33602" lon="-0.69716">
        <ele>51.5</ele>
        <time>2021-08-18T08:43:52Z</time>
      </trkpt>
      <trkpt lat="49.33604" lon="-0.69725">
        <ele>51.6</ele>
        <time>2021-08-18T08:43:53Z</time>
      </trkpt>
      <trkpt lat="49.33605" lon="-0.69734">
        <ele>51.7</ele>
        <time>2021-08-18T08:43:54Z</time>
      </trkpt>
      <trkpt lat="49.33607" lon="-0.69744">
        <ele>51.7</ele>
        <time>2021-08-18T08:43:55Z</time>
      </trkpt>
      <trkpt lat="49.33608" lon="-0.69762">
        <ele>51.9</ele>
        <time>2021-08-18T08:43:57Z</time>
      </trkpt>
      <trkpt lat="49.33608" lon="-0.69772">
        <ele>52.1</ele>
        <time>2021-08-18T08:43:58Z</time>
      </trkpt>
      <trkpt lat="49.33608" lon="-0.69781">
        <ele>52.3</ele>
        <time>2021-08-18T08:43:59Z</time>
      </trkpt>
      <trkpt lat="49.33606" lon="-0.698">
        <ele>52.6</ele>
        <time>2021-08-18T08:44:01Z</time>
      </trkpt>
      <trkpt lat="49.33605" lon="-0.69809">
        <ele>52.8</ele>
        <time>2021-08-18T08:44:02Z</time>
      </trkpt>
      <trkpt lat="49.33604" lon="-0.69819">
        <ele>52.9</ele>
        <time>2021-08-18T08:44:03Z</time>
      </trkpt>
      <trkpt lat="49.33603" lon="-0.69829">
        <ele>53.1</ele>
        <time>2021-08-18T08:44:04Z</time>
      </trkpt>
      <trkpt lat="49.33598" lon="-0.69847">
        <ele>53.4</ele>
        <time>2021-08-18T08:44:06Z</time>
      </trkpt>
      <trkpt lat="49.33596" lon="-0.69856">
        <ele>53.6</ele>
        <time>2021-08-18T08:44:07Z</time>
      </trkpt>
      <trkpt lat="49.33592" lon="-0.69875">
        <ele>53.9</ele>
        <time>2021-08-18T08:44:09Z</time>
      </trkpt>
      <trkpt lat="49.33588" lon="-0.69894">
        <ele>54.3</ele>
        <time>2021-08-18T08:44:11Z</time>
      </trkpt>
      <trkpt lat="49.33586" lon="-0.69903">
        <ele>54.4</ele>
        <time>2021-08-18T08:44:12Z</time>
      </trkpt>
      <trkpt lat="49.33583" lon="-0.69922">
        <ele>54.7</ele>
        <time>2021-08-18T08:44:14Z</time>
      </trkpt>
      <trkpt lat="49.33581" lon="-0.69931">
        <ele>54.9</ele>
        <time>2021-08-18T08:44:15Z</time>
      </trkpt>
      <trkpt lat="49.33579" lon="-0.69949">
        <ele>55.1</ele>
        <time>2021-08-18T08:44:17Z</time>
      </trkpt>
      <trkpt lat="49.33575" lon="-0.69968">
        <ele>55.3</ele>
        <time>2021-08-18T08:44:19Z</time>
      </trkpt>
      <trkpt lat="49.33572" lon="-0.69986">
        <ele>55.5</ele>
        <time>2021-08-18T08:44:21Z</time>
      </trkpt>
      <trkpt lat="49.3357" lon="-0.69996">
        <ele>55.6</ele>
        <time>2021-08-18T08:44:22Z</time>
      </trkpt>
      <trkpt lat="49.33568" lon="-0.70005">
        <ele>55.7</ele>
        <time>2021-08-18T08:44:23Z</time>
      </trkpt>
      <trkpt lat="49.33564" lon="-0.70024">
        <ele>55.8</ele>
        <time>2021-08-18T08:44:25Z</time>
      </trkpt>
      <trkpt lat="49.3356" lon="-0.70044">
        <ele>56</ele>
        <time>2021-08-18T08:44:27Z</time>
      </trkpt>
      <trkpt lat="49.33555" lon="-0.70063">
        <ele>56.1</ele>
        <time>2021-08-18T08:44:29Z</time>
      </trkpt>
      <trkpt lat="49.33553" lon="-0.70073">
        <ele>56.1</ele>
        <time>2021-08-18T08:44:30Z</time>
      </trkpt>
      <trkpt lat="49.33551" lon="-0.70083">
        <ele>56.2</ele>
        <time>2021-08-18T08:44:31Z</time>
      </trkpt>
      <trkpt lat="49.33547" lon="-0.70102">
        <ele>56.3</ele>
        <time>2021-08-18T08:44:33Z</time>
      </trkpt>
      <trkpt lat="49.33543" lon="-0.70121">
        <ele>56.4</ele>
        <time>2021-08-18T08:44:35Z</time>
      </trkpt>
      <trkpt lat="49.33539" lon="-0.70141">
        <ele>56.5</ele>
        <time>2021-08-18T08:44:37Z</time>
      </trkpt>
      <trkpt lat="49.33537" lon="-0.70151">
        <ele>56.5</ele>
        <time>2021-08-18T08:44:38Z</time>
      </trkpt>
      <trkpt lat="49.33535" lon="-0.70161">
        <ele>56.5</ele>
        <time>2021-08-18T08:44:39Z</time>
      </trkpt>
      <trkpt lat="49.33533" lon="-0.7017">
        <ele>56.6</ele>
        <time>2021-08-18T08:44:40Z</time>
      </trkpt>
      <trkpt lat="49.3353" lon="-0.70189">
        <ele>56.7</ele>
        <time>2021-08-18T08:44:42Z</time>
      </trkpt>
      <trkpt lat="49.33527" lon="-0.70209">
        <ele>56.8</ele>
        <time>2021-08-18T08:44:44Z</time>
      </trkpt>
      <trkpt lat="49.33523" lon="-0.70228">
        <ele>56.8</ele>
        <time>2021-08-18T08:44:46Z</time>
      </trkpt>
      <trkpt lat="49.33521" lon="-0.70237">
        <ele>56.9</ele>
        <time>2021-08-18T08:44:47Z</time>
      </trkpt>
      <trkpt lat="49.33519" lon="-0.70247">
        <ele>56.9</ele>
        <time>2021-08-18T08:44:48Z</time>
      </trkpt>
      <trkpt lat="49.33517" lon="-0.70256">
        <ele>56.9</ele>
        <time>2021-08-18T08:44:49Z</time>
      </trkpt>
      <trkpt lat="49.33514" lon="-0.70276">
        <ele>57</ele>
        <time>2021-08-18T08:44:51Z</time>
      </trkpt>
      <trkpt lat="49.33514" lon="-0.70285">
        <ele>57.1</ele>
        <time>2021-08-18T08:44:52Z</time>
      </trkpt>
      <trkpt lat="49.33512" lon="-0.70304">
        <ele>57.1</ele>
        <time>2021-08-18T08:44:54Z</time>
      </trkpt>
      <trkpt lat="49.33512" lon="-0.70313">
        <ele>57.1</ele>
        <time>2021-08-18T08:44:55Z</time>
      </trkpt>
      <trkpt lat="49.33512" lon="-0.70332">
        <ele>57.1</ele>
        <time>2021-08-18T08:44:57Z</time>
      </trkpt>
      <trkpt lat="49.33512" lon="-0.70341">
        <ele>57.1</ele>
        <time>2021-08-18T08:44:58Z</time>
      </trkpt>
      <trkpt lat="49.33512" lon="-0.70359">
        <ele>57.2</ele>
        <time>2021-08-18T08:45:00Z</time>
      </trkpt>
      <trkpt lat="49.33512" lon="-0.70368">
        <ele>57.2</ele>
        <time>2021-08-18T08:45:01Z</time>
      </trkpt>
      <trkpt lat="49.33513" lon="-0.70377">
        <ele>57.2</ele>
        <time>2021-08-18T08:45:02Z</time>
      </trkpt>
      <trkpt lat="49.33513" lon="-0.70395">
        <ele>57.2</ele>
        <time>2021-08-18T08:45:04Z</time>
      </trkpt>
      <trkpt lat="49.33514" lon="-0.70413">
        <ele>57.2</ele>
        <time>2021-08-18T08:45:06Z</time>
      </trkpt>
      <trkpt lat="49.33514" lon="-0.70422">
        <ele>57.2</ele>
        <time>2021-08-18T08:45:07Z</time>
      </trkpt>
      <trkpt lat="49.33515" lon="-0.7044">
        <ele>57.2</ele>
        <time>2021-08-18T08:45:09Z</time>
      </trkpt>
      <trkpt lat="49.33515" lon="-0.70449">
        <ele>57.2</ele>
        <time>2021-08-18T08:45:10Z</time>
      </trkpt>
      <trkpt lat="49.33516" lon="-0.70467">
        <ele>57.1</ele>
        <time>2021-08-18T08:45:12Z</time>
      </trkpt>
      <trkpt lat="49.33517" lon="-0.70475">
        <ele>57</ele>
        <time>2021-08-18T08:45:13Z</time>
      </trkpt>
      <trkpt lat="49.33518" lon="-0.70494">
        <ele>56.9</ele>
        <time>2021-08-18T08:45:15Z</time>
      </trkpt>
      <trkpt lat="49.33519" lon="-0.70503">
        <ele>56.8</ele>
        <time>2021-08-18T08:45:16Z</time>
      </trkpt>
      <trkpt lat="49.3352" lon="-0.70513">
        <ele>56.7</ele>
        <time>2021-08-18T08:45:17Z</time>
      </trkpt>
      <trkpt lat="49.33521" lon="-0.70532">
        <ele>56.5</ele>
        <time>2021-08-18T08:45:19Z</time>
      </trkpt>
      <trkpt lat="49.33523" lon="-0.70542">
        <ele>56.3</ele>
        <time>2021-08-18T08:45:20Z</time>
      </trkpt>
      <trkpt lat="49.33525" lon="-0.7056">
        <ele>56</ele>
        <time>2021-08-18T08:45:22Z</time>
      </trkpt>
      <trkpt lat="49.33527" lon="-0.70579">
        <ele>55.7</ele>
        <time>2021-08-18T08:45:24Z</time>
      </trkpt>
      <trkpt lat="49.33528" lon="-0.70588">
        <ele>55.5</ele>
        <time>2021-08-18T08:45:25Z</time>
      </trkpt>
      <trkpt lat="49.3353" lon="-0.70607">
        <ele>55.1</ele>
        <time>2021-08-18T08:45:27Z</time>
      </trkpt>
      <trkpt lat="49.33532" lon="-0.70616">
        <ele>54.9</ele>
        <time>2021-08-18T08:45:28Z</time>
      </trkpt>
      <trkpt lat="49.33533" lon="-0.70626">
        <ele>54.6</ele>
        <time>2021-08-18T08:45:29Z</time>
      </trkpt>
      <trkpt lat="49.33536" lon="-0.70647">
        <ele>54</ele>
        <time>2021-08-18T08:45:31Z</time>
      </trkpt>
      <trkpt lat="49.33538" lon="-0.70657">
        <ele>53.7</ele>
        <time>2021-08-18T08:45:32Z</time>
      </trkpt>
      <trkpt lat="49.33546" lon="-0.70678">
        <ele>53.2</ele>
        <time>2021-08-18T08:45:34Z</time>
      </trkpt>
      <trkpt lat="49.33552" lon="-0.70688">
        <ele>53</ele>
        <time>2021-08-18T08:45:35Z</time>
      </trkpt>
      <trkpt lat="49.33562" lon="-0.70707">
        <ele>52.7</ele>
        <time>2021-08-18T08:45:37Z</time>
      </trkpt>
      <trkpt lat="49.33573" lon="-0.70726">
        <ele>52.7</ele>
        <time>2021-08-18T08:45:39Z</time>
      </trkpt>
      <trkpt lat="49.33579" lon="-0.70736">
        <ele>52.7</ele>
        <time>2021-08-18T08:45:40Z</time>
      </trkpt>
      <trkpt lat="49.33584" lon="-0.70747">
        <ele>52.9</ele>
        <time>2021-08-18T08:45:41Z</time>
      </trkpt>
      <trkpt lat="49.33594" lon="-0.70769">
        <ele>53.2</ele>
        <time>2021-08-18T08:45:43Z</time>
      </trkpt>
      <trkpt lat="49.33599" lon="-0.7078">
        <ele>53.3</ele>
        <time>2021-08-18T08:45:44Z</time>
      </trkpt>
      <trkpt lat="49.33607" lon="-0.70802">
        <ele>53.8</ele>
        <time>2021-08-18T08:45:46Z</time>
      </trkpt>
      <trkpt lat="49.33611" lon="-0.70813">
        <ele>54</ele>
        <time>2021-08-18T08:45:47Z</time>
      </trkpt>
      <trkpt lat="49.33617" lon="-0.70833">
        <ele>54.6</ele>
        <time>2021-08-18T08:45:49Z</time>
      </trkpt>
      <trkpt lat="49.33619" lon="-0.70844">
        <ele>54.9</ele>
        <time>2021-08-18T08:45:50Z</time>
      </trkpt>
      <trkpt lat="49.33624" lon="-0.70864">
        <ele>55.4</ele>
        <time>2021-08-18T08:45:52Z</time>
      </trkpt>
      <trkpt lat="49.33627" lon="-0.70874">
        <ele>55.6</ele>
        <time>2021-08-18T08:45:53Z</time>
      </trkpt>
      <trkpt lat="49.3363" lon="-0.70885">
        <ele>55.9</ele>
        <time>2021-08-18T08:45:54Z</time>
      </trkpt>
      <trkpt lat="49.33633" lon="-0.70895">
        <ele>56.1</ele>
        <time>2021-08-18T08:45:55Z</time>
      </trkpt>
      <trkpt lat="49.33636" lon="-0.70913">
        <ele>56.5</ele>
        <time>2021-08-18T08:45:57Z</time>
      </trkpt>
      <trkpt lat="49.33638" lon="-0.70923">
        <ele>56.7</ele>
        <time>2021-08-18T08:45:58Z</time>
      </trkpt>
      <trkpt lat="49.33644" lon="-0.70941">
        <ele>57.2</ele>
        <time>2021-08-18T08:46:00Z</time>
      </trkpt>
      <trkpt lat="49.33647" lon="-0.7095">
        <ele>57.4</ele>
        <time>2021-08-18T08:46:01Z</time>
      </trkpt>
      <trkpt lat="49.33654" lon="-0.70968">
        <ele>57.9</ele>
        <time>2021-08-18T08:46:03Z</time>
      </trkpt>
      <trkpt lat="49.33661" lon="-0.70985">
        <ele>58.3</ele>
        <time>2021-08-18T08:46:05Z</time>
      </trkpt>
      <trkpt lat="49.33667" lon="-0.71001">
        <ele>58.7</ele>
        <time>2021-08-18T08:46:07Z</time>
      </trkpt>
      <trkpt lat="49.33671" lon="-0.7101">
        <ele>58.9</ele>
        <time>2021-08-18T08:46:08Z</time>
      </trkpt>
      <trkpt lat="49.33674" lon="-0.71018">
        <ele>59.1</ele>
        <time>2021-08-18T08:46:09Z</time>
      </trkpt>
      <trkpt lat="49.3368" lon="-0.71034">
        <ele>59.5</ele>
        <time>2021-08-18T08:46:11Z</time>
      </trkpt>
      <trkpt lat="49.33683" lon="-0.71043">
        <ele>59.6</ele>
        <time>2021-08-18T08:46:12Z</time>
      </trkpt>
      <trkpt lat="49.33689" lon="-0.7106">
        <ele>60</ele>
        <time>2021-08-18T08:46:14Z</time>
      </trkpt>
      <trkpt lat="49.33692" lon="-0.71068">
        <ele>60.2</ele>
        <time>2021-08-18T08:46:15Z</time>
      </trkpt>
      <trkpt lat="49.33697" lon="-0.71083">
        <ele>60.5</ele>
        <time>2021-08-18T08:46:17Z</time>
      </trkpt>
      <trkpt lat="49.337" lon="-0.71091">
        <ele>60.6</ele>
        <time>2021-08-18T08:46:18Z</time>
      </trkpt>
      <trkpt lat="49.33703" lon="-0.71099">
        <ele>60.8</ele>
        <time>2021-08-18T08:46:19Z</time>
      </trkpt>
      <trkpt lat="49.33708" lon="-0.71115">
        <ele>61.2</ele>
        <time>2021-08-18T08:46:21Z</time>
      </trkpt>
      <trkpt lat="49.33713" lon="-0.7113">
        <ele>61.5</ele>
        <time>2021-08-18T08:46:23Z</time>
      </trkpt>
      <trkpt lat="49.33716" lon="-0.71138">
        <ele>61.7</ele>
        <time>2021-08-18T08:46:24Z</time>
      </trkpt>
      <trkpt lat="49.3372" lon="-0.71153">
        <ele>62</ele>
        <time>2021-08-18T08:46:26Z</time>
      </trkpt>
      <trkpt lat="49.33722" lon="-0.71161">
        <ele>62.2</ele>
        <time>2021-08-18T08:46:27Z</time>
      </trkpt>
      <trkpt lat="49.33725" lon="-0.71176">
        <ele>62.6</ele>
        <time>2021-08-18T08:46:29Z</time>
      </trkpt>
      <trkpt lat="49.33728" lon="-0.71192">
        <ele>63</ele>
        <time>2021-08-18T08:46:31Z</time>
      </trkpt>
      <trkpt lat="49.33731" lon="-0.71208">
        <ele>63.4</ele>
        <time>2021-08-18T08:46:33Z</time>
      </trkpt>
      <trkpt lat="49.33732" lon="-0.71216">
        <ele>63.6</ele>
        <time>2021-08-18T08:46:34Z</time>
      </trkpt>
      <trkpt lat="49.33733" lon="-0.71224">
        <ele>63.8</ele>
        <time>2021-08-18T08:46:35Z</time>
      </trkpt>
      <trkpt lat="49.33736" lon="-0.71239">
        <ele>64.2</ele>
        <time>2021-08-18T08:46:37Z</time>
      </trkpt>
      <trkpt lat="49.33737" lon="-0.71247">
        <ele>64.4</ele>
        <time>2021-08-18T08:46:38Z</time>
      </trkpt>
      <trkpt lat="49.3374" lon="-0.71262">
        <ele>64.9</ele>
        <time>2021-08-18T08:46:40Z</time>
      </trkpt>
      <trkpt lat="49.33742" lon="-0.7127">
        <ele>65.1</ele>
        <time>2021-08-18T08:46:41Z</time>
      </trkpt>
      <trkpt lat="49.33745" lon="-0.71284">
        <ele>65.5</ele>
        <time>2021-08-18T08:46:43Z</time>
      </trkpt>
      <trkpt lat="49.33749" lon="-0.71298">
        <ele>66</ele>
        <time>2021-08-18T08:46:45Z</time>
      </trkpt>
      <trkpt lat="49.33753" lon="-0.71311">
        <ele>66.3</ele>
        <time>2021-08-18T08:46:47Z</time>
      </trkpt>
      <trkpt lat="49.33755" lon="-0.71317">
        <ele>66.6</ele>
        <time>2021-08-18T08:46:48Z</time>
      </trkpt>
      <trkpt lat="49.3376" lon="-0.71329">
        <ele>67</ele>
        <time>2021-08-18T08:46:50Z</time>
      </trkpt>
      <trkpt lat="49.33762" lon="-0.71334">
        <ele>67.1</ele>
        <time>2021-08-18T08:46:51Z</time>
      </trkpt>
      <trkpt lat="49.33769" lon="-0.71347">
        <ele>67.6</ele>
        <time>2021-08-18T08:46:53Z</time>
      </trkpt>
      <trkpt lat="49.33772" lon="-0.71354">
        <ele>67.9</ele>
        <time>2021-08-18T08:46:54Z</time>
      </trkpt>
      <trkpt lat="49.3378" lon="-0.71365">
        <ele>68.4</ele>
        <time>2021-08-18T08:46:56Z</time>
      </trkpt>
      <trkpt lat="49.33787" lon="-0.71375">
        <ele>68.8</ele>
        <time>2021-08-18T08:46:58Z</time>
      </trkpt>
      <trkpt lat="49.3379" lon="-0.7138">
        <ele>69</ele>
        <time>2021-08-18T08:46:59Z</time>
      </trkpt>
      <trkpt lat="49.33793" lon="-0.71385">
        <ele>69.2</ele>
        <time>2021-08-18T08:47:00Z</time>
      </trkpt>
      <trkpt lat="49.338" lon="-0.71394">
        <ele>69.6</ele>
        <time>2021-08-18T08:47:02Z</time>
      </trkpt>
      <trkpt lat="49.33803" lon="-0.71399">
        <ele>69.8</ele>
        <time>2021-08-18T08:47:03Z</time>
      </trkpt>
      <trkpt lat="49.33808" lon="-0.71411">
        <ele>70.2</ele>
        <time>2021-08-18T08:47:05Z</time>
      </trkpt>
      <trkpt lat="49.33814" lon="-0.71423">
        <ele>70.6</ele>
        <time>2021-08-18T08:47:07Z</time>
      </trkpt>
      <trkpt lat="49.33819" lon="-0.71436">
        <ele>71</ele>
        <time>2021-08-18T08:47:09Z</time>
      </trkpt>
      <trkpt lat="49.33825" lon="-0.7145">
        <ele>71.3</ele>
        <time>2021-08-18T08:47:11Z</time>
      </trkpt>
      <trkpt lat="49.33829" lon="-0.71462">
        <ele>71.6</ele>
        <time>2021-08-18T08:47:13Z</time>
      </trkpt>
      <trkpt lat="49.33832" lon="-0.71468">
        <ele>71.7</ele>
        <time>2021-08-18T08:47:14Z</time>
      </trkpt>
      <trkpt lat="49.33837" lon="-0.71481">
        <ele>72</ele>
        <time>2021-08-18T08:47:16Z</time>
      </trkpt>
      <trkpt lat="49.33839" lon="-0.71488">
        <ele>72.1</ele>
        <time>2021-08-18T08:47:17Z</time>
      </trkpt>
      <trkpt lat="49.33841" lon="-0.71494">
        <ele>72.2</ele>
        <time>2021-08-18T08:47:18Z</time>
      </trkpt>
      <trkpt lat="49.33844" lon="-0.71501">
        <ele>72.2</ele>
        <time>2021-08-18T08:47:19Z</time>
      </trkpt>
      <trkpt lat="49.33848" lon="-0.71516">
        <ele>72.4</ele>
        <time>2021-08-18T08:47:21Z</time>
      </trkpt>
      <trkpt lat="49.33853" lon="-0.7153">
        <ele>72.5</ele>
        <time>2021-08-18T08:47:23Z</time>
      </trkpt>
      <trkpt lat="49.3386" lon="-0.71546">
        <ele>72.6</ele>
        <time>2021-08-18T08:47:25Z</time>
      </trkpt>
      <trkpt lat="49.33866" lon="-0.71564">
        <ele>72.8</ele>
        <time>2021-08-18T08:47:27Z</time>
      </trkpt>
      <trkpt lat="49.33869" lon="-0.71573">
        <ele>72.9</ele>
        <time>2021-08-18T08:47:28Z</time>
      </trkpt>
      <trkpt lat="49.33875" lon="-0.7159">
        <ele>73</ele>
        <time>2021-08-18T08:47:30Z</time>
      </trkpt>
      <trkpt lat="49.33881" lon="-0.71606">
        <ele>73.2</ele>
        <time>2021-08-18T08:47:32Z</time>
      </trkpt>
      <trkpt lat="49.33885" lon="-0.71614">
        <ele>73.2</ele>
        <time>2021-08-18T08:47:33Z</time>
      </trkpt>
      <trkpt lat="49.33891" lon="-0.71631">
        <ele>73.3</ele>
        <time>2021-08-18T08:47:35Z</time>
      </trkpt>
      <trkpt lat="49.33895" lon="-0.71639">
        <ele>73.4</ele>
        <time>2021-08-18T08:47:36Z</time>
      </trkpt>
      <trkpt lat="49.33901" lon="-0.71656">
        <ele>73.5</ele>
        <time>2021-08-18T08:47:38Z</time>
      </trkpt>
      <trkpt lat="49.33905" lon="-0.71665">
        <ele>73.5</ele>
        <time>2021-08-18T08:47:39Z</time>
      </trkpt>
      <trkpt lat="49.33911" lon="-0.71683">
        <ele>73.7</ele>
        <time>2021-08-18T08:47:41Z</time>
      </trkpt>
      <trkpt lat="49.33915" lon="-0.71701">
        <ele>73.7</ele>
        <time>2021-08-18T08:47:43Z</time>
      </trkpt>
      <trkpt lat="49.33918" lon="-0.71721">
        <ele>73.7</ele>
        <time>2021-08-18T08:47:45Z</time>
      </trkpt>
      <trkpt lat="49.33919" lon="-0.71731">
        <ele>73.7</ele>
        <time>2021-08-18T08:47:46Z</time>
      </trkpt>
      <trkpt lat="49.3392" lon="-0.71741">
        <ele>73.8</ele>
        <time>2021-08-18T08:47:47Z</time>
      </trkpt>
      <trkpt lat="49.33921" lon="-0.7176">
        <ele>73.8</ele>
        <time>2021-08-18T08:47:49Z</time>
      </trkpt>
      <trkpt lat="49.33922" lon="-0.71779">
        <ele>73.8</ele>
        <time>2021-08-18T08:47:51Z</time>
      </trkpt>
      <trkpt lat="49.33923" lon="-0.71798">
        <ele>73.8</ele>
        <time>2021-08-18T08:47:53Z</time>
      </trkpt>
      <trkpt lat="49.33923" lon="-0.71808">
        <ele>73.8</ele>
        <time>2021-08-18T08:47:54Z</time>
      </trkpt>
      <trkpt lat="49.33924" lon="-0.71828">
        <ele>73.8</ele>
        <time>2021-08-18T08:47:56Z</time>
      </trkpt>
      <trkpt lat="49.33923" lon="-0.71838">
        <ele>73.8</ele>
        <time>2021-08-18T08:47:57Z</time>
      </trkpt>
      <trkpt lat="49.33922" lon="-0.71859">
        <ele>73.7</ele>
        <time>2021-08-18T08:47:59Z</time>
      </trkpt>
      <trkpt lat="49.33921" lon="-0.71869">
        <ele>73.6</ele>
        <time>2021-08-18T08:48:00Z</time>
      </trkpt>
      <trkpt lat="49.3392" lon="-0.7189">
        <ele>73.5</ele>
        <time>2021-08-18T08:48:02Z</time>
      </trkpt>
      <trkpt lat="49.3392" lon="-0.71901">
        <ele>73.5</ele>
        <time>2021-08-18T08:48:03Z</time>
      </trkpt>
      <trkpt lat="49.33919" lon="-0.71924">
        <ele>73.3</ele>
        <time>2021-08-18T08:48:05Z</time>
      </trkpt>
      <trkpt lat="49.33916" lon="-0.71949">
        <ele>73.1</ele>
        <time>2021-08-18T08:48:07Z</time>
      </trkpt>
      <trkpt lat="49.33914" lon="-0.71973">
        <ele>72.9</ele>
        <time>2021-08-18T08:48:09Z</time>
      </trkpt>
      <trkpt lat="49.33913" lon="-0.71987">
        <ele>72.7</ele>
        <time>2021-08-18T08:48:10Z</time>
      </trkpt>
      <trkpt lat="49.33911" lon="-0.72014">
        <ele>72.5</ele>
        <time>2021-08-18T08:48:12Z</time>
      </trkpt>
      <trkpt lat="49.3391" lon="-0.72028">
        <ele>72.3</ele>
        <time>2021-08-18T08:48:13Z</time>
      </trkpt>
      <trkpt lat="49.33905" lon="-0.72053">
        <ele>71.8</ele>
        <time>2021-08-18T08:48:15Z</time>
      </trkpt>
      <trkpt lat="49.339" lon="-0.72063">
        <ele>71.6</ele>
        <time>2021-08-18T08:48:16Z</time>
      </trkpt>
      <trkpt lat="49.33891" lon="-0.72066">
        <ele>71.3</ele>
        <time>2021-08-18T08:48:17Z</time>
      </trkpt>
      <trkpt lat="49.33872" lon="-0.72066">
        <ele>70.8</ele>
        <time>2021-08-18T08:48:19Z</time>
      </trkpt>
      <trkpt lat="49.33856" lon="-0.72061">
        <ele>70.3</ele>
        <time>2021-08-18T08:48:21Z</time>
      </trkpt>
      <trkpt lat="49.33848" lon="-0.72059">
        <ele>70.1</ele>
        <time>2021-08-18T08:48:22Z</time>
      </trkpt>
      <trkpt lat="49.3384" lon="-0.72057">
        <ele>69.9</ele>
        <time>2021-08-18T08:48:23Z</time>
      </trkpt>
      <trkpt lat="49.33833" lon="-0.72056">
        <ele>69.8</ele>
        <time>2021-08-18T08:48:24Z</time>
      </trkpt>
      <trkpt lat="49.3382" lon="-0.72066">
        <ele>69.5</ele>
        <time>2021-08-18T08:48:26Z</time>
      </trkpt>
      <trkpt lat="49.33809" lon="-0.72088">
        <ele>69.2</ele>
        <time>2021-08-18T08:48:28Z</time>
      </trkpt>
      <trkpt lat="49.33806" lon="-0.72102">
        <ele>69</ele>
        <time>2021-08-18T08:48:29Z</time>
      </trkpt>
      <trkpt lat="49.33802" lon="-0.72131">
        <ele>68.7</ele>
        <time>2021-08-18T08:48:31Z</time>
      </trkpt>
      <trkpt lat="49.33801" lon="-0.72146">
        <ele>68.5</ele>
        <time>2021-08-18T08:48:32Z</time>
      </trkpt>
      <trkpt lat="49.33799" lon="-0.72162">
        <ele>68.4</ele>
        <time>2021-08-18T08:48:33Z</time>
      </trkpt>
      <trkpt lat="49.33796" lon="-0.72194">
        <ele>68.2</ele>
        <time>2021-08-18T08:48:35Z</time>
      </trkpt>
      <trkpt lat="49.33795" lon="-0.7221">
        <ele>68.2</ele>
        <time>2021-08-18T08:48:36Z</time>
      </trkpt>
      <trkpt lat="49.33793" lon="-0.72243">
        <ele>68</ele>
        <time>2021-08-18T08:48:38Z</time>
      </trkpt>
      <trkpt lat="49.33788" lon="-0.72277">
        <ele>67.8</ele>
        <time>2021-08-18T08:48:40Z</time>
      </trkpt>
      <trkpt lat="49.33783" lon="-0.72312">
        <ele>67.7</ele>
        <time>2021-08-18T08:48:42Z</time>
      </trkpt>
      <trkpt lat="49.33776" lon="-0.72345">
        <ele>67.6</ele>
        <time>2021-08-18T08:48:44Z</time>
      </trkpt>
      <trkpt lat="49.33772" lon="-0.72362">
        <ele>67.5</ele>
        <time>2021-08-18T08:48:45Z</time>
      </trkpt>
      <trkpt lat="49.33769" lon="-0.72379">
        <ele>67.5</ele>
        <time>2021-08-18T08:48:46Z</time>
      </trkpt>
      <trkpt lat="49.33765" lon="-0.72395">
        <ele>67.4</ele>
        <time>2021-08-18T08:48:47Z</time>
      </trkpt>
      <trkpt lat="49.33757" lon="-0.72426">
        <ele>67.4</ele>
        <time>2021-08-18T08:48:49Z</time>
      </trkpt>
      <trkpt lat="49.33753" lon="-0.72442">
        <ele>67.4</ele>
        <time>2021-08-18T08:48:50Z</time>
      </trkpt>
      <trkpt lat="49.33744" lon="-0.72473">
        <ele>67.3</ele>
        <time>2021-08-18T08:48:52Z</time>
      </trkpt>
      <trkpt lat="49.33735" lon="-0.72502">
        <ele>67.4</ele>
        <time>2021-08-18T08:48:54Z</time>
      </trkpt>
      <trkpt lat="49.33732" lon="-0.72516">
        <ele>67.4</ele>
        <time>2021-08-18T08:48:55Z</time>
      </trkpt>
      <trkpt lat="49.33724" lon="-0.72544">
        <ele>67.3</ele>
        <time>2021-08-18T08:48:57Z</time>
      </trkpt>
      <trkpt lat="49.33717" lon="-0.72572">
        <ele>67.2</ele>
        <time>2021-08-18T08:48:59Z</time>
      </trkpt>
      <trkpt lat="49.3371" lon="-0.72598">
        <ele>67.1</ele>
        <time>2021-08-18T08:49:01Z</time>
      </trkpt>
      <trkpt lat="49.33708" lon="-0.72612">
        <ele>67.1</ele>
        <time>2021-08-18T08:49:02Z</time>
      </trkpt>
      <trkpt lat="49.33702" lon="-0.72641">
        <ele>67</ele>
        <time>2021-08-18T08:49:04Z</time>
      </trkpt>
      <trkpt lat="49.33699" lon="-0.72655">
        <ele>67</ele>
        <time>2021-08-18T08:49:05Z</time>
      </trkpt>
      <trkpt lat="49.33697" lon="-0.7267">
        <ele>67</ele>
        <time>2021-08-18T08:49:06Z</time>
      </trkpt>
      <trkpt lat="49.33693" lon="-0.727">
        <ele>66.9</ele>
        <time>2021-08-18T08:49:08Z</time>
      </trkpt>
      <trkpt lat="49.3369" lon="-0.7273">
        <ele>66.8</ele>
        <time>2021-08-18T08:49:10Z</time>
      </trkpt>
      <trkpt lat="49.33689" lon="-0.72745">
        <ele>66.7</ele>
        <time>2021-08-18T08:49:11Z</time>
      </trkpt>
      <trkpt lat="49.33687" lon="-0.72775">
        <ele>66.7</ele>
        <time>2021-08-18T08:49:13Z</time>
      </trkpt>
      <trkpt lat="49.33685" lon="-0.72803">
        <ele>66.8</ele>
        <time>2021-08-18T08:49:15Z</time>
      </trkpt>
      <trkpt lat="49.33684" lon="-0.72817">
        <ele>66.7</ele>
        <time>2021-08-18T08:49:16Z</time>
      </trkpt>
      <trkpt lat="49.33682" lon="-0.72845">
        <ele>66.6</ele>
        <time>2021-08-18T08:49:18Z</time>
      </trkpt>
      <trkpt lat="49.33682" lon="-0.7287">
        <ele>66.6</ele>
        <time>2021-08-18T08:49:20Z</time>
      </trkpt>
      <trkpt lat="49.33681" lon="-0.72882">
        <ele>66.5</ele>
        <time>2021-08-18T08:49:21Z</time>
      </trkpt>
      <trkpt lat="49.33678" lon="-0.72908">
        <ele>66.5</ele>
        <time>2021-08-18T08:49:23Z</time>
      </trkpt>
      <trkpt lat="49.33678" lon="-0.72923">
        <ele>66.4</ele>
        <time>2021-08-18T08:49:24Z</time>
      </trkpt>
      <trkpt lat="49.33678" lon="-0.72938">
        <ele>66.4</ele>
        <time>2021-08-18T08:49:25Z</time>
      </trkpt>
      <trkpt lat="49.33678" lon="-0.72968">
        <ele>66.3</ele>
        <time>2021-08-18T08:49:27Z</time>
      </trkpt>
      <trkpt lat="49.33678" lon="-0.72998">
        <ele>66.1</ele>
        <time>2021-08-18T08:49:29Z</time>
      </trkpt>
      <trkpt lat="49.33678" lon="-0.73014">
        <ele>66</ele>
        <time>2021-08-18T08:49:30Z</time>
      </trkpt>
      <trkpt lat="49.33678" lon="-0.7303">
        <ele>65.9</ele>
        <time>2021-08-18T08:49:31Z</time>
      </trkpt>
      <trkpt lat="49.33679" lon="-0.73062">
        <ele>65.7</ele>
        <time>2021-08-18T08:49:33Z</time>
      </trkpt>
      <trkpt lat="49.3368" lon="-0.73095">
        <ele>65.4</ele>
        <time>2021-08-18T08:49:35Z</time>
      </trkpt>
      <trkpt lat="49.33682" lon="-0.73111">
        <ele>65.3</ele>
        <time>2021-08-18T08:49:36Z</time>
      </trkpt>
      <trkpt lat="49.33684" lon="-0.73128">
        <ele>65.1</ele>
        <time>2021-08-18T08:49:37Z</time>
      </trkpt>
      <trkpt lat="49.33687" lon="-0.7316">
        <ele>64.8</ele>
        <time>2021-08-18T08:49:39Z</time>
      </trkpt>
      <trkpt lat="49.33689" lon="-0.73177">
        <ele>64.7</ele>
        <time>2021-08-18T08:49:40Z</time>
      </trkpt>
      <trkpt lat="49.33693" lon="-0.73209">
        <ele>64.3</ele>
        <time>2021-08-18T08:49:42Z</time>
      </trkpt>
      <trkpt lat="49.33697" lon="-0.73241">
        <ele>63.7</ele>
        <time>2021-08-18T08:49:44Z</time>
      </trkpt>
      <trkpt lat="49.33699" lon="-0.73257">
        <ele>63.2</ele>
        <time>2021-08-18T08:49:45Z</time>
      </trkpt>
      <trkpt lat="49.33702" lon="-0.73289">
        <ele>61.7</ele>
        <time>2021-08-18T08:49:47Z</time>
      </trkpt>
      <trkpt lat="49.33705" lon="-0.73321">
        <ele>60</ele>
        <time>2021-08-18T08:49:49Z</time>
      </trkpt>
      <trkpt lat="49.33709" lon="-0.73354">
        <ele>57.8</ele>
        <time>2021-08-18T08:49:51Z</time>
      </trkpt>
      <trkpt lat="49.33714" lon="-0.73389">
        <ele>55.6</ele>
        <time>2021-08-18T08:49:53Z</time>
      </trkpt>
      <trkpt lat="49.33715" lon="-0.73407">
        <ele>54.4</ele>
        <time>2021-08-18T08:49:54Z</time>
      </trkpt>
      <trkpt lat="49.33722" lon="-0.73444">
        <ele>51.8</ele>
        <time>2021-08-18T08:49:56Z</time>
      </trkpt>
      <trkpt lat="49.3373" lon="-0.73478">
        <ele>50</ele>
        <time>2021-08-18T08:49:58Z</time>
      </trkpt>
      <trkpt lat="49.33731" lon="-0.73507">
        <ele>48.2</ele>
        <time>2021-08-18T08:50:00Z</time>
      </trkpt>
      <trkpt lat="49.33724" lon="-0.73527">
        <ele>46.6</ele>
        <time>2021-08-18T08:50:02Z</time>
      </trkpt>
      <trkpt lat="49.33721" lon="-0.73535">
        <ele>45.9</ele>
        <time>2021-08-18T08:50:03Z</time>
      </trkpt>
      <trkpt lat="49.3371" lon="-0.73555">
        <ele>44.4</ele>
        <time>2021-08-18T08:50:05Z</time>
      </trkpt>
      <trkpt lat="49.33703" lon="-0.73566">
        <ele>43.6</ele>
        <time>2021-08-18T08:50:06Z</time>
      </trkpt>
      <trkpt lat="49.33688" lon="-0.73589">
        <ele>42.1</ele>
        <time>2021-08-18T08:50:08Z</time>
      </trkpt>
      <trkpt lat="49.33673" lon="-0.73615">
        <ele>40.4</ele>
        <time>2021-08-18T08:50:10Z</time>
      </trkpt>
      <trkpt lat="49.33664" lon="-0.7363">
        <ele>39.5</ele>
        <time>2021-08-18T08:50:11Z</time>
      </trkpt>
      <trkpt lat="49.33647" lon="-0.7366">
        <ele>37.6</ele>
        <time>2021-08-18T08:50:13Z</time>
      </trkpt>
      <trkpt lat="49.33637" lon="-0.73694">
        <ele>35.7</ele>
        <time>2021-08-18T08:50:15Z</time>
      </trkpt>
      <trkpt lat="49.33636" lon="-0.73727">
        <ele>34</ele>
        <time>2021-08-18T08:50:17Z</time>
      </trkpt>
      <trkpt lat="49.33642" lon="-0.7374">
        <ele>33.3</ele>
        <time>2021-08-18T08:50:18Z</time>
      </trkpt>
      <trkpt lat="49.33659" lon="-0.73748">
        <ele>31.8</ele>
        <time>2021-08-18T08:50:20Z</time>
      </trkpt>
      <trkpt lat="49.33673" lon="-0.73743">
        <ele>30.9</ele>
        <time>2021-08-18T08:50:21Z</time>
      </trkpt>
      <trkpt lat="49.33697" lon="-0.73733">
        <ele>29.2</ele>
        <time>2021-08-18T08:50:23Z</time>
      </trkpt>
      <trkpt lat="49.33709" lon="-0.73728">
        <ele>28.4</ele>
        <time>2021-08-18T08:50:24Z</time>
      </trkpt>
      <trkpt lat="49.33722" lon="-0.73724">
        <ele>27.7</ele>
        <time>2021-08-18T08:50:25Z</time>
      </trkpt>
      <trkpt lat="49.33747" lon="-0.73716">
        <ele>26.7</ele>
        <time>2021-08-18T08:50:27Z</time>
      </trkpt>
      <trkpt lat="49.3376" lon="-0.73712">
        <ele>26.2</ele>
        <time>2021-08-18T08:50:28Z</time>
      </trkpt>
      <trkpt lat="49.33783" lon="-0.73704">
        <ele>25.6</ele>
        <time>2021-08-18T08:50:30Z</time>
      </trkpt>
      <trkpt lat="49.33794" lon="-0.73701">
        <ele>25.4</ele>
        <time>2021-08-18T08:50:31Z</time>
      </trkpt>
      <trkpt lat="49.33815" lon="-0.73692">
        <ele>24.9</ele>
        <time>2021-08-18T08:50:33Z</time>
      </trkpt>
      <trkpt lat="49.33836" lon="-0.7368">
        <ele>24.4</ele>
        <time>2021-08-18T08:50:35Z</time>
      </trkpt>
      <trkpt lat="49.33845" lon="-0.73674">
        <ele>24.3</ele>
        <time>2021-08-18T08:50:36Z</time>
      </trkpt>
      <trkpt lat="49.33854" lon="-0.73669">
        <ele>24.1</ele>
        <time>2021-08-18T08:50:37Z</time>
      </trkpt>
      <trkpt lat="49.3387" lon="-0.73662">
        <ele>23.9</ele>
        <time>2021-08-18T08:50:39Z</time>
      </trkpt>
      <trkpt lat="49.33878" lon="-0.73665">
        <ele>23.7</ele>
        <time>2021-08-18T08:50:40Z</time>
      </trkpt>
      <trkpt lat="49.33891" lon="-0.73682">
        <ele>23.6</ele>
        <time>2021-08-18T08:50:42Z</time>
      </trkpt>
      <trkpt lat="49.33898" lon="-0.73691">
        <ele>23.5</ele>
        <time>2021-08-18T08:50:43Z</time>
      </trkpt>
      <trkpt lat="49.33904" lon="-0.73701">
        <ele>23.4</ele>
        <time>2021-08-18T08:50:44Z</time>
      </trkpt>
      <trkpt lat="49.3391" lon="-0.73711">
        <ele>23.3</ele>
        <time>2021-08-18T08:50:45Z</time>
      </trkpt>
      <trkpt lat="49.3392" lon="-0.73734">
        <ele>23.1</ele>
        <time>2021-08-18T08:50:47Z</time>
      </trkpt>
      <trkpt lat="49.33929" lon="-0.73757">
        <ele>22.8</ele>
        <time>2021-08-18T08:50:49Z</time>
      </trkpt>
      <trkpt lat="49.33933" lon="-0.73768">
        <ele>22.6</ele>
        <time>2021-08-18T08:50:50Z</time>
      </trkpt>
      <trkpt lat="49.33938" lon="-0.7378">
        <ele>22.4</ele>
        <time>2021-08-18T08:50:51Z</time>
      </trkpt>
      <trkpt lat="49.33947" lon="-0.73802">
        <ele>21.8</ele>
        <time>2021-08-18T08:50:53Z</time>
      </trkpt>
      <trkpt lat="49.33951" lon="-0.73813">
        <ele>21.4</ele>
        <time>2021-08-18T08:50:54Z</time>
      </trkpt>
      <trkpt lat="49.33956" lon="-0.73824">
        <ele>21</ele>
        <time>2021-08-18T08:50:55Z</time>
      </trkpt>
      <trkpt lat="49.33965" lon="-0.73849">
        <ele>20.1</ele>
        <time>2021-08-18T08:50:57Z</time>
      </trkpt>
      <trkpt lat="49.33976" lon="-0.73875">
        <ele>18.9</ele>
        <time>2021-08-18T08:50:59Z</time>
      </trkpt>
      <trkpt lat="49.33981" lon="-0.73889">
        <ele>18.3</ele>
        <time>2021-08-18T08:51:00Z</time>
      </trkpt>
      <trkpt lat="49.33992" lon="-0.73917">
        <ele>17.2</ele>
        <time>2021-08-18T08:51:02Z</time>
      </trkpt>
      <trkpt lat="49.33998" lon="-0.73931">
        <ele>16.7</ele>
        <time>2021-08-18T08:51:03Z</time>
      </trkpt>
      <trkpt lat="49.34004" lon="-0.73946">
        <ele>16.2</ele>
        <time>2021-08-18T08:51:04Z</time>
      </trkpt>
      <trkpt lat="49.34016" lon="-0.73975">
        <ele>15.4</ele>
        <time>2021-08-18T08:51:06Z</time>
      </trkpt>
      <trkpt lat="49.34022" lon="-0.73989">
        <ele>14.9</ele>
        <time>2021-08-18T08:51:07Z</time>
      </trkpt>
      <trkpt lat="49.34028" lon="-0.74004">
        <ele>14.5</ele>
        <time>2021-08-18T08:51:08Z</time>
      </trkpt>
      <trkpt lat="49.3404" lon="-0.74033">
        <ele>13.7</ele>
        <time>2021-08-18T08:51:10Z</time>
      </trkpt>
      <trkpt lat="49.34046" lon="-0.74048">
        <ele>13.4</ele>
        <time>2021-08-18T08:51:11Z</time>
      </trkpt>
      <trkpt lat="49.34058" lon="-0.74076">
        <ele>12.8</ele>
        <time>2021-08-18T08:51:13Z</time>
      </trkpt>
      <trkpt lat="49.3407" lon="-0.74104">
        <ele>12.2</ele>
        <time>2021-08-18T08:51:15Z</time>
      </trkpt>
      <trkpt lat="49.34083" lon="-0.74131">
        <ele>11.7</ele>
        <time>2021-08-18T08:51:17Z</time>
      </trkpt>
      <trkpt lat="49.34091" lon="-0.74142">
        <ele>11.5</ele>
        <time>2021-08-18T08:51:18Z</time>
      </trkpt>
      <trkpt lat="49.34099" lon="-0.74154">
        <ele>11.3</ele>
        <time>2021-08-18T08:51:19Z</time>
      </trkpt>
      <trkpt lat="49.34114" lon="-0.74177">
        <ele>11</ele>
        <time>2021-08-18T08:51:21Z</time>
      </trkpt>
      <trkpt lat="49.34128" lon="-0.742">
        <ele>10.7</ele>
        <time>2021-08-18T08:51:23Z</time>
      </trkpt>
      <trkpt lat="49.34137" lon="-0.74228">
        <ele>10.4</ele>
        <time>2021-08-18T08:51:25Z</time>
      </trkpt>
      <trkpt lat="49.34141" lon="-0.74242">
        <ele>10.2</ele>
        <time>2021-08-18T08:51:26Z</time>
      </trkpt>
      <trkpt lat="49.34149" lon="-0.74271">
        <ele>10</ele>
        <time>2021-08-18T08:51:28Z</time>
      </trkpt>
      <trkpt lat="49.34152" lon="-0.74287">
        <ele>9.9</ele>
        <time>2021-08-18T08:51:29Z</time>
      </trkpt>
      <trkpt lat="49.34159" lon="-0.74317">
        <ele>9.8</ele>
        <time>2021-08-18T08:51:31Z</time>
      </trkpt>
      <trkpt lat="49.34162" lon="-0.74332">
        <ele>9.7</ele>
        <time>2021-08-18T08:51:32Z</time>
      </trkpt>
      <trkpt lat="49.34166" lon="-0.74347">
        <ele>9.7</ele>
        <time>2021-08-18T08:51:33Z</time>
      </trkpt>
      <trkpt lat="49.34172" lon="-0.74376">
        <ele>9.6</ele>
        <time>2021-08-18T08:51:35Z</time>
      </trkpt>
      <trkpt lat="49.34179" lon="-0.74405">
        <ele>9.6</ele>
        <time>2021-08-18T08:51:37Z</time>
      </trkpt>
      <trkpt lat="49.34182" lon="-0.7442">
        <ele>9.6</ele>
        <time>2021-08-18T08:51:38Z</time>
      </trkpt>
      <trkpt lat="49.34189" lon="-0.74448">
        <ele>9.5</ele>
        <time>2021-08-18T08:51:40Z</time>
      </trkpt>
      <trkpt lat="49.34192" lon="-0.74462">
        <ele>9.5</ele>
        <time>2021-08-18T08:51:41Z</time>
      </trkpt>
      <trkpt lat="49.34196" lon="-0.74476">
        <ele>9.5</ele>
        <time>2021-08-18T08:51:42Z</time>
      </trkpt>
      <trkpt lat="49.34203" lon="-0.74504">
        <ele>9.4</ele>
        <time>2021-08-18T08:51:44Z</time>
      </trkpt>
      <trkpt lat="49.34206" lon="-0.74518">
        <ele>9.4</ele>
        <time>2021-08-18T08:51:45Z</time>
      </trkpt>
      <trkpt lat="49.3421" lon="-0.74533">
        <ele>9.3</ele>
        <time>2021-08-18T08:51:46Z</time>
      </trkpt>
      <trkpt lat="49.34217" lon="-0.74561">
        <ele>9.3</ele>
        <time>2021-08-18T08:51:48Z</time>
      </trkpt>
      <trkpt lat="49.34223" lon="-0.74589">
        <ele>9.2</ele>
        <time>2021-08-18T08:51:50Z</time>
      </trkpt>
      <trkpt lat="49.34226" lon="-0.74602">
        <ele>9.2</ele>
        <time>2021-08-18T08:51:51Z</time>
      </trkpt>
      <trkpt lat="49.34232" lon="-0.7463">
        <ele>9.1</ele>
        <time>2021-08-18T08:51:53Z</time>
      </trkpt>
      <trkpt lat="49.34235" lon="-0.74644">
        <ele>9.1</ele>
        <time>2021-08-18T08:51:54Z</time>
      </trkpt>
      <trkpt lat="49.34241" lon="-0.7467">
        <ele>9</ele>
        <time>2021-08-18T08:51:56Z</time>
      </trkpt>
      <trkpt lat="49.34247" lon="-0.74697">
        <ele>8.9</ele>
        <time>2021-08-18T08:51:58Z</time>
      </trkpt>
      <trkpt lat="49.34254" lon="-0.74722">
        <ele>8.9</ele>
        <time>2021-08-18T08:52:00Z</time>
      </trkpt>
      <trkpt lat="49.34257" lon="-0.74735">
        <ele>8.9</ele>
        <time>2021-08-18T08:52:01Z</time>
      </trkpt>
      <trkpt lat="49.3426" lon="-0.74748">
        <ele>8.8</ele>
        <time>2021-08-18T08:52:02Z</time>
      </trkpt>
      <trkpt lat="49.34267" lon="-0.74772">
        <ele>8.7</ele>
        <time>2021-08-18T08:52:04Z</time>
      </trkpt>
      <trkpt lat="49.34273" lon="-0.74797">
        <ele>8.7</ele>
        <time>2021-08-18T08:52:06Z</time>
      </trkpt>
      <trkpt lat="49.34277" lon="-0.7482">
        <ele>8.6</ele>
        <time>2021-08-18T08:52:08Z</time>
      </trkpt>
      <trkpt lat="49.34281" lon="-0.74844">
        <ele>8.6</ele>
        <time>2021-08-18T08:52:10Z</time>
      </trkpt>
      <trkpt lat="49.34282" lon="-0.74856">
        <ele>8.6</ele>
        <time>2021-08-18T08:52:11Z</time>
      </trkpt>
      <trkpt lat="49.34285" lon="-0.74879">
        <ele>8.5</ele>
        <time>2021-08-18T08:52:13Z</time>
      </trkpt>
      <trkpt lat="49.34287" lon="-0.74903">
        <ele>8.5</ele>
        <time>2021-08-18T08:52:15Z</time>
      </trkpt>
      <trkpt lat="49.34289" lon="-0.74927">
        <ele>8.4</ele>
        <time>2021-08-18T08:52:17Z</time>
      </trkpt>
      <trkpt lat="49.34291" lon="-0.74939">
        <ele>8.4</ele>
        <time>2021-08-18T08:52:18Z</time>
      </trkpt>
      <trkpt lat="49.34293" lon="-0.7495">
        <ele>8.3</ele>
        <time>2021-08-18T08:52:19Z</time>
      </trkpt>
      <trkpt lat="49.34296" lon="-0.74974">
        <ele>8.3</ele>
        <time>2021-08-18T08:52:21Z</time>
      </trkpt>
      <trkpt lat="49.34297" lon="-0.74987">
        <ele>8.3</ele>
        <time>2021-08-18T08:52:22Z</time>
      </trkpt>
      <trkpt lat="49.34299" lon="-0.74999">
        <ele>8.2</ele>
        <time>2021-08-18T08:52:23Z</time>
      </trkpt>
      <trkpt lat="49.34302" lon="-0.75022">
        <ele>8.2</ele>
        <time>2021-08-18T08:52:25Z</time>
      </trkpt>
      <trkpt lat="49.34306" lon="-0.75045">
        <ele>8.1</ele>
        <time>2021-08-18T08:52:27Z</time>
      </trkpt>
      <trkpt lat="49.3431" lon="-0.75069">
        <ele>8.1</ele>
        <time>2021-08-18T08:52:29Z</time>
      </trkpt>
      <trkpt lat="49.34314" lon="-0.7509">
        <ele>8</ele>
        <time>2021-08-18T08:52:31Z</time>
      </trkpt>
      <trkpt lat="49.34316" lon="-0.75101">
        <ele>8</ele>
        <time>2021-08-18T08:52:32Z</time>
      </trkpt>
      <trkpt lat="49.34321" lon="-0.75124">
        <ele>8.2</ele>
        <time>2021-08-18T08:52:34Z</time>
      </trkpt>
      <trkpt lat="49.34325" lon="-0.75145">
        <ele>8.4</ele>
        <time>2021-08-18T08:52:36Z</time>
      </trkpt>
      <trkpt lat="49.34328" lon="-0.75156">
        <ele>8.5</ele>
        <time>2021-08-18T08:52:37Z</time>
      </trkpt>
      <trkpt lat="49.34331" lon="-0.75176">
        <ele>8.6</ele>
        <time>2021-08-18T08:52:39Z</time>
      </trkpt>
      <trkpt lat="49.34333" lon="-0.75187">
        <ele>8.7</ele>
        <time>2021-08-18T08:52:40Z</time>
      </trkpt>
      <trkpt lat="49.34336" lon="-0.75197">
        <ele>8.8</ele>
        <time>2021-08-18T08:52:41Z</time>
      </trkpt>
      <trkpt lat="49.34338" lon="-0.75206">
        <ele>8.9</ele>
        <time>2021-08-18T08:52:42Z</time>
      </trkpt>
      <trkpt lat="49.34342" lon="-0.75224">
        <ele>9.2</ele>
        <time>2021-08-18T08:52:44Z</time>
      </trkpt>
      <trkpt lat="49.34344" lon="-0.75232">
        <ele>9.3</ele>
        <time>2021-08-18T08:52:45Z</time>
      </trkpt>
      <trkpt lat="49.34348" lon="-0.75245">
        <ele>9.6</ele>
        <time>2021-08-18T08:52:47Z</time>
      </trkpt>
      <trkpt lat="49.34351" lon="-0.75251">
        <ele>9.7</ele>
        <time>2021-08-18T08:52:48Z</time>
      </trkpt>
      <trkpt lat="49.34352" lon="-0.75258">
        <ele>9.8</ele>
        <time>2021-08-18T08:52:49Z</time>
      </trkpt>
      <trkpt lat="49.34351" lon="-0.75263">
        <ele>9.9</ele>
        <time>2021-08-18T08:52:50Z</time>
      </trkpt>
      <trkpt lat="49.34351" lon="-0.75279">
        <ele>10.4</ele>
        <time>2021-08-18T08:52:52Z</time>
      </trkpt>
      <trkpt lat="49.34352" lon="-0.75297">
        <ele>10.7</ele>
        <time>2021-08-18T08:52:54Z</time>
      </trkpt>
      <trkpt lat="49.34356" lon="-0.75315">
        <ele>11</ele>
        <time>2021-08-18T08:52:56Z</time>
      </trkpt>
      <trkpt lat="49.34359" lon="-0.75332">
        <ele>11.5</ele>
        <time>2021-08-18T08:52:58Z</time>
      </trkpt>
      <trkpt lat="49.3436" lon="-0.75341">
        <ele>11.8</ele>
        <time>2021-08-18T08:52:59Z</time>
      </trkpt>
      <trkpt lat="49.34363" lon="-0.7536">
        <ele>12.5</ele>
        <time>2021-08-18T08:53:01Z</time>
      </trkpt>
      <trkpt lat="49.34364" lon="-0.7537">
        <ele>12.7</ele>
        <time>2021-08-18T08:53:02Z</time>
      </trkpt>
      <trkpt lat="49.34368" lon="-0.75389">
        <ele>13.2</ele>
        <time>2021-08-18T08:53:04Z</time>
      </trkpt>
      <trkpt lat="49.34372" lon="-0.75407">
        <ele>13.7</ele>
        <time>2021-08-18T08:53:06Z</time>
      </trkpt>
      <trkpt lat="49.34373" lon="-0.75424">
        <ele>14.1</ele>
        <time>2021-08-18T08:53:08Z</time>
      </trkpt>
      <trkpt lat="49.34373" lon="-0.75441">
        <ele>14.3</ele>
        <time>2021-08-18T08:53:10Z</time>
      </trkpt>
      <trkpt lat="49.34373" lon="-0.7545">
        <ele>14.5</ele>
        <time>2021-08-18T08:53:11Z</time>
      </trkpt>
      <trkpt lat="49.34372" lon="-0.75458">
        <ele>14.8</ele>
        <time>2021-08-18T08:53:12Z</time>
      </trkpt>
      <trkpt lat="49.34371" lon="-0.75467">
        <ele>15.1</ele>
        <time>2021-08-18T08:53:13Z</time>
      </trkpt>
      <trkpt lat="49.34369" lon="-0.75482">
        <ele>15.7</ele>
        <time>2021-08-18T08:53:15Z</time>
      </trkpt>
      <trkpt lat="49.34368" lon="-0.75489">
        <ele>15.9</ele>
        <time>2021-08-18T08:53:16Z</time>
      </trkpt>
      <trkpt lat="49.34366" lon="-0.75504">
        <ele>16.4</ele>
        <time>2021-08-18T08:53:18Z</time>
      </trkpt>
      <trkpt lat="49.34366" lon="-0.75509">
        <ele>16.5</ele>
        <time>2021-08-18T08:53:19Z</time>
      </trkpt>
      <trkpt lat="49.34366" lon="-0.75521">
        <ele>16.9</ele>
        <time>2021-08-18T08:53:21Z</time>
      </trkpt>
      <trkpt lat="49.34366" lon="-0.75528">
        <ele>17.1</ele>
        <time>2021-08-18T08:53:22Z</time>
      </trkpt>
      <trkpt lat="49.34369" lon="-0.75537">
        <ele>17.5</ele>
        <time>2021-08-18T08:53:24Z</time>
      </trkpt>
      <trkpt lat="49.34371" lon="-0.7554">
        <ele>17.4</ele>
        <time>2021-08-18T08:53:25Z</time>
      </trkpt>
      <trkpt lat="49.34374" lon="-0.7554">
        <ele>17.4</ele>
        <time>2021-08-18T08:53:26Z</time>
      </trkpt>
      <trkpt lat="49.34375" lon="-0.7554">
        <ele>17.3</ele>
        <time>2021-08-18T08:53:28Z</time>
      </trkpt>
      <trkpt lat="49.34377" lon="-0.75539">
        <ele>17.3</ele>
        <time>2021-08-18T08:53:29Z</time>
      </trkpt>
      <trkpt lat="49.34388" lon="-0.75537">
        <ele>17.1</ele>
        <time>2021-08-18T08:53:30Z</time>
      </trkpt>
      <trkpt lat="49.34402" lon="-0.75536">
        <ele>16.9</ele>
        <time>2021-08-18T08:53:32Z</time>
      </trkpt>
      <trkpt lat="49.34408" lon="-0.75535">
        <ele>16.7</ele>
        <time>2021-08-18T08:53:33Z</time>
      </trkpt>
      <trkpt lat="49.34422" lon="-0.75535">
        <ele>16.4</ele>
        <time>2021-08-18T08:53:35Z</time>
      </trkpt>
      <trkpt lat="49.34436" lon="-0.75534">
        <ele>16</ele>
        <time>2021-08-18T08:53:37Z</time>
      </trkpt>
      <trkpt lat="49.34444" lon="-0.75533">
        <ele>15.7</ele>
        <time>2021-08-18T08:53:38Z</time>
      </trkpt>
      <trkpt lat="49.34457" lon="-0.75532">
        <ele>15.2</ele>
        <time>2021-08-18T08:53:40Z</time>
      </trkpt>
      <trkpt lat="49.34464" lon="-0.75531">
        <ele>14.9</ele>
        <time>2021-08-18T08:53:41Z</time>
      </trkpt>
      <trkpt lat="49.34472" lon="-0.7553">
        <ele>14.6</ele>
        <time>2021-08-18T08:53:42Z</time>
      </trkpt>
      <trkpt lat="49.34487" lon="-0.75527">
        <ele>14</ele>
        <time>2021-08-18T08:53:44Z</time>
      </trkpt>
      <trkpt lat="49.34494" lon="-0.75525">
        <ele>13.7</ele>
        <time>2021-08-18T08:53:45Z</time>
      </trkpt>
      <trkpt lat="49.34509" lon="-0.75523">
        <ele>13</ele>
        <time>2021-08-18T08:53:47Z</time>
      </trkpt>
      <trkpt lat="49.34526" lon="-0.75522">
        <ele>12.5</ele>
        <time>2021-08-18T08:53:49Z</time>
      </trkpt>
      <trkpt lat="49.34534" lon="-0.75521">
        <ele>12.2</ele>
        <time>2021-08-18T08:53:50Z</time>
      </trkpt>
      <trkpt lat="49.34549" lon="-0.75518">
        <ele>11.6</ele>
        <time>2021-08-18T08:53:52Z</time>
      </trkpt>
      <trkpt lat="49.34557" lon="-0.75518">
        <ele>11.3</ele>
        <time>2021-08-18T08:53:53Z</time>
      </trkpt>
      <trkpt lat="49.34574" lon="-0.75515">
        <ele>10.8</ele>
        <time>2021-08-18T08:53:55Z</time>
      </trkpt>
      <trkpt lat="49.34582" lon="-0.75514">
        <ele>10.6</ele>
        <time>2021-08-18T08:53:56Z</time>
      </trkpt>
      <trkpt lat="49.34598" lon="-0.75511">
        <ele>10</ele>
        <time>2021-08-18T08:53:58Z</time>
      </trkpt>
      <trkpt lat="49.34614" lon="-0.75508">
        <ele>9.4</ele>
        <time>2021-08-18T08:54:00Z</time>
      </trkpt>
      <trkpt lat="49.34629" lon="-0.75505">
        <ele>8.8</ele>
        <time>2021-08-18T08:54:02Z</time>
      </trkpt>
      <trkpt lat="49.34637" lon="-0.75503">
        <ele>8.6</ele>
        <time>2021-08-18T08:54:03Z</time>
      </trkpt>
      <trkpt lat="49.34653" lon="-0.755">
        <ele>8</ele>
        <time>2021-08-18T08:54:05Z</time>
      </trkpt>
      <trkpt lat="49.34669" lon="-0.75497">
        <ele>7.4</ele>
        <time>2021-08-18T08:54:07Z</time>
      </trkpt>
      <trkpt lat="49.34684" lon="-0.75494">
        <ele>6.7</ele>
        <time>2021-08-18T08:54:09Z</time>
      </trkpt>
      <trkpt lat="49.34691" lon="-0.75493">
        <ele>6.3</ele>
        <time>2021-08-18T08:54:10Z</time>
      </trkpt>
      <trkpt lat="49.34699" lon="-0.7549">
        <ele>5.9</ele>
        <time>2021-08-18T08:54:11Z</time>
      </trkpt>
      <trkpt lat="49.34715" lon="-0.75483">
        <ele>5.1</ele>
        <time>2021-08-18T08:54:13Z</time>
      </trkpt>
      <trkpt lat="49.34722" lon="-0.75481">
        <ele>4.8</ele>
        <time>2021-08-18T08:54:14Z</time>
      </trkpt>
      <trkpt lat="49.34735" lon="-0.75486">
        <ele>4.5</ele>
        <time>2021-08-18T08:54:16Z</time>
      </trkpt>
      <trkpt lat="49.34747" lon="-0.75493">
        <ele>4.3</ele>
        <time>2021-08-18T08:54:18Z</time>
      </trkpt>
      <trkpt lat="49.34753" lon="-0.75496">
        <ele>4.2</ele>
        <time>2021-08-18T08:54:19Z</time>
      </trkpt>
      <trkpt lat="49.34765" lon="-0.75504">
        <ele>4</ele>
        <time>2021-08-18T08:54:21Z</time>
      </trkpt>
      <trkpt lat="49.34777" lon="-0.75512">
        <ele>3.9</ele>
        <time>2021-08-18T08:54:23Z</time>
      </trkpt>
      <trkpt lat="49.34789" lon="-0.7552">
        <ele>3.8</ele>
        <time>2021-08-18T08:54:25Z</time>
      </trkpt>
      <trkpt lat="49.34801" lon="-0.75527">
        <ele>3.7</ele>
        <time>2021-08-18T08:54:27Z</time>
      </trkpt>
      <trkpt lat="49.34806" lon="-0.7553">
        <ele>3.7</ele>
        <time>2021-08-18T08:54:28Z</time>
      </trkpt>
      <trkpt lat="49.34812" lon="-0.75534">
        <ele>3.7</ele>
        <time>2021-08-18T08:54:29Z</time>
      </trkpt>
      <trkpt lat="49.34817" lon="-0.75537">
        <ele>3.7</ele>
        <time>2021-08-18T08:54:30Z</time>
      </trkpt>
      <trkpt lat="49.34829" lon="-0.75543">
        <ele>3.7</ele>
        <time>2021-08-18T08:54:32Z</time>
      </trkpt>
      <trkpt lat="49.34835" lon="-0.75546">
        <ele>3.6</ele>
        <time>2021-08-18T08:54:33Z</time>
      </trkpt>
      <trkpt lat="49.34846" lon="-0.7555">
        <ele>3.6</ele>
        <time>2021-08-18T08:54:35Z</time>
      </trkpt>
      <trkpt lat="49.34857" lon="-0.75547">
        <ele>3.6</ele>
        <time>2021-08-18T08:54:37Z</time>
      </trkpt>
      <trkpt lat="49.34868" lon="-0.75546">
        <ele>3.6</ele>
        <time>2021-08-18T08:54:39Z</time>
      </trkpt>
      <trkpt lat="49.34878" lon="-0.75546">
        <ele>3.6</ele>
        <time>2021-08-18T08:54:41Z</time>
      </trkpt>
      <trkpt lat="49.34882" lon="-0.75548">
        <ele>3.6</ele>
        <time>2021-08-18T08:54:42Z</time>
      </trkpt>
      <trkpt lat="49.34891" lon="-0.75552">
        <ele>3.7</ele>
        <time>2021-08-18T08:54:44Z</time>
      </trkpt>
      <trkpt lat="49.34894" lon="-0.75556">
        <ele>3.8</ele>
        <time>2021-08-18T08:54:45Z</time>
      </trkpt>
      <trkpt lat="49.34899" lon="-0.75552">
        <ele>3.8</ele>
        <time>2021-08-18T08:54:47Z</time>
      </trkpt>
      <trkpt lat="49.34904" lon="-0.75537">
        <ele>4</ele>
        <time>2021-08-18T08:54:49Z</time>
      </trkpt>
      <trkpt lat="49.34907" lon="-0.75531">
        <ele>4.1</ele>
        <time>2021-08-18T08:54:50Z</time>
      </trkpt>
      <trkpt lat="49.34912" lon="-0.75521">
        <ele>4.1</ele>
        <time>2021-08-18T08:54:52Z</time>
      </trkpt>
      <trkpt lat="49.34913" lon="-0.75515">
        <ele>4.2</ele>
        <time>2021-08-18T08:54:53Z</time>
      </trkpt>
      <trkpt lat="49.34913" lon="-0.75509">
        <ele>4.2</ele>
        <time>2021-08-18T08:54:54Z</time>
      </trkpt>
      <trkpt lat="49.34913" lon="-0.75499">
        <ele>4.3</ele>
        <time>2021-08-18T08:54:56Z</time>
      </trkpt>
      <trkpt lat="49.34911" lon="-0.75492">
        <ele>4.9</ele>
        <time>2021-08-18T08:54:58Z</time>
      </trkpt>
      <trkpt lat="49.34911" lon="-0.75491">
        <ele>5</ele>
        <time>2021-08-18T08:54:59Z</time>
      </trkpt>
      <trkpt lat="49.3491" lon="-0.75488">
        <ele>5.1</ele>
        <time>2021-08-18T08:55:01Z</time>
      </trkpt>
      <trkpt lat="49.3491" lon="-0.75484">
        <ele>5.2</ele>
        <time>2021-08-18T08:55:03Z</time>
      </trkpt>
      <trkpt lat="49.34909" lon="-0.75479">
        <ele>5.5</ele>
        <time>2021-08-18T08:55:05Z</time>
      </trkpt>
      <trkpt lat="49.34908" lon="-0.75477">
        <ele>5.6</ele>
        <time>2021-08-18T08:55:06Z</time>
      </trkpt>
      <trkpt lat="49.34907" lon="-0.75474">
        <ele>5.8</ele>
        <time>2021-08-18T08:55:07Z</time>
      </trkpt>
      <trkpt lat="49.34904" lon="-0.75467">
        <ele>6.3</ele>
        <time>2021-08-18T08:55:09Z</time>
      </trkpt>
      <trkpt lat="49.34903" lon="-0.75464">
        <ele>6.5</ele>
        <time>2021-08-18T08:55:10Z</time>
      </trkpt>
      <trkpt lat="49.349" lon="-0.75457">
        <ele>7.1</ele>
        <time>2021-08-18T08:55:12Z</time>
      </trkpt>
      <trkpt lat="49.34899" lon="-0.75453">
        <ele>7.4</ele>
        <time>2021-08-18T08:55:13Z</time>
      </trkpt>
      <trkpt lat="49.34895" lon="-0.75446">
        <ele>8</ele>
        <time>2021-08-18T08:55:15Z</time>
      </trkpt>
      <trkpt lat="49.34893" lon="-0.7544">
        <ele>8.5</ele>
        <time>2021-08-18T08:55:17Z</time>
      </trkpt>
      <trkpt lat="49.34889" lon="-0.75435">
        <ele>9</ele>
        <time>2021-08-18T08:55:19Z</time>
      </trkpt>
      <trkpt lat="49.34888" lon="-0.75432">
        <ele>9.3</ele>
        <time>2021-08-18T08:55:20Z</time>
      </trkpt>
      <trkpt lat="49.34883" lon="-0.75426">
        <ele>9.8</ele>
        <time>2021-08-18T08:55:22Z</time>
      </trkpt>
      <trkpt lat="49.3488" lon="-0.75422">
        <ele>10.2</ele>
        <time>2021-08-18T08:55:23Z</time>
      </trkpt>
      <trkpt lat="49.34878" lon="-0.75419">
        <ele>10.4</ele>
        <time>2021-08-18T08:55:24Z</time>
      </trkpt>
      <trkpt lat="49.34873" lon="-0.75413">
        <ele>10.9</ele>
        <time>2021-08-18T08:55:26Z</time>
      </trkpt>
      <trkpt lat="49.3487" lon="-0.75411">
        <ele>11.1</ele>
        <time>2021-08-18T08:55:27Z</time>
      </trkpt>
      <trkpt lat="49.34865" lon="-0.75407">
        <ele>11.5</ele>
        <time>2021-08-18T08:55:29Z</time>
      </trkpt>
      <trkpt lat="49.34862" lon="-0.75405">
        <ele>11.7</ele>
        <time>2021-08-18T08:55:30Z</time>
      </trkpt>
      <trkpt lat="49.34855" lon="-0.754">
        <ele>12.1</ele>
        <time>2021-08-18T08:55:32Z</time>
      </trkpt>
      <trkpt lat="49.34851" lon="-0.75398">
        <ele>12.2</ele>
        <time>2021-08-18T08:55:33Z</time>
      </trkpt>
      <trkpt lat="49.34845" lon="-0.75393">
        <ele>12.5</ele>
        <time>2021-08-18T08:55:35Z</time>
      </trkpt>
      <trkpt lat="49.34838" lon="-0.75388">
        <ele>12.7</ele>
        <time>2021-08-18T08:55:37Z</time>
      </trkpt>
      <trkpt lat="49.34835" lon="-0.75385">
        <ele>12.8</ele>
        <time>2021-08-18T08:55:38Z</time>
      </trkpt>
      <trkpt lat="49.34828" lon="-0.75379">
        <ele>13</ele>
        <time>2021-08-18T08:55:40Z</time>
      </trkpt>
      <trkpt lat="49.34825" lon="-0.75376">
        <ele>13.1</ele>
        <time>2021-08-18T08:55:41Z</time>
      </trkpt>
      <trkpt lat="49.34816" lon="-0.7537">
        <ele>13.4</ele>
        <time>2021-08-18T08:55:43Z</time>
      </trkpt>
      <trkpt lat="49.34813" lon="-0.75368">
        <ele>13.5</ele>
        <time>2021-08-18T08:55:44Z</time>
      </trkpt>
      <trkpt lat="49.34807" lon="-0.75362">
        <ele>13.6</ele>
        <time>2021-08-18T08:55:46Z</time>
      </trkpt>
      <trkpt lat="49.348" lon="-0.75357">
        <ele>13.8</ele>
        <time>2021-08-18T08:55:48Z</time>
      </trkpt>
      <trkpt lat="49.34797" lon="-0.75353">
        <ele>13.9</ele>
        <time>2021-08-18T08:55:50Z</time>
      </trkpt>
      <trkpt lat="49.34798" lon="-0.75354">
        <ele>14</ele>
        <time>2021-08-18T08:55:52Z</time>
      </trkpt>
      <trkpt lat="49.34801" lon="-0.75354">
        <ele>14.1</ele>
        <time>2021-08-18T08:55:54Z</time>
      </trkpt>
      <trkpt lat="49.34805" lon="-0.75354">
        <ele>14.2</ele>
        <time>2021-08-18T08:55:55Z</time>
      </trkpt>
      <trkpt lat="49.34807" lon="-0.75354">
        <ele>14.1</ele>
        <time>2021-08-18T08:55:56Z</time>
      </trkpt>
      <trkpt lat="49.34813" lon="-0.75358">
        <ele>13.9</ele>
        <time>2021-08-18T08:55:58Z</time>
      </trkpt>
      <trkpt lat="49.34817" lon="-0.75362">
        <ele>13.8</ele>
        <time>2021-08-18T08:55:59Z</time>
      </trkpt>
      <trkpt lat="49.34822" lon="-0.75365">
        <ele>13.6</ele>
        <time>2021-08-18T08:56:00Z</time>
      </trkpt>
      <trkpt lat="49.34827" lon="-0.7537">
        <ele>13.5</ele>
        <time>2021-08-18T08:56:01Z</time>
      </trkpt>
      <trkpt lat="49.34836" lon="-0.75377">
        <ele>13.2</ele>
        <time>2021-08-18T08:56:03Z</time>
      </trkpt>
      <trkpt lat="49.3484" lon="-0.75381">
        <ele>13</ele>
        <time>2021-08-18T08:56:04Z</time>
      </trkpt>
      <trkpt lat="49.34844" lon="-0.75384">
        <ele>12.9</ele>
        <time>2021-08-18T08:56:05Z</time>
      </trkpt>
      <trkpt lat="49.34852" lon="-0.75391">
        <ele>12.6</ele>
        <time>2021-08-18T08:56:07Z</time>
      </trkpt>
      <trkpt lat="49.34856" lon="-0.75394">
        <ele>12.4</ele>
        <time>2021-08-18T08:56:08Z</time>
      </trkpt>
      <trkpt lat="49.34859" lon="-0.75396">
        <ele>12.3</ele>
        <time>2021-08-18T08:56:09Z</time>
      </trkpt>
      <trkpt lat="49.34862" lon="-0.75398">
        <ele>12.1</ele>
        <time>2021-08-18T08:56:10Z</time>
      </trkpt>
      <trkpt lat="49.34868" lon="-0.75403">
        <ele>11.7</ele>
        <time>2021-08-18T08:56:12Z</time>
      </trkpt>
      <trkpt lat="49.34874" lon="-0.75406">
        <ele>12</ele>
        <time>2021-08-18T08:56:14Z</time>
      </trkpt>
      <trkpt lat="49.34878" lon="-0.75409">
        <ele>12.1</ele>
        <time>2021-08-18T08:56:16Z</time>
      </trkpt>
      <trkpt lat="49.34878" lon="-0.75409">
        <ele>12.1</ele>
        <time>2021-08-18T08:56:17Z</time>
      </trkpt>
      <trkpt lat="49.34877" lon="-0.75409">
        <ele>12.1</ele>
        <time>2021-08-18T08:56:19Z</time>
      </trkpt>
      <trkpt lat="49.34878" lon="-0.75408">
        <ele>12.1</ele>
        <time>2021-08-18T08:56:21Z</time>
      </trkpt>
      <trkpt lat="49.34878" lon="-0.75407">
        <ele>12.2</ele>
        <time>2021-08-18T08:56:22Z</time>
      </trkpt>
      <trkpt lat="49.34878" lon="-0.75403">
        <ele>12.2</ele>
        <time>2021-08-18T08:56:24Z</time>
      </trkpt>
      <trkpt lat="49.34878" lon="-0.75402">
        <ele>12.3</ele>
        <time>2021-08-18T08:56:25Z</time>
      </trkpt>
      <trkpt lat="49.34878" lon="-0.75402">
        <ele>12.3</ele>
        <time>2021-08-18T08:56:27Z</time>
      </trkpt>
      <trkpt lat="49.34878" lon="-0.75401">
        <ele>12.3</ele>
        <time>2021-08-18T08:56:28Z</time>
      </trkpt>
      <trkpt lat="49.34878" lon="-0.75401">
        <ele>12.3</ele>
        <time>2021-08-18T08:56:29Z</time>
      </trkpt>
      <trkpt lat="49.34878" lon="-0.754">
        <ele>12.3</ele>
        <time>2021-08-18T08:57:30Z</time>
      </trkpt>
      <trkpt lat="49.34878" lon="-0.754">
        <ele>12.3</ele>
        <time>2021-08-18T08:57:32Z</time>
      </trkpt>
      <trkpt lat="49.34877" lon="-0.75399">
        <ele>12.3</ele>
        <time>2021-08-18T08:57:33Z</time>
      </trkpt>
      <trkpt lat="49.34877" lon="-0.75399">
        <ele>12.3</ele>
        <time>2021-08-18T08:57:35Z</time>
      </trkpt>
      <trkpt lat="49.34877" lon="-0.75398">
        <ele>12.3</ele>
        <time>2021-08-18T08:57:37Z</time>
      </trkpt>
      <trkpt lat="49.34877" lon="-0.75398">
        <ele>12.3</ele>
        <time>2021-08-18T08:57:39Z</time>
      </trkpt>
      <trkpt lat="49.34877" lon="-0.75397">
        <ele>12.4</ele>
        <time>2021-08-18T08:57:40Z</time>
      </trkpt>
      <trkpt lat="49.34877" lon="-0.75397">
        <ele>12.4</ele>
        <time>2021-08-18T08:57:41Z</time>
      </trkpt>
      <trkpt lat="49.3487" lon="-0.7539">
        <ele>12.6</ele>
        <time>2021-08-18T08:57:43Z</time>
      </trkpt>
      <trkpt lat="49.34862" lon="-0.75385">
        <ele>12.8</ele>
        <time>2021-08-18T08:57:45Z</time>
      </trkpt>
      <trkpt lat="49.34858" lon="-0.75383">
        <ele>12.9</ele>
        <time>2021-08-18T08:57:46Z</time>
      </trkpt>
      <trkpt lat="49.34851" lon="-0.75378">
        <ele>13</ele>
        <time>2021-08-18T08:57:48Z</time>
      </trkpt>
      <trkpt lat="49.34838" lon="-0.7537">
        <ele>13.3</ele>
        <time>2021-08-18T08:57:50Z</time>
      </trkpt>
      <trkpt lat="49.34828" lon="-0.75364">
        <ele>13.5</ele>
        <time>2021-08-18T08:57:52Z</time>
      </trkpt>
      <trkpt lat="49.34824" lon="-0.75362">
        <ele>13.6</ele>
        <time>2021-08-18T08:57:53Z</time>
      </trkpt>
      <trkpt lat="49.3482" lon="-0.75359">
        <ele>13.6</ele>
        <time>2021-08-18T08:57:54Z</time>
      </trkpt>
      <trkpt lat="49.34813" lon="-0.75355">
        <ele>13.8</ele>
        <time>2021-08-18T08:57:56Z</time>
      </trkpt>
      <trkpt lat="49.34807" lon="-0.75352">
        <ele>13.9</ele>
        <time>2021-08-18T08:57:58Z</time>
      </trkpt>
      <trkpt lat="49.34806" lon="-0.75351">
        <ele>13.9</ele>
        <time>2021-08-18T08:57:59Z</time>
      </trkpt>
      <trkpt lat="49.34804" lon="-0.75349">
        <ele>14</ele>
        <time>2021-08-18T08:58:01Z</time>
      </trkpt>
      <trkpt lat="49.34803" lon="-0.75348">
        <ele>14</ele>
        <time>2021-08-18T08:58:03Z</time>
      </trkpt>
      <trkpt lat="49.34804" lon="-0.75354">
        <ele>14.1</ele>
        <time>2021-08-18T08:58:05Z</time>
      </trkpt>
      <trkpt lat="49.34805" lon="-0.75357">
        <ele>14.1</ele>
        <time>2021-08-18T08:58:06Z</time>
      </trkpt>
      <trkpt lat="49.34811" lon="-0.75367">
        <ele>13.9</ele>
        <time>2021-08-18T08:58:08Z</time>
      </trkpt>
      <trkpt lat="49.34817" lon="-0.75373">
        <ele>13.7</ele>
        <time>2021-08-18T08:58:10Z</time>
      </trkpt>
      <trkpt lat="49.34826" lon="-0.75379">
        <ele>13.4</ele>
        <time>2021-08-18T08:58:12Z</time>
      </trkpt>
      <trkpt lat="49.3483" lon="-0.75382">
        <ele>13.3</ele>
        <time>2021-08-18T08:58:13Z</time>
      </trkpt>
      <trkpt lat="49.34834" lon="-0.75384">
        <ele>13.2</ele>
        <time>2021-08-18T08:58:14Z</time>
      </trkpt>
      <trkpt lat="49.34836" lon="-0.75386">
        <ele>13.1</ele>
        <time>2021-08-18T08:58:15Z</time>
      </trkpt>
      <trkpt lat="49.34842" lon="-0.75394">
        <ele>12.9</ele>
        <time>2021-08-18T08:58:17Z</time>
      </trkpt>
      <trkpt lat="49.34847" lon="-0.75398">
        <ele>12.7</ele>
        <time>2021-08-18T08:58:18Z</time>
      </trkpt>
      <trkpt lat="49.34851" lon="-0.75403">
        <ele>12.5</ele>
        <time>2021-08-18T08:58:19Z</time>
      </trkpt>
      <trkpt lat="49.3486" lon="-0.75411">
        <ele>12</ele>
        <time>2021-08-18T08:58:21Z</time>
      </trkpt>
      <trkpt lat="49.34866" lon="-0.75414">
        <ele>11.6</ele>
        <time>2021-08-18T08:58:22Z</time>
      </trkpt>
      <trkpt lat="49.34871" lon="-0.75418">
        <ele>11.3</ele>
        <time>2021-08-18T08:58:23Z</time>
      </trkpt>
      <trkpt lat="49.34878" lon="-0.75427">
        <ele>10.5</ele>
        <time>2021-08-18T08:58:25Z</time>
      </trkpt>
      <trkpt lat="49.34881" lon="-0.75433">
        <ele>10</ele>
        <time>2021-08-18T08:58:26Z</time>
      </trkpt>
      <trkpt lat="49.34892" lon="-0.75455">
        <ele>7.9</ele>
        <time>2021-08-18T08:58:28Z</time>
      </trkpt>
      <trkpt lat="49.34902" lon="-0.75475">
        <ele>5.9</ele>
        <time>2021-08-18T08:58:30Z</time>
      </trkpt>
      <trkpt lat="49.34909" lon="-0.75498">
        <ele>4.8</ele>
        <time>2021-08-18T08:58:32Z</time>
      </trkpt>
      <trkpt lat="49.34912" lon="-0.7552">
        <ele>4.2</ele>
        <time>2021-08-18T08:58:34Z</time>
      </trkpt>
      <trkpt lat="49.34908" lon="-0.7554">
        <ele>4.1</ele>
        <time>2021-08-18T08:58:36Z</time>
      </trkpt>
      <trkpt lat="49.34906" lon="-0.75548">
        <ele>4</ele>
        <time>2021-08-18T08:58:37Z</time>
      </trkpt>
      <trkpt lat="49.34901" lon="-0.75558">
        <ele>4</ele>
        <time>2021-08-18T08:58:39Z</time>
      </trkpt>
      <trkpt lat="49.34903" lon="-0.75563">
        <ele>4</ele>
        <time>2021-08-18T08:58:40Z</time>
      </trkpt>
      <trkpt lat="49.34904" lon="-0.75564">
        <ele>4</ele>
        <time>2021-08-18T08:58:41Z</time>
      </trkpt>
      <trkpt lat="49.34904" lon="-0.75569">
        <ele>4</ele>
        <time>2021-08-18T08:58:43Z</time>
      </trkpt>
      <trkpt lat="49.34904" lon="-0.75576">
        <ele>4</ele>
        <time>2021-08-18T08:58:44Z</time>
      </trkpt>
      <trkpt lat="49.34903" lon="-0.75587">
        <ele>4</ele>
        <time>2021-08-18T08:58:46Z</time>
      </trkpt>
      <trkpt lat="49.34905" lon="-0.75599">
        <ele>4</ele>
        <time>2021-08-18T08:58:48Z</time>
      </trkpt>
      <trkpt lat="49.34906" lon="-0.75605">
        <ele>4.1</ele>
        <time>2021-08-18T08:58:49Z</time>
      </trkpt>
      <trkpt lat="49.34906" lon="-0.75612">
        <ele>4.1</ele>
        <time>2021-08-18T08:58:50Z</time>
      </trkpt>
      <trkpt lat="49.34907" lon="-0.75624">
        <ele>4.1</ele>
        <time>2021-08-18T08:58:52Z</time>
      </trkpt>
      <trkpt lat="49.34908" lon="-0.75627">
        <ele>4.1</ele>
        <time>2021-08-18T08:58:54Z</time>
      </trkpt>
      <trkpt lat="49.34905" lon="-0.75632">
        <ele>4.1</ele>
        <time>2021-08-18T08:58:56Z</time>
      </trkpt>
      <trkpt lat="49.34904" lon="-0.75637">
        <ele>4.2</ele>
        <time>2021-08-18T08:58:58Z</time>
      </trkpt>
      <trkpt lat="49.34901" lon="-0.75643">
        <ele>5.2</ele>
        <time>2021-08-18T08:59:00Z</time>
      </trkpt>
      <trkpt lat="49.34898" lon="-0.75646">
        <ele>5.3</ele>
        <time>2021-08-18T08:59:01Z</time>
      </trkpt>
      <trkpt lat="49.34895" lon="-0.75647">
        <ele>5.4</ele>
        <time>2021-08-18T08:59:02Z</time>
      </trkpt>
      <trkpt lat="49.34891" lon="-0.75649">
        <ele>5.5</ele>
        <time>2021-08-18T08:59:03Z</time>
      </trkpt>
      <trkpt lat="49.3488" lon="-0.75651">
        <ele>5.5</ele>
        <time>2021-08-18T08:59:05Z</time>
      </trkpt>
      <trkpt lat="49.34864" lon="-0.75653">
        <ele>5.2</ele>
        <time>2021-08-18T08:59:07Z</time>
      </trkpt>
      <trkpt lat="49.34857" lon="-0.75655">
        <ele>5.1</ele>
        <time>2021-08-18T08:59:08Z</time>
      </trkpt>
      <trkpt lat="49.34844" lon="-0.75656">
        <ele>5</ele>
        <time>2021-08-18T08:59:10Z</time>
      </trkpt>
      <trkpt lat="49.3484" lon="-0.75654">
        <ele>4.8</ele>
        <time>2021-08-18T08:59:11Z</time>
      </trkpt>
      <trkpt lat="49.34839" lon="-0.7565">
        <ele>4.8</ele>
        <time>2021-08-18T08:59:12Z</time>
      </trkpt>
      <trkpt lat="49.34838" lon="-0.75645">
        <ele>4.7</ele>
        <time>2021-08-18T08:59:13Z</time>
      </trkpt>
      <trkpt lat="49.34841" lon="-0.75631">
        <ele>4.6</ele>
        <time>2021-08-18T08:59:15Z</time>
      </trkpt>
      <trkpt lat="49.34843" lon="-0.75614">
        <ele>4.4</ele>
        <time>2021-08-18T08:59:17Z</time>
      </trkpt>
      <trkpt lat="49.34843" lon="-0.75607">
        <ele>4.3</ele>
        <time>2021-08-18T08:59:18Z</time>
      </trkpt>
      <trkpt lat="49.34842" lon="-0.75601">
        <ele>4.2</ele>
        <time>2021-08-18T08:59:20Z</time>
      </trkpt>
      <trkpt lat="49.34839" lon="-0.75599">
        <ele>4.1</ele>
        <time>2021-08-18T08:59:22Z</time>
      </trkpt>
      <trkpt lat="49.34831" lon="-0.75596">
        <ele>4.1</ele>
        <time>2021-08-18T08:59:24Z</time>
      </trkpt>
      <trkpt lat="49.34818" lon="-0.75599">
        <ele>4.3</ele>
        <time>2021-08-18T08:59:26Z</time>
      </trkpt>
      <trkpt lat="49.34805" lon="-0.75605">
        <ele>4.7</ele>
        <time>2021-08-18T08:59:28Z</time>
      </trkpt>
      <trkpt lat="49.34794" lon="-0.75611">
        <ele>4.9</ele>
        <time>2021-08-18T08:59:30Z</time>
      </trkpt>
      <trkpt lat="49.34788" lon="-0.75614">
        <ele>5</ele>
        <time>2021-08-18T08:59:31Z</time>
      </trkpt>
      <trkpt lat="49.34777" lon="-0.75617">
        <ele>5.3</ele>
        <time>2021-08-18T08:59:33Z</time>
      </trkpt>
      <trkpt lat="49.34766" lon="-0.7562">
        <ele>5.7</ele>
        <time>2021-08-18T08:59:35Z</time>
      </trkpt>
      <trkpt lat="49.34756" lon="-0.75626">
        <ele>6</ele>
        <time>2021-08-18T08:59:37Z</time>
      </trkpt>
      <trkpt lat="49.34745" lon="-0.75634">
        <ele>6.4</ele>
        <time>2021-08-18T08:59:39Z</time>
      </trkpt>
      <trkpt lat="49.34739" lon="-0.75638">
        <ele>6.7</ele>
        <time>2021-08-18T08:59:40Z</time>
      </trkpt>
      <trkpt lat="49.34734" lon="-0.75642">
        <ele>7</ele>
        <time>2021-08-18T08:59:41Z</time>
      </trkpt>
      <trkpt lat="49.34728" lon="-0.75646">
        <ele>7.4</ele>
        <time>2021-08-18T08:59:42Z</time>
      </trkpt>
      <trkpt lat="49.34715" lon="-0.75651">
        <ele>8.1</ele>
        <time>2021-08-18T08:59:44Z</time>
      </trkpt>
      <trkpt lat="49.34709" lon="-0.75653">
        <ele>8.5</ele>
        <time>2021-08-18T08:59:45Z</time>
      </trkpt>
      <trkpt lat="49.34703" lon="-0.75654">
        <ele>8.8</ele>
        <time>2021-08-18T08:59:46Z</time>
      </trkpt>
      <trkpt lat="49.34697" lon="-0.75655">
        <ele>9.2</ele>
        <time>2021-08-18T08:59:47Z</time>
      </trkpt>
      <trkpt lat="49.34685" lon="-0.75662">
        <ele>9.7</ele>
        <time>2021-08-18T08:59:49Z</time>
      </trkpt>
      <trkpt lat="49.34673" lon="-0.75668">
        <ele>10.1</ele>
        <time>2021-08-18T08:59:51Z</time>
      </trkpt>
      <trkpt lat="49.34667" lon="-0.75671">
        <ele>10.4</ele>
        <time>2021-08-18T08:59:52Z</time>
      </trkpt>
      <trkpt lat="49.34662" lon="-0.75673">
        <ele>10.6</ele>
        <time>2021-08-18T08:59:53Z</time>
      </trkpt>
      <trkpt lat="49.34652" lon="-0.75683">
        <ele>11</ele>
        <time>2021-08-18T08:59:55Z</time>
      </trkpt>
      <trkpt lat="49.34642" lon="-0.75692">
        <ele>11.5</ele>
        <time>2021-08-18T08:59:57Z</time>
      </trkpt>
      <trkpt lat="49.34633" lon="-0.75698">
        <ele>11.9</ele>
        <time>2021-08-18T08:59:59Z</time>
      </trkpt>
      <trkpt lat="49.34626" lon="-0.75699">
        <ele>12.3</ele>
        <time>2021-08-18T09:00:01Z</time>
      </trkpt>
      <trkpt lat="49.34617" lon="-0.75695">
        <ele>12.7</ele>
        <time>2021-08-18T09:00:03Z</time>
      </trkpt>
      <trkpt lat="49.34607" lon="-0.75691">
        <ele>13.3</ele>
        <time>2021-08-18T09:00:05Z</time>
      </trkpt>
      <trkpt lat="49.34602" lon="-0.75689">
        <ele>13.7</ele>
        <time>2021-08-18T09:00:06Z</time>
      </trkpt>
      <trkpt lat="49.34596" lon="-0.75686">
        <ele>14</ele>
        <time>2021-08-18T09:00:07Z</time>
      </trkpt>
      <trkpt lat="49.34587" lon="-0.75681">
        <ele>14.7</ele>
        <time>2021-08-18T09:00:09Z</time>
      </trkpt>
      <trkpt lat="49.34578" lon="-0.75679">
        <ele>15.4</ele>
        <time>2021-08-18T09:00:11Z</time>
      </trkpt>
      <trkpt lat="49.34571" lon="-0.7568">
        <ele>16.2</ele>
        <time>2021-08-18T09:00:13Z</time>
      </trkpt>
      <trkpt lat="49.34565" lon="-0.75679">
        <ele>16.4</ele>
        <time>2021-08-18T09:00:14Z</time>
      </trkpt>
      <trkpt lat="49.34559" lon="-0.75678">
        <ele>16.7</ele>
        <time>2021-08-18T09:00:15Z</time>
      </trkpt>
      <trkpt lat="49.34549" lon="-0.75673">
        <ele>17.2</ele>
        <time>2021-08-18T09:00:17Z</time>
      </trkpt>
      <trkpt lat="49.34545" lon="-0.75671">
        <ele>17.4</ele>
        <time>2021-08-18T09:00:18Z</time>
      </trkpt>
      <trkpt lat="49.34535" lon="-0.75668">
        <ele>17.8</ele>
        <time>2021-08-18T09:00:20Z</time>
      </trkpt>
      <trkpt lat="49.34529" lon="-0.75667">
        <ele>17.9</ele>
        <time>2021-08-18T09:00:21Z</time>
      </trkpt>
      <trkpt lat="49.34518" lon="-0.75661">
        <ele>18.1</ele>
        <time>2021-08-18T09:00:23Z</time>
      </trkpt>
      <trkpt lat="49.34506" lon="-0.75651">
        <ele>18.1</ele>
        <time>2021-08-18T09:00:25Z</time>
      </trkpt>
      <trkpt lat="49.34496" lon="-0.75642">
        <ele>17.9</ele>
        <time>2021-08-18T09:00:27Z</time>
      </trkpt>
      <trkpt lat="49.34491" lon="-0.75638">
        <ele>17.8</ele>
        <time>2021-08-18T09:00:28Z</time>
      </trkpt>
      <trkpt lat="49.3448" lon="-0.75629">
        <ele>17.7</ele>
        <time>2021-08-18T09:00:30Z</time>
      </trkpt>
      <trkpt lat="49.34469" lon="-0.7562">
        <ele>17.5</ele>
        <time>2021-08-18T09:00:32Z</time>
      </trkpt>
      <trkpt lat="49.34464" lon="-0.75616">
        <ele>17.5</ele>
        <time>2021-08-18T09:00:33Z</time>
      </trkpt>
      <trkpt lat="49.34455" lon="-0.75607">
        <ele>17.5</ele>
        <time>2021-08-18T09:00:35Z</time>
      </trkpt>
      <trkpt lat="49.34451" lon="-0.75602">
        <ele>17.4</ele>
        <time>2021-08-18T09:00:36Z</time>
      </trkpt>
      <trkpt lat="49.34448" lon="-0.75596">
        <ele>17.4</ele>
        <time>2021-08-18T09:00:37Z</time>
      </trkpt>
      <trkpt lat="49.34441" lon="-0.75586">
        <ele>17.3</ele>
        <time>2021-08-18T09:00:39Z</time>
      </trkpt>
      <trkpt lat="49.34434" lon="-0.75576">
        <ele>17.2</ele>
        <time>2021-08-18T09:00:41Z</time>
      </trkpt>
      <trkpt lat="49.3443" lon="-0.75571">
        <ele>17.1</ele>
        <time>2021-08-18T09:00:42Z</time>
      </trkpt>
      <trkpt lat="49.34424" lon="-0.75564">
        <ele>17</ele>
        <time>2021-08-18T09:00:44Z</time>
      </trkpt>
      <trkpt lat="49.34421" lon="-0.75558">
        <ele>17</ele>
        <time>2021-08-18T09:00:45Z</time>
      </trkpt>
      <trkpt lat="49.34415" lon="-0.75549">
        <ele>16.6</ele>
        <time>2021-08-18T09:00:47Z</time>
      </trkpt>
      <trkpt lat="49.34404" lon="-0.75547">
        <ele>16.8</ele>
        <time>2021-08-18T09:00:49Z</time>
      </trkpt>
      <trkpt lat="49.34394" lon="-0.75549">
        <ele>17</ele>
        <time>2021-08-18T09:00:51Z</time>
      </trkpt>
      <trkpt lat="49.3439" lon="-0.7555">
        <ele>17.1</ele>
        <time>2021-08-18T09:00:52Z</time>
      </trkpt>
      <trkpt lat="49.34385" lon="-0.75551">
        <ele>17.2</ele>
        <time>2021-08-18T09:00:54Z</time>
      </trkpt>
      <trkpt lat="49.34379" lon="-0.75554">
        <ele>17.3</ele>
        <time>2021-08-18T09:00:56Z</time>
      </trkpt>
      <trkpt lat="49.34375" lon="-0.75557">
        <ele>17.4</ele>
        <time>2021-08-18T09:00:57Z</time>
      </trkpt>
      <trkpt lat="49.34367" lon="-0.75561">
        <ele>17.5</ele>
        <time>2021-08-18T09:00:59Z</time>
      </trkpt>
      <trkpt lat="49.34363" lon="-0.75559">
        <ele>17.5</ele>
        <time>2021-08-18T09:01:00Z</time>
      </trkpt>
      <trkpt lat="49.34354" lon="-0.75555">
        <ele>17.5</ele>
        <time>2021-08-18T09:01:02Z</time>
      </trkpt>
      <trkpt lat="49.34349" lon="-0.75556">
        <ele>17.4</ele>
        <time>2021-08-18T09:01:03Z</time>
      </trkpt>
      <trkpt lat="49.34337" lon="-0.75558">
        <ele>17.1</ele>
        <time>2021-08-18T09:01:05Z</time>
      </trkpt>
      <trkpt lat="49.34325" lon="-0.7556">
        <ele>16.9</ele>
        <time>2021-08-18T09:01:07Z</time>
      </trkpt>
      <trkpt lat="49.34318" lon="-0.75561">
        <ele>16.7</ele>
        <time>2021-08-18T09:01:08Z</time>
      </trkpt>
      <trkpt lat="49.34304" lon="-0.75563">
        <ele>16.4</ele>
        <time>2021-08-18T09:01:10Z</time>
      </trkpt>
      <trkpt lat="49.34297" lon="-0.75564">
        <ele>16.3</ele>
        <time>2021-08-18T09:01:11Z</time>
      </trkpt>
      <trkpt lat="49.3429" lon="-0.75565">
        <ele>16.2</ele>
        <time>2021-08-18T09:01:12Z</time>
      </trkpt>
      <trkpt lat="49.34282" lon="-0.75567">
        <ele>16.1</ele>
        <time>2021-08-18T09:01:13Z</time>
      </trkpt>
      <trkpt lat="49.34267" lon="-0.75571">
        <ele>15.9</ele>
        <time>2021-08-18T09:01:15Z</time>
      </trkpt>
      <trkpt lat="49.34259" lon="-0.75574">
        <ele>15.9</ele>
        <time>2021-08-18T09:01:16Z</time>
      </trkpt>
      <trkpt lat="49.34244" lon="-0.75579">
        <ele>15.7</ele>
        <time>2021-08-18T09:01:18Z</time>
      </trkpt>
      <trkpt lat="49.34236" lon="-0.7558">
        <ele>15.7</ele>
        <time>2021-08-18T09:01:19Z</time>
      </trkpt>
      <trkpt lat="49.3422" lon="-0.75582">
        <ele>15.5</ele>
        <time>2021-08-18T09:01:21Z</time>
      </trkpt>
      <trkpt lat="49.34212" lon="-0.75583">
        <ele>15.4</ele>
        <time>2021-08-18T09:01:22Z</time>
      </trkpt>
      <trkpt lat="49.34204" lon="-0.75583">
        <ele>15.2</ele>
        <time>2021-08-18T09:01:23Z</time>
      </trkpt>
      <trkpt lat="49.34197" lon="-0.75584">
        <ele>15.1</ele>
        <time>2021-08-18T09:01:24Z</time>
      </trkpt>
      <trkpt lat="49.34182" lon="-0.75586">
        <ele>14.8</ele>
        <time>2021-08-18T09:01:26Z</time>
      </trkpt>
      <trkpt lat="49.34166" lon="-0.75589">
        <ele>14.5</ele>
        <time>2021-08-18T09:01:28Z</time>
      </trkpt>
      <trkpt lat="49.3415" lon="-0.75593">
        <ele>14.3</ele>
        <time>2021-08-18T09:01:30Z</time>
      </trkpt>
      <trkpt lat="49.34134" lon="-0.75596">
        <ele>14</ele>
        <time>2021-08-18T09:01:32Z</time>
      </trkpt>
      <trkpt lat="49.34117" lon="-0.75598">
        <ele>13.6</ele>
        <time>2021-08-18T09:01:34Z</time>
      </trkpt>
      <trkpt lat="49.34101" lon="-0.75601">
        <ele>13.3</ele>
        <time>2021-08-18T09:01:36Z</time>
      </trkpt>
      <trkpt lat="49.34092" lon="-0.75602">
        <ele>13.2</ele>
        <time>2021-08-18T09:01:37Z</time>
      </trkpt>
      <trkpt lat="49.34075" lon="-0.75604">
        <ele>12.9</ele>
        <time>2021-08-18T09:01:39Z</time>
      </trkpt>
      <trkpt lat="49.34057" lon="-0.75606">
        <ele>12.6</ele>
        <time>2021-08-18T09:01:41Z</time>
      </trkpt>
      <trkpt lat="49.34039" lon="-0.75608">
        <ele>12.3</ele>
        <time>2021-08-18T09:01:43Z</time>
      </trkpt>
      <trkpt lat="49.34021" lon="-0.7561">
        <ele>12</ele>
        <time>2021-08-18T09:01:45Z</time>
      </trkpt>
      <trkpt lat="49.34012" lon="-0.75611">
        <ele>11.9</ele>
        <time>2021-08-18T09:01:46Z</time>
      </trkpt>
      <trkpt lat="49.33996" lon="-0.75614">
        <ele>11.5</ele>
        <time>2021-08-18T09:01:48Z</time>
      </trkpt>
      <trkpt lat="49.33979" lon="-0.75614">
        <ele>11.1</ele>
        <time>2021-08-18T09:01:50Z</time>
      </trkpt>
      <trkpt lat="49.3397" lon="-0.75614">
        <ele>10.9</ele>
        <time>2021-08-18T09:01:51Z</time>
      </trkpt>
      <trkpt lat="49.33953" lon="-0.75616">
        <ele>10.6</ele>
        <time>2021-08-18T09:01:53Z</time>
      </trkpt>
      <trkpt lat="49.33936" lon="-0.75619">
        <ele>10.5</ele>
        <time>2021-08-18T09:01:55Z</time>
      </trkpt>
      <trkpt lat="49.33927" lon="-0.7562">
        <ele>10.4</ele>
        <time>2021-08-18T09:01:56Z</time>
      </trkpt>
      <trkpt lat="49.33911" lon="-0.75623">
        <ele>10.4</ele>
        <time>2021-08-18T09:01:58Z</time>
      </trkpt>
      <trkpt lat="49.33895" lon="-0.75627">
        <ele>10.6</ele>
        <time>2021-08-18T09:02:00Z</time>
      </trkpt>
      <trkpt lat="49.33887" lon="-0.7563">
        <ele>10.7</ele>
        <time>2021-08-18T09:02:01Z</time>
      </trkpt>
      <trkpt lat="49.33875" lon="-0.75643">
        <ele>10.9</ele>
        <time>2021-08-18T09:02:03Z</time>
      </trkpt>
      <trkpt lat="49.33862" lon="-0.7565">
        <ele>10.9</ele>
        <time>2021-08-18T09:02:05Z</time>
      </trkpt>
      <trkpt lat="49.33855" lon="-0.75647">
        <ele>11</ele>
        <time>2021-08-18T09:02:06Z</time>
      </trkpt>
      <trkpt lat="49.33848" lon="-0.75644">
        <ele>11</ele>
        <time>2021-08-18T09:02:07Z</time>
      </trkpt>
      <trkpt lat="49.33833" lon="-0.75645">
        <ele>10.9</ele>
        <time>2021-08-18T09:02:09Z</time>
      </trkpt>
      <trkpt lat="49.33825" lon="-0.75648">
        <ele>10.9</ele>
        <time>2021-08-18T09:02:10Z</time>
      </trkpt>
      <trkpt lat="49.33817" lon="-0.7565">
        <ele>10.9</ele>
        <time>2021-08-18T09:02:11Z</time>
      </trkpt>
      <trkpt lat="49.33802" lon="-0.75653">
        <ele>11</ele>
        <time>2021-08-18T09:02:13Z</time>
      </trkpt>
      <trkpt lat="49.33786" lon="-0.75655">
        <ele>11.1</ele>
        <time>2021-08-18T09:02:15Z</time>
      </trkpt>
      <trkpt lat="49.33769" lon="-0.75657">
        <ele>11.4</ele>
        <time>2021-08-18T09:02:17Z</time>
      </trkpt>
      <trkpt lat="49.33752" lon="-0.7566">
        <ele>11.6</ele>
        <time>2021-08-18T09:02:19Z</time>
      </trkpt>
      <trkpt lat="49.33744" lon="-0.75662">
        <ele>11.8</ele>
        <time>2021-08-18T09:02:20Z</time>
      </trkpt>
      <trkpt lat="49.33736" lon="-0.75664">
        <ele>11.9</ele>
        <time>2021-08-18T09:02:21Z</time>
      </trkpt>
      <trkpt lat="49.33728" lon="-0.75666">
        <ele>12.1</ele>
        <time>2021-08-18T09:02:22Z</time>
      </trkpt>
      <trkpt lat="49.3372" lon="-0.75668">
        <ele>12.2</ele>
        <time>2021-08-18T09:02:23Z</time>
      </trkpt>
      <trkpt lat="49.33704" lon="-0.75672">
        <ele>12.4</ele>
        <time>2021-08-18T09:02:25Z</time>
      </trkpt>
      <trkpt lat="49.33688" lon="-0.75675">
        <ele>12.7</ele>
        <time>2021-08-18T09:02:27Z</time>
      </trkpt>
      <trkpt lat="49.33681" lon="-0.75676">
        <ele>12.8</ele>
        <time>2021-08-18T09:02:28Z</time>
      </trkpt>
      <trkpt lat="49.33673" lon="-0.75678">
        <ele>12.9</ele>
        <time>2021-08-18T09:02:29Z</time>
      </trkpt>
      <trkpt lat="49.33665" lon="-0.75679">
        <ele>13.1</ele>
        <time>2021-08-18T09:02:30Z</time>
      </trkpt>
      <trkpt lat="49.3365" lon="-0.75681">
        <ele>13.3</ele>
        <time>2021-08-18T09:02:32Z</time>
      </trkpt>
      <trkpt lat="49.33634" lon="-0.7568">
        <ele>13.5</ele>
        <time>2021-08-18T09:02:34Z</time>
      </trkpt>
      <trkpt lat="49.3362" lon="-0.75681">
        <ele>13.7</ele>
        <time>2021-08-18T09:02:36Z</time>
      </trkpt>
      <trkpt lat="49.33605" lon="-0.75683">
        <ele>14</ele>
        <time>2021-08-18T09:02:38Z</time>
      </trkpt>
      <trkpt lat="49.33598" lon="-0.75684">
        <ele>14.1</ele>
        <time>2021-08-18T09:02:39Z</time>
      </trkpt>
      <trkpt lat="49.33585" lon="-0.75685">
        <ele>14.3</ele>
        <time>2021-08-18T09:02:41Z</time>
      </trkpt>
      <trkpt lat="49.33578" lon="-0.75686">
        <ele>14.4</ele>
        <time>2021-08-18T09:02:42Z</time>
      </trkpt>
      <trkpt lat="49.33565" lon="-0.75689">
        <ele>14.6</ele>
        <time>2021-08-18T09:02:44Z</time>
      </trkpt>
      <trkpt lat="49.33558" lon="-0.7569">
        <ele>14.8</ele>
        <time>2021-08-18T09:02:45Z</time>
      </trkpt>
      <trkpt lat="49.33552" lon="-0.75692">
        <ele>14.9</ele>
        <time>2021-08-18T09:02:46Z</time>
      </trkpt>
      <trkpt lat="49.33539" lon="-0.75694">
        <ele>15.1</ele>
        <time>2021-08-18T09:02:48Z</time>
      </trkpt>
      <trkpt lat="49.33527" lon="-0.75696">
        <ele>15.3</ele>
        <time>2021-08-18T09:02:50Z</time>
      </trkpt>
      <trkpt lat="49.33521" lon="-0.75698">
        <ele>15.4</ele>
        <time>2021-08-18T09:02:51Z</time>
      </trkpt>
      <trkpt lat="49.33516" lon="-0.75699">
        <ele>15.5</ele>
        <time>2021-08-18T09:02:52Z</time>
      </trkpt>
      <trkpt lat="49.3351" lon="-0.75701">
        <ele>15.6</ele>
        <time>2021-08-18T09:02:53Z</time>
      </trkpt>
      <trkpt lat="49.33498" lon="-0.75702">
        <ele>15.7</ele>
        <time>2021-08-18T09:02:55Z</time>
      </trkpt>
      <trkpt lat="49.33486" lon="-0.75702">
        <ele>15.9</ele>
        <time>2021-08-18T09:02:57Z</time>
      </trkpt>
      <trkpt lat="49.33474" lon="-0.75704">
        <ele>16.1</ele>
        <time>2021-08-18T09:02:59Z</time>
      </trkpt>
      <trkpt lat="49.33467" lon="-0.75705">
        <ele>16.2</ele>
        <time>2021-08-18T09:03:00Z</time>
      </trkpt>
      <trkpt lat="49.33461" lon="-0.75707">
        <ele>16.3</ele>
        <time>2021-08-18T09:03:01Z</time>
      </trkpt>
      <trkpt lat="49.33454" lon="-0.75708">
        <ele>16.4</ele>
        <time>2021-08-18T09:03:02Z</time>
      </trkpt>
      <trkpt lat="49.33442" lon="-0.75712">
        <ele>16.6</ele>
        <time>2021-08-18T09:03:04Z</time>
      </trkpt>
      <trkpt lat="49.33429" lon="-0.75714">
        <ele>16.8</ele>
        <time>2021-08-18T09:03:06Z</time>
      </trkpt>
      <trkpt lat="49.33417" lon="-0.75717">
        <ele>17.1</ele>
        <time>2021-08-18T09:03:08Z</time>
      </trkpt>
      <trkpt lat="49.33404" lon="-0.75718">
        <ele>17.4</ele>
        <time>2021-08-18T09:03:10Z</time>
      </trkpt>
      <trkpt lat="49.33391" lon="-0.7572">
        <ele>17.6</ele>
        <time>2021-08-18T09:03:12Z</time>
      </trkpt>
      <trkpt lat="49.33377" lon="-0.7572">
        <ele>17.8</ele>
        <time>2021-08-18T09:03:14Z</time>
      </trkpt>
      <trkpt lat="49.33371" lon="-0.75721">
        <ele>17.9</ele>
        <time>2021-08-18T09:03:15Z</time>
      </trkpt>
      <trkpt lat="49.33358" lon="-0.75724">
        <ele>18.1</ele>
        <time>2021-08-18T09:03:17Z</time>
      </trkpt>
      <trkpt lat="49.33351" lon="-0.75725">
        <ele>18.3</ele>
        <time>2021-08-18T09:03:18Z</time>
      </trkpt>
      <trkpt lat="49.33337" lon="-0.75728">
        <ele>18.5</ele>
        <time>2021-08-18T09:03:20Z</time>
      </trkpt>
      <trkpt lat="49.3333" lon="-0.75729">
        <ele>18.6</ele>
        <time>2021-08-18T09:03:21Z</time>
      </trkpt>
      <trkpt lat="49.33324" lon="-0.75731">
        <ele>18.8</ele>
        <time>2021-08-18T09:03:22Z</time>
      </trkpt>
      <trkpt lat="49.33317" lon="-0.75732">
        <ele>18.9</ele>
        <time>2021-08-18T09:03:23Z</time>
      </trkpt>
      <trkpt lat="49.33303" lon="-0.75735">
        <ele>19.1</ele>
        <time>2021-08-18T09:03:25Z</time>
      </trkpt>
      <trkpt lat="49.33289" lon="-0.75737">
        <ele>19.3</ele>
        <time>2021-08-18T09:03:27Z</time>
      </trkpt>
      <trkpt lat="49.33283" lon="-0.75737">
        <ele>19.3</ele>
        <time>2021-08-18T09:03:28Z</time>
      </trkpt>
      <trkpt lat="49.33269" lon="-0.75737">
        <ele>19.5</ele>
        <time>2021-08-18T09:03:30Z</time>
      </trkpt>
      <trkpt lat="49.33255" lon="-0.75735">
        <ele>19.7</ele>
        <time>2021-08-18T09:03:32Z</time>
      </trkpt>
      <trkpt lat="49.33248" lon="-0.75733">
        <ele>19.8</ele>
        <time>2021-08-18T09:03:33Z</time>
      </trkpt>
      <trkpt lat="49.33241" lon="-0.75733">
        <ele>20</ele>
        <time>2021-08-18T09:03:34Z</time>
      </trkpt>
      <trkpt lat="49.33226" lon="-0.75736">
        <ele>20.2</ele>
        <time>2021-08-18T09:03:36Z</time>
      </trkpt>
      <trkpt lat="49.33219" lon="-0.75739">
        <ele>20.4</ele>
        <time>2021-08-18T09:03:37Z</time>
      </trkpt>
      <trkpt lat="49.33212" lon="-0.75742">
        <ele>20.5</ele>
        <time>2021-08-18T09:03:38Z</time>
      </trkpt>
      <trkpt lat="49.33199" lon="-0.75747">
        <ele>20.8</ele>
        <time>2021-08-18T09:03:40Z</time>
      </trkpt>
      <trkpt lat="49.33185" lon="-0.75753">
        <ele>21.1</ele>
        <time>2021-08-18T09:03:42Z</time>
      </trkpt>
      <trkpt lat="49.33179" lon="-0.75756">
        <ele>21.2</ele>
        <time>2021-08-18T09:03:43Z</time>
      </trkpt>
      <trkpt lat="49.33165" lon="-0.7576">
        <ele>21.5</ele>
        <time>2021-08-18T09:03:45Z</time>
      </trkpt>
      <trkpt lat="49.33152" lon="-0.75763">
        <ele>21.8</ele>
        <time>2021-08-18T09:03:47Z</time>
      </trkpt>
      <trkpt lat="49.33139" lon="-0.75766">
        <ele>22</ele>
        <time>2021-08-18T09:03:49Z</time>
      </trkpt>
      <trkpt lat="49.33132" lon="-0.75768">
        <ele>22.1</ele>
        <time>2021-08-18T09:03:50Z</time>
      </trkpt>
      <trkpt lat="49.33119" lon="-0.75772">
        <ele>22.3</ele>
        <time>2021-08-18T09:03:52Z</time>
      </trkpt>
      <trkpt lat="49.33112" lon="-0.75774">
        <ele>22.4</ele>
        <time>2021-08-18T09:03:53Z</time>
      </trkpt>
      <trkpt lat="49.33099" lon="-0.75776">
        <ele>22.6</ele>
        <time>2021-08-18T09:03:55Z</time>
      </trkpt>
      <trkpt lat="49.33092" lon="-0.75777">
        <ele>22.7</ele>
        <time>2021-08-18T09:03:56Z</time>
      </trkpt>
      <trkpt lat="49.33085" lon="-0.75779">
        <ele>22.8</ele>
        <time>2021-08-18T09:03:57Z</time>
      </trkpt>
      <trkpt lat="49.33072" lon="-0.75782">
        <ele>23</ele>
        <time>2021-08-18T09:03:59Z</time>
      </trkpt>
      <trkpt lat="49.33065" lon="-0.75783">
        <ele>23.1</ele>
        <time>2021-08-18T09:04:00Z</time>
      </trkpt>
      <trkpt lat="49.33052" lon="-0.75785">
        <ele>23.3</ele>
        <time>2021-08-18T09:04:02Z</time>
      </trkpt>
      <trkpt lat="49.33045" lon="-0.75786">
        <ele>23.5</ele>
        <time>2021-08-18T09:04:03Z</time>
      </trkpt>
      <trkpt lat="49.33038" lon="-0.75786">
        <ele>23.6</ele>
        <time>2021-08-18T09:04:04Z</time>
      </trkpt>
      <trkpt lat="49.33024" lon="-0.75786">
        <ele>23.8</ele>
        <time>2021-08-18T09:04:06Z</time>
      </trkpt>
      <trkpt lat="49.33017" lon="-0.75786">
        <ele>23.9</ele>
        <time>2021-08-18T09:04:07Z</time>
      </trkpt>
      <trkpt lat="49.3301" lon="-0.75786">
        <ele>24</ele>
        <time>2021-08-18T09:04:08Z</time>
      </trkpt>
      <trkpt lat="49.32996" lon="-0.75787">
        <ele>24.2</ele>
        <time>2021-08-18T09:04:10Z</time>
      </trkpt>
      <trkpt lat="49.32983" lon="-0.7579">
        <ele>24.5</ele>
        <time>2021-08-18T09:04:12Z</time>
      </trkpt>
      <trkpt lat="49.32976" lon="-0.75791">
        <ele>24.6</ele>
        <time>2021-08-18T09:04:13Z</time>
      </trkpt>
      <trkpt lat="49.3297" lon="-0.75792">
        <ele>24.8</ele>
        <time>2021-08-18T09:04:14Z</time>
      </trkpt>
      <trkpt lat="49.32957" lon="-0.75795">
        <ele>25</ele>
        <time>2021-08-18T09:04:16Z</time>
      </trkpt>
      <trkpt lat="49.32949" lon="-0.75796">
        <ele>25.2</ele>
        <time>2021-08-18T09:04:17Z</time>
      </trkpt>
      <trkpt lat="49.32943" lon="-0.75797">
        <ele>25.3</ele>
        <time>2021-08-18T09:04:18Z</time>
      </trkpt>
      <trkpt lat="49.32929" lon="-0.75799">
        <ele>25.6</ele>
        <time>2021-08-18T09:04:20Z</time>
      </trkpt>
      <trkpt lat="49.32916" lon="-0.75801">
        <ele>25.8</ele>
        <time>2021-08-18T09:04:22Z</time>
      </trkpt>
      <trkpt lat="49.32902" lon="-0.75804">
        <ele>26.1</ele>
        <time>2021-08-18T09:04:24Z</time>
      </trkpt>
      <trkpt lat="49.32888" lon="-0.75807">
        <ele>26.4</ele>
        <time>2021-08-18T09:04:26Z</time>
      </trkpt>
      <trkpt lat="49.32875" lon="-0.75809">
        <ele>26.7</ele>
        <time>2021-08-18T09:04:28Z</time>
      </trkpt>
      <trkpt lat="49.32862" lon="-0.75808">
        <ele>27</ele>
        <time>2021-08-18T09:04:30Z</time>
      </trkpt>
      <trkpt lat="49.32849" lon="-0.75807">
        <ele>27.1</ele>
        <time>2021-08-18T09:04:32Z</time>
      </trkpt>
      <trkpt lat="49.32843" lon="-0.75805">
        <ele>27.2</ele>
        <time>2021-08-18T09:04:33Z</time>
      </trkpt>
      <trkpt lat="49.3283" lon="-0.75801">
        <ele>27.5</ele>
        <time>2021-08-18T09:04:35Z</time>
      </trkpt>
      <trkpt lat="49.32817" lon="-0.75796">
        <ele>27.8</ele>
        <time>2021-08-18T09:04:37Z</time>
      </trkpt>
      <trkpt lat="49.32804" lon="-0.75791">
        <ele>28</ele>
        <time>2021-08-18T09:04:39Z</time>
      </trkpt>
      <trkpt lat="49.32798" lon="-0.75788">
        <ele>28.1</ele>
        <time>2021-08-18T09:04:40Z</time>
      </trkpt>
      <trkpt lat="49.32786" lon="-0.75779">
        <ele>28.4</ele>
        <time>2021-08-18T09:04:42Z</time>
      </trkpt>
      <trkpt lat="49.32775" lon="-0.75768">
        <ele>28.6</ele>
        <time>2021-08-18T09:04:44Z</time>
      </trkpt>
      <trkpt lat="49.32769" lon="-0.75762">
        <ele>28.7</ele>
        <time>2021-08-18T09:04:45Z</time>
      </trkpt>
      <trkpt lat="49.32764" lon="-0.75756">
        <ele>28.8</ele>
        <time>2021-08-18T09:04:46Z</time>
      </trkpt>
      <trkpt lat="49.32753" lon="-0.75743">
        <ele>29.1</ele>
        <time>2021-08-18T09:04:48Z</time>
      </trkpt>
      <trkpt lat="49.32748" lon="-0.75736">
        <ele>29.2</ele>
        <time>2021-08-18T09:04:49Z</time>
      </trkpt>
      <trkpt lat="49.32737" lon="-0.75722">
        <ele>29.4</ele>
        <time>2021-08-18T09:04:51Z</time>
      </trkpt>
      <trkpt lat="49.32726" lon="-0.75709">
        <ele>29.6</ele>
        <time>2021-08-18T09:04:53Z</time>
      </trkpt>
      <trkpt lat="49.32721" lon="-0.75702">
        <ele>29.6</ele>
        <time>2021-08-18T09:04:54Z</time>
      </trkpt>
      <trkpt lat="49.3271" lon="-0.7569">
        <ele>29.7</ele>
        <time>2021-08-18T09:04:56Z</time>
      </trkpt>
      <trkpt lat="49.32704" lon="-0.75683">
        <ele>29.8</ele>
        <time>2021-08-18T09:04:57Z</time>
      </trkpt>
      <trkpt lat="49.32692" lon="-0.75671">
        <ele>29.9</ele>
        <time>2021-08-18T09:04:59Z</time>
      </trkpt>
      <trkpt lat="49.32682" lon="-0.75659">
        <ele>30</ele>
        <time>2021-08-18T09:05:01Z</time>
      </trkpt>
      <trkpt lat="49.32676" lon="-0.75653">
        <ele>30</ele>
        <time>2021-08-18T09:05:02Z</time>
      </trkpt>
      <trkpt lat="49.3267" lon="-0.75646">
        <ele>30</ele>
        <time>2021-08-18T09:05:03Z</time>
      </trkpt>
      <trkpt lat="49.32664" lon="-0.75639">
        <ele>30.1</ele>
        <time>2021-08-18T09:05:04Z</time>
      </trkpt>
      <trkpt lat="49.32652" lon="-0.75624">
        <ele>30</ele>
        <time>2021-08-18T09:05:06Z</time>
      </trkpt>
      <trkpt lat="49.3264" lon="-0.75608">
        <ele>29.9</ele>
        <time>2021-08-18T09:05:08Z</time>
      </trkpt>
      <trkpt lat="49.32628" lon="-0.75591">
        <ele>29.7</ele>
        <time>2021-08-18T09:05:10Z</time>
      </trkpt>
      <trkpt lat="49.32615" lon="-0.75575">
        <ele>29.4</ele>
        <time>2021-08-18T09:05:12Z</time>
      </trkpt>
      <trkpt lat="49.32603" lon="-0.75558">
        <ele>29.1</ele>
        <time>2021-08-18T09:05:14Z</time>
      </trkpt>
      <trkpt lat="49.3259" lon="-0.7554">
        <ele>28.8</ele>
        <time>2021-08-18T09:05:16Z</time>
      </trkpt>
      <trkpt lat="49.32584" lon="-0.75532">
        <ele>28.6</ele>
        <time>2021-08-18T09:05:17Z</time>
      </trkpt>
      <trkpt lat="49.32571" lon="-0.75514">
        <ele>28.3</ele>
        <time>2021-08-18T09:05:19Z</time>
      </trkpt>
      <trkpt lat="49.32557" lon="-0.75497">
        <ele>27.9</ele>
        <time>2021-08-18T09:05:21Z</time>
      </trkpt>
      <trkpt lat="49.32543" lon="-0.7548">
        <ele>27.6</ele>
        <time>2021-08-18T09:05:23Z</time>
      </trkpt>
      <trkpt lat="49.32529" lon="-0.75461">
        <ele>27.3</ele>
        <time>2021-08-18T09:05:25Z</time>
      </trkpt>
      <trkpt lat="49.32523" lon="-0.75452">
        <ele>27.2</ele>
        <time>2021-08-18T09:05:26Z</time>
      </trkpt>
      <trkpt lat="49.32509" lon="-0.75435">
        <ele>26.8</ele>
        <time>2021-08-18T09:05:28Z</time>
      </trkpt>
      <trkpt lat="49.32502" lon="-0.75426">
        <ele>26.6</ele>
        <time>2021-08-18T09:05:29Z</time>
      </trkpt>
      <trkpt lat="49.3249" lon="-0.75408">
        <ele>26.2</ele>
        <time>2021-08-18T09:05:31Z</time>
      </trkpt>
      <trkpt lat="49.32483" lon="-0.75399">
        <ele>26</ele>
        <time>2021-08-18T09:05:32Z</time>
      </trkpt>
      <trkpt lat="49.32476" lon="-0.75391">
        <ele>25.9</ele>
        <time>2021-08-18T09:05:33Z</time>
      </trkpt>
      <trkpt lat="49.32469" lon="-0.75382">
        <ele>25.7</ele>
        <time>2021-08-18T09:05:34Z</time>
      </trkpt>
      <trkpt lat="49.32458" lon="-0.75365">
        <ele>25.4</ele>
        <time>2021-08-18T09:05:36Z</time>
      </trkpt>
      <trkpt lat="49.32451" lon="-0.75357">
        <ele>25.2</ele>
        <time>2021-08-18T09:05:37Z</time>
      </trkpt>
      <trkpt lat="49.32438" lon="-0.7534">
        <ele>24.9</ele>
        <time>2021-08-18T09:05:39Z</time>
      </trkpt>
      <trkpt lat="49.32425" lon="-0.75322">
        <ele>24.5</ele>
        <time>2021-08-18T09:05:41Z</time>
      </trkpt>
      <trkpt lat="49.32418" lon="-0.75312">
        <ele>24.3</ele>
        <time>2021-08-18T09:05:42Z</time>
      </trkpt>
      <trkpt lat="49.32411" lon="-0.75303">
        <ele>24.1</ele>
        <time>2021-08-18T09:05:43Z</time>
      </trkpt>
      <trkpt lat="49.32398" lon="-0.75284">
        <ele>23.8</ele>
        <time>2021-08-18T09:05:45Z</time>
      </trkpt>
      <trkpt lat="49.32384" lon="-0.75266">
        <ele>23.4</ele>
        <time>2021-08-18T09:05:47Z</time>
      </trkpt>
      <trkpt lat="49.32376" lon="-0.75257">
        <ele>23.3</ele>
        <time>2021-08-18T09:05:48Z</time>
      </trkpt>
      <trkpt lat="49.32362" lon="-0.75238">
        <ele>22.9</ele>
        <time>2021-08-18T09:05:50Z</time>
      </trkpt>
      <trkpt lat="49.32347" lon="-0.75219">
        <ele>22.7</ele>
        <time>2021-08-18T09:05:52Z</time>
      </trkpt>
      <trkpt lat="49.3234" lon="-0.75209">
        <ele>22.6</ele>
        <time>2021-08-18T09:05:53Z</time>
      </trkpt>
      <trkpt lat="49.32326" lon="-0.75189">
        <ele>22.3</ele>
        <time>2021-08-18T09:05:55Z</time>
      </trkpt>
      <trkpt lat="49.32319" lon="-0.7518">
        <ele>22.1</ele>
        <time>2021-08-18T09:05:56Z</time>
      </trkpt>
      <trkpt lat="49.32312" lon="-0.7517">
        <ele>22</ele>
        <time>2021-08-18T09:05:57Z</time>
      </trkpt>
      <trkpt lat="49.32297" lon="-0.75152">
        <ele>21.8</ele>
        <time>2021-08-18T09:05:59Z</time>
      </trkpt>
      <trkpt lat="49.32281" lon="-0.75134">
        <ele>21.6</ele>
        <time>2021-08-18T09:06:01Z</time>
      </trkpt>
      <trkpt lat="49.32267" lon="-0.75115">
        <ele>21.5</ele>
        <time>2021-08-18T09:06:03Z</time>
      </trkpt>
      <trkpt lat="49.32259" lon="-0.75106">
        <ele>21.4</ele>
        <time>2021-08-18T09:06:04Z</time>
      </trkpt>
      <trkpt lat="49.32245" lon="-0.75087">
        <ele>21.3</ele>
        <time>2021-08-18T09:06:06Z</time>
      </trkpt>
      <trkpt lat="49.32238" lon="-0.75078">
        <ele>21.3</ele>
        <time>2021-08-18T09:06:07Z</time>
      </trkpt>
      <trkpt lat="49.32223" lon="-0.7506">
        <ele>21.2</ele>
        <time>2021-08-18T09:06:09Z</time>
      </trkpt>
      <trkpt lat="49.32216" lon="-0.75051">
        <ele>21.2</ele>
        <time>2021-08-18T09:06:10Z</time>
      </trkpt>
      <trkpt lat="49.32202" lon="-0.75033">
        <ele>21.1</ele>
        <time>2021-08-18T09:06:12Z</time>
      </trkpt>
      <trkpt lat="49.32195" lon="-0.75025">
        <ele>21.1</ele>
        <time>2021-08-18T09:06:13Z</time>
      </trkpt>
      <trkpt lat="49.32182" lon="-0.75008">
        <ele>21</ele>
        <time>2021-08-18T09:06:15Z</time>
      </trkpt>
      <trkpt lat="49.3217" lon="-0.74992">
        <ele>20.9</ele>
        <time>2021-08-18T09:06:17Z</time>
      </trkpt>
      <trkpt lat="49.32157" lon="-0.74976">
        <ele>20.9</ele>
        <time>2021-08-18T09:06:19Z</time>
      </trkpt>
      <trkpt lat="49.32144" lon="-0.74959">
        <ele>20.9</ele>
        <time>2021-08-18T09:06:21Z</time>
      </trkpt>
      <trkpt lat="49.32137" lon="-0.7495">
        <ele>20.9</ele>
        <time>2021-08-18T09:06:22Z</time>
      </trkpt>
      <trkpt lat="49.32123" lon="-0.74933">
        <ele>20.8</ele>
        <time>2021-08-18T09:06:24Z</time>
      </trkpt>
      <trkpt lat="49.32109" lon="-0.74916">
        <ele>20.7</ele>
        <time>2021-08-18T09:06:26Z</time>
      </trkpt>
      <trkpt lat="49.32095" lon="-0.74898">
        <ele>20.6</ele>
        <time>2021-08-18T09:06:28Z</time>
      </trkpt>
      <trkpt lat="49.32081" lon="-0.74881">
        <ele>20.5</ele>
        <time>2021-08-18T09:06:30Z</time>
      </trkpt>
      <trkpt lat="49.32068" lon="-0.74863">
        <ele>20.4</ele>
        <time>2021-08-18T09:06:32Z</time>
      </trkpt>
      <trkpt lat="49.3206" lon="-0.74855">
        <ele>20.4</ele>
        <time>2021-08-18T09:06:33Z</time>
      </trkpt>
      <trkpt lat="49.32052" lon="-0.74847">
        <ele>20.3</ele>
        <time>2021-08-18T09:06:34Z</time>
      </trkpt>
      <trkpt lat="49.32038" lon="-0.74831">
        <ele>20.2</ele>
        <time>2021-08-18T09:06:36Z</time>
      </trkpt>
      <trkpt lat="49.32031" lon="-0.74824">
        <ele>20.1</ele>
        <time>2021-08-18T09:06:37Z</time>
      </trkpt>
      <trkpt lat="49.32024" lon="-0.74817">
        <ele>20</ele>
        <time>2021-08-18T09:06:38Z</time>
      </trkpt>
      <trkpt lat="49.32017" lon="-0.74809">
        <ele>19.9</ele>
        <time>2021-08-18T09:06:39Z</time>
      </trkpt>
      <trkpt lat="49.32004" lon="-0.74791">
        <ele>19.7</ele>
        <time>2021-08-18T09:06:41Z</time>
      </trkpt>
      <trkpt lat="49.31998" lon="-0.74781">
        <ele>19.7</ele>
        <time>2021-08-18T09:06:42Z</time>
      </trkpt>
      <trkpt lat="49.31985" lon="-0.74763">
        <ele>19.5</ele>
        <time>2021-08-18T09:06:44Z</time>
      </trkpt>
      <trkpt lat="49.31979" lon="-0.74753">
        <ele>19.4</ele>
        <time>2021-08-18T09:06:45Z</time>
      </trkpt>
      <trkpt lat="49.31972" lon="-0.74743">
        <ele>19.4</ele>
        <time>2021-08-18T09:06:46Z</time>
      </trkpt>
      <trkpt lat="49.31958" lon="-0.74726">
        <ele>19.3</ele>
        <time>2021-08-18T09:06:48Z</time>
      </trkpt>
      <trkpt lat="49.31944" lon="-0.74709">
        <ele>19.3</ele>
        <time>2021-08-18T09:06:50Z</time>
      </trkpt>
      <trkpt lat="49.31937" lon="-0.74701">
        <ele>19.3</ele>
        <time>2021-08-18T09:06:51Z</time>
      </trkpt>
      <trkpt lat="49.31925" lon="-0.74683">
        <ele>19.4</ele>
        <time>2021-08-18T09:06:53Z</time>
      </trkpt>
      <trkpt lat="49.31919" lon="-0.74674">
        <ele>19.4</ele>
        <time>2021-08-18T09:06:54Z</time>
      </trkpt>
      <trkpt lat="49.31907" lon="-0.74655">
        <ele>19.5</ele>
        <time>2021-08-18T09:06:56Z</time>
      </trkpt>
      <trkpt lat="49.31901" lon="-0.74646">
        <ele>19.5</ele>
        <time>2021-08-18T09:06:57Z</time>
      </trkpt>
      <trkpt lat="49.31895" lon="-0.74637">
        <ele>19.6</ele>
        <time>2021-08-18T09:06:58Z</time>
      </trkpt>
      <trkpt lat="49.31885" lon="-0.74621">
        <ele>19.7</ele>
        <time>2021-08-18T09:07:00Z</time>
      </trkpt>
      <trkpt lat="49.31879" lon="-0.74614">
        <ele>19.7</ele>
        <time>2021-08-18T09:07:01Z</time>
      </trkpt>
      <trkpt lat="49.31869" lon="-0.74601">
        <ele>19.8</ele>
        <time>2021-08-18T09:07:03Z</time>
      </trkpt>
      <trkpt lat="49.31859" lon="-0.74588">
        <ele>19.9</ele>
        <time>2021-08-18T09:07:05Z</time>
      </trkpt>
      <trkpt lat="49.31849" lon="-0.74578">
        <ele>20.1</ele>
        <time>2021-08-18T09:07:07Z</time>
      </trkpt>
      <trkpt lat="49.31839" lon="-0.7457">
        <ele>20.3</ele>
        <time>2021-08-18T09:07:09Z</time>
      </trkpt>
      <trkpt lat="49.3183" lon="-0.74561">
        <ele>20.5</ele>
        <time>2021-08-18T09:07:11Z</time>
      </trkpt>
      <trkpt lat="49.31821" lon="-0.74552">
        <ele>20.7</ele>
        <time>2021-08-18T09:07:13Z</time>
      </trkpt>
      <trkpt lat="49.31816" lon="-0.74548">
        <ele>20.7</ele>
        <time>2021-08-18T09:07:14Z</time>
      </trkpt>
      <trkpt lat="49.31808" lon="-0.74538">
        <ele>20.8</ele>
        <time>2021-08-18T09:07:16Z</time>
      </trkpt>
      <trkpt lat="49.31801" lon="-0.74528">
        <ele>20.9</ele>
        <time>2021-08-18T09:07:18Z</time>
      </trkpt>
      <trkpt lat="49.31792" lon="-0.74518">
        <ele>20.9</ele>
        <time>2021-08-18T09:07:20Z</time>
      </trkpt>
      <trkpt lat="49.31784" lon="-0.74505">
        <ele>21</ele>
        <time>2021-08-18T09:07:22Z</time>
      </trkpt>
      <trkpt lat="49.3178" lon="-0.74499">
        <ele>21.1</ele>
        <time>2021-08-18T09:07:23Z</time>
      </trkpt>
      <trkpt lat="49.31775" lon="-0.74492">
        <ele>21.2</ele>
        <time>2021-08-18T09:07:24Z</time>
      </trkpt>
      <trkpt lat="49.31765" lon="-0.74478">
        <ele>21.5</ele>
        <time>2021-08-18T09:07:26Z</time>
      </trkpt>
      <trkpt lat="49.31756" lon="-0.74463">
        <ele>21.7</ele>
        <time>2021-08-18T09:07:28Z</time>
      </trkpt>
      <trkpt lat="49.31747" lon="-0.74449">
        <ele>22</ele>
        <time>2021-08-18T09:07:30Z</time>
      </trkpt>
      <trkpt lat="49.31738" lon="-0.74435">
        <ele>22.3</ele>
        <time>2021-08-18T09:07:32Z</time>
      </trkpt>
      <trkpt lat="49.31728" lon="-0.74419">
        <ele>22.7</ele>
        <time>2021-08-18T09:07:34Z</time>
      </trkpt>
      <trkpt lat="49.31718" lon="-0.74405">
        <ele>23.1</ele>
        <time>2021-08-18T09:07:36Z</time>
      </trkpt>
      <trkpt lat="49.31706" lon="-0.74391">
        <ele>23.6</ele>
        <time>2021-08-18T09:07:38Z</time>
      </trkpt>
      <trkpt lat="49.31695" lon="-0.74378">
        <ele>24</ele>
        <time>2021-08-18T09:07:40Z</time>
      </trkpt>
      <trkpt lat="49.31684" lon="-0.74365">
        <ele>24.5</ele>
        <time>2021-08-18T09:07:42Z</time>
      </trkpt>
      <trkpt lat="49.31674" lon="-0.74351">
        <ele>25</ele>
        <time>2021-08-18T09:07:44Z</time>
      </trkpt>
      <trkpt lat="49.31668" lon="-0.74343">
        <ele>25.2</ele>
        <time>2021-08-18T09:07:45Z</time>
      </trkpt>
      <trkpt lat="49.31663" lon="-0.74336">
        <ele>25.4</ele>
        <time>2021-08-18T09:07:46Z</time>
      </trkpt>
      <trkpt lat="49.31653" lon="-0.74322">
        <ele>26</ele>
        <time>2021-08-18T09:07:48Z</time>
      </trkpt>
      <trkpt lat="49.31642" lon="-0.74308">
        <ele>26.5</ele>
        <time>2021-08-18T09:07:50Z</time>
      </trkpt>
      <trkpt lat="49.31637" lon="-0.74302">
        <ele>26.8</ele>
        <time>2021-08-18T09:07:51Z</time>
      </trkpt>
      <trkpt lat="49.31631" lon="-0.74295">
        <ele>27.1</ele>
        <time>2021-08-18T09:07:52Z</time>
      </trkpt>
      <trkpt lat="49.31626" lon="-0.7429">
        <ele>27.3</ele>
        <time>2021-08-18T09:07:53Z</time>
      </trkpt>
      <trkpt lat="49.31616" lon="-0.74278">
        <ele>27.8</ele>
        <time>2021-08-18T09:07:55Z</time>
      </trkpt>
      <trkpt lat="49.31611" lon="-0.74272">
        <ele>28</ele>
        <time>2021-08-18T09:07:56Z</time>
      </trkpt>
      <trkpt lat="49.31601" lon="-0.7426">
        <ele>28.5</ele>
        <time>2021-08-18T09:07:58Z</time>
      </trkpt>
      <trkpt lat="49.31596" lon="-0.74254">
        <ele>28.7</ele>
        <time>2021-08-18T09:07:59Z</time>
      </trkpt>
      <trkpt lat="49.31592" lon="-0.74249">
        <ele>28.9</ele>
        <time>2021-08-18T09:08:00Z</time>
      </trkpt>
      <trkpt lat="49.31587" lon="-0.74243">
        <ele>29.1</ele>
        <time>2021-08-18T09:08:01Z</time>
      </trkpt>
      <trkpt lat="49.31577" lon="-0.74234">
        <ele>29.4</ele>
        <time>2021-08-18T09:08:03Z</time>
      </trkpt>
      <trkpt lat="49.31566" lon="-0.74225">
        <ele>29.7</ele>
        <time>2021-08-18T09:08:05Z</time>
      </trkpt>
      <trkpt lat="49.3156" lon="-0.74221">
        <ele>29.8</ele>
        <time>2021-08-18T09:08:06Z</time>
      </trkpt>
      <trkpt lat="49.31549" lon="-0.74213">
        <ele>30.1</ele>
        <time>2021-08-18T09:08:08Z</time>
      </trkpt>
      <trkpt lat="49.31537" lon="-0.74205">
        <ele>30.2</ele>
        <time>2021-08-18T09:08:10Z</time>
      </trkpt>
      <trkpt lat="49.31525" lon="-0.74198">
        <ele>30.3</ele>
        <time>2021-08-18T09:08:12Z</time>
      </trkpt>
      <trkpt lat="49.31519" lon="-0.74195">
        <ele>30.3</ele>
        <time>2021-08-18T09:08:13Z</time>
      </trkpt>
      <trkpt lat="49.31506" lon="-0.7419">
        <ele>30.3</ele>
        <time>2021-08-18T09:08:15Z</time>
      </trkpt>
      <trkpt lat="49.31499" lon="-0.74187">
        <ele>30.3</ele>
        <time>2021-08-18T09:08:16Z</time>
      </trkpt>
      <trkpt lat="49.31487" lon="-0.74181">
        <ele>30.3</ele>
        <time>2021-08-18T09:08:18Z</time>
      </trkpt>
      <trkpt lat="49.31475" lon="-0.74177">
        <ele>30.3</ele>
        <time>2021-08-18T09:08:20Z</time>
      </trkpt>
      <trkpt lat="49.31463" lon="-0.74173">
        <ele>30.2</ele>
        <time>2021-08-18T09:08:22Z</time>
      </trkpt>
      <trkpt lat="49.31456" lon="-0.74172">
        <ele>30.2</ele>
        <time>2021-08-18T09:08:23Z</time>
      </trkpt>
      <trkpt lat="49.31449" lon="-0.7417">
        <ele>30.2</ele>
        <time>2021-08-18T09:08:24Z</time>
      </trkpt>
      <trkpt lat="49.31437" lon="-0.74164">
        <ele>30.1</ele>
        <time>2021-08-18T09:08:26Z</time>
      </trkpt>
      <trkpt lat="49.3143" lon="-0.7416">
        <ele>30.1</ele>
        <time>2021-08-18T09:08:27Z</time>
      </trkpt>
      <trkpt lat="49.31416" lon="-0.74155">
        <ele>30</ele>
        <time>2021-08-18T09:08:29Z</time>
      </trkpt>
      <trkpt lat="49.31409" lon="-0.74152">
        <ele>29.9</ele>
        <time>2021-08-18T09:08:30Z</time>
      </trkpt>
      <trkpt lat="49.31394" lon="-0.74147">
        <ele>29.9</ele>
        <time>2021-08-18T09:08:32Z</time>
      </trkpt>
      <trkpt lat="49.31387" lon="-0.74145">
        <ele>29.9</ele>
        <time>2021-08-18T09:08:33Z</time>
      </trkpt>
      <trkpt lat="49.31373" lon="-0.74139">
        <ele>29.9</ele>
        <time>2021-08-18T09:08:35Z</time>
      </trkpt>
      <trkpt lat="49.31366" lon="-0.74129">
        <ele>30</ele>
        <time>2021-08-18T09:08:37Z</time>
      </trkpt>
      <trkpt lat="49.31365" lon="-0.74112">
        <ele>30.6</ele>
        <time>2021-08-18T09:08:39Z</time>
      </trkpt>
      <trkpt lat="49.31369" lon="-0.74096">
        <ele>31.1</ele>
        <time>2021-08-18T09:08:41Z</time>
      </trkpt>
      <trkpt lat="49.3137" lon="-0.7409">
        <ele>31.3</ele>
        <time>2021-08-18T09:08:42Z</time>
      </trkpt>
      <trkpt lat="49.31375" lon="-0.74074">
        <ele>31.9</ele>
        <time>2021-08-18T09:08:44Z</time>
      </trkpt>
      <trkpt lat="49.3138" lon="-0.74058">
        <ele>32.7</ele>
        <time>2021-08-18T09:08:46Z</time>
      </trkpt>
      <trkpt lat="49.31382" lon="-0.74051">
        <ele>33.1</ele>
        <time>2021-08-18T09:08:47Z</time>
      </trkpt>
      <trkpt lat="49.31384" lon="-0.74043">
        <ele>33.6</ele>
        <time>2021-08-18T09:08:48Z</time>
      </trkpt>
      <trkpt lat="49.31388" lon="-0.74028">
        <ele>34.4</ele>
        <time>2021-08-18T09:08:50Z</time>
      </trkpt>
      <trkpt lat="49.31389" lon="-0.7402">
        <ele>34.8</ele>
        <time>2021-08-18T09:08:51Z</time>
      </trkpt>
      <trkpt lat="49.31391" lon="-0.74012">
        <ele>35</ele>
        <time>2021-08-18T09:08:52Z</time>
      </trkpt>
      <trkpt lat="49.31393" lon="-0.73996">
        <ele>35.4</ele>
        <time>2021-08-18T09:08:54Z</time>
      </trkpt>
      <trkpt lat="49.31395" lon="-0.7398">
        <ele>35.7</ele>
        <time>2021-08-18T09:08:56Z</time>
      </trkpt>
      <trkpt lat="49.31396" lon="-0.73971">
        <ele>35.9</ele>
        <time>2021-08-18T09:08:57Z</time>
      </trkpt>
      <trkpt lat="49.31399" lon="-0.73955">
        <ele>36.3</ele>
        <time>2021-08-18T09:08:59Z</time>
      </trkpt>
      <trkpt lat="49.314" lon="-0.73946">
        <ele>36.4</ele>
        <time>2021-08-18T09:09:00Z</time>
      </trkpt>
      <trkpt lat="49.31403" lon="-0.73928">
        <ele>36.7</ele>
        <time>2021-08-18T09:09:02Z</time>
      </trkpt>
      <trkpt lat="49.31405" lon="-0.73919">
        <ele>36.9</ele>
        <time>2021-08-18T09:09:03Z</time>
      </trkpt>
      <trkpt lat="49.31407" lon="-0.7391">
        <ele>37</ele>
        <time>2021-08-18T09:09:04Z</time>
      </trkpt>
      <trkpt lat="49.31409" lon="-0.739">
        <ele>37.1</ele>
        <time>2021-08-18T09:09:05Z</time>
      </trkpt>
      <trkpt lat="49.31412" lon="-0.73883">
        <ele>37.3</ele>
        <time>2021-08-18T09:09:07Z</time>
      </trkpt>
      <trkpt lat="49.31413" lon="-0.73874">
        <ele>37.4</ele>
        <time>2021-08-18T09:09:08Z</time>
      </trkpt>
      <trkpt lat="49.31416" lon="-0.73857">
        <ele>37.5</ele>
        <time>2021-08-18T09:09:10Z</time>
      </trkpt>
      <trkpt lat="49.31418" lon="-0.73849">
        <ele>37.6</ele>
        <time>2021-08-18T09:09:11Z</time>
      </trkpt>
      <trkpt lat="49.3142" lon="-0.73832">
        <ele>37.7</ele>
        <time>2021-08-18T09:09:13Z</time>
      </trkpt>
      <trkpt lat="49.31421" lon="-0.73823">
        <ele>37.7</ele>
        <time>2021-08-18T09:09:14Z</time>
      </trkpt>
      <trkpt lat="49.31424" lon="-0.73805">
        <ele>37.8</ele>
        <time>2021-08-18T09:09:16Z</time>
      </trkpt>
      <trkpt lat="49.31426" lon="-0.73795">
        <ele>37.8</ele>
        <time>2021-08-18T09:09:17Z</time>
      </trkpt>
      <trkpt lat="49.31428" lon="-0.73786">
        <ele>37.9</ele>
        <time>2021-08-18T09:09:18Z</time>
      </trkpt>
      <trkpt lat="49.3143" lon="-0.73778">
        <ele>37.9</ele>
        <time>2021-08-18T09:09:19Z</time>
      </trkpt>
      <trkpt lat="49.31435" lon="-0.7376">
        <ele>38</ele>
        <time>2021-08-18T09:09:21Z</time>
      </trkpt>
      <trkpt lat="49.31437" lon="-0.73743">
        <ele>38</ele>
        <time>2021-08-18T09:09:23Z</time>
      </trkpt>
      <trkpt lat="49.31441" lon="-0.73726">
        <ele>38.1</ele>
        <time>2021-08-18T09:09:25Z</time>
      </trkpt>
      <trkpt lat="49.31443" lon="-0.73717">
        <ele>38.1</ele>
        <time>2021-08-18T09:09:26Z</time>
      </trkpt>
      <trkpt lat="49.31447" lon="-0.737">
        <ele>38.1</ele>
        <time>2021-08-18T09:09:28Z</time>
      </trkpt>
      <trkpt lat="49.31451" lon="-0.73682">
        <ele>38.1</ele>
        <time>2021-08-18T09:09:30Z</time>
      </trkpt>
      <trkpt lat="49.31455" lon="-0.73664">
        <ele>38</ele>
        <time>2021-08-18T09:09:32Z</time>
      </trkpt>
      <trkpt lat="49.31455" lon="-0.73654">
        <ele>38</ele>
        <time>2021-08-18T09:09:33Z</time>
      </trkpt>
      <trkpt lat="49.31454" lon="-0.73644">
        <ele>38</ele>
        <time>2021-08-18T09:09:34Z</time>
      </trkpt>
      <trkpt lat="49.31453" lon="-0.73624">
        <ele>38</ele>
        <time>2021-08-18T09:09:36Z</time>
      </trkpt>
      <trkpt lat="49.31451" lon="-0.73603">
        <ele>38.1</ele>
        <time>2021-08-18T09:09:38Z</time>
      </trkpt>
      <trkpt lat="49.31451" lon="-0.73593">
        <ele>38.1</ele>
        <time>2021-08-18T09:09:39Z</time>
      </trkpt>
      <trkpt lat="49.31452" lon="-0.73571">
        <ele>38.2</ele>
        <time>2021-08-18T09:09:41Z</time>
      </trkpt>
      <trkpt lat="49.31453" lon="-0.7356">
        <ele>38.2</ele>
        <time>2021-08-18T09:09:42Z</time>
      </trkpt>
      <trkpt lat="49.31453" lon="-0.73548">
        <ele>38.3</ele>
        <time>2021-08-18T09:09:43Z</time>
      </trkpt>
      <trkpt lat="49.3145" lon="-0.73526">
        <ele>38.4</ele>
        <time>2021-08-18T09:09:45Z</time>
      </trkpt>
      <trkpt lat="49.31448" lon="-0.73515">
        <ele>38.5</ele>
        <time>2021-08-18T09:09:46Z</time>
      </trkpt>
      <trkpt lat="49.31446" lon="-0.73504">
        <ele>38.5</ele>
        <time>2021-08-18T09:09:47Z</time>
      </trkpt>
      <trkpt lat="49.31442" lon="-0.73484">
        <ele>38.7</ele>
        <time>2021-08-18T09:09:49Z</time>
      </trkpt>
      <trkpt lat="49.3144" lon="-0.73473">
        <ele>38.8</ele>
        <time>2021-08-18T09:09:50Z</time>
      </trkpt>
      <trkpt lat="49.31437" lon="-0.73463">
        <ele>38.9</ele>
        <time>2021-08-18T09:09:51Z</time>
      </trkpt>
      <trkpt lat="49.31433" lon="-0.73442">
        <ele>39.1</ele>
        <time>2021-08-18T09:09:53Z</time>
      </trkpt>
      <trkpt lat="49.3143" lon="-0.73422">
        <ele>39.2</ele>
        <time>2021-08-18T09:09:55Z</time>
      </trkpt>
      <trkpt lat="49.31428" lon="-0.73411">
        <ele>39.3</ele>
        <time>2021-08-18T09:09:56Z</time>
      </trkpt>
      <trkpt lat="49.31425" lon="-0.7339">
        <ele>39.4</ele>
        <time>2021-08-18T09:09:58Z</time>
      </trkpt>
      <trkpt lat="49.31422" lon="-0.73369">
        <ele>39.5</ele>
        <time>2021-08-18T09:10:00Z</time>
      </trkpt>
      <trkpt lat="49.3142" lon="-0.73358">
        <ele>39.5</ele>
        <time>2021-08-18T09:10:01Z</time>
      </trkpt>
      <trkpt lat="49.31418" lon="-0.73336">
        <ele>39.6</ele>
        <time>2021-08-18T09:10:03Z</time>
      </trkpt>
      <trkpt lat="49.31416" lon="-0.73326">
        <ele>39.6</ele>
        <time>2021-08-18T09:10:04Z</time>
      </trkpt>
      <trkpt lat="49.31414" lon="-0.73305">
        <ele>39.7</ele>
        <time>2021-08-18T09:10:06Z</time>
      </trkpt>
      <trkpt lat="49.31409" lon="-0.73284">
        <ele>39.7</ele>
        <time>2021-08-18T09:10:08Z</time>
      </trkpt>
      <trkpt lat="49.31398" lon="-0.73269">
        <ele>39.8</ele>
        <time>2021-08-18T09:10:10Z</time>
      </trkpt>
      <trkpt lat="49.31385" lon="-0.73257">
        <ele>39.9</ele>
        <time>2021-08-18T09:10:12Z</time>
      </trkpt>
      <trkpt lat="49.31373" lon="-0.73245">
        <ele>40.1</ele>
        <time>2021-08-18T09:10:14Z</time>
      </trkpt>
      <trkpt lat="49.31367" lon="-0.73238">
        <ele>40.2</ele>
        <time>2021-08-18T09:10:15Z</time>
      </trkpt>
      <trkpt lat="49.31361" lon="-0.73232">
        <ele>40.4</ele>
        <time>2021-08-18T09:10:16Z</time>
      </trkpt>
      <trkpt lat="49.31349" lon="-0.73219">
        <ele>40.6</ele>
        <time>2021-08-18T09:10:18Z</time>
      </trkpt>
      <trkpt lat="49.31339" lon="-0.73205">
        <ele>40.9</ele>
        <time>2021-08-18T09:10:20Z</time>
      </trkpt>
      <trkpt lat="49.31334" lon="-0.73198">
        <ele>41</ele>
        <time>2021-08-18T09:10:21Z</time>
      </trkpt>
      <trkpt lat="49.31326" lon="-0.73184">
        <ele>41.3</ele>
        <time>2021-08-18T09:10:23Z</time>
      </trkpt>
      <trkpt lat="49.31321" lon="-0.73177">
        <ele>41.4</ele>
        <time>2021-08-18T09:10:24Z</time>
      </trkpt>
      <trkpt lat="49.31311" lon="-0.73165">
        <ele>41.6</ele>
        <time>2021-08-18T09:10:26Z</time>
      </trkpt>
      <trkpt lat="49.31306" lon="-0.73158">
        <ele>41.7</ele>
        <time>2021-08-18T09:10:27Z</time>
      </trkpt>
      <trkpt lat="49.31297" lon="-0.73145">
        <ele>41.8</ele>
        <time>2021-08-18T09:10:29Z</time>
      </trkpt>
      <trkpt lat="49.31292" lon="-0.73138">
        <ele>42</ele>
        <time>2021-08-18T09:10:30Z</time>
      </trkpt>
      <trkpt lat="49.31287" lon="-0.73131">
        <ele>42.1</ele>
        <time>2021-08-18T09:10:31Z</time>
      </trkpt>
      <trkpt lat="49.31276" lon="-0.73118">
        <ele>42.3</ele>
        <time>2021-08-18T09:10:33Z</time>
      </trkpt>
      <trkpt lat="49.31271" lon="-0.73112">
        <ele>42.4</ele>
        <time>2021-08-18T09:10:34Z</time>
      </trkpt>
      <trkpt lat="49.3126" lon="-0.73098">
        <ele>42.6</ele>
        <time>2021-08-18T09:10:36Z</time>
      </trkpt>
      <trkpt lat="49.31248" lon="-0.73084">
        <ele>42.7</ele>
        <time>2021-08-18T09:10:38Z</time>
      </trkpt>
      <trkpt lat="49.31242" lon="-0.73076">
        <ele>42.8</ele>
        <time>2021-08-18T09:10:39Z</time>
      </trkpt>
      <trkpt lat="49.31232" lon="-0.7306">
        <ele>43</ele>
        <time>2021-08-18T09:10:41Z</time>
      </trkpt>
      <trkpt lat="49.31228" lon="-0.73052">
        <ele>43.1</ele>
        <time>2021-08-18T09:10:42Z</time>
      </trkpt>
      <trkpt lat="49.31218" lon="-0.73037">
        <ele>43.3</ele>
        <time>2021-08-18T09:10:44Z</time>
      </trkpt>
      <trkpt lat="49.31208" lon="-0.73022">
        <ele>43.4</ele>
        <time>2021-08-18T09:10:46Z</time>
      </trkpt>
      <trkpt lat="49.31199" lon="-0.73007">
        <ele>43.6</ele>
        <time>2021-08-18T09:10:48Z</time>
      </trkpt>
      <trkpt lat="49.31189" lon="-0.72993">
        <ele>43.6</ele>
        <time>2021-08-18T09:10:50Z</time>
      </trkpt>
      <trkpt lat="49.31185" lon="-0.72987">
        <ele>43.7</ele>
        <time>2021-08-18T09:10:51Z</time>
      </trkpt>
      <trkpt lat="49.3118" lon="-0.7298">
        <ele>43.7</ele>
        <time>2021-08-18T09:10:52Z</time>
      </trkpt>
      <trkpt lat="49.31171" lon="-0.72966">
        <ele>43.8</ele>
        <time>2021-08-18T09:10:54Z</time>
      </trkpt>
      <trkpt lat="49.31166" lon="-0.72958">
        <ele>43.9</ele>
        <time>2021-08-18T09:10:55Z</time>
      </trkpt>
      <trkpt lat="49.31156" lon="-0.72945">
        <ele>44.1</ele>
        <time>2021-08-18T09:10:57Z</time>
      </trkpt>
      <trkpt lat="49.31151" lon="-0.72939">
        <ele>44.1</ele>
        <time>2021-08-18T09:10:58Z</time>
      </trkpt>
      <trkpt lat="49.31141" lon="-0.72926">
        <ele>44.3</ele>
        <time>2021-08-18T09:11:00Z</time>
      </trkpt>
      <trkpt lat="49.31131" lon="-0.72913">
        <ele>44.4</ele>
        <time>2021-08-18T09:11:02Z</time>
      </trkpt>
      <trkpt lat="49.31121" lon="-0.72899">
        <ele>44.6</ele>
        <time>2021-08-18T09:11:04Z</time>
      </trkpt>
      <trkpt lat="49.31111" lon="-0.72885">
        <ele>44.7</ele>
        <time>2021-08-18T09:11:06Z</time>
      </trkpt>
      <trkpt lat="49.31106" lon="-0.72877">
        <ele>44.8</ele>
        <time>2021-08-18T09:11:07Z</time>
      </trkpt>
      <trkpt lat="49.31101" lon="-0.7287">
        <ele>44.8</ele>
        <time>2021-08-18T09:11:08Z</time>
      </trkpt>
      <trkpt lat="49.31091" lon="-0.72854">
        <ele>44.8</ele>
        <time>2021-08-18T09:11:10Z</time>
      </trkpt>
      <trkpt lat="49.31081" lon="-0.72836">
        <ele>44.9</ele>
        <time>2021-08-18T09:11:12Z</time>
      </trkpt>
      <trkpt lat="49.3107" lon="-0.72819">
        <ele>44.9</ele>
        <time>2021-08-18T09:11:14Z</time>
      </trkpt>
      <trkpt lat="49.31059" lon="-0.72801">
        <ele>44.9</ele>
        <time>2021-08-18T09:11:16Z</time>
      </trkpt>
      <trkpt lat="49.31054" lon="-0.72792">
        <ele>44.9</ele>
        <time>2021-08-18T09:11:17Z</time>
      </trkpt>
      <trkpt lat="49.31044" lon="-0.72772">
        <ele>44.9</ele>
        <time>2021-08-18T09:11:19Z</time>
      </trkpt>
      <trkpt lat="49.31034" lon="-0.72752">
        <ele>44.9</ele>
        <time>2021-08-18T09:11:21Z</time>
      </trkpt>
      <trkpt lat="49.31024" lon="-0.72733">
        <ele>45</ele>
        <time>2021-08-18T09:11:23Z</time>
      </trkpt>
      <trkpt lat="49.31019" lon="-0.72725">
        <ele>45</ele>
        <time>2021-08-18T09:11:24Z</time>
      </trkpt>
      <trkpt lat="49.31014" lon="-0.72717">
        <ele>45.1</ele>
        <time>2021-08-18T09:11:25Z</time>
      </trkpt>
      <trkpt lat="49.31003" lon="-0.72702">
        <ele>45.1</ele>
        <time>2021-08-18T09:11:27Z</time>
      </trkpt>
      <trkpt lat="49.30992" lon="-0.72686">
        <ele>45.2</ele>
        <time>2021-08-18T09:11:29Z</time>
      </trkpt>
      <trkpt lat="49.30987" lon="-0.72678">
        <ele>45.3</ele>
        <time>2021-08-18T09:11:30Z</time>
      </trkpt>
      <trkpt lat="49.30982" lon="-0.7267">
        <ele>45.4</ele>
        <time>2021-08-18T09:11:31Z</time>
      </trkpt>
      <trkpt lat="49.30973" lon="-0.72655">
        <ele>45.5</ele>
        <time>2021-08-18T09:11:33Z</time>
      </trkpt>
      <trkpt lat="49.30968" lon="-0.72647">
        <ele>45.6</ele>
        <time>2021-08-18T09:11:34Z</time>
      </trkpt>
      <trkpt lat="49.30964" lon="-0.7264">
        <ele>45.8</ele>
        <time>2021-08-18T09:11:35Z</time>
      </trkpt>
      <trkpt lat="49.30955" lon="-0.72624">
        <ele>46</ele>
        <time>2021-08-18T09:11:37Z</time>
      </trkpt>
      <trkpt lat="49.30948" lon="-0.72607">
        <ele>46.2</ele>
        <time>2021-08-18T09:11:39Z</time>
      </trkpt>
      <trkpt lat="49.30943" lon="-0.72589">
        <ele>46.5</ele>
        <time>2021-08-18T09:11:41Z</time>
      </trkpt>
      <trkpt lat="49.3094" lon="-0.72579">
        <ele>46.6</ele>
        <time>2021-08-18T09:11:42Z</time>
      </trkpt>
      <trkpt lat="49.30937" lon="-0.7257">
        <ele>46.7</ele>
        <time>2021-08-18T09:11:43Z</time>
      </trkpt>
      <trkpt lat="49.30934" lon="-0.72561">
        <ele>46.8</ele>
        <time>2021-08-18T09:11:44Z</time>
      </trkpt>
      <trkpt lat="49.3093" lon="-0.72542">
        <ele>47.1</ele>
        <time>2021-08-18T09:11:46Z</time>
      </trkpt>
      <trkpt lat="49.30928" lon="-0.72532">
        <ele>47.2</ele>
        <time>2021-08-18T09:11:47Z</time>
      </trkpt>
      <trkpt lat="49.30923" lon="-0.72511">
        <ele>47.5</ele>
        <time>2021-08-18T09:11:49Z</time>
      </trkpt>
      <trkpt lat="49.30919" lon="-0.72492">
        <ele>47.8</ele>
        <time>2021-08-18T09:11:51Z</time>
      </trkpt>
      <trkpt lat="49.30915" lon="-0.72473">
        <ele>48.1</ele>
        <time>2021-08-18T09:11:53Z</time>
      </trkpt>
      <trkpt lat="49.30911" lon="-0.72455">
        <ele>48.1</ele>
        <time>2021-08-18T09:11:55Z</time>
      </trkpt>
      <trkpt lat="49.3091" lon="-0.72445">
        <ele>48</ele>
        <time>2021-08-18T09:11:56Z</time>
      </trkpt>
      <trkpt lat="49.30908" lon="-0.72425">
        <ele>48</ele>
        <time>2021-08-18T09:11:58Z</time>
      </trkpt>
      <trkpt lat="49.30904" lon="-0.72405">
        <ele>48</ele>
        <time>2021-08-18T09:12:00Z</time>
      </trkpt>
      <trkpt lat="49.30899" lon="-0.72386">
        <ele>48.1</ele>
        <time>2021-08-18T09:12:02Z</time>
      </trkpt>
      <trkpt lat="49.30893" lon="-0.72366">
        <ele>48.2</ele>
        <time>2021-08-18T09:12:04Z</time>
      </trkpt>
      <trkpt lat="49.3089" lon="-0.72356">
        <ele>48.2</ele>
        <time>2021-08-18T09:12:05Z</time>
      </trkpt>
      <trkpt lat="49.30883" lon="-0.72336">
        <ele>48.2</ele>
        <time>2021-08-18T09:12:07Z</time>
      </trkpt>
      <trkpt lat="49.30876" lon="-0.72316">
        <ele>48.3</ele>
        <time>2021-08-18T09:12:09Z</time>
      </trkpt>
      <trkpt lat="49.30869" lon="-0.72296">
        <ele>48.3</ele>
        <time>2021-08-18T09:12:11Z</time>
      </trkpt>
      <trkpt lat="49.30861" lon="-0.72276">
        <ele>48.3</ele>
        <time>2021-08-18T09:12:13Z</time>
      </trkpt>
      <trkpt lat="49.30857" lon="-0.72266">
        <ele>48.3</ele>
        <time>2021-08-18T09:12:14Z</time>
      </trkpt>
      <trkpt lat="49.30849" lon="-0.72247">
        <ele>48.3</ele>
        <time>2021-08-18T09:12:16Z</time>
      </trkpt>
      <trkpt lat="49.30841" lon="-0.72228">
        <ele>48.3</ele>
        <time>2021-08-18T09:12:18Z</time>
      </trkpt>
      <trkpt lat="49.30838" lon="-0.72218">
        <ele>48.3</ele>
        <time>2021-08-18T09:12:19Z</time>
      </trkpt>
      <trkpt lat="49.30832" lon="-0.72198">
        <ele>48.2</ele>
        <time>2021-08-18T09:12:21Z</time>
      </trkpt>
      <trkpt lat="49.30825" lon="-0.72179">
        <ele>48.1</ele>
        <time>2021-08-18T09:12:23Z</time>
      </trkpt>
      <trkpt lat="49.3082" lon="-0.72171">
        <ele>48.1</ele>
        <time>2021-08-18T09:12:24Z</time>
      </trkpt>
      <trkpt lat="49.30815" lon="-0.72162">
        <ele>48</ele>
        <time>2021-08-18T09:12:25Z</time>
      </trkpt>
      <trkpt lat="49.30811" lon="-0.72153">
        <ele>47.9</ele>
        <time>2021-08-18T09:12:26Z</time>
      </trkpt>
      <trkpt lat="49.30806" lon="-0.72132">
        <ele>47.7</ele>
        <time>2021-08-18T09:12:28Z</time>
      </trkpt>
      <trkpt lat="49.30801" lon="-0.72111">
        <ele>47.4</ele>
        <time>2021-08-18T09:12:30Z</time>
      </trkpt>
      <trkpt lat="49.30798" lon="-0.721">
        <ele>47.2</ele>
        <time>2021-08-18T09:12:31Z</time>
      </trkpt>
      <trkpt lat="49.30796" lon="-0.72088">
        <ele>47</ele>
        <time>2021-08-18T09:12:32Z</time>
      </trkpt>
      <trkpt lat="49.30792" lon="-0.72064">
        <ele>46.6</ele>
        <time>2021-08-18T09:12:34Z</time>
      </trkpt>
      <trkpt lat="49.30789" lon="-0.72039">
        <ele>46.2</ele>
        <time>2021-08-18T09:12:36Z</time>
      </trkpt>
      <trkpt lat="49.30784" lon="-0.72015">
        <ele>45.9</ele>
        <time>2021-08-18T09:12:38Z</time>
      </trkpt>
      <trkpt lat="49.30781" lon="-0.72004">
        <ele>45.8</ele>
        <time>2021-08-18T09:12:39Z</time>
      </trkpt>
      <trkpt lat="49.30776" lon="-0.71994">
        <ele>45.6</ele>
        <time>2021-08-18T09:12:40Z</time>
      </trkpt>
      <trkpt lat="49.30763" lon="-0.71978">
        <ele>45.3</ele>
        <time>2021-08-18T09:12:42Z</time>
      </trkpt>
      <trkpt lat="49.30754" lon="-0.71975">
        <ele>45.3</ele>
        <time>2021-08-18T09:12:43Z</time>
      </trkpt>
      <trkpt lat="49.30738" lon="-0.71973">
        <ele>45.2</ele>
        <time>2021-08-18T09:12:45Z</time>
      </trkpt>
      <trkpt lat="49.30723" lon="-0.71971">
        <ele>45</ele>
        <time>2021-08-18T09:12:47Z</time>
      </trkpt>
      <trkpt lat="49.30708" lon="-0.71966">
        <ele>44.7</ele>
        <time>2021-08-18T09:12:49Z</time>
      </trkpt>
      <trkpt lat="49.30694" lon="-0.71958">
        <ele>44.3</ele>
        <time>2021-08-18T09:12:51Z</time>
      </trkpt>
      <trkpt lat="49.30686" lon="-0.71954">
        <ele>44.1</ele>
        <time>2021-08-18T09:12:52Z</time>
      </trkpt>
      <trkpt lat="49.30679" lon="-0.7195">
        <ele>44</ele>
        <time>2021-08-18T09:12:53Z</time>
      </trkpt>
      <trkpt lat="49.30663" lon="-0.71941">
        <ele>43.5</ele>
        <time>2021-08-18T09:12:55Z</time>
      </trkpt>
      <trkpt lat="49.30649" lon="-0.71928">
        <ele>43.1</ele>
        <time>2021-08-18T09:12:57Z</time>
      </trkpt>
      <trkpt lat="49.30643" lon="-0.7192">
        <ele>43</ele>
        <time>2021-08-18T09:12:58Z</time>
      </trkpt>
      <trkpt lat="49.30629" lon="-0.71905">
        <ele>42.6</ele>
        <time>2021-08-18T09:13:00Z</time>
      </trkpt>
      <trkpt lat="49.30615" lon="-0.71888">
        <ele>42.2</ele>
        <time>2021-08-18T09:13:02Z</time>
      </trkpt>
      <trkpt lat="49.30602" lon="-0.71872">
        <ele>41.9</ele>
        <time>2021-08-18T09:13:04Z</time>
      </trkpt>
      <trkpt lat="49.30595" lon="-0.71865">
        <ele>41.8</ele>
        <time>2021-08-18T09:13:05Z</time>
      </trkpt>
      <trkpt lat="49.30582" lon="-0.71852">
        <ele>41.5</ele>
        <time>2021-08-18T09:13:07Z</time>
      </trkpt>
      <trkpt lat="49.30567" lon="-0.7184">
        <ele>41.3</ele>
        <time>2021-08-18T09:13:09Z</time>
      </trkpt>
      <trkpt lat="49.30559" lon="-0.71835">
        <ele>41.2</ele>
        <time>2021-08-18T09:13:10Z</time>
      </trkpt>
      <trkpt lat="49.30551" lon="-0.71829">
        <ele>41.1</ele>
        <time>2021-08-18T09:13:11Z</time>
      </trkpt>
      <trkpt lat="49.30536" lon="-0.71818">
        <ele>40.9</ele>
        <time>2021-08-18T09:13:13Z</time>
      </trkpt>
      <trkpt lat="49.30529" lon="-0.71812">
        <ele>40.8</ele>
        <time>2021-08-18T09:13:14Z</time>
      </trkpt>
      <trkpt lat="49.30515" lon="-0.71801">
        <ele>40.6</ele>
        <time>2021-08-18T09:13:16Z</time>
      </trkpt>
      <trkpt lat="49.30508" lon="-0.71794">
        <ele>40.5</ele>
        <time>2021-08-18T09:13:17Z</time>
      </trkpt>
      <trkpt lat="49.30501" lon="-0.71788">
        <ele>40.4</ele>
        <time>2021-08-18T09:13:18Z</time>
      </trkpt>
      <trkpt lat="49.30487" lon="-0.71777">
        <ele>40.1</ele>
        <time>2021-08-18T09:13:20Z</time>
      </trkpt>
      <trkpt lat="49.3048" lon="-0.71771">
        <ele>40</ele>
        <time>2021-08-18T09:13:21Z</time>
      </trkpt>
      <trkpt lat="49.30466" lon="-0.71758">
        <ele>39.7</ele>
        <time>2021-08-18T09:13:23Z</time>
      </trkpt>
      <trkpt lat="49.30452" lon="-0.71743">
        <ele>39.5</ele>
        <time>2021-08-18T09:13:25Z</time>
      </trkpt>
      <trkpt lat="49.30439" lon="-0.71727">
        <ele>39.3</ele>
        <time>2021-08-18T09:13:27Z</time>
      </trkpt>
      <trkpt lat="49.30425" lon="-0.71712">
        <ele>39.2</ele>
        <time>2021-08-18T09:13:29Z</time>
      </trkpt>
      <trkpt lat="49.30412" lon="-0.71698">
        <ele>39.1</ele>
        <time>2021-08-18T09:13:31Z</time>
      </trkpt>
      <trkpt lat="49.30405" lon="-0.71691">
        <ele>39</ele>
        <time>2021-08-18T09:13:32Z</time>
      </trkpt>
      <trkpt lat="49.30391" lon="-0.71678">
        <ele>38.9</ele>
        <time>2021-08-18T09:13:34Z</time>
      </trkpt>
      <trkpt lat="49.30384" lon="-0.71673">
        <ele>38.8</ele>
        <time>2021-08-18T09:13:35Z</time>
      </trkpt>
      <trkpt lat="49.30371" lon="-0.71661">
        <ele>38.9</ele>
        <time>2021-08-18T09:13:37Z</time>
      </trkpt>
      <trkpt lat="49.30364" lon="-0.71655">
        <ele>38.9</ele>
        <time>2021-08-18T09:13:38Z</time>
      </trkpt>
      <trkpt lat="49.30353" lon="-0.71641">
        <ele>38.9</ele>
        <time>2021-08-18T09:13:40Z</time>
      </trkpt>
      <trkpt lat="49.30347" lon="-0.71634">
        <ele>39</ele>
        <time>2021-08-18T09:13:41Z</time>
      </trkpt>
      <trkpt lat="49.30334" lon="-0.71622">
        <ele>39</ele>
        <time>2021-08-18T09:13:43Z</time>
      </trkpt>
      <trkpt lat="49.3032" lon="-0.71611">
        <ele>39</ele>
        <time>2021-08-18T09:13:45Z</time>
      </trkpt>
      <trkpt lat="49.30307" lon="-0.71601">
        <ele>39</ele>
        <time>2021-08-18T09:13:47Z</time>
      </trkpt>
      <trkpt lat="49.30299" lon="-0.71597">
        <ele>39.1</ele>
        <time>2021-08-18T09:13:48Z</time>
      </trkpt>
      <trkpt lat="49.30285" lon="-0.7159">
        <ele>39.2</ele>
        <time>2021-08-18T09:13:50Z</time>
      </trkpt>
      <trkpt lat="49.30277" lon="-0.71588">
        <ele>39.2</ele>
        <time>2021-08-18T09:13:51Z</time>
      </trkpt>
      <trkpt lat="49.30269" lon="-0.71586">
        <ele>39.3</ele>
        <time>2021-08-18T09:13:52Z</time>
      </trkpt>
      <trkpt lat="49.30255" lon="-0.71582">
        <ele>39.5</ele>
        <time>2021-08-18T09:13:54Z</time>
      </trkpt>
      <trkpt lat="49.30241" lon="-0.71575">
        <ele>39.9</ele>
        <time>2021-08-18T09:13:56Z</time>
      </trkpt>
      <trkpt lat="49.30228" lon="-0.71566">
        <ele>40.4</ele>
        <time>2021-08-18T09:13:58Z</time>
      </trkpt>
      <trkpt lat="49.30219" lon="-0.71557">
        <ele>41.3</ele>
        <time>2021-08-18T09:14:00Z</time>
      </trkpt>
      <trkpt lat="49.30219" lon="-0.71545">
        <ele>41.3</ele>
        <time>2021-08-18T09:14:02Z</time>
      </trkpt>
      <trkpt lat="49.30219" lon="-0.71533">
        <ele>41.2</ele>
        <time>2021-08-18T09:14:04Z</time>
      </trkpt>
      <trkpt lat="49.30217" lon="-0.71511">
        <ele>41.1</ele>
        <time>2021-08-18T09:14:06Z</time>
      </trkpt>
      <trkpt lat="49.30217" lon="-0.715">
        <ele>41.1</ele>
        <time>2021-08-18T09:14:07Z</time>
      </trkpt>
      <trkpt lat="49.30217" lon="-0.71478">
        <ele>41</ele>
        <time>2021-08-18T09:14:09Z</time>
      </trkpt>
      <trkpt lat="49.30216" lon="-0.71469">
        <ele>40.9</ele>
        <time>2021-08-18T09:14:10Z</time>
      </trkpt>
      <trkpt lat="49.30214" lon="-0.71448">
        <ele>40.9</ele>
        <time>2021-08-18T09:14:12Z</time>
      </trkpt>
      <trkpt lat="49.30208" lon="-0.71429">
        <ele>40.7</ele>
        <time>2021-08-18T09:14:14Z</time>
      </trkpt>
      <trkpt lat="49.30204" lon="-0.71419">
        <ele>40.5</ele>
        <time>2021-08-18T09:14:15Z</time>
      </trkpt>
      <trkpt lat="49.302" lon="-0.71409">
        <ele>40.4</ele>
        <time>2021-08-18T09:14:16Z</time>
      </trkpt>
      <trkpt lat="49.30192" lon="-0.71389">
        <ele>40</ele>
        <time>2021-08-18T09:14:18Z</time>
      </trkpt>
      <trkpt lat="49.30183" lon="-0.71368">
        <ele>39.6</ele>
        <time>2021-08-18T09:14:20Z</time>
      </trkpt>
      <trkpt lat="49.30175" lon="-0.71347">
        <ele>39.3</ele>
        <time>2021-08-18T09:14:22Z</time>
      </trkpt>
      <trkpt lat="49.30169" lon="-0.71326">
        <ele>39.1</ele>
        <time>2021-08-18T09:14:24Z</time>
      </trkpt>
      <trkpt lat="49.30168" lon="-0.71315">
        <ele>39</ele>
        <time>2021-08-18T09:14:25Z</time>
      </trkpt>
      <trkpt lat="49.30167" lon="-0.71293">
        <ele>38.8</ele>
        <time>2021-08-18T09:14:27Z</time>
      </trkpt>
      <trkpt lat="49.30167" lon="-0.71282">
        <ele>38.7</ele>
        <time>2021-08-18T09:14:28Z</time>
      </trkpt>
      <trkpt lat="49.30168" lon="-0.71265">
        <ele>38.4</ele>
        <time>2021-08-18T09:14:29Z</time>
      </trkpt>
      <trkpt lat="49.3017" lon="-0.71247">
        <ele>38.2</ele>
        <time>2021-08-18T09:14:31Z</time>
      </trkpt>
      <trkpt lat="49.30171" lon="-0.71235">
        <ele>38</ele>
        <time>2021-08-18T09:14:32Z</time>
      </trkpt>
      <trkpt lat="49.30172" lon="-0.71224">
        <ele>37.8</ele>
        <time>2021-08-18T09:14:33Z</time>
      </trkpt>
      <trkpt lat="49.30176" lon="-0.71201">
        <ele>37.5</ele>
        <time>2021-08-18T09:14:35Z</time>
      </trkpt>
      <trkpt lat="49.30178" lon="-0.71188">
        <ele>37.3</ele>
        <time>2021-08-18T09:14:36Z</time>
      </trkpt>
      <trkpt lat="49.3018" lon="-0.71176">
        <ele>37.1</ele>
        <time>2021-08-18T09:14:37Z</time>
      </trkpt>
      <trkpt lat="49.30184" lon="-0.71151">
        <ele>36.7</ele>
        <time>2021-08-18T09:14:39Z</time>
      </trkpt>
      <trkpt lat="49.30187" lon="-0.71139">
        <ele>36.4</ele>
        <time>2021-08-18T09:14:40Z</time>
      </trkpt>
      <trkpt lat="49.3019" lon="-0.71114">
        <ele>36</ele>
        <time>2021-08-18T09:14:42Z</time>
      </trkpt>
      <trkpt lat="49.30193" lon="-0.71088">
        <ele>35.6</ele>
        <time>2021-08-18T09:14:44Z</time>
      </trkpt>
      <trkpt lat="49.30194" lon="-0.71075">
        <ele>35.3</ele>
        <time>2021-08-18T09:14:45Z</time>
      </trkpt>
      <trkpt lat="49.30196" lon="-0.71062">
        <ele>35</ele>
        <time>2021-08-18T09:14:46Z</time>
      </trkpt>
      <trkpt lat="49.30197" lon="-0.71049">
        <ele>34.7</ele>
        <time>2021-08-18T09:14:47Z</time>
      </trkpt>
      <trkpt lat="49.30198" lon="-0.71022">
        <ele>34.1</ele>
        <time>2021-08-18T09:14:49Z</time>
      </trkpt>
      <trkpt lat="49.302" lon="-0.70986">
        <ele>33.4</ele>
        <time>2021-08-18T09:14:51Z</time>
      </trkpt>
      <trkpt lat="49.30202" lon="-0.70965">
        <ele>33</ele>
        <time>2021-08-18T09:14:53Z</time>
      </trkpt>
      <trkpt lat="49.30204" lon="-0.70953">
        <ele>32.8</ele>
        <time>2021-08-18T09:14:54Z</time>
      </trkpt>
      <trkpt lat="49.30206" lon="-0.7094">
        <ele>32.6</ele>
        <time>2021-08-18T09:14:55Z</time>
      </trkpt>
      <trkpt lat="49.30207" lon="-0.70914">
        <ele>32.2</ele>
        <time>2021-08-18T09:14:57Z</time>
      </trkpt>
      <trkpt lat="49.30207" lon="-0.70887">
        <ele>31.8</ele>
        <time>2021-08-18T09:14:59Z</time>
      </trkpt>
      <trkpt lat="49.30209" lon="-0.70874">
        <ele>31.6</ele>
        <time>2021-08-18T09:15:00Z</time>
      </trkpt>
      <trkpt lat="49.3021" lon="-0.70862">
        <ele>31.4</ele>
        <time>2021-08-18T09:15:01Z</time>
      </trkpt>
      <trkpt lat="49.3021" lon="-0.70849">
        <ele>31.3</ele>
        <time>2021-08-18T09:15:02Z</time>
      </trkpt>
      <trkpt lat="49.3021" lon="-0.70835">
        <ele>31.2</ele>
        <time>2021-08-18T09:15:03Z</time>
      </trkpt>
      <trkpt lat="49.30212" lon="-0.7081">
        <ele>31</ele>
        <time>2021-08-18T09:15:05Z</time>
      </trkpt>
      <trkpt lat="49.30213" lon="-0.70798">
        <ele>30.9</ele>
        <time>2021-08-18T09:15:06Z</time>
      </trkpt>
      <trkpt lat="49.30212" lon="-0.70772">
        <ele>30.7</ele>
        <time>2021-08-18T09:15:08Z</time>
      </trkpt>
      <trkpt lat="49.30211" lon="-0.70759">
        <ele>30.5</ele>
        <time>2021-08-18T09:15:09Z</time>
      </trkpt>
      <trkpt lat="49.3021" lon="-0.70747">
        <ele>30.4</ele>
        <time>2021-08-18T09:15:10Z</time>
      </trkpt>
      <trkpt lat="49.30209" lon="-0.70723">
        <ele>30.1</ele>
        <time>2021-08-18T09:15:12Z</time>
      </trkpt>
      <trkpt lat="49.30209" lon="-0.70698">
        <ele>29.7</ele>
        <time>2021-08-18T09:15:14Z</time>
      </trkpt>
      <trkpt lat="49.3021" lon="-0.70684">
        <ele>29.6</ele>
        <time>2021-08-18T09:15:15Z</time>
      </trkpt>
      <trkpt lat="49.30211" lon="-0.7067">
        <ele>29.4</ele>
        <time>2021-08-18T09:15:16Z</time>
      </trkpt>
      <trkpt lat="49.30215" lon="-0.70642">
        <ele>29.1</ele>
        <time>2021-08-18T09:15:18Z</time>
      </trkpt>
      <trkpt lat="49.30218" lon="-0.70628">
        <ele>29</ele>
        <time>2021-08-18T09:15:19Z</time>
      </trkpt>
      <trkpt lat="49.30223" lon="-0.70601">
        <ele>28.8</ele>
        <time>2021-08-18T09:15:21Z</time>
      </trkpt>
      <trkpt lat="49.3023" lon="-0.70574">
        <ele>28.7</ele>
        <time>2021-08-18T09:15:23Z</time>
      </trkpt>
      <trkpt lat="49.30234" lon="-0.70561">
        <ele>28.6</ele>
        <time>2021-08-18T09:15:24Z</time>
      </trkpt>
      <trkpt lat="49.3024" lon="-0.70537">
        <ele>28.4</ele>
        <time>2021-08-18T09:15:26Z</time>
      </trkpt>
      <trkpt lat="49.30248" lon="-0.70512">
        <ele>28.3</ele>
        <time>2021-08-18T09:15:28Z</time>
      </trkpt>
      <trkpt lat="49.30254" lon="-0.70489">
        <ele>28.3</ele>
        <time>2021-08-18T09:15:30Z</time>
      </trkpt>
      <trkpt lat="49.30259" lon="-0.70465">
        <ele>28.4</ele>
        <time>2021-08-18T09:15:32Z</time>
      </trkpt>
      <trkpt lat="49.30258" lon="-0.70442">
        <ele>28.5</ele>
        <time>2021-08-18T09:15:34Z</time>
      </trkpt>
      <trkpt lat="49.30251" lon="-0.70422">
        <ele>28.5</ele>
        <time>2021-08-18T09:15:36Z</time>
      </trkpt>
      <trkpt lat="49.30241" lon="-0.70404">
        <ele>28.5</ele>
        <time>2021-08-18T09:15:38Z</time>
      </trkpt>
      <trkpt lat="49.30236" lon="-0.70395">
        <ele>28.5</ele>
        <time>2021-08-18T09:15:39Z</time>
      </trkpt>
      <trkpt lat="49.30228" lon="-0.70377">
        <ele>28.5</ele>
        <time>2021-08-18T09:15:41Z</time>
      </trkpt>
      <trkpt lat="49.30226" lon="-0.70368">
        <ele>28.5</ele>
        <time>2021-08-18T09:15:42Z</time>
      </trkpt>
      <trkpt lat="49.30223" lon="-0.7036">
        <ele>28.5</ele>
        <time>2021-08-18T09:15:44Z</time>
      </trkpt>
      <trkpt lat="49.30217" lon="-0.70355">
        <ele>28.5</ele>
        <time>2021-08-18T09:15:46Z</time>
      </trkpt>
      <trkpt lat="49.30208" lon="-0.70351">
        <ele>28.5</ele>
        <time>2021-08-18T09:15:48Z</time>
      </trkpt>
      <trkpt lat="49.30199" lon="-0.70346">
        <ele>28.5</ele>
        <time>2021-08-18T09:15:50Z</time>
      </trkpt>
      <trkpt lat="49.30195" lon="-0.70344">
        <ele>28.5</ele>
        <time>2021-08-18T09:15:51Z</time>
      </trkpt>
      <trkpt lat="49.30188" lon="-0.70338">
        <ele>28.5</ele>
        <time>2021-08-18T09:15:53Z</time>
      </trkpt>
      <trkpt lat="49.30185" lon="-0.70336">
        <ele>28.6</ele>
        <time>2021-08-18T09:15:54Z</time>
      </trkpt>
      <trkpt lat="49.30179" lon="-0.70329">
        <ele>28.6</ele>
        <time>2021-08-18T09:15:56Z</time>
      </trkpt>
      <trkpt lat="49.30175" lon="-0.70327">
        <ele>28.6</ele>
        <time>2021-08-18T09:15:57Z</time>
      </trkpt>
      <trkpt lat="49.30172" lon="-0.70326">
        <ele>28.6</ele>
        <time>2021-08-18T09:15:58Z</time>
      </trkpt>
      <trkpt lat="49.30169" lon="-0.70324">
        <ele>28.6</ele>
        <time>2021-08-18T09:15:59Z</time>
      </trkpt>
      <trkpt lat="49.30167" lon="-0.70323">
        <ele>28.7</ele>
        <time>2021-08-18T09:16:00Z</time>
      </trkpt>
      <trkpt lat="49.30163" lon="-0.70321">
        <ele>28.7</ele>
        <time>2021-08-18T09:16:02Z</time>
      </trkpt>
      <trkpt lat="49.30162" lon="-0.7032">
        <ele>28.7</ele>
        <time>2021-08-18T09:16:04Z</time>
      </trkpt>
      <trkpt lat="49.30162" lon="-0.7032">
        <ele>28.7</ele>
        <time>2021-08-18T09:16:05Z</time>
      </trkpt>
      <trkpt lat="49.30168" lon="-0.70319">
        <ele>28.7</ele>
        <time>2021-08-18T09:16:07Z</time>
      </trkpt>
      <trkpt lat="49.3018" lon="-0.70321">
        <ele>28.6</ele>
        <time>2021-08-18T09:16:09Z</time>
      </trkpt>
      <trkpt lat="49.30186" lon="-0.70323">
        <ele>28.6</ele>
        <time>2021-08-18T09:16:10Z</time>
      </trkpt>
      <trkpt lat="49.30198" lon="-0.70326">
        <ele>28.5</ele>
        <time>2021-08-18T09:16:12Z</time>
      </trkpt>
      <trkpt lat="49.30203" lon="-0.70327">
        <ele>28.5</ele>
        <time>2021-08-18T09:16:13Z</time>
      </trkpt>
      <trkpt lat="49.30214" lon="-0.70329">
        <ele>28.5</ele>
        <time>2021-08-18T09:16:15Z</time>
      </trkpt>
      <trkpt lat="49.3022" lon="-0.70327">
        <ele>28.5</ele>
        <time>2021-08-18T09:16:16Z</time>
      </trkpt>
      <trkpt lat="49.30231" lon="-0.70317">
        <ele>28.6</ele>
        <time>2021-08-18T09:16:18Z</time>
      </trkpt>
      <trkpt lat="49.30243" lon="-0.70308">
        <ele>28.7</ele>
        <time>2021-08-18T09:16:20Z</time>
      </trkpt>
      <trkpt lat="49.3025" lon="-0.70304">
        <ele>28.8</ele>
        <time>2021-08-18T09:16:21Z</time>
      </trkpt>
      <trkpt lat="49.30256" lon="-0.70299">
        <ele>28.9</ele>
        <time>2021-08-18T09:16:22Z</time>
      </trkpt>
      <trkpt lat="49.30268" lon="-0.7029">
        <ele>29</ele>
        <time>2021-08-18T09:16:24Z</time>
      </trkpt>
      <trkpt lat="49.30274" lon="-0.70285">
        <ele>29.1</ele>
        <time>2021-08-18T09:16:25Z</time>
      </trkpt>
      <trkpt lat="49.30279" lon="-0.70267">
        <ele>29.2</ele>
        <time>2021-08-18T09:16:27Z</time>
      </trkpt>
      <trkpt lat="49.30275" lon="-0.70251">
        <ele>29.1</ele>
        <time>2021-08-18T09:16:29Z</time>
      </trkpt>
      <trkpt lat="49.30268" lon="-0.70247">
        <ele>29</ele>
        <time>2021-08-18T09:16:30Z</time>
      </trkpt>
      <trkpt lat="49.30256" lon="-0.7024">
        <ele>29</ele>
        <time>2021-08-18T09:16:32Z</time>
      </trkpt>
      <trkpt lat="49.30244" lon="-0.70232">
        <ele>28.9</ele>
        <time>2021-08-18T09:16:34Z</time>
      </trkpt>
      <trkpt lat="49.30239" lon="-0.70228">
        <ele>28.9</ele>
        <time>2021-08-18T09:16:35Z</time>
      </trkpt>
      <trkpt lat="49.30227" lon="-0.70219">
        <ele>29</ele>
        <time>2021-08-18T09:16:37Z</time>
      </trkpt>
      <trkpt lat="49.30221" lon="-0.70213">
        <ele>29</ele>
        <time>2021-08-18T09:16:38Z</time>
      </trkpt>
      <trkpt lat="49.30211" lon="-0.70204">
        <ele>29</ele>
        <time>2021-08-18T09:16:40Z</time>
      </trkpt>
      <trkpt lat="49.302" lon="-0.70193">
        <ele>29</ele>
        <time>2021-08-18T09:16:42Z</time>
      </trkpt>
      <trkpt lat="49.30188" lon="-0.70182">
        <ele>29.1</ele>
        <time>2021-08-18T09:16:44Z</time>
      </trkpt>
      <trkpt lat="49.30177" lon="-0.7017">
        <ele>29.1</ele>
        <time>2021-08-18T09:16:46Z</time>
      </trkpt>
      <trkpt lat="49.30171" lon="-0.70165">
        <ele>29.1</ele>
        <time>2021-08-18T09:16:47Z</time>
      </trkpt>
      <trkpt lat="49.30165" lon="-0.70159">
        <ele>29.1</ele>
        <time>2021-08-18T09:16:48Z</time>
      </trkpt>
      <trkpt lat="49.30154" lon="-0.70146">
        <ele>29.2</ele>
        <time>2021-08-18T09:16:50Z</time>
      </trkpt>
      <trkpt lat="49.30142" lon="-0.70132">
        <ele>29.3</ele>
        <time>2021-08-18T09:16:52Z</time>
      </trkpt>
      <trkpt lat="49.30136" lon="-0.70125">
        <ele>29.4</ele>
        <time>2021-08-18T09:16:53Z</time>
      </trkpt>
      <trkpt lat="49.30131" lon="-0.70118">
        <ele>29.5</ele>
        <time>2021-08-18T09:16:54Z</time>
      </trkpt>
      <trkpt lat="49.30125" lon="-0.70113">
        <ele>29.5</ele>
        <time>2021-08-18T09:16:55Z</time>
      </trkpt>
      <trkpt lat="49.30114" lon="-0.701">
        <ele>29.7</ele>
        <time>2021-08-18T09:16:57Z</time>
      </trkpt>
      <trkpt lat="49.30102" lon="-0.70087">
        <ele>29.9</ele>
        <time>2021-08-18T09:16:59Z</time>
      </trkpt>
      <trkpt lat="49.30091" lon="-0.70072">
        <ele>30.1</ele>
        <time>2021-08-18T09:17:01Z</time>
      </trkpt>
      <trkpt lat="49.30081" lon="-0.70055">
        <ele>30.5</ele>
        <time>2021-08-18T09:17:03Z</time>
      </trkpt>
      <trkpt lat="49.30074" lon="-0.70035">
        <ele>30.9</ele>
        <time>2021-08-18T09:17:05Z</time>
      </trkpt>
      <trkpt lat="49.30071" lon="-0.70016">
        <ele>31.3</ele>
        <time>2021-08-18T09:17:07Z</time>
      </trkpt>
      <trkpt lat="49.3007" lon="-0.70006">
        <ele>31.6</ele>
        <time>2021-08-18T09:17:08Z</time>
      </trkpt>
      <trkpt lat="49.30069" lon="-0.69986">
        <ele>32.1</ele>
        <time>2021-08-18T09:17:10Z</time>
      </trkpt>
      <trkpt lat="49.3007" lon="-0.69967">
        <ele>32.6</ele>
        <time>2021-08-18T09:17:12Z</time>
      </trkpt>
      <trkpt lat="49.30071" lon="-0.69958">
        <ele>32.8</ele>
        <time>2021-08-18T09:17:13Z</time>
      </trkpt>
      <trkpt lat="49.30071" lon="-0.6994">
        <ele>33.3</ele>
        <time>2021-08-18T09:17:15Z</time>
      </trkpt>
      <trkpt lat="49.30071" lon="-0.69922">
        <ele>33.8</ele>
        <time>2021-08-18T09:17:17Z</time>
      </trkpt>
      <trkpt lat="49.30071" lon="-0.69902">
        <ele>34.2</ele>
        <time>2021-08-18T09:17:19Z</time>
      </trkpt>
      <trkpt lat="49.3007" lon="-0.69882">
        <ele>34.6</ele>
        <time>2021-08-18T09:17:21Z</time>
      </trkpt>
      <trkpt lat="49.30068" lon="-0.69864">
        <ele>35</ele>
        <time>2021-08-18T09:17:23Z</time>
      </trkpt>
      <trkpt lat="49.30066" lon="-0.69846">
        <ele>35.5</ele>
        <time>2021-08-18T09:17:25Z</time>
      </trkpt>
      <trkpt lat="49.30066" lon="-0.69837">
        <ele>35.7</ele>
        <time>2021-08-18T09:17:26Z</time>
      </trkpt>
      <trkpt lat="49.30063" lon="-0.69819">
        <ele>36.1</ele>
        <time>2021-08-18T09:17:28Z</time>
      </trkpt>
      <trkpt lat="49.30062" lon="-0.69809">
        <ele>36.3</ele>
        <time>2021-08-18T09:17:29Z</time>
      </trkpt>
      <trkpt lat="49.30059" lon="-0.69791">
        <ele>36.6</ele>
        <time>2021-08-18T09:17:31Z</time>
      </trkpt>
      <trkpt lat="49.30055" lon="-0.69771">
        <ele>36.7</ele>
        <time>2021-08-18T09:17:33Z</time>
      </trkpt>
      <trkpt lat="49.30055" lon="-0.69761">
        <ele>36.7</ele>
        <time>2021-08-18T09:17:34Z</time>
      </trkpt>
      <trkpt lat="49.30053" lon="-0.69741">
        <ele>36.7</ele>
        <time>2021-08-18T09:17:36Z</time>
      </trkpt>
      <trkpt lat="49.30051" lon="-0.69717">
        <ele>36.7</ele>
        <time>2021-08-18T09:17:38Z</time>
      </trkpt>
      <trkpt lat="49.30049" lon="-0.69696">
        <ele>36.5</ele>
        <time>2021-08-18T09:17:40Z</time>
      </trkpt>
      <trkpt lat="49.30047" lon="-0.69675">
        <ele>36.3</ele>
        <time>2021-08-18T09:17:42Z</time>
      </trkpt>
      <trkpt lat="49.30047" lon="-0.69663">
        <ele>36.1</ele>
        <time>2021-08-18T09:17:43Z</time>
      </trkpt>
      <trkpt lat="49.30046" lon="-0.69652">
        <ele>35.9</ele>
        <time>2021-08-18T09:17:44Z</time>
      </trkpt>
      <trkpt lat="49.30045" lon="-0.69639">
        <ele>35.7</ele>
        <time>2021-08-18T09:17:45Z</time>
      </trkpt>
      <trkpt lat="49.30044" lon="-0.69614">
        <ele>35.1</ele>
        <time>2021-08-18T09:17:47Z</time>
      </trkpt>
      <trkpt lat="49.30043" lon="-0.69588">
        <ele>34.4</ele>
        <time>2021-08-18T09:17:49Z</time>
      </trkpt>
      <trkpt lat="49.30041" lon="-0.69574">
        <ele>34</ele>
        <time>2021-08-18T09:17:50Z</time>
      </trkpt>
      <trkpt lat="49.3004" lon="-0.69546">
        <ele>33.3</ele>
        <time>2021-08-18T09:17:52Z</time>
      </trkpt>
      <trkpt lat="49.30038" lon="-0.69518">
        <ele>32.7</ele>
        <time>2021-08-18T09:17:54Z</time>
      </trkpt>
      <trkpt lat="49.30035" lon="-0.69491">
        <ele>32.2</ele>
        <time>2021-08-18T09:17:56Z</time>
      </trkpt>
      <trkpt lat="49.30033" lon="-0.69465">
        <ele>31.9</ele>
        <time>2021-08-18T09:17:58Z</time>
      </trkpt>
      <trkpt lat="49.30033" lon="-0.69452">
        <ele>31.8</ele>
        <time>2021-08-18T09:17:59Z</time>
      </trkpt>
      <trkpt lat="49.3003" lon="-0.69426">
        <ele>31.8</ele>
        <time>2021-08-18T09:18:01Z</time>
      </trkpt>
      <trkpt lat="49.30029" lon="-0.69403">
        <ele>31.8</ele>
        <time>2021-08-18T09:18:03Z</time>
      </trkpt>
      <trkpt lat="49.30029" lon="-0.6938">
        <ele>31.9</ele>
        <time>2021-08-18T09:18:05Z</time>
      </trkpt>
      <trkpt lat="49.3003" lon="-0.69359">
        <ele>32.1</ele>
        <time>2021-08-18T09:18:07Z</time>
      </trkpt>
      <trkpt lat="49.3003" lon="-0.69337">
        <ele>32.4</ele>
        <time>2021-08-18T09:18:09Z</time>
      </trkpt>
      <trkpt lat="49.3003" lon="-0.69314">
        <ele>32.7</ele>
        <time>2021-08-18T09:18:11Z</time>
      </trkpt>
      <trkpt lat="49.30028" lon="-0.6929">
        <ele>33.2</ele>
        <time>2021-08-18T09:18:13Z</time>
      </trkpt>
      <trkpt lat="49.30028" lon="-0.6928">
        <ele>33.5</ele>
        <time>2021-08-18T09:18:14Z</time>
      </trkpt>
      <trkpt lat="49.30028" lon="-0.6926">
        <ele>34.1</ele>
        <time>2021-08-18T09:18:16Z</time>
      </trkpt>
      <trkpt lat="49.30027" lon="-0.69239">
        <ele>34.8</ele>
        <time>2021-08-18T09:18:18Z</time>
      </trkpt>
      <trkpt lat="49.30025" lon="-0.6922">
        <ele>35.6</ele>
        <time>2021-08-18T09:18:20Z</time>
      </trkpt>
      <trkpt lat="49.30024" lon="-0.69211">
        <ele>36</ele>
        <time>2021-08-18T09:18:21Z</time>
      </trkpt>
      <trkpt lat="49.30023" lon="-0.69193">
        <ele>36.7</ele>
        <time>2021-08-18T09:18:23Z</time>
      </trkpt>
      <trkpt lat="49.30022" lon="-0.69185">
        <ele>37</ele>
        <time>2021-08-18T09:18:24Z</time>
      </trkpt>
      <trkpt lat="49.30021" lon="-0.69167">
        <ele>37.4</ele>
        <time>2021-08-18T09:18:26Z</time>
      </trkpt>
      <trkpt lat="49.3002" lon="-0.69158">
        <ele>37.6</ele>
        <time>2021-08-18T09:18:27Z</time>
      </trkpt>
      <trkpt lat="49.30018" lon="-0.6914">
        <ele>37.9</ele>
        <time>2021-08-18T09:18:29Z</time>
      </trkpt>
      <trkpt lat="49.30017" lon="-0.69131">
        <ele>38.1</ele>
        <time>2021-08-18T09:18:30Z</time>
      </trkpt>
      <trkpt lat="49.30015" lon="-0.69113">
        <ele>38.4</ele>
        <time>2021-08-18T09:18:32Z</time>
      </trkpt>
      <trkpt lat="49.30013" lon="-0.69095">
        <ele>38.7</ele>
        <time>2021-08-18T09:18:34Z</time>
      </trkpt>
      <trkpt lat="49.30012" lon="-0.69086">
        <ele>38.8</ele>
        <time>2021-08-18T09:18:35Z</time>
      </trkpt>
      <trkpt lat="49.3001" lon="-0.69076">
        <ele>38.9</ele>
        <time>2021-08-18T09:18:36Z</time>
      </trkpt>
      <trkpt lat="49.30009" lon="-0.69057">
        <ele>39.1</ele>
        <time>2021-08-18T09:18:38Z</time>
      </trkpt>
      <trkpt lat="49.30008" lon="-0.69048">
        <ele>39.2</ele>
        <time>2021-08-18T09:18:39Z</time>
      </trkpt>
      <trkpt lat="49.30006" lon="-0.69029">
        <ele>39.5</ele>
        <time>2021-08-18T09:18:41Z</time>
      </trkpt>
      <trkpt lat="49.30005" lon="-0.69019">
        <ele>39.6</ele>
        <time>2021-08-18T09:18:42Z</time>
      </trkpt>
      <trkpt lat="49.30002" lon="-0.69001">
        <ele>39.8</ele>
        <time>2021-08-18T09:18:44Z</time>
      </trkpt>
      <trkpt lat="49.30002" lon="-0.68991">
        <ele>39.9</ele>
        <time>2021-08-18T09:18:45Z</time>
      </trkpt>
      <trkpt lat="49.3" lon="-0.68973">
        <ele>40</ele>
        <time>2021-08-18T09:18:47Z</time>
      </trkpt>
      <trkpt lat="49.29998" lon="-0.68954">
        <ele>40.3</ele>
        <time>2021-08-18T09:18:49Z</time>
      </trkpt>
      <trkpt lat="49.29997" lon="-0.68945">
        <ele>40.4</ele>
        <time>2021-08-18T09:18:50Z</time>
      </trkpt>
      <trkpt lat="49.29993" lon="-0.68927">
        <ele>40.7</ele>
        <time>2021-08-18T09:18:52Z</time>
      </trkpt>
      <trkpt lat="49.2999" lon="-0.68918">
        <ele>40.9</ele>
        <time>2021-08-18T09:18:53Z</time>
      </trkpt>
      <trkpt lat="49.29984" lon="-0.68902">
        <ele>41.3</ele>
        <time>2021-08-18T09:18:55Z</time>
      </trkpt>
      <trkpt lat="49.29979" lon="-0.68895">
        <ele>41.4</ele>
        <time>2021-08-18T09:18:56Z</time>
      </trkpt>
      <trkpt lat="49.2997" lon="-0.68882">
        <ele>41.7</ele>
        <time>2021-08-18T09:18:58Z</time>
      </trkpt>
      <trkpt lat="49.29961" lon="-0.68869">
        <ele>42</ele>
        <time>2021-08-18T09:19:00Z</time>
      </trkpt>
      <trkpt lat="49.29951" lon="-0.68858">
        <ele>42.3</ele>
        <time>2021-08-18T09:19:02Z</time>
      </trkpt>
      <trkpt lat="49.29943" lon="-0.68844">
        <ele>42.6</ele>
        <time>2021-08-18T09:19:04Z</time>
      </trkpt>
      <trkpt lat="49.29937" lon="-0.68828">
        <ele>42.9</ele>
        <time>2021-08-18T09:19:06Z</time>
      </trkpt>
      <trkpt lat="49.29933" lon="-0.68811">
        <ele>43.2</ele>
        <time>2021-08-18T09:19:08Z</time>
      </trkpt>
      <trkpt lat="49.2993" lon="-0.68794">
        <ele>43.5</ele>
        <time>2021-08-18T09:19:10Z</time>
      </trkpt>
      <trkpt lat="49.29929" lon="-0.68785">
        <ele>43.7</ele>
        <time>2021-08-18T09:19:11Z</time>
      </trkpt>
      <trkpt lat="49.29927" lon="-0.68777">
        <ele>43.8</ele>
        <time>2021-08-18T09:19:12Z</time>
      </trkpt>
      <trkpt lat="49.29926" lon="-0.68768">
        <ele>44</ele>
        <time>2021-08-18T09:19:13Z</time>
      </trkpt>
      <trkpt lat="49.29925" lon="-0.68759">
        <ele>44.1</ele>
        <time>2021-08-18T09:19:14Z</time>
      </trkpt>
      <trkpt lat="49.29922" lon="-0.68741">
        <ele>44.5</ele>
        <time>2021-08-18T09:19:16Z</time>
      </trkpt>
      <trkpt lat="49.2992" lon="-0.68732">
        <ele>44.7</ele>
        <time>2021-08-18T09:19:17Z</time>
      </trkpt>
      <trkpt lat="49.29919" lon="-0.68723">
        <ele>44.9</ele>
        <time>2021-08-18T09:19:18Z</time>
      </trkpt>
      <trkpt lat="49.29918" lon="-0.68716">
        <ele>45.1</ele>
        <time>2021-08-18T09:19:19Z</time>
      </trkpt>
      <trkpt lat="49.29918" lon="-0.68701">
        <ele>45.4</ele>
        <time>2021-08-18T09:19:21Z</time>
      </trkpt>
      <trkpt lat="49.29917" lon="-0.68693">
        <ele>45.6</ele>
        <time>2021-08-18T09:19:22Z</time>
      </trkpt>
      <trkpt lat="49.29916" lon="-0.68687">
        <ele>45.8</ele>
        <time>2021-08-18T09:19:23Z</time>
      </trkpt>
      <trkpt lat="49.29915" lon="-0.68676">
        <ele>46</ele>
        <time>2021-08-18T09:19:25Z</time>
      </trkpt>
      <trkpt lat="49.29912" lon="-0.68665">
        <ele>46.4</ele>
        <time>2021-08-18T09:19:27Z</time>
      </trkpt>
      <trkpt lat="49.2991" lon="-0.68659">
        <ele>46.5</ele>
        <time>2021-08-18T09:19:28Z</time>
      </trkpt>
      <trkpt lat="49.29906" lon="-0.68648">
        <ele>46.9</ele>
        <time>2021-08-18T09:19:30Z</time>
      </trkpt>
      <trkpt lat="49.29902" lon="-0.6864">
        <ele>47.2</ele>
        <time>2021-08-18T09:19:32Z</time>
      </trkpt>
      <trkpt lat="49.299" lon="-0.68636">
        <ele>47.3</ele>
        <time>2021-08-18T09:19:34Z</time>
      </trkpt>
      <trkpt lat="49.299" lon="-0.68635">
        <ele>47.3</ele>
        <time>2021-08-18T09:19:35Z</time>
      </trkpt>
      <trkpt lat="49.29897" lon="-0.68628">
        <ele>47.5</ele>
        <time>2021-08-18T09:19:37Z</time>
      </trkpt>
      <trkpt lat="49.29896" lon="-0.68623">
        <ele>47.7</ele>
        <time>2021-08-18T09:19:38Z</time>
      </trkpt>
      <trkpt lat="49.29895" lon="-0.68618">
        <ele>47.8</ele>
        <time>2021-08-18T09:19:39Z</time>
      </trkpt>
      <trkpt lat="49.29892" lon="-0.68605">
        <ele>47.8</ele>
        <time>2021-08-18T09:19:41Z</time>
      </trkpt>
      <trkpt lat="49.29888" lon="-0.68592">
        <ele>47.6</ele>
        <time>2021-08-18T09:19:43Z</time>
      </trkpt>
      <trkpt lat="49.29885" lon="-0.68583">
        <ele>47.5</ele>
        <time>2021-08-18T09:19:44Z</time>
      </trkpt>
      <trkpt lat="49.2988" lon="-0.68567">
        <ele>47.4</ele>
        <time>2021-08-18T09:19:46Z</time>
      </trkpt>
      <trkpt lat="49.29877" lon="-0.68559">
        <ele>47.4</ele>
        <time>2021-08-18T09:19:47Z</time>
      </trkpt>
      <trkpt lat="49.29872" lon="-0.68542">
        <ele>47.5</ele>
        <time>2021-08-18T09:19:49Z</time>
      </trkpt>
      <trkpt lat="49.29869" lon="-0.68533">
        <ele>47.5</ele>
        <time>2021-08-18T09:19:50Z</time>
      </trkpt>
      <trkpt lat="49.29866" lon="-0.68525">
        <ele>47.6</ele>
        <time>2021-08-18T09:19:51Z</time>
      </trkpt>
      <trkpt lat="49.2986" lon="-0.68507">
        <ele>47.7</ele>
        <time>2021-08-18T09:19:53Z</time>
      </trkpt>
      <trkpt lat="49.29854" lon="-0.68491">
        <ele>47.9</ele>
        <time>2021-08-18T09:19:55Z</time>
      </trkpt>
      <trkpt lat="49.29848" lon="-0.68474">
        <ele>48.1</ele>
        <time>2021-08-18T09:19:57Z</time>
      </trkpt>
      <trkpt lat="49.29843" lon="-0.68457">
        <ele>48.4</ele>
        <time>2021-08-18T09:19:59Z</time>
      </trkpt>
      <trkpt lat="49.29838" lon="-0.68439">
        <ele>48.7</ele>
        <time>2021-08-18T09:20:01Z</time>
      </trkpt>
      <trkpt lat="49.29836" lon="-0.6843">
        <ele>48.8</ele>
        <time>2021-08-18T09:20:02Z</time>
      </trkpt>
      <trkpt lat="49.29834" lon="-0.68421">
        <ele>49</ele>
        <time>2021-08-18T09:20:03Z</time>
      </trkpt>
      <trkpt lat="49.29829" lon="-0.68403">
        <ele>49.2</ele>
        <time>2021-08-18T09:20:05Z</time>
      </trkpt>
      <trkpt lat="49.29827" lon="-0.68393">
        <ele>49.4</ele>
        <time>2021-08-18T09:20:06Z</time>
      </trkpt>
      <trkpt lat="49.29823" lon="-0.68376">
        <ele>49.6</ele>
        <time>2021-08-18T09:20:08Z</time>
      </trkpt>
      <trkpt lat="49.29821" lon="-0.68368">
        <ele>49.7</ele>
        <time>2021-08-18T09:20:09Z</time>
      </trkpt>
      <trkpt lat="49.29818" lon="-0.68359">
        <ele>49.8</ele>
        <time>2021-08-18T09:20:10Z</time>
      </trkpt>
      <trkpt lat="49.29814" lon="-0.68341">
        <ele>50.1</ele>
        <time>2021-08-18T09:20:12Z</time>
      </trkpt>
      <trkpt lat="49.2981" lon="-0.68323">
        <ele>50.3</ele>
        <time>2021-08-18T09:20:14Z</time>
      </trkpt>
      <trkpt lat="49.29807" lon="-0.68314">
        <ele>50.5</ele>
        <time>2021-08-18T09:20:15Z</time>
      </trkpt>
      <trkpt lat="49.29803" lon="-0.68296">
        <ele>50.8</ele>
        <time>2021-08-18T09:20:17Z</time>
      </trkpt>
      <trkpt lat="49.298" lon="-0.68287">
        <ele>50.9</ele>
        <time>2021-08-18T09:20:18Z</time>
      </trkpt>
      <trkpt lat="49.29796" lon="-0.68269">
        <ele>51.3</ele>
        <time>2021-08-18T09:20:20Z</time>
      </trkpt>
      <trkpt lat="49.29791" lon="-0.68251">
        <ele>51.6</ele>
        <time>2021-08-18T09:20:22Z</time>
      </trkpt>
      <trkpt lat="49.29787" lon="-0.68235">
        <ele>51.8</ele>
        <time>2021-08-18T09:20:24Z</time>
      </trkpt>
      <trkpt lat="49.29783" lon="-0.68218">
        <ele>52.1</ele>
        <time>2021-08-18T09:20:26Z</time>
      </trkpt>
      <trkpt lat="49.29779" lon="-0.682">
        <ele>52.3</ele>
        <time>2021-08-18T09:20:28Z</time>
      </trkpt>
      <trkpt lat="49.29777" lon="-0.68191">
        <ele>52.5</ele>
        <time>2021-08-18T09:20:29Z</time>
      </trkpt>
      <trkpt lat="49.29776" lon="-0.68182">
        <ele>52.6</ele>
        <time>2021-08-18T09:20:30Z</time>
      </trkpt>
      <trkpt lat="49.29773" lon="-0.68165">
        <ele>52.8</ele>
        <time>2021-08-18T09:20:32Z</time>
      </trkpt>
      <trkpt lat="49.29771" lon="-0.68156">
        <ele>52.9</ele>
        <time>2021-08-18T09:20:33Z</time>
      </trkpt>
      <trkpt lat="49.29769" lon="-0.68147">
        <ele>53</ele>
        <time>2021-08-18T09:20:34Z</time>
      </trkpt>
      <trkpt lat="49.29766" lon="-0.68129">
        <ele>53.2</ele>
        <time>2021-08-18T09:20:36Z</time>
      </trkpt>
      <trkpt lat="49.29762" lon="-0.6811">
        <ele>53.4</ele>
        <time>2021-08-18T09:20:38Z</time>
      </trkpt>
      <trkpt lat="49.29759" lon="-0.68092">
        <ele>53.6</ele>
        <time>2021-08-18T09:20:40Z</time>
      </trkpt>
      <trkpt lat="49.29758" lon="-0.68083">
        <ele>53.7</ele>
        <time>2021-08-18T09:20:41Z</time>
      </trkpt>
      <trkpt lat="49.29755" lon="-0.68064">
        <ele>53.8</ele>
        <time>2021-08-18T09:20:43Z</time>
      </trkpt>
      <trkpt lat="49.29753" lon="-0.68055">
        <ele>53.9</ele>
        <time>2021-08-18T09:20:44Z</time>
      </trkpt>
      <trkpt lat="49.2975" lon="-0.68036">
        <ele>54.1</ele>
        <time>2021-08-18T09:20:46Z</time>
      </trkpt>
      <trkpt lat="49.29749" lon="-0.68027">
        <ele>54.2</ele>
        <time>2021-08-18T09:20:47Z</time>
      </trkpt>
      <trkpt lat="49.29746" lon="-0.68009">
        <ele>54.4</ele>
        <time>2021-08-18T09:20:49Z</time>
      </trkpt>
      <trkpt lat="49.29743" lon="-0.67993">
        <ele>54.6</ele>
        <time>2021-08-18T09:20:51Z</time>
      </trkpt>
      <trkpt lat="49.2974" lon="-0.67974">
        <ele>54.7</ele>
        <time>2021-08-18T09:20:53Z</time>
      </trkpt>
      <trkpt lat="49.29737" lon="-0.67956">
        <ele>54.8</ele>
        <time>2021-08-18T09:20:55Z</time>
      </trkpt>
      <trkpt lat="49.29735" lon="-0.67938">
        <ele>55</ele>
        <time>2021-08-18T09:20:57Z</time>
      </trkpt>
      <trkpt lat="49.29734" lon="-0.67929">
        <ele>55.1</ele>
        <time>2021-08-18T09:20:58Z</time>
      </trkpt>
      <trkpt lat="49.29733" lon="-0.6792">
        <ele>55.1</ele>
        <time>2021-08-18T09:20:59Z</time>
      </trkpt>
      <trkpt lat="49.29731" lon="-0.67901">
        <ele>55.3</ele>
        <time>2021-08-18T09:21:01Z</time>
      </trkpt>
      <trkpt lat="49.29729" lon="-0.67892">
        <ele>55.3</ele>
        <time>2021-08-18T09:21:02Z</time>
      </trkpt>
      <trkpt lat="49.29727" lon="-0.67874">
        <ele>55.5</ele>
        <time>2021-08-18T09:21:04Z</time>
      </trkpt>
      <trkpt lat="49.29726" lon="-0.67864">
        <ele>55.6</ele>
        <time>2021-08-18T09:21:05Z</time>
      </trkpt>
      <trkpt lat="49.29723" lon="-0.67846">
        <ele>55.7</ele>
        <time>2021-08-18T09:21:07Z</time>
      </trkpt>
      <trkpt lat="49.29721" lon="-0.67828">
        <ele>55.9</ele>
        <time>2021-08-18T09:21:09Z</time>
      </trkpt>
      <trkpt lat="49.29721" lon="-0.6781">
        <ele>56.1</ele>
        <time>2021-08-18T09:21:11Z</time>
      </trkpt>
      <trkpt lat="49.29721" lon="-0.67801">
        <ele>56.1</ele>
        <time>2021-08-18T09:21:12Z</time>
      </trkpt>
      <trkpt lat="49.29721" lon="-0.67783">
        <ele>56.3</ele>
        <time>2021-08-18T09:21:14Z</time>
      </trkpt>
      <trkpt lat="49.2972" lon="-0.67766">
        <ele>56.5</ele>
        <time>2021-08-18T09:21:16Z</time>
      </trkpt>
      <trkpt lat="49.29718" lon="-0.67749">
        <ele>56.7</ele>
        <time>2021-08-18T09:21:18Z</time>
      </trkpt>
      <trkpt lat="49.29716" lon="-0.67734">
        <ele>56.9</ele>
        <time>2021-08-18T09:21:20Z</time>
      </trkpt>
      <trkpt lat="49.29715" lon="-0.67726">
        <ele>56.9</ele>
        <time>2021-08-18T09:21:21Z</time>
      </trkpt>
      <trkpt lat="49.29714" lon="-0.67711">
        <ele>57.1</ele>
        <time>2021-08-18T09:21:23Z</time>
      </trkpt>
      <trkpt lat="49.29713" lon="-0.67694">
        <ele>57.3</ele>
        <time>2021-08-18T09:21:25Z</time>
      </trkpt>
      <trkpt lat="49.29712" lon="-0.67678">
        <ele>57.5</ele>
        <time>2021-08-18T09:21:27Z</time>
      </trkpt>
      <trkpt lat="49.29712" lon="-0.67671">
        <ele>57.6</ele>
        <time>2021-08-18T09:21:28Z</time>
      </trkpt>
      <trkpt lat="49.29711" lon="-0.67656">
        <ele>57.7</ele>
        <time>2021-08-18T09:21:30Z</time>
      </trkpt>
      <trkpt lat="49.2971" lon="-0.67638">
        <ele>57.9</ele>
        <time>2021-08-18T09:21:32Z</time>
      </trkpt>
      <trkpt lat="49.29709" lon="-0.67629">
        <ele>57.9</ele>
        <time>2021-08-18T09:21:33Z</time>
      </trkpt>
      <trkpt lat="49.29708" lon="-0.6762">
        <ele>58</ele>
        <time>2021-08-18T09:21:34Z</time>
      </trkpt>
      <trkpt lat="49.29707" lon="-0.67611">
        <ele>58.1</ele>
        <time>2021-08-18T09:21:35Z</time>
      </trkpt>
      <trkpt lat="49.29706" lon="-0.67592">
        <ele>58.2</ele>
        <time>2021-08-18T09:21:37Z</time>
      </trkpt>
      <trkpt lat="49.29705" lon="-0.67583">
        <ele>58.3</ele>
        <time>2021-08-18T09:21:38Z</time>
      </trkpt>
      <trkpt lat="49.29702" lon="-0.67567">
        <ele>58.4</ele>
        <time>2021-08-18T09:21:40Z</time>
      </trkpt>
      <trkpt lat="49.29702" lon="-0.6756">
        <ele>58.4</ele>
        <time>2021-08-18T09:21:41Z</time>
      </trkpt>
      <trkpt lat="49.29701" lon="-0.67545">
        <ele>58.5</ele>
        <time>2021-08-18T09:21:43Z</time>
      </trkpt>
      <trkpt lat="49.297" lon="-0.67536">
        <ele>58.6</ele>
        <time>2021-08-18T09:21:44Z</time>
      </trkpt>
      <trkpt lat="49.297" lon="-0.67529">
        <ele>58.6</ele>
        <time>2021-08-18T09:21:45Z</time>
      </trkpt>
      <trkpt lat="49.29699" lon="-0.67521">
        <ele>58.7</ele>
        <time>2021-08-18T09:21:46Z</time>
      </trkpt>
      <trkpt lat="49.29698" lon="-0.67506">
        <ele>58.7</ele>
        <time>2021-08-18T09:21:48Z</time>
      </trkpt>
      <trkpt lat="49.29698" lon="-0.67499">
        <ele>58.7</ele>
        <time>2021-08-18T09:21:49Z</time>
      </trkpt>
      <trkpt lat="49.29697" lon="-0.67484">
        <ele>58.7</ele>
        <time>2021-08-18T09:21:51Z</time>
      </trkpt>
      <trkpt lat="49.29695" lon="-0.67465">
        <ele>58.7</ele>
        <time>2021-08-18T09:21:53Z</time>
      </trkpt>
      <trkpt lat="49.29693" lon="-0.67455">
        <ele>58.7</ele>
        <time>2021-08-18T09:21:54Z</time>
      </trkpt>
      <trkpt lat="49.29691" lon="-0.67434">
        <ele>58.6</ele>
        <time>2021-08-18T09:21:56Z</time>
      </trkpt>
      <trkpt lat="49.2969" lon="-0.67422">
        <ele>58.6</ele>
        <time>2021-08-18T09:21:57Z</time>
      </trkpt>
      <trkpt lat="49.29686" lon="-0.674">
        <ele>58.6</ele>
        <time>2021-08-18T09:21:59Z</time>
      </trkpt>
      <trkpt lat="49.29685" lon="-0.67376">
        <ele>58.5</ele>
        <time>2021-08-18T09:22:01Z</time>
      </trkpt>
      <trkpt lat="49.29683" lon="-0.67353">
        <ele>58.5</ele>
        <time>2021-08-18T09:22:03Z</time>
      </trkpt>
      <trkpt lat="49.29683" lon="-0.67341">
        <ele>58.5</ele>
        <time>2021-08-18T09:22:04Z</time>
      </trkpt>
      <trkpt lat="49.29682" lon="-0.6733">
        <ele>58.5</ele>
        <time>2021-08-18T09:22:05Z</time>
      </trkpt>
      <trkpt lat="49.29679" lon="-0.67308">
        <ele>58.4</ele>
        <time>2021-08-18T09:22:07Z</time>
      </trkpt>
      <trkpt lat="49.29678" lon="-0.67285">
        <ele>58.4</ele>
        <time>2021-08-18T09:22:09Z</time>
      </trkpt>
      <trkpt lat="49.29677" lon="-0.67273">
        <ele>58.5</ele>
        <time>2021-08-18T09:22:10Z</time>
      </trkpt>
      <trkpt lat="49.29676" lon="-0.67261">
        <ele>58.5</ele>
        <time>2021-08-18T09:22:11Z</time>
      </trkpt>
      <trkpt lat="49.29674" lon="-0.67249">
        <ele>58.6</ele>
        <time>2021-08-18T09:22:12Z</time>
      </trkpt>
      <trkpt lat="49.29674" lon="-0.67237">
        <ele>58.6</ele>
        <time>2021-08-18T09:22:13Z</time>
      </trkpt>
      <trkpt lat="49.29673" lon="-0.67225">
        <ele>58.7</ele>
        <time>2021-08-18T09:22:14Z</time>
      </trkpt>
      <trkpt lat="49.29672" lon="-0.67214">
        <ele>58.8</ele>
        <time>2021-08-18T09:22:15Z</time>
      </trkpt>
      <trkpt lat="49.29672" lon="-0.67203">
        <ele>58.9</ele>
        <time>2021-08-18T09:22:16Z</time>
      </trkpt>
      <trkpt lat="49.2967" lon="-0.67192">
        <ele>59</ele>
        <time>2021-08-18T09:22:17Z</time>
      </trkpt>
      <trkpt lat="49.29668" lon="-0.6717">
        <ele>59.2</ele>
        <time>2021-08-18T09:22:19Z</time>
      </trkpt>
      <trkpt lat="49.29664" lon="-0.67149">
        <ele>59.5</ele>
        <time>2021-08-18T09:22:21Z</time>
      </trkpt>
      <trkpt lat="49.2966" lon="-0.6713">
        <ele>59.6</ele>
        <time>2021-08-18T09:22:23Z</time>
      </trkpt>
      <trkpt lat="49.29655" lon="-0.67109">
        <ele>59.6</ele>
        <time>2021-08-18T09:22:25Z</time>
      </trkpt>
      <trkpt lat="49.29653" lon="-0.67099">
        <ele>59.6</ele>
        <time>2021-08-18T09:22:26Z</time>
      </trkpt>
      <trkpt lat="49.2965" lon="-0.67087">
        <ele>59.5</ele>
        <time>2021-08-18T09:22:27Z</time>
      </trkpt>
      <trkpt lat="49.29645" lon="-0.67065">
        <ele>59.3</ele>
        <time>2021-08-18T09:22:29Z</time>
      </trkpt>
      <trkpt lat="49.29639" lon="-0.67043">
        <ele>59</ele>
        <time>2021-08-18T09:22:31Z</time>
      </trkpt>
      <trkpt lat="49.29636" lon="-0.67032">
        <ele>58.9</ele>
        <time>2021-08-18T09:22:32Z</time>
      </trkpt>
      <trkpt lat="49.29633" lon="-0.67021">
        <ele>58.7</ele>
        <time>2021-08-18T09:22:33Z</time>
      </trkpt>
      <trkpt lat="49.29626" lon="-0.67">
        <ele>58.3</ele>
        <time>2021-08-18T09:22:35Z</time>
      </trkpt>
      <trkpt lat="49.29623" lon="-0.66989">
        <ele>58.1</ele>
        <time>2021-08-18T09:22:36Z</time>
      </trkpt>
      <trkpt lat="49.29616" lon="-0.66966">
        <ele>57.7</ele>
        <time>2021-08-18T09:22:38Z</time>
      </trkpt>
      <trkpt lat="49.29609" lon="-0.66943">
        <ele>57.5</ele>
        <time>2021-08-18T09:22:40Z</time>
      </trkpt>
      <trkpt lat="49.29602" lon="-0.66919">
        <ele>57.5</ele>
        <time>2021-08-18T09:22:42Z</time>
      </trkpt>
      <trkpt lat="49.29599" lon="-0.66908">
        <ele>57.5</ele>
        <time>2021-08-18T09:22:43Z</time>
      </trkpt>
      <trkpt lat="49.29596" lon="-0.66897">
        <ele>57.5</ele>
        <time>2021-08-18T09:22:44Z</time>
      </trkpt>
      <trkpt lat="49.2959" lon="-0.66875">
        <ele>57.7</ele>
        <time>2021-08-18T09:22:46Z</time>
      </trkpt>
      <trkpt lat="49.29584" lon="-0.66853">
        <ele>58.1</ele>
        <time>2021-08-18T09:22:48Z</time>
      </trkpt>
      <trkpt lat="49.29581" lon="-0.66843">
        <ele>58.4</ele>
        <time>2021-08-18T09:22:49Z</time>
      </trkpt>
      <trkpt lat="49.29576" lon="-0.66821">
        <ele>59.2</ele>
        <time>2021-08-18T09:22:51Z</time>
      </trkpt>
      <trkpt lat="49.29574" lon="-0.6681">
        <ele>59.6</ele>
        <time>2021-08-18T09:22:52Z</time>
      </trkpt>
      <trkpt lat="49.29572" lon="-0.66789">
        <ele>60.3</ele>
        <time>2021-08-18T09:22:54Z</time>
      </trkpt>
      <trkpt lat="49.29569" lon="-0.66768">
        <ele>60.9</ele>
        <time>2021-08-18T09:22:56Z</time>
      </trkpt>
      <trkpt lat="49.29566" lon="-0.66749">
        <ele>61.2</ele>
        <time>2021-08-18T09:22:58Z</time>
      </trkpt>
      <trkpt lat="49.29563" lon="-0.66739">
        <ele>61.3</ele>
        <time>2021-08-18T09:22:59Z</time>
      </trkpt>
      <trkpt lat="49.2956" lon="-0.6673">
        <ele>61.4</ele>
        <time>2021-08-18T09:23:00Z</time>
      </trkpt>
      <trkpt lat="49.29557" lon="-0.6672">
        <ele>61.5</ele>
        <time>2021-08-18T09:23:01Z</time>
      </trkpt>
      <trkpt lat="49.29549" lon="-0.66701">
        <ele>61.8</ele>
        <time>2021-08-18T09:23:03Z</time>
      </trkpt>
      <trkpt lat="49.29542" lon="-0.66682">
        <ele>62</ele>
        <time>2021-08-18T09:23:05Z</time>
      </trkpt>
      <trkpt lat="49.29535" lon="-0.66663">
        <ele>62.1</ele>
        <time>2021-08-18T09:23:07Z</time>
      </trkpt>
      <trkpt lat="49.29532" lon="-0.66654">
        <ele>62.2</ele>
        <time>2021-08-18T09:23:08Z</time>
      </trkpt>
      <trkpt lat="49.29525" lon="-0.66635">
        <ele>62.3</ele>
        <time>2021-08-18T09:23:10Z</time>
      </trkpt>
      <trkpt lat="49.29522" lon="-0.66625">
        <ele>62.4</ele>
        <time>2021-08-18T09:23:11Z</time>
      </trkpt>
      <trkpt lat="49.29515" lon="-0.66606">
        <ele>62.5</ele>
        <time>2021-08-18T09:23:13Z</time>
      </trkpt>
      <trkpt lat="49.29507" lon="-0.66586">
        <ele>62.6</ele>
        <time>2021-08-18T09:23:15Z</time>
      </trkpt>
      <trkpt lat="49.29504" lon="-0.66576">
        <ele>62.6</ele>
        <time>2021-08-18T09:23:16Z</time>
      </trkpt>
      <trkpt lat="49.29502" lon="-0.66566">
        <ele>62.7</ele>
        <time>2021-08-18T09:23:17Z</time>
      </trkpt>
      <trkpt lat="49.295" lon="-0.66546">
        <ele>62.7</ele>
        <time>2021-08-18T09:23:19Z</time>
      </trkpt>
      <trkpt lat="49.29498" lon="-0.66535">
        <ele>62.8</ele>
        <time>2021-08-18T09:23:20Z</time>
      </trkpt>
      <trkpt lat="49.29492" lon="-0.66516">
        <ele>62.8</ele>
        <time>2021-08-18T09:23:22Z</time>
      </trkpt>
      <trkpt lat="49.29485" lon="-0.66497">
        <ele>62.8</ele>
        <time>2021-08-18T09:23:24Z</time>
      </trkpt>
      <trkpt lat="49.29481" lon="-0.66487">
        <ele>62.9</ele>
        <time>2021-08-18T09:23:25Z</time>
      </trkpt>
      <trkpt lat="49.29473" lon="-0.66467">
        <ele>62.9</ele>
        <time>2021-08-18T09:23:27Z</time>
      </trkpt>
      <trkpt lat="49.29469" lon="-0.66457">
        <ele>62.9</ele>
        <time>2021-08-18T09:23:28Z</time>
      </trkpt>
      <trkpt lat="49.29464" lon="-0.66447">
        <ele>62.9</ele>
        <time>2021-08-18T09:23:29Z</time>
      </trkpt>
      <trkpt lat="49.29456" lon="-0.66427">
        <ele>62.9</ele>
        <time>2021-08-18T09:23:31Z</time>
      </trkpt>
      <trkpt lat="49.29448" lon="-0.66407">
        <ele>62.9</ele>
        <time>2021-08-18T09:23:33Z</time>
      </trkpt>
      <trkpt lat="49.2944" lon="-0.66388">
        <ele>63</ele>
        <time>2021-08-18T09:23:35Z</time>
      </trkpt>
      <trkpt lat="49.29436" lon="-0.66378">
        <ele>63</ele>
        <time>2021-08-18T09:23:36Z</time>
      </trkpt>
      <trkpt lat="49.29428" lon="-0.66359">
        <ele>63</ele>
        <time>2021-08-18T09:23:38Z</time>
      </trkpt>
      <trkpt lat="49.29425" lon="-0.6635">
        <ele>63</ele>
        <time>2021-08-18T09:23:39Z</time>
      </trkpt>
      <trkpt lat="49.29417" lon="-0.6633">
        <ele>63</ele>
        <time>2021-08-18T09:23:41Z</time>
      </trkpt>
      <trkpt lat="49.29409" lon="-0.66311">
        <ele>63.1</ele>
        <time>2021-08-18T09:23:43Z</time>
      </trkpt>
      <trkpt lat="49.29404" lon="-0.66301">
        <ele>63.1</ele>
        <time>2021-08-18T09:23:44Z</time>
      </trkpt>
      <trkpt lat="49.294" lon="-0.66291">
        <ele>63.1</ele>
        <time>2021-08-18T09:23:45Z</time>
      </trkpt>
      <trkpt lat="49.29393" lon="-0.66271">
        <ele>63.2</ele>
        <time>2021-08-18T09:23:47Z</time>
      </trkpt>
      <trkpt lat="49.29389" lon="-0.66261">
        <ele>63.2</ele>
        <time>2021-08-18T09:23:48Z</time>
      </trkpt>
      <trkpt lat="49.29382" lon="-0.66242">
        <ele>63.3</ele>
        <time>2021-08-18T09:23:50Z</time>
      </trkpt>
      <trkpt lat="49.29378" lon="-0.66232">
        <ele>63.3</ele>
        <time>2021-08-18T09:23:51Z</time>
      </trkpt>
      <trkpt lat="49.2937" lon="-0.66215">
        <ele>63.3</ele>
        <time>2021-08-18T09:23:53Z</time>
      </trkpt>
      <trkpt lat="49.29361" lon="-0.66201">
        <ele>63.4</ele>
        <time>2021-08-18T09:23:55Z</time>
      </trkpt>
      <trkpt lat="49.29356" lon="-0.66193">
        <ele>63.4</ele>
        <time>2021-08-18T09:23:56Z</time>
      </trkpt>
      <trkpt lat="49.29346" lon="-0.66178">
        <ele>63.6</ele>
        <time>2021-08-18T09:23:58Z</time>
      </trkpt>
      <trkpt lat="49.29336" lon="-0.66164">
        <ele>63.7</ele>
        <time>2021-08-18T09:24:00Z</time>
      </trkpt>
      <trkpt lat="49.2933" lon="-0.66157">
        <ele>63.7</ele>
        <time>2021-08-18T09:24:01Z</time>
      </trkpt>
      <trkpt lat="49.29317" lon="-0.66143">
        <ele>63.8</ele>
        <time>2021-08-18T09:24:03Z</time>
      </trkpt>
      <trkpt lat="49.29311" lon="-0.66138">
        <ele>63.8</ele>
        <time>2021-08-18T09:24:04Z</time>
      </trkpt>
      <trkpt lat="49.29298" lon="-0.66128">
        <ele>63.8</ele>
        <time>2021-08-18T09:24:06Z</time>
      </trkpt>
      <trkpt lat="49.29285" lon="-0.66118">
        <ele>63.8</ele>
        <time>2021-08-18T09:24:08Z</time>
      </trkpt>
      <trkpt lat="49.29278" lon="-0.66113">
        <ele>63.8</ele>
        <time>2021-08-18T09:24:09Z</time>
      </trkpt>
      <trkpt lat="49.29265" lon="-0.66101">
        <ele>63.8</ele>
        <time>2021-08-18T09:24:11Z</time>
      </trkpt>
      <trkpt lat="49.29252" lon="-0.66087">
        <ele>63.8</ele>
        <time>2021-08-18T09:24:13Z</time>
      </trkpt>
      <trkpt lat="49.29246" lon="-0.66079">
        <ele>63.8</ele>
        <time>2021-08-18T09:24:14Z</time>
      </trkpt>
      <trkpt lat="49.29234" lon="-0.66063">
        <ele>63.9</ele>
        <time>2021-08-18T09:24:16Z</time>
      </trkpt>
      <trkpt lat="49.29222" lon="-0.66047">
        <ele>64</ele>
        <time>2021-08-18T09:24:18Z</time>
      </trkpt>
      <trkpt lat="49.29216" lon="-0.66039">
        <ele>64</ele>
        <time>2021-08-18T09:24:19Z</time>
      </trkpt>
      <trkpt lat="49.2921" lon="-0.66031">
        <ele>64.1</ele>
        <time>2021-08-18T09:24:20Z</time>
      </trkpt>
      <trkpt lat="49.29204" lon="-0.66024">
        <ele>64.1</ele>
        <time>2021-08-18T09:24:21Z</time>
      </trkpt>
      <trkpt lat="49.29192" lon="-0.66011">
        <ele>64.2</ele>
        <time>2021-08-18T09:24:23Z</time>
      </trkpt>
      <trkpt lat="49.2918" lon="-0.66002">
        <ele>64.2</ele>
        <time>2021-08-18T09:24:25Z</time>
      </trkpt>
      <trkpt lat="49.29168" lon="-0.65991">
        <ele>64.3</ele>
        <time>2021-08-18T09:24:27Z</time>
      </trkpt>
      <trkpt lat="49.29156" lon="-0.65978">
        <ele>64.4</ele>
        <time>2021-08-18T09:24:29Z</time>
      </trkpt>
      <trkpt lat="49.29149" lon="-0.65971">
        <ele>64.4</ele>
        <time>2021-08-18T09:24:30Z</time>
      </trkpt>
      <trkpt lat="49.29143" lon="-0.65963">
        <ele>64.4</ele>
        <time>2021-08-18T09:24:31Z</time>
      </trkpt>
      <trkpt lat="49.29131" lon="-0.65949">
        <ele>64.5</ele>
        <time>2021-08-18T09:24:33Z</time>
      </trkpt>
      <trkpt lat="49.29118" lon="-0.65935">
        <ele>64.6</ele>
        <time>2021-08-18T09:24:35Z</time>
      </trkpt>
      <trkpt lat="49.29113" lon="-0.65926">
        <ele>64.6</ele>
        <time>2021-08-18T09:24:36Z</time>
      </trkpt>
      <trkpt lat="49.29111" lon="-0.65905">
        <ele>64.8</ele>
        <time>2021-08-18T09:24:38Z</time>
      </trkpt>
      <trkpt lat="49.29112" lon="-0.65882">
        <ele>64.8</ele>
        <time>2021-08-18T09:24:40Z</time>
      </trkpt>
      <trkpt lat="49.29116" lon="-0.65859">
        <ele>64.8</ele>
        <time>2021-08-18T09:24:42Z</time>
      </trkpt>
      <trkpt lat="49.29117" lon="-0.65847">
        <ele>64.8</ele>
        <time>2021-08-18T09:24:43Z</time>
      </trkpt>
      <trkpt lat="49.29118" lon="-0.65822">
        <ele>64.8</ele>
        <time>2021-08-18T09:24:45Z</time>
      </trkpt>
      <trkpt lat="49.29119" lon="-0.6581">
        <ele>64.8</ele>
        <time>2021-08-18T09:24:46Z</time>
      </trkpt>
      <trkpt lat="49.2912" lon="-0.65798">
        <ele>64.8</ele>
        <time>2021-08-18T09:24:47Z</time>
      </trkpt>
      <trkpt lat="49.29121" lon="-0.65775">
        <ele>64.9</ele>
        <time>2021-08-18T09:24:49Z</time>
      </trkpt>
      <trkpt lat="49.29121" lon="-0.65753">
        <ele>65</ele>
        <time>2021-08-18T09:24:51Z</time>
      </trkpt>
      <trkpt lat="49.29121" lon="-0.65735">
        <ele>65.1</ele>
        <time>2021-08-18T09:24:53Z</time>
      </trkpt>
      <trkpt lat="49.29121" lon="-0.65729">
        <ele>65.1</ele>
        <time>2021-08-18T09:24:54Z</time>
      </trkpt>
      <trkpt lat="49.29123" lon="-0.65724">
        <ele>65.1</ele>
        <time>2021-08-18T09:24:55Z</time>
      </trkpt>
      <trkpt lat="49.29126" lon="-0.65721">
        <ele>65.1</ele>
        <time>2021-08-18T09:24:56Z</time>
      </trkpt>
      <trkpt lat="49.29129" lon="-0.65718">
        <ele>65.1</ele>
        <time>2021-08-18T09:24:58Z</time>
      </trkpt>
      <trkpt lat="49.29138" lon="-0.65715">
        <ele>65</ele>
        <time>2021-08-18T09:25:00Z</time>
      </trkpt>
      <trkpt lat="49.29142" lon="-0.65714">
        <ele>65</ele>
        <time>2021-08-18T09:25:01Z</time>
      </trkpt>
      <trkpt lat="49.29146" lon="-0.65713">
        <ele>64.9</ele>
        <time>2021-08-18T09:25:02Z</time>
      </trkpt>
      <trkpt lat="49.29152" lon="-0.65713">
        <ele>64.9</ele>
        <time>2021-08-18T09:25:04Z</time>
      </trkpt>
      <trkpt lat="49.29159" lon="-0.65712">
        <ele>64.8</ele>
        <time>2021-08-18T09:25:06Z</time>
      </trkpt>
      <trkpt lat="49.29164" lon="-0.65712">
        <ele>64.8</ele>
        <time>2021-08-18T09:25:07Z</time>
      </trkpt>
      <trkpt lat="49.29175" lon="-0.65709">
        <ele>64.8</ele>
        <time>2021-08-18T09:25:09Z</time>
      </trkpt>
      <trkpt lat="49.2918" lon="-0.65708">
        <ele>64.7</ele>
        <time>2021-08-18T09:25:10Z</time>
      </trkpt>
      <trkpt lat="49.29186" lon="-0.65708">
        <ele>64.7</ele>
        <time>2021-08-18T09:25:11Z</time>
      </trkpt>
      <trkpt lat="49.29199" lon="-0.65708">
        <ele>64.6</ele>
        <time>2021-08-18T09:25:13Z</time>
      </trkpt>
      <trkpt lat="49.29213" lon="-0.65707">
        <ele>64.4</ele>
        <time>2021-08-18T09:25:15Z</time>
      </trkpt>
      <trkpt lat="49.29227" lon="-0.65706">
        <ele>64.3</ele>
        <time>2021-08-18T09:25:17Z</time>
      </trkpt>
      <trkpt lat="49.29241" lon="-0.65706">
        <ele>64.2</ele>
        <time>2021-08-18T09:25:19Z</time>
      </trkpt>
      <trkpt lat="49.29254" lon="-0.65704">
        <ele>64.1</ele>
        <time>2021-08-18T09:25:21Z</time>
      </trkpt>
      <trkpt lat="49.29268" lon="-0.65703">
        <ele>64</ele>
        <time>2021-08-18T09:25:23Z</time>
      </trkpt>
      <trkpt lat="49.29281" lon="-0.65701">
        <ele>63.9</ele>
        <time>2021-08-18T09:25:25Z</time>
      </trkpt>
      <trkpt lat="49.29288" lon="-0.657">
        <ele>63.9</ele>
        <time>2021-08-18T09:25:26Z</time>
      </trkpt>
      <trkpt lat="49.29301" lon="-0.65697">
        <ele>63.9</ele>
        <time>2021-08-18T09:25:28Z</time>
      </trkpt>
      <trkpt lat="49.29307" lon="-0.65694">
        <ele>63.8</ele>
        <time>2021-08-18T09:25:29Z</time>
      </trkpt>
      <trkpt lat="49.29315" lon="-0.65679">
        <ele>63.7</ele>
        <time>2021-08-18T09:25:31Z</time>
      </trkpt>
      <trkpt lat="49.29316" lon="-0.65668">
        <ele>63.6</ele>
        <time>2021-08-18T09:25:32Z</time>
      </trkpt>
      <trkpt lat="49.29316" lon="-0.65658">
        <ele>63.5</ele>
        <time>2021-08-18T09:25:33Z</time>
      </trkpt>
      <trkpt lat="49.29316" lon="-0.65638">
        <ele>63.4</ele>
        <time>2021-08-18T09:25:35Z</time>
      </trkpt>
      <trkpt lat="49.29315" lon="-0.65628">
        <ele>63.3</ele>
        <time>2021-08-18T09:25:36Z</time>
      </trkpt>
      <trkpt lat="49.29314" lon="-0.65605">
        <ele>63.3</ele>
        <time>2021-08-18T09:25:38Z</time>
      </trkpt>
      <trkpt lat="49.29313" lon="-0.65584">
        <ele>63.1</ele>
        <time>2021-08-18T09:25:40Z</time>
      </trkpt>
      <trkpt lat="49.29312" lon="-0.65573">
        <ele>63.1</ele>
        <time>2021-08-18T09:25:41Z</time>
      </trkpt>
      <trkpt lat="49.29311" lon="-0.65562">
        <ele>63</ele>
        <time>2021-08-18T09:25:42Z</time>
      </trkpt>
      <trkpt lat="49.29308" lon="-0.65541">
        <ele>62.9</ele>
        <time>2021-08-18T09:25:44Z</time>
      </trkpt>
      <trkpt lat="49.29306" lon="-0.65529">
        <ele>62.8</ele>
        <time>2021-08-18T09:25:45Z</time>
      </trkpt>
      <trkpt lat="49.29305" lon="-0.65518">
        <ele>62.7</ele>
        <time>2021-08-18T09:25:46Z</time>
      </trkpt>
      <trkpt lat="49.29304" lon="-0.65496">
        <ele>62.5</ele>
        <time>2021-08-18T09:25:48Z</time>
      </trkpt>
      <trkpt lat="49.29304" lon="-0.65485">
        <ele>62.4</ele>
        <time>2021-08-18T09:25:49Z</time>
      </trkpt>
      <trkpt lat="49.29303" lon="-0.65464">
        <ele>62.2</ele>
        <time>2021-08-18T09:25:51Z</time>
      </trkpt>
      <trkpt lat="49.29303" lon="-0.65453">
        <ele>62.1</ele>
        <time>2021-08-18T09:25:52Z</time>
      </trkpt>
      <trkpt lat="49.29302" lon="-0.65432">
        <ele>61.9</ele>
        <time>2021-08-18T09:25:54Z</time>
      </trkpt>
      <trkpt lat="49.29303" lon="-0.65412">
        <ele>61.8</ele>
        <time>2021-08-18T09:25:56Z</time>
      </trkpt>
      <trkpt lat="49.29303" lon="-0.65402">
        <ele>61.7</ele>
        <time>2021-08-18T09:25:57Z</time>
      </trkpt>
      <trkpt lat="49.29304" lon="-0.65393">
        <ele>61.7</ele>
        <time>2021-08-18T09:25:58Z</time>
      </trkpt>
      <trkpt lat="49.293" lon="-0.65387">
        <ele>61.8</ele>
        <time>2021-08-18T09:25:59Z</time>
      </trkpt>
      <trkpt lat="49.2929" lon="-0.65383">
        <ele>61.9</ele>
        <time>2021-08-18T09:26:01Z</time>
      </trkpt>
      <trkpt lat="49.2928" lon="-0.65375">
        <ele>62</ele>
        <time>2021-08-18T09:26:03Z</time>
      </trkpt>
      <trkpt lat="49.29277" lon="-0.65367">
        <ele>62.1</ele>
        <time>2021-08-18T09:26:04Z</time>
      </trkpt>
      <trkpt lat="49.29271" lon="-0.6535">
        <ele>62.2</ele>
        <time>2021-08-18T09:26:06Z</time>
      </trkpt>
      <trkpt lat="49.29265" lon="-0.65332">
        <ele>62.3</ele>
        <time>2021-08-18T09:26:08Z</time>
      </trkpt>
      <trkpt lat="49.2926" lon="-0.65314">
        <ele>62.3</ele>
        <time>2021-08-18T09:26:10Z</time>
      </trkpt>
      <trkpt lat="49.29257" lon="-0.65305">
        <ele>62.3</ele>
        <time>2021-08-18T09:26:11Z</time>
      </trkpt>
      <trkpt lat="49.29252" lon="-0.65288">
        <ele>62.2</ele>
        <time>2021-08-18T09:26:13Z</time>
      </trkpt>
      <trkpt lat="49.29249" lon="-0.65279">
        <ele>62.2</ele>
        <time>2021-08-18T09:26:14Z</time>
      </trkpt>
      <trkpt lat="49.29246" lon="-0.65271">
        <ele>62.2</ele>
        <time>2021-08-18T09:26:15Z</time>
      </trkpt>
      <trkpt lat="49.2924" lon="-0.65254">
        <ele>62.1</ele>
        <time>2021-08-18T09:26:17Z</time>
      </trkpt>
      <trkpt lat="49.29238" lon="-0.65245">
        <ele>62</ele>
        <time>2021-08-18T09:26:18Z</time>
      </trkpt>
      <trkpt lat="49.29233" lon="-0.6523">
        <ele>62</ele>
        <time>2021-08-18T09:26:20Z</time>
      </trkpt>
      <trkpt lat="49.29232" lon="-0.65222">
        <ele>62</ele>
        <time>2021-08-18T09:26:21Z</time>
      </trkpt>
      <trkpt lat="49.2923" lon="-0.65204">
        <ele>61.8</ele>
        <time>2021-08-18T09:26:23Z</time>
      </trkpt>
      <trkpt lat="49.29224" lon="-0.65188">
        <ele>61.6</ele>
        <time>2021-08-18T09:26:25Z</time>
      </trkpt>
      <trkpt lat="49.29215" lon="-0.65173">
        <ele>61.4</ele>
        <time>2021-08-18T09:26:27Z</time>
      </trkpt>
      <trkpt lat="49.29209" lon="-0.65165">
        <ele>61.2</ele>
        <time>2021-08-18T09:26:28Z</time>
      </trkpt>
      <trkpt lat="49.29199" lon="-0.6515">
        <ele>60.7</ele>
        <time>2021-08-18T09:26:30Z</time>
      </trkpt>
      <trkpt lat="49.29188" lon="-0.65134">
        <ele>60.2</ele>
        <time>2021-08-18T09:26:32Z</time>
      </trkpt>
      <trkpt lat="49.29183" lon="-0.65127">
        <ele>60</ele>
        <time>2021-08-18T09:26:33Z</time>
      </trkpt>
      <trkpt lat="49.29176" lon="-0.65119">
        <ele>59.7</ele>
        <time>2021-08-18T09:26:35Z</time>
      </trkpt>
      <trkpt lat="49.29174" lon="-0.65115">
        <ele>59.6</ele>
        <time>2021-08-18T09:26:37Z</time>
      </trkpt>
      <trkpt lat="49.29174" lon="-0.65113">
        <ele>59.6</ele>
        <time>2021-08-18T09:26:39Z</time>
      </trkpt>
      <trkpt lat="49.29175" lon="-0.65112">
        <ele>59.5</ele>
        <time>2021-08-18T09:26:40Z</time>
      </trkpt>
      <trkpt lat="49.29176" lon="-0.6511">
        <ele>59.5</ele>
        <time>2021-08-18T09:26:42Z</time>
      </trkpt>
      <trkpt lat="49.29176" lon="-0.65108">
        <ele>59.3</ele>
        <time>2021-08-18T09:26:43Z</time>
      </trkpt>
      <trkpt lat="49.29177" lon="-0.65106">
        <ele>59.3</ele>
        <time>2021-08-18T09:26:45Z</time>
      </trkpt>
      <trkpt lat="49.29177" lon="-0.65105">
        <ele>59.3</ele>
        <time>2021-08-18T09:26:46Z</time>
      </trkpt>
      <trkpt lat="49.29178" lon="-0.65103">
        <ele>59.2</ele>
        <time>2021-08-18T09:26:48Z</time>
      </trkpt>
      <trkpt lat="49.29179" lon="-0.65101">
        <ele>59.2</ele>
        <time>2021-08-18T09:26:55Z</time>
      </trkpt>
      <trkpt lat="49.29179" lon="-0.65099">
        <ele>59.2</ele>
        <time>2021-08-18T09:26:56Z</time>
      </trkpt>
      <trkpt lat="49.2918" lon="-0.65097">
        <ele>59.2</ele>
        <time>2021-08-18T09:26:57Z</time>
      </trkpt>
      <trkpt lat="49.29183" lon="-0.6509">
        <ele>59.1</ele>
        <time>2021-08-18T09:26:58Z</time>
      </trkpt>
      <trkpt lat="49.29189" lon="-0.65074">
        <ele>58.8</ele>
        <time>2021-08-18T09:27:00Z</time>
      </trkpt>
      <trkpt lat="49.29191" lon="-0.65064">
        <ele>58.7</ele>
        <time>2021-08-18T09:27:01Z</time>
      </trkpt>
      <trkpt lat="49.29194" lon="-0.65055">
        <ele>58.5</ele>
        <time>2021-08-18T09:27:02Z</time>
      </trkpt>
      <trkpt lat="49.29201" lon="-0.65035">
        <ele>58.2</ele>
        <time>2021-08-18T09:27:04Z</time>
      </trkpt>
      <trkpt lat="49.29205" lon="-0.65025">
        <ele>58</ele>
        <time>2021-08-18T09:27:05Z</time>
      </trkpt>
      <trkpt lat="49.29213" lon="-0.65004">
        <ele>57.6</ele>
        <time>2021-08-18T09:27:07Z</time>
      </trkpt>
      <trkpt lat="49.29217" lon="-0.64993">
        <ele>57.5</ele>
        <time>2021-08-18T09:27:08Z</time>
      </trkpt>
      <trkpt lat="49.29223" lon="-0.6497">
        <ele>57.1</ele>
        <time>2021-08-18T09:27:10Z</time>
      </trkpt>
      <trkpt lat="49.29227" lon="-0.64958">
        <ele>56.9</ele>
        <time>2021-08-18T09:27:11Z</time>
      </trkpt>
      <trkpt lat="49.29233" lon="-0.64933">
        <ele>56.4</ele>
        <time>2021-08-18T09:27:13Z</time>
      </trkpt>
      <trkpt lat="49.29241" lon="-0.64909">
        <ele>56</ele>
        <time>2021-08-18T09:27:15Z</time>
      </trkpt>
      <trkpt lat="49.29244" lon="-0.64897">
        <ele>55.8</ele>
        <time>2021-08-18T09:27:16Z</time>
      </trkpt>
      <trkpt lat="49.29248" lon="-0.64885">
        <ele>55.5</ele>
        <time>2021-08-18T09:27:17Z</time>
      </trkpt>
      <trkpt lat="49.29256" lon="-0.64862">
        <ele>55.1</ele>
        <time>2021-08-18T09:27:19Z</time>
      </trkpt>
      <trkpt lat="49.29265" lon="-0.6484">
        <ele>54.7</ele>
        <time>2021-08-18T09:27:21Z</time>
      </trkpt>
      <trkpt lat="49.29274" lon="-0.64818">
        <ele>54.4</ele>
        <time>2021-08-18T09:27:23Z</time>
      </trkpt>
      <trkpt lat="49.2928" lon="-0.64794">
        <ele>54.1</ele>
        <time>2021-08-18T09:27:25Z</time>
      </trkpt>
      <trkpt lat="49.29284" lon="-0.64781">
        <ele>53.9</ele>
        <time>2021-08-18T09:27:26Z</time>
      </trkpt>
      <trkpt lat="49.29287" lon="-0.64769">
        <ele>53.7</ele>
        <time>2021-08-18T09:27:27Z</time>
      </trkpt>
      <trkpt lat="49.29296" lon="-0.64743">
        <ele>53.4</ele>
        <time>2021-08-18T09:27:29Z</time>
      </trkpt>
      <trkpt lat="49.29306" lon="-0.64718">
        <ele>53</ele>
        <time>2021-08-18T09:27:31Z</time>
      </trkpt>
      <trkpt lat="49.29317" lon="-0.64694">
        <ele>52.6</ele>
        <time>2021-08-18T09:27:33Z</time>
      </trkpt>
      <trkpt lat="49.29327" lon="-0.6467">
        <ele>52.3</ele>
        <time>2021-08-18T09:27:35Z</time>
      </trkpt>
      <trkpt lat="49.29331" lon="-0.64658">
        <ele>52.1</ele>
        <time>2021-08-18T09:27:36Z</time>
      </trkpt>
      <trkpt lat="49.29337" lon="-0.64639">
        <ele>51.9</ele>
        <time>2021-08-18T09:27:38Z</time>
      </trkpt>
      <trkpt lat="49.29339" lon="-0.64633">
        <ele>51.9</ele>
        <time>2021-08-18T09:27:39Z</time>
      </trkpt>
      <trkpt lat="49.2934" lon="-0.64629">
        <ele>51.8</ele>
        <time>2021-08-18T09:27:41Z</time>
      </trkpt>
      <trkpt lat="49.29342" lon="-0.64621">
        <ele>51.8</ele>
        <time>2021-08-18T09:27:43Z</time>
      </trkpt>
      <trkpt lat="49.29346" lon="-0.6461">
        <ele>51.7</ele>
        <time>2021-08-18T09:27:45Z</time>
      </trkpt>
      <trkpt lat="49.29349" lon="-0.64606">
        <ele>51.5</ele>
        <time>2021-08-18T09:27:46Z</time>
      </trkpt>
      <trkpt lat="49.29352" lon="-0.64609">
        <ele>51.4</ele>
        <time>2021-08-18T09:27:48Z</time>
      </trkpt>
      <trkpt lat="49.2935" lon="-0.64614">
        <ele>51.2</ele>
        <time>2021-08-18T09:27:50Z</time>
      </trkpt>
      <trkpt lat="49.29347" lon="-0.64614">
        <ele>51.1</ele>
        <time>2021-08-18T09:27:51Z</time>
      </trkpt>
      <trkpt lat="49.2934" lon="-0.6461">
        <ele>50.9</ele>
        <time>2021-08-18T09:27:53Z</time>
      </trkpt>
      <trkpt lat="49.29336" lon="-0.64605">
        <ele>50.7</ele>
        <time>2021-08-18T09:27:54Z</time>
      </trkpt>
      <trkpt lat="49.29329" lon="-0.64591">
        <ele>50.5</ele>
        <time>2021-08-18T09:27:56Z</time>
      </trkpt>
      <trkpt lat="49.29322" lon="-0.64574">
        <ele>50.4</ele>
        <time>2021-08-18T09:27:58Z</time>
      </trkpt>
      <trkpt lat="49.29314" lon="-0.64557">
        <ele>50.5</ele>
        <time>2021-08-18T09:28:00Z</time>
      </trkpt>
      <trkpt lat="49.2931" lon="-0.64549">
        <ele>50.5</ele>
        <time>2021-08-18T09:28:01Z</time>
      </trkpt>
      <trkpt lat="49.29302" lon="-0.64534">
        <ele>50.8</ele>
        <time>2021-08-18T09:28:03Z</time>
      </trkpt>
      <trkpt lat="49.29298" lon="-0.64527">
        <ele>50.9</ele>
        <time>2021-08-18T09:28:04Z</time>
      </trkpt>
      <trkpt lat="49.29294" lon="-0.6452">
        <ele>51.1</ele>
        <time>2021-08-18T09:28:05Z</time>
      </trkpt>
      <trkpt lat="49.29287" lon="-0.64505">
        <ele>51.4</ele>
        <time>2021-08-18T09:28:07Z</time>
      </trkpt>
      <trkpt lat="49.29282" lon="-0.64492">
        <ele>51.7</ele>
        <time>2021-08-18T09:28:09Z</time>
      </trkpt>
      <trkpt lat="49.29279" lon="-0.64486">
        <ele>51.9</ele>
        <time>2021-08-18T09:28:10Z</time>
      </trkpt>
      <trkpt lat="49.29276" lon="-0.6448">
        <ele>52</ele>
        <time>2021-08-18T09:28:11Z</time>
      </trkpt>
      <trkpt lat="49.29272" lon="-0.6447">
        <ele>52.3</ele>
        <time>2021-08-18T09:28:13Z</time>
      </trkpt>
      <trkpt lat="49.29267" lon="-0.64458">
        <ele>52.6</ele>
        <time>2021-08-18T09:28:15Z</time>
      </trkpt>
      <trkpt lat="49.29264" lon="-0.64451">
        <ele>52.8</ele>
        <time>2021-08-18T09:28:16Z</time>
      </trkpt>
      <trkpt lat="49.29261" lon="-0.64446">
        <ele>52.9</ele>
        <time>2021-08-18T09:28:17Z</time>
      </trkpt>
      <trkpt lat="49.29256" lon="-0.64434">
        <ele>53.2</ele>
        <time>2021-08-18T09:28:19Z</time>
      </trkpt>
      <trkpt lat="49.29253" lon="-0.64428">
        <ele>53.4</ele>
        <time>2021-08-18T09:28:20Z</time>
      </trkpt>
      <trkpt lat="49.29247" lon="-0.64412">
        <ele>53.8</ele>
        <time>2021-08-18T09:28:22Z</time>
      </trkpt>
      <trkpt lat="49.29239" lon="-0.64396">
        <ele>54.2</ele>
        <time>2021-08-18T09:28:24Z</time>
      </trkpt>
      <trkpt lat="49.29234" lon="-0.64388">
        <ele>54.4</ele>
        <time>2021-08-18T09:28:25Z</time>
      </trkpt>
      <trkpt lat="49.2923" lon="-0.6438">
        <ele>54.5</ele>
        <time>2021-08-18T09:28:26Z</time>
      </trkpt>
      <trkpt lat="49.29222" lon="-0.64363">
        <ele>54.9</ele>
        <time>2021-08-18T09:28:28Z</time>
      </trkpt>
      <trkpt lat="49.29214" lon="-0.64345">
        <ele>55.1</ele>
        <time>2021-08-18T09:28:30Z</time>
      </trkpt>
      <trkpt lat="49.29206" lon="-0.64328">
        <ele>55.4</ele>
        <time>2021-08-18T09:28:32Z</time>
      </trkpt>
      <trkpt lat="49.29201" lon="-0.64318">
        <ele>55.5</ele>
        <time>2021-08-18T09:28:33Z</time>
      </trkpt>
      <trkpt lat="49.29193" lon="-0.64298">
        <ele>55.7</ele>
        <time>2021-08-18T09:28:35Z</time>
      </trkpt>
      <trkpt lat="49.29184" lon="-0.64278">
        <ele>55.9</ele>
        <time>2021-08-18T09:28:37Z</time>
      </trkpt>
      <trkpt lat="49.29175" lon="-0.64259">
        <ele>56</ele>
        <time>2021-08-18T09:28:39Z</time>
      </trkpt>
      <trkpt lat="49.29171" lon="-0.64249">
        <ele>56</ele>
        <time>2021-08-18T09:28:40Z</time>
      </trkpt>
      <trkpt lat="49.29162" lon="-0.6423">
        <ele>55.9</ele>
        <time>2021-08-18T09:28:42Z</time>
      </trkpt>
      <trkpt lat="49.29158" lon="-0.6422">
        <ele>55.8</ele>
        <time>2021-08-18T09:28:43Z</time>
      </trkpt>
      <trkpt lat="49.29153" lon="-0.6421">
        <ele>55.8</ele>
        <time>2021-08-18T09:28:44Z</time>
      </trkpt>
      <trkpt lat="49.29148" lon="-0.642">
        <ele>55.7</ele>
        <time>2021-08-18T09:28:45Z</time>
      </trkpt>
      <trkpt lat="49.29138" lon="-0.6418">
        <ele>55.4</ele>
        <time>2021-08-18T09:28:47Z</time>
      </trkpt>
      <trkpt lat="49.29133" lon="-0.64169">
        <ele>55.2</ele>
        <time>2021-08-18T09:28:48Z</time>
      </trkpt>
      <trkpt lat="49.29124" lon="-0.64148">
        <ele>54.6</ele>
        <time>2021-08-18T09:28:50Z</time>
      </trkpt>
      <trkpt lat="49.29113" lon="-0.64125">
        <ele>54</ele>
        <time>2021-08-18T09:28:52Z</time>
      </trkpt>
      <trkpt lat="49.29107" lon="-0.64114">
        <ele>53.7</ele>
        <time>2021-08-18T09:28:53Z</time>
      </trkpt>
      <trkpt lat="49.29101" lon="-0.64102">
        <ele>53.3</ele>
        <time>2021-08-18T09:28:54Z</time>
      </trkpt>
      <trkpt lat="49.2909" lon="-0.64079">
        <ele>52.6</ele>
        <time>2021-08-18T09:28:56Z</time>
      </trkpt>
      <trkpt lat="49.29078" lon="-0.64054">
        <ele>51.9</ele>
        <time>2021-08-18T09:28:58Z</time>
      </trkpt>
      <trkpt lat="49.29072" lon="-0.64042">
        <ele>51.7</ele>
        <time>2021-08-18T09:28:59Z</time>
      </trkpt>
      <trkpt lat="49.29066" lon="-0.64031">
        <ele>51.4</ele>
        <time>2021-08-18T09:29:00Z</time>
      </trkpt>
      <trkpt lat="49.29053" lon="-0.64007">
        <ele>50.8</ele>
        <time>2021-08-18T09:29:02Z</time>
      </trkpt>
      <trkpt lat="49.29047" lon="-0.63996">
        <ele>50.5</ele>
        <time>2021-08-18T09:29:03Z</time>
      </trkpt>
      <trkpt lat="49.29036" lon="-0.63971">
        <ele>50</ele>
        <time>2021-08-18T09:29:05Z</time>
      </trkpt>
      <trkpt lat="49.29031" lon="-0.63959">
        <ele>49.7</ele>
        <time>2021-08-18T09:29:06Z</time>
      </trkpt>
      <trkpt lat="49.29019" lon="-0.63935">
        <ele>49.2</ele>
        <time>2021-08-18T09:29:08Z</time>
      </trkpt>
      <trkpt lat="49.29007" lon="-0.63911">
        <ele>48.7</ele>
        <time>2021-08-18T09:29:10Z</time>
      </trkpt>
      <trkpt lat="49.29001" lon="-0.63898">
        <ele>48.4</ele>
        <time>2021-08-18T09:29:11Z</time>
      </trkpt>
      <trkpt lat="49.28994" lon="-0.63885">
        <ele>48.1</ele>
        <time>2021-08-18T09:29:12Z</time>
      </trkpt>
      <trkpt lat="49.28983" lon="-0.63859">
        <ele>47.6</ele>
        <time>2021-08-18T09:29:14Z</time>
      </trkpt>
      <trkpt lat="49.28977" lon="-0.63846">
        <ele>47.3</ele>
        <time>2021-08-18T09:29:15Z</time>
      </trkpt>
      <trkpt lat="49.28964" lon="-0.6382">
        <ele>46.7</ele>
        <time>2021-08-18T09:29:17Z</time>
      </trkpt>
      <trkpt lat="49.28958" lon="-0.63807">
        <ele>46.4</ele>
        <time>2021-08-18T09:29:18Z</time>
      </trkpt>
      <trkpt lat="49.28951" lon="-0.63794">
        <ele>46.2</ele>
        <time>2021-08-18T09:29:19Z</time>
      </trkpt>
      <trkpt lat="49.28938" lon="-0.63767">
        <ele>45.9</ele>
        <time>2021-08-18T09:29:21Z</time>
      </trkpt>
      <trkpt lat="49.28926" lon="-0.63741">
        <ele>45.9</ele>
        <time>2021-08-18T09:29:23Z</time>
      </trkpt>
      <trkpt lat="49.2892" lon="-0.63728">
        <ele>45.9</ele>
        <time>2021-08-18T09:29:24Z</time>
      </trkpt>
      <trkpt lat="49.28913" lon="-0.63716">
        <ele>45.9</ele>
        <time>2021-08-18T09:29:25Z</time>
      </trkpt>
      <trkpt lat="49.28902" lon="-0.63691">
        <ele>45.9</ele>
        <time>2021-08-18T09:29:27Z</time>
      </trkpt>
      <trkpt lat="49.2889" lon="-0.63665">
        <ele>46</ele>
        <time>2021-08-18T09:29:29Z</time>
      </trkpt>
      <trkpt lat="49.28878" lon="-0.63641">
        <ele>45.9</ele>
        <time>2021-08-18T09:29:31Z</time>
      </trkpt>
      <trkpt lat="49.28866" lon="-0.63616">
        <ele>45.6</ele>
        <time>2021-08-18T09:29:33Z</time>
      </trkpt>
      <trkpt lat="49.2886" lon="-0.63603">
        <ele>45.5</ele>
        <time>2021-08-18T09:29:34Z</time>
      </trkpt>
      <trkpt lat="49.28848" lon="-0.63577">
        <ele>45.1</ele>
        <time>2021-08-18T09:29:36Z</time>
      </trkpt>
      <trkpt lat="49.28841" lon="-0.63565">
        <ele>45</ele>
        <time>2021-08-18T09:29:37Z</time>
      </trkpt>
      <trkpt lat="49.28829" lon="-0.63539">
        <ele>44.8</ele>
        <time>2021-08-18T09:29:39Z</time>
      </trkpt>
      <trkpt lat="49.28817" lon="-0.63514">
        <ele>44.5</ele>
        <time>2021-08-18T09:29:41Z</time>
      </trkpt>
      <trkpt lat="49.28805" lon="-0.6349">
        <ele>44.3</ele>
        <time>2021-08-18T09:29:43Z</time>
      </trkpt>
      <trkpt lat="49.28798" lon="-0.63478">
        <ele>44.1</ele>
        <time>2021-08-18T09:29:44Z</time>
      </trkpt>
      <trkpt lat="49.28785" lon="-0.63454">
        <ele>43.8</ele>
        <time>2021-08-18T09:29:46Z</time>
      </trkpt>
      <trkpt lat="49.28771" lon="-0.6343">
        <ele>43.3</ele>
        <time>2021-08-18T09:29:48Z</time>
      </trkpt>
      <trkpt lat="49.28763" lon="-0.63419">
        <ele>43.1</ele>
        <time>2021-08-18T09:29:49Z</time>
      </trkpt>
      <trkpt lat="49.28748" lon="-0.63396">
        <ele>42.5</ele>
        <time>2021-08-18T09:29:51Z</time>
      </trkpt>
      <trkpt lat="49.28732" lon="-0.63373">
        <ele>41.8</ele>
        <time>2021-08-18T09:29:53Z</time>
      </trkpt>
      <trkpt lat="49.28725" lon="-0.6336">
        <ele>41.4</ele>
        <time>2021-08-18T09:29:54Z</time>
      </trkpt>
      <trkpt lat="49.28709" lon="-0.63338">
        <ele>40.7</ele>
        <time>2021-08-18T09:29:56Z</time>
      </trkpt>
      <trkpt lat="49.28694" lon="-0.63314">
        <ele>40</ele>
        <time>2021-08-18T09:29:58Z</time>
      </trkpt>
      <trkpt lat="49.28678" lon="-0.63289">
        <ele>39.1</ele>
        <time>2021-08-18T09:30:00Z</time>
      </trkpt>
      <trkpt lat="49.2867" lon="-0.63277">
        <ele>38.7</ele>
        <time>2021-08-18T09:30:01Z</time>
      </trkpt>
      <trkpt lat="49.28654" lon="-0.63252">
        <ele>37.9</ele>
        <time>2021-08-18T09:30:03Z</time>
      </trkpt>
      <trkpt lat="49.28638" lon="-0.63227">
        <ele>37.2</ele>
        <time>2021-08-18T09:30:05Z</time>
      </trkpt>
      <trkpt lat="49.28622" lon="-0.63203">
        <ele>36.8</ele>
        <time>2021-08-18T09:30:07Z</time>
      </trkpt>
      <trkpt lat="49.28605" lon="-0.63179">
        <ele>36.6</ele>
        <time>2021-08-18T09:30:09Z</time>
      </trkpt>
      <trkpt lat="49.28597" lon="-0.63167">
        <ele>36.5</ele>
        <time>2021-08-18T09:30:10Z</time>
      </trkpt>
      <trkpt lat="49.2859" lon="-0.63155">
        <ele>36.4</ele>
        <time>2021-08-18T09:30:11Z</time>
      </trkpt>
      <trkpt lat="49.28575" lon="-0.63133">
        <ele>36.5</ele>
        <time>2021-08-18T09:30:13Z</time>
      </trkpt>
      <trkpt lat="49.28568" lon="-0.63122">
        <ele>36.6</ele>
        <time>2021-08-18T09:30:14Z</time>
      </trkpt>
      <trkpt lat="49.28554" lon="-0.631">
        <ele>37</ele>
        <time>2021-08-18T09:30:16Z</time>
      </trkpt>
      <trkpt lat="49.28541" lon="-0.6308">
        <ele>37.3</ele>
        <time>2021-08-18T09:30:18Z</time>
      </trkpt>
      <trkpt lat="49.28528" lon="-0.63061">
        <ele>37.5</ele>
        <time>2021-08-18T09:30:20Z</time>
      </trkpt>
      <trkpt lat="49.28521" lon="-0.63051">
        <ele>37.5</ele>
        <time>2021-08-18T09:30:21Z</time>
      </trkpt>
      <trkpt lat="49.28515" lon="-0.63042">
        <ele>37.5</ele>
        <time>2021-08-18T09:30:22Z</time>
      </trkpt>
      <trkpt lat="49.28502" lon="-0.63023">
        <ele>37.5</ele>
        <time>2021-08-18T09:30:24Z</time>
      </trkpt>
      <trkpt lat="49.28496" lon="-0.63013">
        <ele>37.4</ele>
        <time>2021-08-18T09:30:25Z</time>
      </trkpt>
      <trkpt lat="49.28484" lon="-0.62994">
        <ele>37.3</ele>
        <time>2021-08-18T09:30:27Z</time>
      </trkpt>
      <trkpt lat="49.28471" lon="-0.62975">
        <ele>37.1</ele>
        <time>2021-08-18T09:30:29Z</time>
      </trkpt>
      <trkpt lat="49.28465" lon="-0.62965">
        <ele>36.9</ele>
        <time>2021-08-18T09:30:30Z</time>
      </trkpt>
      <trkpt lat="49.2846" lon="-0.62953">
        <ele>36.7</ele>
        <time>2021-08-18T09:30:31Z</time>
      </trkpt>
      <trkpt lat="49.28452" lon="-0.62927">
        <ele>36.3</ele>
        <time>2021-08-18T09:30:33Z</time>
      </trkpt>
      <trkpt lat="49.2845" lon="-0.62896">
        <ele>35.7</ele>
        <time>2021-08-18T09:30:35Z</time>
      </trkpt>
      <trkpt lat="49.28453" lon="-0.62866">
        <ele>35.3</ele>
        <time>2021-08-18T09:30:37Z</time>
      </trkpt>
      <trkpt lat="49.28455" lon="-0.6285">
        <ele>35.1</ele>
        <time>2021-08-18T09:30:38Z</time>
      </trkpt>
      <trkpt lat="49.28459" lon="-0.62819">
        <ele>34.7</ele>
        <time>2021-08-18T09:30:40Z</time>
      </trkpt>
      <trkpt lat="49.2846" lon="-0.62803">
        <ele>34.5</ele>
        <time>2021-08-18T09:30:41Z</time>
      </trkpt>
      <trkpt lat="49.28462" lon="-0.62788">
        <ele>34.4</ele>
        <time>2021-08-18T09:30:42Z</time>
      </trkpt>
      <trkpt lat="49.28464" lon="-0.62756">
        <ele>34.1</ele>
        <time>2021-08-18T09:30:44Z</time>
      </trkpt>
      <trkpt lat="49.28468" lon="-0.62721">
        <ele>33.8</ele>
        <time>2021-08-18T09:30:46Z</time>
      </trkpt>
      <trkpt lat="49.2847" lon="-0.62694">
        <ele>33.6</ele>
        <time>2021-08-18T09:30:48Z</time>
      </trkpt>
      <trkpt lat="49.28472" lon="-0.62679">
        <ele>33.5</ele>
        <time>2021-08-18T09:30:49Z</time>
      </trkpt>
      <trkpt lat="49.28475" lon="-0.6265">
        <ele>33.3</ele>
        <time>2021-08-18T09:30:51Z</time>
      </trkpt>
      <trkpt lat="49.28477" lon="-0.62634">
        <ele>33.1</ele>
        <time>2021-08-18T09:30:52Z</time>
      </trkpt>
      <trkpt lat="49.28478" lon="-0.62619">
        <ele>33</ele>
        <time>2021-08-18T09:30:53Z</time>
      </trkpt>
      <trkpt lat="49.28481" lon="-0.62588">
        <ele>32.8</ele>
        <time>2021-08-18T09:30:55Z</time>
      </trkpt>
      <trkpt lat="49.28484" lon="-0.62558">
        <ele>32.6</ele>
        <time>2021-08-18T09:30:57Z</time>
      </trkpt>
      <trkpt lat="49.28486" lon="-0.62542">
        <ele>32.5</ele>
        <time>2021-08-18T09:30:58Z</time>
      </trkpt>
      <trkpt lat="49.28489" lon="-0.62511">
        <ele>32.3</ele>
        <time>2021-08-18T09:31:00Z</time>
      </trkpt>
      <trkpt lat="49.28492" lon="-0.6248">
        <ele>32.1</ele>
        <time>2021-08-18T09:31:02Z</time>
      </trkpt>
      <trkpt lat="49.28495" lon="-0.62448">
        <ele>31.9</ele>
        <time>2021-08-18T09:31:04Z</time>
      </trkpt>
      <trkpt lat="49.28497" lon="-0.62417">
        <ele>31.7</ele>
        <time>2021-08-18T09:31:06Z</time>
      </trkpt>
      <trkpt lat="49.285" lon="-0.62387">
        <ele>31.6</ele>
        <time>2021-08-18T09:31:08Z</time>
      </trkpt>
      <trkpt lat="49.28502" lon="-0.62371">
        <ele>31.6</ele>
        <time>2021-08-18T09:31:09Z</time>
      </trkpt>
      <trkpt lat="49.28503" lon="-0.62356">
        <ele>31.6</ele>
        <time>2021-08-18T09:31:10Z</time>
      </trkpt>
      <trkpt lat="49.28506" lon="-0.62323">
        <ele>31.6</ele>
        <time>2021-08-18T09:31:12Z</time>
      </trkpt>
      <trkpt lat="49.28507" lon="-0.6231">
        <ele>31.6</ele>
        <time>2021-08-18T09:31:13Z</time>
      </trkpt>
      <trkpt lat="49.2851" lon="-0.62283">
        <ele>31.6</ele>
        <time>2021-08-18T09:31:15Z</time>
      </trkpt>
      <trkpt lat="49.28511" lon="-0.62269">
        <ele>31.7</ele>
        <time>2021-08-18T09:31:16Z</time>
      </trkpt>
      <trkpt lat="49.28513" lon="-0.62241">
        <ele>31.7</ele>
        <time>2021-08-18T09:31:18Z</time>
      </trkpt>
      <trkpt lat="49.28515" lon="-0.62227">
        <ele>31.7</ele>
        <time>2021-08-18T09:31:19Z</time>
      </trkpt>
      <trkpt lat="49.28518" lon="-0.622">
        <ele>31.8</ele>
        <time>2021-08-18T09:31:21Z</time>
      </trkpt>
      <trkpt lat="49.2852" lon="-0.62186">
        <ele>31.8</ele>
        <time>2021-08-18T09:31:22Z</time>
      </trkpt>
      <trkpt lat="49.28522" lon="-0.62172">
        <ele>31.9</ele>
        <time>2021-08-18T09:31:23Z</time>
      </trkpt>
      <trkpt lat="49.28525" lon="-0.62145">
        <ele>32</ele>
        <time>2021-08-18T09:31:25Z</time>
      </trkpt>
      <trkpt lat="49.28526" lon="-0.62132">
        <ele>32</ele>
        <time>2021-08-18T09:31:26Z</time>
      </trkpt>
      <trkpt lat="49.28527" lon="-0.62118">
        <ele>32.1</ele>
        <time>2021-08-18T09:31:27Z</time>
      </trkpt>
      <trkpt lat="49.2853" lon="-0.62092">
        <ele>32.2</ele>
        <time>2021-08-18T09:31:29Z</time>
      </trkpt>
      <trkpt lat="49.28531" lon="-0.62078">
        <ele>32.2</ele>
        <time>2021-08-18T09:31:30Z</time>
      </trkpt>
      <trkpt lat="49.28532" lon="-0.62051">
        <ele>32.3</ele>
        <time>2021-08-18T09:31:32Z</time>
      </trkpt>
      <trkpt lat="49.28533" lon="-0.62037">
        <ele>32.3</ele>
        <time>2021-08-18T09:31:33Z</time>
      </trkpt>
      <trkpt lat="49.28534" lon="-0.62009">
        <ele>32.4</ele>
        <time>2021-08-18T09:31:35Z</time>
      </trkpt>
      <trkpt lat="49.28535" lon="-0.61995">
        <ele>32.4</ele>
        <time>2021-08-18T09:31:36Z</time>
      </trkpt>
      <trkpt lat="49.28535" lon="-0.61981">
        <ele>32.4</ele>
        <time>2021-08-18T09:31:37Z</time>
      </trkpt>
      <trkpt lat="49.28537" lon="-0.61954">
        <ele>32.4</ele>
        <time>2021-08-18T09:31:39Z</time>
      </trkpt>
      <trkpt lat="49.28539" lon="-0.6194">
        <ele>32.4</ele>
        <time>2021-08-18T09:31:40Z</time>
      </trkpt>
      <trkpt lat="49.28542" lon="-0.61912">
        <ele>32.4</ele>
        <time>2021-08-18T09:31:42Z</time>
      </trkpt>
      <trkpt lat="49.28544" lon="-0.61898">
        <ele>32.4</ele>
        <time>2021-08-18T09:31:43Z</time>
      </trkpt>
      <trkpt lat="49.28546" lon="-0.61869">
        <ele>32.2</ele>
        <time>2021-08-18T09:31:45Z</time>
      </trkpt>
      <trkpt lat="49.28547" lon="-0.61855">
        <ele>32.2</ele>
        <time>2021-08-18T09:31:46Z</time>
      </trkpt>
      <trkpt lat="49.28549" lon="-0.61826">
        <ele>32.2</ele>
        <time>2021-08-18T09:31:48Z</time>
      </trkpt>
      <trkpt lat="49.28551" lon="-0.61812">
        <ele>32.2</ele>
        <time>2021-08-18T09:31:49Z</time>
      </trkpt>
      <trkpt lat="49.28555" lon="-0.61783">
        <ele>32.2</ele>
        <time>2021-08-18T09:31:51Z</time>
      </trkpt>
      <trkpt lat="49.28556" lon="-0.61769">
        <ele>32.1</ele>
        <time>2021-08-18T09:31:52Z</time>
      </trkpt>
      <trkpt lat="49.28559" lon="-0.6174">
        <ele>32.1</ele>
        <time>2021-08-18T09:31:54Z</time>
      </trkpt>
      <trkpt lat="49.2856" lon="-0.61726">
        <ele>32.1</ele>
        <time>2021-08-18T09:31:55Z</time>
      </trkpt>
      <trkpt lat="49.28562" lon="-0.61712">
        <ele>32</ele>
        <time>2021-08-18T09:31:56Z</time>
      </trkpt>
      <trkpt lat="49.28564" lon="-0.61683">
        <ele>31.9</ele>
        <time>2021-08-18T09:31:58Z</time>
      </trkpt>
      <trkpt lat="49.28567" lon="-0.61655">
        <ele>31.7</ele>
        <time>2021-08-18T09:32:00Z</time>
      </trkpt>
      <trkpt lat="49.28569" lon="-0.61641">
        <ele>31.7</ele>
        <time>2021-08-18T09:32:01Z</time>
      </trkpt>
      <trkpt lat="49.28572" lon="-0.61613">
        <ele>31.4</ele>
        <time>2021-08-18T09:32:03Z</time>
      </trkpt>
      <trkpt lat="49.28574" lon="-0.61598">
        <ele>31.2</ele>
        <time>2021-08-18T09:32:04Z</time>
      </trkpt>
      <trkpt lat="49.28575" lon="-0.61583">
        <ele>31.1</ele>
        <time>2021-08-18T09:32:05Z</time>
      </trkpt>
      <trkpt lat="49.28578" lon="-0.61554">
        <ele>30.8</ele>
        <time>2021-08-18T09:32:07Z</time>
      </trkpt>
      <trkpt lat="49.2858" lon="-0.61525">
        <ele>30.6</ele>
        <time>2021-08-18T09:32:09Z</time>
      </trkpt>
      <trkpt lat="49.28583" lon="-0.61496">
        <ele>30.3</ele>
        <time>2021-08-18T09:32:11Z</time>
      </trkpt>
      <trkpt lat="49.28584" lon="-0.61481">
        <ele>30.1</ele>
        <time>2021-08-18T09:32:12Z</time>
      </trkpt>
      <trkpt lat="49.28587" lon="-0.61451">
        <ele>29.9</ele>
        <time>2021-08-18T09:32:14Z</time>
      </trkpt>
      <trkpt lat="49.28589" lon="-0.61436">
        <ele>29.7</ele>
        <time>2021-08-18T09:32:15Z</time>
      </trkpt>
      <trkpt lat="49.28591" lon="-0.61421">
        <ele>29.6</ele>
        <time>2021-08-18T09:32:16Z</time>
      </trkpt>
      <trkpt lat="49.28594" lon="-0.61391">
        <ele>29.3</ele>
        <time>2021-08-18T09:32:18Z</time>
      </trkpt>
      <trkpt lat="49.28595" lon="-0.61376">
        <ele>29.1</ele>
        <time>2021-08-18T09:32:19Z</time>
      </trkpt>
      <trkpt lat="49.28597" lon="-0.61361">
        <ele>29</ele>
        <time>2021-08-18T09:32:20Z</time>
      </trkpt>
      <trkpt lat="49.28599" lon="-0.61346">
        <ele>28.9</ele>
        <time>2021-08-18T09:32:21Z</time>
      </trkpt>
      <trkpt lat="49.28602" lon="-0.61316">
        <ele>28.8</ele>
        <time>2021-08-18T09:32:23Z</time>
      </trkpt>
      <trkpt lat="49.28603" lon="-0.613">
        <ele>28.8</ele>
        <time>2021-08-18T09:32:24Z</time>
      </trkpt>
      <trkpt lat="49.28604" lon="-0.61285">
        <ele>28.8</ele>
        <time>2021-08-18T09:32:25Z</time>
      </trkpt>
      <trkpt lat="49.28607" lon="-0.61255">
        <ele>28.8</ele>
        <time>2021-08-18T09:32:27Z</time>
      </trkpt>
      <trkpt lat="49.28608" lon="-0.61239">
        <ele>28.9</ele>
        <time>2021-08-18T09:32:28Z</time>
      </trkpt>
      <trkpt lat="49.28611" lon="-0.6121">
        <ele>29</ele>
        <time>2021-08-18T09:32:30Z</time>
      </trkpt>
      <trkpt lat="49.28613" lon="-0.61195">
        <ele>29</ele>
        <time>2021-08-18T09:32:31Z</time>
      </trkpt>
      <trkpt lat="49.28616" lon="-0.61167">
        <ele>29.1</ele>
        <time>2021-08-18T09:32:33Z</time>
      </trkpt>
      <trkpt lat="49.28618" lon="-0.61139">
        <ele>29.3</ele>
        <time>2021-08-18T09:32:35Z</time>
      </trkpt>
      <trkpt lat="49.28621" lon="-0.61111">
        <ele>29.5</ele>
        <time>2021-08-18T09:32:37Z</time>
      </trkpt>
      <trkpt lat="49.28623" lon="-0.61098">
        <ele>29.7</ele>
        <time>2021-08-18T09:32:38Z</time>
      </trkpt>
      <trkpt lat="49.28625" lon="-0.61071">
        <ele>29.8</ele>
        <time>2021-08-18T09:32:40Z</time>
      </trkpt>
      <trkpt lat="49.28628" lon="-0.61044">
        <ele>30</ele>
        <time>2021-08-18T09:32:42Z</time>
      </trkpt>
      <trkpt lat="49.28629" lon="-0.61031">
        <ele>30.2</ele>
        <time>2021-08-18T09:32:43Z</time>
      </trkpt>
      <trkpt lat="49.28632" lon="-0.61005">
        <ele>30.3</ele>
        <time>2021-08-18T09:32:45Z</time>
      </trkpt>
      <trkpt lat="49.28634" lon="-0.60978">
        <ele>30.5</ele>
        <time>2021-08-18T09:32:47Z</time>
      </trkpt>
      <trkpt lat="49.28637" lon="-0.60953">
        <ele>30.5</ele>
        <time>2021-08-18T09:32:49Z</time>
      </trkpt>
      <trkpt lat="49.28638" lon="-0.6094">
        <ele>30.5</ele>
        <time>2021-08-18T09:32:50Z</time>
      </trkpt>
      <trkpt lat="49.28641" lon="-0.60913">
        <ele>30.5</ele>
        <time>2021-08-18T09:32:52Z</time>
      </trkpt>
      <trkpt lat="49.28642" lon="-0.609">
        <ele>30.6</ele>
        <time>2021-08-18T09:32:53Z</time>
      </trkpt>
      <trkpt lat="49.28643" lon="-0.60887">
        <ele>30.6</ele>
        <time>2021-08-18T09:32:54Z</time>
      </trkpt>
      <trkpt lat="49.28645" lon="-0.60862">
        <ele>30.6</ele>
        <time>2021-08-18T09:32:56Z</time>
      </trkpt>
      <trkpt lat="49.28646" lon="-0.60849">
        <ele>30.6</ele>
        <time>2021-08-18T09:32:57Z</time>
      </trkpt>
      <trkpt lat="49.28648" lon="-0.60836">
        <ele>30.6</ele>
        <time>2021-08-18T09:32:58Z</time>
      </trkpt>
      <trkpt lat="49.28649" lon="-0.60823">
        <ele>30.7</ele>
        <time>2021-08-18T09:32:59Z</time>
      </trkpt>
      <trkpt lat="49.28652" lon="-0.60797">
        <ele>30.7</ele>
        <time>2021-08-18T09:33:01Z</time>
      </trkpt>
      <trkpt lat="49.28655" lon="-0.6077">
        <ele>30.8</ele>
        <time>2021-08-18T09:33:03Z</time>
      </trkpt>
      <trkpt lat="49.28656" lon="-0.60757">
        <ele>30.8</ele>
        <time>2021-08-18T09:33:04Z</time>
      </trkpt>
      <trkpt lat="49.28658" lon="-0.60744">
        <ele>30.8</ele>
        <time>2021-08-18T09:33:05Z</time>
      </trkpt>
      <trkpt lat="49.2866" lon="-0.60731">
        <ele>30.9</ele>
        <time>2021-08-18T09:33:06Z</time>
      </trkpt>
      <trkpt lat="49.28662" lon="-0.60705">
        <ele>30.9</ele>
        <time>2021-08-18T09:33:08Z</time>
      </trkpt>
      <trkpt lat="49.28664" lon="-0.60691">
        <ele>30.9</ele>
        <time>2021-08-18T09:33:09Z</time>
      </trkpt>
      <trkpt lat="49.28667" lon="-0.60665">
        <ele>30.8</ele>
        <time>2021-08-18T09:33:11Z</time>
      </trkpt>
      <trkpt lat="49.28669" lon="-0.60637">
        <ele>30.7</ele>
        <time>2021-08-18T09:33:13Z</time>
      </trkpt>
      <trkpt lat="49.28671" lon="-0.60623">
        <ele>30.7</ele>
        <time>2021-08-18T09:33:14Z</time>
      </trkpt>
      <trkpt lat="49.28672" lon="-0.60609">
        <ele>30.7</ele>
        <time>2021-08-18T09:33:15Z</time>
      </trkpt>
      <trkpt lat="49.28674" lon="-0.60582">
        <ele>30.7</ele>
        <time>2021-08-18T09:33:17Z</time>
      </trkpt>
      <trkpt lat="49.28675" lon="-0.60568">
        <ele>30.8</ele>
        <time>2021-08-18T09:33:18Z</time>
      </trkpt>
      <trkpt lat="49.28677" lon="-0.6054">
        <ele>30.8</ele>
        <time>2021-08-18T09:33:20Z</time>
      </trkpt>
      <trkpt lat="49.28679" lon="-0.60513">
        <ele>30.8</ele>
        <time>2021-08-18T09:33:22Z</time>
      </trkpt>
      <trkpt lat="49.28681" lon="-0.605">
        <ele>30.9</ele>
        <time>2021-08-18T09:33:23Z</time>
      </trkpt>
      <trkpt lat="49.28683" lon="-0.60473">
        <ele>30.9</ele>
        <time>2021-08-18T09:33:25Z</time>
      </trkpt>
      <trkpt lat="49.28686" lon="-0.60445">
        <ele>30.8</ele>
        <time>2021-08-18T09:33:27Z</time>
      </trkpt>
      <trkpt lat="49.28689" lon="-0.60417">
        <ele>30.8</ele>
        <time>2021-08-18T09:33:29Z</time>
      </trkpt>
      <trkpt lat="49.28692" lon="-0.60388">
        <ele>30.7</ele>
        <time>2021-08-18T09:33:31Z</time>
      </trkpt>
      <trkpt lat="49.28693" lon="-0.60373">
        <ele>30.7</ele>
        <time>2021-08-18T09:33:32Z</time>
      </trkpt>
      <trkpt lat="49.28695" lon="-0.60359">
        <ele>30.6</ele>
        <time>2021-08-18T09:33:33Z</time>
      </trkpt>
      <trkpt lat="49.28698" lon="-0.60329">
        <ele>30.6</ele>
        <time>2021-08-18T09:33:35Z</time>
      </trkpt>
      <trkpt lat="49.28701" lon="-0.60298">
        <ele>30.5</ele>
        <time>2021-08-18T09:33:37Z</time>
      </trkpt>
      <trkpt lat="49.28703" lon="-0.60283">
        <ele>30.4</ele>
        <time>2021-08-18T09:33:38Z</time>
      </trkpt>
      <trkpt lat="49.28706" lon="-0.60252">
        <ele>30.4</ele>
        <time>2021-08-18T09:33:40Z</time>
      </trkpt>
      <trkpt lat="49.28709" lon="-0.60221">
        <ele>30.3</ele>
        <time>2021-08-18T09:33:42Z</time>
      </trkpt>
      <trkpt lat="49.28711" lon="-0.60191">
        <ele>30.2</ele>
        <time>2021-08-18T09:33:44Z</time>
      </trkpt>
      <trkpt lat="49.28713" lon="-0.60176">
        <ele>30.2</ele>
        <time>2021-08-18T09:33:45Z</time>
      </trkpt>
      <trkpt lat="49.28716" lon="-0.60146">
        <ele>30.2</ele>
        <time>2021-08-18T09:33:47Z</time>
      </trkpt>
      <trkpt lat="49.28719" lon="-0.60116">
        <ele>30.1</ele>
        <time>2021-08-18T09:33:49Z</time>
      </trkpt>
      <trkpt lat="49.28721" lon="-0.60101">
        <ele>30.1</ele>
        <time>2021-08-18T09:33:50Z</time>
      </trkpt>
      <trkpt lat="49.28725" lon="-0.6007">
        <ele>30</ele>
        <time>2021-08-18T09:33:52Z</time>
      </trkpt>
      <trkpt lat="49.28728" lon="-0.60039">
        <ele>30</ele>
        <time>2021-08-18T09:33:54Z</time>
      </trkpt>
      <trkpt lat="49.2873" lon="-0.60023">
        <ele>29.9</ele>
        <time>2021-08-18T09:33:55Z</time>
      </trkpt>
      <trkpt lat="49.28733" lon="-0.59992">
        <ele>29.9</ele>
        <time>2021-08-18T09:33:57Z</time>
      </trkpt>
      <trkpt lat="49.28734" lon="-0.59975">
        <ele>29.8</ele>
        <time>2021-08-18T09:33:58Z</time>
      </trkpt>
      <trkpt lat="49.28736" lon="-0.59944">
        <ele>29.8</ele>
        <time>2021-08-18T09:34:00Z</time>
      </trkpt>
      <trkpt lat="49.28737" lon="-0.59928">
        <ele>29.8</ele>
        <time>2021-08-18T09:34:01Z</time>
      </trkpt>
      <trkpt lat="49.2874" lon="-0.59897">
        <ele>29.8</ele>
        <time>2021-08-18T09:34:03Z</time>
      </trkpt>
      <trkpt lat="49.28741" lon="-0.59881">
        <ele>29.8</ele>
        <time>2021-08-18T09:34:04Z</time>
      </trkpt>
      <trkpt lat="49.28743" lon="-0.59851">
        <ele>29.8</ele>
        <time>2021-08-18T09:34:06Z</time>
      </trkpt>
      <trkpt lat="49.28744" lon="-0.59836">
        <ele>29.9</ele>
        <time>2021-08-18T09:34:07Z</time>
      </trkpt>
      <trkpt lat="49.28747" lon="-0.59807">
        <ele>29.9</ele>
        <time>2021-08-18T09:34:09Z</time>
      </trkpt>
      <trkpt lat="49.28749" lon="-0.59792">
        <ele>30</ele>
        <time>2021-08-18T09:34:10Z</time>
      </trkpt>
      <trkpt lat="49.28753" lon="-0.59763">
        <ele>30</ele>
        <time>2021-08-18T09:34:12Z</time>
      </trkpt>
      <trkpt lat="49.28755" lon="-0.59735">
        <ele>30.1</ele>
        <time>2021-08-18T09:34:14Z</time>
      </trkpt>
      <trkpt lat="49.28758" lon="-0.59705">
        <ele>30.2</ele>
        <time>2021-08-18T09:34:16Z</time>
      </trkpt>
      <trkpt lat="49.28761" lon="-0.59675">
        <ele>30.2</ele>
        <time>2021-08-18T09:34:18Z</time>
      </trkpt>
      <trkpt lat="49.28762" lon="-0.59661">
        <ele>30.2</ele>
        <time>2021-08-18T09:34:19Z</time>
      </trkpt>
      <trkpt lat="49.28765" lon="-0.59632">
        <ele>30.2</ele>
        <time>2021-08-18T09:34:21Z</time>
      </trkpt>
      <trkpt lat="49.28768" lon="-0.59603">
        <ele>30.2</ele>
        <time>2021-08-18T09:34:23Z</time>
      </trkpt>
      <trkpt lat="49.28771" lon="-0.59575">
        <ele>30.3</ele>
        <time>2021-08-18T09:34:25Z</time>
      </trkpt>
      <trkpt lat="49.28773" lon="-0.59546">
        <ele>30.5</ele>
        <time>2021-08-18T09:34:27Z</time>
      </trkpt>
      <trkpt lat="49.28774" lon="-0.59531">
        <ele>30.5</ele>
        <time>2021-08-18T09:34:28Z</time>
      </trkpt>
      <trkpt lat="49.28776" lon="-0.59503">
        <ele>30.7</ele>
        <time>2021-08-18T09:34:30Z</time>
      </trkpt>
      <trkpt lat="49.28778" lon="-0.59475">
        <ele>30.7</ele>
        <time>2021-08-18T09:34:32Z</time>
      </trkpt>
      <trkpt lat="49.2878" lon="-0.59448">
        <ele>30.8</ele>
        <time>2021-08-18T09:34:34Z</time>
      </trkpt>
      <trkpt lat="49.28782" lon="-0.59421">
        <ele>30.9</ele>
        <time>2021-08-18T09:34:36Z</time>
      </trkpt>
      <trkpt lat="49.28782" lon="-0.59407">
        <ele>30.9</ele>
        <time>2021-08-18T09:34:37Z</time>
      </trkpt>
      <trkpt lat="49.28783" lon="-0.59393">
        <ele>30.8</ele>
        <time>2021-08-18T09:34:38Z</time>
      </trkpt>
      <trkpt lat="49.28784" lon="-0.59366">
        <ele>30.7</ele>
        <time>2021-08-18T09:34:40Z</time>
      </trkpt>
      <trkpt lat="49.28784" lon="-0.59352">
        <ele>30.7</ele>
        <time>2021-08-18T09:34:41Z</time>
      </trkpt>
      <trkpt lat="49.28785" lon="-0.59337">
        <ele>30.7</ele>
        <time>2021-08-18T09:34:42Z</time>
      </trkpt>
      <trkpt lat="49.28786" lon="-0.5931">
        <ele>30.7</ele>
        <time>2021-08-18T09:34:44Z</time>
      </trkpt>
      <trkpt lat="49.28789" lon="-0.59284">
        <ele>30.8</ele>
        <time>2021-08-18T09:34:46Z</time>
      </trkpt>
      <trkpt lat="49.28791" lon="-0.59271">
        <ele>30.8</ele>
        <time>2021-08-18T09:34:47Z</time>
      </trkpt>
      <trkpt lat="49.28793" lon="-0.59259">
        <ele>30.9</ele>
        <time>2021-08-18T09:34:48Z</time>
      </trkpt>
      <trkpt lat="49.28797" lon="-0.59235">
        <ele>30.9</ele>
        <time>2021-08-18T09:34:50Z</time>
      </trkpt>
      <trkpt lat="49.28799" lon="-0.59222">
        <ele>31</ele>
        <time>2021-08-18T09:34:51Z</time>
      </trkpt>
      <trkpt lat="49.28802" lon="-0.59196">
        <ele>31</ele>
        <time>2021-08-18T09:34:53Z</time>
      </trkpt>
      <trkpt lat="49.28805" lon="-0.5917">
        <ele>31</ele>
        <time>2021-08-18T09:34:55Z</time>
      </trkpt>
      <trkpt lat="49.28807" lon="-0.59156">
        <ele>31.1</ele>
        <time>2021-08-18T09:34:56Z</time>
      </trkpt>
      <trkpt lat="49.28811" lon="-0.59131">
        <ele>31.3</ele>
        <time>2021-08-18T09:34:58Z</time>
      </trkpt>
      <trkpt lat="49.28813" lon="-0.59118">
        <ele>31.3</ele>
        <time>2021-08-18T09:34:59Z</time>
      </trkpt>
      <trkpt lat="49.28815" lon="-0.59093">
        <ele>31.5</ele>
        <time>2021-08-18T09:35:01Z</time>
      </trkpt>
      <trkpt lat="49.28817" lon="-0.59081">
        <ele>31.6</ele>
        <time>2021-08-18T09:35:02Z</time>
      </trkpt>
      <trkpt lat="49.28819" lon="-0.59069">
        <ele>31.6</ele>
        <time>2021-08-18T09:35:03Z</time>
      </trkpt>
      <trkpt lat="49.28822" lon="-0.59046">
        <ele>31.8</ele>
        <time>2021-08-18T09:35:05Z</time>
      </trkpt>
      <trkpt lat="49.28825" lon="-0.59021">
        <ele>32.1</ele>
        <time>2021-08-18T09:35:07Z</time>
      </trkpt>
      <trkpt lat="49.28829" lon="-0.58997">
        <ele>32.4</ele>
        <time>2021-08-18T09:35:09Z</time>
      </trkpt>
      <trkpt lat="49.2883" lon="-0.58985">
        <ele>32.6</ele>
        <time>2021-08-18T09:35:10Z</time>
      </trkpt>
      <trkpt lat="49.28833" lon="-0.5896">
        <ele>33</ele>
        <time>2021-08-18T09:35:12Z</time>
      </trkpt>
      <trkpt lat="49.28834" lon="-0.58948">
        <ele>33.2</ele>
        <time>2021-08-18T09:35:13Z</time>
      </trkpt>
      <trkpt lat="49.28836" lon="-0.58925">
        <ele>33.5</ele>
        <time>2021-08-18T09:35:15Z</time>
      </trkpt>
      <trkpt lat="49.28837" lon="-0.58913">
        <ele>33.7</ele>
        <time>2021-08-18T09:35:16Z</time>
      </trkpt>
      <trkpt lat="49.2884" lon="-0.58891">
        <ele>34.1</ele>
        <time>2021-08-18T09:35:18Z</time>
      </trkpt>
      <trkpt lat="49.28843" lon="-0.5887">
        <ele>34.4</ele>
        <time>2021-08-18T09:35:20Z</time>
      </trkpt>
      <trkpt lat="49.28845" lon="-0.58849">
        <ele>34.6</ele>
        <time>2021-08-18T09:35:22Z</time>
      </trkpt>
      <trkpt lat="49.28847" lon="-0.58828">
        <ele>34.9</ele>
        <time>2021-08-18T09:35:24Z</time>
      </trkpt>
      <trkpt lat="49.28849" lon="-0.58817">
        <ele>35.1</ele>
        <time>2021-08-18T09:35:25Z</time>
      </trkpt>
      <trkpt lat="49.28852" lon="-0.58797">
        <ele>35.3</ele>
        <time>2021-08-18T09:35:27Z</time>
      </trkpt>
      <trkpt lat="49.28853" lon="-0.58787">
        <ele>35.4</ele>
        <time>2021-08-18T09:35:28Z</time>
      </trkpt>
      <trkpt lat="49.28856" lon="-0.58767">
        <ele>35.7</ele>
        <time>2021-08-18T09:35:30Z</time>
      </trkpt>
      <trkpt lat="49.28859" lon="-0.58747">
        <ele>35.9</ele>
        <time>2021-08-18T09:35:32Z</time>
      </trkpt>
      <trkpt lat="49.28862" lon="-0.58729">
        <ele>36.1</ele>
        <time>2021-08-18T09:35:34Z</time>
      </trkpt>
      <trkpt lat="49.28865" lon="-0.58702">
        <ele>36.4</ele>
        <time>2021-08-18T09:35:36Z</time>
      </trkpt>
      <trkpt lat="49.28865" lon="-0.58691">
        <ele>36.5</ele>
        <time>2021-08-18T09:35:38Z</time>
      </trkpt>
      <trkpt lat="49.28867" lon="-0.58676">
        <ele>36.6</ele>
        <time>2021-08-18T09:35:40Z</time>
      </trkpt>
      <trkpt lat="49.28867" lon="-0.58668">
        <ele>36.6</ele>
        <time>2021-08-18T09:35:41Z</time>
      </trkpt>
      <trkpt lat="49.28869" lon="-0.58651">
        <ele>36.8</ele>
        <time>2021-08-18T09:35:43Z</time>
      </trkpt>
      <trkpt lat="49.28869" lon="-0.58641">
        <ele>36.9</ele>
        <time>2021-08-18T09:35:44Z</time>
      </trkpt>
      <trkpt lat="49.28869" lon="-0.58622">
        <ele>37</ele>
        <time>2021-08-18T09:35:46Z</time>
      </trkpt>
      <trkpt lat="49.28871" lon="-0.58603">
        <ele>37.2</ele>
        <time>2021-08-18T09:35:48Z</time>
      </trkpt>
      <trkpt lat="49.28873" lon="-0.58585">
        <ele>37.3</ele>
        <time>2021-08-18T09:35:50Z</time>
      </trkpt>
      <trkpt lat="49.28874" lon="-0.58574">
        <ele>37.4</ele>
        <time>2021-08-18T09:35:51Z</time>
      </trkpt>
      <trkpt lat="49.28876" lon="-0.58553">
        <ele>37.5</ele>
        <time>2021-08-18T09:35:53Z</time>
      </trkpt>
      <trkpt lat="49.28878" lon="-0.58542">
        <ele>37.5</ele>
        <time>2021-08-18T09:35:54Z</time>
      </trkpt>
      <trkpt lat="49.28881" lon="-0.58521">
        <ele>37.7</ele>
        <time>2021-08-18T09:35:56Z</time>
      </trkpt>
      <trkpt lat="49.28883" lon="-0.58499">
        <ele>37.9</ele>
        <time>2021-08-18T09:35:58Z</time>
      </trkpt>
      <trkpt lat="49.28886" lon="-0.58477">
        <ele>38.2</ele>
        <time>2021-08-18T09:36:00Z</time>
      </trkpt>
      <trkpt lat="49.28888" lon="-0.58466">
        <ele>38.3</ele>
        <time>2021-08-18T09:36:01Z</time>
      </trkpt>
      <trkpt lat="49.2889" lon="-0.58442">
        <ele>38.5</ele>
        <time>2021-08-18T09:36:03Z</time>
      </trkpt>
      <trkpt lat="49.28891" lon="-0.58419">
        <ele>38.8</ele>
        <time>2021-08-18T09:36:05Z</time>
      </trkpt>
      <trkpt lat="49.28892" lon="-0.58407">
        <ele>38.9</ele>
        <time>2021-08-18T09:36:06Z</time>
      </trkpt>
      <trkpt lat="49.28893" lon="-0.58395">
        <ele>39.1</ele>
        <time>2021-08-18T09:36:07Z</time>
      </trkpt>
      <trkpt lat="49.28895" lon="-0.5837">
        <ele>39.4</ele>
        <time>2021-08-18T09:36:09Z</time>
      </trkpt>
      <trkpt lat="49.28896" lon="-0.58359">
        <ele>39.6</ele>
        <time>2021-08-18T09:36:10Z</time>
      </trkpt>
      <trkpt lat="49.28898" lon="-0.58336">
        <ele>40</ele>
        <time>2021-08-18T09:36:12Z</time>
      </trkpt>
      <trkpt lat="49.28899" lon="-0.58325">
        <ele>40.3</ele>
        <time>2021-08-18T09:36:13Z</time>
      </trkpt>
      <trkpt lat="49.28901" lon="-0.58303">
        <ele>40.8</ele>
        <time>2021-08-18T09:36:15Z</time>
      </trkpt>
      <trkpt lat="49.28902" lon="-0.58292">
        <ele>41.1</ele>
        <time>2021-08-18T09:36:16Z</time>
      </trkpt>
      <trkpt lat="49.28902" lon="-0.58282">
        <ele>41.4</ele>
        <time>2021-08-18T09:36:17Z</time>
      </trkpt>
      <trkpt lat="49.28904" lon="-0.58262">
        <ele>42</ele>
        <time>2021-08-18T09:36:19Z</time>
      </trkpt>
      <trkpt lat="49.28905" lon="-0.58243">
        <ele>42.6</ele>
        <time>2021-08-18T09:36:21Z</time>
      </trkpt>
      <trkpt lat="49.28905" lon="-0.58223">
        <ele>43.2</ele>
        <time>2021-08-18T09:36:23Z</time>
      </trkpt>
      <trkpt lat="49.28906" lon="-0.58214">
        <ele>43.5</ele>
        <time>2021-08-18T09:36:24Z</time>
      </trkpt>
      <trkpt lat="49.28908" lon="-0.58194">
        <ele>44</ele>
        <time>2021-08-18T09:36:26Z</time>
      </trkpt>
      <trkpt lat="49.28909" lon="-0.58176">
        <ele>44.6</ele>
        <time>2021-08-18T09:36:28Z</time>
      </trkpt>
      <trkpt lat="49.28911" lon="-0.58158">
        <ele>45.1</ele>
        <time>2021-08-18T09:36:30Z</time>
      </trkpt>
      <trkpt lat="49.28912" lon="-0.5814">
        <ele>45.6</ele>
        <time>2021-08-18T09:36:32Z</time>
      </trkpt>
      <trkpt lat="49.28914" lon="-0.58123">
        <ele>46.1</ele>
        <time>2021-08-18T09:36:34Z</time>
      </trkpt>
      <trkpt lat="49.28915" lon="-0.58114">
        <ele>46.4</ele>
        <time>2021-08-18T09:36:35Z</time>
      </trkpt>
      <trkpt lat="49.28917" lon="-0.58106">
        <ele>46.6</ele>
        <time>2021-08-18T09:36:36Z</time>
      </trkpt>
      <trkpt lat="49.28919" lon="-0.58087">
        <ele>47.1</ele>
        <time>2021-08-18T09:36:38Z</time>
      </trkpt>
      <trkpt lat="49.2892" lon="-0.58078">
        <ele>47.4</ele>
        <time>2021-08-18T09:36:39Z</time>
      </trkpt>
      <trkpt lat="49.28921" lon="-0.58069">
        <ele>47.6</ele>
        <time>2021-08-18T09:36:40Z</time>
      </trkpt>
      <trkpt lat="49.28921" lon="-0.58052">
        <ele>48</ele>
        <time>2021-08-18T09:36:42Z</time>
      </trkpt>
      <trkpt lat="49.28922" lon="-0.58043">
        <ele>48.2</ele>
        <time>2021-08-18T09:36:43Z</time>
      </trkpt>
      <trkpt lat="49.28923" lon="-0.58026">
        <ele>48.5</ele>
        <time>2021-08-18T09:36:45Z</time>
      </trkpt>
      <trkpt lat="49.28925" lon="-0.5801">
        <ele>48.9</ele>
        <time>2021-08-18T09:36:47Z</time>
      </trkpt>
      <trkpt lat="49.28926" lon="-0.58001">
        <ele>49.1</ele>
        <time>2021-08-18T09:36:48Z</time>
      </trkpt>
      <trkpt lat="49.28927" lon="-0.57983">
        <ele>49.5</ele>
        <time>2021-08-18T09:36:50Z</time>
      </trkpt>
      <trkpt lat="49.28928" lon="-0.57974">
        <ele>49.7</ele>
        <time>2021-08-18T09:36:51Z</time>
      </trkpt>
      <trkpt lat="49.28928" lon="-0.57957">
        <ele>50.2</ele>
        <time>2021-08-18T09:36:53Z</time>
      </trkpt>
      <trkpt lat="49.2893" lon="-0.5794">
        <ele>50.6</ele>
        <time>2021-08-18T09:36:55Z</time>
      </trkpt>
      <trkpt lat="49.28931" lon="-0.57922">
        <ele>50.9</ele>
        <time>2021-08-18T09:36:57Z</time>
      </trkpt>
      <trkpt lat="49.28932" lon="-0.57913">
        <ele>51.1</ele>
        <time>2021-08-18T09:36:58Z</time>
      </trkpt>
      <trkpt lat="49.28933" lon="-0.57904">
        <ele>51.2</ele>
        <time>2021-08-18T09:36:59Z</time>
      </trkpt>
      <trkpt lat="49.28934" lon="-0.57887">
        <ele>51.5</ele>
        <time>2021-08-18T09:37:01Z</time>
      </trkpt>
      <trkpt lat="49.28935" lon="-0.5787">
        <ele>51.8</ele>
        <time>2021-08-18T09:37:03Z</time>
      </trkpt>
      <trkpt lat="49.28937" lon="-0.57852">
        <ele>52</ele>
        <time>2021-08-18T09:37:05Z</time>
      </trkpt>
      <trkpt lat="49.28938" lon="-0.57842">
        <ele>52.1</ele>
        <time>2021-08-18T09:37:06Z</time>
      </trkpt>
      <trkpt lat="49.28939" lon="-0.57833">
        <ele>52.2</ele>
        <time>2021-08-18T09:37:07Z</time>
      </trkpt>
      <trkpt lat="49.2894" lon="-0.57823">
        <ele>52.3</ele>
        <time>2021-08-18T09:37:08Z</time>
      </trkpt>
      <trkpt lat="49.28942" lon="-0.57803">
        <ele>52.4</ele>
        <time>2021-08-18T09:37:10Z</time>
      </trkpt>
      <trkpt lat="49.28944" lon="-0.57792">
        <ele>52.5</ele>
        <time>2021-08-18T09:37:11Z</time>
      </trkpt>
      <trkpt lat="49.28945" lon="-0.57782">
        <ele>52.5</ele>
        <time>2021-08-18T09:37:12Z</time>
      </trkpt>
      <trkpt lat="49.28947" lon="-0.57771">
        <ele>52.6</ele>
        <time>2021-08-18T09:37:13Z</time>
      </trkpt>
      <trkpt lat="49.28948" lon="-0.5775">
        <ele>52.6</ele>
        <time>2021-08-18T09:37:15Z</time>
      </trkpt>
      <trkpt lat="49.28951" lon="-0.57728">
        <ele>52.7</ele>
        <time>2021-08-18T09:37:17Z</time>
      </trkpt>
      <trkpt lat="49.28952" lon="-0.57717">
        <ele>52.7</ele>
        <time>2021-08-18T09:37:18Z</time>
      </trkpt>
      <trkpt lat="49.28955" lon="-0.57695">
        <ele>52.8</ele>
        <time>2021-08-18T09:37:20Z</time>
      </trkpt>
      <trkpt lat="49.28956" lon="-0.57673">
        <ele>52.8</ele>
        <time>2021-08-18T09:37:22Z</time>
      </trkpt>
      <trkpt lat="49.28958" lon="-0.57651">
        <ele>52.9</ele>
        <time>2021-08-18T09:37:24Z</time>
      </trkpt>
      <trkpt lat="49.2896" lon="-0.57629">
        <ele>52.9</ele>
        <time>2021-08-18T09:37:26Z</time>
      </trkpt>
      <trkpt lat="49.28961" lon="-0.57617">
        <ele>52.9</ele>
        <time>2021-08-18T09:37:27Z</time>
      </trkpt>
      <trkpt lat="49.28962" lon="-0.57606">
        <ele>52.9</ele>
        <time>2021-08-18T09:37:28Z</time>
      </trkpt>
      <trkpt lat="49.28965" lon="-0.57583">
        <ele>52.8</ele>
        <time>2021-08-18T09:37:30Z</time>
      </trkpt>
      <trkpt lat="49.28967" lon="-0.5756">
        <ele>52.7</ele>
        <time>2021-08-18T09:37:32Z</time>
      </trkpt>
      <trkpt lat="49.28969" lon="-0.57537">
        <ele>52.6</ele>
        <time>2021-08-18T09:37:34Z</time>
      </trkpt>
      <trkpt lat="49.2897" lon="-0.57525">
        <ele>52.6</ele>
        <time>2021-08-18T09:37:35Z</time>
      </trkpt>
      <trkpt lat="49.28971" lon="-0.57513">
        <ele>52.6</ele>
        <time>2021-08-18T09:37:36Z</time>
      </trkpt>
      <trkpt lat="49.28973" lon="-0.5749">
        <ele>52.5</ele>
        <time>2021-08-18T09:37:38Z</time>
      </trkpt>
      <trkpt lat="49.28974" lon="-0.57466">
        <ele>52.4</ele>
        <time>2021-08-18T09:37:40Z</time>
      </trkpt>
      <trkpt lat="49.28976" lon="-0.57441">
        <ele>52.4</ele>
        <time>2021-08-18T09:37:42Z</time>
      </trkpt>
      <trkpt lat="49.28978" lon="-0.57429">
        <ele>52.3</ele>
        <time>2021-08-18T09:37:43Z</time>
      </trkpt>
      <trkpt lat="49.28979" lon="-0.57416">
        <ele>52.3</ele>
        <time>2021-08-18T09:37:44Z</time>
      </trkpt>
      <trkpt lat="49.28984" lon="-0.57393">
        <ele>52.2</ele>
        <time>2021-08-18T09:37:46Z</time>
      </trkpt>
      <trkpt lat="49.28985" lon="-0.57367">
        <ele>52</ele>
        <time>2021-08-18T09:37:48Z</time>
      </trkpt>
      <trkpt lat="49.28986" lon="-0.57341">
        <ele>51.9</ele>
        <time>2021-08-18T09:37:50Z</time>
      </trkpt>
      <trkpt lat="49.28988" lon="-0.57315">
        <ele>51.8</ele>
        <time>2021-08-18T09:37:52Z</time>
      </trkpt>
      <trkpt lat="49.28989" lon="-0.57302">
        <ele>51.7</ele>
        <time>2021-08-18T09:37:53Z</time>
      </trkpt>
      <trkpt lat="49.28991" lon="-0.57277">
        <ele>51.5</ele>
        <time>2021-08-18T09:37:55Z</time>
      </trkpt>
      <trkpt lat="49.28992" lon="-0.57264">
        <ele>51.4</ele>
        <time>2021-08-18T09:37:56Z</time>
      </trkpt>
      <trkpt lat="49.28993" lon="-0.57252">
        <ele>51.3</ele>
        <time>2021-08-18T09:37:57Z</time>
      </trkpt>
      <trkpt lat="49.28995" lon="-0.57239">
        <ele>51.2</ele>
        <time>2021-08-18T09:37:58Z</time>
      </trkpt>
      <trkpt lat="49.28998" lon="-0.57214">
        <ele>50.8</ele>
        <time>2021-08-18T09:38:00Z</time>
      </trkpt>
      <trkpt lat="49.28999" lon="-0.57201">
        <ele>50.7</ele>
        <time>2021-08-18T09:38:01Z</time>
      </trkpt>
      <trkpt lat="49.29001" lon="-0.57175">
        <ele>50.4</ele>
        <time>2021-08-18T09:38:03Z</time>
      </trkpt>
      <trkpt lat="49.29" lon="-0.57147">
        <ele>50</ele>
        <time>2021-08-18T09:38:05Z</time>
      </trkpt>
      <trkpt lat="49.28999" lon="-0.57118">
        <ele>49.6</ele>
        <time>2021-08-18T09:38:07Z</time>
      </trkpt>
      <trkpt lat="49.28999" lon="-0.57104">
        <ele>49.5</ele>
        <time>2021-08-18T09:38:08Z</time>
      </trkpt>
      <trkpt lat="49.29" lon="-0.57075">
        <ele>49.1</ele>
        <time>2021-08-18T09:38:10Z</time>
      </trkpt>
      <trkpt lat="49.29003" lon="-0.57046">
        <ele>48.8</ele>
        <time>2021-08-18T09:38:12Z</time>
      </trkpt>
      <trkpt lat="49.29007" lon="-0.57017">
        <ele>48.6</ele>
        <time>2021-08-18T09:38:14Z</time>
      </trkpt>
      <trkpt lat="49.29009" lon="-0.57001">
        <ele>48.3</ele>
        <time>2021-08-18T09:38:15Z</time>
      </trkpt>
      <trkpt lat="49.29015" lon="-0.56972">
        <ele>47.9</ele>
        <time>2021-08-18T09:38:17Z</time>
      </trkpt>
      <trkpt lat="49.29018" lon="-0.56957">
        <ele>47.6</ele>
        <time>2021-08-18T09:38:18Z</time>
      </trkpt>
      <trkpt lat="49.29023" lon="-0.56928">
        <ele>47.2</ele>
        <time>2021-08-18T09:38:20Z</time>
      </trkpt>
      <trkpt lat="49.29027" lon="-0.56898">
        <ele>46.8</ele>
        <time>2021-08-18T09:38:22Z</time>
      </trkpt>
      <trkpt lat="49.29029" lon="-0.56883">
        <ele>46.5</ele>
        <time>2021-08-18T09:38:23Z</time>
      </trkpt>
      <trkpt lat="49.29031" lon="-0.56854">
        <ele>46</ele>
        <time>2021-08-18T09:38:25Z</time>
      </trkpt>
      <trkpt lat="49.29032" lon="-0.56838">
        <ele>45.7</ele>
        <time>2021-08-18T09:38:26Z</time>
      </trkpt>
      <trkpt lat="49.29032" lon="-0.56823">
        <ele>45.4</ele>
        <time>2021-08-18T09:38:27Z</time>
      </trkpt>
      <trkpt lat="49.29034" lon="-0.56809">
        <ele>45</ele>
        <time>2021-08-18T09:38:28Z</time>
      </trkpt>
      <trkpt lat="49.29038" lon="-0.56779">
        <ele>44.1</ele>
        <time>2021-08-18T09:38:30Z</time>
      </trkpt>
      <trkpt lat="49.2904" lon="-0.56764">
        <ele>43.5</ele>
        <time>2021-08-18T09:38:31Z</time>
      </trkpt>
      <trkpt lat="49.29045" lon="-0.56733">
        <ele>42.5</ele>
        <time>2021-08-18T09:38:33Z</time>
      </trkpt>
      <trkpt lat="49.2905" lon="-0.567">
        <ele>41.6</ele>
        <time>2021-08-18T09:38:35Z</time>
      </trkpt>
      <trkpt lat="49.29053" lon="-0.56683">
        <ele>41.1</ele>
        <time>2021-08-18T09:38:36Z</time>
      </trkpt>
      <trkpt lat="49.29057" lon="-0.56648">
        <ele>40.4</ele>
        <time>2021-08-18T09:38:38Z</time>
      </trkpt>
      <trkpt lat="49.29057" lon="-0.5663">
        <ele>40.1</ele>
        <time>2021-08-18T09:38:39Z</time>
      </trkpt>
      <trkpt lat="49.29056" lon="-0.56613">
        <ele>39.8</ele>
        <time>2021-08-18T09:38:40Z</time>
      </trkpt>
      <trkpt lat="49.29059" lon="-0.56581">
        <ele>39.5</ele>
        <time>2021-08-18T09:38:42Z</time>
      </trkpt>
      <trkpt lat="49.29065" lon="-0.5655">
        <ele>39.5</ele>
        <time>2021-08-18T09:38:44Z</time>
      </trkpt>
      <trkpt lat="49.29067" lon="-0.56535">
        <ele>39.5</ele>
        <time>2021-08-18T09:38:45Z</time>
      </trkpt>
      <trkpt lat="49.29072" lon="-0.56505">
        <ele>39.5</ele>
        <time>2021-08-18T09:38:47Z</time>
      </trkpt>
      <trkpt lat="49.29074" lon="-0.5649">
        <ele>39.5</ele>
        <time>2021-08-18T09:38:48Z</time>
      </trkpt>
      <trkpt lat="49.29079" lon="-0.56462">
        <ele>39.5</ele>
        <time>2021-08-18T09:38:50Z</time>
      </trkpt>
      <trkpt lat="49.29081" lon="-0.56447">
        <ele>39.5</ele>
        <time>2021-08-18T09:38:51Z</time>
      </trkpt>
      <trkpt lat="49.29087" lon="-0.56418">
        <ele>39.2</ele>
        <time>2021-08-18T09:38:53Z</time>
      </trkpt>
      <trkpt lat="49.29091" lon="-0.5639">
        <ele>38.9</ele>
        <time>2021-08-18T09:38:55Z</time>
      </trkpt>
      <trkpt lat="49.29092" lon="-0.56375">
        <ele>38.8</ele>
        <time>2021-08-18T09:38:56Z</time>
      </trkpt>
      <trkpt lat="49.29094" lon="-0.56361">
        <ele>38.6</ele>
        <time>2021-08-18T09:38:57Z</time>
      </trkpt>
      <trkpt lat="49.29098" lon="-0.56332">
        <ele>38.5</ele>
        <time>2021-08-18T09:38:59Z</time>
      </trkpt>
      <trkpt lat="49.291" lon="-0.56317">
        <ele>38.4</ele>
        <time>2021-08-18T09:39:00Z</time>
      </trkpt>
      <trkpt lat="49.29103" lon="-0.56287">
        <ele>38.3</ele>
        <time>2021-08-18T09:39:02Z</time>
      </trkpt>
      <trkpt lat="49.29105" lon="-0.56259">
        <ele>38.4</ele>
        <time>2021-08-18T09:39:04Z</time>
      </trkpt>
      <trkpt lat="49.29106" lon="-0.56245">
        <ele>38.5</ele>
        <time>2021-08-18T09:39:05Z</time>
      </trkpt>
      <trkpt lat="49.29108" lon="-0.56218">
        <ele>38.8</ele>
        <time>2021-08-18T09:39:07Z</time>
      </trkpt>
      <trkpt lat="49.29109" lon="-0.56192">
        <ele>39.2</ele>
        <time>2021-08-18T09:39:09Z</time>
      </trkpt>
      <trkpt lat="49.29108" lon="-0.56167">
        <ele>39.8</ele>
        <time>2021-08-18T09:39:11Z</time>
      </trkpt>
      <trkpt lat="49.29109" lon="-0.56144">
        <ele>40.5</ele>
        <time>2021-08-18T09:39:13Z</time>
      </trkpt>
      <trkpt lat="49.29109" lon="-0.56132">
        <ele>40.8</ele>
        <time>2021-08-18T09:39:14Z</time>
      </trkpt>
      <trkpt lat="49.29111" lon="-0.5611">
        <ele>41.6</ele>
        <time>2021-08-18T09:39:16Z</time>
      </trkpt>
      <trkpt lat="49.29113" lon="-0.561">
        <ele>41.9</ele>
        <time>2021-08-18T09:39:17Z</time>
      </trkpt>
      <trkpt lat="49.29115" lon="-0.5609">
        <ele>42.2</ele>
        <time>2021-08-18T09:39:18Z</time>
      </trkpt>
      <trkpt lat="49.29118" lon="-0.56069">
        <ele>42.8</ele>
        <time>2021-08-18T09:39:20Z</time>
      </trkpt>
      <trkpt lat="49.2912" lon="-0.56048">
        <ele>43.2</ele>
        <time>2021-08-18T09:39:22Z</time>
      </trkpt>
      <trkpt lat="49.29123" lon="-0.56027">
        <ele>43.6</ele>
        <time>2021-08-18T09:39:24Z</time>
      </trkpt>
      <trkpt lat="49.29124" lon="-0.56017">
        <ele>43.7</ele>
        <time>2021-08-18T09:39:25Z</time>
      </trkpt>
      <trkpt lat="49.29126" lon="-0.56006">
        <ele>43.8</ele>
        <time>2021-08-18T09:39:26Z</time>
      </trkpt>
      <trkpt lat="49.29128" lon="-0.55985">
        <ele>43.9</ele>
        <time>2021-08-18T09:39:28Z</time>
      </trkpt>
      <trkpt lat="49.29129" lon="-0.55974">
        <ele>44</ele>
        <time>2021-08-18T09:39:29Z</time>
      </trkpt>
      <trkpt lat="49.2913" lon="-0.55963">
        <ele>44.1</ele>
        <time>2021-08-18T09:39:30Z</time>
      </trkpt>
      <trkpt lat="49.29131" lon="-0.55939">
        <ele>44.2</ele>
        <time>2021-08-18T09:39:32Z</time>
      </trkpt>
      <trkpt lat="49.29134" lon="-0.55913">
        <ele>44.2</ele>
        <time>2021-08-18T09:39:34Z</time>
      </trkpt>
      <trkpt lat="49.29135" lon="-0.559">
        <ele>44.2</ele>
        <time>2021-08-18T09:39:35Z</time>
      </trkpt>
      <trkpt lat="49.29136" lon="-0.55887">
        <ele>44.3</ele>
        <time>2021-08-18T09:39:36Z</time>
      </trkpt>
      <trkpt lat="49.29138" lon="-0.55874">
        <ele>44.3</ele>
        <time>2021-08-18T09:39:37Z</time>
      </trkpt>
      <trkpt lat="49.29143" lon="-0.55847">
        <ele>44.3</ele>
        <time>2021-08-18T09:39:39Z</time>
      </trkpt>
      <trkpt lat="49.29145" lon="-0.55835">
        <ele>44.4</ele>
        <time>2021-08-18T09:39:40Z</time>
      </trkpt>
      <trkpt lat="49.29148" lon="-0.55823">
        <ele>44.4</ele>
        <time>2021-08-18T09:39:41Z</time>
      </trkpt>
      <trkpt lat="49.2915" lon="-0.55811">
        <ele>44.4</ele>
        <time>2021-08-18T09:39:42Z</time>
      </trkpt>
      <trkpt lat="49.29152" lon="-0.55799">
        <ele>44.5</ele>
        <time>2021-08-18T09:39:43Z</time>
      </trkpt>
      <trkpt lat="49.29157" lon="-0.55774">
        <ele>44.5</ele>
        <time>2021-08-18T09:39:45Z</time>
      </trkpt>
      <trkpt lat="49.29159" lon="-0.55762">
        <ele>44.6</ele>
        <time>2021-08-18T09:39:46Z</time>
      </trkpt>
      <trkpt lat="49.29163" lon="-0.55736">
        <ele>44.7</ele>
        <time>2021-08-18T09:39:48Z</time>
      </trkpt>
      <trkpt lat="49.29166" lon="-0.55711">
        <ele>44.8</ele>
        <time>2021-08-18T09:39:50Z</time>
      </trkpt>
      <trkpt lat="49.29169" lon="-0.55684">
        <ele>45</ele>
        <time>2021-08-18T09:39:52Z</time>
      </trkpt>
      <trkpt lat="49.29171" lon="-0.55658">
        <ele>45.2</ele>
        <time>2021-08-18T09:39:54Z</time>
      </trkpt>
      <trkpt lat="49.29174" lon="-0.55632">
        <ele>45.3</ele>
        <time>2021-08-18T09:39:56Z</time>
      </trkpt>
      <trkpt lat="49.29177" lon="-0.55607">
        <ele>45.5</ele>
        <time>2021-08-18T09:39:58Z</time>
      </trkpt>
      <trkpt lat="49.29179" lon="-0.55594">
        <ele>45.5</ele>
        <time>2021-08-18T09:39:59Z</time>
      </trkpt>
      <trkpt lat="49.29184" lon="-0.55567">
        <ele>45.5</ele>
        <time>2021-08-18T09:40:01Z</time>
      </trkpt>
      <trkpt lat="49.29186" lon="-0.55541">
        <ele>45.4</ele>
        <time>2021-08-18T09:40:03Z</time>
      </trkpt>
      <trkpt lat="49.29188" lon="-0.55528">
        <ele>45.3</ele>
        <time>2021-08-18T09:40:04Z</time>
      </trkpt>
      <trkpt lat="49.29189" lon="-0.55514">
        <ele>45.2</ele>
        <time>2021-08-18T09:40:05Z</time>
      </trkpt>
      <trkpt lat="49.29191" lon="-0.555">
        <ele>45.1</ele>
        <time>2021-08-18T09:40:06Z</time>
      </trkpt>
      <trkpt lat="49.29195" lon="-0.55471">
        <ele>45</ele>
        <time>2021-08-18T09:40:08Z</time>
      </trkpt>
      <trkpt lat="49.29199" lon="-0.55443">
        <ele>44.8</ele>
        <time>2021-08-18T09:40:10Z</time>
      </trkpt>
      <trkpt lat="49.29201" lon="-0.55428">
        <ele>44.7</ele>
        <time>2021-08-18T09:40:11Z</time>
      </trkpt>
      <trkpt lat="49.29204" lon="-0.55399">
        <ele>44.5</ele>
        <time>2021-08-18T09:40:13Z</time>
      </trkpt>
      <trkpt lat="49.29206" lon="-0.55384">
        <ele>44.5</ele>
        <time>2021-08-18T09:40:14Z</time>
      </trkpt>
      <trkpt lat="49.29209" lon="-0.55355">
        <ele>44.4</ele>
        <time>2021-08-18T09:40:16Z</time>
      </trkpt>
      <trkpt lat="49.2921" lon="-0.5534">
        <ele>44.4</ele>
        <time>2021-08-18T09:40:17Z</time>
      </trkpt>
      <trkpt lat="49.29212" lon="-0.5531">
        <ele>44.3</ele>
        <time>2021-08-18T09:40:19Z</time>
      </trkpt>
      <trkpt lat="49.29214" lon="-0.55295">
        <ele>44.3</ele>
        <time>2021-08-18T09:40:20Z</time>
      </trkpt>
      <trkpt lat="49.29216" lon="-0.55281">
        <ele>44.3</ele>
        <time>2021-08-18T09:40:21Z</time>
      </trkpt>
      <trkpt lat="49.29218" lon="-0.55266">
        <ele>44.3</ele>
        <time>2021-08-18T09:40:22Z</time>
      </trkpt>
      <trkpt lat="49.29222" lon="-0.55238">
        <ele>44.2</ele>
        <time>2021-08-18T09:40:24Z</time>
      </trkpt>
      <trkpt lat="49.29225" lon="-0.55223">
        <ele>44</ele>
        <time>2021-08-18T09:40:25Z</time>
      </trkpt>
      <trkpt lat="49.29231" lon="-0.55194">
        <ele>43.9</ele>
        <time>2021-08-18T09:40:27Z</time>
      </trkpt>
      <trkpt lat="49.29236" lon="-0.55165">
        <ele>43.7</ele>
        <time>2021-08-18T09:40:29Z</time>
      </trkpt>
      <trkpt lat="49.29239" lon="-0.55135">
        <ele>43.4</ele>
        <time>2021-08-18T09:40:31Z</time>
      </trkpt>
      <trkpt lat="49.29242" lon="-0.5512">
        <ele>43.3</ele>
        <time>2021-08-18T09:40:32Z</time>
      </trkpt>
      <trkpt lat="49.29246" lon="-0.55089">
        <ele>42.9</ele>
        <time>2021-08-18T09:40:34Z</time>
      </trkpt>
      <trkpt lat="49.29248" lon="-0.55073">
        <ele>42.8</ele>
        <time>2021-08-18T09:40:35Z</time>
      </trkpt>
      <trkpt lat="49.29251" lon="-0.55043">
        <ele>42.4</ele>
        <time>2021-08-18T09:40:37Z</time>
      </trkpt>
      <trkpt lat="49.29255" lon="-0.55012">
        <ele>42</ele>
        <time>2021-08-18T09:40:39Z</time>
      </trkpt>
      <trkpt lat="49.29259" lon="-0.5498">
        <ele>41.6</ele>
        <time>2021-08-18T09:40:41Z</time>
      </trkpt>
      <trkpt lat="49.29262" lon="-0.54948">
        <ele>41.3</ele>
        <time>2021-08-18T09:40:43Z</time>
      </trkpt>
      <trkpt lat="49.29263" lon="-0.54932">
        <ele>41.1</ele>
        <time>2021-08-18T09:40:44Z</time>
      </trkpt>
      <trkpt lat="49.29266" lon="-0.549">
        <ele>40.8</ele>
        <time>2021-08-18T09:40:46Z</time>
      </trkpt>
      <trkpt lat="49.29268" lon="-0.54883">
        <ele>40.6</ele>
        <time>2021-08-18T09:40:47Z</time>
      </trkpt>
      <trkpt lat="49.29272" lon="-0.54852">
        <ele>40.2</ele>
        <time>2021-08-18T09:40:49Z</time>
      </trkpt>
      <trkpt lat="49.29275" lon="-0.54819">
        <ele>39.9</ele>
        <time>2021-08-18T09:40:51Z</time>
      </trkpt>
      <trkpt lat="49.29277" lon="-0.54802">
        <ele>39.7</ele>
        <time>2021-08-18T09:40:52Z</time>
      </trkpt>
      <trkpt lat="49.29281" lon="-0.54769">
        <ele>39.2</ele>
        <time>2021-08-18T09:40:54Z</time>
      </trkpt>
      <trkpt lat="49.29282" lon="-0.54753">
        <ele>38.9</ele>
        <time>2021-08-18T09:40:55Z</time>
      </trkpt>
      <trkpt lat="49.29285" lon="-0.5472">
        <ele>38.2</ele>
        <time>2021-08-18T09:40:57Z</time>
      </trkpt>
      <trkpt lat="49.29288" lon="-0.54687">
        <ele>37.4</ele>
        <time>2021-08-18T09:40:59Z</time>
      </trkpt>
      <trkpt lat="49.29291" lon="-0.54653">
        <ele>36.6</ele>
        <time>2021-08-18T09:41:01Z</time>
      </trkpt>
      <trkpt lat="49.29294" lon="-0.54636">
        <ele>36.1</ele>
        <time>2021-08-18T09:41:02Z</time>
      </trkpt>
      <trkpt lat="49.293" lon="-0.54601">
        <ele>35.4</ele>
        <time>2021-08-18T09:41:04Z</time>
      </trkpt>
      <trkpt lat="49.29305" lon="-0.54565">
        <ele>34.5</ele>
        <time>2021-08-18T09:41:06Z</time>
      </trkpt>
      <trkpt lat="49.29308" lon="-0.54546">
        <ele>34.1</ele>
        <time>2021-08-18T09:41:07Z</time>
      </trkpt>
      <trkpt lat="49.29314" lon="-0.54509">
        <ele>33.8</ele>
        <time>2021-08-18T09:41:09Z</time>
      </trkpt>
      <trkpt lat="49.29319" lon="-0.54473">
        <ele>33.7</ele>
        <time>2021-08-18T09:41:11Z</time>
      </trkpt>
      <trkpt lat="49.29324" lon="-0.54437">
        <ele>33.8</ele>
        <time>2021-08-18T09:41:13Z</time>
      </trkpt>
      <trkpt lat="49.29327" lon="-0.54403">
        <ele>34.1</ele>
        <time>2021-08-18T09:41:15Z</time>
      </trkpt>
      <trkpt lat="49.29329" lon="-0.54372">
        <ele>34.4</ele>
        <time>2021-08-18T09:41:17Z</time>
      </trkpt>
      <trkpt lat="49.29329" lon="-0.54342">
        <ele>34.9</ele>
        <time>2021-08-18T09:41:19Z</time>
      </trkpt>
      <trkpt lat="49.29321" lon="-0.54337">
        <ele>34.2</ele>
        <time>2021-08-18T09:41:20Z</time>
      </trkpt>
      <trkpt lat="49.29301" lon="-0.54331">
        <ele>32.8</ele>
        <time>2021-08-18T09:41:22Z</time>
      </trkpt>
      <trkpt lat="49.29281" lon="-0.54322">
        <ele>31.8</ele>
        <time>2021-08-18T09:41:24Z</time>
      </trkpt>
      <trkpt lat="49.2926" lon="-0.54313">
        <ele>31</ele>
        <time>2021-08-18T09:41:26Z</time>
      </trkpt>
      <trkpt lat="49.29239" lon="-0.54304">
        <ele>30.2</ele>
        <time>2021-08-18T09:41:28Z</time>
      </trkpt>
      <trkpt lat="49.29219" lon="-0.54292">
        <ele>29.5</ele>
        <time>2021-08-18T09:41:30Z</time>
      </trkpt>
      <trkpt lat="49.29199" lon="-0.54278">
        <ele>28.5</ele>
        <time>2021-08-18T09:41:32Z</time>
      </trkpt>
      <trkpt lat="49.29179" lon="-0.54263">
        <ele>27.5</ele>
        <time>2021-08-18T09:41:34Z</time>
      </trkpt>
      <trkpt lat="49.2916" lon="-0.54245">
        <ele>26.3</ele>
        <time>2021-08-18T09:41:36Z</time>
      </trkpt>
      <trkpt lat="49.29151" lon="-0.54234">
        <ele>25.7</ele>
        <time>2021-08-18T09:41:37Z</time>
      </trkpt>
      <trkpt lat="49.29143" lon="-0.5422">
        <ele>25.1</ele>
        <time>2021-08-18T09:41:38Z</time>
      </trkpt>
      <trkpt lat="49.29128" lon="-0.54193">
        <ele>23.7</ele>
        <time>2021-08-18T09:41:40Z</time>
      </trkpt>
      <trkpt lat="49.29112" lon="-0.54167">
        <ele>22.1</ele>
        <time>2021-08-18T09:41:42Z</time>
      </trkpt>
      <trkpt lat="49.29086" lon="-0.54156">
        <ele>19.4</ele>
        <time>2021-08-18T09:41:44Z</time>
      </trkpt>
      <trkpt lat="49.29072" lon="-0.54156">
        <ele>18</ele>
        <time>2021-08-18T09:41:45Z</time>
      </trkpt>
      <trkpt lat="49.29046" lon="-0.54159">
        <ele>15.4</ele>
        <time>2021-08-18T09:41:47Z</time>
      </trkpt>
      <trkpt lat="49.29033" lon="-0.54167">
        <ele>14.4</ele>
        <time>2021-08-18T09:41:48Z</time>
      </trkpt>
      <trkpt lat="49.29009" lon="-0.54185">
        <ele>12.9</ele>
        <time>2021-08-18T09:41:50Z</time>
      </trkpt>
      <trkpt lat="49.28986" lon="-0.54201">
        <ele>12.2</ele>
        <time>2021-08-18T09:41:52Z</time>
      </trkpt>
      <trkpt lat="49.28976" lon="-0.5421">
        <ele>11.9</ele>
        <time>2021-08-18T09:41:53Z</time>
      </trkpt>
      <trkpt lat="49.28954" lon="-0.54226">
        <ele>11.5</ele>
        <time>2021-08-18T09:41:55Z</time>
      </trkpt>
      <trkpt lat="49.28931" lon="-0.54236">
        <ele>11.4</ele>
        <time>2021-08-18T09:41:57Z</time>
      </trkpt>
      <trkpt lat="49.28908" lon="-0.54231">
        <ele>11.4</ele>
        <time>2021-08-18T09:41:59Z</time>
      </trkpt>
      <trkpt lat="49.28897" lon="-0.54225">
        <ele>11.4</ele>
        <time>2021-08-18T09:42:00Z</time>
      </trkpt>
      <trkpt lat="49.28881" lon="-0.54203">
        <ele>11.1</ele>
        <time>2021-08-18T09:42:02Z</time>
      </trkpt>
      <trkpt lat="49.28873" lon="-0.54192">
        <ele>11</ele>
        <time>2021-08-18T09:42:03Z</time>
      </trkpt>
      <trkpt lat="49.28859" lon="-0.5417">
        <ele>10.8</ele>
        <time>2021-08-18T09:42:05Z</time>
      </trkpt>
      <trkpt lat="49.28851" lon="-0.5416">
        <ele>10.8</ele>
        <time>2021-08-18T09:42:06Z</time>
      </trkpt>
      <trkpt lat="49.28836" lon="-0.54145">
        <ele>10.9</ele>
        <time>2021-08-18T09:42:08Z</time>
      </trkpt>
      <trkpt lat="49.2882" lon="-0.54134">
        <ele>11.2</ele>
        <time>2021-08-18T09:42:10Z</time>
      </trkpt>
      <trkpt lat="49.28812" lon="-0.54128">
        <ele>11.3</ele>
        <time>2021-08-18T09:42:11Z</time>
      </trkpt>
      <trkpt lat="49.28797" lon="-0.54118">
        <ele>11.6</ele>
        <time>2021-08-18T09:42:13Z</time>
      </trkpt>
      <trkpt lat="49.28783" lon="-0.54109">
        <ele>11.7</ele>
        <time>2021-08-18T09:42:15Z</time>
      </trkpt>
      <trkpt lat="49.28777" lon="-0.54105">
        <ele>11.7</ele>
        <time>2021-08-18T09:42:16Z</time>
      </trkpt>
      <trkpt lat="49.2877" lon="-0.54101">
        <ele>11.7</ele>
        <time>2021-08-18T09:42:17Z</time>
      </trkpt>
      <trkpt lat="49.28757" lon="-0.54093">
        <ele>11.7</ele>
        <time>2021-08-18T09:42:19Z</time>
      </trkpt>
      <trkpt lat="49.28744" lon="-0.54084">
        <ele>11.7</ele>
        <time>2021-08-18T09:42:21Z</time>
      </trkpt>
      <trkpt lat="49.28731" lon="-0.54075">
        <ele>11.6</ele>
        <time>2021-08-18T09:42:23Z</time>
      </trkpt>
      <trkpt lat="49.28724" lon="-0.54071">
        <ele>11.7</ele>
        <time>2021-08-18T09:42:24Z</time>
      </trkpt>
      <trkpt lat="49.28709" lon="-0.54064">
        <ele>11.7</ele>
        <time>2021-08-18T09:42:26Z</time>
      </trkpt>
      <trkpt lat="49.28695" lon="-0.54057">
        <ele>11.7</ele>
        <time>2021-08-18T09:42:28Z</time>
      </trkpt>
      <trkpt lat="49.28681" lon="-0.54052">
        <ele>11.7</ele>
        <time>2021-08-18T09:42:30Z</time>
      </trkpt>
      <trkpt lat="49.28675" lon="-0.54049">
        <ele>11.9</ele>
        <time>2021-08-18T09:42:31Z</time>
      </trkpt>
      <trkpt lat="49.28661" lon="-0.54045">
        <ele>12.2</ele>
        <time>2021-08-18T09:42:33Z</time>
      </trkpt>
      <trkpt lat="49.28654" lon="-0.54043">
        <ele>12.3</ele>
        <time>2021-08-18T09:42:34Z</time>
      </trkpt>
      <trkpt lat="49.28641" lon="-0.54041">
        <ele>12.7</ele>
        <time>2021-08-18T09:42:36Z</time>
      </trkpt>
      <trkpt lat="49.2863" lon="-0.54049">
        <ele>13.4</ele>
        <time>2021-08-18T09:42:38Z</time>
      </trkpt>
      <trkpt lat="49.28617" lon="-0.54055">
        <ele>14.1</ele>
        <time>2021-08-18T09:42:40Z</time>
      </trkpt>
      <trkpt lat="49.28611" lon="-0.54057">
        <ele>14.5</ele>
        <time>2021-08-18T09:42:41Z</time>
      </trkpt>
      <trkpt lat="49.28599" lon="-0.54056">
        <ele>15.3</ele>
        <time>2021-08-18T09:42:43Z</time>
      </trkpt>
      <trkpt lat="49.2859" lon="-0.54053">
        <ele>16.1</ele>
        <time>2021-08-18T09:42:45Z</time>
      </trkpt>
      <trkpt lat="49.28586" lon="-0.54051">
        <ele>16.4</ele>
        <time>2021-08-18T09:42:46Z</time>
      </trkpt>
      <trkpt lat="49.28575" lon="-0.54049">
        <ele>17.3</ele>
        <time>2021-08-18T09:42:48Z</time>
      </trkpt>
      <trkpt lat="49.2857" lon="-0.54046">
        <ele>17.9</ele>
        <time>2021-08-18T09:42:49Z</time>
      </trkpt>
      <trkpt lat="49.2856" lon="-0.54042">
        <ele>18.8</ele>
        <time>2021-08-18T09:42:51Z</time>
      </trkpt>
      <trkpt lat="49.28555" lon="-0.54039">
        <ele>19.3</ele>
        <time>2021-08-18T09:42:52Z</time>
      </trkpt>
      <trkpt lat="49.28545" lon="-0.54034">
        <ele>20.3</ele>
        <time>2021-08-18T09:42:54Z</time>
      </trkpt>
      <trkpt lat="49.28537" lon="-0.54027">
        <ele>21.1</ele>
        <time>2021-08-18T09:42:56Z</time>
      </trkpt>
      <trkpt lat="49.28535" lon="-0.54024">
        <ele>21.4</ele>
        <time>2021-08-18T09:42:57Z</time>
      </trkpt>
      <trkpt lat="49.28527" lon="-0.54018">
        <ele>22.1</ele>
        <time>2021-08-18T09:42:59Z</time>
      </trkpt>
      <trkpt lat="49.28518" lon="-0.54013">
        <ele>22.9</ele>
        <time>2021-08-18T09:43:01Z</time>
      </trkpt>
      <trkpt lat="49.28508" lon="-0.5401">
        <ele>23.6</ele>
        <time>2021-08-18T09:43:03Z</time>
      </trkpt>
      <trkpt lat="49.285" lon="-0.54009">
        <ele>24.3</ele>
        <time>2021-08-18T09:43:05Z</time>
      </trkpt>
      <trkpt lat="49.28495" lon="-0.54011">
        <ele>24.7</ele>
        <time>2021-08-18T09:43:06Z</time>
      </trkpt>
      <trkpt lat="49.28491" lon="-0.54013">
        <ele>25</ele>
        <time>2021-08-18T09:43:07Z</time>
      </trkpt>
      <trkpt lat="49.28481" lon="-0.54016">
        <ele>26</ele>
        <time>2021-08-18T09:43:09Z</time>
      </trkpt>
      <trkpt lat="49.28476" lon="-0.54017">
        <ele>26.3</ele>
        <time>2021-08-18T09:43:10Z</time>
      </trkpt>
      <trkpt lat="49.28472" lon="-0.54012">
        <ele>26.8</ele>
        <time>2021-08-18T09:43:12Z</time>
      </trkpt>
      <trkpt lat="49.2847" lon="-0.54">
        <ele>27.4</ele>
        <time>2021-08-18T09:43:14Z</time>
      </trkpt>
      <trkpt lat="49.28473" lon="-0.53985">
        <ele>27.7</ele>
        <time>2021-08-18T09:43:16Z</time>
      </trkpt>
      <trkpt lat="49.28476" lon="-0.53975">
        <ele>27.9</ele>
        <time>2021-08-18T09:43:18Z</time>
      </trkpt>
      <trkpt lat="49.28479" lon="-0.53969">
        <ele>28</ele>
        <time>2021-08-18T09:43:19Z</time>
      </trkpt>
      <trkpt lat="49.28485" lon="-0.53959">
        <ele>28.2</ele>
        <time>2021-08-18T09:43:21Z</time>
      </trkpt>
      <trkpt lat="49.28489" lon="-0.53951">
        <ele>28.4</ele>
        <time>2021-08-18T09:43:23Z</time>
      </trkpt>
      <trkpt lat="49.28492" lon="-0.53946">
        <ele>28.4</ele>
        <time>2021-08-18T09:43:24Z</time>
      </trkpt>
      <trkpt lat="49.28495" lon="-0.5394">
        <ele>28.5</ele>
        <time>2021-08-18T09:43:25Z</time>
      </trkpt>
      <trkpt lat="49.28497" lon="-0.53936">
        <ele>28.6</ele>
        <time>2021-08-18T09:43:26Z</time>
      </trkpt>
      <trkpt lat="49.28501" lon="-0.5393">
        <ele>28.7</ele>
        <time>2021-08-18T09:43:28Z</time>
      </trkpt>
      <trkpt lat="49.28506" lon="-0.53922">
        <ele>28.9</ele>
        <time>2021-08-18T09:43:30Z</time>
      </trkpt>
      <trkpt lat="49.28509" lon="-0.53917">
        <ele>29</ele>
        <time>2021-08-18T09:43:31Z</time>
      </trkpt>
      <trkpt lat="49.28516" lon="-0.53905">
        <ele>29.1</ele>
        <time>2021-08-18T09:43:33Z</time>
      </trkpt>
      <trkpt lat="49.28521" lon="-0.53899">
        <ele>29.2</ele>
        <time>2021-08-18T09:43:35Z</time>
      </trkpt>
      <trkpt lat="49.28522" lon="-0.539">
        <ele>29.2</ele>
        <time>2021-08-18T09:43:37Z</time>
      </trkpt>
      <trkpt lat="49.28522" lon="-0.539">
        <ele>29.2</ele>
        <time>2021-08-18T09:43:38Z</time>
      </trkpt>
      <trkpt lat="49.28524" lon="-0.53899">
        <ele>29.3</ele>
        <time>2021-08-18T09:43:39Z</time>
      </trkpt>
      <trkpt lat="49.28524" lon="-0.53897">
        <ele>29.3</ele>
        <time>2021-08-18T09:43:41Z</time>
      </trkpt>
      <trkpt lat="49.28525" lon="-0.53897">
        <ele>29.3</ele>
        <time>2021-08-18T09:43:42Z</time>
      </trkpt>
      <trkpt lat="49.28525" lon="-0.53896">
        <ele>29.3</ele>
        <time>2021-08-18T09:43:44Z</time>
      </trkpt>
      <trkpt lat="49.28525" lon="-0.53895">
        <ele>29.3</ele>
        <time>2021-08-18T09:43:45Z</time>
      </trkpt>
      <trkpt lat="49.28525" lon="-0.53895">
        <ele>29.3</ele>
        <time>2021-08-18T09:43:46Z</time>
      </trkpt>
      <trkpt lat="49.28525" lon="-0.53895">
        <ele>29.3</ele>
        <time>2021-08-18T09:43:47Z</time>
      </trkpt>
      <trkpt lat="49.28526" lon="-0.53893">
        <ele>29.3</ele>
        <time>2021-08-18T09:43:51Z</time>
      </trkpt>
      <trkpt lat="49.28528" lon="-0.53888">
        <ele>29.4</ele>
        <time>2021-08-18T09:43:52Z</time>
      </trkpt>
      <trkpt lat="49.28533" lon="-0.53879">
        <ele>29.5</ele>
        <time>2021-08-18T09:43:54Z</time>
      </trkpt>
      <trkpt lat="49.28535" lon="-0.53875">
        <ele>29.5</ele>
        <time>2021-08-18T09:43:55Z</time>
      </trkpt>
      <trkpt lat="49.28539" lon="-0.53868">
        <ele>29.6</ele>
        <time>2021-08-18T09:43:57Z</time>
      </trkpt>
      <trkpt lat="49.28543" lon="-0.53861">
        <ele>29.7</ele>
        <time>2021-08-18T09:43:59Z</time>
      </trkpt>
      <trkpt lat="49.28544" lon="-0.53859">
        <ele>29.7</ele>
        <time>2021-08-18T09:44:00Z</time>
      </trkpt>
      <trkpt lat="49.28547" lon="-0.53852">
        <ele>29.8</ele>
        <time>2021-08-18T09:44:02Z</time>
      </trkpt>
      <trkpt lat="49.28549" lon="-0.53841">
        <ele>29.8</ele>
        <time>2021-08-18T09:44:04Z</time>
      </trkpt>
      <trkpt lat="49.2855" lon="-0.53839">
        <ele>29.9</ele>
        <time>2021-08-18T09:44:05Z</time>
      </trkpt>
      <trkpt lat="49.2855" lon="-0.53839">
        <ele>29.9</ele>
        <time>2021-08-18T09:44:06Z</time>
      </trkpt>
      <trkpt lat="49.28556" lon="-0.5383">
        <ele>29.9</ele>
        <time>2021-08-18T09:44:08Z</time>
      </trkpt>
      <trkpt lat="49.28567" lon="-0.53812">
        <ele>30.1</ele>
        <time>2021-08-18T09:44:10Z</time>
      </trkpt>
      <trkpt lat="49.28571" lon="-0.53806">
        <ele>30.2</ele>
        <time>2021-08-18T09:44:11Z</time>
      </trkpt>
      <trkpt lat="49.28578" lon="-0.53797">
        <ele>30.2</ele>
        <time>2021-08-18T09:44:13Z</time>
      </trkpt>
      <trkpt lat="49.28584" lon="-0.53788">
        <ele>30.1</ele>
        <time>2021-08-18T09:44:15Z</time>
      </trkpt>
      <trkpt lat="49.28585" lon="-0.53785">
        <ele>30.1</ele>
        <time>2021-08-18T09:44:16Z</time>
      </trkpt>
      <trkpt lat="49.28588" lon="-0.53779">
        <ele>30.1</ele>
        <time>2021-08-18T09:44:18Z</time>
      </trkpt>
      <trkpt lat="49.28588" lon="-0.53779">
        <ele>30.1</ele>
        <time>2021-08-18T09:44:19Z</time>
      </trkpt>
      <trkpt lat="49.28586" lon="-0.53782">
        <ele>30.1</ele>
        <time>2021-08-18T09:44:21Z</time>
      </trkpt>
      <trkpt lat="49.28587" lon="-0.53791">
        <ele>30.1</ele>
        <time>2021-08-18T09:44:23Z</time>
      </trkpt>
      <trkpt lat="49.28593" lon="-0.53801">
        <ele>30.1</ele>
        <time>2021-08-18T09:44:25Z</time>
      </trkpt>
      <trkpt lat="49.28601" lon="-0.53808">
        <ele>29.9</ele>
        <time>2021-08-18T09:44:27Z</time>
      </trkpt>
      <trkpt lat="49.28605" lon="-0.53813">
        <ele>29.8</ele>
        <time>2021-08-18T09:44:28Z</time>
      </trkpt>
      <trkpt lat="49.28609" lon="-0.53819">
        <ele>29.8</ele>
        <time>2021-08-18T09:44:29Z</time>
      </trkpt>
      <trkpt lat="49.28619" lon="-0.53827">
        <ele>29.6</ele>
        <time>2021-08-18T09:44:31Z</time>
      </trkpt>
      <trkpt lat="49.28625" lon="-0.53832">
        <ele>29.5</ele>
        <time>2021-08-18T09:44:32Z</time>
      </trkpt>
      <trkpt lat="49.28631" lon="-0.53838">
        <ele>29.4</ele>
        <time>2021-08-18T09:44:33Z</time>
      </trkpt>
      <trkpt lat="49.28641" lon="-0.53849">
        <ele>29.3</ele>
        <time>2021-08-18T09:44:35Z</time>
      </trkpt>
      <trkpt lat="49.28645" lon="-0.5386">
        <ele>29.2</ele>
        <time>2021-08-18T09:44:37Z</time>
      </trkpt>
      <trkpt lat="49.28646" lon="-0.53866">
        <ele>28.8</ele>
        <time>2021-08-18T09:44:38Z</time>
      </trkpt>
      <trkpt lat="49.28646" lon="-0.53872">
        <ele>28.7</ele>
        <time>2021-08-18T09:44:39Z</time>
      </trkpt>
      <trkpt lat="49.28642" lon="-0.53883">
        <ele>28.5</ele>
        <time>2021-08-18T09:44:41Z</time>
      </trkpt>
      <trkpt lat="49.28641" lon="-0.53888">
        <ele>28.4</ele>
        <time>2021-08-18T09:44:42Z</time>
      </trkpt>
      <trkpt lat="49.28636" lon="-0.53902">
        <ele>28.1</ele>
        <time>2021-08-18T09:44:44Z</time>
      </trkpt>
      <trkpt lat="49.28632" lon="-0.53913">
        <ele>28</ele>
        <time>2021-08-18T09:44:46Z</time>
      </trkpt>
      <trkpt lat="49.28628" lon="-0.53916">
        <ele>28</ele>
        <time>2021-08-18T09:44:48Z</time>
      </trkpt>
      <trkpt lat="49.28625" lon="-0.53917">
        <ele>28</ele>
        <time>2021-08-18T09:44:49Z</time>
      </trkpt>
      <trkpt lat="49.28621" lon="-0.53916">
        <ele>28</ele>
        <time>2021-08-18T09:44:51Z</time>
      </trkpt>
      <trkpt lat="49.2862" lon="-0.53914">
        <ele>28</ele>
        <time>2021-08-18T09:44:52Z</time>
      </trkpt>
      <trkpt lat="49.2862" lon="-0.53913">
        <ele>28</ele>
        <time>2021-08-18T09:44:53Z</time>
      </trkpt>
      <trkpt lat="49.28616" lon="-0.53914">
        <ele>28</ele>
        <time>2021-08-18T09:44:55Z</time>
      </trkpt>
      <trkpt lat="49.28614" lon="-0.53915">
        <ele>28</ele>
        <time>2021-08-18T09:44:56Z</time>
      </trkpt>
      <trkpt lat="49.28612" lon="-0.53916">
        <ele>28.1</ele>
        <time>2021-08-18T09:44:58Z</time>
      </trkpt>
      <trkpt lat="49.28609" lon="-0.53917">
        <ele>28.1</ele>
        <time>2021-08-18T09:45:00Z</time>
      </trkpt>
      <trkpt lat="49.28608" lon="-0.53916">
        <ele>28.1</ele>
        <time>2021-08-18T09:45:02Z</time>
      </trkpt>
      <trkpt lat="49.28606" lon="-0.53915">
        <ele>28.1</ele>
        <time>2021-08-18T09:45:04Z</time>
      </trkpt>
      <trkpt lat="49.28606" lon="-0.53915">
        <ele>28.1</ele>
        <time>2021-08-18T09:45:05Z</time>
      </trkpt>
      <trkpt lat="49.28606" lon="-0.53919">
        <ele>28.1</ele>
        <time>2021-08-18T09:45:07Z</time>
      </trkpt>
      <trkpt lat="49.28606" lon="-0.53921">
        <ele>28.1</ele>
        <time>2021-08-18T09:45:09Z</time>
      </trkpt>
      <trkpt lat="49.28606" lon="-0.53924">
        <ele>28.1</ele>
        <time>2021-08-18T09:45:33Z</time>
      </trkpt>
      <trkpt lat="49.28607" lon="-0.53925">
        <ele>28.1</ele>
        <time>2021-08-18T09:45:34Z</time>
      </trkpt>
      <trkpt lat="49.28608" lon="-0.53925">
        <ele>28.1</ele>
        <time>2021-08-18T09:45:35Z</time>
      </trkpt>
      <trkpt lat="49.28611" lon="-0.53923">
        <ele>28.1</ele>
        <time>2021-08-18T09:45:37Z</time>
      </trkpt>
      <trkpt lat="49.28613" lon="-0.5392">
        <ele>28.1</ele>
        <time>2021-08-18T09:45:38Z</time>
      </trkpt>
      <trkpt lat="49.28613" lon="-0.53919">
        <ele>28.2</ele>
        <time>2021-08-18T09:45:39Z</time>
      </trkpt>
      <trkpt lat="49.28617" lon="-0.53916">
        <ele>28.2</ele>
        <time>2021-08-18T09:45:41Z</time>
      </trkpt>
      <trkpt lat="49.28622" lon="-0.53909">
        <ele>28.2</ele>
        <time>2021-08-18T09:45:43Z</time>
      </trkpt>
      <trkpt lat="49.28627" lon="-0.53904">
        <ele>28.2</ele>
        <time>2021-08-18T09:45:44Z</time>
      </trkpt>
      <trkpt lat="49.28633" lon="-0.53896">
        <ele>28.3</ele>
        <time>2021-08-18T09:45:46Z</time>
      </trkpt>
      <trkpt lat="49.28636" lon="-0.53893">
        <ele>28.3</ele>
        <time>2021-08-18T09:45:47Z</time>
      </trkpt>
      <trkpt lat="49.28639" lon="-0.5389">
        <ele>28.3</ele>
        <time>2021-08-18T09:45:48Z</time>
      </trkpt>
      <trkpt lat="49.28643" lon="-0.53886">
        <ele>28.4</ele>
        <time>2021-08-18T09:45:50Z</time>
      </trkpt>
      <trkpt lat="49.28647" lon="-0.5388">
        <ele>28.6</ele>
        <time>2021-08-18T09:45:52Z</time>
      </trkpt>
      <trkpt lat="49.2865" lon="-0.53876">
        <ele>28.7</ele>
        <time>2021-08-18T09:45:53Z</time>
      </trkpt>
      <trkpt lat="49.28651" lon="-0.53871">
        <ele>28.8</ele>
        <time>2021-08-18T09:45:54Z</time>
      </trkpt>
      <trkpt lat="49.28652" lon="-0.53862">
        <ele>28.9</ele>
        <time>2021-08-18T09:45:56Z</time>
      </trkpt>
      <trkpt lat="49.28641" lon="-0.5384">
        <ele>29.3</ele>
        <time>2021-08-18T09:45:58Z</time>
      </trkpt>
      <trkpt lat="49.28628" lon="-0.53823">
        <ele>29.5</ele>
        <time>2021-08-18T09:46:00Z</time>
      </trkpt>
      <trkpt lat="49.28616" lon="-0.5381">
        <ele>29.7</ele>
        <time>2021-08-18T09:46:02Z</time>
      </trkpt>
      <trkpt lat="49.28611" lon="-0.53806">
        <ele>29.8</ele>
        <time>2021-08-18T09:46:03Z</time>
      </trkpt>
      <trkpt lat="49.28604" lon="-0.53798">
        <ele>29.9</ele>
        <time>2021-08-18T09:46:05Z</time>
      </trkpt>
      <trkpt lat="49.28603" lon="-0.53788">
        <ele>30</ele>
        <time>2021-08-18T09:46:07Z</time>
      </trkpt>
      <trkpt lat="49.28605" lon="-0.5378">
        <ele>30.1</ele>
        <time>2021-08-18T09:46:08Z</time>
      </trkpt>
      <trkpt lat="49.28611" lon="-0.53767">
        <ele>30.1</ele>
        <time>2021-08-18T09:46:10Z</time>
      </trkpt>
      <trkpt lat="49.28616" lon="-0.53752">
        <ele>30.2</ele>
        <time>2021-08-18T09:46:12Z</time>
      </trkpt>
      <trkpt lat="49.28619" lon="-0.53746">
        <ele>30.2</ele>
        <time>2021-08-18T09:46:13Z</time>
      </trkpt>
      <trkpt lat="49.28626" lon="-0.53734">
        <ele>30.4</ele>
        <time>2021-08-18T09:46:15Z</time>
      </trkpt>
      <trkpt lat="49.2863" lon="-0.53727">
        <ele>30.4</ele>
        <time>2021-08-18T09:46:16Z</time>
      </trkpt>
      <trkpt lat="49.28633" lon="-0.5372">
        <ele>30.5</ele>
        <time>2021-08-18T09:46:17Z</time>
      </trkpt>
      <trkpt lat="49.2864" lon="-0.53705">
        <ele>30.5</ele>
        <time>2021-08-18T09:46:19Z</time>
      </trkpt>
      <trkpt lat="49.28647" lon="-0.53689">
        <ele>30.5</ele>
        <time>2021-08-18T09:46:21Z</time>
      </trkpt>
      <trkpt lat="49.28653" lon="-0.53671">
        <ele>30.4</ele>
        <time>2021-08-18T09:46:23Z</time>
      </trkpt>
      <trkpt lat="49.28659" lon="-0.53656">
        <ele>30.4</ele>
        <time>2021-08-18T09:46:25Z</time>
      </trkpt>
      <trkpt lat="49.28665" lon="-0.53643">
        <ele>30.3</ele>
        <time>2021-08-18T09:46:27Z</time>
      </trkpt>
      <trkpt lat="49.28671" lon="-0.53629">
        <ele>30.3</ele>
        <time>2021-08-18T09:46:29Z</time>
      </trkpt>
      <trkpt lat="49.28677" lon="-0.53615">
        <ele>30.2</ele>
        <time>2021-08-18T09:46:31Z</time>
      </trkpt>
      <trkpt lat="49.28679" lon="-0.53608">
        <ele>30.2</ele>
        <time>2021-08-18T09:46:32Z</time>
      </trkpt>
      <trkpt lat="49.28685" lon="-0.53595">
        <ele>30.1</ele>
        <time>2021-08-18T09:46:34Z</time>
      </trkpt>
      <trkpt lat="49.28689" lon="-0.53588">
        <ele>30</ele>
        <time>2021-08-18T09:46:35Z</time>
      </trkpt>
      <trkpt lat="49.28697" lon="-0.53572">
        <ele>29.7</ele>
        <time>2021-08-18T09:46:37Z</time>
      </trkpt>
      <trkpt lat="49.28706" lon="-0.53555">
        <ele>29.4</ele>
        <time>2021-08-18T09:46:39Z</time>
      </trkpt>
      <trkpt lat="49.2871" lon="-0.53547">
        <ele>29.3</ele>
        <time>2021-08-18T09:46:40Z</time>
      </trkpt>
      <trkpt lat="49.28714" lon="-0.53538">
        <ele>29.2</ele>
        <time>2021-08-18T09:46:41Z</time>
      </trkpt>
      <trkpt lat="49.28722" lon="-0.53522">
        <ele>28.8</ele>
        <time>2021-08-18T09:46:43Z</time>
      </trkpt>
      <trkpt lat="49.28731" lon="-0.53505">
        <ele>28.4</ele>
        <time>2021-08-18T09:46:45Z</time>
      </trkpt>
      <trkpt lat="49.28735" lon="-0.53496">
        <ele>28.2</ele>
        <time>2021-08-18T09:46:46Z</time>
      </trkpt>
      <trkpt lat="49.28744" lon="-0.53478">
        <ele>27.8</ele>
        <time>2021-08-18T09:46:48Z</time>
      </trkpt>
      <trkpt lat="49.28748" lon="-0.53468">
        <ele>27.6</ele>
        <time>2021-08-18T09:46:49Z</time>
      </trkpt>
      <trkpt lat="49.28756" lon="-0.53448">
        <ele>27.1</ele>
        <time>2021-08-18T09:46:51Z</time>
      </trkpt>
      <trkpt lat="49.2876" lon="-0.53437">
        <ele>27</ele>
        <time>2021-08-18T09:46:52Z</time>
      </trkpt>
      <trkpt lat="49.28764" lon="-0.53425">
        <ele>26.9</ele>
        <time>2021-08-18T09:46:53Z</time>
      </trkpt>
      <trkpt lat="49.28772" lon="-0.53402">
        <ele>26.6</ele>
        <time>2021-08-18T09:46:55Z</time>
      </trkpt>
      <trkpt lat="49.2878" lon="-0.5338">
        <ele>26.2</ele>
        <time>2021-08-18T09:46:57Z</time>
      </trkpt>
      <trkpt lat="49.28784" lon="-0.53367">
        <ele>26.1</ele>
        <time>2021-08-18T09:46:59Z</time>
      </trkpt>
      <trkpt lat="49.28784" lon="-0.53361">
        <ele>26</ele>
        <time>2021-08-18T09:47:00Z</time>
      </trkpt>
      <trkpt lat="49.28782" lon="-0.53356">
        <ele>26</ele>
        <time>2021-08-18T09:47:01Z</time>
      </trkpt>
      <trkpt lat="49.28773" lon="-0.53348">
        <ele>26</ele>
        <time>2021-08-18T09:47:03Z</time>
      </trkpt>
      <trkpt lat="49.28768" lon="-0.53344">
        <ele>26</ele>
        <time>2021-08-18T09:47:04Z</time>
      </trkpt>
      <trkpt lat="49.28758" lon="-0.53337">
        <ele>26.1</ele>
        <time>2021-08-18T09:47:06Z</time>
      </trkpt>
      <trkpt lat="49.28753" lon="-0.53334">
        <ele>26.1</ele>
        <time>2021-08-18T09:47:07Z</time>
      </trkpt>
      <trkpt lat="49.28743" lon="-0.53332">
        <ele>26.1</ele>
        <time>2021-08-18T09:47:09Z</time>
      </trkpt>
      <trkpt lat="49.28737" lon="-0.53334">
        <ele>26.2</ele>
        <time>2021-08-18T09:47:10Z</time>
      </trkpt>
      <trkpt lat="49.28726" lon="-0.53338">
        <ele>26.2</ele>
        <time>2021-08-18T09:47:12Z</time>
      </trkpt>
      <trkpt lat="49.28716" lon="-0.53343">
        <ele>26.3</ele>
        <time>2021-08-18T09:47:14Z</time>
      </trkpt>
      <trkpt lat="49.28706" lon="-0.53348">
        <ele>26.4</ele>
        <time>2021-08-18T09:47:16Z</time>
      </trkpt>
      <trkpt lat="49.287" lon="-0.5335">
        <ele>26.4</ele>
        <time>2021-08-18T09:47:17Z</time>
      </trkpt>
      <trkpt lat="49.28689" lon="-0.53357">
        <ele>26.6</ele>
        <time>2021-08-18T09:47:19Z</time>
      </trkpt>
      <trkpt lat="49.28682" lon="-0.5336">
        <ele>26.7</ele>
        <time>2021-08-18T09:47:20Z</time>
      </trkpt>
      <trkpt lat="49.2867" lon="-0.53367">
        <ele>27.1</ele>
        <time>2021-08-18T09:47:22Z</time>
      </trkpt>
      <trkpt lat="49.28664" lon="-0.5337">
        <ele>27.3</ele>
        <time>2021-08-18T09:47:23Z</time>
      </trkpt>
      <trkpt lat="49.28652" lon="-0.53377">
        <ele>27.8</ele>
        <time>2021-08-18T09:47:25Z</time>
      </trkpt>
      <trkpt lat="49.2864" lon="-0.53384">
        <ele>28.2</ele>
        <time>2021-08-18T09:47:27Z</time>
      </trkpt>
      <trkpt lat="49.28628" lon="-0.5339">
        <ele>28.7</ele>
        <time>2021-08-18T09:47:29Z</time>
      </trkpt>
      <trkpt lat="49.28617" lon="-0.53394">
        <ele>28.9</ele>
        <time>2021-08-18T09:47:31Z</time>
      </trkpt>
      <trkpt lat="49.28606" lon="-0.534">
        <ele>29.2</ele>
        <time>2021-08-18T09:47:33Z</time>
      </trkpt>
      <trkpt lat="49.28595" lon="-0.53407">
        <ele>29.5</ele>
        <time>2021-08-18T09:47:35Z</time>
      </trkpt>
      <trkpt lat="49.28583" lon="-0.53415">
        <ele>29.8</ele>
        <time>2021-08-18T09:47:37Z</time>
      </trkpt>
      <trkpt lat="49.28577" lon="-0.53419">
        <ele>30</ele>
        <time>2021-08-18T09:47:38Z</time>
      </trkpt>
      <trkpt lat="49.28564" lon="-0.53426">
        <ele>30.4</ele>
        <time>2021-08-18T09:47:40Z</time>
      </trkpt>
      <trkpt lat="49.28558" lon="-0.5343">
        <ele>30.6</ele>
        <time>2021-08-18T09:47:41Z</time>
      </trkpt>
      <trkpt lat="49.28546" lon="-0.53437">
        <ele>30.8</ele>
        <time>2021-08-18T09:47:43Z</time>
      </trkpt>
      <trkpt lat="49.2854" lon="-0.5344">
        <ele>31</ele>
        <time>2021-08-18T09:47:44Z</time>
      </trkpt>
      <trkpt lat="49.28529" lon="-0.53447">
        <ele>31.1</ele>
        <time>2021-08-18T09:47:46Z</time>
      </trkpt>
      <trkpt lat="49.28517" lon="-0.53452">
        <ele>31.2</ele>
        <time>2021-08-18T09:47:48Z</time>
      </trkpt>
      <trkpt lat="49.28511" lon="-0.53455">
        <ele>31.2</ele>
        <time>2021-08-18T09:47:49Z</time>
      </trkpt>
      <trkpt lat="49.28505" lon="-0.53458">
        <ele>31.2</ele>
        <time>2021-08-18T09:47:50Z</time>
      </trkpt>
      <trkpt lat="49.28499" lon="-0.53461">
        <ele>31.3</ele>
        <time>2021-08-18T09:47:51Z</time>
      </trkpt>
      <trkpt lat="49.28486" lon="-0.53467">
        <ele>31.4</ele>
        <time>2021-08-18T09:47:53Z</time>
      </trkpt>
      <trkpt lat="49.28474" lon="-0.53471">
        <ele>31.5</ele>
        <time>2021-08-18T09:47:55Z</time>
      </trkpt>
      <trkpt lat="49.28462" lon="-0.53475">
        <ele>31.7</ele>
        <time>2021-08-18T09:47:57Z</time>
      </trkpt>
      <trkpt lat="49.2845" lon="-0.53477">
        <ele>31.8</ele>
        <time>2021-08-18T09:47:59Z</time>
      </trkpt>
      <trkpt lat="49.28438" lon="-0.53481">
        <ele>32</ele>
        <time>2021-08-18T09:48:01Z</time>
      </trkpt>
      <trkpt lat="49.28429" lon="-0.5349">
        <ele>32.2</ele>
        <time>2021-08-18T09:48:03Z</time>
      </trkpt>
      <trkpt lat="49.28425" lon="-0.53495">
        <ele>32.3</ele>
        <time>2021-08-18T09:48:04Z</time>
      </trkpt>
      <trkpt lat="49.28417" lon="-0.53492">
        <ele>32.3</ele>
        <time>2021-08-18T09:48:06Z</time>
      </trkpt>
      <trkpt lat="49.28412" lon="-0.53478">
        <ele>32.3</ele>
        <time>2021-08-18T09:48:08Z</time>
      </trkpt>
      <trkpt lat="49.28404" lon="-0.53462">
        <ele>32.1</ele>
        <time>2021-08-18T09:48:10Z</time>
      </trkpt>
      <trkpt lat="49.284" lon="-0.53454">
        <ele>32</ele>
        <time>2021-08-18T09:48:11Z</time>
      </trkpt>
      <trkpt lat="49.28391" lon="-0.53434">
        <ele>31.7</ele>
        <time>2021-08-18T09:48:13Z</time>
      </trkpt>
      <trkpt lat="49.28387" lon="-0.53425">
        <ele>31.6</ele>
        <time>2021-08-18T09:48:14Z</time>
      </trkpt>
      <trkpt lat="49.28378" lon="-0.53405">
        <ele>31.3</ele>
        <time>2021-08-18T09:48:16Z</time>
      </trkpt>
      <trkpt lat="49.28374" lon="-0.53396">
        <ele>31.1</ele>
        <time>2021-08-18T09:48:17Z</time>
      </trkpt>
      <trkpt lat="49.2837" lon="-0.53386">
        <ele>30.9</ele>
        <time>2021-08-18T09:48:18Z</time>
      </trkpt>
      <trkpt lat="49.28366" lon="-0.53376">
        <ele>30.7</ele>
        <time>2021-08-18T09:48:19Z</time>
      </trkpt>
      <trkpt lat="49.28359" lon="-0.53355">
        <ele>30.4</ele>
        <time>2021-08-18T09:48:21Z</time>
      </trkpt>
      <trkpt lat="49.28354" lon="-0.53344">
        <ele>30.2</ele>
        <time>2021-08-18T09:48:22Z</time>
      </trkpt>
      <trkpt lat="49.28345" lon="-0.53324">
        <ele>29.8</ele>
        <time>2021-08-18T09:48:24Z</time>
      </trkpt>
      <trkpt lat="49.28335" lon="-0.53303">
        <ele>29.5</ele>
        <time>2021-08-18T09:48:26Z</time>
      </trkpt>
      <trkpt lat="49.28325" lon="-0.53282">
        <ele>29.1</ele>
        <time>2021-08-18T09:48:28Z</time>
      </trkpt>
      <trkpt lat="49.2832" lon="-0.53272">
        <ele>28.9</ele>
        <time>2021-08-18T09:48:29Z</time>
      </trkpt>
      <trkpt lat="49.28315" lon="-0.53261">
        <ele>28.6</ele>
        <time>2021-08-18T09:48:30Z</time>
      </trkpt>
      <trkpt lat="49.28303" lon="-0.53242">
        <ele>28.2</ele>
        <time>2021-08-18T09:48:32Z</time>
      </trkpt>
      <trkpt lat="49.28292" lon="-0.53221">
        <ele>28</ele>
        <time>2021-08-18T09:48:34Z</time>
      </trkpt>
      <trkpt lat="49.28287" lon="-0.53211">
        <ele>28</ele>
        <time>2021-08-18T09:48:35Z</time>
      </trkpt>
      <trkpt lat="49.28282" lon="-0.532">
        <ele>27.9</ele>
        <time>2021-08-18T09:48:36Z</time>
      </trkpt>
      <trkpt lat="49.28272" lon="-0.53178">
        <ele>27.9</ele>
        <time>2021-08-18T09:48:38Z</time>
      </trkpt>
      <trkpt lat="49.28262" lon="-0.53156">
        <ele>27.8</ele>
        <time>2021-08-18T09:48:40Z</time>
      </trkpt>
      <trkpt lat="49.28258" lon="-0.53145">
        <ele>27.8</ele>
        <time>2021-08-18T09:48:41Z</time>
      </trkpt>
      <trkpt lat="49.2825" lon="-0.53121">
        <ele>27.8</ele>
        <time>2021-08-18T09:48:43Z</time>
      </trkpt>
      <trkpt lat="49.28244" lon="-0.53095">
        <ele>27.7</ele>
        <time>2021-08-18T09:48:45Z</time>
      </trkpt>
      <trkpt lat="49.2824" lon="-0.53069">
        <ele>27.7</ele>
        <time>2021-08-18T09:48:47Z</time>
      </trkpt>
      <trkpt lat="49.28239" lon="-0.53056">
        <ele>27.7</ele>
        <time>2021-08-18T09:48:48Z</time>
      </trkpt>
      <trkpt lat="49.28236" lon="-0.53029">
        <ele>27.7</ele>
        <time>2021-08-18T09:48:50Z</time>
      </trkpt>
      <trkpt lat="49.28235" lon="-0.53001">
        <ele>27.8</ele>
        <time>2021-08-18T09:48:52Z</time>
      </trkpt>
      <trkpt lat="49.28234" lon="-0.52987">
        <ele>27.8</ele>
        <time>2021-08-18T09:48:53Z</time>
      </trkpt>
      <trkpt lat="49.28232" lon="-0.5296">
        <ele>27.8</ele>
        <time>2021-08-18T09:48:55Z</time>
      </trkpt>
      <trkpt lat="49.28231" lon="-0.52945">
        <ele>27.9</ele>
        <time>2021-08-18T09:48:56Z</time>
      </trkpt>
      <trkpt lat="49.2823" lon="-0.52931">
        <ele>27.9</ele>
        <time>2021-08-18T09:48:57Z</time>
      </trkpt>
      <trkpt lat="49.28228" lon="-0.52917">
        <ele>27.9</ele>
        <time>2021-08-18T09:48:58Z</time>
      </trkpt>
      <trkpt lat="49.28226" lon="-0.52888">
        <ele>27.9</ele>
        <time>2021-08-18T09:49:00Z</time>
      </trkpt>
      <trkpt lat="49.28223" lon="-0.5286">
        <ele>28</ele>
        <time>2021-08-18T09:49:02Z</time>
      </trkpt>
      <trkpt lat="49.28222" lon="-0.52832">
        <ele>28.2</ele>
        <time>2021-08-18T09:49:04Z</time>
      </trkpt>
      <trkpt lat="49.28222" lon="-0.52819">
        <ele>28.3</ele>
        <time>2021-08-18T09:49:05Z</time>
      </trkpt>
      <trkpt lat="49.28221" lon="-0.52792">
        <ele>28.4</ele>
        <time>2021-08-18T09:49:07Z</time>
      </trkpt>
      <trkpt lat="49.2822" lon="-0.52766">
        <ele>28.5</ele>
        <time>2021-08-18T09:49:09Z</time>
      </trkpt>
      <trkpt lat="49.28218" lon="-0.5274">
        <ele>28.7</ele>
        <time>2021-08-18T09:49:11Z</time>
      </trkpt>
      <trkpt lat="49.28216" lon="-0.52713">
        <ele>28.8</ele>
        <time>2021-08-18T09:49:13Z</time>
      </trkpt>
      <trkpt lat="49.28213" lon="-0.52686">
        <ele>29.1</ele>
        <time>2021-08-18T09:49:15Z</time>
      </trkpt>
      <trkpt lat="49.28209" lon="-0.5266">
        <ele>29.3</ele>
        <time>2021-08-18T09:49:17Z</time>
      </trkpt>
      <trkpt lat="49.28207" lon="-0.52647">
        <ele>29.5</ele>
        <time>2021-08-18T09:49:18Z</time>
      </trkpt>
      <trkpt lat="49.28204" lon="-0.52635">
        <ele>29.6</ele>
        <time>2021-08-18T09:49:19Z</time>
      </trkpt>
      <trkpt lat="49.28199" lon="-0.52613">
        <ele>30</ele>
        <time>2021-08-18T09:49:21Z</time>
      </trkpt>
      <trkpt lat="49.28197" lon="-0.52601">
        <ele>30.2</ele>
        <time>2021-08-18T09:49:22Z</time>
      </trkpt>
      <trkpt lat="49.28195" lon="-0.5259">
        <ele>30.4</ele>
        <time>2021-08-18T09:49:23Z</time>
      </trkpt>
      <trkpt lat="49.28189" lon="-0.52568">
        <ele>30.7</ele>
        <time>2021-08-18T09:49:25Z</time>
      </trkpt>
      <trkpt lat="49.28183" lon="-0.52546">
        <ele>31.1</ele>
        <time>2021-08-18T09:49:27Z</time>
      </trkpt>
      <trkpt lat="49.28179" lon="-0.52536">
        <ele>31.2</ele>
        <time>2021-08-18T09:49:28Z</time>
      </trkpt>
      <trkpt lat="49.28171" lon="-0.52515">
        <ele>31.5</ele>
        <time>2021-08-18T09:49:30Z</time>
      </trkpt>
      <trkpt lat="49.28164" lon="-0.52495">
        <ele>31.8</ele>
        <time>2021-08-18T09:49:32Z</time>
      </trkpt>
      <trkpt lat="49.28156" lon="-0.52476">
        <ele>32.1</ele>
        <time>2021-08-18T09:49:34Z</time>
      </trkpt>
      <trkpt lat="49.28152" lon="-0.52467">
        <ele>32.3</ele>
        <time>2021-08-18T09:49:35Z</time>
      </trkpt>
      <trkpt lat="49.28146" lon="-0.52447">
        <ele>32.5</ele>
        <time>2021-08-18T09:49:37Z</time>
      </trkpt>
      <trkpt lat="49.28143" lon="-0.52436">
        <ele>32.7</ele>
        <time>2021-08-18T09:49:38Z</time>
      </trkpt>
      <trkpt lat="49.28137" lon="-0.52417">
        <ele>32.9</ele>
        <time>2021-08-18T09:49:40Z</time>
      </trkpt>
      <trkpt lat="49.28134" lon="-0.52407">
        <ele>33</ele>
        <time>2021-08-18T09:49:41Z</time>
      </trkpt>
      <trkpt lat="49.28128" lon="-0.52388">
        <ele>33.3</ele>
        <time>2021-08-18T09:49:43Z</time>
      </trkpt>
      <trkpt lat="49.28123" lon="-0.52368">
        <ele>33.7</ele>
        <time>2021-08-18T09:49:45Z</time>
      </trkpt>
      <trkpt lat="49.28117" lon="-0.5235">
        <ele>34.2</ele>
        <time>2021-08-18T09:49:47Z</time>
      </trkpt>
      <trkpt lat="49.28114" lon="-0.52341">
        <ele>34.4</ele>
        <time>2021-08-18T09:49:48Z</time>
      </trkpt>
      <trkpt lat="49.28108" lon="-0.52325">
        <ele>34.5</ele>
        <time>2021-08-18T09:49:50Z</time>
      </trkpt>
      <trkpt lat="49.28105" lon="-0.52317">
        <ele>34.5</ele>
        <time>2021-08-18T09:49:51Z</time>
      </trkpt>
      <trkpt lat="49.28102" lon="-0.52308">
        <ele>34.7</ele>
        <time>2021-08-18T09:49:52Z</time>
      </trkpt>
      <trkpt lat="49.28097" lon="-0.52293">
        <ele>35.1</ele>
        <time>2021-08-18T09:49:54Z</time>
      </trkpt>
      <trkpt lat="49.28091" lon="-0.52276">
        <ele>35.6</ele>
        <time>2021-08-18T09:49:56Z</time>
      </trkpt>
      <trkpt lat="49.28088" lon="-0.52268">
        <ele>35.9</ele>
        <time>2021-08-18T09:49:57Z</time>
      </trkpt>
      <trkpt lat="49.28085" lon="-0.5226">
        <ele>36.2</ele>
        <time>2021-08-18T09:49:58Z</time>
      </trkpt>
      <trkpt lat="49.28082" lon="-0.52252">
        <ele>36.4</ele>
        <time>2021-08-18T09:49:59Z</time>
      </trkpt>
      <trkpt lat="49.28079" lon="-0.52244">
        <ele>36.7</ele>
        <time>2021-08-18T09:50:00Z</time>
      </trkpt>
      <trkpt lat="49.28073" lon="-0.52229">
        <ele>37.2</ele>
        <time>2021-08-18T09:50:02Z</time>
      </trkpt>
      <trkpt lat="49.2807" lon="-0.52221">
        <ele>37.4</ele>
        <time>2021-08-18T09:50:03Z</time>
      </trkpt>
      <trkpt lat="49.28066" lon="-0.52207">
        <ele>37.9</ele>
        <time>2021-08-18T09:50:05Z</time>
      </trkpt>
      <trkpt lat="49.2806" lon="-0.52193">
        <ele>38.5</ele>
        <time>2021-08-18T09:50:07Z</time>
      </trkpt>
      <trkpt lat="49.28057" lon="-0.52185">
        <ele>38.8</ele>
        <time>2021-08-18T09:50:08Z</time>
      </trkpt>
      <trkpt lat="49.28052" lon="-0.52171">
        <ele>39.4</ele>
        <time>2021-08-18T09:50:10Z</time>
      </trkpt>
      <trkpt lat="49.28047" lon="-0.52157">
        <ele>40</ele>
        <time>2021-08-18T09:50:12Z</time>
      </trkpt>
      <trkpt lat="49.28042" lon="-0.52143">
        <ele>40.6</ele>
        <time>2021-08-18T09:50:14Z</time>
      </trkpt>
      <trkpt lat="49.28039" lon="-0.52137">
        <ele>40.9</ele>
        <time>2021-08-18T09:50:15Z</time>
      </trkpt>
      <trkpt lat="49.28034" lon="-0.52124">
        <ele>41.5</ele>
        <time>2021-08-18T09:50:17Z</time>
      </trkpt>
      <trkpt lat="49.2803" lon="-0.52119">
        <ele>41.8</ele>
        <time>2021-08-18T09:50:18Z</time>
      </trkpt>
      <trkpt lat="49.28024" lon="-0.52107">
        <ele>42.4</ele>
        <time>2021-08-18T09:50:20Z</time>
      </trkpt>
      <trkpt lat="49.28019" lon="-0.52095">
        <ele>42.9</ele>
        <time>2021-08-18T09:50:22Z</time>
      </trkpt>
      <trkpt lat="49.28014" lon="-0.52083">
        <ele>43.4</ele>
        <time>2021-08-18T09:50:24Z</time>
      </trkpt>
      <trkpt lat="49.28012" lon="-0.52077">
        <ele>43.6</ele>
        <time>2021-08-18T09:50:25Z</time>
      </trkpt>
      <trkpt lat="49.28007" lon="-0.52065">
        <ele>44.1</ele>
        <time>2021-08-18T09:50:27Z</time>
      </trkpt>
      <trkpt lat="49.28001" lon="-0.52054">
        <ele>44.4</ele>
        <time>2021-08-18T09:50:29Z</time>
      </trkpt>
      <trkpt lat="49.27998" lon="-0.52049">
        <ele>44.6</ele>
        <time>2021-08-18T09:50:30Z</time>
      </trkpt>
      <trkpt lat="49.27996" lon="-0.52043">
        <ele>44.7</ele>
        <time>2021-08-18T09:50:31Z</time>
      </trkpt>
      <trkpt lat="49.2799" lon="-0.52032">
        <ele>45</ele>
        <time>2021-08-18T09:50:33Z</time>
      </trkpt>
      <trkpt lat="49.27987" lon="-0.52026">
        <ele>45.2</ele>
        <time>2021-08-18T09:50:34Z</time>
      </trkpt>
      <trkpt lat="49.27981" lon="-0.52013">
        <ele>45.4</ele>
        <time>2021-08-18T09:50:36Z</time>
      </trkpt>
      <trkpt lat="49.27974" lon="-0.52">
        <ele>45.7</ele>
        <time>2021-08-18T09:50:38Z</time>
      </trkpt>
      <trkpt lat="49.2797" lon="-0.51992">
        <ele>45.8</ele>
        <time>2021-08-18T09:50:39Z</time>
      </trkpt>
      <trkpt lat="49.27963" lon="-0.51978">
        <ele>46</ele>
        <time>2021-08-18T09:50:41Z</time>
      </trkpt>
      <trkpt lat="49.27959" lon="-0.5197">
        <ele>46.1</ele>
        <time>2021-08-18T09:50:42Z</time>
      </trkpt>
      <trkpt lat="49.27955" lon="-0.51962">
        <ele>46.2</ele>
        <time>2021-08-18T09:50:43Z</time>
      </trkpt>
      <trkpt lat="49.27947" lon="-0.51944">
        <ele>46.3</ele>
        <time>2021-08-18T09:50:45Z</time>
      </trkpt>
      <trkpt lat="49.27943" lon="-0.51935">
        <ele>46.4</ele>
        <time>2021-08-18T09:50:46Z</time>
      </trkpt>
      <trkpt lat="49.27938" lon="-0.51917">
        <ele>46.6</ele>
        <time>2021-08-18T09:50:48Z</time>
      </trkpt>
      <trkpt lat="49.27933" lon="-0.519">
        <ele>46.7</ele>
        <time>2021-08-18T09:50:50Z</time>
      </trkpt>
      <trkpt lat="49.27928" lon="-0.51883">
        <ele>46.9</ele>
        <time>2021-08-18T09:50:52Z</time>
      </trkpt>
      <trkpt lat="49.27922" lon="-0.51865">
        <ele>47.1</ele>
        <time>2021-08-18T09:50:54Z</time>
      </trkpt>
      <trkpt lat="49.2792" lon="-0.51856">
        <ele>47.2</ele>
        <time>2021-08-18T09:50:55Z</time>
      </trkpt>
      <trkpt lat="49.27917" lon="-0.51846">
        <ele>47.2</ele>
        <time>2021-08-18T09:50:56Z</time>
      </trkpt>
      <trkpt lat="49.27913" lon="-0.51827">
        <ele>47.4</ele>
        <time>2021-08-18T09:50:58Z</time>
      </trkpt>
      <trkpt lat="49.2791" lon="-0.51817">
        <ele>47.5</ele>
        <time>2021-08-18T09:50:59Z</time>
      </trkpt>
      <trkpt lat="49.27906" lon="-0.51797">
        <ele>47.7</ele>
        <time>2021-08-18T09:51:01Z</time>
      </trkpt>
      <trkpt lat="49.27903" lon="-0.51787">
        <ele>47.7</ele>
        <time>2021-08-18T09:51:02Z</time>
      </trkpt>
      <trkpt lat="49.279" lon="-0.51767">
        <ele>47.8</ele>
        <time>2021-08-18T09:51:04Z</time>
      </trkpt>
      <trkpt lat="49.27895" lon="-0.51746">
        <ele>47.9</ele>
        <time>2021-08-18T09:51:06Z</time>
      </trkpt>
      <trkpt lat="49.27892" lon="-0.51736">
        <ele>48</ele>
        <time>2021-08-18T09:51:07Z</time>
      </trkpt>
      <trkpt lat="49.2789" lon="-0.51726">
        <ele>48.1</ele>
        <time>2021-08-18T09:51:08Z</time>
      </trkpt>
      <trkpt lat="49.27887" lon="-0.51715">
        <ele>48.2</ele>
        <time>2021-08-18T09:51:09Z</time>
      </trkpt>
      <trkpt lat="49.27883" lon="-0.51695">
        <ele>48.3</ele>
        <time>2021-08-18T09:51:11Z</time>
      </trkpt>
      <trkpt lat="49.2788" lon="-0.51674">
        <ele>48.4</ele>
        <time>2021-08-18T09:51:13Z</time>
      </trkpt>
      <trkpt lat="49.27877" lon="-0.51663">
        <ele>48.4</ele>
        <time>2021-08-18T09:51:14Z</time>
      </trkpt>
      <trkpt lat="49.27873" lon="-0.51642">
        <ele>48.5</ele>
        <time>2021-08-18T09:51:16Z</time>
      </trkpt>
      <trkpt lat="49.27871" lon="-0.51619">
        <ele>48.5</ele>
        <time>2021-08-18T09:51:18Z</time>
      </trkpt>
      <trkpt lat="49.2787" lon="-0.51607">
        <ele>48.5</ele>
        <time>2021-08-18T09:51:19Z</time>
      </trkpt>
      <trkpt lat="49.27868" lon="-0.51584">
        <ele>48.5</ele>
        <time>2021-08-18T09:51:21Z</time>
      </trkpt>
      <trkpt lat="49.27866" lon="-0.5156">
        <ele>48.5</ele>
        <time>2021-08-18T09:51:23Z</time>
      </trkpt>
      <trkpt lat="49.27864" lon="-0.51548">
        <ele>48.5</ele>
        <time>2021-08-18T09:51:24Z</time>
      </trkpt>
      <trkpt lat="49.27861" lon="-0.51523">
        <ele>48.5</ele>
        <time>2021-08-18T09:51:26Z</time>
      </trkpt>
      <trkpt lat="49.27859" lon="-0.51497">
        <ele>48.6</ele>
        <time>2021-08-18T09:51:28Z</time>
      </trkpt>
      <trkpt lat="49.27858" lon="-0.51472">
        <ele>48.6</ele>
        <time>2021-08-18T09:51:30Z</time>
      </trkpt>
      <trkpt lat="49.27857" lon="-0.51447">
        <ele>48.5</ele>
        <time>2021-08-18T09:51:32Z</time>
      </trkpt>
      <trkpt lat="49.27856" lon="-0.51434">
        <ele>48.4</ele>
        <time>2021-08-18T09:51:33Z</time>
      </trkpt>
      <trkpt lat="49.27855" lon="-0.51408">
        <ele>48.2</ele>
        <time>2021-08-18T09:51:35Z</time>
      </trkpt>
      <trkpt lat="49.27853" lon="-0.51383">
        <ele>48</ele>
        <time>2021-08-18T09:51:37Z</time>
      </trkpt>
      <trkpt lat="49.27851" lon="-0.51357">
        <ele>47.7</ele>
        <time>2021-08-18T09:51:39Z</time>
      </trkpt>
      <trkpt lat="49.2785" lon="-0.51344">
        <ele>47.6</ele>
        <time>2021-08-18T09:51:40Z</time>
      </trkpt>
      <trkpt lat="49.27848" lon="-0.51318">
        <ele>47.4</ele>
        <time>2021-08-18T09:51:42Z</time>
      </trkpt>
      <trkpt lat="49.27846" lon="-0.51304">
        <ele>47.2</ele>
        <time>2021-08-18T09:51:43Z</time>
      </trkpt>
      <trkpt lat="49.27845" lon="-0.51291">
        <ele>47.1</ele>
        <time>2021-08-18T09:51:44Z</time>
      </trkpt>
      <trkpt lat="49.27841" lon="-0.51264">
        <ele>46.6</ele>
        <time>2021-08-18T09:51:46Z</time>
      </trkpt>
      <trkpt lat="49.27839" lon="-0.51251">
        <ele>46.4</ele>
        <time>2021-08-18T09:51:47Z</time>
      </trkpt>
      <trkpt lat="49.27834" lon="-0.51223">
        <ele>45.8</ele>
        <time>2021-08-18T09:51:49Z</time>
      </trkpt>
      <trkpt lat="49.27832" lon="-0.51209">
        <ele>45.5</ele>
        <time>2021-08-18T09:51:50Z</time>
      </trkpt>
      <trkpt lat="49.27829" lon="-0.51195">
        <ele>45.2</ele>
        <time>2021-08-18T09:51:51Z</time>
      </trkpt>
      <trkpt lat="49.27823" lon="-0.51166">
        <ele>44.5</ele>
        <time>2021-08-18T09:51:53Z</time>
      </trkpt>
      <trkpt lat="49.27821" lon="-0.51151">
        <ele>44.1</ele>
        <time>2021-08-18T09:51:54Z</time>
      </trkpt>
      <trkpt lat="49.27814" lon="-0.51123">
        <ele>43.2</ele>
        <time>2021-08-18T09:51:56Z</time>
      </trkpt>
      <trkpt lat="49.27811" lon="-0.51109">
        <ele>42.6</ele>
        <time>2021-08-18T09:51:57Z</time>
      </trkpt>
      <trkpt lat="49.27805" lon="-0.51079">
        <ele>41.4</ele>
        <time>2021-08-18T09:51:59Z</time>
      </trkpt>
      <trkpt lat="49.27801" lon="-0.51063">
        <ele>40.8</ele>
        <time>2021-08-18T09:52:00Z</time>
      </trkpt>
      <trkpt lat="49.27798" lon="-0.51048">
        <ele>40.2</ele>
        <time>2021-08-18T09:52:01Z</time>
      </trkpt>
      <trkpt lat="49.27795" lon="-0.51032">
        <ele>39.6</ele>
        <time>2021-08-18T09:52:02Z</time>
      </trkpt>
      <trkpt lat="49.27787" lon="-0.51001">
        <ele>38.4</ele>
        <time>2021-08-18T09:52:04Z</time>
      </trkpt>
      <trkpt lat="49.27779" lon="-0.50969">
        <ele>37.4</ele>
        <time>2021-08-18T09:52:06Z</time>
      </trkpt>
      <trkpt lat="49.27775" lon="-0.50954">
        <ele>36.8</ele>
        <time>2021-08-18T09:52:07Z</time>
      </trkpt>
      <trkpt lat="49.27764" lon="-0.50924">
        <ele>35.8</ele>
        <time>2021-08-18T09:52:09Z</time>
      </trkpt>
      <trkpt lat="49.27758" lon="-0.50909">
        <ele>35.3</ele>
        <time>2021-08-18T09:52:10Z</time>
      </trkpt>
      <trkpt lat="49.27752" lon="-0.50895">
        <ele>34.9</ele>
        <time>2021-08-18T09:52:11Z</time>
      </trkpt>
      <trkpt lat="49.27746" lon="-0.50881">
        <ele>34.4</ele>
        <time>2021-08-18T09:52:12Z</time>
      </trkpt>
      <trkpt lat="49.27731" lon="-0.50856">
        <ele>33.4</ele>
        <time>2021-08-18T09:52:14Z</time>
      </trkpt>
      <trkpt lat="49.27716" lon="-0.50833">
        <ele>32.6</ele>
        <time>2021-08-18T09:52:16Z</time>
      </trkpt>
      <trkpt lat="49.27708" lon="-0.50821">
        <ele>32.2</ele>
        <time>2021-08-18T09:52:17Z</time>
      </trkpt>
      <trkpt lat="49.27693" lon="-0.50797">
        <ele>31.3</ele>
        <time>2021-08-18T09:52:19Z</time>
      </trkpt>
      <trkpt lat="49.27687" lon="-0.50784">
        <ele>30.9</ele>
        <time>2021-08-18T09:52:20Z</time>
      </trkpt>
      <trkpt lat="49.27676" lon="-0.50755">
        <ele>29.8</ele>
        <time>2021-08-18T09:52:22Z</time>
      </trkpt>
      <trkpt lat="49.27665" lon="-0.50724">
        <ele>28.8</ele>
        <time>2021-08-18T09:52:24Z</time>
      </trkpt>
      <trkpt lat="49.2766" lon="-0.50709">
        <ele>28.3</ele>
        <time>2021-08-18T09:52:25Z</time>
      </trkpt>
      <trkpt lat="49.27655" lon="-0.50693">
        <ele>27.7</ele>
        <time>2021-08-18T09:52:26Z</time>
      </trkpt>
      <trkpt lat="49.27644" lon="-0.50662">
        <ele>26.4</ele>
        <time>2021-08-18T09:52:28Z</time>
      </trkpt>
      <trkpt lat="49.27631" lon="-0.5063">
        <ele>24.9</ele>
        <time>2021-08-18T09:52:30Z</time>
      </trkpt>
      <trkpt lat="49.27618" lon="-0.50597">
        <ele>23.3</ele>
        <time>2021-08-18T09:52:32Z</time>
      </trkpt>
      <trkpt lat="49.27612" lon="-0.5058">
        <ele>22.6</ele>
        <time>2021-08-18T09:52:33Z</time>
      </trkpt>
      <trkpt lat="49.276" lon="-0.50546">
        <ele>21.2</ele>
        <time>2021-08-18T09:52:35Z</time>
      </trkpt>
      <trkpt lat="49.27596" lon="-0.50527">
        <ele>20.3</ele>
        <time>2021-08-18T09:52:36Z</time>
      </trkpt>
      <trkpt lat="49.27591" lon="-0.50509">
        <ele>19.4</ele>
        <time>2021-08-18T09:52:37Z</time>
      </trkpt>
      <trkpt lat="49.27583" lon="-0.50473">
        <ele>18.1</ele>
        <time>2021-08-18T09:52:39Z</time>
      </trkpt>
      <trkpt lat="49.27577" lon="-0.50437">
        <ele>17.2</ele>
        <time>2021-08-18T09:52:41Z</time>
      </trkpt>
      <trkpt lat="49.27571" lon="-0.50401">
        <ele>16.7</ele>
        <time>2021-08-18T09:52:43Z</time>
      </trkpt>
      <trkpt lat="49.27566" lon="-0.50366">
        <ele>16.2</ele>
        <time>2021-08-18T09:52:45Z</time>
      </trkpt>
      <trkpt lat="49.27564" lon="-0.50332">
        <ele>16</ele>
        <time>2021-08-18T09:52:47Z</time>
      </trkpt>
      <trkpt lat="49.27562" lon="-0.50317">
        <ele>16.1</ele>
        <time>2021-08-18T09:52:48Z</time>
      </trkpt>
      <trkpt lat="49.2756" lon="-0.50287">
        <ele>16.1</ele>
        <time>2021-08-18T09:52:50Z</time>
      </trkpt>
      <trkpt lat="49.2756" lon="-0.50273">
        <ele>16.2</ele>
        <time>2021-08-18T09:52:51Z</time>
      </trkpt>
      <trkpt lat="49.27557" lon="-0.50247">
        <ele>16.6</ele>
        <time>2021-08-18T09:52:53Z</time>
      </trkpt>
      <trkpt lat="49.27556" lon="-0.50233">
        <ele>16.9</ele>
        <time>2021-08-18T09:52:54Z</time>
      </trkpt>
      <trkpt lat="49.27554" lon="-0.50208">
        <ele>17.6</ele>
        <time>2021-08-18T09:52:56Z</time>
      </trkpt>
      <trkpt lat="49.27553" lon="-0.50196">
        <ele>18</ele>
        <time>2021-08-18T09:52:57Z</time>
      </trkpt>
      <trkpt lat="49.27552" lon="-0.50185">
        <ele>18.5</ele>
        <time>2021-08-18T09:52:58Z</time>
      </trkpt>
      <trkpt lat="49.2755" lon="-0.50164">
        <ele>19.4</ele>
        <time>2021-08-18T09:53:00Z</time>
      </trkpt>
      <trkpt lat="49.27549" lon="-0.50154">
        <ele>19.9</ele>
        <time>2021-08-18T09:53:01Z</time>
      </trkpt>
      <trkpt lat="49.27546" lon="-0.50135">
        <ele>20.9</ele>
        <time>2021-08-18T09:53:03Z</time>
      </trkpt>
      <trkpt lat="49.27545" lon="-0.50126">
        <ele>21.4</ele>
        <time>2021-08-18T09:53:04Z</time>
      </trkpt>
      <trkpt lat="49.27544" lon="-0.50109">
        <ele>22.4</ele>
        <time>2021-08-18T09:53:06Z</time>
      </trkpt>
      <trkpt lat="49.27543" lon="-0.501">
        <ele>22.9</ele>
        <time>2021-08-18T09:53:07Z</time>
      </trkpt>
      <trkpt lat="49.27541" lon="-0.50082">
        <ele>23.9</ele>
        <time>2021-08-18T09:53:09Z</time>
      </trkpt>
      <trkpt lat="49.2754" lon="-0.50067">
        <ele>24.8</ele>
        <time>2021-08-18T09:53:11Z</time>
      </trkpt>
      <trkpt lat="49.27539" lon="-0.5006">
        <ele>25.2</ele>
        <time>2021-08-18T09:53:12Z</time>
      </trkpt>
      <trkpt lat="49.27538" lon="-0.50047">
        <ele>26.1</ele>
        <time>2021-08-18T09:53:14Z</time>
      </trkpt>
      <trkpt lat="49.27538" lon="-0.50035">
        <ele>26.8</ele>
        <time>2021-08-18T09:53:16Z</time>
      </trkpt>
      <trkpt lat="49.27541" lon="-0.50023">
        <ele>27.3</ele>
        <time>2021-08-18T09:53:18Z</time>
      </trkpt>
      <trkpt lat="49.27543" lon="-0.50018">
        <ele>27.6</ele>
        <time>2021-08-18T09:53:19Z</time>
      </trkpt>
      <trkpt lat="49.27545" lon="-0.50013">
        <ele>27.9</ele>
        <time>2021-08-18T09:53:20Z</time>
      </trkpt>
      <trkpt lat="49.27546" lon="-0.5">
        <ele>28.6</ele>
        <time>2021-08-18T09:53:22Z</time>
      </trkpt>
      <trkpt lat="49.27545" lon="-0.49988">
        <ele>29.2</ele>
        <time>2021-08-18T09:53:24Z</time>
      </trkpt>
      <trkpt lat="49.27544" lon="-0.49975">
        <ele>29.7</ele>
        <time>2021-08-18T09:53:26Z</time>
      </trkpt>
      <trkpt lat="49.27543" lon="-0.49967">
        <ele>30.1</ele>
        <time>2021-08-18T09:53:27Z</time>
      </trkpt>
      <trkpt lat="49.27543" lon="-0.4996">
        <ele>30.4</ele>
        <time>2021-08-18T09:53:29Z</time>
      </trkpt>
      <trkpt lat="49.27544" lon="-0.49955">
        <ele>30.6</ele>
        <time>2021-08-18T09:53:30Z</time>
      </trkpt>
      <trkpt lat="49.27544" lon="-0.49945">
        <ele>31.1</ele>
        <time>2021-08-18T09:53:32Z</time>
      </trkpt>
      <trkpt lat="49.27546" lon="-0.49936">
        <ele>31.5</ele>
        <time>2021-08-18T09:53:34Z</time>
      </trkpt>
      <trkpt lat="49.27547" lon="-0.49926">
        <ele>31.9</ele>
        <time>2021-08-18T09:53:36Z</time>
      </trkpt>
      <trkpt lat="49.27548" lon="-0.49917">
        <ele>32.3</ele>
        <time>2021-08-18T09:53:38Z</time>
      </trkpt>
      <trkpt lat="49.2755" lon="-0.4991">
        <ele>32.7</ele>
        <time>2021-08-18T09:53:40Z</time>
      </trkpt>
      <trkpt lat="49.2755" lon="-0.49905">
        <ele>32.9</ele>
        <time>2021-08-18T09:53:41Z</time>
      </trkpt>
      <trkpt lat="49.2755" lon="-0.49903">
        <ele>33</ele>
        <time>2021-08-18T09:53:42Z</time>
      </trkpt>
      <trkpt lat="49.27551" lon="-0.49896">
        <ele>33.3</ele>
        <time>2021-08-18T09:53:44Z</time>
      </trkpt>
      <trkpt lat="49.27552" lon="-0.4989">
        <ele>33.6</ele>
        <time>2021-08-18T09:53:45Z</time>
      </trkpt>
      <trkpt lat="49.27552" lon="-0.49888">
        <ele>33.7</ele>
        <time>2021-08-18T09:53:46Z</time>
      </trkpt>
      <trkpt lat="49.27554" lon="-0.49881">
        <ele>34</ele>
        <time>2021-08-18T09:53:48Z</time>
      </trkpt>
      <trkpt lat="49.27556" lon="-0.49874">
        <ele>34.4</ele>
        <time>2021-08-18T09:53:50Z</time>
      </trkpt>
      <trkpt lat="49.27557" lon="-0.49863">
        <ele>34.9</ele>
        <time>2021-08-18T09:53:52Z</time>
      </trkpt>
      <trkpt lat="49.27558" lon="-0.49857">
        <ele>35.2</ele>
        <time>2021-08-18T09:53:53Z</time>
      </trkpt>
      <trkpt lat="49.27559" lon="-0.4985">
        <ele>35.5</ele>
        <time>2021-08-18T09:53:54Z</time>
      </trkpt>
      <trkpt lat="49.27561" lon="-0.4984">
        <ele>35.9</ele>
        <time>2021-08-18T09:53:56Z</time>
      </trkpt>
      <trkpt lat="49.27563" lon="-0.49829">
        <ele>36.4</ele>
        <time>2021-08-18T09:53:58Z</time>
      </trkpt>
      <trkpt lat="49.27564" lon="-0.49822">
        <ele>36.7</ele>
        <time>2021-08-18T09:53:59Z</time>
      </trkpt>
      <trkpt lat="49.27566" lon="-0.49807">
        <ele>37.3</ele>
        <time>2021-08-18T09:54:01Z</time>
      </trkpt>
      <trkpt lat="49.27568" lon="-0.49795">
        <ele>37.8</ele>
        <time>2021-08-18T09:54:03Z</time>
      </trkpt>
      <trkpt lat="49.27569" lon="-0.49783">
        <ele>38.3</ele>
        <time>2021-08-18T09:54:05Z</time>
      </trkpt>
      <trkpt lat="49.2757" lon="-0.49776">
        <ele>38.6</ele>
        <time>2021-08-18T09:54:06Z</time>
      </trkpt>
      <trkpt lat="49.27572" lon="-0.49765">
        <ele>39.1</ele>
        <time>2021-08-18T09:54:08Z</time>
      </trkpt>
      <trkpt lat="49.27575" lon="-0.49753">
        <ele>39.7</ele>
        <time>2021-08-18T09:54:10Z</time>
      </trkpt>
      <trkpt lat="49.27577" lon="-0.49746">
        <ele>40</ele>
        <time>2021-08-18T09:54:11Z</time>
      </trkpt>
      <trkpt lat="49.27579" lon="-0.49736">
        <ele>40.5</ele>
        <time>2021-08-18T09:54:13Z</time>
      </trkpt>
      <trkpt lat="49.2758" lon="-0.49732">
        <ele>40.7</ele>
        <time>2021-08-18T09:54:14Z</time>
      </trkpt>
      <trkpt lat="49.27585" lon="-0.49724">
        <ele>41.1</ele>
        <time>2021-08-18T09:54:16Z</time>
      </trkpt>
      <trkpt lat="49.27588" lon="-0.49714">
        <ele>41.6</ele>
        <time>2021-08-18T09:54:18Z</time>
      </trkpt>
      <trkpt lat="49.2759" lon="-0.49708">
        <ele>41.8</ele>
        <time>2021-08-18T09:54:19Z</time>
      </trkpt>
      <trkpt lat="49.27592" lon="-0.49695">
        <ele>42.3</ele>
        <time>2021-08-18T09:54:21Z</time>
      </trkpt>
      <trkpt lat="49.27593" lon="-0.49689">
        <ele>42.5</ele>
        <time>2021-08-18T09:54:22Z</time>
      </trkpt>
      <trkpt lat="49.27595" lon="-0.49673">
        <ele>42.9</ele>
        <time>2021-08-18T09:54:24Z</time>
      </trkpt>
      <trkpt lat="49.27595" lon="-0.49659">
        <ele>43.3</ele>
        <time>2021-08-18T09:54:26Z</time>
      </trkpt>
      <trkpt lat="49.27595" lon="-0.49647">
        <ele>43.7</ele>
        <time>2021-08-18T09:54:28Z</time>
      </trkpt>
      <trkpt lat="49.27594" lon="-0.49634">
        <ele>44</ele>
        <time>2021-08-18T09:54:30Z</time>
      </trkpt>
      <trkpt lat="49.27593" lon="-0.49627">
        <ele>44.1</ele>
        <time>2021-08-18T09:54:31Z</time>
      </trkpt>
      <trkpt lat="49.27593" lon="-0.4962">
        <ele>44.2</ele>
        <time>2021-08-18T09:54:32Z</time>
      </trkpt>
      <trkpt lat="49.27592" lon="-0.49613">
        <ele>44.3</ele>
        <time>2021-08-18T09:54:33Z</time>
      </trkpt>
      <trkpt lat="49.27592" lon="-0.49607">
        <ele>44.4</ele>
        <time>2021-08-18T09:54:34Z</time>
      </trkpt>
      <trkpt lat="49.2759" lon="-0.49594">
        <ele>44.6</ele>
        <time>2021-08-18T09:54:36Z</time>
      </trkpt>
      <trkpt lat="49.27589" lon="-0.49586">
        <ele>44.6</ele>
        <time>2021-08-18T09:54:37Z</time>
      </trkpt>
      <trkpt lat="49.27588" lon="-0.4957">
        <ele>44.7</ele>
        <time>2021-08-18T09:54:39Z</time>
      </trkpt>
      <trkpt lat="49.27588" lon="-0.49557">
        <ele>44.7</ele>
        <time>2021-08-18T09:54:41Z</time>
      </trkpt>
      <trkpt lat="49.27588" lon="-0.4955">
        <ele>44.7</ele>
        <time>2021-08-18T09:54:42Z</time>
      </trkpt>
      <trkpt lat="49.27586" lon="-0.49536">
        <ele>44.7</ele>
        <time>2021-08-18T09:54:44Z</time>
      </trkpt>
      <trkpt lat="49.27585" lon="-0.49522">
        <ele>44.7</ele>
        <time>2021-08-18T09:54:46Z</time>
      </trkpt>
      <trkpt lat="49.27583" lon="-0.49507">
        <ele>44.6</ele>
        <time>2021-08-18T09:54:48Z</time>
      </trkpt>
      <trkpt lat="49.27582" lon="-0.49499">
        <ele>44.6</ele>
        <time>2021-08-18T09:54:49Z</time>
      </trkpt>
      <trkpt lat="49.27581" lon="-0.49491">
        <ele>44.6</ele>
        <time>2021-08-18T09:54:50Z</time>
      </trkpt>
      <trkpt lat="49.27579" lon="-0.49475">
        <ele>44.6</ele>
        <time>2021-08-18T09:54:52Z</time>
      </trkpt>
      <trkpt lat="49.27578" lon="-0.49466">
        <ele>44.6</ele>
        <time>2021-08-18T09:54:53Z</time>
      </trkpt>
      <trkpt lat="49.27577" lon="-0.49458">
        <ele>44.6</ele>
        <time>2021-08-18T09:54:54Z</time>
      </trkpt>
      <trkpt lat="49.27574" lon="-0.49441">
        <ele>44.5</ele>
        <time>2021-08-18T09:54:56Z</time>
      </trkpt>
      <trkpt lat="49.27572" lon="-0.49432">
        <ele>44.5</ele>
        <time>2021-08-18T09:54:57Z</time>
      </trkpt>
      <trkpt lat="49.27571" lon="-0.49424">
        <ele>44.5</ele>
        <time>2021-08-18T09:54:58Z</time>
      </trkpt>
      <trkpt lat="49.2757" lon="-0.49415">
        <ele>44.5</ele>
        <time>2021-08-18T09:54:59Z</time>
      </trkpt>
      <trkpt lat="49.27569" lon="-0.49405">
        <ele>44.6</ele>
        <time>2021-08-18T09:55:00Z</time>
      </trkpt>
      <trkpt lat="49.27567" lon="-0.49386">
        <ele>44.6</ele>
        <time>2021-08-18T09:55:02Z</time>
      </trkpt>
      <trkpt lat="49.27566" lon="-0.49376">
        <ele>44.6</ele>
        <time>2021-08-18T09:55:03Z</time>
      </trkpt>
      <trkpt lat="49.27565" lon="-0.49356">
        <ele>44.6</ele>
        <time>2021-08-18T09:55:05Z</time>
      </trkpt>
      <trkpt lat="49.27563" lon="-0.49337">
        <ele>44.5</ele>
        <time>2021-08-18T09:55:07Z</time>
      </trkpt>
      <trkpt lat="49.27562" lon="-0.49317">
        <ele>44.5</ele>
        <time>2021-08-18T09:55:09Z</time>
      </trkpt>
      <trkpt lat="49.2756" lon="-0.49297">
        <ele>44.4</ele>
        <time>2021-08-18T09:55:11Z</time>
      </trkpt>
      <trkpt lat="49.27559" lon="-0.49286">
        <ele>44.4</ele>
        <time>2021-08-18T09:55:12Z</time>
      </trkpt>
      <trkpt lat="49.27559" lon="-0.49276">
        <ele>44.4</ele>
        <time>2021-08-18T09:55:13Z</time>
      </trkpt>
      <trkpt lat="49.27558" lon="-0.49265">
        <ele>44.4</ele>
        <time>2021-08-18T09:55:14Z</time>
      </trkpt>
      <trkpt lat="49.27556" lon="-0.49246">
        <ele>44.5</ele>
        <time>2021-08-18T09:55:16Z</time>
      </trkpt>
      <trkpt lat="49.27555" lon="-0.49236">
        <ele>44.5</ele>
        <time>2021-08-18T09:55:17Z</time>
      </trkpt>
      <trkpt lat="49.27554" lon="-0.49216">
        <ele>44.6</ele>
        <time>2021-08-18T09:55:19Z</time>
      </trkpt>
      <trkpt lat="49.27552" lon="-0.49197">
        <ele>44.7</ele>
        <time>2021-08-18T09:55:21Z</time>
      </trkpt>
      <trkpt lat="49.2755" lon="-0.49187">
        <ele>44.8</ele>
        <time>2021-08-18T09:55:22Z</time>
      </trkpt>
      <trkpt lat="49.27547" lon="-0.4917">
        <ele>45</ele>
        <time>2021-08-18T09:55:24Z</time>
      </trkpt>
      <trkpt lat="49.27545" lon="-0.49152">
        <ele>45.2</ele>
        <time>2021-08-18T09:55:26Z</time>
      </trkpt>
      <trkpt lat="49.27542" lon="-0.49133">
        <ele>45.4</ele>
        <time>2021-08-18T09:55:28Z</time>
      </trkpt>
      <trkpt lat="49.2754" lon="-0.49116">
        <ele>45.6</ele>
        <time>2021-08-18T09:55:30Z</time>
      </trkpt>
      <trkpt lat="49.27536" lon="-0.49099">
        <ele>45.8</ele>
        <time>2021-08-18T09:55:32Z</time>
      </trkpt>
      <trkpt lat="49.27534" lon="-0.49091">
        <ele>45.9</ele>
        <time>2021-08-18T09:55:33Z</time>
      </trkpt>
      <trkpt lat="49.27531" lon="-0.49074">
        <ele>46</ele>
        <time>2021-08-18T09:55:35Z</time>
      </trkpt>
      <trkpt lat="49.2753" lon="-0.49064">
        <ele>46.1</ele>
        <time>2021-08-18T09:55:36Z</time>
      </trkpt>
      <trkpt lat="49.27529" lon="-0.49044">
        <ele>46.3</ele>
        <time>2021-08-18T09:55:38Z</time>
      </trkpt>
      <trkpt lat="49.27528" lon="-0.49023">
        <ele>46.5</ele>
        <time>2021-08-18T09:55:40Z</time>
      </trkpt>
      <trkpt lat="49.27527" lon="-0.49013">
        <ele>46.6</ele>
        <time>2021-08-18T09:55:41Z</time>
      </trkpt>
      <trkpt lat="49.27527" lon="-0.49003">
        <ele>46.7</ele>
        <time>2021-08-18T09:55:42Z</time>
      </trkpt>
      <trkpt lat="49.27527" lon="-0.48993">
        <ele>46.8</ele>
        <time>2021-08-18T09:55:43Z</time>
      </trkpt>
      <trkpt lat="49.27525" lon="-0.48973">
        <ele>47</ele>
        <time>2021-08-18T09:55:45Z</time>
      </trkpt>
      <trkpt lat="49.27523" lon="-0.48952">
        <ele>47.2</ele>
        <time>2021-08-18T09:55:47Z</time>
      </trkpt>
      <trkpt lat="49.2752" lon="-0.48931">
        <ele>47.4</ele>
        <time>2021-08-18T09:55:49Z</time>
      </trkpt>
      <trkpt lat="49.27519" lon="-0.48921">
        <ele>47.5</ele>
        <time>2021-08-18T09:55:50Z</time>
      </trkpt>
      <trkpt lat="49.27516" lon="-0.489">
        <ele>47.7</ele>
        <time>2021-08-18T09:55:52Z</time>
      </trkpt>
      <trkpt lat="49.27515" lon="-0.4889">
        <ele>47.8</ele>
        <time>2021-08-18T09:55:53Z</time>
      </trkpt>
      <trkpt lat="49.27515" lon="-0.4888">
        <ele>47.9</ele>
        <time>2021-08-18T09:55:54Z</time>
      </trkpt>
      <trkpt lat="49.27514" lon="-0.48869">
        <ele>48</ele>
        <time>2021-08-18T09:55:55Z</time>
      </trkpt>
      <trkpt lat="49.27512" lon="-0.48849">
        <ele>48.2</ele>
        <time>2021-08-18T09:55:57Z</time>
      </trkpt>
      <trkpt lat="49.2751" lon="-0.48828">
        <ele>48.4</ele>
        <time>2021-08-18T09:55:59Z</time>
      </trkpt>
      <trkpt lat="49.27509" lon="-0.48818">
        <ele>48.5</ele>
        <time>2021-08-18T09:56:00Z</time>
      </trkpt>
      <trkpt lat="49.27507" lon="-0.48798">
        <ele>48.7</ele>
        <time>2021-08-18T09:56:02Z</time>
      </trkpt>
      <trkpt lat="49.27506" lon="-0.48787">
        <ele>48.8</ele>
        <time>2021-08-18T09:56:03Z</time>
      </trkpt>
      <trkpt lat="49.27505" lon="-0.48776">
        <ele>48.9</ele>
        <time>2021-08-18T09:56:04Z</time>
      </trkpt>
      <trkpt lat="49.27503" lon="-0.48754">
        <ele>49</ele>
        <time>2021-08-18T09:56:06Z</time>
      </trkpt>
      <trkpt lat="49.27501" lon="-0.48743">
        <ele>49.1</ele>
        <time>2021-08-18T09:56:07Z</time>
      </trkpt>
      <trkpt lat="49.275" lon="-0.48732">
        <ele>49.2</ele>
        <time>2021-08-18T09:56:08Z</time>
      </trkpt>
      <trkpt lat="49.27499" lon="-0.48722">
        <ele>49.3</ele>
        <time>2021-08-18T09:56:09Z</time>
      </trkpt>
      <trkpt lat="49.27497" lon="-0.487">
        <ele>49.4</ele>
        <time>2021-08-18T09:56:11Z</time>
      </trkpt>
      <trkpt lat="49.27497" lon="-0.48689">
        <ele>49.5</ele>
        <time>2021-08-18T09:56:12Z</time>
      </trkpt>
      <trkpt lat="49.27495" lon="-0.48667">
        <ele>49.7</ele>
        <time>2021-08-18T09:56:14Z</time>
      </trkpt>
      <trkpt lat="49.27495" lon="-0.48645">
        <ele>49.9</ele>
        <time>2021-08-18T09:56:16Z</time>
      </trkpt>
      <trkpt lat="49.27494" lon="-0.48634">
        <ele>50</ele>
        <time>2021-08-18T09:56:17Z</time>
      </trkpt>
      <trkpt lat="49.27493" lon="-0.48623">
        <ele>50.1</ele>
        <time>2021-08-18T09:56:18Z</time>
      </trkpt>
      <trkpt lat="49.27492" lon="-0.48602">
        <ele>50.3</ele>
        <time>2021-08-18T09:56:20Z</time>
      </trkpt>
      <trkpt lat="49.27492" lon="-0.48591">
        <ele>50.4</ele>
        <time>2021-08-18T09:56:21Z</time>
      </trkpt>
      <trkpt lat="49.27493" lon="-0.48568">
        <ele>50.6</ele>
        <time>2021-08-18T09:56:23Z</time>
      </trkpt>
      <trkpt lat="49.27493" lon="-0.48556">
        <ele>50.7</ele>
        <time>2021-08-18T09:56:24Z</time>
      </trkpt>
      <trkpt lat="49.27495" lon="-0.48534">
        <ele>51</ele>
        <time>2021-08-18T09:56:26Z</time>
      </trkpt>
      <trkpt lat="49.27498" lon="-0.48511">
        <ele>51.3</ele>
        <time>2021-08-18T09:56:28Z</time>
      </trkpt>
      <trkpt lat="49.27501" lon="-0.48489">
        <ele>51.5</ele>
        <time>2021-08-18T09:56:30Z</time>
      </trkpt>
      <trkpt lat="49.27503" lon="-0.48467">
        <ele>51.8</ele>
        <time>2021-08-18T09:56:32Z</time>
      </trkpt>
      <trkpt lat="49.27507" lon="-0.48445">
        <ele>52</ele>
        <time>2021-08-18T09:56:34Z</time>
      </trkpt>
      <trkpt lat="49.27511" lon="-0.48423">
        <ele>52.3</ele>
        <time>2021-08-18T09:56:36Z</time>
      </trkpt>
      <trkpt lat="49.27513" lon="-0.48413">
        <ele>52.5</ele>
        <time>2021-08-18T09:56:37Z</time>
      </trkpt>
      <trkpt lat="49.27516" lon="-0.48393">
        <ele>52.9</ele>
        <time>2021-08-18T09:56:39Z</time>
      </trkpt>
      <trkpt lat="49.2752" lon="-0.48372">
        <ele>53.2</ele>
        <time>2021-08-18T09:56:41Z</time>
      </trkpt>
      <trkpt lat="49.27523" lon="-0.48362">
        <ele>53.4</ele>
        <time>2021-08-18T09:56:42Z</time>
      </trkpt>
      <trkpt lat="49.27525" lon="-0.48351">
        <ele>53.6</ele>
        <time>2021-08-18T09:56:43Z</time>
      </trkpt>
      <trkpt lat="49.27529" lon="-0.48332">
        <ele>53.9</ele>
        <time>2021-08-18T09:56:45Z</time>
      </trkpt>
      <trkpt lat="49.27531" lon="-0.48322">
        <ele>54</ele>
        <time>2021-08-18T09:56:46Z</time>
      </trkpt>
      <trkpt lat="49.27534" lon="-0.48302">
        <ele>54.4</ele>
        <time>2021-08-18T09:56:48Z</time>
      </trkpt>
      <trkpt lat="49.27536" lon="-0.48292">
        <ele>54.6</ele>
        <time>2021-08-18T09:56:49Z</time>
      </trkpt>
      <trkpt lat="49.27539" lon="-0.48272">
        <ele>54.9</ele>
        <time>2021-08-18T09:56:51Z</time>
      </trkpt>
      <trkpt lat="49.2754" lon="-0.48262">
        <ele>55.1</ele>
        <time>2021-08-18T09:56:52Z</time>
      </trkpt>
      <trkpt lat="49.27542" lon="-0.48252">
        <ele>55.2</ele>
        <time>2021-08-18T09:56:53Z</time>
      </trkpt>
      <trkpt lat="49.27548" lon="-0.48232">
        <ele>55.5</ele>
        <time>2021-08-18T09:56:55Z</time>
      </trkpt>
      <trkpt lat="49.27551" lon="-0.48223">
        <ele>55.6</ele>
        <time>2021-08-18T09:56:56Z</time>
      </trkpt>
      <trkpt lat="49.27559" lon="-0.48204">
        <ele>55.8</ele>
        <time>2021-08-18T09:56:58Z</time>
      </trkpt>
      <trkpt lat="49.27568" lon="-0.48187">
        <ele>56</ele>
        <time>2021-08-18T09:57:00Z</time>
      </trkpt>
      <trkpt lat="49.27573" lon="-0.48179">
        <ele>56.1</ele>
        <time>2021-08-18T09:57:01Z</time>
      </trkpt>
      <trkpt lat="49.27582" lon="-0.48162">
        <ele>56.1</ele>
        <time>2021-08-18T09:57:03Z</time>
      </trkpt>
      <trkpt lat="49.27592" lon="-0.48145">
        <ele>56.1</ele>
        <time>2021-08-18T09:57:05Z</time>
      </trkpt>
      <trkpt lat="49.27602" lon="-0.48128">
        <ele>56.1</ele>
        <time>2021-08-18T09:57:07Z</time>
      </trkpt>
      <trkpt lat="49.27612" lon="-0.4811">
        <ele>56.1</ele>
        <time>2021-08-18T09:57:09Z</time>
      </trkpt>
      <trkpt lat="49.27617" lon="-0.48101">
        <ele>56.1</ele>
        <time>2021-08-18T09:57:10Z</time>
      </trkpt>
      <trkpt lat="49.27627" lon="-0.48082">
        <ele>56.1</ele>
        <time>2021-08-18T09:57:12Z</time>
      </trkpt>
      <trkpt lat="49.27631" lon="-0.48072">
        <ele>56</ele>
        <time>2021-08-18T09:57:13Z</time>
      </trkpt>
      <trkpt lat="49.27641" lon="-0.48051">
        <ele>56</ele>
        <time>2021-08-18T09:57:15Z</time>
      </trkpt>
      <trkpt lat="49.27648" lon="-0.48027">
        <ele>55.9</ele>
        <time>2021-08-18T09:57:17Z</time>
      </trkpt>
      <trkpt lat="49.27655" lon="-0.48003">
        <ele>55.8</ele>
        <time>2021-08-18T09:57:19Z</time>
      </trkpt>
      <trkpt lat="49.27659" lon="-0.4799">
        <ele>55.7</ele>
        <time>2021-08-18T09:57:20Z</time>
      </trkpt>
      <trkpt lat="49.27665" lon="-0.47966">
        <ele>55.6</ele>
        <time>2021-08-18T09:57:22Z</time>
      </trkpt>
      <trkpt lat="49.2767" lon="-0.4794">
        <ele>55.4</ele>
        <time>2021-08-18T09:57:24Z</time>
      </trkpt>
      <trkpt lat="49.27673" lon="-0.47927">
        <ele>55.4</ele>
        <time>2021-08-18T09:57:25Z</time>
      </trkpt>
      <trkpt lat="49.27679" lon="-0.47901">
        <ele>55.2</ele>
        <time>2021-08-18T09:57:27Z</time>
      </trkpt>
      <trkpt lat="49.27685" lon="-0.47876">
        <ele>55</ele>
        <time>2021-08-18T09:57:29Z</time>
      </trkpt>
      <trkpt lat="49.27688" lon="-0.47862">
        <ele>54.9</ele>
        <time>2021-08-18T09:57:30Z</time>
      </trkpt>
      <trkpt lat="49.27693" lon="-0.47836">
        <ele>54.7</ele>
        <time>2021-08-18T09:57:32Z</time>
      </trkpt>
      <trkpt lat="49.27696" lon="-0.47821">
        <ele>54.6</ele>
        <time>2021-08-18T09:57:33Z</time>
      </trkpt>
      <trkpt lat="49.27698" lon="-0.47807">
        <ele>54.6</ele>
        <time>2021-08-18T09:57:34Z</time>
      </trkpt>
      <trkpt lat="49.277" lon="-0.47793">
        <ele>54.5</ele>
        <time>2021-08-18T09:57:35Z</time>
      </trkpt>
      <trkpt lat="49.27702" lon="-0.47778">
        <ele>54.5</ele>
        <time>2021-08-18T09:57:36Z</time>
      </trkpt>
      <trkpt lat="49.27704" lon="-0.47764">
        <ele>54.4</ele>
        <time>2021-08-18T09:57:37Z</time>
      </trkpt>
      <trkpt lat="49.27707" lon="-0.47736">
        <ele>54.3</ele>
        <time>2021-08-18T09:57:39Z</time>
      </trkpt>
      <trkpt lat="49.27711" lon="-0.47708">
        <ele>54.2</ele>
        <time>2021-08-18T09:57:41Z</time>
      </trkpt>
      <trkpt lat="49.27713" lon="-0.47694">
        <ele>54.2</ele>
        <time>2021-08-18T09:57:42Z</time>
      </trkpt>
      <trkpt lat="49.27717" lon="-0.47666">
        <ele>54.1</ele>
        <time>2021-08-18T09:57:44Z</time>
      </trkpt>
      <trkpt lat="49.27718" lon="-0.47653">
        <ele>54.1</ele>
        <time>2021-08-18T09:57:45Z</time>
      </trkpt>
      <trkpt lat="49.27722" lon="-0.47626">
        <ele>54</ele>
        <time>2021-08-18T09:57:47Z</time>
      </trkpt>
      <trkpt lat="49.27725" lon="-0.47599">
        <ele>53.9</ele>
        <time>2021-08-18T09:57:49Z</time>
      </trkpt>
      <trkpt lat="49.27727" lon="-0.47585">
        <ele>53.9</ele>
        <time>2021-08-18T09:57:50Z</time>
      </trkpt>
      <trkpt lat="49.27729" lon="-0.47571">
        <ele>53.8</ele>
        <time>2021-08-18T09:57:51Z</time>
      </trkpt>
      <trkpt lat="49.27731" lon="-0.47544">
        <ele>53.8</ele>
        <time>2021-08-18T09:57:53Z</time>
      </trkpt>
      <trkpt lat="49.27732" lon="-0.4753">
        <ele>53.7</ele>
        <time>2021-08-18T09:57:54Z</time>
      </trkpt>
      <trkpt lat="49.27733" lon="-0.47517">
        <ele>53.7</ele>
        <time>2021-08-18T09:57:55Z</time>
      </trkpt>
      <trkpt lat="49.27734" lon="-0.4749">
        <ele>53.8</ele>
        <time>2021-08-18T09:57:57Z</time>
      </trkpt>
      <trkpt lat="49.27735" lon="-0.47477">
        <ele>53.8</ele>
        <time>2021-08-18T09:57:58Z</time>
      </trkpt>
      <trkpt lat="49.27735" lon="-0.47463">
        <ele>53.8</ele>
        <time>2021-08-18T09:57:59Z</time>
      </trkpt>
      <trkpt lat="49.27734" lon="-0.47436">
        <ele>53.9</ele>
        <time>2021-08-18T09:58:01Z</time>
      </trkpt>
      <trkpt lat="49.27734" lon="-0.47409">
        <ele>53.9</ele>
        <time>2021-08-18T09:58:03Z</time>
      </trkpt>
      <trkpt lat="49.27735" lon="-0.47383">
        <ele>53.9</ele>
        <time>2021-08-18T09:58:05Z</time>
      </trkpt>
      <trkpt lat="49.27739" lon="-0.47359">
        <ele>53.8</ele>
        <time>2021-08-18T09:58:07Z</time>
      </trkpt>
      <trkpt lat="49.27743" lon="-0.47334">
        <ele>53.6</ele>
        <time>2021-08-18T09:58:09Z</time>
      </trkpt>
      <trkpt lat="49.27749" lon="-0.47309">
        <ele>53.5</ele>
        <time>2021-08-18T09:58:11Z</time>
      </trkpt>
      <trkpt lat="49.27756" lon="-0.47284">
        <ele>53.3</ele>
        <time>2021-08-18T09:58:13Z</time>
      </trkpt>
      <trkpt lat="49.27759" lon="-0.4727">
        <ele>53.3</ele>
        <time>2021-08-18T09:58:14Z</time>
      </trkpt>
      <trkpt lat="49.27763" lon="-0.47257">
        <ele>53.2</ele>
        <time>2021-08-18T09:58:15Z</time>
      </trkpt>
      <trkpt lat="49.27769" lon="-0.47231">
        <ele>53.1</ele>
        <time>2021-08-18T09:58:17Z</time>
      </trkpt>
      <trkpt lat="49.27772" lon="-0.47218">
        <ele>53.1</ele>
        <time>2021-08-18T09:58:18Z</time>
      </trkpt>
      <trkpt lat="49.27774" lon="-0.47205">
        <ele>53.1</ele>
        <time>2021-08-18T09:58:19Z</time>
      </trkpt>
      <trkpt lat="49.27778" lon="-0.47177">
        <ele>53</ele>
        <time>2021-08-18T09:58:21Z</time>
      </trkpt>
      <trkpt lat="49.27779" lon="-0.47163">
        <ele>53</ele>
        <time>2021-08-18T09:58:22Z</time>
      </trkpt>
      <trkpt lat="49.27779" lon="-0.47149">
        <ele>53</ele>
        <time>2021-08-18T09:58:23Z</time>
      </trkpt>
      <trkpt lat="49.27778" lon="-0.4712">
        <ele>53</ele>
        <time>2021-08-18T09:58:25Z</time>
      </trkpt>
      <trkpt lat="49.27775" lon="-0.47092">
        <ele>53</ele>
        <time>2021-08-18T09:58:27Z</time>
      </trkpt>
      <trkpt lat="49.27773" lon="-0.47077">
        <ele>52.9</ele>
        <time>2021-08-18T09:58:28Z</time>
      </trkpt>
      <trkpt lat="49.27768" lon="-0.47049">
        <ele>52.7</ele>
        <time>2021-08-18T09:58:30Z</time>
      </trkpt>
      <trkpt lat="49.27762" lon="-0.47022">
        <ele>52.5</ele>
        <time>2021-08-18T09:58:32Z</time>
      </trkpt>
      <trkpt lat="49.2776" lon="-0.47008">
        <ele>52.5</ele>
        <time>2021-08-18T09:58:33Z</time>
      </trkpt>
      <trkpt lat="49.27757" lon="-0.46993">
        <ele>52.3</ele>
        <time>2021-08-18T09:58:34Z</time>
      </trkpt>
      <trkpt lat="49.27755" lon="-0.46979">
        <ele>52.2</ele>
        <time>2021-08-18T09:58:35Z</time>
      </trkpt>
      <trkpt lat="49.27752" lon="-0.46965">
        <ele>52.1</ele>
        <time>2021-08-18T09:58:36Z</time>
      </trkpt>
      <trkpt lat="49.27747" lon="-0.46937">
        <ele>52</ele>
        <time>2021-08-18T09:58:38Z</time>
      </trkpt>
      <trkpt lat="49.27742" lon="-0.46909">
        <ele>51.9</ele>
        <time>2021-08-18T09:58:40Z</time>
      </trkpt>
      <trkpt lat="49.27737" lon="-0.46881">
        <ele>51.9</ele>
        <time>2021-08-18T09:58:42Z</time>
      </trkpt>
      <trkpt lat="49.27734" lon="-0.46867">
        <ele>51.9</ele>
        <time>2021-08-18T09:58:43Z</time>
      </trkpt>
      <trkpt lat="49.27731" lon="-0.46853">
        <ele>52</ele>
        <time>2021-08-18T09:58:44Z</time>
      </trkpt>
      <trkpt lat="49.27726" lon="-0.46826">
        <ele>52</ele>
        <time>2021-08-18T09:58:46Z</time>
      </trkpt>
      <trkpt lat="49.27721" lon="-0.46799">
        <ele>52</ele>
        <time>2021-08-18T09:58:48Z</time>
      </trkpt>
      <trkpt lat="49.27716" lon="-0.46772">
        <ele>52</ele>
        <time>2021-08-18T09:58:50Z</time>
      </trkpt>
      <trkpt lat="49.27714" lon="-0.46758">
        <ele>52</ele>
        <time>2021-08-18T09:58:51Z</time>
      </trkpt>
      <trkpt lat="49.27711" lon="-0.46731">
        <ele>51.9</ele>
        <time>2021-08-18T09:58:53Z</time>
      </trkpt>
      <trkpt lat="49.27709" lon="-0.46703">
        <ele>51.8</ele>
        <time>2021-08-18T09:58:55Z</time>
      </trkpt>
      <trkpt lat="49.27706" lon="-0.46675">
        <ele>51.7</ele>
        <time>2021-08-18T09:58:57Z</time>
      </trkpt>
      <trkpt lat="49.27705" lon="-0.46648">
        <ele>51.6</ele>
        <time>2021-08-18T09:58:59Z</time>
      </trkpt>
      <trkpt lat="49.27704" lon="-0.46633">
        <ele>51.5</ele>
        <time>2021-08-18T09:59:00Z</time>
      </trkpt>
      <trkpt lat="49.27703" lon="-0.46617">
        <ele>51.4</ele>
        <time>2021-08-18T09:59:01Z</time>
      </trkpt>
      <trkpt lat="49.27701" lon="-0.46587">
        <ele>51.3</ele>
        <time>2021-08-18T09:59:03Z</time>
      </trkpt>
      <trkpt lat="49.277" lon="-0.46572">
        <ele>51.3</ele>
        <time>2021-08-18T09:59:04Z</time>
      </trkpt>
      <trkpt lat="49.27698" lon="-0.46557">
        <ele>51.3</ele>
        <time>2021-08-18T09:59:05Z</time>
      </trkpt>
      <trkpt lat="49.27696" lon="-0.46528">
        <ele>51.2</ele>
        <time>2021-08-18T09:59:07Z</time>
      </trkpt>
      <trkpt lat="49.27696" lon="-0.46514">
        <ele>51.2</ele>
        <time>2021-08-18T09:59:08Z</time>
      </trkpt>
      <trkpt lat="49.27695" lon="-0.46499">
        <ele>51.1</ele>
        <time>2021-08-18T09:59:09Z</time>
      </trkpt>
      <trkpt lat="49.27695" lon="-0.46485">
        <ele>51</ele>
        <time>2021-08-18T09:59:10Z</time>
      </trkpt>
      <trkpt lat="49.27694" lon="-0.46456">
        <ele>50.7</ele>
        <time>2021-08-18T09:59:12Z</time>
      </trkpt>
      <trkpt lat="49.27693" lon="-0.46442">
        <ele>50.5</ele>
        <time>2021-08-18T09:59:13Z</time>
      </trkpt>
      <trkpt lat="49.27692" lon="-0.46414">
        <ele>50.1</ele>
        <time>2021-08-18T09:59:15Z</time>
      </trkpt>
      <trkpt lat="49.27692" lon="-0.46399">
        <ele>49.8</ele>
        <time>2021-08-18T09:59:16Z</time>
      </trkpt>
      <trkpt lat="49.27691" lon="-0.46384">
        <ele>49.5</ele>
        <time>2021-08-18T09:59:17Z</time>
      </trkpt>
      <trkpt lat="49.27691" lon="-0.46369">
        <ele>49.1</ele>
        <time>2021-08-18T09:59:18Z</time>
      </trkpt>
      <trkpt lat="49.2769" lon="-0.46339">
        <ele>48.5</ele>
        <time>2021-08-18T09:59:20Z</time>
      </trkpt>
      <trkpt lat="49.27689" lon="-0.46323">
        <ele>48.1</ele>
        <time>2021-08-18T09:59:21Z</time>
      </trkpt>
      <trkpt lat="49.27688" lon="-0.46307">
        <ele>47.7</ele>
        <time>2021-08-18T09:59:22Z</time>
      </trkpt>
      <trkpt lat="49.27686" lon="-0.46274">
        <ele>47</ele>
        <time>2021-08-18T09:59:24Z</time>
      </trkpt>
      <trkpt lat="49.27684" lon="-0.46242">
        <ele>46.2</ele>
        <time>2021-08-18T09:59:26Z</time>
      </trkpt>
      <trkpt lat="49.27682" lon="-0.46225">
        <ele>45.7</ele>
        <time>2021-08-18T09:59:27Z</time>
      </trkpt>
      <trkpt lat="49.27681" lon="-0.46209">
        <ele>45.3</ele>
        <time>2021-08-18T09:59:28Z</time>
      </trkpt>
      <trkpt lat="49.27677" lon="-0.46177">
        <ele>44.5</ele>
        <time>2021-08-18T09:59:30Z</time>
      </trkpt>
      <trkpt lat="49.27676" lon="-0.4616">
        <ele>44</ele>
        <time>2021-08-18T09:59:31Z</time>
      </trkpt>
      <trkpt lat="49.27673" lon="-0.46128">
        <ele>43.1</ele>
        <time>2021-08-18T09:59:33Z</time>
      </trkpt>
      <trkpt lat="49.27671" lon="-0.46111">
        <ele>42.6</ele>
        <time>2021-08-18T09:59:34Z</time>
      </trkpt>
      <trkpt lat="49.27667" lon="-0.46076">
        <ele>41.6</ele>
        <time>2021-08-18T09:59:36Z</time>
      </trkpt>
      <trkpt lat="49.27666" lon="-0.46041">
        <ele>40.6</ele>
        <time>2021-08-18T09:59:38Z</time>
      </trkpt>
      <trkpt lat="49.27665" lon="-0.46023">
        <ele>40.1</ele>
        <time>2021-08-18T09:59:39Z</time>
      </trkpt>
      <trkpt lat="49.27666" lon="-0.45989">
        <ele>39</ele>
        <time>2021-08-18T09:59:41Z</time>
      </trkpt>
      <trkpt lat="49.2767" lon="-0.45953">
        <ele>37.9</ele>
        <time>2021-08-18T09:59:43Z</time>
      </trkpt>
      <trkpt lat="49.27673" lon="-0.45919">
        <ele>36.6</ele>
        <time>2021-08-18T09:59:45Z</time>
      </trkpt>
      <trkpt lat="49.27675" lon="-0.45885">
        <ele>35.8</ele>
        <time>2021-08-18T09:59:47Z</time>
      </trkpt>
      <trkpt lat="49.27678" lon="-0.45868">
        <ele>35.3</ele>
        <time>2021-08-18T09:59:48Z</time>
      </trkpt>
      <trkpt lat="49.27682" lon="-0.4585">
        <ele>34.7</ele>
        <time>2021-08-18T09:59:49Z</time>
      </trkpt>
      <trkpt lat="49.27688" lon="-0.45816">
        <ele>33.6</ele>
        <time>2021-08-18T09:59:51Z</time>
      </trkpt>
      <trkpt lat="49.27694" lon="-0.45783">
        <ele>32.5</ele>
        <time>2021-08-18T09:59:53Z</time>
      </trkpt>
      <trkpt lat="49.27696" lon="-0.45767">
        <ele>32</ele>
        <time>2021-08-18T09:59:54Z</time>
      </trkpt>
      <trkpt lat="49.277" lon="-0.45734">
        <ele>31</ele>
        <time>2021-08-18T09:59:56Z</time>
      </trkpt>
      <trkpt lat="49.27702" lon="-0.45701">
        <ele>29.8</ele>
        <time>2021-08-18T09:59:58Z</time>
      </trkpt>
      <trkpt lat="49.27706" lon="-0.45669">
        <ele>28.3</ele>
        <time>2021-08-18T10:00:00Z</time>
      </trkpt>
      <trkpt lat="49.27711" lon="-0.45636">
        <ele>26.4</ele>
        <time>2021-08-18T10:00:02Z</time>
      </trkpt>
      <trkpt lat="49.27711" lon="-0.45601">
        <ele>24.1</ele>
        <time>2021-08-18T10:00:04Z</time>
      </trkpt>
      <trkpt lat="49.27711" lon="-0.45582">
        <ele>22.8</ele>
        <time>2021-08-18T10:00:05Z</time>
      </trkpt>
      <trkpt lat="49.27708" lon="-0.45548">
        <ele>20.9</ele>
        <time>2021-08-18T10:00:07Z</time>
      </trkpt>
      <trkpt lat="49.27701" lon="-0.45525">
        <ele>19.8</ele>
        <time>2021-08-18T10:00:09Z</time>
      </trkpt>
      <trkpt lat="49.27698" lon="-0.45518">
        <ele>19.5</ele>
        <time>2021-08-18T10:00:10Z</time>
      </trkpt>
      <trkpt lat="49.27696" lon="-0.45516">
        <ele>19.1</ele>
        <time>2021-08-18T10:00:11Z</time>
      </trkpt>
      <trkpt lat="49.2769" lon="-0.4551">
        <ele>19</ele>
        <time>2021-08-18T10:00:13Z</time>
      </trkpt>
      <trkpt lat="49.27685" lon="-0.45507">
        <ele>18.9</ele>
        <time>2021-08-18T10:00:14Z</time>
      </trkpt>
      <trkpt lat="49.27681" lon="-0.45505">
        <ele>18.8</ele>
        <time>2021-08-18T10:00:15Z</time>
      </trkpt>
      <trkpt lat="49.27671" lon="-0.45504">
        <ele>18.6</ele>
        <time>2021-08-18T10:00:17Z</time>
      </trkpt>
      <trkpt lat="49.27659" lon="-0.455">
        <ele>18.4</ele>
        <time>2021-08-18T10:00:19Z</time>
      </trkpt>
      <trkpt lat="49.27648" lon="-0.45498">
        <ele>18.2</ele>
        <time>2021-08-18T10:00:21Z</time>
      </trkpt>
      <trkpt lat="49.27643" lon="-0.45494">
        <ele>18.1</ele>
        <time>2021-08-18T10:00:22Z</time>
      </trkpt>
      <trkpt lat="49.27635" lon="-0.45483">
        <ele>18</ele>
        <time>2021-08-18T10:00:24Z</time>
      </trkpt>
      <trkpt lat="49.27632" lon="-0.45476">
        <ele>18</ele>
        <time>2021-08-18T10:00:25Z</time>
      </trkpt>
      <trkpt lat="49.27628" lon="-0.45459">
        <ele>17.8</ele>
        <time>2021-08-18T10:00:27Z</time>
      </trkpt>
      <trkpt lat="49.27628" lon="-0.45442">
        <ele>17.8</ele>
        <time>2021-08-18T10:00:29Z</time>
      </trkpt>
      <trkpt lat="49.27627" lon="-0.45434">
        <ele>17.8</ele>
        <time>2021-08-18T10:00:30Z</time>
      </trkpt>
      <trkpt lat="49.27623" lon="-0.45423">
        <ele>17.9</ele>
        <time>2021-08-18T10:00:32Z</time>
      </trkpt>
      <trkpt lat="49.27618" lon="-0.4541">
        <ele>18</ele>
        <time>2021-08-18T10:00:34Z</time>
      </trkpt>
      <trkpt lat="49.27616" lon="-0.45404">
        <ele>18.1</ele>
        <time>2021-08-18T10:00:35Z</time>
      </trkpt>
      <trkpt lat="49.27614" lon="-0.45398">
        <ele>18.3</ele>
        <time>2021-08-18T10:00:36Z</time>
      </trkpt>
      <trkpt lat="49.27609" lon="-0.45387">
        <ele>18.6</ele>
        <time>2021-08-18T10:00:38Z</time>
      </trkpt>
      <trkpt lat="49.27607" lon="-0.45381">
        <ele>18.7</ele>
        <time>2021-08-18T10:00:39Z</time>
      </trkpt>
      <trkpt lat="49.27604" lon="-0.45369">
        <ele>19</ele>
        <time>2021-08-18T10:00:41Z</time>
      </trkpt>
      <trkpt lat="49.276" lon="-0.45355">
        <ele>19.4</ele>
        <time>2021-08-18T10:00:43Z</time>
      </trkpt>
      <trkpt lat="49.276" lon="-0.4535">
        <ele>19.5</ele>
        <time>2021-08-18T10:00:44Z</time>
      </trkpt>
      <trkpt lat="49.27599" lon="-0.45344">
        <ele>19.7</ele>
        <time>2021-08-18T10:00:45Z</time>
      </trkpt>
      <trkpt lat="49.27597" lon="-0.45337">
        <ele>19.9</ele>
        <time>2021-08-18T10:00:46Z</time>
      </trkpt>
      <trkpt lat="49.27594" lon="-0.45323">
        <ele>20.3</ele>
        <time>2021-08-18T10:00:48Z</time>
      </trkpt>
      <trkpt lat="49.27593" lon="-0.45316">
        <ele>20.5</ele>
        <time>2021-08-18T10:00:49Z</time>
      </trkpt>
      <trkpt lat="49.27592" lon="-0.45301">
        <ele>21</ele>
        <time>2021-08-18T10:00:51Z</time>
      </trkpt>
      <trkpt lat="49.27591" lon="-0.45293">
        <ele>21.2</ele>
        <time>2021-08-18T10:00:52Z</time>
      </trkpt>
      <trkpt lat="49.27588" lon="-0.45275">
        <ele>21.7</ele>
        <time>2021-08-18T10:00:54Z</time>
      </trkpt>
      <trkpt lat="49.27585" lon="-0.45267">
        <ele>22</ele>
        <time>2021-08-18T10:00:55Z</time>
      </trkpt>
      <trkpt lat="49.27584" lon="-0.45258">
        <ele>22.2</ele>
        <time>2021-08-18T10:00:56Z</time>
      </trkpt>
      <trkpt lat="49.27583" lon="-0.45243">
        <ele>22.5</ele>
        <time>2021-08-18T10:00:58Z</time>
      </trkpt>
      <trkpt lat="49.27583" lon="-0.45238">
        <ele>22.3</ele>
        <time>2021-08-18T10:00:59Z</time>
      </trkpt>
      <trkpt lat="49.27589" lon="-0.45235">
        <ele>21.9</ele>
        <time>2021-08-18T10:01:01Z</time>
      </trkpt>
      <trkpt lat="49.27604" lon="-0.45238">
        <ele>20.7</ele>
        <time>2021-08-18T10:01:03Z</time>
      </trkpt>
      <trkpt lat="49.27615" lon="-0.4524">
        <ele>19.9</ele>
        <time>2021-08-18T10:01:04Z</time>
      </trkpt>
      <trkpt lat="49.27621" lon="-0.45237">
        <ele>19.4</ele>
        <time>2021-08-18T10:01:05Z</time>
      </trkpt>
      <trkpt lat="49.27628" lon="-0.45216">
        <ele>17.7</ele>
        <time>2021-08-18T10:01:07Z</time>
      </trkpt>
      <trkpt lat="49.27627" lon="-0.45204">
        <ele>17.6</ele>
        <time>2021-08-18T10:01:08Z</time>
      </trkpt>
      <trkpt lat="49.27627" lon="-0.45181">
        <ele>17.6</ele>
        <time>2021-08-18T10:01:10Z</time>
      </trkpt>
      <trkpt lat="49.27626" lon="-0.45169">
        <ele>17.6</ele>
        <time>2021-08-18T10:01:11Z</time>
      </trkpt>
      <trkpt lat="49.27622" lon="-0.45147">
        <ele>17.7</ele>
        <time>2021-08-18T10:01:13Z</time>
      </trkpt>
      <trkpt lat="49.2762" lon="-0.45136">
        <ele>17.8</ele>
        <time>2021-08-18T10:01:14Z</time>
      </trkpt>
      <trkpt lat="49.27617" lon="-0.45126">
        <ele>18</ele>
        <time>2021-08-18T10:01:15Z</time>
      </trkpt>
      <trkpt lat="49.27609" lon="-0.45107">
        <ele>18.3</ele>
        <time>2021-08-18T10:01:17Z</time>
      </trkpt>
      <trkpt lat="49.27605" lon="-0.45097">
        <ele>18.4</ele>
        <time>2021-08-18T10:01:18Z</time>
      </trkpt>
      <trkpt lat="49.27598" lon="-0.4508">
        <ele>18.7</ele>
        <time>2021-08-18T10:01:20Z</time>
      </trkpt>
      <trkpt lat="49.27595" lon="-0.45071">
        <ele>18.9</ele>
        <time>2021-08-18T10:01:21Z</time>
      </trkpt>
      <trkpt lat="49.27588" lon="-0.45055">
        <ele>19</ele>
        <time>2021-08-18T10:01:23Z</time>
      </trkpt>
      <trkpt lat="49.27582" lon="-0.45036">
        <ele>19</ele>
        <time>2021-08-18T10:01:25Z</time>
      </trkpt>
      <trkpt lat="49.27576" lon="-0.45016">
        <ele>19</ele>
        <time>2021-08-18T10:01:27Z</time>
      </trkpt>
      <trkpt lat="49.27574" lon="-0.45005">
        <ele>18.9</ele>
        <time>2021-08-18T10:01:28Z</time>
      </trkpt>
      <trkpt lat="49.27572" lon="-0.44993">
        <ele>18.8</ele>
        <time>2021-08-18T10:01:29Z</time>
      </trkpt>
      <trkpt lat="49.27571" lon="-0.44982">
        <ele>18.5</ele>
        <time>2021-08-18T10:01:30Z</time>
      </trkpt>
      <trkpt lat="49.2757" lon="-0.44958">
        <ele>18</ele>
        <time>2021-08-18T10:01:32Z</time>
      </trkpt>
      <trkpt lat="49.27567" lon="-0.44931">
        <ele>17.4</ele>
        <time>2021-08-18T10:01:34Z</time>
      </trkpt>
      <trkpt lat="49.27567" lon="-0.44918">
        <ele>17.1</ele>
        <time>2021-08-18T10:01:35Z</time>
      </trkpt>
      <trkpt lat="49.27567" lon="-0.44905">
        <ele>16.9</ele>
        <time>2021-08-18T10:01:36Z</time>
      </trkpt>
      <trkpt lat="49.27565" lon="-0.44879">
        <ele>16.2</ele>
        <time>2021-08-18T10:01:38Z</time>
      </trkpt>
      <trkpt lat="49.27561" lon="-0.44853">
        <ele>15.8</ele>
        <time>2021-08-18T10:01:40Z</time>
      </trkpt>
      <trkpt lat="49.27559" lon="-0.4484">
        <ele>15.7</ele>
        <time>2021-08-18T10:01:41Z</time>
      </trkpt>
      <trkpt lat="49.27554" lon="-0.44815">
        <ele>15.7</ele>
        <time>2021-08-18T10:01:43Z</time>
      </trkpt>
      <trkpt lat="49.27552" lon="-0.44802">
        <ele>15.8</ele>
        <time>2021-08-18T10:01:44Z</time>
      </trkpt>
      <trkpt lat="49.2755" lon="-0.44777">
        <ele>16.2</ele>
        <time>2021-08-18T10:01:46Z</time>
      </trkpt>
      <trkpt lat="49.27548" lon="-0.44754">
        <ele>16.8</ele>
        <time>2021-08-18T10:01:48Z</time>
      </trkpt>
      <trkpt lat="49.27546" lon="-0.44743">
        <ele>17.2</ele>
        <time>2021-08-18T10:01:49Z</time>
      </trkpt>
      <trkpt lat="49.27544" lon="-0.44733">
        <ele>17.5</ele>
        <time>2021-08-18T10:01:50Z</time>
      </trkpt>
      <trkpt lat="49.27536" lon="-0.4472">
        <ele>18.3</ele>
        <time>2021-08-18T10:01:52Z</time>
      </trkpt>
      <trkpt lat="49.27531" lon="-0.44717">
        <ele>18.6</ele>
        <time>2021-08-18T10:01:53Z</time>
      </trkpt>
      <trkpt lat="49.2752" lon="-0.44717">
        <ele>19.3</ele>
        <time>2021-08-18T10:01:55Z</time>
      </trkpt>
      <trkpt lat="49.27509" lon="-0.4472">
        <ele>20</ele>
        <time>2021-08-18T10:01:57Z</time>
      </trkpt>
      <trkpt lat="49.27504" lon="-0.44721">
        <ele>20.4</ele>
        <time>2021-08-18T10:01:58Z</time>
      </trkpt>
      <trkpt lat="49.27493" lon="-0.44723">
        <ele>21.1</ele>
        <time>2021-08-18T10:02:00Z</time>
      </trkpt>
      <trkpt lat="49.27482" lon="-0.44725">
        <ele>21.8</ele>
        <time>2021-08-18T10:02:02Z</time>
      </trkpt>
      <trkpt lat="49.27472" lon="-0.44726">
        <ele>22.5</ele>
        <time>2021-08-18T10:02:04Z</time>
      </trkpt>
      <trkpt lat="49.27461" lon="-0.44726">
        <ele>23.2</ele>
        <time>2021-08-18T10:02:06Z</time>
      </trkpt>
      <trkpt lat="49.27456" lon="-0.44726">
        <ele>23.5</ele>
        <time>2021-08-18T10:02:07Z</time>
      </trkpt>
      <trkpt lat="49.27447" lon="-0.44725">
        <ele>24.1</ele>
        <time>2021-08-18T10:02:09Z</time>
      </trkpt>
      <trkpt lat="49.27442" lon="-0.44724">
        <ele>24.4</ele>
        <time>2021-08-18T10:02:10Z</time>
      </trkpt>
      <trkpt lat="49.27437" lon="-0.44722">
        <ele>24.8</ele>
        <time>2021-08-18T10:02:11Z</time>
      </trkpt>
      <trkpt lat="49.27432" lon="-0.4472">
        <ele>25</ele>
        <time>2021-08-18T10:02:12Z</time>
      </trkpt>
      <trkpt lat="49.27422" lon="-0.44714">
        <ele>25.3</ele>
        <time>2021-08-18T10:02:14Z</time>
      </trkpt>
      <trkpt lat="49.27419" lon="-0.44711">
        <ele>25.3</ele>
        <time>2021-08-18T10:02:15Z</time>
      </trkpt>
      <trkpt lat="49.27409" lon="-0.44706">
        <ele>25.2</ele>
        <time>2021-08-18T10:02:17Z</time>
      </trkpt>
      <trkpt lat="49.27398" lon="-0.44699">
        <ele>24.9</ele>
        <time>2021-08-18T10:02:19Z</time>
      </trkpt>
      <trkpt lat="49.27392" lon="-0.44695">
        <ele>24.7</ele>
        <time>2021-08-18T10:02:20Z</time>
      </trkpt>
      <trkpt lat="49.27387" lon="-0.44692">
        <ele>24.6</ele>
        <time>2021-08-18T10:02:21Z</time>
      </trkpt>
      <trkpt lat="49.27375" lon="-0.44689">
        <ele>24.2</ele>
        <time>2021-08-18T10:02:23Z</time>
      </trkpt>
      <trkpt lat="49.27369" lon="-0.44686">
        <ele>24</ele>
        <time>2021-08-18T10:02:24Z</time>
      </trkpt>
      <trkpt lat="49.27355" lon="-0.4468">
        <ele>23.4</ele>
        <time>2021-08-18T10:02:26Z</time>
      </trkpt>
      <trkpt lat="49.27347" lon="-0.44676">
        <ele>22.9</ele>
        <time>2021-08-18T10:02:27Z</time>
      </trkpt>
      <trkpt lat="49.27337" lon="-0.44672">
        <ele>22.3</ele>
        <time>2021-08-18T10:02:28Z</time>
      </trkpt>
      <trkpt lat="49.27316" lon="-0.44661">
        <ele>21</ele>
        <time>2021-08-18T10:02:30Z</time>
      </trkpt>
      <trkpt lat="49.2731" lon="-0.44648">
        <ele>20.3</ele>
        <time>2021-08-18T10:02:31Z</time>
      </trkpt>
      <trkpt lat="49.27308" lon="-0.44633">
        <ele>19.7</ele>
        <time>2021-08-18T10:02:32Z</time>
      </trkpt>
      <trkpt lat="49.27303" lon="-0.44599">
        <ele>18.7</ele>
        <time>2021-08-18T10:02:34Z</time>
      </trkpt>
      <trkpt lat="49.27301" lon="-0.44582">
        <ele>18.4</ele>
        <time>2021-08-18T10:02:35Z</time>
      </trkpt>
      <trkpt lat="49.27297" lon="-0.44549">
        <ele>18.2</ele>
        <time>2021-08-18T10:02:37Z</time>
      </trkpt>
      <trkpt lat="49.27294" lon="-0.44532">
        <ele>18.2</ele>
        <time>2021-08-18T10:02:38Z</time>
      </trkpt>
      <trkpt lat="49.27289" lon="-0.44501">
        <ele>18.3</ele>
        <time>2021-08-18T10:02:40Z</time>
      </trkpt>
      <trkpt lat="49.27284" lon="-0.44472">
        <ele>18.5</ele>
        <time>2021-08-18T10:02:42Z</time>
      </trkpt>
      <trkpt lat="49.27275" lon="-0.44448">
        <ele>18.6</ele>
        <time>2021-08-18T10:02:44Z</time>
      </trkpt>
      <trkpt lat="49.27265" lon="-0.44425">
        <ele>18.6</ele>
        <time>2021-08-18T10:02:46Z</time>
      </trkpt>
      <trkpt lat="49.27258" lon="-0.44414">
        <ele>18.6</ele>
        <time>2021-08-18T10:02:47Z</time>
      </trkpt>
      <trkpt lat="49.27247" lon="-0.44394">
        <ele>18.7</ele>
        <time>2021-08-18T10:02:49Z</time>
      </trkpt>
      <trkpt lat="49.2724" lon="-0.44384">
        <ele>18.7</ele>
        <time>2021-08-18T10:02:50Z</time>
      </trkpt>
      <trkpt lat="49.27233" lon="-0.44374">
        <ele>18.8</ele>
        <time>2021-08-18T10:02:51Z</time>
      </trkpt>
      <trkpt lat="49.2722" lon="-0.44359">
        <ele>19</ele>
        <time>2021-08-18T10:02:53Z</time>
      </trkpt>
      <trkpt lat="49.27214" lon="-0.44351">
        <ele>19.1</ele>
        <time>2021-08-18T10:02:54Z</time>
      </trkpt>
      <trkpt lat="49.27203" lon="-0.44335">
        <ele>19.3</ele>
        <time>2021-08-18T10:02:56Z</time>
      </trkpt>
      <trkpt lat="49.27199" lon="-0.44325">
        <ele>19.4</ele>
        <time>2021-08-18T10:02:57Z</time>
      </trkpt>
      <trkpt lat="49.27195" lon="-0.44313">
        <ele>19.5</ele>
        <time>2021-08-18T10:02:58Z</time>
      </trkpt>
      <trkpt lat="49.27189" lon="-0.44291">
        <ele>19.8</ele>
        <time>2021-08-18T10:03:00Z</time>
      </trkpt>
      <trkpt lat="49.27185" lon="-0.44269">
        <ele>20.3</ele>
        <time>2021-08-18T10:03:02Z</time>
      </trkpt>
      <trkpt lat="49.27184" lon="-0.44258">
        <ele>20.5</ele>
        <time>2021-08-18T10:03:03Z</time>
      </trkpt>
      <trkpt lat="49.27182" lon="-0.44238">
        <ele>20.8</ele>
        <time>2021-08-18T10:03:05Z</time>
      </trkpt>
      <trkpt lat="49.2718" lon="-0.44216">
        <ele>21.1</ele>
        <time>2021-08-18T10:03:07Z</time>
      </trkpt>
      <trkpt lat="49.27178" lon="-0.44195">
        <ele>21.2</ele>
        <time>2021-08-18T10:03:09Z</time>
      </trkpt>
      <trkpt lat="49.27175" lon="-0.44172">
        <ele>21.3</ele>
        <time>2021-08-18T10:03:11Z</time>
      </trkpt>
      <trkpt lat="49.27174" lon="-0.44161">
        <ele>21.3</ele>
        <time>2021-08-18T10:03:12Z</time>
      </trkpt>
      <trkpt lat="49.27172" lon="-0.44149">
        <ele>21.3</ele>
        <time>2021-08-18T10:03:13Z</time>
      </trkpt>
      <trkpt lat="49.2717" lon="-0.44138">
        <ele>21.3</ele>
        <time>2021-08-18T10:03:14Z</time>
      </trkpt>
      <trkpt lat="49.27167" lon="-0.44114">
        <ele>21.4</ele>
        <time>2021-08-18T10:03:16Z</time>
      </trkpt>
      <trkpt lat="49.27162" lon="-0.44091">
        <ele>21.5</ele>
        <time>2021-08-18T10:03:18Z</time>
      </trkpt>
      <trkpt lat="49.27155" lon="-0.4407">
        <ele>21.8</ele>
        <time>2021-08-18T10:03:20Z</time>
      </trkpt>
      <trkpt lat="49.27146" lon="-0.44054">
        <ele>22.1</ele>
        <time>2021-08-18T10:03:22Z</time>
      </trkpt>
      <trkpt lat="49.27138" lon="-0.44041">
        <ele>22.6</ele>
        <time>2021-08-18T10:03:24Z</time>
      </trkpt>
      <trkpt lat="49.27135" lon="-0.44035">
        <ele>22.8</ele>
        <time>2021-08-18T10:03:25Z</time>
      </trkpt>
      <trkpt lat="49.2713" lon="-0.44031">
        <ele>23</ele>
        <time>2021-08-18T10:03:26Z</time>
      </trkpt>
      <trkpt lat="49.2712" lon="-0.44021">
        <ele>23.4</ele>
        <time>2021-08-18T10:03:28Z</time>
      </trkpt>
      <trkpt lat="49.27114" lon="-0.44016">
        <ele>23.7</ele>
        <time>2021-08-18T10:03:29Z</time>
      </trkpt>
      <trkpt lat="49.27108" lon="-0.44012">
        <ele>23.9</ele>
        <time>2021-08-18T10:03:30Z</time>
      </trkpt>
      <trkpt lat="49.27097" lon="-0.44006">
        <ele>24.4</ele>
        <time>2021-08-18T10:03:32Z</time>
      </trkpt>
      <trkpt lat="49.27087" lon="-0.43999">
        <ele>24.7</ele>
        <time>2021-08-18T10:03:34Z</time>
      </trkpt>
      <trkpt lat="49.27077" lon="-0.43994">
        <ele>25</ele>
        <time>2021-08-18T10:03:36Z</time>
      </trkpt>
      <trkpt lat="49.27072" lon="-0.43991">
        <ele>25.1</ele>
        <time>2021-08-18T10:03:37Z</time>
      </trkpt>
      <trkpt lat="49.27063" lon="-0.43984">
        <ele>25.3</ele>
        <time>2021-08-18T10:03:39Z</time>
      </trkpt>
      <trkpt lat="49.27058" lon="-0.43979">
        <ele>25.4</ele>
        <time>2021-08-18T10:03:40Z</time>
      </trkpt>
      <trkpt lat="49.27053" lon="-0.43974">
        <ele>25.5</ele>
        <time>2021-08-18T10:03:41Z</time>
      </trkpt>
      <trkpt lat="49.27044" lon="-0.43961">
        <ele>25.8</ele>
        <time>2021-08-18T10:03:43Z</time>
      </trkpt>
      <trkpt lat="49.27035" lon="-0.43948">
        <ele>26.2</ele>
        <time>2021-08-18T10:03:45Z</time>
      </trkpt>
      <trkpt lat="49.27026" lon="-0.43934">
        <ele>26.6</ele>
        <time>2021-08-18T10:03:47Z</time>
      </trkpt>
      <trkpt lat="49.27022" lon="-0.43926">
        <ele>26.9</ele>
        <time>2021-08-18T10:03:48Z</time>
      </trkpt>
      <trkpt lat="49.27015" lon="-0.43913">
        <ele>27.3</ele>
        <time>2021-08-18T10:03:50Z</time>
      </trkpt>
      <trkpt lat="49.27007" lon="-0.43902">
        <ele>27.8</ele>
        <time>2021-08-18T10:03:52Z</time>
      </trkpt>
      <trkpt lat="49.27001" lon="-0.43893">
        <ele>28.3</ele>
        <time>2021-08-18T10:03:54Z</time>
      </trkpt>
      <trkpt lat="49.26993" lon="-0.43882">
        <ele>28.9</ele>
        <time>2021-08-18T10:03:56Z</time>
      </trkpt>
      <trkpt lat="49.26985" lon="-0.43875">
        <ele>29.4</ele>
        <time>2021-08-18T10:03:58Z</time>
      </trkpt>
      <trkpt lat="49.26976" lon="-0.43865">
        <ele>30</ele>
        <time>2021-08-18T10:04:00Z</time>
      </trkpt>
      <trkpt lat="49.26968" lon="-0.43856">
        <ele>30.5</ele>
        <time>2021-08-18T10:04:02Z</time>
      </trkpt>
      <trkpt lat="49.2696" lon="-0.43846">
        <ele>31.1</ele>
        <time>2021-08-18T10:04:04Z</time>
      </trkpt>
      <trkpt lat="49.26955" lon="-0.43841">
        <ele>31.5</ele>
        <time>2021-08-18T10:04:05Z</time>
      </trkpt>
      <trkpt lat="49.26945" lon="-0.43829">
        <ele>32.4</ele>
        <time>2021-08-18T10:04:07Z</time>
      </trkpt>
      <trkpt lat="49.2694" lon="-0.43823">
        <ele>32.8</ele>
        <time>2021-08-18T10:04:08Z</time>
      </trkpt>
      <trkpt lat="49.26934" lon="-0.43813">
        <ele>33.5</ele>
        <time>2021-08-18T10:04:10Z</time>
      </trkpt>
      <trkpt lat="49.26931" lon="-0.43808">
        <ele>33.8</ele>
        <time>2021-08-18T10:04:11Z</time>
      </trkpt>
      <trkpt lat="49.26926" lon="-0.43797">
        <ele>34.5</ele>
        <time>2021-08-18T10:04:13Z</time>
      </trkpt>
      <trkpt lat="49.26923" lon="-0.43791">
        <ele>34.8</ele>
        <time>2021-08-18T10:04:14Z</time>
      </trkpt>
      <trkpt lat="49.26922" lon="-0.43789">
        <ele>35</ele>
        <time>2021-08-18T10:04:15Z</time>
      </trkpt>
      <trkpt lat="49.2692" lon="-0.43781">
        <ele>35.4</ele>
        <time>2021-08-18T10:04:17Z</time>
      </trkpt>
      <trkpt lat="49.26918" lon="-0.43777">
        <ele>35.6</ele>
        <time>2021-08-18T10:04:18Z</time>
      </trkpt>
      <trkpt lat="49.26916" lon="-0.4377">
        <ele>36.1</ele>
        <time>2021-08-18T10:04:20Z</time>
      </trkpt>
      <trkpt lat="49.26912" lon="-0.4376">
        <ele>36.6</ele>
        <time>2021-08-18T10:04:22Z</time>
      </trkpt>
      <trkpt lat="49.26912" lon="-0.4376">
        <ele>36.6</ele>
        <time>2021-08-18T10:04:23Z</time>
      </trkpt>
      <trkpt lat="49.2691" lon="-0.43756">
        <ele>36.8</ele>
        <time>2021-08-18T10:04:25Z</time>
      </trkpt>
      <trkpt lat="49.26904" lon="-0.43746">
        <ele>37.4</ele>
        <time>2021-08-18T10:04:27Z</time>
      </trkpt>
      <trkpt lat="49.269" lon="-0.4374">
        <ele>37.8</ele>
        <time>2021-08-18T10:04:28Z</time>
      </trkpt>
      <trkpt lat="49.26893" lon="-0.43729">
        <ele>38.4</ele>
        <time>2021-08-18T10:04:30Z</time>
      </trkpt>
      <trkpt lat="49.26891" lon="-0.43726">
        <ele>38.6</ele>
        <time>2021-08-18T10:04:31Z</time>
      </trkpt>
      <trkpt lat="49.26886" lon="-0.43718">
        <ele>39.1</ele>
        <time>2021-08-18T10:04:33Z</time>
      </trkpt>
      <trkpt lat="49.2688" lon="-0.43709">
        <ele>39.5</ele>
        <time>2021-08-18T10:04:35Z</time>
      </trkpt>
      <trkpt lat="49.26876" lon="-0.43705">
        <ele>39.8</ele>
        <time>2021-08-18T10:04:36Z</time>
      </trkpt>
      <trkpt lat="49.2687" lon="-0.43699">
        <ele>40.2</ele>
        <time>2021-08-18T10:04:38Z</time>
      </trkpt>
      <trkpt lat="49.26868" lon="-0.43696">
        <ele>40.3</ele>
        <time>2021-08-18T10:04:39Z</time>
      </trkpt>
      <trkpt lat="49.26863" lon="-0.43687">
        <ele>40.8</ele>
        <time>2021-08-18T10:04:41Z</time>
      </trkpt>
      <trkpt lat="49.26861" lon="-0.43679">
        <ele>41</ele>
        <time>2021-08-18T10:04:43Z</time>
      </trkpt>
      <trkpt lat="49.26861" lon="-0.43674">
        <ele>41.4</ele>
        <time>2021-08-18T10:04:44Z</time>
      </trkpt>
      <trkpt lat="49.26861" lon="-0.43669">
        <ele>41.4</ele>
        <time>2021-08-18T10:04:45Z</time>
      </trkpt>
      <trkpt lat="49.26865" lon="-0.43661">
        <ele>41.4</ele>
        <time>2021-08-18T10:04:47Z</time>
      </trkpt>
      <trkpt lat="49.26872" lon="-0.43656">
        <ele>41.4</ele>
        <time>2021-08-18T10:04:49Z</time>
      </trkpt>
      <trkpt lat="49.26879" lon="-0.4365">
        <ele>41.5</ele>
        <time>2021-08-18T10:04:51Z</time>
      </trkpt>
      <trkpt lat="49.26882" lon="-0.43647">
        <ele>41.5</ele>
        <time>2021-08-18T10:04:52Z</time>
      </trkpt>
      <trkpt lat="49.26892" lon="-0.43639">
        <ele>41.5</ele>
        <time>2021-08-18T10:04:54Z</time>
      </trkpt>
      <trkpt lat="49.269" lon="-0.43633">
        <ele>41.6</ele>
        <time>2021-08-18T10:04:56Z</time>
      </trkpt>
      <trkpt lat="49.26909" lon="-0.43625">
        <ele>41.6</ele>
        <time>2021-08-18T10:04:58Z</time>
      </trkpt>
      <trkpt lat="49.26913" lon="-0.43622">
        <ele>41.7</ele>
        <time>2021-08-18T10:04:59Z</time>
      </trkpt>
      <trkpt lat="49.26923" lon="-0.43611">
        <ele>41.8</ele>
        <time>2021-08-18T10:05:01Z</time>
      </trkpt>
      <trkpt lat="49.26933" lon="-0.43604">
        <ele>41.9</ele>
        <time>2021-08-18T10:05:03Z</time>
      </trkpt>
      <trkpt lat="49.26938" lon="-0.43599">
        <ele>41.9</ele>
        <time>2021-08-18T10:05:04Z</time>
      </trkpt>
      <trkpt lat="49.26949" lon="-0.43588">
        <ele>42</ele>
        <time>2021-08-18T10:05:06Z</time>
      </trkpt>
      <trkpt lat="49.26959" lon="-0.43575">
        <ele>42.1</ele>
        <time>2021-08-18T10:05:08Z</time>
      </trkpt>
      <trkpt lat="49.26963" lon="-0.43569">
        <ele>42.2</ele>
        <time>2021-08-18T10:05:09Z</time>
      </trkpt>
      <trkpt lat="49.26968" lon="-0.43564">
        <ele>42.2</ele>
        <time>2021-08-18T10:05:10Z</time>
      </trkpt>
      <trkpt lat="49.26979" lon="-0.43553">
        <ele>42.3</ele>
        <time>2021-08-18T10:05:12Z</time>
      </trkpt>
      <trkpt lat="49.2699" lon="-0.43543">
        <ele>42.5</ele>
        <time>2021-08-18T10:05:14Z</time>
      </trkpt>
      <trkpt lat="49.26996" lon="-0.43538">
        <ele>42.5</ele>
        <time>2021-08-18T10:05:15Z</time>
      </trkpt>
      <trkpt lat="49.27002" lon="-0.43533">
        <ele>42.6</ele>
        <time>2021-08-18T10:05:16Z</time>
      </trkpt>
      <trkpt lat="49.27013" lon="-0.43523">
        <ele>42.7</ele>
        <time>2021-08-18T10:05:18Z</time>
      </trkpt>
      <trkpt lat="49.27025" lon="-0.43512">
        <ele>42.8</ele>
        <time>2021-08-18T10:05:20Z</time>
      </trkpt>
      <trkpt lat="49.27038" lon="-0.43502">
        <ele>42.9</ele>
        <time>2021-08-18T10:05:22Z</time>
      </trkpt>
      <trkpt lat="49.27044" lon="-0.43497">
        <ele>42.9</ele>
        <time>2021-08-18T10:05:23Z</time>
      </trkpt>
      <trkpt lat="49.27056" lon="-0.43487">
        <ele>43</ele>
        <time>2021-08-18T10:05:25Z</time>
      </trkpt>
      <trkpt lat="49.27069" lon="-0.43476">
        <ele>43.2</ele>
        <time>2021-08-18T10:05:27Z</time>
      </trkpt>
      <trkpt lat="49.27081" lon="-0.43466">
        <ele>43.3</ele>
        <time>2021-08-18T10:05:29Z</time>
      </trkpt>
      <trkpt lat="49.27093" lon="-0.43455">
        <ele>43.5</ele>
        <time>2021-08-18T10:05:31Z</time>
      </trkpt>
      <trkpt lat="49.27099" lon="-0.43449">
        <ele>43.6</ele>
        <time>2021-08-18T10:05:32Z</time>
      </trkpt>
      <trkpt lat="49.27112" lon="-0.43439">
        <ele>43.8</ele>
        <time>2021-08-18T10:05:34Z</time>
      </trkpt>
      <trkpt lat="49.27118" lon="-0.43433">
        <ele>43.8</ele>
        <time>2021-08-18T10:05:35Z</time>
      </trkpt>
      <trkpt lat="49.27131" lon="-0.43423">
        <ele>44</ele>
        <time>2021-08-18T10:05:37Z</time>
      </trkpt>
      <trkpt lat="49.27143" lon="-0.43413">
        <ele>44.2</ele>
        <time>2021-08-18T10:05:39Z</time>
      </trkpt>
      <trkpt lat="49.27155" lon="-0.43402">
        <ele>44.4</ele>
        <time>2021-08-18T10:05:41Z</time>
      </trkpt>
      <trkpt lat="49.27161" lon="-0.43396">
        <ele>44.5</ele>
        <time>2021-08-18T10:05:42Z</time>
      </trkpt>
      <trkpt lat="49.27167" lon="-0.4339">
        <ele>44.6</ele>
        <time>2021-08-18T10:05:43Z</time>
      </trkpt>
      <trkpt lat="49.27179" lon="-0.43379">
        <ele>44.8</ele>
        <time>2021-08-18T10:05:45Z</time>
      </trkpt>
      <trkpt lat="49.27191" lon="-0.43366">
        <ele>45</ele>
        <time>2021-08-18T10:05:47Z</time>
      </trkpt>
      <trkpt lat="49.27196" lon="-0.43359">
        <ele>45</ele>
        <time>2021-08-18T10:05:48Z</time>
      </trkpt>
      <trkpt lat="49.27205" lon="-0.43343">
        <ele>45.2</ele>
        <time>2021-08-18T10:05:50Z</time>
      </trkpt>
      <trkpt lat="49.27209" lon="-0.43335">
        <ele>45.3</ele>
        <time>2021-08-18T10:05:51Z</time>
      </trkpt>
      <trkpt lat="49.27213" lon="-0.43327">
        <ele>45.3</ele>
        <time>2021-08-18T10:05:52Z</time>
      </trkpt>
      <trkpt lat="49.27217" lon="-0.43318">
        <ele>45.4</ele>
        <time>2021-08-18T10:05:53Z</time>
      </trkpt>
      <trkpt lat="49.27224" lon="-0.433">
        <ele>45.5</ele>
        <time>2021-08-18T10:05:55Z</time>
      </trkpt>
      <trkpt lat="49.27232" lon="-0.43283">
        <ele>45.6</ele>
        <time>2021-08-18T10:05:57Z</time>
      </trkpt>
      <trkpt lat="49.27236" lon="-0.43274">
        <ele>45.7</ele>
        <time>2021-08-18T10:05:58Z</time>
      </trkpt>
      <trkpt lat="49.2724" lon="-0.43265">
        <ele>45.8</ele>
        <time>2021-08-18T10:05:59Z</time>
      </trkpt>
      <trkpt lat="49.27248" lon="-0.43246">
        <ele>45.9</ele>
        <time>2021-08-18T10:06:01Z</time>
      </trkpt>
      <trkpt lat="49.27256" lon="-0.43227">
        <ele>46</ele>
        <time>2021-08-18T10:06:03Z</time>
      </trkpt>
      <trkpt lat="49.2726" lon="-0.43218">
        <ele>46</ele>
        <time>2021-08-18T10:06:04Z</time>
      </trkpt>
      <trkpt lat="49.27269" lon="-0.43199">
        <ele>46.1</ele>
        <time>2021-08-18T10:06:06Z</time>
      </trkpt>
      <trkpt lat="49.27273" lon="-0.43189">
        <ele>46.2</ele>
        <time>2021-08-18T10:06:07Z</time>
      </trkpt>
      <trkpt lat="49.27277" lon="-0.4318">
        <ele>46.2</ele>
        <time>2021-08-18T10:06:08Z</time>
      </trkpt>
      <trkpt lat="49.27285" lon="-0.43161">
        <ele>46.4</ele>
        <time>2021-08-18T10:06:10Z</time>
      </trkpt>
      <trkpt lat="49.27294" lon="-0.43142">
        <ele>46.5</ele>
        <time>2021-08-18T10:06:12Z</time>
      </trkpt>
      <trkpt lat="49.27299" lon="-0.43134">
        <ele>46.6</ele>
        <time>2021-08-18T10:06:13Z</time>
      </trkpt>
      <trkpt lat="49.27304" lon="-0.43125">
        <ele>46.7</ele>
        <time>2021-08-18T10:06:14Z</time>
      </trkpt>
      <trkpt lat="49.27309" lon="-0.43117">
        <ele>46.8</ele>
        <time>2021-08-18T10:06:15Z</time>
      </trkpt>
      <trkpt lat="49.27319" lon="-0.43102">
        <ele>47</ele>
        <time>2021-08-18T10:06:17Z</time>
      </trkpt>
      <trkpt lat="49.2733" lon="-0.43087">
        <ele>47.1</ele>
        <time>2021-08-18T10:06:19Z</time>
      </trkpt>
      <trkpt lat="49.27336" lon="-0.4308">
        <ele>47.2</ele>
        <time>2021-08-18T10:06:20Z</time>
      </trkpt>
      <trkpt lat="49.27341" lon="-0.43073">
        <ele>47.3</ele>
        <time>2021-08-18T10:06:21Z</time>
      </trkpt>
      <trkpt lat="49.27347" lon="-0.43066">
        <ele>47.5</ele>
        <time>2021-08-18T10:06:22Z</time>
      </trkpt>
      <trkpt lat="49.27357" lon="-0.43052">
        <ele>47.8</ele>
        <time>2021-08-18T10:06:24Z</time>
      </trkpt>
      <trkpt lat="49.27367" lon="-0.43037">
        <ele>48</ele>
        <time>2021-08-18T10:06:26Z</time>
      </trkpt>
      <trkpt lat="49.27378" lon="-0.43023">
        <ele>48.4</ele>
        <time>2021-08-18T10:06:28Z</time>
      </trkpt>
      <trkpt lat="49.27389" lon="-0.4301">
        <ele>48.8</ele>
        <time>2021-08-18T10:06:30Z</time>
      </trkpt>
      <trkpt lat="49.274" lon="-0.42997">
        <ele>49.1</ele>
        <time>2021-08-18T10:06:32Z</time>
      </trkpt>
      <trkpt lat="49.27405" lon="-0.4299">
        <ele>49.3</ele>
        <time>2021-08-18T10:06:33Z</time>
      </trkpt>
      <trkpt lat="49.2741" lon="-0.42983">
        <ele>49.5</ele>
        <time>2021-08-18T10:06:34Z</time>
      </trkpt>
      <trkpt lat="49.2742" lon="-0.4297">
        <ele>49.9</ele>
        <time>2021-08-18T10:06:36Z</time>
      </trkpt>
      <trkpt lat="49.27425" lon="-0.42964">
        <ele>50</ele>
        <time>2021-08-18T10:06:37Z</time>
      </trkpt>
      <trkpt lat="49.27435" lon="-0.42951">
        <ele>50.4</ele>
        <time>2021-08-18T10:06:39Z</time>
      </trkpt>
      <trkpt lat="49.27445" lon="-0.42939">
        <ele>50.8</ele>
        <time>2021-08-18T10:06:41Z</time>
      </trkpt>
      <trkpt lat="49.2745" lon="-0.42933">
        <ele>51</ele>
        <time>2021-08-18T10:06:42Z</time>
      </trkpt>
      <trkpt lat="49.2746" lon="-0.4292">
        <ele>51.4</ele>
        <time>2021-08-18T10:06:44Z</time>
      </trkpt>
      <trkpt lat="49.27469" lon="-0.42908">
        <ele>51.7</ele>
        <time>2021-08-18T10:06:46Z</time>
      </trkpt>
      <trkpt lat="49.27474" lon="-0.42902">
        <ele>51.9</ele>
        <time>2021-08-18T10:06:47Z</time>
      </trkpt>
      <trkpt lat="49.27479" lon="-0.42895">
        <ele>52</ele>
        <time>2021-08-18T10:06:48Z</time>
      </trkpt>
      <trkpt lat="49.27489" lon="-0.42882">
        <ele>52.3</ele>
        <time>2021-08-18T10:06:50Z</time>
      </trkpt>
      <trkpt lat="49.27499" lon="-0.4287">
        <ele>52.6</ele>
        <time>2021-08-18T10:06:52Z</time>
      </trkpt>
      <trkpt lat="49.27504" lon="-0.42863">
        <ele>52.7</ele>
        <time>2021-08-18T10:06:53Z</time>
      </trkpt>
      <trkpt lat="49.2751" lon="-0.42858">
        <ele>52.8</ele>
        <time>2021-08-18T10:06:54Z</time>
      </trkpt>
      <trkpt lat="49.27519" lon="-0.42845">
        <ele>53.1</ele>
        <time>2021-08-18T10:06:56Z</time>
      </trkpt>
      <trkpt lat="49.27529" lon="-0.42832">
        <ele>53.3</ele>
        <time>2021-08-18T10:06:58Z</time>
      </trkpt>
      <trkpt lat="49.27539" lon="-0.4282">
        <ele>53.5</ele>
        <time>2021-08-18T10:07:00Z</time>
      </trkpt>
      <trkpt lat="49.27549" lon="-0.42807">
        <ele>53.6</ele>
        <time>2021-08-18T10:07:02Z</time>
      </trkpt>
      <trkpt lat="49.27555" lon="-0.428">
        <ele>53.7</ele>
        <time>2021-08-18T10:07:03Z</time>
      </trkpt>
      <trkpt lat="49.27565" lon="-0.42786">
        <ele>53.8</ele>
        <time>2021-08-18T10:07:05Z</time>
      </trkpt>
      <trkpt lat="49.27571" lon="-0.42779">
        <ele>53.8</ele>
        <time>2021-08-18T10:07:06Z</time>
      </trkpt>
      <trkpt lat="49.27576" lon="-0.42772">
        <ele>53.9</ele>
        <time>2021-08-18T10:07:07Z</time>
      </trkpt>
      <trkpt lat="49.27588" lon="-0.42758">
        <ele>54</ele>
        <time>2021-08-18T10:07:09Z</time>
      </trkpt>
      <trkpt lat="49.27593" lon="-0.42751">
        <ele>54.1</ele>
        <time>2021-08-18T10:07:10Z</time>
      </trkpt>
      <trkpt lat="49.27599" lon="-0.42744">
        <ele>54.1</ele>
        <time>2021-08-18T10:07:11Z</time>
      </trkpt>
      <trkpt lat="49.2761" lon="-0.42731">
        <ele>54.3</ele>
        <time>2021-08-18T10:07:13Z</time>
      </trkpt>
      <trkpt lat="49.27615" lon="-0.42724">
        <ele>54.3</ele>
        <time>2021-08-18T10:07:14Z</time>
      </trkpt>
      <trkpt lat="49.27626" lon="-0.4271">
        <ele>54.5</ele>
        <time>2021-08-18T10:07:16Z</time>
      </trkpt>
      <trkpt lat="49.27631" lon="-0.42703">
        <ele>54.5</ele>
        <time>2021-08-18T10:07:17Z</time>
      </trkpt>
      <trkpt lat="49.27641" lon="-0.42688">
        <ele>54.6</ele>
        <time>2021-08-18T10:07:19Z</time>
      </trkpt>
      <trkpt lat="49.27647" lon="-0.42681">
        <ele>54.6</ele>
        <time>2021-08-18T10:07:20Z</time>
      </trkpt>
      <trkpt lat="49.27657" lon="-0.42667">
        <ele>54.6</ele>
        <time>2021-08-18T10:07:22Z</time>
      </trkpt>
      <trkpt lat="49.27665" lon="-0.42652">
        <ele>54.7</ele>
        <time>2021-08-18T10:07:24Z</time>
      </trkpt>
      <trkpt lat="49.27669" lon="-0.42644">
        <ele>54.7</ele>
        <time>2021-08-18T10:07:25Z</time>
      </trkpt>
      <trkpt lat="49.27673" lon="-0.42635">
        <ele>54.7</ele>
        <time>2021-08-18T10:07:26Z</time>
      </trkpt>
      <trkpt lat="49.27682" lon="-0.42619">
        <ele>54.8</ele>
        <time>2021-08-18T10:07:28Z</time>
      </trkpt>
      <trkpt lat="49.27686" lon="-0.4261">
        <ele>54.8</ele>
        <time>2021-08-18T10:07:29Z</time>
      </trkpt>
      <trkpt lat="49.2769" lon="-0.42602">
        <ele>54.9</ele>
        <time>2021-08-18T10:07:30Z</time>
      </trkpt>
      <trkpt lat="49.27695" lon="-0.42593">
        <ele>54.9</ele>
        <time>2021-08-18T10:07:31Z</time>
      </trkpt>
      <trkpt lat="49.27702" lon="-0.42576">
        <ele>55</ele>
        <time>2021-08-18T10:07:33Z</time>
      </trkpt>
      <trkpt lat="49.27706" lon="-0.42567">
        <ele>55</ele>
        <time>2021-08-18T10:07:34Z</time>
      </trkpt>
      <trkpt lat="49.27711" lon="-0.42549">
        <ele>55.1</ele>
        <time>2021-08-18T10:07:36Z</time>
      </trkpt>
      <trkpt lat="49.27717" lon="-0.4253">
        <ele>55.2</ele>
        <time>2021-08-18T10:07:38Z</time>
      </trkpt>
      <trkpt lat="49.27723" lon="-0.42513">
        <ele>55.3</ele>
        <time>2021-08-18T10:07:40Z</time>
      </trkpt>
      <trkpt lat="49.27734" lon="-0.42499">
        <ele>55.3</ele>
        <time>2021-08-18T10:07:42Z</time>
      </trkpt>
      <trkpt lat="49.27748" lon="-0.42492">
        <ele>55.4</ele>
        <time>2021-08-18T10:07:44Z</time>
      </trkpt>
      <trkpt lat="49.27755" lon="-0.42489">
        <ele>55.5</ele>
        <time>2021-08-18T10:07:45Z</time>
      </trkpt>
      <trkpt lat="49.27763" lon="-0.42485">
        <ele>55.6</ele>
        <time>2021-08-18T10:07:46Z</time>
      </trkpt>
      <trkpt lat="49.27776" lon="-0.42481">
        <ele>55.7</ele>
        <time>2021-08-18T10:07:48Z</time>
      </trkpt>
      <trkpt lat="49.27782" lon="-0.4248">
        <ele>55.7</ele>
        <time>2021-08-18T10:07:49Z</time>
      </trkpt>
      <trkpt lat="49.27796" lon="-0.42476">
        <ele>55.8</ele>
        <time>2021-08-18T10:07:51Z</time>
      </trkpt>
      <trkpt lat="49.27809" lon="-0.42471">
        <ele>55.9</ele>
        <time>2021-08-18T10:07:53Z</time>
      </trkpt>
      <trkpt lat="49.27818" lon="-0.42467">
        <ele>56.1</ele>
        <time>2021-08-18T10:07:55Z</time>
      </trkpt>
      <trkpt lat="49.27823" lon="-0.42464">
        <ele>56.1</ele>
        <time>2021-08-18T10:07:56Z</time>
      </trkpt>
      <trkpt lat="49.27832" lon="-0.42453">
        <ele>56.3</ele>
        <time>2021-08-18T10:07:58Z</time>
      </trkpt>
      <trkpt lat="49.27837" lon="-0.4244">
        <ele>56.4</ele>
        <time>2021-08-18T10:08:00Z</time>
      </trkpt>
      <trkpt lat="49.27842" lon="-0.42425">
        <ele>56.5</ele>
        <time>2021-08-18T10:08:02Z</time>
      </trkpt>
      <trkpt lat="49.27845" lon="-0.42418">
        <ele>56.6</ele>
        <time>2021-08-18T10:08:03Z</time>
      </trkpt>
      <trkpt lat="49.27848" lon="-0.42409">
        <ele>56.6</ele>
        <time>2021-08-18T10:08:04Z</time>
      </trkpt>
      <trkpt lat="49.27851" lon="-0.42403">
        <ele>56.7</ele>
        <time>2021-08-18T10:08:05Z</time>
      </trkpt>
      <trkpt lat="49.27857" lon="-0.4239">
        <ele>56.8</ele>
        <time>2021-08-18T10:08:07Z</time>
      </trkpt>
      <trkpt lat="49.27864" lon="-0.42378">
        <ele>56.9</ele>
        <time>2021-08-18T10:08:09Z</time>
      </trkpt>
      <trkpt lat="49.27869" lon="-0.42373">
        <ele>57</ele>
        <time>2021-08-18T10:08:10Z</time>
      </trkpt>
      <trkpt lat="49.27877" lon="-0.42369">
        <ele>57.2</ele>
        <time>2021-08-18T10:08:12Z</time>
      </trkpt>
      <trkpt lat="49.27887" lon="-0.42375">
        <ele>57.2</ele>
        <time>2021-08-18T10:08:14Z</time>
      </trkpt>
      <trkpt lat="49.27898" lon="-0.42382">
        <ele>57.2</ele>
        <time>2021-08-18T10:08:16Z</time>
      </trkpt>
      <trkpt lat="49.27903" lon="-0.42387">
        <ele>57.2</ele>
        <time>2021-08-18T10:08:17Z</time>
      </trkpt>
      <trkpt lat="49.27914" lon="-0.42396">
        <ele>57.2</ele>
        <time>2021-08-18T10:08:19Z</time>
      </trkpt>
      <trkpt lat="49.27924" lon="-0.42404">
        <ele>57.3</ele>
        <time>2021-08-18T10:08:21Z</time>
      </trkpt>
      <trkpt lat="49.27929" lon="-0.42407">
        <ele>57.3</ele>
        <time>2021-08-18T10:08:22Z</time>
      </trkpt>
      <trkpt lat="49.27934" lon="-0.42411">
        <ele>57.3</ele>
        <time>2021-08-18T10:08:23Z</time>
      </trkpt>
      <trkpt lat="49.27939" lon="-0.42415">
        <ele>57.3</ele>
        <time>2021-08-18T10:08:24Z</time>
      </trkpt>
      <trkpt lat="49.2795" lon="-0.42423">
        <ele>57.3</ele>
        <time>2021-08-18T10:08:26Z</time>
      </trkpt>
      <trkpt lat="49.27955" lon="-0.42428">
        <ele>57.3</ele>
        <time>2021-08-18T10:08:27Z</time>
      </trkpt>
      <trkpt lat="49.2796" lon="-0.4243">
        <ele>57.3</ele>
        <time>2021-08-18T10:08:28Z</time>
      </trkpt>
      <trkpt lat="49.27966" lon="-0.42429">
        <ele>57.3</ele>
        <time>2021-08-18T10:08:29Z</time>
      </trkpt>
      <trkpt lat="49.27978" lon="-0.42422">
        <ele>57.3</ele>
        <time>2021-08-18T10:08:31Z</time>
      </trkpt>
      <trkpt lat="49.27991" lon="-0.42416">
        <ele>57.3</ele>
        <time>2021-08-18T10:08:33Z</time>
      </trkpt>
      <trkpt lat="49.28004" lon="-0.42409">
        <ele>57.3</ele>
        <time>2021-08-18T10:08:35Z</time>
      </trkpt>
      <trkpt lat="49.28016" lon="-0.42402">
        <ele>57.3</ele>
        <time>2021-08-18T10:08:37Z</time>
      </trkpt>
      <trkpt lat="49.28029" lon="-0.42398">
        <ele>57.3</ele>
        <time>2021-08-18T10:08:39Z</time>
      </trkpt>
      <trkpt lat="49.2804" lon="-0.42394">
        <ele>57.4</ele>
        <time>2021-08-18T10:08:41Z</time>
      </trkpt>
      <trkpt lat="49.28044" lon="-0.4239">
        <ele>57.4</ele>
        <time>2021-08-18T10:08:42Z</time>
      </trkpt>
      <trkpt lat="49.28043" lon="-0.42374">
        <ele>57.4</ele>
        <time>2021-08-18T10:08:44Z</time>
      </trkpt>
      <trkpt lat="49.28041" lon="-0.42365">
        <ele>57.4</ele>
        <time>2021-08-18T10:08:45Z</time>
      </trkpt>
      <trkpt lat="49.28036" lon="-0.42347">
        <ele>57.4</ele>
        <time>2021-08-18T10:08:47Z</time>
      </trkpt>
      <trkpt lat="49.28034" lon="-0.42337">
        <ele>57.4</ele>
        <time>2021-08-18T10:08:48Z</time>
      </trkpt>
      <trkpt lat="49.28029" lon="-0.42318">
        <ele>57.5</ele>
        <time>2021-08-18T10:08:50Z</time>
      </trkpt>
      <trkpt lat="49.28024" lon="-0.42297">
        <ele>57.6</ele>
        <time>2021-08-18T10:08:52Z</time>
      </trkpt>
      <trkpt lat="49.28023" lon="-0.42286">
        <ele>57.7</ele>
        <time>2021-08-18T10:08:53Z</time>
      </trkpt>
      <trkpt lat="49.28024" lon="-0.42276">
        <ele>57.6</ele>
        <time>2021-08-18T10:08:54Z</time>
      </trkpt>
      <trkpt lat="49.28026" lon="-0.42255">
        <ele>57.5</ele>
        <time>2021-08-18T10:08:56Z</time>
      </trkpt>
      <trkpt lat="49.28029" lon="-0.42244">
        <ele>57.5</ele>
        <time>2021-08-18T10:08:57Z</time>
      </trkpt>
      <trkpt lat="49.28031" lon="-0.42233">
        <ele>57.5</ele>
        <time>2021-08-18T10:08:58Z</time>
      </trkpt>
      <trkpt lat="49.28039" lon="-0.42212">
        <ele>57.5</ele>
        <time>2021-08-18T10:09:00Z</time>
      </trkpt>
      <trkpt lat="49.28044" lon="-0.42202">
        <ele>57.5</ele>
        <time>2021-08-18T10:09:01Z</time>
      </trkpt>
      <trkpt lat="49.28051" lon="-0.42182">
        <ele>57.5</ele>
        <time>2021-08-18T10:09:03Z</time>
      </trkpt>
      <trkpt lat="49.28056" lon="-0.42161">
        <ele>57.5</ele>
        <time>2021-08-18T10:09:05Z</time>
      </trkpt>
      <trkpt lat="49.28062" lon="-0.42141">
        <ele>57.5</ele>
        <time>2021-08-18T10:09:07Z</time>
      </trkpt>
      <trkpt lat="49.28067" lon="-0.4212">
        <ele>57.4</ele>
        <time>2021-08-18T10:09:09Z</time>
      </trkpt>
      <trkpt lat="49.2807" lon="-0.42109">
        <ele>57.4</ele>
        <time>2021-08-18T10:09:10Z</time>
      </trkpt>
      <trkpt lat="49.28073" lon="-0.42099">
        <ele>57.4</ele>
        <time>2021-08-18T10:09:11Z</time>
      </trkpt>
      <trkpt lat="49.28079" lon="-0.42077">
        <ele>57.6</ele>
        <time>2021-08-18T10:09:13Z</time>
      </trkpt>
      <trkpt lat="49.28086" lon="-0.42055">
        <ele>57.5</ele>
        <time>2021-08-18T10:09:15Z</time>
      </trkpt>
      <trkpt lat="49.28089" lon="-0.42043">
        <ele>57.4</ele>
        <time>2021-08-18T10:09:16Z</time>
      </trkpt>
      <trkpt lat="49.28095" lon="-0.42021">
        <ele>57.3</ele>
        <time>2021-08-18T10:09:18Z</time>
      </trkpt>
      <trkpt lat="49.28098" lon="-0.42009">
        <ele>57.3</ele>
        <time>2021-08-18T10:09:19Z</time>
      </trkpt>
      <trkpt lat="49.28105" lon="-0.41984">
        <ele>57.2</ele>
        <time>2021-08-18T10:09:21Z</time>
      </trkpt>
      <trkpt lat="49.28109" lon="-0.41971">
        <ele>57.1</ele>
        <time>2021-08-18T10:09:22Z</time>
      </trkpt>
      <trkpt lat="49.28115" lon="-0.41946">
        <ele>57.1</ele>
        <time>2021-08-18T10:09:24Z</time>
      </trkpt>
      <trkpt lat="49.28121" lon="-0.4192">
        <ele>57</ele>
        <time>2021-08-18T10:09:26Z</time>
      </trkpt>
      <trkpt lat="49.28126" lon="-0.41895">
        <ele>56.8</ele>
        <time>2021-08-18T10:09:28Z</time>
      </trkpt>
      <trkpt lat="49.28132" lon="-0.4187">
        <ele>56.6</ele>
        <time>2021-08-18T10:09:30Z</time>
      </trkpt>
      <trkpt lat="49.28138" lon="-0.41844">
        <ele>56.4</ele>
        <time>2021-08-18T10:09:32Z</time>
      </trkpt>
      <trkpt lat="49.28144" lon="-0.41818">
        <ele>56.1</ele>
        <time>2021-08-18T10:09:34Z</time>
      </trkpt>
      <trkpt lat="49.2815" lon="-0.41791">
        <ele>55.9</ele>
        <time>2021-08-18T10:09:36Z</time>
      </trkpt>
      <trkpt lat="49.28153" lon="-0.41777">
        <ele>55.8</ele>
        <time>2021-08-18T10:09:37Z</time>
      </trkpt>
      <trkpt lat="49.28157" lon="-0.41764">
        <ele>55.7</ele>
        <time>2021-08-18T10:09:38Z</time>
      </trkpt>
      <trkpt lat="49.28164" lon="-0.41738">
        <ele>55.4</ele>
        <time>2021-08-18T10:09:40Z</time>
      </trkpt>
      <trkpt lat="49.28167" lon="-0.41725">
        <ele>55.3</ele>
        <time>2021-08-18T10:09:41Z</time>
      </trkpt>
      <trkpt lat="49.28171" lon="-0.41712">
        <ele>55.2</ele>
        <time>2021-08-18T10:09:42Z</time>
      </trkpt>
      <trkpt lat="49.28175" lon="-0.41698">
        <ele>55.1</ele>
        <time>2021-08-18T10:09:43Z</time>
      </trkpt>
      <trkpt lat="49.28178" lon="-0.41685">
        <ele>55</ele>
        <time>2021-08-18T10:09:44Z</time>
      </trkpt>
      <trkpt lat="49.28185" lon="-0.41659">
        <ele>54.7</ele>
        <time>2021-08-18T10:09:46Z</time>
      </trkpt>
      <trkpt lat="49.28189" lon="-0.41645">
        <ele>54.6</ele>
        <time>2021-08-18T10:09:47Z</time>
      </trkpt>
      <trkpt lat="49.28192" lon="-0.41631">
        <ele>54.5</ele>
        <time>2021-08-18T10:09:48Z</time>
      </trkpt>
      <trkpt lat="49.28199" lon="-0.41604">
        <ele>54.3</ele>
        <time>2021-08-18T10:09:50Z</time>
      </trkpt>
      <trkpt lat="49.28206" lon="-0.41576">
        <ele>54</ele>
        <time>2021-08-18T10:09:52Z</time>
      </trkpt>
      <trkpt lat="49.28212" lon="-0.41548">
        <ele>53.7</ele>
        <time>2021-08-18T10:09:54Z</time>
      </trkpt>
      <trkpt lat="49.28216" lon="-0.41534">
        <ele>53.6</ele>
        <time>2021-08-18T10:09:55Z</time>
      </trkpt>
      <trkpt lat="49.28219" lon="-0.4152">
        <ele>53.5</ele>
        <time>2021-08-18T10:09:56Z</time>
      </trkpt>
      <trkpt lat="49.28226" lon="-0.41491">
        <ele>53.2</ele>
        <time>2021-08-18T10:09:58Z</time>
      </trkpt>
      <trkpt lat="49.28233" lon="-0.41462">
        <ele>53.1</ele>
        <time>2021-08-18T10:10:00Z</time>
      </trkpt>
      <trkpt lat="49.28237" lon="-0.41448">
        <ele>53</ele>
        <time>2021-08-18T10:10:01Z</time>
      </trkpt>
      <trkpt lat="49.28244" lon="-0.4142">
        <ele>52.8</ele>
        <time>2021-08-18T10:10:03Z</time>
      </trkpt>
      <trkpt lat="49.28251" lon="-0.41392">
        <ele>52.7</ele>
        <time>2021-08-18T10:10:05Z</time>
      </trkpt>
      <trkpt lat="49.28254" lon="-0.41378">
        <ele>52.6</ele>
        <time>2021-08-18T10:10:06Z</time>
      </trkpt>
      <trkpt lat="49.28258" lon="-0.41363">
        <ele>52.5</ele>
        <time>2021-08-18T10:10:07Z</time>
      </trkpt>
      <trkpt lat="49.28265" lon="-0.41334">
        <ele>52.2</ele>
        <time>2021-08-18T10:10:09Z</time>
      </trkpt>
      <trkpt lat="49.28268" lon="-0.4132">
        <ele>52.1</ele>
        <time>2021-08-18T10:10:10Z</time>
      </trkpt>
      <trkpt lat="49.28272" lon="-0.41305">
        <ele>52</ele>
        <time>2021-08-18T10:10:11Z</time>
      </trkpt>
      <trkpt lat="49.2828" lon="-0.41276">
        <ele>51.8</ele>
        <time>2021-08-18T10:10:13Z</time>
      </trkpt>
      <trkpt lat="49.28288" lon="-0.41247">
        <ele>51.5</ele>
        <time>2021-08-18T10:10:15Z</time>
      </trkpt>
      <trkpt lat="49.28292" lon="-0.41232">
        <ele>51.4</ele>
        <time>2021-08-18T10:10:16Z</time>
      </trkpt>
      <trkpt lat="49.283" lon="-0.41203">
        <ele>51.2</ele>
        <time>2021-08-18T10:10:18Z</time>
      </trkpt>
      <trkpt lat="49.28304" lon="-0.41188">
        <ele>51.1</ele>
        <time>2021-08-18T10:10:19Z</time>
      </trkpt>
      <trkpt lat="49.28308" lon="-0.41173">
        <ele>51</ele>
        <time>2021-08-18T10:10:20Z</time>
      </trkpt>
      <trkpt lat="49.28316" lon="-0.41143">
        <ele>50.8</ele>
        <time>2021-08-18T10:10:22Z</time>
      </trkpt>
      <trkpt lat="49.28324" lon="-0.41112">
        <ele>50.7</ele>
        <time>2021-08-18T10:10:24Z</time>
      </trkpt>
      <trkpt lat="49.28328" lon="-0.41097">
        <ele>50.7</ele>
        <time>2021-08-18T10:10:25Z</time>
      </trkpt>
      <trkpt lat="49.28335" lon="-0.41067">
        <ele>50.7</ele>
        <time>2021-08-18T10:10:27Z</time>
      </trkpt>
      <trkpt lat="49.28343" lon="-0.41036">
        <ele>50.8</ele>
        <time>2021-08-18T10:10:29Z</time>
      </trkpt>
      <trkpt lat="49.28347" lon="-0.41021">
        <ele>50.9</ele>
        <time>2021-08-18T10:10:30Z</time>
      </trkpt>
      <trkpt lat="49.28354" lon="-0.40993">
        <ele>51.2</ele>
        <time>2021-08-18T10:10:32Z</time>
      </trkpt>
      <trkpt lat="49.28358" lon="-0.40978">
        <ele>51.4</ele>
        <time>2021-08-18T10:10:33Z</time>
      </trkpt>
      <trkpt lat="49.28365" lon="-0.4095">
        <ele>51.8</ele>
        <time>2021-08-18T10:10:35Z</time>
      </trkpt>
      <trkpt lat="49.28368" lon="-0.40937">
        <ele>51.9</ele>
        <time>2021-08-18T10:10:36Z</time>
      </trkpt>
      <trkpt lat="49.28375" lon="-0.4091">
        <ele>52.1</ele>
        <time>2021-08-18T10:10:38Z</time>
      </trkpt>
      <trkpt lat="49.2838" lon="-0.40884">
        <ele>52.2</ele>
        <time>2021-08-18T10:10:40Z</time>
      </trkpt>
      <trkpt lat="49.28384" lon="-0.40859">
        <ele>52.3</ele>
        <time>2021-08-18T10:10:42Z</time>
      </trkpt>
      <trkpt lat="49.28385" lon="-0.40846">
        <ele>52.3</ele>
        <time>2021-08-18T10:10:43Z</time>
      </trkpt>
      <trkpt lat="49.28384" lon="-0.4082">
        <ele>52.2</ele>
        <time>2021-08-18T10:10:45Z</time>
      </trkpt>
      <trkpt lat="49.28385" lon="-0.40806">
        <ele>52.2</ele>
        <time>2021-08-18T10:10:46Z</time>
      </trkpt>
      <trkpt lat="49.28397" lon="-0.40789">
        <ele>52.2</ele>
        <time>2021-08-18T10:10:48Z</time>
      </trkpt>
      <trkpt lat="49.28405" lon="-0.40782">
        <ele>52.4</ele>
        <time>2021-08-18T10:10:49Z</time>
      </trkpt>
      <trkpt lat="49.28412" lon="-0.40773">
        <ele>52.5</ele>
        <time>2021-08-18T10:10:50Z</time>
      </trkpt>
      <trkpt lat="49.28419" lon="-0.40749">
        <ele>52.6</ele>
        <time>2021-08-18T10:10:52Z</time>
      </trkpt>
      <trkpt lat="49.2842" lon="-0.40736">
        <ele>52.7</ele>
        <time>2021-08-18T10:10:53Z</time>
      </trkpt>
      <trkpt lat="49.28421" lon="-0.40723">
        <ele>52.7</ele>
        <time>2021-08-18T10:10:54Z</time>
      </trkpt>
      <trkpt lat="49.28423" lon="-0.40697">
        <ele>52.7</ele>
        <time>2021-08-18T10:10:56Z</time>
      </trkpt>
      <trkpt lat="49.2843" lon="-0.40673">
        <ele>52.7</ele>
        <time>2021-08-18T10:10:58Z</time>
      </trkpt>
      <trkpt lat="49.28436" lon="-0.40649">
        <ele>52.6</ele>
        <time>2021-08-18T10:11:00Z</time>
      </trkpt>
      <trkpt lat="49.28442" lon="-0.40624">
        <ele>52.5</ele>
        <time>2021-08-18T10:11:02Z</time>
      </trkpt>
      <trkpt lat="49.28449" lon="-0.40599">
        <ele>52.2</ele>
        <time>2021-08-18T10:11:04Z</time>
      </trkpt>
      <trkpt lat="49.28452" lon="-0.40586">
        <ele>52.1</ele>
        <time>2021-08-18T10:11:05Z</time>
      </trkpt>
      <trkpt lat="49.28459" lon="-0.4056">
        <ele>51.7</ele>
        <time>2021-08-18T10:11:07Z</time>
      </trkpt>
      <trkpt lat="49.28463" lon="-0.40547">
        <ele>51.5</ele>
        <time>2021-08-18T10:11:08Z</time>
      </trkpt>
      <trkpt lat="49.28466" lon="-0.40534">
        <ele>51.3</ele>
        <time>2021-08-18T10:11:09Z</time>
      </trkpt>
      <trkpt lat="49.28475" lon="-0.40508">
        <ele>51</ele>
        <time>2021-08-18T10:11:11Z</time>
      </trkpt>
      <trkpt lat="49.28479" lon="-0.40495">
        <ele>50.9</ele>
        <time>2021-08-18T10:11:12Z</time>
      </trkpt>
      <trkpt lat="49.28488" lon="-0.40469">
        <ele>50.9</ele>
        <time>2021-08-18T10:11:14Z</time>
      </trkpt>
      <trkpt lat="49.28497" lon="-0.40445">
        <ele>50.8</ele>
        <time>2021-08-18T10:11:16Z</time>
      </trkpt>
      <trkpt lat="49.28502" lon="-0.40432">
        <ele>50.8</ele>
        <time>2021-08-18T10:11:17Z</time>
      </trkpt>
      <trkpt lat="49.2851" lon="-0.40409">
        <ele>50.7</ele>
        <time>2021-08-18T10:11:19Z</time>
      </trkpt>
      <trkpt lat="49.28514" lon="-0.40397">
        <ele>50.7</ele>
        <time>2021-08-18T10:11:20Z</time>
      </trkpt>
      <trkpt lat="49.28521" lon="-0.40373">
        <ele>50.6</ele>
        <time>2021-08-18T10:11:22Z</time>
      </trkpt>
      <trkpt lat="49.28525" lon="-0.40361">
        <ele>50.5</ele>
        <time>2021-08-18T10:11:23Z</time>
      </trkpt>
      <trkpt lat="49.28528" lon="-0.40349">
        <ele>50.5</ele>
        <time>2021-08-18T10:11:24Z</time>
      </trkpt>
      <trkpt lat="49.28536" lon="-0.40324">
        <ele>50.3</ele>
        <time>2021-08-18T10:11:26Z</time>
      </trkpt>
      <trkpt lat="49.28544" lon="-0.40301">
        <ele>50.2</ele>
        <time>2021-08-18T10:11:28Z</time>
      </trkpt>
      <trkpt lat="49.28552" lon="-0.40277">
        <ele>50.2</ele>
        <time>2021-08-18T10:11:30Z</time>
      </trkpt>
      <trkpt lat="49.2856" lon="-0.40254">
        <ele>50.1</ele>
        <time>2021-08-18T10:11:32Z</time>
      </trkpt>
      <trkpt lat="49.28568" lon="-0.4023">
        <ele>50</ele>
        <time>2021-08-18T10:11:34Z</time>
      </trkpt>
      <trkpt lat="49.28572" lon="-0.40218">
        <ele>49.9</ele>
        <time>2021-08-18T10:11:35Z</time>
      </trkpt>
      <trkpt lat="49.2858" lon="-0.40196">
        <ele>49.8</ele>
        <time>2021-08-18T10:11:37Z</time>
      </trkpt>
      <trkpt lat="49.28584" lon="-0.40183">
        <ele>49.7</ele>
        <time>2021-08-18T10:11:38Z</time>
      </trkpt>
      <trkpt lat="49.2859" lon="-0.40159">
        <ele>49.6</ele>
        <time>2021-08-18T10:11:40Z</time>
      </trkpt>
      <trkpt lat="49.28593" lon="-0.40147">
        <ele>49.6</ele>
        <time>2021-08-18T10:11:41Z</time>
      </trkpt>
      <trkpt lat="49.28597" lon="-0.40134">
        <ele>49.5</ele>
        <time>2021-08-18T10:11:42Z</time>
      </trkpt>
      <trkpt lat="49.28602" lon="-0.4011">
        <ele>49.5</ele>
        <time>2021-08-18T10:11:44Z</time>
      </trkpt>
      <trkpt lat="49.28604" lon="-0.40098">
        <ele>49.5</ele>
        <time>2021-08-18T10:11:45Z</time>
      </trkpt>
      <trkpt lat="49.28608" lon="-0.40073">
        <ele>49.4</ele>
        <time>2021-08-18T10:11:47Z</time>
      </trkpt>
      <trkpt lat="49.28612" lon="-0.40061">
        <ele>49.4</ele>
        <time>2021-08-18T10:11:48Z</time>
      </trkpt>
      <trkpt lat="49.28617" lon="-0.40036">
        <ele>49.2</ele>
        <time>2021-08-18T10:11:50Z</time>
      </trkpt>
      <trkpt lat="49.28623" lon="-0.4001">
        <ele>49</ele>
        <time>2021-08-18T10:11:52Z</time>
      </trkpt>
      <trkpt lat="49.28628" lon="-0.39984">
        <ele>48.7</ele>
        <time>2021-08-18T10:11:54Z</time>
      </trkpt>
      <trkpt lat="49.28631" lon="-0.39957">
        <ele>48.4</ele>
        <time>2021-08-18T10:11:56Z</time>
      </trkpt>
      <trkpt lat="49.28632" lon="-0.39943">
        <ele>48.2</ele>
        <time>2021-08-18T10:11:57Z</time>
      </trkpt>
      <trkpt lat="49.28637" lon="-0.39916">
        <ele>48</ele>
        <time>2021-08-18T10:11:59Z</time>
      </trkpt>
      <trkpt lat="49.28645" lon="-0.39891">
        <ele>47.8</ele>
        <time>2021-08-18T10:12:01Z</time>
      </trkpt>
      <trkpt lat="49.28651" lon="-0.39881">
        <ele>47.8</ele>
        <time>2021-08-18T10:12:02Z</time>
      </trkpt>
      <trkpt lat="49.28657" lon="-0.39872">
        <ele>47.8</ele>
        <time>2021-08-18T10:12:03Z</time>
      </trkpt>
      <trkpt lat="49.2867" lon="-0.39857">
        <ele>47.7</ele>
        <time>2021-08-18T10:12:05Z</time>
      </trkpt>
      <trkpt lat="49.28683" lon="-0.39843">
        <ele>47.6</ele>
        <time>2021-08-18T10:12:07Z</time>
      </trkpt>
      <trkpt lat="49.28698" lon="-0.39829">
        <ele>47.3</ele>
        <time>2021-08-18T10:12:09Z</time>
      </trkpt>
      <trkpt lat="49.28705" lon="-0.39822">
        <ele>47.1</ele>
        <time>2021-08-18T10:12:10Z</time>
      </trkpt>
      <trkpt lat="49.28713" lon="-0.39815">
        <ele>46.8</ele>
        <time>2021-08-18T10:12:11Z</time>
      </trkpt>
      <trkpt lat="49.28729" lon="-0.39799">
        <ele>46.2</ele>
        <time>2021-08-18T10:12:13Z</time>
      </trkpt>
      <trkpt lat="49.28737" lon="-0.39791">
        <ele>45.9</ele>
        <time>2021-08-18T10:12:14Z</time>
      </trkpt>
      <trkpt lat="49.28745" lon="-0.39783">
        <ele>45.6</ele>
        <time>2021-08-18T10:12:15Z</time>
      </trkpt>
      <trkpt lat="49.28762" lon="-0.39767">
        <ele>45</ele>
        <time>2021-08-18T10:12:17Z</time>
      </trkpt>
      <trkpt lat="49.28779" lon="-0.3975">
        <ele>44.4</ele>
        <time>2021-08-18T10:12:19Z</time>
      </trkpt>
      <trkpt lat="49.28787" lon="-0.39741">
        <ele>44.1</ele>
        <time>2021-08-18T10:12:20Z</time>
      </trkpt>
      <trkpt lat="49.28795" lon="-0.39731">
        <ele>43.8</ele>
        <time>2021-08-18T10:12:21Z</time>
      </trkpt>
      <trkpt lat="49.28804" lon="-0.39721">
        <ele>43.4</ele>
        <time>2021-08-18T10:12:22Z</time>
      </trkpt>
      <trkpt lat="49.2882" lon="-0.39701">
        <ele>42.8</ele>
        <time>2021-08-18T10:12:24Z</time>
      </trkpt>
      <trkpt lat="49.28829" lon="-0.39692">
        <ele>42.5</ele>
        <time>2021-08-18T10:12:25Z</time>
      </trkpt>
      <trkpt lat="49.28837" lon="-0.39682">
        <ele>42.1</ele>
        <time>2021-08-18T10:12:26Z</time>
      </trkpt>
      <trkpt lat="49.28853" lon="-0.39661">
        <ele>41.5</ele>
        <time>2021-08-18T10:12:28Z</time>
      </trkpt>
      <trkpt lat="49.2887" lon="-0.39641">
        <ele>40.8</ele>
        <time>2021-08-18T10:12:30Z</time>
      </trkpt>
      <trkpt lat="49.28879" lon="-0.39631">
        <ele>40.4</ele>
        <time>2021-08-18T10:12:31Z</time>
      </trkpt>
      <trkpt lat="49.28896" lon="-0.39612">
        <ele>39.8</ele>
        <time>2021-08-18T10:12:33Z</time>
      </trkpt>
      <trkpt lat="49.28905" lon="-0.39602">
        <ele>39.4</ele>
        <time>2021-08-18T10:12:34Z</time>
      </trkpt>
      <trkpt lat="49.28914" lon="-0.39593">
        <ele>39.1</ele>
        <time>2021-08-18T10:12:35Z</time>
      </trkpt>
      <trkpt lat="49.28931" lon="-0.39574">
        <ele>38.5</ele>
        <time>2021-08-18T10:12:37Z</time>
      </trkpt>
      <trkpt lat="49.28948" lon="-0.39553">
        <ele>37.7</ele>
        <time>2021-08-18T10:12:39Z</time>
      </trkpt>
      <trkpt lat="49.28966" lon="-0.39533">
        <ele>36.9</ele>
        <time>2021-08-18T10:12:41Z</time>
      </trkpt>
      <trkpt lat="49.28984" lon="-0.39512">
        <ele>36.1</ele>
        <time>2021-08-18T10:12:43Z</time>
      </trkpt>
      <trkpt lat="49.29002" lon="-0.39492">
        <ele>35.4</ele>
        <time>2021-08-18T10:12:45Z</time>
      </trkpt>
      <trkpt lat="49.29019" lon="-0.3947">
        <ele>34.8</ele>
        <time>2021-08-18T10:12:47Z</time>
      </trkpt>
      <trkpt lat="49.29036" lon="-0.39449">
        <ele>34.2</ele>
        <time>2021-08-18T10:12:49Z</time>
      </trkpt>
      <trkpt lat="49.29044" lon="-0.39439">
        <ele>33.9</ele>
        <time>2021-08-18T10:12:50Z</time>
      </trkpt>
      <trkpt lat="49.29059" lon="-0.39419">
        <ele>33.5</ele>
        <time>2021-08-18T10:12:52Z</time>
      </trkpt>
      <trkpt lat="49.29068" lon="-0.39408">
        <ele>33.3</ele>
        <time>2021-08-18T10:12:53Z</time>
      </trkpt>
      <trkpt lat="49.29076" lon="-0.39398">
        <ele>33.1</ele>
        <time>2021-08-18T10:12:54Z</time>
      </trkpt>
      <trkpt lat="49.29092" lon="-0.39377">
        <ele>32.7</ele>
        <time>2021-08-18T10:12:56Z</time>
      </trkpt>
      <trkpt lat="49.291" lon="-0.39366">
        <ele>32.6</ele>
        <time>2021-08-18T10:12:57Z</time>
      </trkpt>
      <trkpt lat="49.29107" lon="-0.39357">
        <ele>32.4</ele>
        <time>2021-08-18T10:12:58Z</time>
      </trkpt>
      <trkpt lat="49.29122" lon="-0.39337">
        <ele>32</ele>
        <time>2021-08-18T10:13:00Z</time>
      </trkpt>
      <trkpt lat="49.29129" lon="-0.39328">
        <ele>31.9</ele>
        <time>2021-08-18T10:13:01Z</time>
      </trkpt>
      <trkpt lat="49.29143" lon="-0.39309">
        <ele>31.5</ele>
        <time>2021-08-18T10:13:03Z</time>
      </trkpt>
      <trkpt lat="49.29156" lon="-0.39291">
        <ele>31.3</ele>
        <time>2021-08-18T10:13:05Z</time>
      </trkpt>
      <trkpt lat="49.29161" lon="-0.39282">
        <ele>31.2</ele>
        <time>2021-08-18T10:13:06Z</time>
      </trkpt>
      <trkpt lat="49.29167" lon="-0.39273">
        <ele>31.1</ele>
        <time>2021-08-18T10:13:07Z</time>
      </trkpt>
      <trkpt lat="49.29176" lon="-0.39258">
        <ele>31.2</ele>
        <time>2021-08-18T10:13:09Z</time>
      </trkpt>
      <trkpt lat="49.2918" lon="-0.39252">
        <ele>31.1</ele>
        <time>2021-08-18T10:13:11Z</time>
      </trkpt>
      <trkpt lat="49.2918" lon="-0.39248">
        <ele>31.1</ele>
        <time>2021-08-18T10:13:12Z</time>
      </trkpt>
      <trkpt lat="49.29176" lon="-0.3924">
        <ele>30.9</ele>
        <time>2021-08-18T10:13:14Z</time>
      </trkpt>
      <trkpt lat="49.2917" lon="-0.39227">
        <ele>30.8</ele>
        <time>2021-08-18T10:13:16Z</time>
      </trkpt>
      <trkpt lat="49.29162" lon="-0.39214">
        <ele>30.6</ele>
        <time>2021-08-18T10:13:18Z</time>
      </trkpt>
      <trkpt lat="49.29158" lon="-0.39208">
        <ele>30.6</ele>
        <time>2021-08-18T10:13:19Z</time>
      </trkpt>
      <trkpt lat="49.29154" lon="-0.39201">
        <ele>30.6</ele>
        <time>2021-08-18T10:13:20Z</time>
      </trkpt>
      <trkpt lat="49.29149" lon="-0.39185">
        <ele>30.6</ele>
        <time>2021-08-18T10:13:22Z</time>
      </trkpt>
      <trkpt lat="49.29149" lon="-0.39177">
        <ele>30.5</ele>
        <time>2021-08-18T10:13:23Z</time>
      </trkpt>
      <trkpt lat="49.29156" lon="-0.39166">
        <ele>30.4</ele>
        <time>2021-08-18T10:13:25Z</time>
      </trkpt>
      <trkpt lat="49.29161" lon="-0.3916">
        <ele>30.4</ele>
        <time>2021-08-18T10:13:26Z</time>
      </trkpt>
      <trkpt lat="49.29169" lon="-0.3915">
        <ele>30.4</ele>
        <time>2021-08-18T10:13:28Z</time>
      </trkpt>
      <trkpt lat="49.29172" lon="-0.39146">
        <ele>30.4</ele>
        <time>2021-08-18T10:13:29Z</time>
      </trkpt>
      <trkpt lat="49.29176" lon="-0.39141">
        <ele>30.4</ele>
        <time>2021-08-18T10:13:30Z</time>
      </trkpt>
      <trkpt lat="49.2918" lon="-0.39135">
        <ele>30.5</ele>
        <time>2021-08-18T10:13:31Z</time>
      </trkpt>
      <trkpt lat="49.29184" lon="-0.3913">
        <ele>30.5</ele>
        <time>2021-08-18T10:13:32Z</time>
      </trkpt>
      <trkpt lat="49.29187" lon="-0.39125">
        <ele>30.4</ele>
        <time>2021-08-18T10:13:33Z</time>
      </trkpt>
      <trkpt lat="49.2919" lon="-0.3912">
        <ele>30.4</ele>
        <time>2021-08-18T10:13:34Z</time>
      </trkpt>
      <trkpt lat="49.29197" lon="-0.3911">
        <ele>30.3</ele>
        <time>2021-08-18T10:13:36Z</time>
      </trkpt>
      <trkpt lat="49.29204" lon="-0.39098">
        <ele>30.2</ele>
        <time>2021-08-18T10:13:38Z</time>
      </trkpt>
      <trkpt lat="49.29206" lon="-0.3909">
        <ele>30.1</ele>
        <time>2021-08-18T10:13:39Z</time>
      </trkpt>
      <trkpt lat="49.29208" lon="-0.39081">
        <ele>30</ele>
        <time>2021-08-18T10:13:40Z</time>
      </trkpt>
      <trkpt lat="49.29209" lon="-0.39059">
        <ele>29.7</ele>
        <time>2021-08-18T10:13:42Z</time>
      </trkpt>
      <trkpt lat="49.29209" lon="-0.39036">
        <ele>29.4</ele>
        <time>2021-08-18T10:13:44Z</time>
      </trkpt>
      <trkpt lat="49.29208" lon="-0.39014">
        <ele>29</ele>
        <time>2021-08-18T10:13:46Z</time>
      </trkpt>
      <trkpt lat="49.29207" lon="-0.3899">
        <ele>28.7</ele>
        <time>2021-08-18T10:13:48Z</time>
      </trkpt>
      <trkpt lat="49.29206" lon="-0.38978">
        <ele>28.4</ele>
        <time>2021-08-18T10:13:49Z</time>
      </trkpt>
      <trkpt lat="49.29205" lon="-0.38965">
        <ele>28.1</ele>
        <time>2021-08-18T10:13:50Z</time>
      </trkpt>
      <trkpt lat="49.29203" lon="-0.38939">
        <ele>27.6</ele>
        <time>2021-08-18T10:13:52Z</time>
      </trkpt>
      <trkpt lat="49.29201" lon="-0.38913">
        <ele>27.2</ele>
        <time>2021-08-18T10:13:54Z</time>
      </trkpt>
      <trkpt lat="49.29199" lon="-0.38889">
        <ele>26.9</ele>
        <time>2021-08-18T10:13:56Z</time>
      </trkpt>
      <trkpt lat="49.29198" lon="-0.38871">
        <ele>26.6</ele>
        <time>2021-08-18T10:13:58Z</time>
      </trkpt>
      <trkpt lat="49.29197" lon="-0.38867">
        <ele>26.5</ele>
        <time>2021-08-18T10:13:59Z</time>
      </trkpt>
      <trkpt lat="49.29196" lon="-0.38866">
        <ele>26.5</ele>
        <time>2021-08-18T10:14:00Z</time>
      </trkpt>
      <trkpt lat="49.29196" lon="-0.3886">
        <ele>26.4</ele>
        <time>2021-08-18T10:14:02Z</time>
      </trkpt>
      <trkpt lat="49.292" lon="-0.38855">
        <ele>26.3</ele>
        <time>2021-08-18T10:14:04Z</time>
      </trkpt>
      <trkpt lat="49.29205" lon="-0.38852">
        <ele>26.3</ele>
        <time>2021-08-18T10:14:05Z</time>
      </trkpt>
      <trkpt lat="49.29209" lon="-0.3885">
        <ele>26.4</ele>
        <time>2021-08-18T10:14:06Z</time>
      </trkpt>
      <trkpt lat="49.29217" lon="-0.38841">
        <ele>26.5</ele>
        <time>2021-08-18T10:14:08Z</time>
      </trkpt>
      <trkpt lat="49.2922" lon="-0.38836">
        <ele>26.5</ele>
        <time>2021-08-18T10:14:09Z</time>
      </trkpt>
      <trkpt lat="49.29229" lon="-0.38823">
        <ele>26.6</ele>
        <time>2021-08-18T10:14:11Z</time>
      </trkpt>
      <trkpt lat="49.29238" lon="-0.3881">
        <ele>26.6</ele>
        <time>2021-08-18T10:14:13Z</time>
      </trkpt>
      <trkpt lat="49.29248" lon="-0.38798">
        <ele>26.7</ele>
        <time>2021-08-18T10:14:15Z</time>
      </trkpt>
      <trkpt lat="49.29253" lon="-0.38792">
        <ele>26.8</ele>
        <time>2021-08-18T10:14:16Z</time>
      </trkpt>
      <trkpt lat="49.29257" lon="-0.38785">
        <ele>26.9</ele>
        <time>2021-08-18T10:14:17Z</time>
      </trkpt>
      <trkpt lat="49.29266" lon="-0.38773">
        <ele>27</ele>
        <time>2021-08-18T10:14:19Z</time>
      </trkpt>
      <trkpt lat="49.29271" lon="-0.38766">
        <ele>27.1</ele>
        <time>2021-08-18T10:14:20Z</time>
      </trkpt>
      <trkpt lat="49.2928" lon="-0.38752">
        <ele>27.1</ele>
        <time>2021-08-18T10:14:22Z</time>
      </trkpt>
      <trkpt lat="49.29284" lon="-0.38745">
        <ele>27.1</ele>
        <time>2021-08-18T10:14:23Z</time>
      </trkpt>
      <trkpt lat="49.29289" lon="-0.38737">
        <ele>27</ele>
        <time>2021-08-18T10:14:24Z</time>
      </trkpt>
      <trkpt lat="49.29299" lon="-0.3872">
        <ele>26.8</ele>
        <time>2021-08-18T10:14:26Z</time>
      </trkpt>
      <trkpt lat="49.29303" lon="-0.38711">
        <ele>26.7</ele>
        <time>2021-08-18T10:14:27Z</time>
      </trkpt>
      <trkpt lat="49.29308" lon="-0.38702">
        <ele>26.6</ele>
        <time>2021-08-18T10:14:28Z</time>
      </trkpt>
      <trkpt lat="49.29313" lon="-0.38694">
        <ele>26.4</ele>
        <time>2021-08-18T10:14:29Z</time>
      </trkpt>
      <trkpt lat="49.29323" lon="-0.38677">
        <ele>25.9</ele>
        <time>2021-08-18T10:14:31Z</time>
      </trkpt>
      <trkpt lat="49.29333" lon="-0.38659">
        <ele>25.6</ele>
        <time>2021-08-18T10:14:33Z</time>
      </trkpt>
      <trkpt lat="49.29339" lon="-0.3864">
        <ele>25.3</ele>
        <time>2021-08-18T10:14:35Z</time>
      </trkpt>
      <trkpt lat="49.29345" lon="-0.38617">
        <ele>24.9</ele>
        <time>2021-08-18T10:14:37Z</time>
      </trkpt>
      <trkpt lat="49.2935" lon="-0.38594">
        <ele>24.6</ele>
        <time>2021-08-18T10:14:39Z</time>
      </trkpt>
      <trkpt lat="49.29356" lon="-0.38572">
        <ele>24.5</ele>
        <time>2021-08-18T10:14:41Z</time>
      </trkpt>
      <trkpt lat="49.29359" lon="-0.38562">
        <ele>24.6</ele>
        <time>2021-08-18T10:14:42Z</time>
      </trkpt>
      <trkpt lat="49.29365" lon="-0.38541">
        <ele>24.6</ele>
        <time>2021-08-18T10:14:44Z</time>
      </trkpt>
      <trkpt lat="49.29369" lon="-0.38531">
        <ele>24.7</ele>
        <time>2021-08-18T10:14:45Z</time>
      </trkpt>
      <trkpt lat="49.29374" lon="-0.38522">
        <ele>24.8</ele>
        <time>2021-08-18T10:14:46Z</time>
      </trkpt>
      <trkpt lat="49.29383" lon="-0.38507">
        <ele>25</ele>
        <time>2021-08-18T10:14:48Z</time>
      </trkpt>
      <trkpt lat="49.29392" lon="-0.38491">
        <ele>25.2</ele>
        <time>2021-08-18T10:14:50Z</time>
      </trkpt>
      <trkpt lat="49.29402" lon="-0.38476">
        <ele>25.4</ele>
        <time>2021-08-18T10:14:52Z</time>
      </trkpt>
      <trkpt lat="49.29411" lon="-0.38461">
        <ele>25.6</ele>
        <time>2021-08-18T10:14:54Z</time>
      </trkpt>
      <trkpt lat="49.2942" lon="-0.38445">
        <ele>25.7</ele>
        <time>2021-08-18T10:14:56Z</time>
      </trkpt>
      <trkpt lat="49.29429" lon="-0.38428">
        <ele>25.8</ele>
        <time>2021-08-18T10:14:58Z</time>
      </trkpt>
      <trkpt lat="49.29433" lon="-0.38419">
        <ele>25.9</ele>
        <time>2021-08-18T10:14:59Z</time>
      </trkpt>
      <trkpt lat="49.29442" lon="-0.38402">
        <ele>25.9</ele>
        <time>2021-08-18T10:15:01Z</time>
      </trkpt>
      <trkpt lat="49.29452" lon="-0.38387">
        <ele>26</ele>
        <time>2021-08-18T10:15:03Z</time>
      </trkpt>
      <trkpt lat="49.29457" lon="-0.38379">
        <ele>26</ele>
        <time>2021-08-18T10:15:04Z</time>
      </trkpt>
      <trkpt lat="49.29462" lon="-0.38372">
        <ele>26</ele>
        <time>2021-08-18T10:15:05Z</time>
      </trkpt>
      <trkpt lat="49.29472" lon="-0.38356">
        <ele>26.1</ele>
        <time>2021-08-18T10:15:07Z</time>
      </trkpt>
      <trkpt lat="49.29477" lon="-0.38348">
        <ele>26</ele>
        <time>2021-08-18T10:15:08Z</time>
      </trkpt>
      <trkpt lat="49.29487" lon="-0.38331">
        <ele>26</ele>
        <time>2021-08-18T10:15:10Z</time>
      </trkpt>
      <trkpt lat="49.29495" lon="-0.38314">
        <ele>26</ele>
        <time>2021-08-18T10:15:12Z</time>
      </trkpt>
      <trkpt lat="49.29502" lon="-0.38297">
        <ele>26</ele>
        <time>2021-08-18T10:15:14Z</time>
      </trkpt>
      <trkpt lat="49.29505" lon="-0.38287">
        <ele>26</ele>
        <time>2021-08-18T10:15:15Z</time>
      </trkpt>
      <trkpt lat="49.29509" lon="-0.38277">
        <ele>26</ele>
        <time>2021-08-18T10:15:16Z</time>
      </trkpt>
      <trkpt lat="49.29512" lon="-0.38266">
        <ele>26</ele>
        <time>2021-08-18T10:15:17Z</time>
      </trkpt>
      <trkpt lat="49.29519" lon="-0.38246">
        <ele>26.1</ele>
        <time>2021-08-18T10:15:19Z</time>
      </trkpt>
      <trkpt lat="49.29523" lon="-0.38236">
        <ele>26.1</ele>
        <time>2021-08-18T10:15:20Z</time>
      </trkpt>
      <trkpt lat="49.2953" lon="-0.38215">
        <ele>26.1</ele>
        <time>2021-08-18T10:15:22Z</time>
      </trkpt>
      <trkpt lat="49.29534" lon="-0.38205">
        <ele>26.1</ele>
        <time>2021-08-18T10:15:23Z</time>
      </trkpt>
      <trkpt lat="49.29537" lon="-0.38194">
        <ele>26.1</ele>
        <time>2021-08-18T10:15:24Z</time>
      </trkpt>
      <trkpt lat="49.29544" lon="-0.38174">
        <ele>26.1</ele>
        <time>2021-08-18T10:15:26Z</time>
      </trkpt>
      <trkpt lat="49.29548" lon="-0.38164">
        <ele>26.1</ele>
        <time>2021-08-18T10:15:27Z</time>
      </trkpt>
      <trkpt lat="49.29556" lon="-0.38143">
        <ele>26.1</ele>
        <time>2021-08-18T10:15:29Z</time>
      </trkpt>
      <trkpt lat="49.2956" lon="-0.38133">
        <ele>26.1</ele>
        <time>2021-08-18T10:15:30Z</time>
      </trkpt>
      <trkpt lat="49.29563" lon="-0.38123">
        <ele>26.1</ele>
        <time>2021-08-18T10:15:31Z</time>
      </trkpt>
      <trkpt lat="49.2957" lon="-0.38103">
        <ele>26.1</ele>
        <time>2021-08-18T10:15:33Z</time>
      </trkpt>
      <trkpt lat="49.29573" lon="-0.38093">
        <ele>26.1</ele>
        <time>2021-08-18T10:15:34Z</time>
      </trkpt>
      <trkpt lat="49.29576" lon="-0.38083">
        <ele>26.1</ele>
        <time>2021-08-18T10:15:35Z</time>
      </trkpt>
      <trkpt lat="49.29581" lon="-0.38067">
        <ele>26</ele>
        <time>2021-08-18T10:15:37Z</time>
      </trkpt>
      <trkpt lat="49.29582" lon="-0.3806">
        <ele>26</ele>
        <time>2021-08-18T10:15:38Z</time>
      </trkpt>
      <trkpt lat="49.29586" lon="-0.38046">
        <ele>26</ele>
        <time>2021-08-18T10:15:40Z</time>
      </trkpt>
      <trkpt lat="49.2959" lon="-0.3803">
        <ele>25.9</ele>
        <time>2021-08-18T10:15:42Z</time>
      </trkpt>
      <trkpt lat="49.29593" lon="-0.38011">
        <ele>25.6</ele>
        <time>2021-08-18T10:15:44Z</time>
      </trkpt>
      <trkpt lat="49.29596" lon="-0.38001">
        <ele>25.6</ele>
        <time>2021-08-18T10:15:45Z</time>
      </trkpt>
      <trkpt lat="49.29602" lon="-0.37977">
        <ele>25.4</ele>
        <time>2021-08-18T10:15:47Z</time>
      </trkpt>
      <trkpt lat="49.29605" lon="-0.37965">
        <ele>25.3</ele>
        <time>2021-08-18T10:15:48Z</time>
      </trkpt>
      <trkpt lat="49.29608" lon="-0.37954">
        <ele>25.3</ele>
        <time>2021-08-18T10:15:49Z</time>
      </trkpt>
      <trkpt lat="49.29613" lon="-0.37929">
        <ele>25.2</ele>
        <time>2021-08-18T10:15:51Z</time>
      </trkpt>
      <trkpt lat="49.29616" lon="-0.37904">
        <ele>25.1</ele>
        <time>2021-08-18T10:15:53Z</time>
      </trkpt>
      <trkpt lat="49.29618" lon="-0.3789">
        <ele>25</ele>
        <time>2021-08-18T10:15:54Z</time>
      </trkpt>
      <trkpt lat="49.2962" lon="-0.37864">
        <ele>24.9</ele>
        <time>2021-08-18T10:15:56Z</time>
      </trkpt>
      <trkpt lat="49.29623" lon="-0.37839">
        <ele>24.8</ele>
        <time>2021-08-18T10:15:58Z</time>
      </trkpt>
      <trkpt lat="49.29625" lon="-0.37827">
        <ele>24.7</ele>
        <time>2021-08-18T10:15:59Z</time>
      </trkpt>
      <trkpt lat="49.29629" lon="-0.378">
        <ele>24.6</ele>
        <time>2021-08-18T10:16:01Z</time>
      </trkpt>
      <trkpt lat="49.29631" lon="-0.37787">
        <ele>24.5</ele>
        <time>2021-08-18T10:16:02Z</time>
      </trkpt>
      <trkpt lat="49.29636" lon="-0.37763">
        <ele>24.4</ele>
        <time>2021-08-18T10:16:04Z</time>
      </trkpt>
      <trkpt lat="49.29639" lon="-0.37739">
        <ele>24.3</ele>
        <time>2021-08-18T10:16:06Z</time>
      </trkpt>
      <trkpt lat="49.29641" lon="-0.37715">
        <ele>24.1</ele>
        <time>2021-08-18T10:16:08Z</time>
      </trkpt>
      <trkpt lat="49.29643" lon="-0.37693">
        <ele>23.9</ele>
        <time>2021-08-18T10:16:10Z</time>
      </trkpt>
      <trkpt lat="49.29645" lon="-0.37681">
        <ele>23.9</ele>
        <time>2021-08-18T10:16:11Z</time>
      </trkpt>
      <trkpt lat="49.29648" lon="-0.37658">
        <ele>23.7</ele>
        <time>2021-08-18T10:16:13Z</time>
      </trkpt>
      <trkpt lat="49.2965" lon="-0.37646">
        <ele>23.6</ele>
        <time>2021-08-18T10:16:14Z</time>
      </trkpt>
      <trkpt lat="49.29651" lon="-0.37634">
        <ele>23.4</ele>
        <time>2021-08-18T10:16:15Z</time>
      </trkpt>
      <trkpt lat="49.29657" lon="-0.37611">
        <ele>23</ele>
        <time>2021-08-18T10:16:17Z</time>
      </trkpt>
      <trkpt lat="49.29661" lon="-0.37599">
        <ele>22.7</ele>
        <time>2021-08-18T10:16:18Z</time>
      </trkpt>
      <trkpt lat="49.2967" lon="-0.37577">
        <ele>22.2</ele>
        <time>2021-08-18T10:16:20Z</time>
      </trkpt>
      <trkpt lat="49.29674" lon="-0.37566">
        <ele>21.9</ele>
        <time>2021-08-18T10:16:21Z</time>
      </trkpt>
      <trkpt lat="49.29677" lon="-0.37555">
        <ele>21.7</ele>
        <time>2021-08-18T10:16:22Z</time>
      </trkpt>
      <trkpt lat="49.29686" lon="-0.37536">
        <ele>21.4</ele>
        <time>2021-08-18T10:16:24Z</time>
      </trkpt>
      <trkpt lat="49.29692" lon="-0.37527">
        <ele>21.4</ele>
        <time>2021-08-18T10:16:25Z</time>
      </trkpt>
      <trkpt lat="49.29705" lon="-0.37509">
        <ele>21.3</ele>
        <time>2021-08-18T10:16:27Z</time>
      </trkpt>
      <trkpt lat="49.29717" lon="-0.37491">
        <ele>21.3</ele>
        <time>2021-08-18T10:16:29Z</time>
      </trkpt>
      <trkpt lat="49.29728" lon="-0.37476">
        <ele>21.3</ele>
        <time>2021-08-18T10:16:31Z</time>
      </trkpt>
      <trkpt lat="49.29735" lon="-0.37468">
        <ele>21.3</ele>
        <time>2021-08-18T10:16:32Z</time>
      </trkpt>
      <trkpt lat="49.2974" lon="-0.3746">
        <ele>21.3</ele>
        <time>2021-08-18T10:16:33Z</time>
      </trkpt>
      <trkpt lat="49.29746" lon="-0.37451">
        <ele>21.4</ele>
        <time>2021-08-18T10:16:34Z</time>
      </trkpt>
      <trkpt lat="49.29757" lon="-0.37436">
        <ele>21.4</ele>
        <time>2021-08-18T10:16:36Z</time>
      </trkpt>
      <trkpt lat="49.29762" lon="-0.37428">
        <ele>21.5</ele>
        <time>2021-08-18T10:16:37Z</time>
      </trkpt>
      <trkpt lat="49.29774" lon="-0.37413">
        <ele>21.6</ele>
        <time>2021-08-18T10:16:39Z</time>
      </trkpt>
      <trkpt lat="49.2978" lon="-0.37405">
        <ele>21.7</ele>
        <time>2021-08-18T10:16:40Z</time>
      </trkpt>
      <trkpt lat="49.29791" lon="-0.3739">
        <ele>21.8</ele>
        <time>2021-08-18T10:16:42Z</time>
      </trkpt>
      <trkpt lat="49.29796" lon="-0.37382">
        <ele>21.9</ele>
        <time>2021-08-18T10:16:43Z</time>
      </trkpt>
      <trkpt lat="49.29802" lon="-0.37373">
        <ele>21.9</ele>
        <time>2021-08-18T10:16:44Z</time>
      </trkpt>
      <trkpt lat="49.29814" lon="-0.37356">
        <ele>22</ele>
        <time>2021-08-18T10:16:46Z</time>
      </trkpt>
      <trkpt lat="49.2982" lon="-0.37348">
        <ele>22.1</ele>
        <time>2021-08-18T10:16:47Z</time>
      </trkpt>
      <trkpt lat="49.29826" lon="-0.3734">
        <ele>22.2</ele>
        <time>2021-08-18T10:16:48Z</time>
      </trkpt>
      <trkpt lat="49.29831" lon="-0.37333">
        <ele>22.3</ele>
        <time>2021-08-18T10:16:49Z</time>
      </trkpt>
      <trkpt lat="49.29837" lon="-0.37326">
        <ele>22.3</ele>
        <time>2021-08-18T10:16:50Z</time>
      </trkpt>
      <trkpt lat="49.29847" lon="-0.37312">
        <ele>22.5</ele>
        <time>2021-08-18T10:16:52Z</time>
      </trkpt>
      <trkpt lat="49.29852" lon="-0.37304">
        <ele>22.6</ele>
        <time>2021-08-18T10:16:53Z</time>
      </trkpt>
      <trkpt lat="49.29857" lon="-0.37296">
        <ele>22.6</ele>
        <time>2021-08-18T10:16:54Z</time>
      </trkpt>
      <trkpt lat="49.29864" lon="-0.37278">
        <ele>22.4</ele>
        <time>2021-08-18T10:16:56Z</time>
      </trkpt>
      <trkpt lat="49.2986" lon="-0.37266">
        <ele>22.3</ele>
        <time>2021-08-18T10:16:58Z</time>
      </trkpt>
      <trkpt lat="49.29849" lon="-0.37253">
        <ele>22</ele>
        <time>2021-08-18T10:17:00Z</time>
      </trkpt>
      <trkpt lat="49.29847" lon="-0.37246">
        <ele>21.8</ele>
        <time>2021-08-18T10:17:01Z</time>
      </trkpt>
      <trkpt lat="49.29845" lon="-0.37238">
        <ele>21.5</ele>
        <time>2021-08-18T10:17:02Z</time>
      </trkpt>
      <trkpt lat="49.29844" lon="-0.37218">
        <ele>20.7</ele>
        <time>2021-08-18T10:17:04Z</time>
      </trkpt>
      <trkpt lat="49.29843" lon="-0.37203">
        <ele>20</ele>
        <time>2021-08-18T10:17:06Z</time>
      </trkpt>
      <trkpt lat="49.29835" lon="-0.37188">
        <ele>19.6</ele>
        <time>2021-08-18T10:17:08Z</time>
      </trkpt>
      <trkpt lat="49.29832" lon="-0.37178">
        <ele>19.4</ele>
        <time>2021-08-18T10:17:09Z</time>
      </trkpt>
      <trkpt lat="49.29824" lon="-0.37158">
        <ele>19.1</ele>
        <time>2021-08-18T10:17:11Z</time>
      </trkpt>
      <trkpt lat="49.29821" lon="-0.37149">
        <ele>19</ele>
        <time>2021-08-18T10:17:12Z</time>
      </trkpt>
      <trkpt lat="49.29817" lon="-0.3714">
        <ele>18.9</ele>
        <time>2021-08-18T10:17:13Z</time>
      </trkpt>
      <trkpt lat="49.29812" lon="-0.37127">
        <ele>18.8</ele>
        <time>2021-08-18T10:17:15Z</time>
      </trkpt>
      <trkpt lat="49.29811" lon="-0.37122">
        <ele>18.8</ele>
        <time>2021-08-18T10:17:16Z</time>
      </trkpt>
      <trkpt lat="49.2981" lon="-0.3712">
        <ele>18.8</ele>
        <time>2021-08-18T10:17:17Z</time>
      </trkpt>
      <trkpt lat="49.29808" lon="-0.37109">
        <ele>18.7</ele>
        <time>2021-08-18T10:17:19Z</time>
      </trkpt>
      <trkpt lat="49.29811" lon="-0.37102">
        <ele>18.7</ele>
        <time>2021-08-18T10:17:20Z</time>
      </trkpt>
      <trkpt lat="49.29815" lon="-0.37094">
        <ele>18.6</ele>
        <time>2021-08-18T10:17:21Z</time>
      </trkpt>
      <trkpt lat="49.29819" lon="-0.37086">
        <ele>18.5</ele>
        <time>2021-08-18T10:17:22Z</time>
      </trkpt>
      <trkpt lat="49.29827" lon="-0.37068">
        <ele>18.3</ele>
        <time>2021-08-18T10:17:24Z</time>
      </trkpt>
      <trkpt lat="49.29836" lon="-0.37047">
        <ele>18.1</ele>
        <time>2021-08-18T10:17:26Z</time>
      </trkpt>
      <trkpt lat="49.2984" lon="-0.37036">
        <ele>18</ele>
        <time>2021-08-18T10:17:27Z</time>
      </trkpt>
      <trkpt lat="49.29848" lon="-0.37013">
        <ele>17.8</ele>
        <time>2021-08-18T10:17:29Z</time>
      </trkpt>
      <trkpt lat="49.29857" lon="-0.36991">
        <ele>17.7</ele>
        <time>2021-08-18T10:17:31Z</time>
      </trkpt>
      <trkpt lat="49.29865" lon="-0.36968">
        <ele>17.5</ele>
        <time>2021-08-18T10:17:33Z</time>
      </trkpt>
      <trkpt lat="49.29873" lon="-0.36945">
        <ele>17.4</ele>
        <time>2021-08-18T10:17:35Z</time>
      </trkpt>
      <trkpt lat="49.29877" lon="-0.36934">
        <ele>17.3</ele>
        <time>2021-08-18T10:17:36Z</time>
      </trkpt>
      <trkpt lat="49.29881" lon="-0.36923">
        <ele>17.3</ele>
        <time>2021-08-18T10:17:37Z</time>
      </trkpt>
      <trkpt lat="49.29891" lon="-0.36902">
        <ele>17.2</ele>
        <time>2021-08-18T10:17:39Z</time>
      </trkpt>
      <trkpt lat="49.29902" lon="-0.36882">
        <ele>17.1</ele>
        <time>2021-08-18T10:17:41Z</time>
      </trkpt>
      <trkpt lat="49.29915" lon="-0.36863">
        <ele>17</ele>
        <time>2021-08-18T10:17:43Z</time>
      </trkpt>
      <trkpt lat="49.29927" lon="-0.36846">
        <ele>17</ele>
        <time>2021-08-18T10:17:45Z</time>
      </trkpt>
      <trkpt lat="49.29934" lon="-0.36837">
        <ele>16.9</ele>
        <time>2021-08-18T10:17:46Z</time>
      </trkpt>
      <trkpt lat="49.29948" lon="-0.36821">
        <ele>16.8</ele>
        <time>2021-08-18T10:17:48Z</time>
      </trkpt>
      <trkpt lat="49.29963" lon="-0.36806">
        <ele>16.7</ele>
        <time>2021-08-18T10:17:50Z</time>
      </trkpt>
      <trkpt lat="49.29978" lon="-0.36792">
        <ele>16.7</ele>
        <time>2021-08-18T10:17:52Z</time>
      </trkpt>
      <trkpt lat="49.29994" lon="-0.3678">
        <ele>16.6</ele>
        <time>2021-08-18T10:17:54Z</time>
      </trkpt>
      <trkpt lat="49.30011" lon="-0.36768">
        <ele>16.6</ele>
        <time>2021-08-18T10:17:56Z</time>
      </trkpt>
      <trkpt lat="49.30027" lon="-0.36757">
        <ele>16.6</ele>
        <time>2021-08-18T10:17:58Z</time>
      </trkpt>
      <trkpt lat="49.30035" lon="-0.36751">
        <ele>16.6</ele>
        <time>2021-08-18T10:17:59Z</time>
      </trkpt>
      <trkpt lat="49.30043" lon="-0.36746">
        <ele>16.6</ele>
        <time>2021-08-18T10:18:00Z</time>
      </trkpt>
      <trkpt lat="49.3006" lon="-0.36734">
        <ele>16.6</ele>
        <time>2021-08-18T10:18:02Z</time>
      </trkpt>
      <trkpt lat="49.30068" lon="-0.36728">
        <ele>16.6</ele>
        <time>2021-08-18T10:18:03Z</time>
      </trkpt>
      <trkpt lat="49.30076" lon="-0.36722">
        <ele>16.5</ele>
        <time>2021-08-18T10:18:04Z</time>
      </trkpt>
      <trkpt lat="49.30091" lon="-0.3671">
        <ele>16.5</ele>
        <time>2021-08-18T10:18:06Z</time>
      </trkpt>
      <trkpt lat="49.30105" lon="-0.36699">
        <ele>16.5</ele>
        <time>2021-08-18T10:18:08Z</time>
      </trkpt>
      <trkpt lat="49.30113" lon="-0.36694">
        <ele>16.5</ele>
        <time>2021-08-18T10:18:09Z</time>
      </trkpt>
      <trkpt lat="49.30126" lon="-0.36681">
        <ele>16.6</ele>
        <time>2021-08-18T10:18:11Z</time>
      </trkpt>
      <trkpt lat="49.30138" lon="-0.36664">
        <ele>16.8</ele>
        <time>2021-08-18T10:18:13Z</time>
      </trkpt>
      <trkpt lat="49.30149" lon="-0.36646">
        <ele>17.2</ele>
        <time>2021-08-18T10:18:15Z</time>
      </trkpt>
      <trkpt lat="49.3016" lon="-0.36629">
        <ele>17.7</ele>
        <time>2021-08-18T10:18:17Z</time>
      </trkpt>
      <trkpt lat="49.3017" lon="-0.36613">
        <ele>18.2</ele>
        <time>2021-08-18T10:18:19Z</time>
      </trkpt>
      <trkpt lat="49.30174" lon="-0.36606">
        <ele>18.4</ele>
        <time>2021-08-18T10:18:20Z</time>
      </trkpt>
      <trkpt lat="49.30184" lon="-0.36592">
        <ele>18.9</ele>
        <time>2021-08-18T10:18:22Z</time>
      </trkpt>
      <trkpt lat="49.30188" lon="-0.36583">
        <ele>19.2</ele>
        <time>2021-08-18T10:18:23Z</time>
      </trkpt>
      <trkpt lat="49.30196" lon="-0.36566">
        <ele>19.8</ele>
        <time>2021-08-18T10:18:25Z</time>
      </trkpt>
      <trkpt lat="49.30204" lon="-0.36551">
        <ele>20</ele>
        <time>2021-08-18T10:18:27Z</time>
      </trkpt>
      <trkpt lat="49.30208" lon="-0.36543">
        <ele>20.2</ele>
        <time>2021-08-18T10:18:28Z</time>
      </trkpt>
      <trkpt lat="49.30215" lon="-0.36528">
        <ele>20.6</ele>
        <time>2021-08-18T10:18:30Z</time>
      </trkpt>
      <trkpt lat="49.30219" lon="-0.36521">
        <ele>20.8</ele>
        <time>2021-08-18T10:18:31Z</time>
      </trkpt>
      <trkpt lat="49.30222" lon="-0.36513">
        <ele>21</ele>
        <time>2021-08-18T10:18:32Z</time>
      </trkpt>
      <trkpt lat="49.30225" lon="-0.36505">
        <ele>21.3</ele>
        <time>2021-08-18T10:18:33Z</time>
      </trkpt>
      <trkpt lat="49.30228" lon="-0.36497">
        <ele>21.5</ele>
        <time>2021-08-18T10:18:34Z</time>
      </trkpt>
      <trkpt lat="49.30235" lon="-0.36482">
        <ele>22</ele>
        <time>2021-08-18T10:18:36Z</time>
      </trkpt>
      <trkpt lat="49.30242" lon="-0.36467">
        <ele>22.4</ele>
        <time>2021-08-18T10:18:38Z</time>
      </trkpt>
      <trkpt lat="49.30245" lon="-0.36459">
        <ele>22.6</ele>
        <time>2021-08-18T10:18:39Z</time>
      </trkpt>
      <trkpt lat="49.30247" lon="-0.36452">
        <ele>22.8</ele>
        <time>2021-08-18T10:18:40Z</time>
      </trkpt>
      <trkpt lat="49.30253" lon="-0.36436">
        <ele>23.2</ele>
        <time>2021-08-18T10:18:42Z</time>
      </trkpt>
      <trkpt lat="49.30259" lon="-0.3642">
        <ele>23.5</ele>
        <time>2021-08-18T10:18:44Z</time>
      </trkpt>
      <trkpt lat="49.3026" lon="-0.36411">
        <ele>23.6</ele>
        <time>2021-08-18T10:18:45Z</time>
      </trkpt>
      <trkpt lat="49.30262" lon="-0.36403">
        <ele>23.7</ele>
        <time>2021-08-18T10:18:46Z</time>
      </trkpt>
      <trkpt lat="49.30265" lon="-0.36395">
        <ele>23.7</ele>
        <time>2021-08-18T10:18:47Z</time>
      </trkpt>
      <trkpt lat="49.30274" lon="-0.36381">
        <ele>23.8</ele>
        <time>2021-08-18T10:18:49Z</time>
      </trkpt>
      <trkpt lat="49.30283" lon="-0.36369">
        <ele>23.9</ele>
        <time>2021-08-18T10:18:51Z</time>
      </trkpt>
      <trkpt lat="49.30293" lon="-0.36357">
        <ele>23.9</ele>
        <time>2021-08-18T10:18:53Z</time>
      </trkpt>
      <trkpt lat="49.30305" lon="-0.36346">
        <ele>24</ele>
        <time>2021-08-18T10:18:55Z</time>
      </trkpt>
      <trkpt lat="49.3031" lon="-0.3634">
        <ele>24</ele>
        <time>2021-08-18T10:18:56Z</time>
      </trkpt>
      <trkpt lat="49.30321" lon="-0.36329">
        <ele>24</ele>
        <time>2021-08-18T10:18:58Z</time>
      </trkpt>
      <trkpt lat="49.30327" lon="-0.36322">
        <ele>24.1</ele>
        <time>2021-08-18T10:18:59Z</time>
      </trkpt>
      <trkpt lat="49.30338" lon="-0.3631">
        <ele>24.1</ele>
        <time>2021-08-18T10:19:01Z</time>
      </trkpt>
      <trkpt lat="49.30349" lon="-0.36298">
        <ele>24.2</ele>
        <time>2021-08-18T10:19:03Z</time>
      </trkpt>
      <trkpt lat="49.30355" lon="-0.36292">
        <ele>24.1</ele>
        <time>2021-08-18T10:19:04Z</time>
      </trkpt>
      <trkpt lat="49.30361" lon="-0.36286">
        <ele>24.1</ele>
        <time>2021-08-18T10:19:05Z</time>
      </trkpt>
      <trkpt lat="49.30372" lon="-0.36274">
        <ele>24</ele>
        <time>2021-08-18T10:19:07Z</time>
      </trkpt>
      <trkpt lat="49.30383" lon="-0.36262">
        <ele>24</ele>
        <time>2021-08-18T10:19:09Z</time>
      </trkpt>
      <trkpt lat="49.30394" lon="-0.3625">
        <ele>24</ele>
        <time>2021-08-18T10:19:11Z</time>
      </trkpt>
      <trkpt lat="49.30399" lon="-0.36245">
        <ele>23.9</ele>
        <time>2021-08-18T10:19:12Z</time>
      </trkpt>
      <trkpt lat="49.3041" lon="-0.36233">
        <ele>23.9</ele>
        <time>2021-08-18T10:19:14Z</time>
      </trkpt>
      <trkpt lat="49.30421" lon="-0.3622">
        <ele>23.8</ele>
        <time>2021-08-18T10:19:16Z</time>
      </trkpt>
      <trkpt lat="49.30432" lon="-0.36208">
        <ele>23.8</ele>
        <time>2021-08-18T10:19:18Z</time>
      </trkpt>
      <trkpt lat="49.30438" lon="-0.36202">
        <ele>23.7</ele>
        <time>2021-08-18T10:19:19Z</time>
      </trkpt>
      <trkpt lat="49.3045" lon="-0.3619">
        <ele>23.6</ele>
        <time>2021-08-18T10:19:21Z</time>
      </trkpt>
      <trkpt lat="49.30462" lon="-0.36179">
        <ele>23.6</ele>
        <time>2021-08-18T10:19:23Z</time>
      </trkpt>
      <trkpt lat="49.30468" lon="-0.36174">
        <ele>23.6</ele>
        <time>2021-08-18T10:19:24Z</time>
      </trkpt>
      <trkpt lat="49.30475" lon="-0.36169">
        <ele>23.6</ele>
        <time>2021-08-18T10:19:25Z</time>
      </trkpt>
      <trkpt lat="49.30487" lon="-0.3616">
        <ele>23.4</ele>
        <time>2021-08-18T10:19:27Z</time>
      </trkpt>
      <trkpt lat="49.30493" lon="-0.36155">
        <ele>23.3</ele>
        <time>2021-08-18T10:19:28Z</time>
      </trkpt>
      <trkpt lat="49.30498" lon="-0.36149">
        <ele>23.2</ele>
        <time>2021-08-18T10:19:29Z</time>
      </trkpt>
      <trkpt lat="49.30509" lon="-0.36136">
        <ele>23</ele>
        <time>2021-08-18T10:19:31Z</time>
      </trkpt>
      <trkpt lat="49.30515" lon="-0.36129">
        <ele>22.9</ele>
        <time>2021-08-18T10:19:32Z</time>
      </trkpt>
      <trkpt lat="49.30527" lon="-0.36117">
        <ele>22.7</ele>
        <time>2021-08-18T10:19:34Z</time>
      </trkpt>
      <trkpt lat="49.30534" lon="-0.36111">
        <ele>22.6</ele>
        <time>2021-08-18T10:19:35Z</time>
      </trkpt>
      <trkpt lat="49.30546" lon="-0.36096">
        <ele>22.3</ele>
        <time>2021-08-18T10:19:37Z</time>
      </trkpt>
      <trkpt lat="49.30559" lon="-0.36083">
        <ele>22.1</ele>
        <time>2021-08-18T10:19:39Z</time>
      </trkpt>
      <trkpt lat="49.30573" lon="-0.36069">
        <ele>21.9</ele>
        <time>2021-08-18T10:19:41Z</time>
      </trkpt>
      <trkpt lat="49.30579" lon="-0.36062">
        <ele>21.7</ele>
        <time>2021-08-18T10:19:42Z</time>
      </trkpt>
      <trkpt lat="49.30593" lon="-0.36049">
        <ele>21.5</ele>
        <time>2021-08-18T10:19:44Z</time>
      </trkpt>
      <trkpt lat="49.30599" lon="-0.36042">
        <ele>21.3</ele>
        <time>2021-08-18T10:19:45Z</time>
      </trkpt>
      <trkpt lat="49.30612" lon="-0.36027">
        <ele>21.1</ele>
        <time>2021-08-18T10:19:47Z</time>
      </trkpt>
      <trkpt lat="49.30618" lon="-0.3602">
        <ele>21</ele>
        <time>2021-08-18T10:19:48Z</time>
      </trkpt>
      <trkpt lat="49.30625" lon="-0.36013">
        <ele>20.8</ele>
        <time>2021-08-18T10:19:49Z</time>
      </trkpt>
      <trkpt lat="49.30639" lon="-0.35998">
        <ele>20.6</ele>
        <time>2021-08-18T10:19:51Z</time>
      </trkpt>
      <trkpt lat="49.30653" lon="-0.35986">
        <ele>20.4</ele>
        <time>2021-08-18T10:19:53Z</time>
      </trkpt>
      <trkpt lat="49.30668" lon="-0.35978">
        <ele>20.2</ele>
        <time>2021-08-18T10:19:55Z</time>
      </trkpt>
      <trkpt lat="49.30684" lon="-0.35968">
        <ele>20</ele>
        <time>2021-08-18T10:19:57Z</time>
      </trkpt>
      <trkpt lat="49.30701" lon="-0.35959">
        <ele>19.8</ele>
        <time>2021-08-18T10:19:59Z</time>
      </trkpt>
      <trkpt lat="49.30709" lon="-0.35955">
        <ele>19.6</ele>
        <time>2021-08-18T10:20:00Z</time>
      </trkpt>
      <trkpt lat="49.30717" lon="-0.3595">
        <ele>19.5</ele>
        <time>2021-08-18T10:20:01Z</time>
      </trkpt>
      <trkpt lat="49.30732" lon="-0.35938">
        <ele>19.3</ele>
        <time>2021-08-18T10:20:03Z</time>
      </trkpt>
      <trkpt lat="49.30748" lon="-0.35925">
        <ele>19.1</ele>
        <time>2021-08-18T10:20:05Z</time>
      </trkpt>
      <trkpt lat="49.30756" lon="-0.35919">
        <ele>19</ele>
        <time>2021-08-18T10:20:06Z</time>
      </trkpt>
      <trkpt lat="49.30771" lon="-0.35905">
        <ele>18.8</ele>
        <time>2021-08-18T10:20:08Z</time>
      </trkpt>
      <trkpt lat="49.30785" lon="-0.35889">
        <ele>18.6</ele>
        <time>2021-08-18T10:20:10Z</time>
      </trkpt>
      <trkpt lat="49.30799" lon="-0.3587">
        <ele>18.4</ele>
        <time>2021-08-18T10:20:12Z</time>
      </trkpt>
      <trkpt lat="49.30806" lon="-0.3586">
        <ele>18.3</ele>
        <time>2021-08-18T10:20:13Z</time>
      </trkpt>
      <trkpt lat="49.30817" lon="-0.35838">
        <ele>18</ele>
        <time>2021-08-18T10:20:15Z</time>
      </trkpt>
      <trkpt lat="49.30822" lon="-0.35826">
        <ele>17.9</ele>
        <time>2021-08-18T10:20:16Z</time>
      </trkpt>
      <trkpt lat="49.30826" lon="-0.35815">
        <ele>17.8</ele>
        <time>2021-08-18T10:20:17Z</time>
      </trkpt>
      <trkpt lat="49.30831" lon="-0.35804">
        <ele>17.7</ele>
        <time>2021-08-18T10:20:18Z</time>
      </trkpt>
      <trkpt lat="49.30841" lon="-0.35782">
        <ele>17.4</ele>
        <time>2021-08-18T10:20:20Z</time>
      </trkpt>
      <trkpt lat="49.3085" lon="-0.3576">
        <ele>17.1</ele>
        <time>2021-08-18T10:20:22Z</time>
      </trkpt>
      <trkpt lat="49.30861" lon="-0.35739">
        <ele>16.7</ele>
        <time>2021-08-18T10:20:24Z</time>
      </trkpt>
      <trkpt lat="49.30868" lon="-0.35731">
        <ele>16.5</ele>
        <time>2021-08-18T10:20:25Z</time>
      </trkpt>
      <trkpt lat="49.30876" lon="-0.35723">
        <ele>16.3</ele>
        <time>2021-08-18T10:20:26Z</time>
      </trkpt>
      <trkpt lat="49.30892" lon="-0.35708">
        <ele>15.9</ele>
        <time>2021-08-18T10:20:28Z</time>
      </trkpt>
      <trkpt lat="49.3091" lon="-0.35697">
        <ele>15.5</ele>
        <time>2021-08-18T10:20:30Z</time>
      </trkpt>
      <trkpt lat="49.30929" lon="-0.35692">
        <ele>15</ele>
        <time>2021-08-18T10:20:32Z</time>
      </trkpt>
      <trkpt lat="49.30939" lon="-0.35691">
        <ele>14.8</ele>
        <time>2021-08-18T10:20:33Z</time>
      </trkpt>
      <trkpt lat="49.30958" lon="-0.35686">
        <ele>14.5</ele>
        <time>2021-08-18T10:20:35Z</time>
      </trkpt>
      <trkpt lat="49.30967" lon="-0.35681">
        <ele>14.3</ele>
        <time>2021-08-18T10:20:36Z</time>
      </trkpt>
      <trkpt lat="49.30975" lon="-0.35675">
        <ele>14.2</ele>
        <time>2021-08-18T10:20:37Z</time>
      </trkpt>
      <trkpt lat="49.30985" lon="-0.35651">
        <ele>14</ele>
        <time>2021-08-18T10:20:39Z</time>
      </trkpt>
      <trkpt lat="49.30988" lon="-0.35637">
        <ele>13.9</ele>
        <time>2021-08-18T10:20:40Z</time>
      </trkpt>
      <trkpt lat="49.30995" lon="-0.35615">
        <ele>13.7</ele>
        <time>2021-08-18T10:20:42Z</time>
      </trkpt>
      <trkpt lat="49.31001" lon="-0.35607">
        <ele>13.6</ele>
        <time>2021-08-18T10:20:43Z</time>
      </trkpt>
      <trkpt lat="49.31015" lon="-0.35597">
        <ele>13.4</ele>
        <time>2021-08-18T10:20:45Z</time>
      </trkpt>
      <trkpt lat="49.31032" lon="-0.35588">
        <ele>13.3</ele>
        <time>2021-08-18T10:20:47Z</time>
      </trkpt>
      <trkpt lat="49.3105" lon="-0.35581">
        <ele>13.2</ele>
        <time>2021-08-18T10:20:49Z</time>
      </trkpt>
      <trkpt lat="49.31059" lon="-0.35577">
        <ele>13.2</ele>
        <time>2021-08-18T10:20:50Z</time>
      </trkpt>
      <trkpt lat="49.31076" lon="-0.35569">
        <ele>13.1</ele>
        <time>2021-08-18T10:20:52Z</time>
      </trkpt>
      <trkpt lat="49.31084" lon="-0.35565">
        <ele>13.1</ele>
        <time>2021-08-18T10:20:53Z</time>
      </trkpt>
      <trkpt lat="49.31093" lon="-0.35562">
        <ele>13.1</ele>
        <time>2021-08-18T10:20:54Z</time>
      </trkpt>
      <trkpt lat="49.31109" lon="-0.3556">
        <ele>13.1</ele>
        <time>2021-08-18T10:20:56Z</time>
      </trkpt>
      <trkpt lat="49.31123" lon="-0.35565">
        <ele>13.2</ele>
        <time>2021-08-18T10:20:58Z</time>
      </trkpt>
      <trkpt lat="49.31129" lon="-0.3557">
        <ele>13.2</ele>
        <time>2021-08-18T10:20:59Z</time>
      </trkpt>
      <trkpt lat="49.31143" lon="-0.35575">
        <ele>13.2</ele>
        <time>2021-08-18T10:21:01Z</time>
      </trkpt>
      <trkpt lat="49.3115" lon="-0.35578">
        <ele>13.2</ele>
        <time>2021-08-18T10:21:02Z</time>
      </trkpt>
      <trkpt lat="49.31166" lon="-0.35582">
        <ele>13.2</ele>
        <time>2021-08-18T10:21:04Z</time>
      </trkpt>
      <trkpt lat="49.31181" lon="-0.35585">
        <ele>13.1</ele>
        <time>2021-08-18T10:21:06Z</time>
      </trkpt>
      <trkpt lat="49.31189" lon="-0.35587">
        <ele>13.1</ele>
        <time>2021-08-18T10:21:07Z</time>
      </trkpt>
      <trkpt lat="49.31205" lon="-0.3559">
        <ele>13</ele>
        <time>2021-08-18T10:21:09Z</time>
      </trkpt>
      <trkpt lat="49.31213" lon="-0.35591">
        <ele>13</ele>
        <time>2021-08-18T10:21:10Z</time>
      </trkpt>
      <trkpt lat="49.31221" lon="-0.35593">
        <ele>13</ele>
        <time>2021-08-18T10:21:11Z</time>
      </trkpt>
      <trkpt lat="49.31237" lon="-0.35597">
        <ele>13</ele>
        <time>2021-08-18T10:21:13Z</time>
      </trkpt>
      <trkpt lat="49.31245" lon="-0.356">
        <ele>13</ele>
        <time>2021-08-18T10:21:14Z</time>
      </trkpt>
      <trkpt lat="49.31259" lon="-0.35606">
        <ele>13</ele>
        <time>2021-08-18T10:21:16Z</time>
      </trkpt>
      <trkpt lat="49.31273" lon="-0.3561">
        <ele>12.9</ele>
        <time>2021-08-18T10:21:18Z</time>
      </trkpt>
      <trkpt lat="49.3128" lon="-0.35613">
        <ele>12.9</ele>
        <time>2021-08-18T10:21:19Z</time>
      </trkpt>
      <trkpt lat="49.31287" lon="-0.35616">
        <ele>12.9</ele>
        <time>2021-08-18T10:21:20Z</time>
      </trkpt>
      <trkpt lat="49.31302" lon="-0.3562">
        <ele>12.9</ele>
        <time>2021-08-18T10:21:22Z</time>
      </trkpt>
      <trkpt lat="49.31309" lon="-0.35621">
        <ele>12.9</ele>
        <time>2021-08-18T10:21:23Z</time>
      </trkpt>
      <trkpt lat="49.31317" lon="-0.35622">
        <ele>12.8</ele>
        <time>2021-08-18T10:21:24Z</time>
      </trkpt>
      <trkpt lat="49.31332" lon="-0.35624">
        <ele>12.8</ele>
        <time>2021-08-18T10:21:26Z</time>
      </trkpt>
      <trkpt lat="49.3134" lon="-0.35624">
        <ele>12.8</ele>
        <time>2021-08-18T10:21:27Z</time>
      </trkpt>
      <trkpt lat="49.31347" lon="-0.35626">
        <ele>12.7</ele>
        <time>2021-08-18T10:21:28Z</time>
      </trkpt>
      <trkpt lat="49.31362" lon="-0.35628">
        <ele>12.7</ele>
        <time>2021-08-18T10:21:30Z</time>
      </trkpt>
      <trkpt lat="49.31376" lon="-0.35634">
        <ele>12.7</ele>
        <time>2021-08-18T10:21:32Z</time>
      </trkpt>
      <trkpt lat="49.3139" lon="-0.35636">
        <ele>12.7</ele>
        <time>2021-08-18T10:21:34Z</time>
      </trkpt>
      <trkpt lat="49.31397" lon="-0.35635">
        <ele>12.7</ele>
        <time>2021-08-18T10:21:35Z</time>
      </trkpt>
      <trkpt lat="49.31411" lon="-0.3564">
        <ele>12.6</ele>
        <time>2021-08-18T10:21:37Z</time>
      </trkpt>
      <trkpt lat="49.31426" lon="-0.35646">
        <ele>12.5</ele>
        <time>2021-08-18T10:21:39Z</time>
      </trkpt>
      <trkpt lat="49.31433" lon="-0.35649">
        <ele>12.5</ele>
        <time>2021-08-18T10:21:40Z</time>
      </trkpt>
      <trkpt lat="49.3144" lon="-0.35651">
        <ele>12.5</ele>
        <time>2021-08-18T10:21:41Z</time>
      </trkpt>
      <trkpt lat="49.31455" lon="-0.35655">
        <ele>12.4</ele>
        <time>2021-08-18T10:21:43Z</time>
      </trkpt>
      <trkpt lat="49.31471" lon="-0.35659">
        <ele>12.3</ele>
        <time>2021-08-18T10:21:45Z</time>
      </trkpt>
      <trkpt lat="49.31486" lon="-0.35663">
        <ele>12.2</ele>
        <time>2021-08-18T10:21:47Z</time>
      </trkpt>
      <trkpt lat="49.31494" lon="-0.35665">
        <ele>12.2</ele>
        <time>2021-08-18T10:21:48Z</time>
      </trkpt>
      <trkpt lat="49.31508" lon="-0.35669">
        <ele>12.2</ele>
        <time>2021-08-18T10:21:50Z</time>
      </trkpt>
      <trkpt lat="49.31516" lon="-0.3567">
        <ele>12.2</ele>
        <time>2021-08-18T10:21:51Z</time>
      </trkpt>
      <trkpt lat="49.31523" lon="-0.35672">
        <ele>12.2</ele>
        <time>2021-08-18T10:21:52Z</time>
      </trkpt>
      <trkpt lat="49.31538" lon="-0.35675">
        <ele>12.2</ele>
        <time>2021-08-18T10:21:54Z</time>
      </trkpt>
      <trkpt lat="49.31553" lon="-0.35679">
        <ele>12.2</ele>
        <time>2021-08-18T10:21:56Z</time>
      </trkpt>
      <trkpt lat="49.31568" lon="-0.35681">
        <ele>12.2</ele>
        <time>2021-08-18T10:21:58Z</time>
      </trkpt>
      <trkpt lat="49.31583" lon="-0.35684">
        <ele>12.1</ele>
        <time>2021-08-18T10:22:00Z</time>
      </trkpt>
      <trkpt lat="49.3159" lon="-0.35685">
        <ele>12.1</ele>
        <time>2021-08-18T10:22:01Z</time>
      </trkpt>
      <trkpt lat="49.31598" lon="-0.35685">
        <ele>12.1</ele>
        <time>2021-08-18T10:22:02Z</time>
      </trkpt>
      <trkpt lat="49.31605" lon="-0.35686">
        <ele>12.1</ele>
        <time>2021-08-18T10:22:03Z</time>
      </trkpt>
      <trkpt lat="49.3162" lon="-0.35689">
        <ele>12</ele>
        <time>2021-08-18T10:22:05Z</time>
      </trkpt>
      <trkpt lat="49.31633" lon="-0.35693">
        <ele>12</ele>
        <time>2021-08-18T10:22:07Z</time>
      </trkpt>
      <trkpt lat="49.3164" lon="-0.35695">
        <ele>12</ele>
        <time>2021-08-18T10:22:08Z</time>
      </trkpt>
      <trkpt lat="49.31652" lon="-0.35699">
        <ele>12</ele>
        <time>2021-08-18T10:22:10Z</time>
      </trkpt>
      <trkpt lat="49.31665" lon="-0.35702">
        <ele>11.9</ele>
        <time>2021-08-18T10:22:12Z</time>
      </trkpt>
      <trkpt lat="49.31671" lon="-0.35705">
        <ele>11.8</ele>
        <time>2021-08-18T10:22:13Z</time>
      </trkpt>
      <trkpt lat="49.31684" lon="-0.35711">
        <ele>11.6</ele>
        <time>2021-08-18T10:22:15Z</time>
      </trkpt>
      <trkpt lat="49.31691" lon="-0.35712">
        <ele>11.5</ele>
        <time>2021-08-18T10:22:16Z</time>
      </trkpt>
      <trkpt lat="49.31706" lon="-0.35713">
        <ele>11.4</ele>
        <time>2021-08-18T10:22:18Z</time>
      </trkpt>
      <trkpt lat="49.31714" lon="-0.35713">
        <ele>11.4</ele>
        <time>2021-08-18T10:22:19Z</time>
      </trkpt>
      <trkpt lat="49.31722" lon="-0.35713">
        <ele>11.2</ele>
        <time>2021-08-18T10:22:20Z</time>
      </trkpt>
      <trkpt lat="49.31737" lon="-0.35715">
        <ele>11</ele>
        <time>2021-08-18T10:22:22Z</time>
      </trkpt>
      <trkpt lat="49.31745" lon="-0.35716">
        <ele>10.9</ele>
        <time>2021-08-18T10:22:23Z</time>
      </trkpt>
      <trkpt lat="49.31762" lon="-0.35719">
        <ele>10.7</ele>
        <time>2021-08-18T10:22:25Z</time>
      </trkpt>
      <trkpt lat="49.31778" lon="-0.3572">
        <ele>10.5</ele>
        <time>2021-08-18T10:22:27Z</time>
      </trkpt>
      <trkpt lat="49.31794" lon="-0.35721">
        <ele>10.4</ele>
        <time>2021-08-18T10:22:29Z</time>
      </trkpt>
      <trkpt lat="49.31802" lon="-0.35722">
        <ele>10.3</ele>
        <time>2021-08-18T10:22:30Z</time>
      </trkpt>
      <trkpt lat="49.31818" lon="-0.35726">
        <ele>10.1</ele>
        <time>2021-08-18T10:22:32Z</time>
      </trkpt>
      <trkpt lat="49.31826" lon="-0.35728">
        <ele>10.1</ele>
        <time>2021-08-18T10:22:33Z</time>
      </trkpt>
      <trkpt lat="49.31843" lon="-0.35731">
        <ele>9.9</ele>
        <time>2021-08-18T10:22:35Z</time>
      </trkpt>
      <trkpt lat="49.31858" lon="-0.35734">
        <ele>9.7</ele>
        <time>2021-08-18T10:22:37Z</time>
      </trkpt>
      <trkpt lat="49.31874" lon="-0.35738">
        <ele>9.5</ele>
        <time>2021-08-18T10:22:39Z</time>
      </trkpt>
      <trkpt lat="49.3189" lon="-0.35741">
        <ele>9.4</ele>
        <time>2021-08-18T10:22:41Z</time>
      </trkpt>
      <trkpt lat="49.31898" lon="-0.35743">
        <ele>9.3</ele>
        <time>2021-08-18T10:22:42Z</time>
      </trkpt>
      <trkpt lat="49.31914" lon="-0.35748">
        <ele>9.1</ele>
        <time>2021-08-18T10:22:44Z</time>
      </trkpt>
      <trkpt lat="49.3193" lon="-0.35756">
        <ele>8.9</ele>
        <time>2021-08-18T10:22:46Z</time>
      </trkpt>
      <trkpt lat="49.31938" lon="-0.35761">
        <ele>8.8</ele>
        <time>2021-08-18T10:22:47Z</time>
      </trkpt>
      <trkpt lat="49.31945" lon="-0.35767">
        <ele>8.7</ele>
        <time>2021-08-18T10:22:48Z</time>
      </trkpt>
      <trkpt lat="49.31952" lon="-0.35773">
        <ele>8.6</ele>
        <time>2021-08-18T10:22:49Z</time>
      </trkpt>
      <trkpt lat="49.31967" lon="-0.35786">
        <ele>8.4</ele>
        <time>2021-08-18T10:22:51Z</time>
      </trkpt>
      <trkpt lat="49.31974" lon="-0.35793">
        <ele>8.2</ele>
        <time>2021-08-18T10:22:52Z</time>
      </trkpt>
      <trkpt lat="49.31988" lon="-0.35808">
        <ele>8</ele>
        <time>2021-08-18T10:22:54Z</time>
      </trkpt>
      <trkpt lat="49.32002" lon="-0.35823">
        <ele>7.8</ele>
        <time>2021-08-18T10:22:56Z</time>
      </trkpt>
      <trkpt lat="49.32009" lon="-0.35832">
        <ele>7.7</ele>
        <time>2021-08-18T10:22:57Z</time>
      </trkpt>
      <trkpt lat="49.32021" lon="-0.35848">
        <ele>7.5</ele>
        <time>2021-08-18T10:22:59Z</time>
      </trkpt>
      <trkpt lat="49.32028" lon="-0.35855">
        <ele>7.4</ele>
        <time>2021-08-18T10:23:00Z</time>
      </trkpt>
      <trkpt lat="49.32035" lon="-0.35863">
        <ele>7.3</ele>
        <time>2021-08-18T10:23:01Z</time>
      </trkpt>
      <trkpt lat="49.32048" lon="-0.35878">
        <ele>7.1</ele>
        <time>2021-08-18T10:23:03Z</time>
      </trkpt>
      <trkpt lat="49.32062" lon="-0.35891">
        <ele>7</ele>
        <time>2021-08-18T10:23:05Z</time>
      </trkpt>
      <trkpt lat="49.32068" lon="-0.35898">
        <ele>6.9</ele>
        <time>2021-08-18T10:23:06Z</time>
      </trkpt>
      <trkpt lat="49.32074" lon="-0.35905">
        <ele>6.9</ele>
        <time>2021-08-18T10:23:07Z</time>
      </trkpt>
      <trkpt lat="49.32085" lon="-0.35915">
        <ele>6.8</ele>
        <time>2021-08-18T10:23:09Z</time>
      </trkpt>
      <trkpt lat="49.32098" lon="-0.35918">
        <ele>6.7</ele>
        <time>2021-08-18T10:23:11Z</time>
      </trkpt>
      <trkpt lat="49.32104" lon="-0.35919">
        <ele>6.7</ele>
        <time>2021-08-18T10:23:12Z</time>
      </trkpt>
      <trkpt lat="49.32115" lon="-0.3592">
        <ele>6.6</ele>
        <time>2021-08-18T10:23:14Z</time>
      </trkpt>
      <trkpt lat="49.32128" lon="-0.35917">
        <ele>6.4</ele>
        <time>2021-08-18T10:23:16Z</time>
      </trkpt>
      <trkpt lat="49.32135" lon="-0.35917">
        <ele>6.4</ele>
        <time>2021-08-18T10:23:17Z</time>
      </trkpt>
      <trkpt lat="49.32148" lon="-0.35917">
        <ele>6.3</ele>
        <time>2021-08-18T10:23:19Z</time>
      </trkpt>
      <trkpt lat="49.32158" lon="-0.35916">
        <ele>6.2</ele>
        <time>2021-08-18T10:23:21Z</time>
      </trkpt>
      <trkpt lat="49.32161" lon="-0.35915">
        <ele>6.2</ele>
        <time>2021-08-18T10:23:22Z</time>
      </trkpt>
      <trkpt lat="49.32163" lon="-0.35914">
        <ele>6.2</ele>
        <time>2021-08-18T10:23:23Z</time>
      </trkpt>
      <trkpt lat="49.32164" lon="-0.35913">
        <ele>6.2</ele>
        <time>2021-08-18T10:23:24Z</time>
      </trkpt>
      <trkpt lat="49.32168" lon="-0.35906">
        <ele>6.2</ele>
        <time>2021-08-18T10:23:26Z</time>
      </trkpt>
      <trkpt lat="49.32168" lon="-0.35897">
        <ele>6.2</ele>
        <time>2021-08-18T10:23:28Z</time>
      </trkpt>
      <trkpt lat="49.32169" lon="-0.35891">
        <ele>6.2</ele>
        <time>2021-08-18T10:23:30Z</time>
      </trkpt>
      <trkpt lat="49.32169" lon="-0.35891">
        <ele>6.2</ele>
        <time>2021-08-18T10:23:32Z</time>
      </trkpt>
      <trkpt lat="49.32169" lon="-0.35891">
        <ele>6.2</ele>
        <time>2021-08-18T10:23:33Z</time>
      </trkpt>
      <trkpt lat="49.3217" lon="-0.35889">
        <ele>6.2</ele>
        <time>2021-08-18T10:23:34Z</time>
      </trkpt>
      <trkpt lat="49.32173" lon="-0.35883">
        <ele>6</ele>
        <time>2021-08-18T10:23:36Z</time>
      </trkpt>
      <trkpt lat="49.32176" lon="-0.35877">
        <ele>5.8</ele>
        <time>2021-08-18T10:23:38Z</time>
      </trkpt>
      <trkpt lat="49.32178" lon="-0.35875">
        <ele>5.7</ele>
        <time>2021-08-18T10:23:39Z</time>
      </trkpt>
      <trkpt lat="49.32182" lon="-0.35868">
        <ele>5.4</ele>
        <time>2021-08-18T10:23:41Z</time>
      </trkpt>
      <trkpt lat="49.32184" lon="-0.35862">
        <ele>5.3</ele>
        <time>2021-08-18T10:23:43Z</time>
      </trkpt>
      <trkpt lat="49.32184" lon="-0.35858">
        <ele>5.2</ele>
        <time>2021-08-18T10:23:44Z</time>
      </trkpt>
      <trkpt lat="49.32184" lon="-0.35851">
        <ele>5.2</ele>
        <time>2021-08-18T10:23:46Z</time>
      </trkpt>
      <trkpt lat="49.32188" lon="-0.35841">
        <ele>5.4</ele>
        <time>2021-08-18T10:30:06Z</time>
      </trkpt>
      <trkpt lat="49.32188" lon="-0.35839">
        <ele>5.4</ele>
        <time>2021-08-18T10:30:07Z</time>
      </trkpt>
      <trkpt lat="49.32189" lon="-0.35838">
        <ele>5.4</ele>
        <time>2021-08-18T10:30:08Z</time>
      </trkpt>
      <trkpt lat="49.32189" lon="-0.35838">
        <ele>5.4</ele>
        <time>2021-08-18T10:30:09Z</time>
      </trkpt>
      <trkpt lat="49.32188" lon="-0.35838">
        <ele>5.4</ele>
        <time>2021-08-18T10:30:11Z</time>
      </trkpt>
      <trkpt lat="49.32186" lon="-0.35846">
        <ele>5.5</ele>
        <time>2021-08-18T10:30:13Z</time>
      </trkpt>
      <trkpt lat="49.32186" lon="-0.35856">
        <ele>5.6</ele>
        <time>2021-08-18T10:30:15Z</time>
      </trkpt>
      <trkpt lat="49.32184" lon="-0.35863">
        <ele>5.7</ele>
        <time>2021-08-18T10:30:17Z</time>
      </trkpt>
      <trkpt lat="49.3218" lon="-0.3587">
        <ele>5.8</ele>
        <time>2021-08-18T10:30:19Z</time>
      </trkpt>
      <trkpt lat="49.32176" lon="-0.35876">
        <ele>5.8</ele>
        <time>2021-08-18T10:30:21Z</time>
      </trkpt>
      <trkpt lat="49.3217" lon="-0.35875">
        <ele>6.3</ele>
        <time>2021-08-18T10:30:23Z</time>
      </trkpt>
      <trkpt lat="49.32169" lon="-0.35871">
        <ele>6.3</ele>
        <time>2021-08-18T10:30:25Z</time>
      </trkpt>
      <trkpt lat="49.32166" lon="-0.35865">
        <ele>6.4</ele>
        <time>2021-08-18T10:30:26Z</time>
      </trkpt>
      <trkpt lat="49.32164" lon="-0.3586">
        <ele>6.5</ele>
        <time>2021-08-18T10:30:27Z</time>
      </trkpt>
      <trkpt lat="49.32158" lon="-0.35848">
        <ele>6.6</ele>
        <time>2021-08-18T10:30:28Z</time>
      </trkpt>
      <trkpt lat="49.32151" lon="-0.35832">
        <ele>6.8</ele>
        <time>2021-08-18T10:30:30Z</time>
      </trkpt>
      <trkpt lat="49.32145" lon="-0.35817">
        <ele>7</ele>
        <time>2021-08-18T10:30:32Z</time>
      </trkpt>
      <trkpt lat="49.32139" lon="-0.35801">
        <ele>7.2</ele>
        <time>2021-08-18T10:30:34Z</time>
      </trkpt>
      <trkpt lat="49.32135" lon="-0.35793">
        <ele>7.3</ele>
        <time>2021-08-18T10:30:35Z</time>
      </trkpt>
      <trkpt lat="49.32129" lon="-0.35776">
        <ele>7.5</ele>
        <time>2021-08-18T10:30:37Z</time>
      </trkpt>
      <trkpt lat="49.32126" lon="-0.35767">
        <ele>7.6</ele>
        <time>2021-08-18T10:30:38Z</time>
      </trkpt>
      <trkpt lat="49.32118" lon="-0.3575">
        <ele>7.8</ele>
        <time>2021-08-18T10:30:40Z</time>
      </trkpt>
      <trkpt lat="49.32115" lon="-0.35741">
        <ele>7.9</ele>
        <time>2021-08-18T10:30:41Z</time>
      </trkpt>
      <trkpt lat="49.32111" lon="-0.35732">
        <ele>8</ele>
        <time>2021-08-18T10:30:42Z</time>
      </trkpt>
      <trkpt lat="49.32105" lon="-0.35715">
        <ele>8.2</ele>
        <time>2021-08-18T10:30:44Z</time>
      </trkpt>
      <trkpt lat="49.32101" lon="-0.35707">
        <ele>8.3</ele>
        <time>2021-08-18T10:30:45Z</time>
      </trkpt>
      <trkpt lat="49.32097" lon="-0.35699">
        <ele>8.4</ele>
        <time>2021-08-18T10:30:46Z</time>
      </trkpt>
      <trkpt lat="49.3209" lon="-0.35684">
        <ele>8.6</ele>
        <time>2021-08-18T10:30:48Z</time>
      </trkpt>
      <trkpt lat="49.32083" lon="-0.35667">
        <ele>8.7</ele>
        <time>2021-08-18T10:30:50Z</time>
      </trkpt>
      <trkpt lat="49.32079" lon="-0.35658">
        <ele>8.8</ele>
        <time>2021-08-18T10:30:51Z</time>
      </trkpt>
      <trkpt lat="49.32071" lon="-0.35641">
        <ele>8.9</ele>
        <time>2021-08-18T10:30:53Z</time>
      </trkpt>
      <trkpt lat="49.32064" lon="-0.35624">
        <ele>9</ele>
        <time>2021-08-18T10:30:55Z</time>
      </trkpt>
      <trkpt lat="49.32058" lon="-0.35606">
        <ele>9.1</ele>
        <time>2021-08-18T10:30:57Z</time>
      </trkpt>
      <trkpt lat="49.32051" lon="-0.35589">
        <ele>9.2</ele>
        <time>2021-08-18T10:30:59Z</time>
      </trkpt>
      <trkpt lat="49.32048" lon="-0.3558">
        <ele>9.2</ele>
        <time>2021-08-18T10:31:00Z</time>
      </trkpt>
      <trkpt lat="49.32044" lon="-0.35571">
        <ele>9.2</ele>
        <time>2021-08-18T10:31:01Z</time>
      </trkpt>
      <trkpt lat="49.32038" lon="-0.35554">
        <ele>9.1</ele>
        <time>2021-08-18T10:31:03Z</time>
      </trkpt>
      <trkpt lat="49.32031" lon="-0.35535">
        <ele>9.1</ele>
        <time>2021-08-18T10:31:05Z</time>
      </trkpt>
      <trkpt lat="49.32027" lon="-0.35526">
        <ele>9.1</ele>
        <time>2021-08-18T10:31:06Z</time>
      </trkpt>
      <trkpt lat="49.32017" lon="-0.3551">
        <ele>9</ele>
        <time>2021-08-18T10:31:08Z</time>
      </trkpt>
      <trkpt lat="49.32011" lon="-0.35502">
        <ele>9</ele>
        <time>2021-08-18T10:31:09Z</time>
      </trkpt>
      <trkpt lat="49.32003" lon="-0.35484">
        <ele>8.9</ele>
        <time>2021-08-18T10:31:11Z</time>
      </trkpt>
      <trkpt lat="49.31999" lon="-0.35474">
        <ele>8.9</ele>
        <time>2021-08-18T10:31:12Z</time>
      </trkpt>
      <trkpt lat="49.31991" lon="-0.35455">
        <ele>8.7</ele>
        <time>2021-08-18T10:31:14Z</time>
      </trkpt>
      <trkpt lat="49.31981" lon="-0.35436">
        <ele>8.6</ele>
        <time>2021-08-18T10:31:16Z</time>
      </trkpt>
      <trkpt lat="49.31972" lon="-0.35416">
        <ele>8.6</ele>
        <time>2021-08-18T10:31:18Z</time>
      </trkpt>
      <trkpt lat="49.31962" lon="-0.35395">
        <ele>8.4</ele>
        <time>2021-08-18T10:31:20Z</time>
      </trkpt>
      <trkpt lat="49.31954" lon="-0.35374">
        <ele>8.3</ele>
        <time>2021-08-18T10:31:22Z</time>
      </trkpt>
      <trkpt lat="49.31945" lon="-0.35354">
        <ele>8.3</ele>
        <time>2021-08-18T10:31:24Z</time>
      </trkpt>
      <trkpt lat="49.31936" lon="-0.35335">
        <ele>8.4</ele>
        <time>2021-08-18T10:31:26Z</time>
      </trkpt>
      <trkpt lat="49.31932" lon="-0.35324">
        <ele>8.4</ele>
        <time>2021-08-18T10:31:27Z</time>
      </trkpt>
      <trkpt lat="49.31928" lon="-0.35314">
        <ele>8.4</ele>
        <time>2021-08-18T10:31:28Z</time>
      </trkpt>
      <trkpt lat="49.3192" lon="-0.35294">
        <ele>8.4</ele>
        <time>2021-08-18T10:31:30Z</time>
      </trkpt>
      <trkpt lat="49.31911" lon="-0.35273">
        <ele>8.3</ele>
        <time>2021-08-18T10:31:32Z</time>
      </trkpt>
      <trkpt lat="49.31903" lon="-0.35253">
        <ele>8.3</ele>
        <time>2021-08-18T10:31:34Z</time>
      </trkpt>
      <trkpt lat="49.31899" lon="-0.35243">
        <ele>8.3</ele>
        <time>2021-08-18T10:31:35Z</time>
      </trkpt>
      <trkpt lat="49.31895" lon="-0.35234">
        <ele>8.3</ele>
        <time>2021-08-18T10:31:36Z</time>
      </trkpt>
      <trkpt lat="49.31887" lon="-0.35215">
        <ele>8.3</ele>
        <time>2021-08-18T10:31:38Z</time>
      </trkpt>
      <trkpt lat="49.31882" lon="-0.35205">
        <ele>8.3</ele>
        <time>2021-08-18T10:31:39Z</time>
      </trkpt>
      <trkpt lat="49.31876" lon="-0.35182">
        <ele>8.3</ele>
        <time>2021-08-18T10:31:41Z</time>
      </trkpt>
      <trkpt lat="49.3187" lon="-0.35158">
        <ele>8.4</ele>
        <time>2021-08-18T10:31:43Z</time>
      </trkpt>
      <trkpt lat="49.31867" lon="-0.35148">
        <ele>8.4</ele>
        <time>2021-08-18T10:31:45Z</time>
      </trkpt>
      <trkpt lat="49.31859" lon="-0.35128">
        <ele>8.4</ele>
        <time>2021-08-18T10:31:46Z</time>
      </trkpt>
      <trkpt lat="49.31851" lon="-0.35107">
        <ele>8.4</ele>
        <time>2021-08-18T10:31:48Z</time>
      </trkpt>
      <trkpt lat="49.31843" lon="-0.35088">
        <ele>8.5</ele>
        <time>2021-08-18T10:31:50Z</time>
      </trkpt>
      <trkpt lat="49.31839" lon="-0.35078">
        <ele>8.5</ele>
        <time>2021-08-18T10:31:51Z</time>
      </trkpt>
      <trkpt lat="49.31829" lon="-0.3506">
        <ele>8.6</ele>
        <time>2021-08-18T10:31:53Z</time>
      </trkpt>
      <trkpt lat="49.31824" lon="-0.35052">
        <ele>8.6</ele>
        <time>2021-08-18T10:31:54Z</time>
      </trkpt>
      <trkpt lat="49.31818" lon="-0.35043">
        <ele>8.7</ele>
        <time>2021-08-18T10:31:55Z</time>
      </trkpt>
      <trkpt lat="49.31806" lon="-0.35029">
        <ele>8.7</ele>
        <time>2021-08-18T10:31:57Z</time>
      </trkpt>
      <trkpt lat="49.31799" lon="-0.35024">
        <ele>8.8</ele>
        <time>2021-08-18T10:31:58Z</time>
      </trkpt>
      <trkpt lat="49.31785" lon="-0.35013">
        <ele>8.9</ele>
        <time>2021-08-18T10:32:00Z</time>
      </trkpt>
      <trkpt lat="49.31772" lon="-0.35001">
        <ele>8.9</ele>
        <time>2021-08-18T10:32:02Z</time>
      </trkpt>
      <trkpt lat="49.31766" lon="-0.34995">
        <ele>9</ele>
        <time>2021-08-18T10:32:03Z</time>
      </trkpt>
      <trkpt lat="49.31759" lon="-0.34988">
        <ele>9</ele>
        <time>2021-08-18T10:32:04Z</time>
      </trkpt>
      <trkpt lat="49.31746" lon="-0.34975">
        <ele>9.1</ele>
        <time>2021-08-18T10:32:06Z</time>
      </trkpt>
      <trkpt lat="49.3174" lon="-0.34968">
        <ele>9.2</ele>
        <time>2021-08-18T10:32:07Z</time>
      </trkpt>
      <trkpt lat="49.31734" lon="-0.34961">
        <ele>9.2</ele>
        <time>2021-08-18T10:32:08Z</time>
      </trkpt>
      <trkpt lat="49.31722" lon="-0.3495">
        <ele>9.4</ele>
        <time>2021-08-18T10:32:10Z</time>
      </trkpt>
      <trkpt lat="49.31715" lon="-0.34946">
        <ele>9.5</ele>
        <time>2021-08-18T10:32:11Z</time>
      </trkpt>
      <trkpt lat="49.31701" lon="-0.34951">
        <ele>9.7</ele>
        <time>2021-08-18T10:32:13Z</time>
      </trkpt>
      <trkpt lat="49.31689" lon="-0.34953">
        <ele>9.8</ele>
        <time>2021-08-18T10:32:15Z</time>
      </trkpt>
      <trkpt lat="49.31687" lon="-0.34947">
        <ele>9.8</ele>
        <time>2021-08-18T10:32:16Z</time>
      </trkpt>
      <trkpt lat="49.31687" lon="-0.34928">
        <ele>9.9</ele>
        <time>2021-08-18T10:32:18Z</time>
      </trkpt>
      <trkpt lat="49.31683" lon="-0.34909">
        <ele>9.9</ele>
        <time>2021-08-18T10:32:20Z</time>
      </trkpt>
      <trkpt lat="49.31677" lon="-0.349">
        <ele>9.9</ele>
        <time>2021-08-18T10:32:21Z</time>
      </trkpt>
      <trkpt lat="49.31668" lon="-0.34882">
        <ele>9.9</ele>
        <time>2021-08-18T10:32:23Z</time>
      </trkpt>
      <trkpt lat="49.31665" lon="-0.34872">
        <ele>9.9</ele>
        <time>2021-08-18T10:32:24Z</time>
      </trkpt>
      <trkpt lat="49.31657" lon="-0.34853">
        <ele>10</ele>
        <time>2021-08-18T10:32:26Z</time>
      </trkpt>
      <trkpt lat="49.31653" lon="-0.34844">
        <ele>10</ele>
        <time>2021-08-18T10:32:27Z</time>
      </trkpt>
      <trkpt lat="49.31649" lon="-0.34835">
        <ele>10.1</ele>
        <time>2021-08-18T10:32:28Z</time>
      </trkpt>
      <trkpt lat="49.31644" lon="-0.34826">
        <ele>10.1</ele>
        <time>2021-08-18T10:32:29Z</time>
      </trkpt>
      <trkpt lat="49.31636" lon="-0.34808">
        <ele>10.2</ele>
        <time>2021-08-18T10:32:31Z</time>
      </trkpt>
      <trkpt lat="49.31628" lon="-0.34789">
        <ele>10.3</ele>
        <time>2021-08-18T10:32:33Z</time>
      </trkpt>
      <trkpt lat="49.3162" lon="-0.34771">
        <ele>10.3</ele>
        <time>2021-08-18T10:32:35Z</time>
      </trkpt>
      <trkpt lat="49.31611" lon="-0.34753">
        <ele>10.4</ele>
        <time>2021-08-18T10:32:37Z</time>
      </trkpt>
      <trkpt lat="49.31607" lon="-0.34744">
        <ele>10.4</ele>
        <time>2021-08-18T10:32:38Z</time>
      </trkpt>
      <trkpt lat="49.31603" lon="-0.34734">
        <ele>10.4</ele>
        <time>2021-08-18T10:32:39Z</time>
      </trkpt>
      <trkpt lat="49.31595" lon="-0.34716">
        <ele>10.5</ele>
        <time>2021-08-18T10:32:41Z</time>
      </trkpt>
      <trkpt lat="49.31587" lon="-0.34696">
        <ele>10.6</ele>
        <time>2021-08-18T10:32:43Z</time>
      </trkpt>
      <trkpt lat="49.31578" lon="-0.34676">
        <ele>10.7</ele>
        <time>2021-08-18T10:32:45Z</time>
      </trkpt>
      <trkpt lat="49.31574" lon="-0.34667">
        <ele>10.8</ele>
        <time>2021-08-18T10:32:46Z</time>
      </trkpt>
      <trkpt lat="49.3157" lon="-0.34657">
        <ele>10.8</ele>
        <time>2021-08-18T10:32:47Z</time>
      </trkpt>
      <trkpt lat="49.31561" lon="-0.34638">
        <ele>10.9</ele>
        <time>2021-08-18T10:32:49Z</time>
      </trkpt>
      <trkpt lat="49.31556" lon="-0.34629">
        <ele>10.9</ele>
        <time>2021-08-18T10:32:50Z</time>
      </trkpt>
      <trkpt lat="49.31547" lon="-0.3461">
        <ele>11</ele>
        <time>2021-08-18T10:32:52Z</time>
      </trkpt>
      <trkpt lat="49.31542" lon="-0.346">
        <ele>11</ele>
        <time>2021-08-18T10:32:53Z</time>
      </trkpt>
      <trkpt lat="49.31538" lon="-0.34591">
        <ele>11</ele>
        <time>2021-08-18T10:32:54Z</time>
      </trkpt>
      <trkpt lat="49.31528" lon="-0.34572">
        <ele>11</ele>
        <time>2021-08-18T10:32:56Z</time>
      </trkpt>
      <trkpt lat="49.31519" lon="-0.34551">
        <ele>10.9</ele>
        <time>2021-08-18T10:32:58Z</time>
      </trkpt>
      <trkpt lat="49.31515" lon="-0.34541">
        <ele>10.9</ele>
        <time>2021-08-18T10:32:59Z</time>
      </trkpt>
      <trkpt lat="49.31505" lon="-0.34521">
        <ele>10.9</ele>
        <time>2021-08-18T10:33:01Z</time>
      </trkpt>
      <trkpt lat="49.31501" lon="-0.34511">
        <ele>10.8</ele>
        <time>2021-08-18T10:33:02Z</time>
      </trkpt>
      <trkpt lat="49.31492" lon="-0.3449">
        <ele>10.6</ele>
        <time>2021-08-18T10:33:04Z</time>
      </trkpt>
      <trkpt lat="49.31483" lon="-0.34469">
        <ele>10.5</ele>
        <time>2021-08-18T10:33:06Z</time>
      </trkpt>
      <trkpt lat="49.31473" lon="-0.34447">
        <ele>10.5</ele>
        <time>2021-08-18T10:33:08Z</time>
      </trkpt>
      <trkpt lat="49.31469" lon="-0.34436">
        <ele>10.4</ele>
        <time>2021-08-18T10:33:09Z</time>
      </trkpt>
      <trkpt lat="49.31455" lon="-0.34402">
        <ele>10.3</ele>
        <time>2021-08-18T10:33:12Z</time>
      </trkpt>
      <trkpt lat="49.31446" lon="-0.34381">
        <ele>10.1</ele>
        <time>2021-08-18T10:33:14Z</time>
      </trkpt>
      <trkpt lat="49.31436" lon="-0.34359">
        <ele>9.9</ele>
        <time>2021-08-18T10:33:16Z</time>
      </trkpt>
      <trkpt lat="49.31426" lon="-0.34336">
        <ele>9.7</ele>
        <time>2021-08-18T10:33:18Z</time>
      </trkpt>
      <trkpt lat="49.31422" lon="-0.34325">
        <ele>9.7</ele>
        <time>2021-08-18T10:33:19Z</time>
      </trkpt>
      <trkpt lat="49.31412" lon="-0.34302">
        <ele>9.5</ele>
        <time>2021-08-18T10:33:21Z</time>
      </trkpt>
      <trkpt lat="49.31403" lon="-0.34278">
        <ele>9.3</ele>
        <time>2021-08-18T10:33:23Z</time>
      </trkpt>
      <trkpt lat="49.31397" lon="-0.34267">
        <ele>9.1</ele>
        <time>2021-08-18T10:33:24Z</time>
      </trkpt>
      <trkpt lat="49.31391" lon="-0.34256">
        <ele>8.9</ele>
        <time>2021-08-18T10:33:25Z</time>
      </trkpt>
      <trkpt lat="49.31378" lon="-0.34233">
        <ele>8.6</ele>
        <time>2021-08-18T10:33:27Z</time>
      </trkpt>
      <trkpt lat="49.31372" lon="-0.34219">
        <ele>8.5</ele>
        <time>2021-08-18T10:33:28Z</time>
      </trkpt>
      <trkpt lat="49.31362" lon="-0.34193">
        <ele>8.3</ele>
        <time>2021-08-18T10:33:30Z</time>
      </trkpt>
      <trkpt lat="49.31351" lon="-0.34167">
        <ele>8.1</ele>
        <time>2021-08-18T10:33:32Z</time>
      </trkpt>
      <trkpt lat="49.31346" lon="-0.34153">
        <ele>8.1</ele>
        <time>2021-08-18T10:33:33Z</time>
      </trkpt>
      <trkpt lat="49.31332" lon="-0.34112">
        <ele>8.3</ele>
        <time>2021-08-18T10:33:36Z</time>
      </trkpt>
      <trkpt lat="49.31322" lon="-0.34087">
        <ele>8.6</ele>
        <time>2021-08-18T10:33:38Z</time>
      </trkpt>
      <trkpt lat="49.31312" lon="-0.34063">
        <ele>8.8</ele>
        <time>2021-08-18T10:33:40Z</time>
      </trkpt>
      <trkpt lat="49.31303" lon="-0.34037">
        <ele>9</ele>
        <time>2021-08-18T10:33:42Z</time>
      </trkpt>
      <trkpt lat="49.31297" lon="-0.34012">
        <ele>9.1</ele>
        <time>2021-08-18T10:33:44Z</time>
      </trkpt>
      <trkpt lat="49.31288" lon="-0.3399">
        <ele>9.3</ele>
        <time>2021-08-18T10:33:46Z</time>
      </trkpt>
      <trkpt lat="49.31284" lon="-0.33978">
        <ele>9.3</ele>
        <time>2021-08-18T10:33:47Z</time>
      </trkpt>
      <trkpt lat="49.31275" lon="-0.33954">
        <ele>9.5</ele>
        <time>2021-08-18T10:33:49Z</time>
      </trkpt>
      <trkpt lat="49.31267" lon="-0.33931">
        <ele>9.6</ele>
        <time>2021-08-18T10:33:51Z</time>
      </trkpt>
      <trkpt lat="49.31262" lon="-0.33919">
        <ele>9.7</ele>
        <time>2021-08-18T10:33:52Z</time>
      </trkpt>
      <trkpt lat="49.31253" lon="-0.33897">
        <ele>9.8</ele>
        <time>2021-08-18T10:33:54Z</time>
      </trkpt>
      <trkpt lat="49.31248" lon="-0.33885">
        <ele>9.9</ele>
        <time>2021-08-18T10:33:55Z</time>
      </trkpt>
      <trkpt lat="49.31244" lon="-0.33874">
        <ele>10.1</ele>
        <time>2021-08-18T10:33:56Z</time>
      </trkpt>
      <trkpt lat="49.31234" lon="-0.33853">
        <ele>10.2</ele>
        <time>2021-08-18T10:33:58Z</time>
      </trkpt>
      <trkpt lat="49.31225" lon="-0.33831">
        <ele>10.3</ele>
        <time>2021-08-18T10:34:00Z</time>
      </trkpt>
      <trkpt lat="49.31221" lon="-0.3382">
        <ele>10.4</ele>
        <time>2021-08-18T10:34:01Z</time>
      </trkpt>
      <trkpt lat="49.31216" lon="-0.33809">
        <ele>10.5</ele>
        <time>2021-08-18T10:34:02Z</time>
      </trkpt>
      <trkpt lat="49.31207" lon="-0.33789">
        <ele>10.7</ele>
        <time>2021-08-18T10:34:04Z</time>
      </trkpt>
      <trkpt lat="49.31199" lon="-0.33768">
        <ele>10.7</ele>
        <time>2021-08-18T10:34:06Z</time>
      </trkpt>
      <trkpt lat="49.31194" lon="-0.33757">
        <ele>10.8</ele>
        <time>2021-08-18T10:34:07Z</time>
      </trkpt>
      <trkpt lat="49.31186" lon="-0.33735">
        <ele>10.9</ele>
        <time>2021-08-18T10:34:09Z</time>
      </trkpt>
      <trkpt lat="49.31177" lon="-0.33714">
        <ele>11</ele>
        <time>2021-08-18T10:34:11Z</time>
      </trkpt>
      <trkpt lat="49.31168" lon="-0.33692">
        <ele>11.1</ele>
        <time>2021-08-18T10:34:13Z</time>
      </trkpt>
      <trkpt lat="49.3116" lon="-0.33671">
        <ele>11.2</ele>
        <time>2021-08-18T10:34:15Z</time>
      </trkpt>
      <trkpt lat="49.31155" lon="-0.3366">
        <ele>11.2</ele>
        <time>2021-08-18T10:34:16Z</time>
      </trkpt>
      <trkpt lat="49.31147" lon="-0.33638">
        <ele>11.3</ele>
        <time>2021-08-18T10:34:18Z</time>
      </trkpt>
      <trkpt lat="49.31142" lon="-0.33627">
        <ele>11.3</ele>
        <time>2021-08-18T10:34:19Z</time>
      </trkpt>
      <trkpt lat="49.31133" lon="-0.33606">
        <ele>11.4</ele>
        <time>2021-08-18T10:34:21Z</time>
      </trkpt>
      <trkpt lat="49.31124" lon="-0.33584">
        <ele>11.5</ele>
        <time>2021-08-18T10:34:23Z</time>
      </trkpt>
      <trkpt lat="49.3112" lon="-0.33574">
        <ele>11.5</ele>
        <time>2021-08-18T10:34:24Z</time>
      </trkpt>
      <trkpt lat="49.31115" lon="-0.33563">
        <ele>11.5</ele>
        <time>2021-08-18T10:34:25Z</time>
      </trkpt>
      <trkpt lat="49.31111" lon="-0.33552">
        <ele>11.6</ele>
        <time>2021-08-18T10:34:26Z</time>
      </trkpt>
      <trkpt lat="49.31102" lon="-0.3353">
        <ele>11.6</ele>
        <time>2021-08-18T10:34:28Z</time>
      </trkpt>
      <trkpt lat="49.31097" lon="-0.33519">
        <ele>11.6</ele>
        <time>2021-08-18T10:34:29Z</time>
      </trkpt>
      <trkpt lat="49.31088" lon="-0.33496">
        <ele>11.6</ele>
        <time>2021-08-18T10:34:31Z</time>
      </trkpt>
      <trkpt lat="49.31084" lon="-0.33485">
        <ele>11.6</ele>
        <time>2021-08-18T10:34:32Z</time>
      </trkpt>
      <trkpt lat="49.31074" lon="-0.33463">
        <ele>11.6</ele>
        <time>2021-08-18T10:34:34Z</time>
      </trkpt>
      <trkpt lat="49.31064" lon="-0.33441">
        <ele>11.6</ele>
        <time>2021-08-18T10:34:36Z</time>
      </trkpt>
      <trkpt lat="49.3106" lon="-0.3343">
        <ele>11.7</ele>
        <time>2021-08-18T10:34:37Z</time>
      </trkpt>
      <trkpt lat="49.3105" lon="-0.33407">
        <ele>11.7</ele>
        <time>2021-08-18T10:34:39Z</time>
      </trkpt>
      <trkpt lat="49.31046" lon="-0.33395">
        <ele>11.7</ele>
        <time>2021-08-18T10:34:40Z</time>
      </trkpt>
      <trkpt lat="49.31041" lon="-0.33384">
        <ele>11.7</ele>
        <time>2021-08-18T10:34:41Z</time>
      </trkpt>
      <trkpt lat="49.31032" lon="-0.33362">
        <ele>11.7</ele>
        <time>2021-08-18T10:34:43Z</time>
      </trkpt>
      <trkpt lat="49.31023" lon="-0.33339">
        <ele>11.8</ele>
        <time>2021-08-18T10:34:45Z</time>
      </trkpt>
      <trkpt lat="49.31018" lon="-0.33327">
        <ele>11.8</ele>
        <time>2021-08-18T10:34:46Z</time>
      </trkpt>
      <trkpt lat="49.31008" lon="-0.33305">
        <ele>11.8</ele>
        <time>2021-08-18T10:34:48Z</time>
      </trkpt>
      <trkpt lat="49.30999" lon="-0.33283">
        <ele>11.8</ele>
        <time>2021-08-18T10:34:50Z</time>
      </trkpt>
      <trkpt lat="49.30995" lon="-0.33272">
        <ele>11.8</ele>
        <time>2021-08-18T10:34:51Z</time>
      </trkpt>
      <trkpt lat="49.30985" lon="-0.3325">
        <ele>11.8</ele>
        <time>2021-08-18T10:34:53Z</time>
      </trkpt>
      <trkpt lat="49.3098" lon="-0.33239">
        <ele>11.8</ele>
        <time>2021-08-18T10:34:54Z</time>
      </trkpt>
      <trkpt lat="49.30976" lon="-0.33228">
        <ele>11.7</ele>
        <time>2021-08-18T10:34:55Z</time>
      </trkpt>
      <trkpt lat="49.30966" lon="-0.33207">
        <ele>11.7</ele>
        <time>2021-08-18T10:34:57Z</time>
      </trkpt>
      <trkpt lat="49.30957" lon="-0.33185">
        <ele>11.7</ele>
        <time>2021-08-18T10:34:59Z</time>
      </trkpt>
      <trkpt lat="49.30952" lon="-0.33174">
        <ele>11.7</ele>
        <time>2021-08-18T10:35:00Z</time>
      </trkpt>
      <trkpt lat="49.30948" lon="-0.33163">
        <ele>11.7</ele>
        <time>2021-08-18T10:35:01Z</time>
      </trkpt>
      <trkpt lat="49.3094" lon="-0.33142">
        <ele>11.6</ele>
        <time>2021-08-18T10:35:03Z</time>
      </trkpt>
      <trkpt lat="49.30935" lon="-0.33132">
        <ele>11.6</ele>
        <time>2021-08-18T10:35:04Z</time>
      </trkpt>
      <trkpt lat="49.30931" lon="-0.33122">
        <ele>11.6</ele>
        <time>2021-08-18T10:35:05Z</time>
      </trkpt>
      <trkpt lat="49.30924" lon="-0.33102">
        <ele>11.6</ele>
        <time>2021-08-18T10:35:07Z</time>
      </trkpt>
      <trkpt lat="49.3092" lon="-0.33092">
        <ele>11.6</ele>
        <time>2021-08-18T10:35:08Z</time>
      </trkpt>
      <trkpt lat="49.30913" lon="-0.33072">
        <ele>11.5</ele>
        <time>2021-08-18T10:35:10Z</time>
      </trkpt>
      <trkpt lat="49.30909" lon="-0.33061">
        <ele>11.5</ele>
        <time>2021-08-18T10:35:11Z</time>
      </trkpt>
      <trkpt lat="49.30904" lon="-0.33052">
        <ele>11.4</ele>
        <time>2021-08-18T10:35:12Z</time>
      </trkpt>
      <trkpt lat="49.30891" lon="-0.3304">
        <ele>11.6</ele>
        <time>2021-08-18T10:35:14Z</time>
      </trkpt>
      <trkpt lat="49.30885" lon="-0.33031">
        <ele>11.5</ele>
        <time>2021-08-18T10:35:15Z</time>
      </trkpt>
      <trkpt lat="49.3088" lon="-0.3302">
        <ele>11.5</ele>
        <time>2021-08-18T10:35:16Z</time>
      </trkpt>
      <trkpt lat="49.3087" lon="-0.32999">
        <ele>11.4</ele>
        <time>2021-08-18T10:35:18Z</time>
      </trkpt>
      <trkpt lat="49.3086" lon="-0.32978">
        <ele>11.3</ele>
        <time>2021-08-18T10:35:20Z</time>
      </trkpt>
      <trkpt lat="49.30854" lon="-0.32967">
        <ele>11.3</ele>
        <time>2021-08-18T10:35:21Z</time>
      </trkpt>
      <trkpt lat="49.30849" lon="-0.32956">
        <ele>11.2</ele>
        <time>2021-08-18T10:35:22Z</time>
      </trkpt>
      <trkpt lat="49.30843" lon="-0.32946">
        <ele>11.2</ele>
        <time>2021-08-18T10:35:23Z</time>
      </trkpt>
      <trkpt lat="49.30833" lon="-0.32924">
        <ele>11.1</ele>
        <time>2021-08-18T10:35:25Z</time>
      </trkpt>
      <trkpt lat="49.30828" lon="-0.32913">
        <ele>11.1</ele>
        <time>2021-08-18T10:35:26Z</time>
      </trkpt>
      <trkpt lat="49.30822" lon="-0.32902">
        <ele>11</ele>
        <time>2021-08-18T10:35:27Z</time>
      </trkpt>
      <trkpt lat="49.30817" lon="-0.32892">
        <ele>10.9</ele>
        <time>2021-08-18T10:35:28Z</time>
      </trkpt>
      <trkpt lat="49.30812" lon="-0.32881">
        <ele>10.9</ele>
        <time>2021-08-18T10:35:29Z</time>
      </trkpt>
      <trkpt lat="49.30801" lon="-0.3286">
        <ele>10.7</ele>
        <time>2021-08-18T10:35:31Z</time>
      </trkpt>
      <trkpt lat="49.30791" lon="-0.32839">
        <ele>10.7</ele>
        <time>2021-08-18T10:35:33Z</time>
      </trkpt>
      <trkpt lat="49.3078" lon="-0.32818">
        <ele>10.6</ele>
        <time>2021-08-18T10:35:35Z</time>
      </trkpt>
      <trkpt lat="49.30775" lon="-0.32807">
        <ele>10.6</ele>
        <time>2021-08-18T10:35:36Z</time>
      </trkpt>
      <trkpt lat="49.30764" lon="-0.32787">
        <ele>10.6</ele>
        <time>2021-08-18T10:35:38Z</time>
      </trkpt>
      <trkpt lat="49.30759" lon="-0.32777">
        <ele>10.5</ele>
        <time>2021-08-18T10:35:39Z</time>
      </trkpt>
      <trkpt lat="49.30748" lon="-0.32757">
        <ele>10.4</ele>
        <time>2021-08-18T10:35:41Z</time>
      </trkpt>
      <trkpt lat="49.30739" lon="-0.32738">
        <ele>10.4</ele>
        <time>2021-08-18T10:35:43Z</time>
      </trkpt>
      <trkpt lat="49.30734" lon="-0.32728">
        <ele>10.4</ele>
        <time>2021-08-18T10:35:44Z</time>
      </trkpt>
      <trkpt lat="49.30729" lon="-0.32718">
        <ele>10.3</ele>
        <time>2021-08-18T10:35:45Z</time>
      </trkpt>
      <trkpt lat="49.30724" lon="-0.32708">
        <ele>10.3</ele>
        <time>2021-08-18T10:35:46Z</time>
      </trkpt>
      <trkpt lat="49.30715" lon="-0.32687">
        <ele>10.2</ele>
        <time>2021-08-18T10:35:48Z</time>
      </trkpt>
      <trkpt lat="49.30705" lon="-0.32667">
        <ele>10</ele>
        <time>2021-08-18T10:35:50Z</time>
      </trkpt>
      <trkpt lat="49.30695" lon="-0.32647">
        <ele>9.9</ele>
        <time>2021-08-18T10:35:52Z</time>
      </trkpt>
      <trkpt lat="49.3069" lon="-0.32637">
        <ele>9.8</ele>
        <time>2021-08-18T10:35:53Z</time>
      </trkpt>
      <trkpt lat="49.30679" lon="-0.32617">
        <ele>9.6</ele>
        <time>2021-08-18T10:35:55Z</time>
      </trkpt>
      <trkpt lat="49.30674" lon="-0.32606">
        <ele>9.5</ele>
        <time>2021-08-18T10:35:56Z</time>
      </trkpt>
      <trkpt lat="49.30664" lon="-0.32586">
        <ele>9.4</ele>
        <time>2021-08-18T10:35:58Z</time>
      </trkpt>
      <trkpt lat="49.30654" lon="-0.32565">
        <ele>9.2</ele>
        <time>2021-08-18T10:36:00Z</time>
      </trkpt>
      <trkpt lat="49.30648" lon="-0.32555">
        <ele>9.1</ele>
        <time>2021-08-18T10:36:01Z</time>
      </trkpt>
      <trkpt lat="49.30637" lon="-0.32535">
        <ele>9</ele>
        <time>2021-08-18T10:36:03Z</time>
      </trkpt>
      <trkpt lat="49.30632" lon="-0.32525">
        <ele>8.9</ele>
        <time>2021-08-18T10:36:04Z</time>
      </trkpt>
      <trkpt lat="49.3062" lon="-0.32508">
        <ele>8.8</ele>
        <time>2021-08-18T10:36:06Z</time>
      </trkpt>
      <trkpt lat="49.30614" lon="-0.325">
        <ele>8.7</ele>
        <time>2021-08-18T10:36:07Z</time>
      </trkpt>
      <trkpt lat="49.30601" lon="-0.32485">
        <ele>8.6</ele>
        <time>2021-08-18T10:36:09Z</time>
      </trkpt>
      <trkpt lat="49.30596" lon="-0.32477">
        <ele>8.6</ele>
        <time>2021-08-18T10:36:10Z</time>
      </trkpt>
      <trkpt lat="49.30586" lon="-0.32458">
        <ele>8.6</ele>
        <time>2021-08-18T10:36:12Z</time>
      </trkpt>
      <trkpt lat="49.30582" lon="-0.32449">
        <ele>8.6</ele>
        <time>2021-08-18T10:36:13Z</time>
      </trkpt>
      <trkpt lat="49.30575" lon="-0.32429">
        <ele>8.6</ele>
        <time>2021-08-18T10:36:15Z</time>
      </trkpt>
      <trkpt lat="49.30564" lon="-0.32415">
        <ele>8.6</ele>
        <time>2021-08-18T10:36:17Z</time>
      </trkpt>
      <trkpt lat="49.30556" lon="-0.32397">
        <ele>8.7</ele>
        <time>2021-08-18T10:36:19Z</time>
      </trkpt>
      <trkpt lat="49.30553" lon="-0.32376">
        <ele>8.8</ele>
        <time>2021-08-18T10:36:21Z</time>
      </trkpt>
      <trkpt lat="49.30546" lon="-0.32356">
        <ele>9</ele>
        <time>2021-08-18T10:36:23Z</time>
      </trkpt>
      <trkpt lat="49.30537" lon="-0.32338">
        <ele>9.1</ele>
        <time>2021-08-18T10:36:25Z</time>
      </trkpt>
      <trkpt lat="49.30532" lon="-0.32331">
        <ele>9.2</ele>
        <time>2021-08-18T10:36:26Z</time>
      </trkpt>
      <trkpt lat="49.30527" lon="-0.32323">
        <ele>9.3</ele>
        <time>2021-08-18T10:36:27Z</time>
      </trkpt>
      <trkpt lat="49.30517" lon="-0.32308">
        <ele>9.4</ele>
        <time>2021-08-18T10:36:29Z</time>
      </trkpt>
      <trkpt lat="49.30506" lon="-0.32292">
        <ele>9.5</ele>
        <time>2021-08-18T10:36:31Z</time>
      </trkpt>
      <trkpt lat="49.305" lon="-0.32284">
        <ele>9.6</ele>
        <time>2021-08-18T10:36:32Z</time>
      </trkpt>
      <trkpt lat="49.30495" lon="-0.32277">
        <ele>9.6</ele>
        <time>2021-08-18T10:36:33Z</time>
      </trkpt>
      <trkpt lat="49.30489" lon="-0.32269">
        <ele>9.7</ele>
        <time>2021-08-18T10:36:34Z</time>
      </trkpt>
      <trkpt lat="49.30479" lon="-0.32253">
        <ele>9.8</ele>
        <time>2021-08-18T10:36:36Z</time>
      </trkpt>
      <trkpt lat="49.30467" lon="-0.32237">
        <ele>9.9</ele>
        <time>2021-08-18T10:36:38Z</time>
      </trkpt>
      <trkpt lat="49.30456" lon="-0.32222">
        <ele>10</ele>
        <time>2021-08-18T10:36:40Z</time>
      </trkpt>
      <trkpt lat="49.30445" lon="-0.32208">
        <ele>10.1</ele>
        <time>2021-08-18T10:36:42Z</time>
      </trkpt>
      <trkpt lat="49.30434" lon="-0.32193">
        <ele>10.2</ele>
        <time>2021-08-18T10:36:44Z</time>
      </trkpt>
      <trkpt lat="49.30429" lon="-0.32186">
        <ele>10.2</ele>
        <time>2021-08-18T10:36:45Z</time>
      </trkpt>
      <trkpt lat="49.30417" lon="-0.32171">
        <ele>10.2</ele>
        <time>2021-08-18T10:36:47Z</time>
      </trkpt>
      <trkpt lat="49.30412" lon="-0.32163">
        <ele>10.3</ele>
        <time>2021-08-18T10:36:48Z</time>
      </trkpt>
      <trkpt lat="49.30402" lon="-0.32147">
        <ele>10.3</ele>
        <time>2021-08-18T10:36:50Z</time>
      </trkpt>
      <trkpt lat="49.3039" lon="-0.32131">
        <ele>10.3</ele>
        <time>2021-08-18T10:36:52Z</time>
      </trkpt>
      <trkpt lat="49.30385" lon="-0.32123">
        <ele>10.4</ele>
        <time>2021-08-18T10:36:53Z</time>
      </trkpt>
      <trkpt lat="49.30375" lon="-0.32107">
        <ele>10.4</ele>
        <time>2021-08-18T10:36:55Z</time>
      </trkpt>
      <trkpt lat="49.3037" lon="-0.32098">
        <ele>10.4</ele>
        <time>2021-08-18T10:36:56Z</time>
      </trkpt>
      <trkpt lat="49.3036" lon="-0.32084">
        <ele>10.4</ele>
        <time>2021-08-18T10:36:58Z</time>
      </trkpt>
      <trkpt lat="49.30355" lon="-0.32076">
        <ele>10.4</ele>
        <time>2021-08-18T10:36:59Z</time>
      </trkpt>
      <trkpt lat="49.30345" lon="-0.32063">
        <ele>10.4</ele>
        <time>2021-08-18T10:37:02Z</time>
      </trkpt>
      <trkpt lat="49.30335" lon="-0.32051">
        <ele>10.4</ele>
        <time>2021-08-18T10:37:03Z</time>
      </trkpt>
      <trkpt lat="49.30331" lon="-0.32043">
        <ele>10.3</ele>
        <time>2021-08-18T10:37:04Z</time>
      </trkpt>
      <trkpt lat="49.30321" lon="-0.32029">
        <ele>10.3</ele>
        <time>2021-08-18T10:37:06Z</time>
      </trkpt>
      <trkpt lat="49.30311" lon="-0.32014">
        <ele>10.2</ele>
        <time>2021-08-18T10:37:08Z</time>
      </trkpt>
      <trkpt lat="49.30302" lon="-0.32">
        <ele>10.1</ele>
        <time>2021-08-18T10:37:10Z</time>
      </trkpt>
      <trkpt lat="49.30292" lon="-0.31984">
        <ele>10</ele>
        <time>2021-08-18T10:37:12Z</time>
      </trkpt>
      <trkpt lat="49.30281" lon="-0.31969">
        <ele>9.9</ele>
        <time>2021-08-18T10:37:14Z</time>
      </trkpt>
      <trkpt lat="49.30276" lon="-0.31962">
        <ele>9.8</ele>
        <time>2021-08-18T10:37:15Z</time>
      </trkpt>
      <trkpt lat="49.30271" lon="-0.31955">
        <ele>9.8</ele>
        <time>2021-08-18T10:37:16Z</time>
      </trkpt>
      <trkpt lat="49.3026" lon="-0.31939">
        <ele>9.6</ele>
        <time>2021-08-18T10:37:18Z</time>
      </trkpt>
      <trkpt lat="49.30249" lon="-0.31924">
        <ele>9.5</ele>
        <time>2021-08-18T10:37:20Z</time>
      </trkpt>
      <trkpt lat="49.30243" lon="-0.31915">
        <ele>9.4</ele>
        <time>2021-08-18T10:37:21Z</time>
      </trkpt>
      <trkpt lat="49.30238" lon="-0.31907">
        <ele>9.3</ele>
        <time>2021-08-18T10:37:22Z</time>
      </trkpt>
      <trkpt lat="49.30226" lon="-0.3189">
        <ele>9.1</ele>
        <time>2021-08-18T10:37:24Z</time>
      </trkpt>
      <trkpt lat="49.3022" lon="-0.31882">
        <ele>9</ele>
        <time>2021-08-18T10:37:25Z</time>
      </trkpt>
      <trkpt lat="49.30208" lon="-0.31866">
        <ele>8.8</ele>
        <time>2021-08-18T10:37:27Z</time>
      </trkpt>
      <trkpt lat="49.30202" lon="-0.31858">
        <ele>8.6</ele>
        <time>2021-08-18T10:37:28Z</time>
      </trkpt>
      <trkpt lat="49.3019" lon="-0.31842">
        <ele>8.4</ele>
        <time>2021-08-18T10:37:30Z</time>
      </trkpt>
      <trkpt lat="49.30178" lon="-0.31827">
        <ele>8.2</ele>
        <time>2021-08-18T10:37:32Z</time>
      </trkpt>
      <trkpt lat="49.30172" lon="-0.31818">
        <ele>8</ele>
        <time>2021-08-18T10:37:33Z</time>
      </trkpt>
      <trkpt lat="49.30161" lon="-0.318">
        <ele>7.7</ele>
        <time>2021-08-18T10:37:35Z</time>
      </trkpt>
      <trkpt lat="49.30155" lon="-0.31791">
        <ele>7.6</ele>
        <time>2021-08-18T10:37:36Z</time>
      </trkpt>
      <trkpt lat="49.3015" lon="-0.31783">
        <ele>7.4</ele>
        <time>2021-08-18T10:37:37Z</time>
      </trkpt>
      <trkpt lat="49.30139" lon="-0.31764">
        <ele>7.2</ele>
        <time>2021-08-18T10:37:39Z</time>
      </trkpt>
      <trkpt lat="49.30133" lon="-0.31756">
        <ele>7.1</ele>
        <time>2021-08-18T10:37:40Z</time>
      </trkpt>
      <trkpt lat="49.30121" lon="-0.31739">
        <ele>6.9</ele>
        <time>2021-08-18T10:37:42Z</time>
      </trkpt>
      <trkpt lat="49.30116" lon="-0.31731">
        <ele>6.9</ele>
        <time>2021-08-18T10:37:43Z</time>
      </trkpt>
      <trkpt lat="49.30105" lon="-0.31715">
        <ele>6.7</ele>
        <time>2021-08-18T10:37:45Z</time>
      </trkpt>
      <trkpt lat="49.301" lon="-0.31708">
        <ele>6.6</ele>
        <time>2021-08-18T10:37:46Z</time>
      </trkpt>
      <trkpt lat="49.30094" lon="-0.31701">
        <ele>6.6</ele>
        <time>2021-08-18T10:37:47Z</time>
      </trkpt>
      <trkpt lat="49.30086" lon="-0.31689">
        <ele>6.4</ele>
        <time>2021-08-18T10:37:49Z</time>
      </trkpt>
      <trkpt lat="49.30085" lon="-0.31688">
        <ele>6.4</ele>
        <time>2021-08-18T10:37:50Z</time>
      </trkpt>
      <trkpt lat="49.30082" lon="-0.3169">
        <ele>6.4</ele>
        <time>2021-08-18T10:37:52Z</time>
      </trkpt>
      <trkpt lat="49.30077" lon="-0.31701">
        <ele>6.3</ele>
        <time>2021-08-18T10:37:54Z</time>
      </trkpt>
      <trkpt lat="49.30069" lon="-0.31713">
        <ele>6.2</ele>
        <time>2021-08-18T10:37:56Z</time>
      </trkpt>
      <trkpt lat="49.30059" lon="-0.31728">
        <ele>6.1</ele>
        <time>2021-08-18T10:37:58Z</time>
      </trkpt>
      <trkpt lat="49.30053" lon="-0.31735">
        <ele>6.1</ele>
        <time>2021-08-18T10:37:59Z</time>
      </trkpt>
      <trkpt lat="49.30043" lon="-0.31749">
        <ele>6</ele>
        <time>2021-08-18T10:38:01Z</time>
      </trkpt>
      <trkpt lat="49.30039" lon="-0.31758">
        <ele>5.9</ele>
        <time>2021-08-18T10:38:02Z</time>
      </trkpt>
      <trkpt lat="49.30032" lon="-0.31774">
        <ele>5.8</ele>
        <time>2021-08-18T10:38:04Z</time>
      </trkpt>
      <trkpt lat="49.30029" lon="-0.31782">
        <ele>5.8</ele>
        <time>2021-08-18T10:38:05Z</time>
      </trkpt>
      <trkpt lat="49.30026" lon="-0.3179">
        <ele>5.8</ele>
        <time>2021-08-18T10:38:06Z</time>
      </trkpt>
      <trkpt lat="49.30017" lon="-0.31806">
        <ele>5.8</ele>
        <time>2021-08-18T10:38:08Z</time>
      </trkpt>
      <trkpt lat="49.30014" lon="-0.31814">
        <ele>5.9</ele>
        <time>2021-08-18T10:38:09Z</time>
      </trkpt>
      <trkpt lat="49.30007" lon="-0.31832">
        <ele>6</ele>
        <time>2021-08-18T10:38:11Z</time>
      </trkpt>
      <trkpt lat="49.30001" lon="-0.31849">
        <ele>6.2</ele>
        <time>2021-08-18T10:38:13Z</time>
      </trkpt>
      <trkpt lat="49.29989" lon="-0.31853">
        <ele>6.1</ele>
        <time>2021-08-18T10:38:15Z</time>
      </trkpt>
      <trkpt lat="49.29976" lon="-0.31852">
        <ele>6</ele>
        <time>2021-08-18T10:38:17Z</time>
      </trkpt>
      <trkpt lat="49.29969" lon="-0.31851">
        <ele>5.9</ele>
        <time>2021-08-18T10:38:18Z</time>
      </trkpt>
      <trkpt lat="49.29956" lon="-0.31844">
        <ele>5.9</ele>
        <time>2021-08-18T10:38:20Z</time>
      </trkpt>
      <trkpt lat="49.29943" lon="-0.31837">
        <ele>6</ele>
        <time>2021-08-18T10:38:22Z</time>
      </trkpt>
      <trkpt lat="49.29937" lon="-0.31833">
        <ele>6</ele>
        <time>2021-08-18T10:38:23Z</time>
      </trkpt>
      <trkpt lat="49.2993" lon="-0.31829">
        <ele>6.1</ele>
        <time>2021-08-18T10:38:24Z</time>
      </trkpt>
      <trkpt lat="49.29918" lon="-0.31821">
        <ele>6.4</ele>
        <time>2021-08-18T10:38:26Z</time>
      </trkpt>
      <trkpt lat="49.29913" lon="-0.31817">
        <ele>6.5</ele>
        <time>2021-08-18T10:38:27Z</time>
      </trkpt>
      <trkpt lat="49.29903" lon="-0.31809">
        <ele>6.8</ele>
        <time>2021-08-18T10:38:29Z</time>
      </trkpt>
      <trkpt lat="49.29896" lon="-0.31802">
        <ele>7</ele>
        <time>2021-08-18T10:38:31Z</time>
      </trkpt>
      <trkpt lat="49.29887" lon="-0.31795">
        <ele>7.3</ele>
        <time>2021-08-18T10:38:33Z</time>
      </trkpt>
      <trkpt lat="49.29882" lon="-0.31791">
        <ele>7.5</ele>
        <time>2021-08-18T10:38:34Z</time>
      </trkpt>
      <trkpt lat="49.29877" lon="-0.31786">
        <ele>7.6</ele>
        <time>2021-08-18T10:38:35Z</time>
      </trkpt>
      <trkpt lat="49.29866" lon="-0.31777">
        <ele>8</ele>
        <time>2021-08-18T10:38:37Z</time>
      </trkpt>
      <trkpt lat="49.2986" lon="-0.31772">
        <ele>8.2</ele>
        <time>2021-08-18T10:38:38Z</time>
      </trkpt>
      <trkpt lat="49.29848" lon="-0.31764">
        <ele>8.7</ele>
        <time>2021-08-18T10:38:40Z</time>
      </trkpt>
      <trkpt lat="49.29836" lon="-0.31755">
        <ele>8.9</ele>
        <time>2021-08-18T10:38:42Z</time>
      </trkpt>
      <trkpt lat="49.29825" lon="-0.31746">
        <ele>9.2</ele>
        <time>2021-08-18T10:38:44Z</time>
      </trkpt>
      <trkpt lat="49.29814" lon="-0.31736">
        <ele>9.5</ele>
        <time>2021-08-18T10:38:46Z</time>
      </trkpt>
      <trkpt lat="49.29804" lon="-0.31727">
        <ele>9.8</ele>
        <time>2021-08-18T10:38:48Z</time>
      </trkpt>
      <trkpt lat="49.29795" lon="-0.31718">
        <ele>10</ele>
        <time>2021-08-18T10:38:50Z</time>
      </trkpt>
      <trkpt lat="49.2979" lon="-0.31713">
        <ele>10.1</ele>
        <time>2021-08-18T10:38:51Z</time>
      </trkpt>
      <trkpt lat="49.29785" lon="-0.31709">
        <ele>10.1</ele>
        <time>2021-08-18T10:38:52Z</time>
      </trkpt>
      <trkpt lat="49.29776" lon="-0.31703">
        <ele>10.3</ele>
        <time>2021-08-18T10:38:54Z</time>
      </trkpt>
      <trkpt lat="49.29771" lon="-0.31699">
        <ele>10.4</ele>
        <time>2021-08-18T10:38:56Z</time>
      </trkpt>
      <trkpt lat="49.29762" lon="-0.31693">
        <ele>10.5</ele>
        <time>2021-08-18T10:38:57Z</time>
      </trkpt>
      <trkpt lat="49.29758" lon="-0.31689">
        <ele>10.6</ele>
        <time>2021-08-18T10:38:58Z</time>
      </trkpt>
      <trkpt lat="49.29753" lon="-0.31686">
        <ele>10.6</ele>
        <time>2021-08-18T10:38:59Z</time>
      </trkpt>
      <trkpt lat="49.29749" lon="-0.31682">
        <ele>10.7</ele>
        <time>2021-08-18T10:39:00Z</time>
      </trkpt>
      <trkpt lat="49.2974" lon="-0.31676">
        <ele>10.8</ele>
        <time>2021-08-18T10:39:02Z</time>
      </trkpt>
      <trkpt lat="49.29735" lon="-0.31672">
        <ele>10.8</ele>
        <time>2021-08-18T10:39:03Z</time>
      </trkpt>
      <trkpt lat="49.29726" lon="-0.31666">
        <ele>10.9</ele>
        <time>2021-08-18T10:39:05Z</time>
      </trkpt>
      <trkpt lat="49.29717" lon="-0.3166">
        <ele>11</ele>
        <time>2021-08-18T10:39:07Z</time>
      </trkpt>
      <trkpt lat="49.29708" lon="-0.31653">
        <ele>11.1</ele>
        <time>2021-08-18T10:39:09Z</time>
      </trkpt>
      <trkpt lat="49.29704" lon="-0.31649">
        <ele>11.1</ele>
        <time>2021-08-18T10:39:10Z</time>
      </trkpt>
      <trkpt lat="49.29696" lon="-0.31644">
        <ele>11.1</ele>
        <time>2021-08-18T10:39:12Z</time>
      </trkpt>
      <trkpt lat="49.29691" lon="-0.3164">
        <ele>11</ele>
        <time>2021-08-18T10:39:13Z</time>
      </trkpt>
      <trkpt lat="49.29686" lon="-0.31638">
        <ele>11</ele>
        <time>2021-08-18T10:39:14Z</time>
      </trkpt>
      <trkpt lat="49.29677" lon="-0.31634">
        <ele>10.9</ele>
        <time>2021-08-18T10:39:16Z</time>
      </trkpt>
      <trkpt lat="49.29673" lon="-0.31631">
        <ele>10.9</ele>
        <time>2021-08-18T10:39:17Z</time>
      </trkpt>
      <trkpt lat="49.29668" lon="-0.31629">
        <ele>10.9</ele>
        <time>2021-08-18T10:39:18Z</time>
      </trkpt>
      <trkpt lat="49.29659" lon="-0.31623">
        <ele>10.9</ele>
        <time>2021-08-18T10:39:21Z</time>
      </trkpt>
      <trkpt lat="49.29652" lon="-0.31619">
        <ele>10.9</ele>
        <time>2021-08-18T10:39:22Z</time>
      </trkpt>
    </trkseg>
  </trk>
</gpx>